<?xml version='1.0' encoding='UTF-8'?><gpx version="1.1" creator="JPX - https://github.com/jenetics/jpx" xmlns="http://www.topografix.com/GPX/1/1"><trk><trkseg><trkpt lat="45.00022976071343" lon="9.512341427312878"><ele>92.0</ele><time>2026-04-04T08:08:30Z</time></trkpt><trkpt lat="45.00020334547753" lon="9.512247330610323"><ele>92.0</ele><time>2026-04-04T08:08:35Z</time></trkpt><trkpt lat="45.000172788597894" lon="9.51215665906172"><ele>92.0</ele><time>2026-04-04T08:08:39Z</time></trkpt><trkpt lat="45.00017610155011" lon="9.512065705712047"><ele>92.0</ele><time>2026-04-04T08:08:44Z</time></trkpt><trkpt lat="45.00020499046468" lon="9.511981763388203"><ele>92.0</ele><time>2026-04-04T08:08:48Z</time></trkpt><trkpt lat="45.00019783445844" lon="9.511885347525597"><ele>92.0</ele><time>2026-04-04T08:08:53Z</time></trkpt><trkpt lat="45.000234432401385" lon="9.511808357122874"><ele>92.0</ele><time>2026-04-04T08:08:58Z</time></trkpt><trkpt lat="45.000252866054964" lon="9.511696606676342"><ele>92.6</ele><time>2026-04-04T08:09:05Z</time></trkpt><trkpt lat="45.00029203515293" lon="9.511617833153228"><ele>93.19999999999999</ele><time>2026-04-04T08:09:07.999Z</time></trkpt><trkpt lat="45.000327177253034" lon="9.511525228631044"><ele>93.8</ele><time>2026-04-04T08:09:10.999Z</time></trkpt><trkpt lat="45.00046489960263" lon="9.51151496271355"><ele>94.4</ele><time>2026-04-04T08:09:13.999Z</time></trkpt><trkpt lat="45.00054586114088" lon="9.511521949508502"><ele>95.0</ele><time>2026-04-04T08:09:14.999Z</time></trkpt><trkpt lat="45.000657054327405" lon="9.511537147708193"><ele>95.0</ele><time>2026-04-04T08:09:15.999Z</time></trkpt><trkpt lat="45.00077183443482" lon="9.511558501462288"><ele>95.0</ele><time>2026-04-04T08:09:16.999Z</time></trkpt><trkpt lat="45.000858933935326" lon="9.511592035318968"><ele>95.0</ele><time>2026-04-04T08:09:17.999Z</time></trkpt><trkpt lat="45.00094771755919" lon="9.511602380547185"><ele>95.0</ele><time>2026-04-04T08:09:18.999Z</time></trkpt><trkpt lat="45.0010232856903" lon="9.51158870790783"><ele>95.0</ele><time>2026-04-04T08:09:19.999Z</time></trkpt><trkpt lat="45.00110773386888" lon="9.511598769660647"><ele>94.75</ele><time>2026-04-04T08:09:20.999Z</time></trkpt><trkpt lat="45.001214195724714" lon="9.511610143583221"><ele>94.5</ele><time>2026-04-04T08:09:21.999Z</time></trkpt><trkpt lat="45.00136596784895" lon="9.511641956749518"><ele>94.25</ele><time>2026-04-04T08:09:22.999Z</time></trkpt><trkpt lat="45.00152835447429" lon="9.511658864871302"><ele>94.0</ele><time>2026-04-04T08:09:23.999Z</time></trkpt><trkpt lat="45.00166803682617" lon="9.51166980048265"><ele>93.5</ele><time>2026-04-04T08:09:24.999Z</time></trkpt><trkpt lat="45.0017863033392" lon="9.511694501871366"><ele>93.0</ele><time>2026-04-04T08:09:25.999Z</time></trkpt><trkpt lat="45.001883818554944" lon="9.511682421204597"><ele>92.5</ele><time>2026-04-04T08:09:26.999Z</time></trkpt><trkpt lat="45.001959031905685" lon="9.51170002002285"><ele>92.0</ele><time>2026-04-04T08:09:27.999Z</time></trkpt><trkpt lat="45.00202621208632" lon="9.51170625256112"><ele>91.5</ele><time>2026-04-04T08:09:28.999Z</time></trkpt><trkpt lat="45.0020966671318" lon="9.511696750484381"><ele>91.0</ele><time>2026-04-04T08:09:29.999Z</time></trkpt><trkpt lat="45.0021655567245" lon="9.511678992311808"><ele>91.0</ele><time>2026-04-04T08:09:30.999Z</time></trkpt><trkpt lat="45.00220757692981" lon="9.511564496965352"><ele>91.0</ele><time>2026-04-04T08:09:31.999Z</time></trkpt><trkpt lat="45.00222860561984" lon="9.511442028416125"><ele>91.0</ele><time>2026-04-04T08:09:32.999Z</time></trkpt><trkpt lat="45.00223401281868" lon="9.511269441243321"><ele>91.0</ele><time>2026-04-04T08:09:33.999Z</time></trkpt><trkpt lat="45.00223079400376" lon="9.51108871707571"><ele>91.0</ele><time>2026-04-04T08:09:34.999Z</time></trkpt><trkpt lat="45.002230530596556" lon="9.510943285818742"><ele>91.19999999999999</ele><time>2026-04-04T08:09:35.999Z</time></trkpt><trkpt lat="45.002236966247686" lon="9.510821889578368"><ele>91.39999999999999</ele><time>2026-04-04T08:09:36.999Z</time></trkpt><trkpt lat="45.00222401179376" lon="9.51071457163952"><ele>91.6</ele><time>2026-04-04T08:09:37.999Z</time></trkpt><trkpt lat="45.00224241868583" lon="9.510544373417567"><ele>91.8</ele><time>2026-04-04T08:09:39.999Z</time></trkpt><trkpt lat="45.002249492083635" lon="9.51040515339453"><ele>92.0</ele><time>2026-04-04T08:09:41.999Z</time></trkpt><trkpt lat="45.00225082326676" lon="9.510280990107974"><ele>92.14285714285715</ele><time>2026-04-04T08:09:43.999Z</time></trkpt><trkpt lat="45.002256055723" lon="9.510187729956716"><ele>92.28571428571428</ele><time>2026-04-04T08:09:47.999Z</time></trkpt><trkpt lat="45.00224121532956" lon="9.510099982582432"><ele>92.42857142857143</ele><time>2026-04-04T08:09:56.999Z</time></trkpt><trkpt lat="45.002251263611406" lon="9.510005189164048"><ele>92.57142857142858</ele><time>2026-04-04T08:09:58.999Z</time></trkpt><trkpt lat="45.002261047123895" lon="9.509892827904988"><ele>92.71428571428572</ele><time>2026-04-04T08:10:00.999Z</time></trkpt><trkpt lat="45.002285105104484" lon="9.509797013067057"><ele>92.85714285714286</ele><time>2026-04-04T08:10:02.999Z</time></trkpt><trkpt lat="45.00230633886186" lon="9.50970532199663"><ele>93.0</ele><time>2026-04-04T08:10:04.999Z</time></trkpt><trkpt lat="45.002294580079955" lon="9.509576017476281"><ele>93.0</ele><time>2026-04-04T08:10:06.999Z</time></trkpt><trkpt lat="45.00226886145046" lon="9.50948825516971"><ele>93.0</ele><time>2026-04-04T08:10:07.999Z</time></trkpt><trkpt lat="45.002225729232755" lon="9.509358330427773"><ele>93.0</ele><time>2026-04-04T08:10:10Z</time></trkpt><trkpt lat="45.00221397345107" lon="9.509246159298415"><ele>93.0</ele><time>2026-04-04T08:10:12Z</time></trkpt><trkpt lat="45.002178434190064" lon="9.509155113700926"><ele>93.0</ele><time>2026-04-04T08:10:14Z</time></trkpt><trkpt lat="45.00214232756772" lon="9.509027668769626"><ele>93.0</ele><time>2026-04-04T08:10:16Z</time></trkpt><trkpt lat="45.00212296344371" lon="9.508937701176269"><ele>93.0</ele><time>2026-04-04T08:10:17Z</time></trkpt><trkpt lat="45.00210163498608" lon="9.508847184572284"><ele>93.0</ele><time>2026-04-04T08:10:18Z</time></trkpt><trkpt lat="45.00207969164065" lon="9.50873942183272"><ele>93.0</ele><time>2026-04-04T08:10:20Z</time></trkpt><trkpt lat="45.00203793175604" lon="9.508629105136848"><ele>93.0</ele><time>2026-04-04T08:10:22Z</time></trkpt><trkpt lat="45.002038380807356" lon="9.508519012018434"><ele>93.0</ele><time>2026-04-04T08:10:24Z</time></trkpt><trkpt lat="45.002019687153755" lon="9.508415091506352"><ele>93.0</ele><time>2026-04-04T08:10:26Z</time></trkpt><trkpt lat="45.00199518064511" lon="9.508290242036136"><ele>93.0</ele><time>2026-04-04T08:10:28Z</time></trkpt><trkpt lat="45.0019412830229" lon="9.508087612271302"><ele>93.0</ele><time>2026-04-04T08:10:30Z</time></trkpt><trkpt lat="45.00193409346949" lon="9.507991057121128"><ele>93.0</ele><time>2026-04-04T08:10:31Z</time></trkpt><trkpt lat="45.00189224264287" lon="9.50781908576801"><ele>93.0</ele><time>2026-04-04T08:10:33Z</time></trkpt><trkpt lat="45.001870283125754" lon="9.50770521152539"><ele>93.0</ele><time>2026-04-04T08:10:34Z</time></trkpt><trkpt lat="45.00183917733648" lon="9.507591030628388"><ele>93.0</ele><time>2026-04-04T08:10:35Z</time></trkpt><trkpt lat="45.00180152287203" lon="9.507451032349381"><ele>93.0</ele><time>2026-04-04T08:10:36Z</time></trkpt><trkpt lat="45.001757703001374" lon="9.507331602973421"><ele>93.0</ele><time>2026-04-04T08:10:37Z</time></trkpt><trkpt lat="45.0017297915775" lon="9.507230535237472"><ele>93.0</ele><time>2026-04-04T08:10:38Z</time></trkpt><trkpt lat="45.0017106383924" lon="9.507132489534191"><ele>93.0</ele><time>2026-04-04T08:10:39Z</time></trkpt><trkpt lat="45.00167621939727" lon="9.507005130018134"><ele>93.0</ele><time>2026-04-04T08:10:40Z</time></trkpt><trkpt lat="45.0016381278633" lon="9.506880280784703"><ele>93.0</ele><time>2026-04-04T08:10:41Z</time></trkpt><trkpt lat="45.00159687653346" lon="9.506778758102541"><ele>93.0</ele><time>2026-04-04T08:10:42Z</time></trkpt><trkpt lat="45.001548603964615" lon="9.506665466574086"><ele>93.0</ele><time>2026-04-04T08:10:43Z</time></trkpt><trkpt lat="45.00149572476409" lon="9.506554467056093"><ele>93.0</ele><time>2026-04-04T08:10:44Z</time></trkpt><trkpt lat="45.00145291647917" lon="9.506418522408577"><ele>93.0</ele><time>2026-04-04T08:10:45Z</time></trkpt><trkpt lat="45.001426950970604" lon="9.50628907423915"><ele>93.2</ele><time>2026-04-04T08:10:46Z</time></trkpt><trkpt lat="45.00138783999702" lon="9.506175457462048"><ele>93.4</ele><time>2026-04-04T08:10:47Z</time></trkpt><trkpt lat="45.001346707259984" lon="9.506053340425439"><ele>93.60000000000001</ele><time>2026-04-04T08:10:48Z</time></trkpt><trkpt lat="45.001300656818515" lon="9.50591831762664"><ele>93.80000000000001</ele><time>2026-04-04T08:10:49Z</time></trkpt><trkpt lat="45.00126663728566" lon="9.505795334782253"><ele>94.0</ele><time>2026-04-04T08:10:50Z</time></trkpt><trkpt lat="45.001224387458706" lon="9.505665374082568"><ele>94.0</ele><time>2026-04-04T08:10:51Z</time></trkpt><trkpt lat="45.00114840883482" lon="9.505539777159305"><ele>94.0</ele><time>2026-04-04T08:10:52Z</time></trkpt><trkpt lat="45.00104059970517" lon="9.505418700942014"><ele>94.0</ele><time>2026-04-04T08:10:53Z</time></trkpt><trkpt lat="45.000924962151956" lon="9.505313818966716"><ele>94.0</ele><time>2026-04-04T08:10:54Z</time></trkpt><trkpt lat="45.00082726667453" lon="9.50523040411897"><ele>94.75</ele><time>2026-04-04T08:10:55Z</time></trkpt><trkpt lat="45.00074567629432" lon="9.505129649815524"><ele>95.5</ele><time>2026-04-04T08:10:56Z</time></trkpt><trkpt lat="45.000656222738044" lon="9.505038568808667"><ele>96.25</ele><time>2026-04-04T08:10:57Z</time></trkpt><trkpt lat="45.00055432339434" lon="9.50494211751545"><ele>97.0</ele><time>2026-04-04T08:10:58Z</time></trkpt><trkpt lat="45.00046710489458" lon="9.50475182424233"><ele>96.66666666666667</ele><time>2026-04-04T08:10:59Z</time></trkpt><trkpt lat="45.00036314191117" lon="9.504555328142432"><ele>96.33333333333334</ele><time>2026-04-04T08:11:00Z</time></trkpt><trkpt lat="45.000242258803524" lon="9.504369167526647"><ele>96.0</ele><time>2026-04-04T08:11:01Z</time></trkpt><trkpt lat="45.00014750634108" lon="9.504195669695799"><ele>96.0</ele><time>2026-04-04T08:11:02Z</time></trkpt><trkpt lat="45.00005838942373" lon="9.50404800803194"><ele>96.0</ele><time>2026-04-04T08:11:03Z</time></trkpt><trkpt lat="44.99997218453984" lon="9.503896786139228"><ele>96.0</ele><time>2026-04-04T08:11:04Z</time></trkpt><trkpt lat="44.999899177320245" lon="9.503778376997488"><ele>96.0</ele><time>2026-04-04T08:11:05Z</time></trkpt><trkpt lat="44.9998293813619" lon="9.50366802816572"><ele>95.5</ele><time>2026-04-04T08:11:06Z</time></trkpt><trkpt lat="44.99973915723676" lon="9.503548524117821"><ele>95.0</ele><time>2026-04-04T08:11:07Z</time></trkpt><trkpt lat="44.99963817620329" lon="9.503425672470142"><ele>94.5</ele><time>2026-04-04T08:11:08Z</time></trkpt><trkpt lat="44.99954617481514" lon="9.503307647152438"><ele>94.0</ele><time>2026-04-04T08:11:09Z</time></trkpt><trkpt lat="44.99945668996283" lon="9.50318188185079"><ele>94.0</ele><time>2026-04-04T08:11:10Z</time></trkpt><trkpt lat="44.99935968899751" lon="9.503073007761799"><ele>94.0</ele><time>2026-04-04T08:11:11Z</time></trkpt><trkpt lat="44.99926892490411" lon="9.502947687525161"><ele>94.0</ele><time>2026-04-04T08:11:12Z</time></trkpt><trkpt lat="44.99917580828866" lon="9.502819915623338"><ele>94.0</ele><time>2026-04-04T08:11:13Z</time></trkpt><trkpt lat="44.999086034550004" lon="9.502695160656645"><ele>94.25</ele><time>2026-04-04T08:11:14Z</time></trkpt><trkpt lat="44.99899649049846" lon="9.502571512841802"><ele>94.5</ele><time>2026-04-04T08:11:15Z</time></trkpt><trkpt lat="44.9989038356965" lon="9.50244978502726"><ele>94.75</ele><time>2026-04-04T08:11:16Z</time></trkpt><trkpt lat="44.99881632374915" lon="9.502338905484006"><ele>95.0</ele><time>2026-04-04T08:11:17Z</time></trkpt><trkpt lat="44.99873122430512" lon="9.502221763393289"><ele>95.0</ele><time>2026-04-04T08:11:17.999Z</time></trkpt><trkpt lat="44.99864050851716" lon="9.502112979391752"><ele>95.0</ele><time>2026-04-04T08:11:18.999Z</time></trkpt><trkpt lat="44.99854493322282" lon="9.501981669625376"><ele>95.0</ele><time>2026-04-04T08:11:19.999Z</time></trkpt><trkpt lat="44.9984371848643" lon="9.501830446021824"><ele>95.0</ele><time>2026-04-04T08:11:20.999Z</time></trkpt><trkpt lat="44.99834818864027" lon="9.50171350434848"><ele>95.75</ele><time>2026-04-04T08:11:21.999Z</time></trkpt><trkpt lat="44.99825997038626" lon="9.501583940729956"><ele>96.5</ele><time>2026-04-04T08:11:22.999Z</time></trkpt><trkpt lat="44.99816700473619" lon="9.501441004715309"><ele>97.25</ele><time>2026-04-04T08:11:23.999Z</time></trkpt><trkpt lat="44.9980826958917" lon="9.501330878205097"><ele>98.0</ele><time>2026-04-04T08:11:24.999Z</time></trkpt><trkpt lat="44.998002438290605" lon="9.50122321682742"><ele>98.0</ele><time>2026-04-04T08:11:25.999Z</time></trkpt><trkpt lat="44.99791430310398" lon="9.501093970129908"><ele>98.0</ele><time>2026-04-04T08:11:26.999Z</time></trkpt><trkpt lat="44.99782183697481" lon="9.500975624515302"><ele>98.0</ele><time>2026-04-04T08:11:27.999Z</time></trkpt><trkpt lat="44.99772169924612" lon="9.500852250647672"><ele>98.0</ele><time>2026-04-04T08:11:28.999Z</time></trkpt><trkpt lat="44.99761793073321" lon="9.50072844731164"><ele>98.0</ele><time>2026-04-04T08:11:29.999Z</time></trkpt><trkpt lat="44.997514236978965" lon="9.500594715883299"><ele>98.0</ele><time>2026-04-04T08:11:30.999Z</time></trkpt><trkpt lat="44.997415240790666" lon="9.500480706055592"><ele>98.0</ele><time>2026-04-04T08:11:31.999Z</time></trkpt><trkpt lat="44.99731462184137" lon="9.500362042979239"><ele>98.0</ele><time>2026-04-04T08:11:32.999Z</time></trkpt><trkpt lat="44.99720205511571" lon="9.500260806372445"><ele>98.0</ele><time>2026-04-04T08:11:33.999Z</time></trkpt><trkpt lat="44.99707274307897" lon="9.500168417274018"><ele>98.0</ele><time>2026-04-04T08:11:34.999Z</time></trkpt><trkpt lat="44.99692530168179" lon="9.500079462712284"><ele>98.0</ele><time>2026-04-04T08:11:35.999Z</time></trkpt><trkpt lat="44.99678560840414" lon="9.500001419175117"><ele>98.5</ele><time>2026-04-04T08:11:36.999Z</time></trkpt><trkpt lat="44.99666161370278" lon="9.499936950789504"><ele>99.0</ele><time>2026-04-04T08:11:37.999Z</time></trkpt><trkpt lat="44.99654436086751" lon="9.499842701108063"><ele>99.5</ele><time>2026-04-04T08:11:38.999Z</time></trkpt><trkpt lat="44.99643796393639" lon="9.499777879327834"><ele>100.0</ele><time>2026-04-04T08:11:39.999Z</time></trkpt><trkpt lat="44.996322330388324" lon="9.499704717225855"><ele>100.0</ele><time>2026-04-04T08:11:40.999Z</time></trkpt><trkpt lat="44.99621128800092" lon="9.499639019137376"><ele>100.0</ele><time>2026-04-04T08:11:41.999Z</time></trkpt><trkpt lat="44.996099554397134" lon="9.49957786731861"><ele>100.0</ele><time>2026-04-04T08:11:42.999Z</time></trkpt><trkpt lat="44.99599187523776" lon="9.499507735045547"><ele>100.0</ele><time>2026-04-04T08:11:43.999Z</time></trkpt><trkpt lat="44.995895032190234" lon="9.499429597362901"><ele>100.25</ele><time>2026-04-04T08:11:44.999Z</time></trkpt><trkpt lat="44.99580097275531" lon="9.499342900605683"><ele>100.5</ele><time>2026-04-04T08:11:45.999Z</time></trkpt><trkpt lat="44.99570592604229" lon="9.499255273015551"><ele>100.75</ele><time>2026-04-04T08:11:46.999Z</time></trkpt><trkpt lat="44.99561101974944" lon="9.499169111226863"><ele>101.0</ele><time>2026-04-04T08:11:47.999Z</time></trkpt><trkpt lat="44.99551401484845" lon="9.499076832802247"><ele>101.0</ele><time>2026-04-04T08:11:48.999Z</time></trkpt><trkpt lat="44.99542456716513" lon="9.498986350057317"><ele>101.0</ele><time>2026-04-04T08:11:49.999Z</time></trkpt><trkpt lat="44.99533187683282" lon="9.49890455175057"><ele>101.0</ele><time>2026-04-04T08:11:50.999Z</time></trkpt><trkpt lat="44.99523448983064" lon="9.498818313583552"><ele>101.0</ele><time>2026-04-04T08:11:51.999Z</time></trkpt><trkpt lat="44.99512934519407" lon="9.498727360000018"><ele>100.5</ele><time>2026-04-04T08:11:52.999Z</time></trkpt><trkpt lat="44.99501271341385" lon="9.49865273784348"><ele>100.0</ele><time>2026-04-04T08:11:53.999Z</time></trkpt><trkpt lat="44.99489772516407" lon="9.498588868529007"><ele>99.5</ele><time>2026-04-04T08:11:54.999Z</time></trkpt><trkpt lat="44.99477803095918" lon="9.498520405040619"><ele>99.0</ele><time>2026-04-04T08:11:55.999Z</time></trkpt><trkpt lat="44.994654086204925" lon="9.498460218745961"><ele>99.0</ele><time>2026-04-04T08:11:56.999Z</time></trkpt><trkpt lat="44.99450299023468" lon="9.498396786281267"><ele>99.0</ele><time>2026-04-04T08:11:57.999Z</time></trkpt><trkpt lat="44.99432905002006" lon="9.498318374075664"><ele>99.0</ele><time>2026-04-04T08:11:58.999Z</time></trkpt><trkpt lat="44.99415575438739" lon="9.498238564188672"><ele>99.33333333333334</ele><time>2026-04-04T08:11:59.999Z</time></trkpt><trkpt lat="44.99399227517227" lon="9.49817113921279"><ele>99.66666666666667</ele><time>2026-04-04T08:12:00.999Z</time></trkpt><trkpt lat="44.993835397339666" lon="9.498108639900742"><ele>100.0</ele><time>2026-04-04T08:12:01.999Z</time></trkpt><trkpt lat="44.99367425140187" lon="9.49804760011194"><ele>100.0</ele><time>2026-04-04T08:12:02.999Z</time></trkpt><trkpt lat="44.99351592470955" lon="9.49802310717428"><ele>100.0</ele><time>2026-04-04T08:12:03.999Z</time></trkpt><trkpt lat="44.9933567447729" lon="9.498030454281572"><ele>100.0</ele><time>2026-04-04T08:12:04.999Z</time></trkpt><trkpt lat="44.99319857620665" lon="9.498052796924863"><ele>100.5</ele><time>2026-04-04T08:12:05.999Z</time></trkpt><trkpt lat="44.99304675985542" lon="9.498067816626975"><ele>101.0</ele><time>2026-04-04T08:12:06.999Z</time></trkpt><trkpt lat="44.992908142631066" lon="9.498057248182427"><ele>101.5</ele><time>2026-04-04T08:12:07.999Z</time></trkpt><trkpt lat="44.99276823735689" lon="9.498040942455319"><ele>102.0</ele><time>2026-04-04T08:12:08.999Z</time></trkpt><trkpt lat="44.992641471128955" lon="9.498010046119557"><ele>102.5</ele><time>2026-04-04T08:12:09.999Z</time></trkpt><trkpt lat="44.99249797152662" lon="9.497967574061343"><ele>103.0</ele><time>2026-04-04T08:12:10.999Z</time></trkpt><trkpt lat="44.99236632791687" lon="9.497907166823389"><ele>103.5</ele><time>2026-04-04T08:12:11.999Z</time></trkpt><trkpt lat="44.99224245693991" lon="9.497841538409775"><ele>104.0</ele><time>2026-04-04T08:12:12.999Z</time></trkpt><trkpt lat="44.99211612010466" lon="9.49779727696348"><ele>104.0</ele><time>2026-04-04T08:12:13.999Z</time></trkpt><trkpt lat="44.99197774746308" lon="9.497756630227347"><ele>104.0</ele><time>2026-04-04T08:12:15Z</time></trkpt><trkpt lat="44.99183646221583" lon="9.49771167389598"><ele>104.0</ele><time>2026-04-04T08:12:16Z</time></trkpt><trkpt lat="44.99171021196245" lon="9.497674308060343"><ele>104.0</ele><time>2026-04-04T08:12:17Z</time></trkpt><trkpt lat="44.99159877407701" lon="9.497641466164986"><ele>104.4</ele><time>2026-04-04T08:12:18Z</time></trkpt><trkpt lat="44.99149354250878" lon="9.497604727423706"><ele>104.80000000000001</ele><time>2026-04-04T08:12:19Z</time></trkpt><trkpt lat="44.9914036789698" lon="9.497575823234625"><ele>105.19999999999999</ele><time>2026-04-04T08:12:20Z</time></trkpt><trkpt lat="44.99130678167395" lon="9.49754601833912"><ele>105.6</ele><time>2026-04-04T08:12:21Z</time></trkpt><trkpt lat="44.99119907044786" lon="9.497507705441013"><ele>106.0</ele><time>2026-04-04T08:12:22Z</time></trkpt><trkpt lat="44.991101950802644" lon="9.497477460994745"><ele>106.0</ele><time>2026-04-04T08:12:23Z</time></trkpt><trkpt lat="44.99100332267842" lon="9.497436285801461"><ele>106.0</ele><time>2026-04-04T08:12:24Z</time></trkpt><trkpt lat="44.990908233269565" lon="9.497362121228337"><ele>106.0</ele><time>2026-04-04T08:12:25Z</time></trkpt><trkpt lat="44.99083505348721" lon="9.49728788612652"><ele>106.0</ele><time>2026-04-04T08:12:26Z</time></trkpt><trkpt lat="44.990769700421424" lon="9.497175923576744"><ele>106.0</ele><time>2026-04-04T08:12:27Z</time></trkpt><trkpt lat="44.990732485533336" lon="9.49702216047951"><ele>105.8</ele><time>2026-04-04T08:12:28Z</time></trkpt><trkpt lat="44.990718554544586" lon="9.496834109908342"><ele>105.6</ele><time>2026-04-04T08:12:29Z</time></trkpt><trkpt lat="44.99071590339016" lon="9.496671693872422"><ele>105.4</ele><time>2026-04-04T08:12:30Z</time></trkpt><trkpt lat="44.99070818032632" lon="9.49653558840949"><ele>105.2</ele><time>2026-04-04T08:12:31Z</time></trkpt><trkpt lat="44.99070121321339" lon="9.496413220925072"><ele>105.0</ele><time>2026-04-04T08:12:32Z</time></trkpt><trkpt lat="44.99068381937995" lon="9.496291532242367"><ele>105.0</ele><time>2026-04-04T08:12:33Z</time></trkpt><trkpt lat="44.99064776365006" lon="9.496156874215142"><ele>105.0</ele><time>2026-04-04T08:12:34Z</time></trkpt><trkpt lat="44.990585072199245" lon="9.496015500125015"><ele>105.0</ele><time>2026-04-04T08:12:35Z</time></trkpt><trkpt lat="44.99047475084064" lon="9.495860411749495"><ele>105.0</ele><time>2026-04-04T08:12:36Z</time></trkpt><trkpt lat="44.99037718960882" lon="9.495733811089114"><ele>105.0</ele><time>2026-04-04T08:12:37Z</time></trkpt><trkpt lat="44.99028593049385" lon="9.495625189357343"><ele>105.0</ele><time>2026-04-04T08:12:38Z</time></trkpt><trkpt lat="44.990203825546715" lon="9.495528970890813"><ele>105.0</ele><time>2026-04-04T08:12:39Z</time></trkpt><trkpt lat="44.990123926615794" lon="9.495418913744228"><ele>105.0</ele><time>2026-04-04T08:12:40Z</time></trkpt><trkpt lat="44.9900597240717" lon="9.495288811934422"><ele>106.25</ele><time>2026-04-04T08:12:41Z</time></trkpt><trkpt lat="44.9899812890673" lon="9.495177289570252"><ele>107.5</ele><time>2026-04-04T08:12:42Z</time></trkpt><trkpt lat="44.98989275035861" lon="9.495066517636156"><ele>108.75</ele><time>2026-04-04T08:12:43Z</time></trkpt><trkpt lat="44.98979651853145" lon="9.494969448387032"><ele>110.0</ele><time>2026-04-04T08:12:44Z</time></trkpt><trkpt lat="44.98968701083386" lon="9.494866421019319"><ele>110.0</ele><time>2026-04-04T08:12:45Z</time></trkpt><trkpt lat="44.98957359374523" lon="9.49476170248591"><ele>110.0</ele><time>2026-04-04T08:12:46Z</time></trkpt><trkpt lat="44.98944946266407" lon="9.494654683820647"><ele>110.0</ele><time>2026-04-04T08:12:47Z</time></trkpt><trkpt lat="44.98932487814748" lon="9.494557146017899"><ele>110.0</ele><time>2026-04-04T08:12:48Z</time></trkpt><trkpt lat="44.98919190889685" lon="9.494440613131754"><ele>110.66666666666666</ele><time>2026-04-04T08:12:49Z</time></trkpt><trkpt lat="44.98905576759678" lon="9.49432498487296"><ele>111.33333333333334</ele><time>2026-04-04T08:12:50Z</time></trkpt><trkpt lat="44.98891196998215" lon="9.49419576136665"><ele>112.0</ele><time>2026-04-04T08:12:51Z</time></trkpt><trkpt lat="44.98876648123913" lon="9.49407096466497"><ele>112.0</ele><time>2026-04-04T08:12:52Z</time></trkpt><trkpt lat="44.988617867619425" lon="9.493936647881391"><ele>112.0</ele><time>2026-04-04T08:12:53Z</time></trkpt><trkpt lat="44.988468576354634" lon="9.49381142224048"><ele>112.0</ele><time>2026-04-04T08:12:54Z</time></trkpt><trkpt lat="44.98832139703012" lon="9.493686670241644"><ele>112.66666666666667</ele><time>2026-04-04T08:12:55Z</time></trkpt><trkpt lat="44.98817371969435" lon="9.493554471421223"><ele>113.33333333333334</ele><time>2026-04-04T08:12:56Z</time></trkpt><trkpt lat="44.98803221233264" lon="9.493414569212089"><ele>114.0</ele><time>2026-04-04T08:12:57Z</time></trkpt><trkpt lat="44.9879049030703" lon="9.49326349069806"><ele>114.0</ele><time>2026-04-04T08:12:58Z</time></trkpt><trkpt lat="44.987787711895955" lon="9.49309375134721"><ele>114.0</ele><time>2026-04-04T08:12:59Z</time></trkpt><trkpt lat="44.98767224193542" lon="9.492907813598933"><ele>114.0</ele><time>2026-04-04T08:13:00Z</time></trkpt><trkpt lat="44.98754071063912" lon="9.492697585757202"><ele>115.0</ele><time>2026-04-04T08:13:01Z</time></trkpt><trkpt lat="44.987409273792764" lon="9.492466791397941"><ele>116.0</ele><time>2026-04-04T08:13:02Z</time></trkpt><trkpt lat="44.987291170740434" lon="9.492240166550504"><ele>117.0</ele><time>2026-04-04T08:13:03Z</time></trkpt><trkpt lat="44.9871869355743" lon="9.492052176617644"><ele>117.0</ele><time>2026-04-04T08:13:04Z</time></trkpt><trkpt lat="44.98708581633653" lon="9.491895217333372"><ele>117.0</ele><time>2026-04-04T08:13:05Z</time></trkpt><trkpt lat="44.98699207620628" lon="9.49175887255623"><ele>117.0</ele><time>2026-04-04T08:13:06Z</time></trkpt><trkpt lat="44.986897434211" lon="9.491603855218903"><ele>117.0</ele><time>2026-04-04T08:13:07Z</time></trkpt><trkpt lat="44.98681228992648" lon="9.491471436758008"><ele>117.0</ele><time>2026-04-04T08:13:08Z</time></trkpt><trkpt lat="44.986724109726" lon="9.491331494542115"><ele>117.0</ele><time>2026-04-04T08:13:09Z</time></trkpt><trkpt lat="44.9866444036145" lon="9.491217924846184"><ele>117.0</ele><time>2026-04-04T08:13:10Z</time></trkpt><trkpt lat="44.98658190538329" lon="9.491095773963139"><ele>117.0</ele><time>2026-04-04T08:13:11Z</time></trkpt><trkpt lat="44.98649832005345" lon="9.490981935462923"><ele>117.8</ele><time>2026-04-04T08:13:12Z</time></trkpt><trkpt lat="44.98642013553668" lon="9.490916110422353"><ele>118.6</ele><time>2026-04-04T08:13:13Z</time></trkpt><trkpt lat="44.986356402347475" lon="9.490825661458855"><ele>119.39999999999999</ele><time>2026-04-04T08:13:14Z</time></trkpt><trkpt lat="44.98630066420832" lon="9.490760104437832"><ele>120.19999999999999</ele><time>2026-04-04T08:13:15Z</time></trkpt><trkpt lat="44.98624640770806" lon="9.490689435576629"><ele>121.0</ele><time>2026-04-04T08:13:16Z</time></trkpt><trkpt lat="44.986160689472044" lon="9.490542832358313"><ele>121.0</ele><time>2026-04-04T08:13:18Z</time></trkpt><trkpt lat="44.986099021867005" lon="9.490439477612954"><ele>121.0</ele><time>2026-04-04T08:13:19.999Z</time></trkpt><trkpt lat="44.98604441281595" lon="9.490366976099038"><ele>121.0</ele><time>2026-04-04T08:13:21.999Z</time></trkpt><trkpt lat="44.98598365793818" lon="9.490271199292598"><ele>121.0</ele><time>2026-04-04T08:13:23.999Z</time></trkpt><trkpt lat="44.98594203197041" lon="9.490162591623868"><ele>121.0</ele><time>2026-04-04T08:13:25.999Z</time></trkpt><trkpt lat="44.985997623609016" lon="9.490004764416119"><ele>121.14285714285714</ele><time>2026-04-04T08:13:27.999Z</time></trkpt><trkpt lat="44.98605065785337" lon="9.48994200776056"><ele>121.28571428571428</ele><time>2026-04-04T08:13:29.999Z</time></trkpt><trkpt lat="44.98610151745153" lon="9.489841486434209"><ele>121.42857142857142</ele><time>2026-04-04T08:13:32.999Z</time></trkpt><trkpt lat="44.98614476013086" lon="9.48977642540921"><ele>121.57142857142856</ele><time>2026-04-04T08:13:34.999Z</time></trkpt><trkpt lat="44.986185814920084" lon="9.48969591699777"><ele>121.71428571428571</ele><time>2026-04-04T08:13:37.999Z</time></trkpt><trkpt lat="44.98624033013219" lon="9.489621400689225"><ele>121.85714285714283</ele><time>2026-04-04T08:13:52.999Z</time></trkpt><trkpt lat="44.98627648817804" lon="9.489545635567614"><ele>121.99999999999999</ele><time>2026-04-04T08:13:54.999Z</time></trkpt><trkpt lat="44.98634034923202" lon="9.489417032351948"><ele>121.99999999999999</ele><time>2026-04-04T08:13:56.999Z</time></trkpt><trkpt lat="44.986399176211435" lon="9.489301559462326"><ele>122.0</ele><time>2026-04-04T08:13:58.999Z</time></trkpt><trkpt lat="44.98644119119375" lon="9.489226529781758"><ele>122.0</ele><time>2026-04-04T08:13:59.999Z</time></trkpt><trkpt lat="44.986493237135086" lon="9.489134143609986"><ele>122.0</ele><time>2026-04-04T08:14:00.999Z</time></trkpt><trkpt lat="44.986538577424746" lon="9.48906533479277"><ele>121.99999999999999</ele><time>2026-04-04T08:14:01.999Z</time></trkpt><trkpt lat="44.98658328193373" lon="9.488935630599318"><ele>122.0</ele><time>2026-04-04T08:14:03.999Z</time></trkpt><trkpt lat="44.986623321144066" lon="9.488841669176718"><ele>121.99999999999999</ele><time>2026-04-04T08:14:04.999Z</time></trkpt><trkpt lat="44.98665773778614" lon="9.48876379193991"><ele>122.0</ele><time>2026-04-04T08:14:05.999Z</time></trkpt><trkpt lat="44.986702061693435" lon="9.488673560934561"><ele>121.99999999999999</ele><time>2026-04-04T08:14:06.999Z</time></trkpt><trkpt lat="44.98674136706568" lon="9.488600526203747"><ele>121.99999999999999</ele><time>2026-04-04T08:14:07.999Z</time></trkpt><trkpt lat="44.98678707708407" lon="9.488515103449801"><ele>122.0</ele><time>2026-04-04T08:14:08.999Z</time></trkpt><trkpt lat="44.9868369583432" lon="9.488430815390123"><ele>121.99999999999999</ele><time>2026-04-04T08:14:09.999Z</time></trkpt><trkpt lat="44.98689059596218" lon="9.488346557509454"><ele>121.99999999999999</ele><time>2026-04-04T08:14:10.999Z</time></trkpt><trkpt lat="44.98694368248626" lon="9.488264363699008"><ele>120.99999999999999</ele><time>2026-04-04T08:14:11.999Z</time></trkpt><trkpt lat="44.98700069538902" lon="9.488185189329952"><ele>120.0</ele><time>2026-04-04T08:14:12.999Z</time></trkpt><trkpt lat="44.987071497501795" lon="9.488111181353682"><ele>119.0</ele><time>2026-04-04T08:14:13.999Z</time></trkpt><trkpt lat="44.987143274321895" lon="9.48803536726675"><ele>118.0</ele><time>2026-04-04T08:14:14.999Z</time></trkpt><trkpt lat="44.98720863085143" lon="9.487966705560124"><ele>116.99999999999999</ele><time>2026-04-04T08:14:15.999Z</time></trkpt><trkpt lat="44.98726614766381" lon="9.487909371345363"><ele>116.0</ele><time>2026-04-04T08:14:16.999Z</time></trkpt><trkpt lat="44.987320932680554" lon="9.48785635125811"><ele>115.49999999999999</ele><time>2026-04-04T08:14:17.999Z</time></trkpt><trkpt lat="44.987374040616466" lon="9.487789344938976"><ele>115.0</ele><time>2026-04-04T08:14:18.999Z</time></trkpt><trkpt lat="44.98743600152049" lon="9.487719620606049"><ele>114.5</ele><time>2026-04-04T08:14:19.999Z</time></trkpt><trkpt lat="44.98750348333656" lon="9.487655278522672"><ele>114.0</ele><time>2026-04-04T08:14:21Z</time></trkpt><trkpt lat="44.98757635895855" lon="9.487575891997029"><ele>113.49999999999999</ele><time>2026-04-04T08:14:22Z</time></trkpt><trkpt lat="44.98765218730239" lon="9.4874947123573"><ele>113.0</ele><time>2026-04-04T08:14:23Z</time></trkpt><trkpt lat="44.98773013537203" lon="9.487415299810303"><ele>112.49999999999999</ele><time>2026-04-04T08:14:24Z</time></trkpt><trkpt lat="44.98779954390927" lon="9.487342532487308"><ele>112.0</ele><time>2026-04-04T08:14:25Z</time></trkpt><trkpt lat="44.98788009060121" lon="9.487268054335457"><ele>111.5</ele><time>2026-04-04T08:14:26Z</time></trkpt><trkpt lat="44.98794387718618" lon="9.48718955281763"><ele>111.0</ele><time>2026-04-04T08:14:27Z</time></trkpt><trkpt lat="44.98800512220227" lon="9.487117200845717"><ele>110.49999999999999</ele><time>2026-04-04T08:14:28Z</time></trkpt><trkpt lat="44.988069451315624" lon="9.487056716334541"><ele>110.0</ele><time>2026-04-04T08:14:29Z</time></trkpt><trkpt lat="44.98813226177221" lon="9.486989022293377"><ele>110.0</ele><time>2026-04-04T08:14:30Z</time></trkpt><trkpt lat="44.98820257031261" lon="9.486913124846392"><ele>110.0</ele><time>2026-04-04T08:14:31Z</time></trkpt><trkpt lat="44.98828516792703" lon="9.486826583930112"><ele>110.0</ele><time>2026-04-04T08:14:32Z</time></trkpt><trkpt lat="44.98836379874145" lon="9.486722987575446"><ele>110.0</ele><time>2026-04-04T08:14:33Z</time></trkpt><trkpt lat="44.98843524155113" lon="9.486593931560714"><ele>110.0</ele><time>2026-04-04T08:14:34Z</time></trkpt><trkpt lat="44.988497940079554" lon="9.48646412599712"><ele>110.0</ele><time>2026-04-04T08:14:35Z</time></trkpt><trkpt lat="44.9885572595394" lon="9.486340697390665"><ele>110.0</ele><time>2026-04-04T08:14:36Z</time></trkpt><trkpt lat="44.98861201626913" lon="9.486211317939755"><ele>110.0</ele><time>2026-04-04T08:14:37Z</time></trkpt><trkpt lat="44.98865787336178" lon="9.486076004062427"><ele>110.0</ele><time>2026-04-04T08:14:38Z</time></trkpt><trkpt lat="44.98871209455511" lon="9.485943187863514"><ele>110.0</ele><time>2026-04-04T08:14:39Z</time></trkpt><trkpt lat="44.98876884434673" lon="9.4858114348526"><ele>110.0</ele><time>2026-04-04T08:14:40Z</time></trkpt><trkpt lat="44.988818076717955" lon="9.485675303632277"><ele>110.0</ele><time>2026-04-04T08:14:41Z</time></trkpt><trkpt lat="44.98887189055607" lon="9.485540287406845"><ele>110.0</ele><time>2026-04-04T08:14:42Z</time></trkpt><trkpt lat="44.98893025005261" lon="9.485405662520762"><ele>110.0</ele><time>2026-04-04T08:14:43Z</time></trkpt><trkpt lat="44.9889915953955" lon="9.485265931137937"><ele>110.0</ele><time>2026-04-04T08:14:44Z</time></trkpt><trkpt lat="44.989053915716426" lon="9.485123572304667"><ele>110.0</ele><time>2026-04-04T08:14:45Z</time></trkpt><trkpt lat="44.98911538472727" lon="9.484965463464029"><ele>110.0</ele><time>2026-04-04T08:14:46Z</time></trkpt><trkpt lat="44.989185744546894" lon="9.484806179440818"><ele>110.0</ele><time>2026-04-04T08:14:47Z</time></trkpt><trkpt lat="44.98924211436146" lon="9.484659396768068"><ele>110.0</ele><time>2026-04-04T08:14:48Z</time></trkpt><trkpt lat="44.989292152903765" lon="9.48451863336691"><ele>110.0</ele><time>2026-04-04T08:14:49Z</time></trkpt><trkpt lat="44.98934176255744" lon="9.484376864346414"><ele>110.0</ele><time>2026-04-04T08:14:50Z</time></trkpt><trkpt lat="44.989394514191936" lon="9.484237137129357"><ele>110.0</ele><time>2026-04-04T08:14:51Z</time></trkpt><trkpt lat="44.98944922904143" lon="9.48409486991132"><ele>110.0</ele><time>2026-04-04T08:14:52Z</time></trkpt><trkpt lat="44.98950687221741" lon="9.483952696302202"><ele>110.0</ele><time>2026-04-04T08:14:53Z</time></trkpt><trkpt lat="44.98955961289804" lon="9.48381467634807"><ele>110.0</ele><time>2026-04-04T08:14:54Z</time></trkpt><trkpt lat="44.98961548752566" lon="9.483681695838943"><ele>110.0</ele><time>2026-04-04T08:14:55Z</time></trkpt><trkpt lat="44.98966100171452" lon="9.483549951887953"><ele>110.0</ele><time>2026-04-04T08:14:56Z</time></trkpt><trkpt lat="44.989712859304454" lon="9.483419980179825"><ele>110.0</ele><time>2026-04-04T08:14:57Z</time></trkpt><trkpt lat="44.989759200278506" lon="9.483298726899855"><ele>109.99999999999999</ele><time>2026-04-04T08:14:58Z</time></trkpt><trkpt lat="44.98982489678153" lon="9.483179072375469"><ele>110.0</ele><time>2026-04-04T08:14:59Z</time></trkpt><trkpt lat="44.98986866531672" lon="9.483071403028399"><ele>110.0</ele><time>2026-04-04T08:15:00Z</time></trkpt><trkpt lat="44.989909759463934" lon="9.482977846410325"><ele>110.0</ele><time>2026-04-04T08:15:01Z</time></trkpt><trkpt lat="44.989951937467296" lon="9.482879962140725"><ele>109.99999999999999</ele><time>2026-04-04T08:15:02Z</time></trkpt><trkpt lat="44.98999392511791" lon="9.482774292024205"><ele>110.0</ele><time>2026-04-04T08:15:03Z</time></trkpt><trkpt lat="44.99003981054688" lon="9.482671778076874"><ele>109.83333333333333</ele><time>2026-04-04T08:15:04Z</time></trkpt><trkpt lat="44.99008248283856" lon="9.482573108654803"><ele>109.66666666666666</ele><time>2026-04-04T08:15:05Z</time></trkpt><trkpt lat="44.99011352685394" lon="9.482470089623162"><ele>109.5</ele><time>2026-04-04T08:15:06Z</time></trkpt><trkpt lat="44.99014727055531" lon="9.482371437165233"><ele>109.33333333333334</ele><time>2026-04-04T08:15:07Z</time></trkpt><trkpt lat="44.99019109973075" lon="9.482261153952837"><ele>109.16666666666667</ele><time>2026-04-04T08:15:08Z</time></trkpt><trkpt lat="44.990237628396336" lon="9.48215035571148"><ele>109.0</ele><time>2026-04-04T08:15:09Z</time></trkpt><trkpt lat="44.99028761665887" lon="9.482034797239656"><ele>108.80000000000001</ele><time>2026-04-04T08:15:10Z</time></trkpt><trkpt lat="44.990335356207396" lon="9.481917795280964"><ele>108.60000000000001</ele><time>2026-04-04T08:15:11Z</time></trkpt><trkpt lat="44.99038613345137" lon="9.48180219781617"><ele>108.4</ele><time>2026-04-04T08:15:12Z</time></trkpt><trkpt lat="44.990436034708395" lon="9.48168455808129"><ele>108.2</ele><time>2026-04-04T08:15:13Z</time></trkpt><trkpt lat="44.990485998391804" lon="9.481568541875243"><ele>108.0</ele><time>2026-04-04T08:15:14Z</time></trkpt><trkpt lat="44.990534896383146" lon="9.481447807856965"><ele>108.0</ele><time>2026-04-04T08:15:15Z</time></trkpt><trkpt lat="44.99058366943121" lon="9.48132643359685"><ele>108.00000000000001</ele><time>2026-04-04T08:15:15.999Z</time></trkpt><trkpt lat="44.99062037510463" lon="9.481211144885005"><ele>108.00000000000001</ele><time>2026-04-04T08:15:16.999Z</time></trkpt><trkpt lat="44.990660419418944" lon="9.481087361929745"><ele>108.0</ele><time>2026-04-04T08:15:17.999Z</time></trkpt><trkpt lat="44.990692288661265" lon="9.48096582544567"><ele>108.0</ele><time>2026-04-04T08:15:18.999Z</time></trkpt><trkpt lat="44.9907137247623" lon="9.48084875593387"><ele>108.0</ele><time>2026-04-04T08:15:19.999Z</time></trkpt><trkpt lat="44.99072421349429" lon="9.480743759766487"><ele>108.0</ele><time>2026-04-04T08:15:20.999Z</time></trkpt><trkpt lat="44.99074252116873" lon="9.480646818262834"><ele>108.0</ele><time>2026-04-04T08:15:21.999Z</time></trkpt><trkpt lat="44.99075875572985" lon="9.480471908297856"><ele>108.0</ele><time>2026-04-04T08:15:23.999Z</time></trkpt><trkpt lat="44.99075820950102" lon="9.480366231611061"><ele>108.0</ele><time>2026-04-04T08:15:24.999Z</time></trkpt><trkpt lat="44.99075673525999" lon="9.480264867539155"><ele>108.0</ele><time>2026-04-04T08:15:25.999Z</time></trkpt><trkpt lat="44.990762605929405" lon="9.480165594683909"><ele>108.16666666666667</ele><time>2026-04-04T08:15:26.999Z</time></trkpt><trkpt lat="44.99076366490672" lon="9.480055216246505"><ele>108.33333333333334</ele><time>2026-04-04T08:15:27.999Z</time></trkpt><trkpt lat="44.99075799710269" lon="9.479962354714061"><ele>108.5</ele><time>2026-04-04T08:15:28.999Z</time></trkpt><trkpt lat="44.99075352565349" lon="9.479859581362804"><ele>108.66666666666667</ele><time>2026-04-04T08:15:29.999Z</time></trkpt><trkpt lat="44.99074937128103" lon="9.47974174783453"><ele>108.83333333333334</ele><time>2026-04-04T08:15:30.999Z</time></trkpt><trkpt lat="44.990742988096024" lon="9.479627969587884"><ele>109.0</ele><time>2026-04-04T08:15:31.999Z</time></trkpt><trkpt lat="44.99073255422003" lon="9.479435585626396"><ele>109.33333333333334</ele><time>2026-04-04T08:15:33.999Z</time></trkpt><trkpt lat="44.990730348537355" lon="9.479341155957153"><ele>109.66666666666667</ele><time>2026-04-04T08:15:34.999Z</time></trkpt><trkpt lat="44.99072494624245" lon="9.479242629948489"><ele>110.0</ele><time>2026-04-04T08:15:35.999Z</time></trkpt><trkpt lat="44.99070217437507" lon="9.47915224132568"><ele>110.33333333333334</ele><time>2026-04-04T08:15:36.999Z</time></trkpt><trkpt lat="44.990664867960376" lon="9.479070605130614"><ele>110.66666666666667</ele><time>2026-04-04T08:15:37.999Z</time></trkpt><trkpt lat="44.99060835720031" lon="9.47896014680926"><ele>111.0</ele><time>2026-04-04T08:15:39.999Z</time></trkpt><trkpt lat="44.99052116589897" lon="9.47885034845819"><ele>110.83333333333333</ele><time>2026-04-04T08:15:41.999Z</time></trkpt><trkpt lat="44.99046211362901" lon="9.478736909452971"><ele>110.66666666666666</ele><time>2026-04-04T08:15:43.999Z</time></trkpt><trkpt lat="44.99042245958556" lon="9.478659096351317"><ele>110.5</ele><time>2026-04-04T08:15:45.999Z</time></trkpt><trkpt lat="44.990385851288025" lon="9.478577930356566"><ele>110.33333333333333</ele><time>2026-04-04T08:15:47.999Z</time></trkpt><trkpt lat="44.99036103702172" lon="9.478460098037162"><ele>110.16666666666666</ele><time>2026-04-04T08:15:50.999Z</time></trkpt><trkpt lat="44.99029235512015" lon="9.478404793852636"><ele>110.0</ele><time>2026-04-04T08:15:52.999Z</time></trkpt><trkpt lat="44.99021890906805" lon="9.478306724071208"><ele>109.99999999999999</ele><time>2026-04-04T08:15:54.999Z</time></trkpt><trkpt lat="44.9901693507381" lon="9.478211633954091"><ele>110.0</ele><time>2026-04-04T08:15:56.999Z</time></trkpt><trkpt lat="44.99011851233139" lon="9.478115199178905"><ele>110.0</ele><time>2026-04-04T08:15:58.999Z</time></trkpt><trkpt lat="44.99009410018597" lon="9.478022303004405"><ele>110.0</ele><time>2026-04-04T08:15:59.999Z</time></trkpt><trkpt lat="44.99006294334195" lon="9.477874057309112"><ele>109.99999999999999</ele><time>2026-04-04T08:16:01.999Z</time></trkpt><trkpt lat="44.989974880083224" lon="9.47786573635878"><ele>110.0</ele><time>2026-04-04T08:16:02.999Z</time></trkpt><trkpt lat="44.989900549209594" lon="9.477780422002027"><ele>110.33333333333333</ele><time>2026-04-04T08:16:04.999Z</time></trkpt><trkpt lat="44.98979202915173" lon="9.477733035419421"><ele>110.66666666666666</ele><time>2026-04-04T08:16:06.999Z</time></trkpt><trkpt lat="44.98968307648671" lon="9.477777600213145"><ele>111.0</ele><time>2026-04-04T08:16:08.999Z</time></trkpt><trkpt lat="44.98962322332484" lon="9.477811701227584"><ele>111.33333333333334</ele><time>2026-04-04T08:16:09.999Z</time></trkpt><trkpt lat="44.989558994375216" lon="9.477839238436184"><ele>111.66666666666667</ele><time>2026-04-04T08:16:10.999Z</time></trkpt><trkpt lat="44.98948498371524" lon="9.477880876755062"><ele>112.0</ele><time>2026-04-04T08:16:11.999Z</time></trkpt><trkpt lat="44.98941348445573" lon="9.47792967886881"><ele>112.00000000000001</ele><time>2026-04-04T08:16:12.999Z</time></trkpt><trkpt lat="44.98934412230073" lon="9.477970309204178"><ele>112.0</ele><time>2026-04-04T08:16:13.999Z</time></trkpt><trkpt lat="44.989283221565756" lon="9.477998580288945"><ele>112.0</ele><time>2026-04-04T08:16:14.999Z</time></trkpt><trkpt lat="44.98917246075962" lon="9.478029897178857"><ele>112.0</ele><time>2026-04-04T08:16:16.999Z</time></trkpt><trkpt lat="44.98906292690418" lon="9.477997145958746"><ele>112.00000000000001</ele><time>2026-04-04T08:16:18.999Z</time></trkpt><trkpt lat="44.989005708530016" lon="9.477954922383244"><ele>112.0</ele><time>2026-04-04T08:16:19.999Z</time></trkpt><trkpt lat="44.98893581415544" lon="9.47791184189701"><ele>112.33333333333334</ele><time>2026-04-04T08:16:20.999Z</time></trkpt><trkpt lat="44.9888627424193" lon="9.477866582341584"><ele>112.66666666666667</ele><time>2026-04-04T08:16:21.999Z</time></trkpt><trkpt lat="44.98878121678826" lon="9.477809712416903"><ele>113.0</ele><time>2026-04-04T08:16:22.999Z</time></trkpt><trkpt lat="44.988721882588926" lon="9.47774743674427"><ele>113.33333333333334</ele><time>2026-04-04T08:16:23.999Z</time></trkpt><trkpt lat="44.988658886421476" lon="9.4776616870978"><ele>113.66666666666667</ele><time>2026-04-04T08:16:24.999Z</time></trkpt><trkpt lat="44.988612855697035" lon="9.477572265557495"><ele>114.0</ele><time>2026-04-04T08:16:25.999Z</time></trkpt><trkpt lat="44.98855538510624" lon="9.477452750916354"><ele>114.0</ele><time>2026-04-04T08:16:27Z</time></trkpt><trkpt lat="44.98849846856935" lon="9.477352793045213"><ele>114.0</ele><time>2026-04-04T08:16:28Z</time></trkpt><trkpt lat="44.988436706898156" lon="9.477248033311568"><ele>114.0</ele><time>2026-04-04T08:16:29Z</time></trkpt><trkpt lat="44.988388482856976" lon="9.477165912045844"><ele>114.0</ele><time>2026-04-04T08:16:30Z</time></trkpt><trkpt lat="44.98833816349355" lon="9.477067321907292"><ele>114.0</ele><time>2026-04-04T08:16:31Z</time></trkpt><trkpt lat="44.988286425292266" lon="9.4769732662053"><ele>114.0</ele><time>2026-04-04T08:16:32Z</time></trkpt><trkpt lat="44.98823035119091" lon="9.476869549280757"><ele>114.0</ele><time>2026-04-04T08:16:33Z</time></trkpt><trkpt lat="44.988171913597526" lon="9.476763493774463"><ele>114.0</ele><time>2026-04-04T08:16:34Z</time></trkpt><trkpt lat="44.98812307055717" lon="9.476668217940613"><ele>114.0</ele><time>2026-04-04T08:16:35Z</time></trkpt><trkpt lat="44.98807109923052" lon="9.47657789741485"><ele>114.0</ele><time>2026-04-04T08:16:36Z</time></trkpt><trkpt lat="44.98803122097085" lon="9.476483455390186"><ele>114.0</ele><time>2026-04-04T08:16:37Z</time></trkpt><trkpt lat="44.98799755167042" lon="9.476374438579091"><ele>114.0</ele><time>2026-04-04T08:16:38Z</time></trkpt><trkpt lat="44.987950675524964" lon="9.476248057268247"><ele>113.83333333333333</ele><time>2026-04-04T08:16:39Z</time></trkpt><trkpt lat="44.98790699592059" lon="9.476100436957243"><ele>113.66666666666666</ele><time>2026-04-04T08:16:40Z</time></trkpt><trkpt lat="44.98785106679208" lon="9.475985189897921"><ele>113.5</ele><time>2026-04-04T08:16:41Z</time></trkpt><trkpt lat="44.987806292469685" lon="9.475877440353756"><ele>113.33333333333333</ele><time>2026-04-04T08:16:42Z</time></trkpt><trkpt lat="44.98776652370706" lon="9.475788919044229"><ele>113.16666666666666</ele><time>2026-04-04T08:16:43Z</time></trkpt><trkpt lat="44.987739373403755" lon="9.47570731414113"><ele>113.0</ele><time>2026-04-04T08:16:44Z</time></trkpt><trkpt lat="44.987715884455504" lon="9.475623952222824"><ele>113.0</ele><time>2026-04-04T08:16:45Z</time></trkpt><trkpt lat="44.98768490277387" lon="9.47546779106754"><ele>113.00000000000001</ele><time>2026-04-04T08:16:47Z</time></trkpt><trkpt lat="44.98766050861048" lon="9.475384441258075"><ele>113.00000000000001</ele><time>2026-04-04T08:16:48Z</time></trkpt><trkpt lat="44.987615488490775" lon="9.475231234159414"><ele>113.0</ele><time>2026-04-04T08:16:50Z</time></trkpt><trkpt lat="44.98753605071438" lon="9.47511694110164"><ele>113.0</ele><time>2026-04-04T08:16:52Z</time></trkpt><trkpt lat="44.98748213162798" lon="9.474991204159442"><ele>113.4</ele><time>2026-04-04T08:16:54Z</time></trkpt><trkpt lat="44.98744029635227" lon="9.47487680329811"><ele>113.80000000000001</ele><time>2026-04-04T08:16:56Z</time></trkpt><trkpt lat="44.9873588573641" lon="9.474906537145072"><ele>114.2</ele><time>2026-04-04T08:16:58Z</time></trkpt><trkpt lat="44.98730668392701" lon="9.474803832644996"><ele>114.6</ele><time>2026-04-04T08:17:01Z</time></trkpt><trkpt lat="44.98721566643892" lon="9.474708590130575"><ele>115.0</ele><time>2026-04-04T08:17:02Z</time></trkpt><trkpt lat="44.98713961710468" lon="9.474622694085053"><ele>114.8</ele><time>2026-04-04T08:17:04Z</time></trkpt><trkpt lat="44.98707275870908" lon="9.474528320897496"><ele>114.6</ele><time>2026-04-04T08:17:05Z</time></trkpt><trkpt lat="44.98699088068912" lon="9.474422282360138"><ele>114.4</ele><time>2026-04-04T08:17:06Z</time></trkpt><trkpt lat="44.986915789501005" lon="9.47430943394504"><ele>114.2</ele><time>2026-04-04T08:17:07Z</time></trkpt><trkpt lat="44.98685013410568" lon="9.474211682748804"><ele>114.0</ele><time>2026-04-04T08:17:08Z</time></trkpt><trkpt lat="44.98679173037614" lon="9.47411126135926"><ele>114.0</ele><time>2026-04-04T08:17:09Z</time></trkpt><trkpt lat="44.98673205421244" lon="9.47404289855491"><ele>114.0</ele><time>2026-04-04T08:17:10Z</time></trkpt><trkpt lat="44.98667204757182" lon="9.47397044787691"><ele>114.0</ele><time>2026-04-04T08:17:11Z</time></trkpt><trkpt lat="44.986596161685505" lon="9.473889456007733"><ele>114.0</ele><time>2026-04-04T08:17:12Z</time></trkpt><trkpt lat="44.98652398768011" lon="9.47380338442128"><ele>114.0</ele><time>2026-04-04T08:17:13Z</time></trkpt><trkpt lat="44.986448469214714" lon="9.47365781441441"><ele>114.6</ele><time>2026-04-04T08:17:14Z</time></trkpt><trkpt lat="44.986379860753665" lon="9.473550155406723"><ele>115.2</ele><time>2026-04-04T08:17:15Z</time></trkpt><trkpt lat="44.986314342129" lon="9.473460271430328"><ele>115.79999999999998</ele><time>2026-04-04T08:17:16Z</time></trkpt><trkpt lat="44.98624702145687" lon="9.473361704526612"><ele>116.39999999999999</ele><time>2026-04-04T08:17:17Z</time></trkpt><trkpt lat="44.98618245644442" lon="9.47325029594702"><ele>117.0</ele><time>2026-04-04T08:17:18Z</time></trkpt><trkpt lat="44.986118265411505" lon="9.473167496304571"><ele>117.0</ele><time>2026-04-04T08:17:19Z</time></trkpt><trkpt lat="44.98607051009118" lon="9.47310044405571"><ele>117.0</ele><time>2026-04-04T08:17:20Z</time></trkpt><trkpt lat="44.986017994934066" lon="9.473034413419715"><ele>117.0</ele><time>2026-04-04T08:17:20.999Z</time></trkpt><trkpt lat="44.98597347617002" lon="9.47292262519454"><ele>117.0</ele><time>2026-04-04T08:17:22.999Z</time></trkpt><trkpt lat="44.98594743046679" lon="9.472785379809721"><ele>117.0</ele><time>2026-04-04T08:17:24.999Z</time></trkpt><trkpt lat="44.98596525528025" lon="9.47268935046737"><ele>117.0</ele><time>2026-04-04T08:17:25.999Z</time></trkpt><trkpt lat="44.985967352391185" lon="9.472539427355619"><ele>116.83333333333333</ele><time>2026-04-04T08:17:27.999Z</time></trkpt><trkpt lat="44.98594785981749" lon="9.472403616730452"><ele>116.66666666666666</ele><time>2026-04-04T08:17:29.999Z</time></trkpt><trkpt lat="44.98592351350838" lon="9.472307046090657"><ele>116.5</ele><time>2026-04-04T08:17:31.999Z</time></trkpt><trkpt lat="44.98587448047385" lon="9.472229662204374"><ele>116.33333333333333</ele><time>2026-04-04T08:17:33.999Z</time></trkpt><trkpt lat="44.98578839911446" lon="9.47216159647615"><ele>116.16666666666666</ele><time>2026-04-04T08:17:35.999Z</time></trkpt><trkpt lat="44.98573202328143" lon="9.472100147071703"><ele>116.0</ele><time>2026-04-04T08:17:36.999Z</time></trkpt><trkpt lat="44.98568139443459" lon="9.472022681114526"><ele>116.66666666666666</ele><time>2026-04-04T08:17:37.999Z</time></trkpt><trkpt lat="44.985606747344015" lon="9.471874327598195"><ele>117.33333333333333</ele><time>2026-04-04T08:17:39.999Z</time></trkpt><trkpt lat="44.985559687731644" lon="9.471789933603846"><ele>118.0</ele><time>2026-04-04T08:17:40.999Z</time></trkpt><trkpt lat="44.98552416255198" lon="9.471708747204607"><ele>118.66666666666666</ele><time>2026-04-04T08:17:41.999Z</time></trkpt><trkpt lat="44.98549236187437" lon="9.47160937853602"><ele>119.33333333333333</ele><time>2026-04-04T08:17:42.999Z</time></trkpt><trkpt lat="44.98545447053874" lon="9.471521078450767"><ele>120.0</ele><time>2026-04-04T08:17:43.999Z</time></trkpt><trkpt lat="44.98541207532386" lon="9.47144295690661"><ele>120.0</ele><time>2026-04-04T08:17:44.999Z</time></trkpt><trkpt lat="44.98536124221158" lon="9.471389640613266"><ele>120.0</ele><time>2026-04-04T08:17:45.999Z</time></trkpt><trkpt lat="44.985289636800886" lon="9.471232583161912"><ele>120.0</ele><time>2026-04-04T08:17:47.999Z</time></trkpt><trkpt lat="44.98525817526998" lon="9.471131521247798"><ele>120.0</ele><time>2026-04-04T08:17:48.999Z</time></trkpt><trkpt lat="44.985235877585914" lon="9.47102699556735"><ele>120.0</ele><time>2026-04-04T08:17:49.999Z</time></trkpt><trkpt lat="44.98522305294325" lon="9.47091240981732"><ele>120.0</ele><time>2026-04-04T08:17:50.999Z</time></trkpt><trkpt lat="44.98521511195612" lon="9.470815691408088"><ele>119.66666666666667</ele><time>2026-04-04T08:17:51.999Z</time></trkpt><trkpt lat="44.98520699793428" lon="9.470717641776973"><ele>119.33333333333334</ele><time>2026-04-04T08:17:52.999Z</time></trkpt><trkpt lat="44.98514884433677" lon="9.470599285511042"><ele>119.0</ele><time>2026-04-04T08:17:54.999Z</time></trkpt><trkpt lat="44.98509010423775" lon="9.470488447359537"><ele>118.66666666666667</ele><time>2026-04-04T08:17:56.999Z</time></trkpt><trkpt lat="44.985027796200995" lon="9.470429011267976"><ele>118.33333333333334</ele><time>2026-04-04T08:17:58.999Z</time></trkpt><trkpt lat="44.98497820485544" lon="9.470358455229018"><ele>118.0</ele><time>2026-04-04T08:18:00.999Z</time></trkpt><trkpt lat="44.984931449985865" lon="9.470236809712684"><ele>117.83333333333334</ele><time>2026-04-04T08:18:02.999Z</time></trkpt><trkpt lat="44.984904230129494" lon="9.470144529493028"><ele>117.66666666666667</ele><time>2026-04-04T08:18:05.999Z</time></trkpt><trkpt lat="44.98487903040638" lon="9.47003920172829"><ele>117.5</ele><time>2026-04-04T08:18:09.999Z</time></trkpt><trkpt lat="44.98481901523228" lon="9.469953086428713"><ele>117.33333333333334</ele><time>2026-04-04T08:18:13.999Z</time></trkpt><trkpt lat="44.98475704533381" lon="9.469873099273226"><ele>117.16666666666667</ele><time>2026-04-04T08:18:16.999Z</time></trkpt><trkpt lat="44.98469489714197" lon="9.469812764209978"><ele>117.0</ele><time>2026-04-04T08:18:18.999Z</time></trkpt><trkpt lat="44.984597104863234" lon="9.469809386134745"><ele>117.0</ele><time>2026-04-04T08:18:21.999Z</time></trkpt><trkpt lat="44.98452200225584" lon="9.469800444757057"><ele>116.99999999999999</ele><time>2026-04-04T08:18:23.999Z</time></trkpt><trkpt lat="44.98440029151329" lon="9.469875053777658"><ele>116.99999999999999</ele><time>2026-04-04T08:18:25.999Z</time></trkpt><trkpt lat="44.98429330428723" lon="9.469888283910764"><ele>117.0</ele><time>2026-04-04T08:18:27.999Z</time></trkpt><trkpt lat="44.984190685676836" lon="9.469844948223338"><ele>117.0</ele><time>2026-04-04T08:18:29.999Z</time></trkpt><trkpt lat="44.98405325207459" lon="9.469770454971536"><ele>117.8</ele><time>2026-04-04T08:18:31.999Z</time></trkpt><trkpt lat="44.983972990763995" lon="9.469734499849658"><ele>118.6</ele><time>2026-04-04T08:18:33Z</time></trkpt><trkpt lat="44.98390052881718" lon="9.46969758006317"><ele>119.39999999999999</ele><time>2026-04-04T08:18:34Z</time></trkpt><trkpt lat="44.98382918584588" lon="9.4696268459047"><ele>120.19999999999999</ele><time>2026-04-04T08:18:35Z</time></trkpt><trkpt lat="44.98373580981631" lon="9.469548190627973"><ele>121.0</ele><time>2026-04-04T08:18:37Z</time></trkpt><trkpt lat="44.983638099108404" lon="9.469407525223763"><ele>121.00000000000001</ele><time>2026-04-04T08:18:39Z</time></trkpt><trkpt lat="44.98358890326755" lon="9.46934988527525"><ele>121.0</ele><time>2026-04-04T08:18:40Z</time></trkpt><trkpt lat="44.98353862341859" lon="9.469287524913414"><ele>121.0</ele><time>2026-04-04T08:18:41Z</time></trkpt><trkpt lat="44.983484285596276" lon="9.469142301406482"><ele>121.0</ele><time>2026-04-04T08:18:43Z</time></trkpt><trkpt lat="44.98345786119375" lon="9.469029508008678"><ele>121.00000000000001</ele><time>2026-04-04T08:18:44Z</time></trkpt><trkpt lat="44.98342602383282" lon="9.468923476384408"><ele>121.0</ele><time>2026-04-04T08:18:45Z</time></trkpt><trkpt lat="44.983365775189355" lon="9.468764178277667"><ele>121.00000000000001</ele><time>2026-04-04T08:18:47Z</time></trkpt><trkpt lat="44.98332830992257" lon="9.468665163142465"><ele>121.0</ele><time>2026-04-04T08:18:48Z</time></trkpt><trkpt lat="44.983290972998375" lon="9.468558871939509"><ele>121.0</ele><time>2026-04-04T08:18:49Z</time></trkpt><trkpt lat="44.983240666669055" lon="9.468472129657245"><ele>121.0</ele><time>2026-04-04T08:18:50Z</time></trkpt><trkpt lat="44.98319907550869" lon="9.46839317347614"><ele>121.00000000000001</ele><time>2026-04-04T08:18:51Z</time></trkpt><trkpt lat="44.98316521268506" lon="9.468301103568319"><ele>121.0</ele><time>2026-04-04T08:18:52Z</time></trkpt><trkpt lat="44.98312137455389" lon="9.468204156555682"><ele>121.00000000000001</ele><time>2026-04-04T08:18:53Z</time></trkpt><trkpt lat="44.983072445202566" lon="9.468095972673186"><ele>121.0</ele><time>2026-04-04T08:18:54Z</time></trkpt><trkpt lat="44.98301824999672" lon="9.467999339566099"><ele>121.0</ele><time>2026-04-04T08:18:55Z</time></trkpt><trkpt lat="44.982975865697995" lon="9.467930614073216"><ele>121.0</ele><time>2026-04-04T08:18:56Z</time></trkpt><trkpt lat="44.98292892585668" lon="9.46786197001701"><ele>121.00000000000001</ele><time>2026-04-04T08:18:57Z</time></trkpt><trkpt lat="44.9828801912447" lon="9.467781859968312"><ele>121.0</ele><time>2026-04-04T08:18:58Z</time></trkpt><trkpt lat="44.9828364833782" lon="9.467697678500695"><ele>120.66666666666667</ele><time>2026-04-04T08:18:59Z</time></trkpt><trkpt lat="44.982795572938535" lon="9.46760239484811"><ele>120.33333333333334</ele><time>2026-04-04T08:19:00Z</time></trkpt><trkpt lat="44.98276151091797" lon="9.467504176652236"><ele>120.0</ele><time>2026-04-04T08:19:01Z</time></trkpt><trkpt lat="44.982731154620225" lon="9.467402511387762"><ele>119.66666666666666</ele><time>2026-04-04T08:19:02Z</time></trkpt><trkpt lat="44.982698279024355" lon="9.4673000388503"><ele>119.33333333333333</ele><time>2026-04-04T08:19:03Z</time></trkpt><trkpt lat="44.98264404778372" lon="9.467215081265174"><ele>119.0</ele><time>2026-04-04T08:19:04Z</time></trkpt><trkpt lat="44.98258546024502" lon="9.467111146149248"><ele>118.83333333333333</ele><time>2026-04-04T08:19:05Z</time></trkpt><trkpt lat="44.982525177781554" lon="9.467016268108894"><ele>118.66666666666666</ele><time>2026-04-04T08:19:06Z</time></trkpt><trkpt lat="44.982471966509905" lon="9.466921102420645"><ele>118.5</ele><time>2026-04-04T08:19:07Z</time></trkpt><trkpt lat="44.982412364191674" lon="9.466818519526244"><ele>118.33333333333334</ele><time>2026-04-04T08:19:08Z</time></trkpt><trkpt lat="44.982383329761255" lon="9.466724061909746"><ele>118.16666666666667</ele><time>2026-04-04T08:19:09Z</time></trkpt><trkpt lat="44.98234659393581" lon="9.466604247309451"><ele>118.0</ele><time>2026-04-04T08:19:10Z</time></trkpt><trkpt lat="44.98228132272571" lon="9.46651089191095"><ele>118.66666666666667</ele><time>2026-04-04T08:19:11Z</time></trkpt><trkpt lat="44.982223412900254" lon="9.466429406682378"><ele>119.33333333333334</ele><time>2026-04-04T08:19:12Z</time></trkpt><trkpt lat="44.982163527603085" lon="9.46633054788429"><ele>120.0</ele><time>2026-04-04T08:19:13Z</time></trkpt><trkpt lat="44.982104219376204" lon="9.466233511612005"><ele>120.66666666666666</ele><time>2026-04-04T08:19:14Z</time></trkpt><trkpt lat="44.982055767851804" lon="9.466127341081469"><ele>121.33333333333333</ele><time>2026-04-04T08:19:15Z</time></trkpt><trkpt lat="44.982013663584866" lon="9.466013594380335"><ele>122.0</ele><time>2026-04-04T08:19:16Z</time></trkpt><trkpt lat="44.981981798813194" lon="9.465900580656593"><ele>121.99999999999999</ele><time>2026-04-04T08:19:17Z</time></trkpt><trkpt lat="44.9819304274535" lon="9.465823023370408"><ele>122.0</ele><time>2026-04-04T08:19:18Z</time></trkpt><trkpt lat="44.981873561095206" lon="9.465757380304796"><ele>122.0</ele><time>2026-04-04T08:19:19Z</time></trkpt><trkpt lat="44.98177190055654" lon="9.46566539138506"><ele>122.0</ele><time>2026-04-04T08:19:21Z</time></trkpt><trkpt lat="44.98171370185668" lon="9.465621739950487"><ele>121.99999999999999</ele><time>2026-04-04T08:19:22Z</time></trkpt><trkpt lat="44.98163874381774" lon="9.465559191679231"><ele>122.0</ele><time>2026-04-04T08:19:23Z</time></trkpt><trkpt lat="44.981568645655024" lon="9.465496533801577"><ele>122.0</ele><time>2026-04-04T08:19:24Z</time></trkpt><trkpt lat="44.98151272114834" lon="9.4654552181465"><ele>121.99999999999999</ele><time>2026-04-04T08:19:25Z</time></trkpt><trkpt lat="44.98141764499809" lon="9.465407739796216"><ele>121.99999999999999</ele><time>2026-04-04T08:19:26.999Z</time></trkpt><trkpt lat="44.98131465803417" lon="9.465373717566559"><ele>122.0</ele><time>2026-04-04T08:19:28.999Z</time></trkpt><trkpt lat="44.981200888376506" lon="9.465414474621491"><ele>122.0</ele><time>2026-04-04T08:19:30.999Z</time></trkpt><trkpt lat="44.981101293501126" lon="9.465556468471508"><ele>122.16666666666666</ele><time>2026-04-04T08:19:32.999Z</time></trkpt><trkpt lat="44.9810478315123" lon="9.465627864290731"><ele>122.33333333333333</ele><time>2026-04-04T08:19:33.999Z</time></trkpt><trkpt lat="44.980996678058574" lon="9.465684649969363"><ele>122.5</ele><time>2026-04-04T08:19:34.999Z</time></trkpt><trkpt lat="44.9809442586003" lon="9.465741716537657"><ele>122.66666666666666</ele><time>2026-04-04T08:19:35.999Z</time></trkpt><trkpt lat="44.98089176402402" lon="9.465801681285836"><ele>122.83333333333333</ele><time>2026-04-04T08:19:36.999Z</time></trkpt><trkpt lat="44.980790258617105" lon="9.465915265540307"><ele>123.0</ele><time>2026-04-04T08:19:38.999Z</time></trkpt><trkpt lat="44.980731605953416" lon="9.465979625113063"><ele>122.60000000000001</ele><time>2026-04-04T08:19:39.999Z</time></trkpt><trkpt lat="44.980654087138504" lon="9.466063870607648"><ele>122.20000000000002</ele><time>2026-04-04T08:19:41.999Z</time></trkpt><trkpt lat="44.980575025979974" lon="9.466082447040398"><ele>121.8</ele><time>2026-04-04T08:19:43.999Z</time></trkpt><trkpt lat="44.98050260181636" lon="9.46601195532468"><ele>121.4</ele><time>2026-04-04T08:19:45.999Z</time></trkpt><trkpt lat="44.980437639910406" lon="9.465861437044461"><ele>121.0</ele><time>2026-04-04T08:19:47.999Z</time></trkpt><trkpt lat="44.98039184370418" lon="9.465776867552425"><ele>121.00000000000001</ele><time>2026-04-04T08:19:48.999Z</time></trkpt><trkpt lat="44.98033747655837" lon="9.465678740886442"><ele>121.0</ele><time>2026-04-04T08:19:49.999Z</time></trkpt><trkpt lat="44.980284997131946" lon="9.465587878069172"><ele>121.0</ele><time>2026-04-04T08:19:50.999Z</time></trkpt><trkpt lat="44.98022659166621" lon="9.465496049814291"><ele>121.0</ele><time>2026-04-04T08:19:51.999Z</time></trkpt><trkpt lat="44.980165982401836" lon="9.465397690020621"><ele>121.00000000000001</ele><time>2026-04-04T08:19:52.999Z</time></trkpt><trkpt lat="44.9801106339546" lon="9.465311133977897"><ele>121.0</ele><time>2026-04-04T08:19:53.999Z</time></trkpt><trkpt lat="44.98004893687813" lon="9.465212077966669"><ele>121.5</ele><time>2026-04-04T08:19:54.999Z</time></trkpt><trkpt lat="44.97997843189977" lon="9.465102612525165"><ele>122.0</ele><time>2026-04-04T08:19:55.999Z</time></trkpt><trkpt lat="44.97989703861959" lon="9.464973613497838"><ele>122.5</ele><time>2026-04-04T08:19:56.999Z</time></trkpt><trkpt lat="44.9798100518167" lon="9.464843315795992"><ele>123.0</ele><time>2026-04-04T08:19:57.999Z</time></trkpt><trkpt lat="44.97972945357712" lon="9.464719874873428"><ele>123.4</ele><time>2026-04-04T08:19:58.999Z</time></trkpt><trkpt lat="44.97965813029428" lon="9.464608145235132"><ele>123.80000000000001</ele><time>2026-04-04T08:19:59.999Z</time></trkpt><trkpt lat="44.979588542097" lon="9.46449869022891"><ele>124.2</ele><time>2026-04-04T08:20:00.999Z</time></trkpt><trkpt lat="44.979524028702635" lon="9.464386542571043"><ele>124.6</ele><time>2026-04-04T08:20:01.999Z</time></trkpt><trkpt lat="44.97945104339666" lon="9.464289319874158"><ele>125.0</ele><time>2026-04-04T08:20:02.999Z</time></trkpt><trkpt lat="44.97938693725377" lon="9.464191184828247"><ele>125.0</ele><time>2026-04-04T08:20:03.999Z</time></trkpt><trkpt lat="44.9793130158515" lon="9.464083595478789"><ele>125.0</ele><time>2026-04-04T08:20:04.999Z</time></trkpt><trkpt lat="44.979241891130386" lon="9.463975538579456"><ele>125.0</ele><time>2026-04-04T08:20:05.999Z</time></trkpt><trkpt lat="44.979175024481755" lon="9.463872251118033"><ele>125.0</ele><time>2026-04-04T08:20:06.999Z</time></trkpt><trkpt lat="44.97910530005837" lon="9.463763151029152"><ele>125.0</ele><time>2026-04-04T08:20:07.999Z</time></trkpt><trkpt lat="44.97903165961508" lon="9.463660590110944"><ele>125.25</ele><time>2026-04-04T08:20:08.999Z</time></trkpt><trkpt lat="44.978950326584574" lon="9.463538251017274"><ele>125.5</ele><time>2026-04-04T08:20:09.999Z</time></trkpt><trkpt lat="44.97886753362235" lon="9.463413904785034"><ele>125.75</ele><time>2026-04-04T08:20:10.999Z</time></trkpt><trkpt lat="44.97879203956281" lon="9.463308723719374"><ele>126.0</ele><time>2026-04-04T08:20:11.999Z</time></trkpt><trkpt lat="44.97872149752578" lon="9.463196812331338"><ele>126.0</ele><time>2026-04-04T08:20:12.999Z</time></trkpt><trkpt lat="44.97864791679061" lon="9.46307706336717"><ele>126.0</ele><time>2026-04-04T08:20:13.999Z</time></trkpt><trkpt lat="44.97857276184193" lon="9.462969061658965"><ele>126.0</ele><time>2026-04-04T08:20:14.999Z</time></trkpt><trkpt lat="44.97850468835842" lon="9.462866504327796"><ele>126.0</ele><time>2026-04-04T08:20:15.999Z</time></trkpt><trkpt lat="44.97843043806753" lon="9.462756484779991"><ele>126.0</ele><time>2026-04-04T08:20:16.999Z</time></trkpt><trkpt lat="44.97835206516831" lon="9.462650739780852"><ele>125.8</ele><time>2026-04-04T08:20:17.999Z</time></trkpt><trkpt lat="44.97827426617127" lon="9.462542195430153"><ele>125.6</ele><time>2026-04-04T08:20:18.999Z</time></trkpt><trkpt lat="44.97820478104629" lon="9.462449114194058"><ele>125.4</ele><time>2026-04-04T08:20:19.999Z</time></trkpt><trkpt lat="44.978126470680785" lon="9.462353753926507"><ele>125.2</ele><time>2026-04-04T08:20:20.999Z</time></trkpt><trkpt lat="44.97804679945131" lon="9.462266165182058"><ele>125.0</ele><time>2026-04-04T08:20:21.999Z</time></trkpt><trkpt lat="44.97795883213897" lon="9.462178069694554"><ele>125.33333333333333</ele><time>2026-04-04T08:20:22.999Z</time></trkpt><trkpt lat="44.977871400785666" lon="9.462102987167482"><ele>125.66666666666666</ele><time>2026-04-04T08:20:23.999Z</time></trkpt><trkpt lat="44.977778362311206" lon="9.462024256647663"><ele>126.0</ele><time>2026-04-04T08:20:24.999Z</time></trkpt><trkpt lat="44.97770695493015" lon="9.461967639014665"><ele>126.33333333333334</ele><time>2026-04-04T08:20:25.999Z</time></trkpt><trkpt lat="44.97763865619408" lon="9.461912765713855"><ele>126.66666666666667</ele><time>2026-04-04T08:20:26.999Z</time></trkpt><trkpt lat="44.97758213580476" lon="9.461870104905485"><ele>127.0</ele><time>2026-04-04T08:20:27.999Z</time></trkpt><trkpt lat="44.97752283872874" lon="9.461820886086825"><ele>127.00000000000001</ele><time>2026-04-04T08:20:28.999Z</time></trkpt><trkpt lat="44.97742858120605" lon="9.461746730811285"><ele>127.0</ele><time>2026-04-04T08:20:30.999Z</time></trkpt><trkpt lat="44.97734701885804" lon="9.46168679225977"><ele>127.0</ele><time>2026-04-04T08:20:32.999Z</time></trkpt><trkpt lat="44.977293907342286" lon="9.461632310450913"><ele>127.0</ele><time>2026-04-04T08:20:37.998Z</time></trkpt><trkpt lat="44.97721079968025" lon="9.461608287915247"><ele>127.00000000000001</ele><time>2026-04-04T08:21:35.999Z</time></trkpt><trkpt lat="44.977120182960725" lon="9.461572178593443"><ele>127.0</ele><time>2026-04-04T08:21:39.999Z</time></trkpt><trkpt lat="44.97704687888143" lon="9.461570994840056"><ele>127.00000000000001</ele><time>2026-04-04T08:21:41.999Z</time></trkpt><trkpt lat="44.97698339901186" lon="9.461683426918263"><ele>127.0</ele><time>2026-04-04T08:21:43.999Z</time></trkpt><trkpt lat="44.97690287187889" lon="9.461741622821474"><ele>127.0</ele><time>2026-04-04T08:21:45.999Z</time></trkpt><trkpt lat="44.976828943915784" lon="9.461797549664945"><ele>127.0</ele><time>2026-04-04T08:21:47.999Z</time></trkpt><trkpt lat="44.97675446934694" lon="9.461854170743516"><ele>127.00000000000001</ele><time>2026-04-04T08:21:49.999Z</time></trkpt><trkpt lat="44.97668685040023" lon="9.461898941632846"><ele>127.0</ele><time>2026-04-04T08:21:51.999Z</time></trkpt><trkpt lat="44.97660033440087" lon="9.461952216107704"><ele>127.50000000000001</ele><time>2026-04-04T08:21:53.999Z</time></trkpt><trkpt lat="44.97653066290792" lon="9.462000991947507"><ele>128.0</ele><time>2026-04-04T08:21:54.999Z</time></trkpt><trkpt lat="44.97644823244369" lon="9.462045388679181"><ele>128.5</ele><time>2026-04-04T08:21:56.999Z</time></trkpt><trkpt lat="44.976374921432345" lon="9.462084413672542"><ele>129.0</ele><time>2026-04-04T08:21:58.999Z</time></trkpt><trkpt lat="44.97628577739767" lon="9.462106733518704"><ele>129.5</ele><time>2026-04-04T08:22:00.999Z</time></trkpt><trkpt lat="44.976217840139135" lon="9.462151041052973"><ele>130.0</ele><time>2026-04-04T08:22:01.999Z</time></trkpt><trkpt lat="44.976101416786186" lon="9.462178314552782"><ele>130.0</ele><time>2026-04-04T08:22:03.999Z</time></trkpt><trkpt lat="44.975980304605564" lon="9.462210614205771"><ele>130.0</ele><time>2026-04-04T08:22:05.999Z</time></trkpt><trkpt lat="44.97591605116892" lon="9.462210494865923"><ele>130.0</ele><time>2026-04-04T08:22:06.999Z</time></trkpt><trkpt lat="44.975806413814716" lon="9.462212329104315"><ele>130.0</ele><time>2026-04-04T08:22:08.999Z</time></trkpt><trkpt lat="44.97569154414344" lon="9.462252904539055"><ele>130.0</ele><time>2026-04-04T08:22:10.999Z</time></trkpt><trkpt lat="44.975631010018695" lon="9.462279262055471"><ele>130.6</ele><time>2026-04-04T08:22:11.999Z</time></trkpt><trkpt lat="44.97553314564786" lon="9.462329828745293"><ele>131.2</ele><time>2026-04-04T08:22:13.999Z</time></trkpt><trkpt lat="44.975415844775014" lon="9.462374381293836"><ele>131.8</ele><time>2026-04-04T08:22:15.999Z</time></trkpt><trkpt lat="44.9753465535667" lon="9.462407836716627"><ele>132.4</ele><time>2026-04-04T08:22:16.999Z</time></trkpt><trkpt lat="44.97527710334468" lon="9.462443114799793"><ele>133.0</ele><time>2026-04-04T08:22:17.999Z</time></trkpt><trkpt lat="44.97520571964828" lon="9.462498441358903"><ele>133.0</ele><time>2026-04-04T08:22:18.999Z</time></trkpt><trkpt lat="44.97514296409822" lon="9.46254512419087"><ele>133.0</ele><time>2026-04-04T08:22:19.999Z</time></trkpt><trkpt lat="44.97505985450813" lon="9.462626688969726"><ele>133.0</ele><time>2026-04-04T08:22:21.999Z</time></trkpt><trkpt lat="44.97498505876956" lon="9.462655065061304"><ele>133.0</ele><time>2026-04-04T08:22:22.999Z</time></trkpt><trkpt lat="44.97491161398702" lon="9.462681637745769"><ele>133.0</ele><time>2026-04-04T08:22:23.999Z</time></trkpt><trkpt lat="44.97482014211439" lon="9.46271874558836"><ele>133.0</ele><time>2026-04-04T08:22:24.999Z</time></trkpt><trkpt lat="44.97474581044219" lon="9.462734918846357"><ele>133.0</ele><time>2026-04-04T08:22:25.999Z</time></trkpt><trkpt lat="44.97466573124321" lon="9.462708662249291"><ele>133.0</ele><time>2026-04-04T08:22:26.999Z</time></trkpt><trkpt lat="44.97459946972523" lon="9.462696730818834"><ele>133.0</ele><time>2026-04-04T08:22:27.999Z</time></trkpt><trkpt lat="44.9745297397729" lon="9.462709605592975"><ele>133.0</ele><time>2026-04-04T08:22:28.999Z</time></trkpt><trkpt lat="44.97440303440473" lon="9.46266243919822"><ele>133.0</ele><time>2026-04-04T08:22:30.999Z</time></trkpt><trkpt lat="44.97433354430225" lon="9.462647434180901"><ele>133.0</ele><time>2026-04-04T08:22:31.999Z</time></trkpt><trkpt lat="44.97425265005302" lon="9.462602118970308"><ele>133.0</ele><time>2026-04-04T08:22:32.999Z</time></trkpt><trkpt lat="44.97418982810883" lon="9.462558255760806"><ele>133.0</ele><time>2026-04-04T08:22:33.999Z</time></trkpt><trkpt lat="44.97413278558109" lon="9.462491229059795"><ele>133.0</ele><time>2026-04-04T08:22:34.999Z</time></trkpt><trkpt lat="44.97407318512044" lon="9.462392631052774"><ele>133.0</ele><time>2026-04-04T08:22:35.999Z</time></trkpt><trkpt lat="44.97401566377467" lon="9.462311612467317"><ele>133.0</ele><time>2026-04-04T08:22:36.999Z</time></trkpt><trkpt lat="44.97397842350802" lon="9.46223226490868"><ele>133.0</ele><time>2026-04-04T08:22:37.999Z</time></trkpt><trkpt lat="44.973903409229585" lon="9.462106180398553"><ele>133.4</ele><time>2026-04-04T08:22:39.999Z</time></trkpt><trkpt lat="44.97379699707557" lon="9.462045268611691"><ele>133.8</ele><time>2026-04-04T08:22:41.999Z</time></trkpt><trkpt lat="44.973670234315954" lon="9.462042031733198"><ele>134.2</ele><time>2026-04-04T08:22:43.999Z</time></trkpt><trkpt lat="44.97360484466737" lon="9.462064992996023"><ele>134.6</ele><time>2026-04-04T08:22:45Z</time></trkpt><trkpt lat="44.97351346723233" lon="9.46211019816593"><ele>135.0</ele><time>2026-04-04T08:22:47Z</time></trkpt><trkpt lat="44.97344079760405" lon="9.46212633641066"><ele>136.0</ele><time>2026-04-04T08:22:48Z</time></trkpt><trkpt lat="44.97332747694798" lon="9.46215238710759"><ele>137.0</ele><time>2026-04-04T08:22:50Z</time></trkpt><trkpt lat="44.973245732310595" lon="9.462174268805843"><ele>138.0</ele><time>2026-04-04T08:22:52Z</time></trkpt><trkpt lat="44.97319980813264" lon="9.46225908018887"><ele>139.0</ele><time>2026-04-04T08:22:54Z</time></trkpt><trkpt lat="44.97319721004651" lon="9.462386464454054"><ele>140.0</ele><time>2026-04-04T08:22:56Z</time></trkpt><trkpt lat="44.973206121417675" lon="9.462544705376756"><ele>140.0</ele><time>2026-04-04T08:22:58Z</time></trkpt><trkpt lat="44.973207173765935" lon="9.462635952506881"><ele>140.0</ele><time>2026-04-04T08:22:59Z</time></trkpt><trkpt lat="44.97320022186626" lon="9.462826325101636"><ele>140.0</ele><time>2026-04-04T08:23:01Z</time></trkpt><trkpt lat="44.97319993995551" lon="9.462998584338319"><ele>140.0</ele><time>2026-04-04T08:23:03Z</time></trkpt><trkpt lat="44.97320131902014" lon="9.463155898142917"><ele>140.0</ele><time>2026-04-04T08:23:05Z</time></trkpt><trkpt lat="44.97323826132625" lon="9.463328146392396"><ele>141.5</ele><time>2026-04-04T08:23:07Z</time></trkpt><trkpt lat="44.97332323010013" lon="9.46344349405209"><ele>143.0</ele><time>2026-04-04T08:23:09Z</time></trkpt><trkpt lat="44.97338330890901" lon="9.463496396370315"><ele>144.5</ele><time>2026-04-04T08:23:10Z</time></trkpt><trkpt lat="44.97348717478672" lon="9.463565533727861"><ele>146.0</ele><time>2026-04-04T08:23:12Z</time></trkpt><trkpt lat="44.973548808721276" lon="9.463601960207836"><ele>147.5</ele><time>2026-04-04T08:23:13Z</time></trkpt><trkpt lat="44.97360581011321" lon="9.46367237354815"><ele>149.0</ele><time>2026-04-04T08:23:14Z</time></trkpt><trkpt lat="44.97365216623472" lon="9.463741636776929"><ele>150.4</ele><time>2026-04-04T08:23:15Z</time></trkpt><trkpt lat="44.973722579049586" lon="9.463878476499627"><ele>151.8</ele><time>2026-04-04T08:23:17Z</time></trkpt><trkpt lat="44.97375780774233" lon="9.46396940760743"><ele>153.2</ele><time>2026-04-04T08:23:18Z</time></trkpt><trkpt lat="44.97382923119457" lon="9.464122078606787"><ele>154.6</ele><time>2026-04-04T08:23:20Z</time></trkpt><trkpt lat="44.973868883296156" lon="9.464279763709232"><ele>156.0</ele><time>2026-04-04T08:23:22Z</time></trkpt><trkpt lat="44.97384646930773" lon="9.464422354721574"><ele>156.0</ele><time>2026-04-04T08:23:24Z</time></trkpt><trkpt lat="44.97378852078183" lon="9.464565592556252"><ele>156.0</ele><time>2026-04-04T08:23:26Z</time></trkpt><trkpt lat="44.97372159835885" lon="9.464580676109444"><ele>156.0</ele><time>2026-04-04T08:23:27Z</time></trkpt><trkpt lat="44.973610319765086" lon="9.464659314432094"><ele>156.0</ele><time>2026-04-04T08:23:29Z</time></trkpt><trkpt lat="44.97355107387029" lon="9.464705051488874"><ele>156.0</ele><time>2026-04-04T08:23:30Z</time></trkpt><trkpt lat="44.97348955829372" lon="9.464778637290493"><ele>156.83333333333334</ele><time>2026-04-04T08:23:31Z</time></trkpt><trkpt lat="44.97341855512107" lon="9.464834277054326"><ele>157.66666666666666</ele><time>2026-04-04T08:23:32Z</time></trkpt><trkpt lat="44.97334410086728" lon="9.464866031259188"><ele>158.5</ele><time>2026-04-04T08:23:33Z</time></trkpt><trkpt lat="44.97327030306992" lon="9.464923462994113"><ele>159.33333333333331</ele><time>2026-04-04T08:23:34Z</time></trkpt><trkpt lat="44.97320108884485" lon="9.46497806961554"><ele>160.16666666666666</ele><time>2026-04-04T08:23:35Z</time></trkpt><trkpt lat="44.973129507333674" lon="9.465037079192678"><ele>161.0</ele><time>2026-04-04T08:23:36Z</time></trkpt><trkpt lat="44.97306358449144" lon="9.465094094889633"><ele>161.83333333333331</ele><time>2026-04-04T08:23:37Z</time></trkpt><trkpt lat="44.9730034063599" lon="9.46517417927084"><ele>162.66666666666666</ele><time>2026-04-04T08:23:38Z</time></trkpt><trkpt lat="44.97294329327484" lon="9.465227546909539"><ele>163.5</ele><time>2026-04-04T08:23:39Z</time></trkpt><trkpt lat="44.972881896340624" lon="9.465282125992719"><ele>164.33333333333334</ele><time>2026-04-04T08:23:39.999Z</time></trkpt><trkpt lat="44.97282617063562" lon="9.465362977916238"><ele>165.16666666666669</ele><time>2026-04-04T08:23:40.999Z</time></trkpt><trkpt lat="44.972770575436066" lon="9.465438598991891"><ele>166.0</ele><time>2026-04-04T08:23:41.999Z</time></trkpt><trkpt lat="44.972758563911015" lon="9.46555362943423"><ele>166.83333333333334</ele><time>2026-04-04T08:23:42.999Z</time></trkpt><trkpt lat="44.97273753970634" lon="9.465656944941534"><ele>167.66666666666669</ele><time>2026-04-04T08:23:43.999Z</time></trkpt><trkpt lat="44.972730747580464" lon="9.465782300788243"><ele>168.5</ele><time>2026-04-04T08:23:44.999Z</time></trkpt><trkpt lat="44.97272767363234" lon="9.46591232067623"><ele>169.33333333333334</ele><time>2026-04-04T08:23:45.999Z</time></trkpt><trkpt lat="44.972729370905085" lon="9.466020765919172"><ele>170.16666666666666</ele><time>2026-04-04T08:23:46.999Z</time></trkpt><trkpt lat="44.97273266716923" lon="9.466159665314581"><ele>171.0</ele><time>2026-04-04T08:23:47.999Z</time></trkpt><trkpt lat="44.97271987203997" lon="9.466330019639095"><ele>171.0</ele><time>2026-04-04T08:23:48.999Z</time></trkpt><trkpt lat="44.97270826258007" lon="9.466455507578964"><ele>171.0</ele><time>2026-04-04T08:23:49.999Z</time></trkpt><trkpt lat="44.97270151213621" lon="9.466635894598294"><ele>171.0</ele><time>2026-04-04T08:23:51.999Z</time></trkpt><trkpt lat="44.972696895222285" lon="9.466740964342241"><ele>171.0</ele><time>2026-04-04T08:23:52.999Z</time></trkpt><trkpt lat="44.9726918666578" lon="9.46683338451406"><ele>171.0</ele><time>2026-04-04T08:23:53.999Z</time></trkpt><trkpt lat="44.972695652476176" lon="9.467036234978062"><ele>171.0</ele><time>2026-04-04T08:23:55.999Z</time></trkpt><trkpt lat="44.97267024062508" lon="9.467159380739277"><ele>171.0</ele><time>2026-04-04T08:23:57.999Z</time></trkpt><trkpt lat="44.97263404830878" lon="9.467257356521742"><ele>171.0</ele><time>2026-04-04T08:24:00.999Z</time></trkpt><trkpt lat="44.97253763865578" lon="9.467227151686604"><ele>171.0</ele><time>2026-04-04T08:24:02.999Z</time></trkpt><trkpt lat="44.97246207601459" lon="9.467164178315155"><ele>171.0</ele><time>2026-04-04T08:24:03.999Z</time></trkpt><trkpt lat="44.97239888991129" lon="9.467120629372749"><ele>171.0</ele><time>2026-04-04T08:24:04.999Z</time></trkpt><trkpt lat="44.97234974148751" lon="9.467054156200401"><ele>171.4</ele><time>2026-04-04T08:24:05.999Z</time></trkpt><trkpt lat="44.97224940754467" lon="9.467020820179515"><ele>171.8</ele><time>2026-04-04T08:24:07.999Z</time></trkpt><trkpt lat="44.972165249337166" lon="9.46699553778226"><ele>172.20000000000002</ele><time>2026-04-04T08:24:09.999Z</time></trkpt><trkpt lat="44.97203568797123" lon="9.466962339720457"><ele>172.60000000000002</ele><time>2026-04-04T08:24:11.999Z</time></trkpt><trkpt lat="44.971968103449065" lon="9.466945345490434"><ele>173.0</ele><time>2026-04-04T08:24:12.999Z</time></trkpt><trkpt lat="44.97187588417917" lon="9.466922156804255"><ele>173.0</ele><time>2026-04-04T08:24:13.999Z</time></trkpt><trkpt lat="44.971747807857255" lon="9.466889068069596"><ele>173.0</ele><time>2026-04-04T08:24:14.999Z</time></trkpt><trkpt lat="44.97163222527391" lon="9.466859288578934"><ele>173.0</ele><time>2026-04-04T08:24:15.999Z</time></trkpt><trkpt lat="44.971543744806965" lon="9.466836491867813"><ele>173.0</ele><time>2026-04-04T08:24:16.999Z</time></trkpt><trkpt lat="44.971463580812575" lon="9.466815837874872"><ele>173.0</ele><time>2026-04-04T08:24:17.999Z</time></trkpt><trkpt lat="44.97138233684523" lon="9.466794600481585"><ele>173.5</ele><time>2026-04-04T08:24:18.999Z</time></trkpt><trkpt lat="44.97129384534953" lon="9.466771353018924"><ele>174.0</ele><time>2026-04-04T08:24:19.999Z</time></trkpt><trkpt lat="44.971213988037015" lon="9.46675037383196"><ele>174.5</ele><time>2026-04-04T08:24:20.999Z</time></trkpt><trkpt lat="44.971135412975315" lon="9.466729731497294"><ele>175.0</ele><time>2026-04-04T08:24:21.999Z</time></trkpt><trkpt lat="44.97104535184121" lon="9.46670607167748"><ele>175.5</ele><time>2026-04-04T08:24:22.999Z</time></trkpt><trkpt lat="44.970964386896064" lon="9.46668480150043"><ele>176.0</ele><time>2026-04-04T08:24:23.999Z</time></trkpt><trkpt lat="44.97087889616097" lon="9.46666234236112"><ele>176.5</ele><time>2026-04-04T08:24:24.999Z</time></trkpt><trkpt lat="44.97079940802058" lon="9.46664146015544"><ele>177.0</ele><time>2026-04-04T08:24:25.999Z</time></trkpt><trkpt lat="44.97071872939721" lon="9.46662026520278"><ele>177.5</ele><time>2026-04-04T08:24:26.999Z</time></trkpt><trkpt lat="44.970634137728005" lon="9.466598042253533"><ele>178.0</ele><time>2026-04-04T08:24:27.999Z</time></trkpt><trkpt lat="44.97053866361035" lon="9.466594876507733"><ele>178.5</ele><time>2026-04-04T08:24:28.999Z</time></trkpt><trkpt lat="44.970447541280514" lon="9.466561983895788"><ele>179.0</ele><time>2026-04-04T08:24:29.999Z</time></trkpt><trkpt lat="44.97035576050253" lon="9.466536746963122"><ele>179.0</ele><time>2026-04-04T08:24:30.999Z</time></trkpt><trkpt lat="44.97025466850089" lon="9.4665127041838"><ele>179.0</ele><time>2026-04-04T08:24:31.999Z</time></trkpt><trkpt lat="44.970147690834345" lon="9.466485286947162"><ele>179.0</ele><time>2026-04-04T08:24:32.999Z</time></trkpt><trkpt lat="44.97003996121526" lon="9.46645940721721"><ele>179.0</ele><time>2026-04-04T08:24:33.999Z</time></trkpt><trkpt lat="44.96992566135393" lon="9.46641387882641"><ele>179.0</ele><time>2026-04-04T08:24:34.999Z</time></trkpt><trkpt lat="44.969818783453334" lon="9.466392086938736"><ele>179.39999999999998</ele><time>2026-04-04T08:24:35.999Z</time></trkpt><trkpt lat="44.969714479453465" lon="9.46637390522567"><ele>179.8</ele><time>2026-04-04T08:24:36.999Z</time></trkpt><trkpt lat="44.96960206892354" lon="9.4663583988393"><ele>180.2</ele><time>2026-04-04T08:24:37.999Z</time></trkpt><trkpt lat="44.96948954188897" lon="9.466350701729649"><ele>180.60000000000002</ele><time>2026-04-04T08:24:38.999Z</time></trkpt><trkpt lat="44.969376764776726" lon="9.466335745066807"><ele>181.0</ele><time>2026-04-04T08:24:39.999Z</time></trkpt><trkpt lat="44.96926232784942" lon="9.466324470642498"><ele>180.8</ele><time>2026-04-04T08:24:40.999Z</time></trkpt><trkpt lat="44.96914856148336" lon="9.466315083478209"><ele>180.60000000000002</ele><time>2026-04-04T08:24:41.999Z</time></trkpt><trkpt lat="44.96903597255053" lon="9.466304527028118"><ele>180.4</ele><time>2026-04-04T08:24:42.999Z</time></trkpt><trkpt lat="44.96892803829415" lon="9.466290464667605"><ele>180.2</ele><time>2026-04-04T08:24:43.999Z</time></trkpt><trkpt lat="44.96881670930376" lon="9.466276254585063"><ele>180.0</ele><time>2026-04-04T08:24:44.999Z</time></trkpt><trkpt lat="44.96870513604605" lon="9.466263118767914"><ele>180.0</ele><time>2026-04-04T08:24:45.998Z</time></trkpt><trkpt lat="44.96859433795786" lon="9.466251045466526"><ele>180.0</ele><time>2026-04-04T08:24:46.998Z</time></trkpt><trkpt lat="44.968477954013025" lon="9.466237431810205"><ele>180.0</ele><time>2026-04-04T08:24:47.998Z</time></trkpt><trkpt lat="44.96835385799671" lon="9.466210743754152"><ele>180.0</ele><time>2026-04-04T08:24:48.998Z</time></trkpt><trkpt lat="44.968233303101215" lon="9.466199266691156"><ele>181.5</ele><time>2026-04-04T08:24:49.998Z</time></trkpt><trkpt lat="44.96811148518252" lon="9.466176085532414"><ele>183.0</ele><time>2026-04-04T08:24:51Z</time></trkpt><trkpt lat="44.96799186988621" lon="9.466161415148358"><ele>184.5</ele><time>2026-04-04T08:24:52Z</time></trkpt><trkpt lat="44.96787379408987" lon="9.466149186312789"><ele>186.0</ele><time>2026-04-04T08:24:53Z</time></trkpt><trkpt lat="44.96775200559383" lon="9.466135823322556"><ele>186.0</ele><time>2026-04-04T08:24:54Z</time></trkpt><trkpt lat="44.967636702501174" lon="9.466119062998215"><ele>186.0</ele><time>2026-04-04T08:24:55Z</time></trkpt><trkpt lat="44.967517155759" lon="9.466097290242393"><ele>186.0</ele><time>2026-04-04T08:24:56Z</time></trkpt><trkpt lat="44.96739888158614" lon="9.466080287819247"><ele>186.0</ele><time>2026-04-04T08:24:57Z</time></trkpt><trkpt lat="44.96727860961831" lon="9.466053574838222"><ele>186.5</ele><time>2026-04-04T08:24:58Z</time></trkpt><trkpt lat="44.96716076777612" lon="9.466026920585183"><ele>187.0</ele><time>2026-04-04T08:24:59Z</time></trkpt><trkpt lat="44.96704718717752" lon="9.46599931509444"><ele>187.5</ele><time>2026-04-04T08:25:00Z</time></trkpt><trkpt lat="44.96692967686207" lon="9.46597138920542"><ele>188.0</ele><time>2026-04-04T08:25:01Z</time></trkpt><trkpt lat="44.96680582936388" lon="9.46591554927351"><ele>189.0</ele><time>2026-04-04T08:25:02Z</time></trkpt><trkpt lat="44.966683009995684" lon="9.465885121318992"><ele>190.0</ele><time>2026-04-04T08:25:03Z</time></trkpt><trkpt lat="44.966554129972415" lon="9.46584818642982"><ele>191.0</ele><time>2026-04-04T08:25:04Z</time></trkpt><trkpt lat="44.9664268406393" lon="9.465815811179867"><ele>192.0</ele><time>2026-04-04T08:25:05Z</time></trkpt><trkpt lat="44.96629077688726" lon="9.465779640305735"><ele>192.0</ele><time>2026-04-04T08:25:06Z</time></trkpt><trkpt lat="44.966156650366706" lon="9.465742991401475"><ele>192.0</ele><time>2026-04-04T08:25:07Z</time></trkpt><trkpt lat="44.96601921100128" lon="9.465715188045333"><ele>192.0</ele><time>2026-04-04T08:25:08Z</time></trkpt><trkpt lat="44.965870695182005" lon="9.465691174123853"><ele>192.0</ele><time>2026-04-04T08:25:09Z</time></trkpt><trkpt lat="44.96571855784368" lon="9.465630933640332"><ele>192.66666666666669</ele><time>2026-04-04T08:25:10Z</time></trkpt><trkpt lat="44.96556259139596" lon="9.465588778540441"><ele>193.33333333333334</ele><time>2026-04-04T08:25:11Z</time></trkpt><trkpt lat="44.9653986296474" lon="9.465564925510376"><ele>194.0</ele><time>2026-04-04T08:25:12Z</time></trkpt><trkpt lat="44.96523469397291" lon="9.465516545669097"><ele>194.0</ele><time>2026-04-04T08:25:13Z</time></trkpt><trkpt lat="44.965072814480074" lon="9.465469332267578"><ele>194.0</ele><time>2026-04-04T08:25:14Z</time></trkpt><trkpt lat="44.96490996548005" lon="9.46541980510034"><ele>194.0</ele><time>2026-04-04T08:25:15Z</time></trkpt><trkpt lat="44.964726887355" lon="9.465387413393865"><ele>194.25</ele><time>2026-04-04T08:25:16Z</time></trkpt><trkpt lat="44.96456396531933" lon="9.46534209406334"><ele>194.5</ele><time>2026-04-04T08:25:17Z</time></trkpt><trkpt lat="44.96441831114356" lon="9.465307176307439"><ele>194.75</ele><time>2026-04-04T08:25:18Z</time></trkpt><trkpt lat="44.96429132360436" lon="9.465241789160318"><ele>195.0</ele><time>2026-04-04T08:25:19Z</time></trkpt><trkpt lat="44.964161617655805" lon="9.465217678950493"><ele>196.33333333333331</ele><time>2026-04-04T08:25:20Z</time></trkpt><trkpt lat="44.964022940136495" lon="9.46516384233279"><ele>197.66666666666666</ele><time>2026-04-04T08:25:21Z</time></trkpt><trkpt lat="44.96386908517687" lon="9.465103917211628"><ele>199.0</ele><time>2026-04-04T08:25:22Z</time></trkpt><trkpt lat="44.96370862987401" lon="9.465059716122488"><ele>199.0</ele><time>2026-04-04T08:25:23Z</time></trkpt><trkpt lat="44.963539273993334" lon="9.465001210362264"><ele>199.0</ele><time>2026-04-04T08:25:24Z</time></trkpt><trkpt lat="44.96334115369865" lon="9.464931552715097"><ele>199.0</ele><time>2026-04-04T08:25:25Z</time></trkpt><trkpt lat="44.96314629755954" lon="9.464856101568065"><ele>200.33333333333331</ele><time>2026-04-04T08:25:26Z</time></trkpt><trkpt lat="44.96297864749892" lon="9.46480203723095"><ele>201.66666666666669</ele><time>2026-04-04T08:25:27Z</time></trkpt><trkpt lat="44.96282924976038" lon="9.464759155827625"><ele>203.0</ele><time>2026-04-04T08:25:28Z</time></trkpt><trkpt lat="44.962670193341864" lon="9.464702220867268"><ele>203.5</ele><time>2026-04-04T08:25:29Z</time></trkpt><trkpt lat="44.96251487920888" lon="9.464651397128"><ele>204.0</ele><time>2026-04-04T08:25:30Z</time></trkpt><trkpt lat="44.9623774944637" lon="9.46460643404474"><ele>204.5</ele><time>2026-04-04T08:25:31Z</time></trkpt><trkpt lat="44.9622526247073" lon="9.464560319541024"><ele>205.0</ele><time>2026-04-04T08:25:32Z</time></trkpt><trkpt lat="44.96213164210281" lon="9.46451611165417"><ele>205.4</ele><time>2026-04-04T08:25:33Z</time></trkpt><trkpt lat="44.96201796142249" lon="9.464470634463618"><ele>205.8</ele><time>2026-04-04T08:25:34Z</time></trkpt><trkpt lat="44.96192678575129" lon="9.464437319015715"><ele>206.2</ele><time>2026-04-04T08:25:35Z</time></trkpt><trkpt lat="44.96184123468517" lon="9.464406938982446"><ele>206.6</ele><time>2026-04-04T08:25:36Z</time></trkpt><trkpt lat="44.96175123275031" lon="9.464369717161896"><ele>207.0</ele><time>2026-04-04T08:25:37Z</time></trkpt><trkpt lat="44.961674041336394" lon="9.46433861785754"><ele>207.0</ele><time>2026-04-04T08:25:38Z</time></trkpt><trkpt lat="44.96156041215768" lon="9.464306514984775"><ele>207.0</ele><time>2026-04-04T08:25:39.999Z</time></trkpt><trkpt lat="44.96145002549965" lon="9.46430902339659"><ele>207.0</ele><time>2026-04-04T08:25:41.999Z</time></trkpt><trkpt lat="44.961450518892015" lon="9.46449617738274"><ele>207.0</ele><time>2026-04-04T08:25:42.999Z</time></trkpt><trkpt lat="44.96143339168822" lon="9.46458255363932"><ele>207.0</ele><time>2026-04-04T08:25:43.999Z</time></trkpt><trkpt lat="44.961429203069336" lon="9.46469709631774"><ele>207.5</ele><time>2026-04-04T08:25:44.999Z</time></trkpt><trkpt lat="44.96142507288501" lon="9.464810042213873"><ele>208.0</ele><time>2026-04-04T08:25:45.999Z</time></trkpt><trkpt lat="44.961435948747194" lon="9.464904322320015"><ele>208.5</ele><time>2026-04-04T08:25:46.999Z</time></trkpt><trkpt lat="44.96138603134784" lon="9.465008344985014"><ele>209.0</ele><time>2026-04-04T08:25:48.999Z</time></trkpt><trkpt lat="44.96133778743946" lon="9.465088881225139"><ele>209.5</ele><time>2026-04-04T08:25:55.999Z</time></trkpt><trkpt lat="44.96128000128172" lon="9.465165960506447"><ele>210.0</ele><time>2026-04-04T08:25:57.999Z</time></trkpt><trkpt lat="44.961366020830354" lon="9.465316134363547"><ele>210.0</ele><time>2026-04-04T08:25:58.999Z</time></trkpt><trkpt lat="44.96139531058829" lon="9.465433831211222"><ele>210.0</ele><time>2026-04-04T08:25:59.999Z</time></trkpt><trkpt lat="44.96144615717483" lon="9.465590534511172"><ele>210.0</ele><time>2026-04-04T08:26:00.999Z</time></trkpt><trkpt lat="44.96147831564591" lon="9.465808773632991"><ele>210.0</ele><time>2026-04-04T08:26:01.999Z</time></trkpt><trkpt lat="44.961482090266095" lon="9.466066551273935"><ele>210.33333333333331</ele><time>2026-04-04T08:26:02.999Z</time></trkpt><trkpt lat="44.961504870528046" lon="9.466334558971155"><ele>210.66666666666666</ele><time>2026-04-04T08:26:03.999Z</time></trkpt><trkpt lat="44.961527061457225" lon="9.466597992710398"><ele>211.0</ele><time>2026-04-04T08:26:04.999Z</time></trkpt><trkpt lat="44.9615451267822" lon="9.466826327978941"><ele>211.0</ele><time>2026-04-04T08:26:05.999Z</time></trkpt><trkpt lat="44.96155692133671" lon="9.467038748159272"><ele>211.0</ele><time>2026-04-04T08:26:06.999Z</time></trkpt><trkpt lat="44.961542160614485" lon="9.467230326416693"><ele>211.0</ele><time>2026-04-04T08:26:07.999Z</time></trkpt><trkpt lat="44.961512979034694" lon="9.467416073475912"><ele>211.0</ele><time>2026-04-04T08:26:08.999Z</time></trkpt><trkpt lat="44.96145256834113" lon="9.467610588621337"><ele>210.33333333333331</ele><time>2026-04-04T08:26:09.999Z</time></trkpt><trkpt lat="44.961373136736796" lon="9.467787326459423"><ele>209.66666666666669</ele><time>2026-04-04T08:26:10.999Z</time></trkpt><trkpt lat="44.961268713783966" lon="9.467957748538772"><ele>209.0</ele><time>2026-04-04T08:26:11.999Z</time></trkpt><trkpt lat="44.96112088755887" lon="9.468166994648957"><ele>209.33333333333334</ele><time>2026-04-04T08:26:12.999Z</time></trkpt><trkpt lat="44.96098333146252" lon="9.468370607440301"><ele>209.66666666666669</ele><time>2026-04-04T08:26:13.999Z</time></trkpt><trkpt lat="44.9608557305867" lon="9.468560981543057"><ele>210.0</ele><time>2026-04-04T08:26:14.999Z</time></trkpt><trkpt lat="44.960711658924915" lon="9.468776475899988"><ele>210.0</ele><time>2026-04-04T08:26:15.999Z</time></trkpt><trkpt lat="44.960595274275505" lon="9.468978564028134"><ele>210.0</ele><time>2026-04-04T08:26:16.999Z</time></trkpt><trkpt lat="44.960505843776566" lon="9.469191364263793"><ele>210.0</ele><time>2026-04-04T08:26:17.999Z</time></trkpt><trkpt lat="44.960442905238466" lon="9.469435789152705"><ele>210.0</ele><time>2026-04-04T08:26:18.999Z</time></trkpt><trkpt lat="44.96040858435752" lon="9.46969259743018"><ele>210.0</ele><time>2026-04-04T08:26:19.999Z</time></trkpt><trkpt lat="44.960403608336286" lon="9.46995327980118"><ele>210.0</ele><time>2026-04-04T08:26:20.999Z</time></trkpt><trkpt lat="44.96043021749726" lon="9.470212770960558"><ele>212.0</ele><time>2026-04-04T08:26:21.999Z</time></trkpt><trkpt lat="44.96050186639842" lon="9.470468777686895"><ele>214.0</ele><time>2026-04-04T08:26:22.999Z</time></trkpt><trkpt lat="44.96058930164396" lon="9.470704601493395"><ele>216.0</ele><time>2026-04-04T08:26:23.999Z</time></trkpt><trkpt lat="44.960674257828934" lon="9.470950729913882"><ele>216.0</ele><time>2026-04-04T08:26:24.999Z</time></trkpt><trkpt lat="44.96078441040662" lon="9.471162285430536"><ele>216.0</ele><time>2026-04-04T08:26:25.999Z</time></trkpt><trkpt lat="44.96086541260814" lon="9.471360473130193"><ele>216.0</ele><time>2026-04-04T08:26:26.999Z</time></trkpt><trkpt lat="44.96091802401232" lon="9.471558460828115"><ele>215.75</ele><time>2026-04-04T08:26:27.999Z</time></trkpt><trkpt lat="44.96097134140026" lon="9.471739478465164"><ele>215.5</ele><time>2026-04-04T08:26:28.999Z</time></trkpt><trkpt lat="44.96101264710605" lon="9.471919128509343"><ele>215.25</ele><time>2026-04-04T08:26:29.999Z</time></trkpt><trkpt lat="44.96103761317985" lon="9.472104424935406"><ele>215.0</ele><time>2026-04-04T08:26:30.999Z</time></trkpt><trkpt lat="44.96105150025505" lon="9.472303939608251"><ele>215.0</ele><time>2026-04-04T08:26:31.999Z</time></trkpt><trkpt lat="44.96104854745942" lon="9.472499458122076"><ele>215.0</ele><time>2026-04-04T08:26:32.999Z</time></trkpt><trkpt lat="44.96103410102742" lon="9.472694454691547"><ele>215.0</ele><time>2026-04-04T08:26:33.999Z</time></trkpt><trkpt lat="44.9610014695438" lon="9.472906531630501"><ele>215.0</ele><time>2026-04-04T08:26:34.999Z</time></trkpt><trkpt lat="44.96096617548321" lon="9.47309570218739"><ele>215.0</ele><time>2026-04-04T08:26:35.999Z</time></trkpt><trkpt lat="44.960921361229445" lon="9.473300267986616"><ele>215.0</ele><time>2026-04-04T08:26:36.999Z</time></trkpt><trkpt lat="44.96087297749623" lon="9.473488504800516"><ele>215.0</ele><time>2026-04-04T08:26:37.999Z</time></trkpt><trkpt lat="44.96081252874401" lon="9.473645850210469"><ele>215.0</ele><time>2026-04-04T08:26:38.999Z</time></trkpt><trkpt lat="44.960723788320145" lon="9.47379531295707"><ele>216.25</ele><time>2026-04-04T08:26:39.999Z</time></trkpt><trkpt lat="44.960617380677796" lon="9.473919982891571"><ele>217.5</ele><time>2026-04-04T08:26:40.999Z</time></trkpt><trkpt lat="44.96050918995573" lon="9.474011247032216"><ele>218.75</ele><time>2026-04-04T08:26:41.999Z</time></trkpt><trkpt lat="44.96038147353728" lon="9.474082948295706"><ele>220.0</ele><time>2026-04-04T08:26:42.999Z</time></trkpt><trkpt lat="44.96024491569319" lon="9.474116516782836"><ele>220.0</ele><time>2026-04-04T08:26:43.999Z</time></trkpt><trkpt lat="44.9601066833238" lon="9.474118118690072"><ele>220.0</ele><time>2026-04-04T08:26:44.998Z</time></trkpt><trkpt lat="44.95996448918836" lon="9.474104209905436"><ele>220.0</ele><time>2026-04-04T08:26:45.998Z</time></trkpt><trkpt lat="44.959825328017665" lon="9.474048021742817"><ele>220.0</ele><time>2026-04-04T08:26:46.998Z</time></trkpt><trkpt lat="44.95967690340877" lon="9.473992642205634"><ele>221.25</ele><time>2026-04-04T08:26:47.998Z</time></trkpt><trkpt lat="44.959530576081896" lon="9.47395021837801"><ele>222.5</ele><time>2026-04-04T08:26:48.998Z</time></trkpt><trkpt lat="44.95940432760622" lon="9.473890824244549"><ele>223.75</ele><time>2026-04-04T08:26:49.998Z</time></trkpt><trkpt lat="44.9592778504065" lon="9.473912639422249"><ele>225.0</ele><time>2026-04-04T08:26:50.998Z</time></trkpt><trkpt lat="44.95914444760278" lon="9.473953677045357"><ele>226.5</ele><time>2026-04-04T08:26:51.998Z</time></trkpt><trkpt lat="44.95901744409353" lon="9.47404088950179"><ele>228.0</ele><time>2026-04-04T08:26:52.998Z</time></trkpt><trkpt lat="44.95890408508401" lon="9.474167321444288"><ele>229.5</ele><time>2026-04-04T08:26:53.998Z</time></trkpt><trkpt lat="44.9588149008836" lon="9.474340180245047"><ele>231.0</ele><time>2026-04-04T08:26:54.998Z</time></trkpt><trkpt lat="44.95875449399864" lon="9.474546650465824"><ele>229.25</ele><time>2026-04-04T08:26:55.998Z</time></trkpt><trkpt lat="44.95872204176222" lon="9.474743244866476"><ele>227.5</ele><time>2026-04-04T08:26:57Z</time></trkpt><trkpt lat="44.95866652636711" lon="9.474925101538046"><ele>225.75</ele><time>2026-04-04T08:26:58Z</time></trkpt><trkpt lat="44.958622233633555" lon="9.475116733849825"><ele>224.0</ele><time>2026-04-04T08:26:59Z</time></trkpt><trkpt lat="44.95859420590286" lon="9.475307299947637"><ele>223.0</ele><time>2026-04-04T08:27:00Z</time></trkpt><trkpt lat="44.958579747322155" lon="9.475518980124766"><ele>222.0</ele><time>2026-04-04T08:27:01Z</time></trkpt><trkpt lat="44.95858390686106" lon="9.475719366944679"><ele>221.0</ele><time>2026-04-04T08:27:02Z</time></trkpt><trkpt lat="44.95861984619416" lon="9.475933584633173"><ele>220.0</ele><time>2026-04-04T08:27:03Z</time></trkpt><trkpt lat="44.95868943040474" lon="9.476133867753948"><ele>221.0</ele><time>2026-04-04T08:27:04Z</time></trkpt><trkpt lat="44.95874586278921" lon="9.476324116274354"><ele>222.0</ele><time>2026-04-04T08:27:05Z</time></trkpt><trkpt lat="44.958806254183095" lon="9.476497975450618"><ele>223.0</ele><time>2026-04-04T08:27:06Z</time></trkpt><trkpt lat="44.958863211590504" lon="9.47665780610586"><ele>224.0</ele><time>2026-04-04T08:27:07Z</time></trkpt><trkpt lat="44.958921931655055" lon="9.476822583093776"><ele>224.0</ele><time>2026-04-04T08:27:08Z</time></trkpt><trkpt lat="44.95898298631834" lon="9.476983256225749"><ele>224.0</ele><time>2026-04-04T08:27:09Z</time></trkpt><trkpt lat="44.95902346376676" lon="9.47714901788985"><ele>224.0</ele><time>2026-04-04T08:27:10Z</time></trkpt><trkpt lat="44.959039491290675" lon="9.477335074073803"><ele>224.0</ele><time>2026-04-04T08:27:11Z</time></trkpt><trkpt lat="44.95900199016867" lon="9.477521784255067"><ele>224.5</ele><time>2026-04-04T08:27:12Z</time></trkpt><trkpt lat="44.95895823134031" lon="9.477687390010088"><ele>225.0</ele><time>2026-04-04T08:27:13Z</time></trkpt><trkpt lat="44.95889373249481" lon="9.477845139251656"><ele>225.5</ele><time>2026-04-04T08:27:14Z</time></trkpt><trkpt lat="44.95880540470215" lon="9.478022371842775"><ele>226.0</ele><time>2026-04-04T08:27:15Z</time></trkpt><trkpt lat="44.958718836504275" lon="9.47820434605174"><ele>223.66666666666666</ele><time>2026-04-04T08:27:16Z</time></trkpt><trkpt lat="44.95862336596184" lon="9.47841192705485"><ele>221.33333333333331</ele><time>2026-04-04T08:27:17Z</time></trkpt><trkpt lat="44.95852746343058" lon="9.478598660951718"><ele>219.0</ele><time>2026-04-04T08:27:18Z</time></trkpt><trkpt lat="44.95844153901825" lon="9.478786735797222"><ele>219.25</ele><time>2026-04-04T08:27:19Z</time></trkpt><trkpt lat="44.958356592072874" lon="9.478971635624125"><ele>219.5</ele><time>2026-04-04T08:27:20Z</time></trkpt><trkpt lat="44.958267116890575" lon="9.479122774207239"><ele>219.75</ele><time>2026-04-04T08:27:21Z</time></trkpt><trkpt lat="44.95818647999205" lon="9.479274197325438"><ele>220.0</ele><time>2026-04-04T08:27:22Z</time></trkpt><trkpt lat="44.95810540465481" lon="9.479435268315727"><ele>220.0</ele><time>2026-04-04T08:27:23Z</time></trkpt><trkpt lat="44.95803507270216" lon="9.479596695719735"><ele>220.0</ele><time>2026-04-04T08:27:24Z</time></trkpt><trkpt lat="44.95795535040835" lon="9.479765598736256"><ele>220.0</ele><time>2026-04-04T08:27:25Z</time></trkpt><trkpt lat="44.957842251256665" lon="9.479908420869098"><ele>220.0</ele><time>2026-04-04T08:27:26Z</time></trkpt><trkpt lat="44.957714374027475" lon="9.480050059876573"><ele>220.0</ele><time>2026-04-04T08:27:27Z</time></trkpt><trkpt lat="44.957589342655474" lon="9.48016197054859"><ele>220.0</ele><time>2026-04-04T08:27:28Z</time></trkpt><trkpt lat="44.957463381805184" lon="9.480254566322506"><ele>220.0</ele><time>2026-04-04T08:27:29Z</time></trkpt><trkpt lat="44.957327160556154" lon="9.480313027305629"><ele>220.0</ele><time>2026-04-04T08:27:30Z</time></trkpt><trkpt lat="44.95718294220111" lon="9.480363569215793"><ele>220.0</ele><time>2026-04-04T08:27:31Z</time></trkpt><trkpt lat="44.95702998227434" lon="9.480391772209755"><ele>220.0</ele><time>2026-04-04T08:27:32Z</time></trkpt><trkpt lat="44.95685698004543" lon="9.480422005918891"><ele>220.0</ele><time>2026-04-04T08:27:33Z</time></trkpt><trkpt lat="44.95669798596073" lon="9.480455833466396"><ele>218.0</ele><time>2026-04-04T08:27:34Z</time></trkpt><trkpt lat="44.956558591847575" lon="9.480489962282535"><ele>216.0</ele><time>2026-04-04T08:27:35Z</time></trkpt><trkpt lat="44.95641742809856" lon="9.480524524371676"><ele>214.0</ele><time>2026-04-04T08:27:36Z</time></trkpt><trkpt lat="44.95628933835916" lon="9.480553215024399"><ele>212.0</ele><time>2026-04-04T08:27:37Z</time></trkpt><trkpt lat="44.9561668134408" lon="9.480578051630214"><ele>212.0</ele><time>2026-04-04T08:27:38Z</time></trkpt><trkpt lat="44.95605874363808" lon="9.480619353270473"><ele>212.0</ele><time>2026-04-04T08:27:39Z</time></trkpt><trkpt lat="44.95596292141445" lon="9.48063497210738"><ele>212.0</ele><time>2026-04-04T08:27:40Z</time></trkpt><trkpt lat="44.95587598033227" lon="9.480646617924393"><ele>212.0</ele><time>2026-04-04T08:27:41Z</time></trkpt><trkpt lat="44.95578723514694" lon="9.480700584550252"><ele>212.0</ele><time>2026-04-04T08:27:42Z</time></trkpt><trkpt lat="44.95570175601636" lon="9.48079536739237"><ele>212.0</ele><time>2026-04-04T08:27:42.999Z</time></trkpt><trkpt lat="44.955633307936154" lon="9.48091702470952"><ele>212.0</ele><time>2026-04-04T08:27:43.999Z</time></trkpt><trkpt lat="44.9555844355011" lon="9.481057260747578"><ele>212.0</ele><time>2026-04-04T08:27:44.999Z</time></trkpt><trkpt lat="44.95555814796256" lon="9.481208389586799"><ele>212.0</ele><time>2026-04-04T08:27:45.999Z</time></trkpt><trkpt lat="44.9555631928816" lon="9.481382080173214"><ele>212.0</ele><time>2026-04-04T08:27:46.999Z</time></trkpt><trkpt lat="44.955605187877154" lon="9.481558036112508"><ele>212.0</ele><time>2026-04-04T08:27:47.999Z</time></trkpt><trkpt lat="44.955684113547" lon="9.481701186378723"><ele>212.0</ele><time>2026-04-04T08:27:48.999Z</time></trkpt><trkpt lat="44.95577712382983" lon="9.4818480517368"><ele>212.0</ele><time>2026-04-04T08:27:49.999Z</time></trkpt><trkpt lat="44.95588892452307" lon="9.481975294611384"><ele>211.5</ele><time>2026-04-04T08:27:50.999Z</time></trkpt><trkpt lat="44.95599731603987" lon="9.482105416846661"><ele>211.0</ele><time>2026-04-04T08:27:51.999Z</time></trkpt><trkpt lat="44.95610506950587" lon="9.48223197779927"><ele>210.5</ele><time>2026-04-04T08:27:52.999Z</time></trkpt><trkpt lat="44.95621839394988" lon="9.482358493904426"><ele>210.0</ele><time>2026-04-04T08:27:53.999Z</time></trkpt><trkpt lat="44.95633246850531" lon="9.482504853436437"><ele>210.0</ele><time>2026-04-04T08:27:54.999Z</time></trkpt><trkpt lat="44.956410311599825" lon="9.482663949469272"><ele>210.0</ele><time>2026-04-04T08:27:55.999Z</time></trkpt><trkpt lat="44.95646171602591" lon="9.482810502439111"><ele>210.0</ele><time>2026-04-04T08:27:56.999Z</time></trkpt><trkpt lat="44.95648201563727" lon="9.482968568093884"><ele>210.0</ele><time>2026-04-04T08:27:57.999Z</time></trkpt><trkpt lat="44.956468376468806" lon="9.483120403525238"><ele>210.8</ele><time>2026-04-04T08:27:58.999Z</time></trkpt><trkpt lat="44.95643281066338" lon="9.483249526699556"><ele>211.6</ele><time>2026-04-04T08:27:59.999Z</time></trkpt><trkpt lat="44.95637612301285" lon="9.483380985964883"><ele>212.39999999999998</ele><time>2026-04-04T08:28:00.999Z</time></trkpt><trkpt lat="44.95629794507155" lon="9.48347340301924"><ele>213.2</ele><time>2026-04-04T08:28:01.999Z</time></trkpt><trkpt lat="44.956215114048284" lon="9.48355267137113"><ele>214.0</ele><time>2026-04-04T08:28:02.999Z</time></trkpt><trkpt lat="44.956106306685406" lon="9.483579089476992"><ele>214.0</ele><time>2026-04-04T08:28:03.999Z</time></trkpt><trkpt lat="44.9559918450605" lon="9.48359107548496"><ele>214.0</ele><time>2026-04-04T08:28:04.999Z</time></trkpt><trkpt lat="44.95587243294245" lon="9.4835670974341"><ele>214.0</ele><time>2026-04-04T08:28:05.999Z</time></trkpt><trkpt lat="44.95575035921999" lon="9.483540311330891"><ele>214.0</ele><time>2026-04-04T08:28:06.999Z</time></trkpt><trkpt lat="44.95565081492504" lon="9.48355583070264"><ele>214.25</ele><time>2026-04-04T08:28:07.999Z</time></trkpt><trkpt lat="44.95557443565944" lon="9.483540138957716"><ele>214.5</ele><time>2026-04-04T08:28:08.999Z</time></trkpt><trkpt lat="44.95546758999699" lon="9.483630913415825"><ele>214.75</ele><time>2026-04-04T08:28:09.999Z</time></trkpt><trkpt lat="44.95534113529126" lon="9.483745770320859"><ele>215.0</ele><time>2026-04-04T08:28:10.999Z</time></trkpt><trkpt lat="44.95525255773965" lon="9.483880902913267"><ele>215.0</ele><time>2026-04-04T08:28:11.999Z</time></trkpt><trkpt lat="44.95518773281098" lon="9.484051489234544"><ele>215.0</ele><time>2026-04-04T08:28:12.999Z</time></trkpt><trkpt lat="44.955166039947905" lon="9.484253232761139"><ele>215.0</ele><time>2026-04-04T08:28:13.999Z</time></trkpt><trkpt lat="44.955164150999366" lon="9.48447211436558"><ele>215.0</ele><time>2026-04-04T08:28:14.999Z</time></trkpt><trkpt lat="44.955154950292" lon="9.484720212450258"><ele>215.0</ele><time>2026-04-04T08:28:15.999Z</time></trkpt><trkpt lat="44.955158538261756" lon="9.48496521608347"><ele>215.0</ele><time>2026-04-04T08:28:16.999Z</time></trkpt><trkpt lat="44.95516078613961" lon="9.485210767042588"><ele>215.0</ele><time>2026-04-04T08:28:17.999Z</time></trkpt><trkpt lat="44.95516298591533" lon="9.485451063471977"><ele>215.66666666666669</ele><time>2026-04-04T08:28:18.999Z</time></trkpt><trkpt lat="44.95516520437491" lon="9.485693400584129"><ele>216.33333333333331</ele><time>2026-04-04T08:28:19.999Z</time></trkpt><trkpt lat="44.95516942692975" lon="9.485922056596442"><ele>217.0</ele><time>2026-04-04T08:28:20.999Z</time></trkpt><trkpt lat="44.95516702289564" lon="9.486138207764558"><ele>217.25</ele><time>2026-04-04T08:28:21.999Z</time></trkpt><trkpt lat="44.955152538483766" lon="9.486349957498403"><ele>217.5</ele><time>2026-04-04T08:28:22.999Z</time></trkpt><trkpt lat="44.95513498062989" lon="9.486563123961282"><ele>217.75</ele><time>2026-04-04T08:28:23.999Z</time></trkpt><trkpt lat="44.95511240600478" lon="9.48675927133761"><ele>218.0</ele><time>2026-04-04T08:28:24.999Z</time></trkpt><trkpt lat="44.95508068301485" lon="9.486982971935836"><ele>217.66666666666669</ele><time>2026-04-04T08:28:25.999Z</time></trkpt><trkpt lat="44.95504762572133" lon="9.487199935295084"><ele>217.33333333333331</ele><time>2026-04-04T08:28:26.999Z</time></trkpt><trkpt lat="44.95501427354898" lon="9.487419269103333"><ele>217.0</ele><time>2026-04-04T08:28:27.999Z</time></trkpt><trkpt lat="44.954984081267035" lon="9.487617822554574"><ele>219.6</ele><time>2026-04-04T08:28:28.999Z</time></trkpt><trkpt lat="44.95495937663174" lon="9.487780287552305"><ele>222.2</ele><time>2026-04-04T08:28:29.999Z</time></trkpt><trkpt lat="44.954937883030844" lon="9.48792163587079"><ele>224.8</ele><time>2026-04-04T08:28:30.999Z</time></trkpt><trkpt lat="44.95491681018592" lon="9.488060608061227"><ele>227.4</ele><time>2026-04-04T08:28:31.999Z</time></trkpt><trkpt lat="44.954899017052774" lon="9.488177953544001"><ele>230.0</ele><time>2026-04-04T08:28:32.999Z</time></trkpt><trkpt lat="44.954883405900866" lon="9.488280908971015"><ele>230.16666666666669</ele><time>2026-04-04T08:28:33.999Z</time></trkpt><trkpt lat="44.95487661353901" lon="9.488375546214359"><ele>230.33333333333334</ele><time>2026-04-04T08:28:34.999Z</time></trkpt><trkpt lat="44.954858058125616" lon="9.488486732028846"><ele>230.5</ele><time>2026-04-04T08:28:35.999Z</time></trkpt><trkpt lat="44.9548396414578" lon="9.488607142342985"><ele>230.66666666666669</ele><time>2026-04-04T08:28:36.999Z</time></trkpt><trkpt lat="44.95482014353507" lon="9.488729789505703"><ele>230.83333333333334</ele><time>2026-04-04T08:28:37.999Z</time></trkpt><trkpt lat="44.954796925081524" lon="9.488849076558314"><ele>231.0</ele><time>2026-04-04T08:28:38.999Z</time></trkpt><trkpt lat="44.95477681967343" lon="9.488950691027048"><ele>229.83333333333334</ele><time>2026-04-04T08:28:39.999Z</time></trkpt><trkpt lat="44.95475580839257" lon="9.489060565504511"><ele>228.66666666666669</ele><time>2026-04-04T08:28:40.999Z</time></trkpt><trkpt lat="44.95472024649451" lon="9.48917157772098"><ele>227.5</ele><time>2026-04-04T08:28:41.999Z</time></trkpt><trkpt lat="44.954670557912664" lon="9.489278838110392"><ele>226.33333333333334</ele><time>2026-04-04T08:28:42.999Z</time></trkpt><trkpt lat="44.95460242350295" lon="9.489377015422958"><ele>225.16666666666669</ele><time>2026-04-04T08:28:43.999Z</time></trkpt><trkpt lat="44.954532348490645" lon="9.489461431777148"><ele>224.0</ele><time>2026-04-04T08:28:44.999Z</time></trkpt><trkpt lat="44.95444990361397" lon="9.489536346905474"><ele>222.79999999999998</ele><time>2026-04-04T08:28:45.999Z</time></trkpt><trkpt lat="44.95437505485357" lon="9.489627459728071"><ele>221.59999999999997</ele><time>2026-04-04T08:28:46.999Z</time></trkpt><trkpt lat="44.95430260260259" lon="9.489705175789789"><ele>220.4</ele><time>2026-04-04T08:28:47.999Z</time></trkpt><trkpt lat="44.95422800349054" lon="9.489778529392977"><ele>219.2</ele><time>2026-04-04T08:28:48.999Z</time></trkpt><trkpt lat="44.95412338159774" lon="9.489864439821085"><ele>218.0</ele><time>2026-04-04T08:28:49.999Z</time></trkpt><trkpt lat="44.95406792682289" lon="9.489962186859225"><ele>220.4</ele><time>2026-04-04T08:28:50.998Z</time></trkpt><trkpt lat="44.95402121188582" lon="9.490070686262392"><ele>222.8</ele><time>2026-04-04T08:28:51.998Z</time></trkpt><trkpt lat="44.95395547145732" lon="9.490169313912215"><ele>225.2</ele><time>2026-04-04T08:28:52.998Z</time></trkpt><trkpt lat="44.953917020537716" lon="9.490276956381559"><ele>227.6</ele><time>2026-04-04T08:28:53.998Z</time></trkpt><trkpt lat="44.953879040728275" lon="9.490373290261457"><ele>230.0</ele><time>2026-04-04T08:28:54.998Z</time></trkpt><trkpt lat="44.95382903148687" lon="9.490504489876635"><ele>230.00000000000003</ele><time>2026-04-04T08:28:56.998Z</time></trkpt><trkpt lat="44.95379047826436" lon="9.490582754192769"><ele>230.0</ele><time>2026-04-04T08:28:58.998Z</time></trkpt><trkpt lat="44.953734377413255" lon="9.490682236487968"><ele>230.0</ele><time>2026-04-04T08:29:00.998Z</time></trkpt><trkpt lat="44.95367578600323" lon="9.490755151614602"><ele>230.0</ele><time>2026-04-04T08:29:03Z</time></trkpt><trkpt lat="44.95360691492176" lon="9.490806982216274"><ele>230.00000000000003</ele><time>2026-04-04T08:29:05Z</time></trkpt><trkpt lat="44.95354904794738" lon="9.490859736296633"><ele>230.0</ele><time>2026-04-04T08:29:07Z</time></trkpt><trkpt lat="44.953475275277995" lon="9.490813573597089"><ele>230.0</ele><time>2026-04-04T08:29:09Z</time></trkpt><trkpt lat="44.953437388665" lon="9.49066794361506"><ele>230.0</ele><time>2026-04-04T08:29:11Z</time></trkpt><trkpt lat="44.953379323141085" lon="9.490512329152299"><ele>230.0</ele><time>2026-04-04T08:29:13Z</time></trkpt><trkpt lat="44.95334389187787" lon="9.490416193626535"><ele>230.0</ele><time>2026-04-04T08:29:14Z</time></trkpt><trkpt lat="44.953310171296515" lon="9.490331094041274"><ele>230.0</ele><time>2026-04-04T08:29:15Z</time></trkpt><trkpt lat="44.95324880120282" lon="9.490194628896724"><ele>233.2</ele><time>2026-04-04T08:29:17Z</time></trkpt><trkpt lat="44.95319948863467" lon="9.490124366944654"><ele>236.4</ele><time>2026-04-04T08:29:18Z</time></trkpt><trkpt lat="44.953045601951764" lon="9.490068709095471"><ele>239.60000000000002</ele><time>2026-04-04T08:29:20Z</time></trkpt><trkpt lat="44.95293906228486" lon="9.490094946625486"><ele>242.8</ele><time>2026-04-04T08:29:21Z</time></trkpt><trkpt lat="44.95283377154233" lon="9.49014457487865"><ele>246.0</ele><time>2026-04-04T08:29:22Z</time></trkpt><trkpt lat="44.95272879726735" lon="9.490195652405038"><ele>246.0</ele><time>2026-04-04T08:29:23Z</time></trkpt><trkpt lat="44.952651671098565" lon="9.490233418726554"><ele>246.00000000000003</ele><time>2026-04-04T08:29:24Z</time></trkpt><trkpt lat="44.952579369277935" lon="9.490261713170732"><ele>246.00000000000003</ele><time>2026-04-04T08:29:25Z</time></trkpt><trkpt lat="44.952507428296826" lon="9.490271555566524"><ele>246.0</ele><time>2026-04-04T08:29:26Z</time></trkpt><trkpt lat="44.95240119415417" lon="9.490203101039425"><ele>246.0</ele><time>2026-04-04T08:29:28Z</time></trkpt><trkpt lat="44.95232396763142" lon="9.490033689673831"><ele>247.4</ele><time>2026-04-04T08:29:30Z</time></trkpt><trkpt lat="44.952289578000894" lon="9.489908137556004"><ele>248.8</ele><time>2026-04-04T08:29:31Z</time></trkpt><trkpt lat="44.9522553637526" lon="9.489780439534801"><ele>250.20000000000002</ele><time>2026-04-04T08:29:32Z</time></trkpt><trkpt lat="44.95221731497742" lon="9.489657652007523"><ele>251.60000000000002</ele><time>2026-04-04T08:29:33Z</time></trkpt><trkpt lat="44.952179484516485" lon="9.489546585527258"><ele>253.0</ele><time>2026-04-04T08:29:34Z</time></trkpt><trkpt lat="44.95214141029325" lon="9.489439630137003"><ele>253.99999999999997</ele><time>2026-04-04T08:29:35Z</time></trkpt><trkpt lat="44.95211315060721" lon="9.489326428168015"><ele>255.0</ele><time>2026-04-04T08:29:36Z</time></trkpt><trkpt lat="44.95208875438997" lon="9.489210558186736"><ele>256.0</ele><time>2026-04-04T08:29:37Z</time></trkpt><trkpt lat="44.95206545698994" lon="9.489104369061343"><ele>257.0</ele><time>2026-04-04T08:29:38Z</time></trkpt><trkpt lat="44.95203959278261" lon="9.489008228520717"><ele>258.0</ele><time>2026-04-04T08:29:39Z</time></trkpt><trkpt lat="44.95201449998094" lon="9.48890451065853"><ele>259.0</ele><time>2026-04-04T08:29:40Z</time></trkpt><trkpt lat="44.95198677856953" lon="9.488798163057876"><ele>260.66666666666663</ele><time>2026-04-04T08:29:41Z</time></trkpt><trkpt lat="44.951965448801445" lon="9.48868446892556"><ele>262.3333333333333</ele><time>2026-04-04T08:29:42Z</time></trkpt><trkpt lat="44.95193546544128" lon="9.488571859273314"><ele>264.0</ele><time>2026-04-04T08:29:43Z</time></trkpt><trkpt lat="44.9519101355554" lon="9.488454115940568"><ele>265.6666666666667</ele><time>2026-04-04T08:29:44Z</time></trkpt><trkpt lat="44.95188729862375" lon="9.488338764382561"><ele>267.33333333333337</ele><time>2026-04-04T08:29:44.999Z</time></trkpt><trkpt lat="44.95186339569896" lon="9.488218412728978"><ele>269.0</ele><time>2026-04-04T08:29:45.999Z</time></trkpt><trkpt lat="44.95184158566027" lon="9.488097729364728"><ele>269.0</ele><time>2026-04-04T08:29:46.999Z</time></trkpt><trkpt lat="44.951821749217174" lon="9.487985243721191"><ele>269.0</ele><time>2026-04-04T08:29:47.999Z</time></trkpt><trkpt lat="44.951803186879005" lon="9.487862935164962"><ele>269.0</ele><time>2026-04-04T08:29:48.999Z</time></trkpt><trkpt lat="44.95177905321616" lon="9.48775276936786"><ele>269.0</ele><time>2026-04-04T08:29:49.999Z</time></trkpt><trkpt lat="44.95175821015315" lon="9.487629364116982"><ele>269.0</ele><time>2026-04-04T08:29:50.999Z</time></trkpt><trkpt lat="44.95173322429783" lon="9.487514035837748"><ele>269.0</ele><time>2026-04-04T08:29:51.999Z</time></trkpt><trkpt lat="44.95171066883154" lon="9.487387029168636"><ele>271.59999999999997</ele><time>2026-04-04T08:29:52.999Z</time></trkpt><trkpt lat="44.951683302847435" lon="9.48723006866078"><ele>274.2</ele><time>2026-04-04T08:29:53.999Z</time></trkpt><trkpt lat="44.95164821270319" lon="9.487069786583655"><ele>276.79999999999995</ele><time>2026-04-04T08:29:54.999Z</time></trkpt><trkpt lat="44.951612854705985" lon="9.486933161952246"><ele>279.4</ele><time>2026-04-04T08:29:55.999Z</time></trkpt><trkpt lat="44.95157681863972" lon="9.486815422957278"><ele>282.0</ele><time>2026-04-04T08:29:56.999Z</time></trkpt><trkpt lat="44.95153811518816" lon="9.486713834971574"><ele>283.6666666666667</ele><time>2026-04-04T08:29:57.999Z</time></trkpt><trkpt lat="44.9515051598992" lon="9.486632086936899"><ele>285.3333333333333</ele><time>2026-04-04T08:29:58.999Z</time></trkpt><trkpt lat="44.95143654924441" lon="9.486486351124295"><ele>287.0</ele><time>2026-04-04T08:30:00.999Z</time></trkpt><trkpt lat="44.95139909696693" lon="9.486399383405537"><ele>288.66666666666663</ele><time>2026-04-04T08:30:01.999Z</time></trkpt><trkpt lat="44.9513650699621" lon="9.48632107680316"><ele>290.3333333333333</ele><time>2026-04-04T08:30:02.999Z</time></trkpt><trkpt lat="44.95132759925896" lon="9.486211665242367"><ele>292.0</ele><time>2026-04-04T08:30:03.999Z</time></trkpt><trkpt lat="44.95128272648938" lon="9.486102239305138"><ele>292.0</ele><time>2026-04-04T08:30:04.999Z</time></trkpt><trkpt lat="44.95122680418561" lon="9.485983256770979"><ele>292.0</ele><time>2026-04-04T08:30:05.999Z</time></trkpt><trkpt lat="44.95118057401228" lon="9.485896495847456"><ele>292.0</ele><time>2026-04-04T08:30:06.999Z</time></trkpt><trkpt lat="44.95113234704856" lon="9.48581108231205"><ele>292.0</ele><time>2026-04-04T08:30:07.999Z</time></trkpt><trkpt lat="44.951079474472124" lon="9.485729771953128"><ele>292.0</ele><time>2026-04-04T08:30:08.999Z</time></trkpt><trkpt lat="44.950975051285" lon="9.485643322824723"><ele>294.3333333333333</ele><time>2026-04-04T08:30:10.999Z</time></trkpt><trkpt lat="44.95085702291335" lon="9.485632072513326"><ele>296.66666666666663</ele><time>2026-04-04T08:30:12.999Z</time></trkpt><trkpt lat="44.95078877448816" lon="9.485655022881541"><ele>299.0</ele><time>2026-04-04T08:30:13.999Z</time></trkpt><trkpt lat="44.95071899479258" lon="9.485679896332922"><ele>301.3333333333333</ele><time>2026-04-04T08:30:14.999Z</time></trkpt><trkpt lat="44.950647433086324" lon="9.485696272890971"><ele>303.6666666666667</ele><time>2026-04-04T08:30:15.999Z</time></trkpt><trkpt lat="44.95057562988096" lon="9.485744366315371"><ele>306.0</ele><time>2026-04-04T08:30:16.999Z</time></trkpt><trkpt lat="44.950506850121386" lon="9.485799602596513"><ele>306.0</ele><time>2026-04-04T08:30:17.999Z</time></trkpt><trkpt lat="44.95044203996239" lon="9.485857157894305"><ele>306.0</ele><time>2026-04-04T08:30:18.999Z</time></trkpt><trkpt lat="44.9503694060988" lon="9.485923845187273"><ele>306.0</ele><time>2026-04-04T08:30:19.999Z</time></trkpt><trkpt lat="44.95030439728605" lon="9.486000670534505"><ele>306.0</ele><time>2026-04-04T08:30:20.999Z</time></trkpt><trkpt lat="44.95023803215213" lon="9.486054471462287"><ele>306.0</ele><time>2026-04-04T08:30:21.999Z</time></trkpt><trkpt lat="44.950182247813984" lon="9.486113107806421"><ele>306.0</ele><time>2026-04-04T08:30:22.999Z</time></trkpt><trkpt lat="44.950121882068885" lon="9.486178890239719"><ele>305.2</ele><time>2026-04-04T08:30:23.999Z</time></trkpt><trkpt lat="44.950081988619246" lon="9.486275207275048"><ele>304.40000000000003</ele><time>2026-04-04T08:30:24.999Z</time></trkpt><trkpt lat="44.95005682959443" lon="9.486390350297453"><ele>303.6</ele><time>2026-04-04T08:30:25.999Z</time></trkpt><trkpt lat="44.95004631319151" lon="9.486512297747517"><ele>302.8</ele><time>2026-04-04T08:30:26.999Z</time></trkpt><trkpt lat="44.950025290723445" lon="9.486694598589827"><ele>302.0</ele><time>2026-04-04T08:30:28.999Z</time></trkpt><trkpt lat="44.949972523765766" lon="9.486821397366631"><ele>303.5</ele><time>2026-04-04T08:30:30.999Z</time></trkpt><trkpt lat="44.9499313241978" lon="9.486895453266078"><ele>305.0</ele><time>2026-04-04T08:30:31.999Z</time></trkpt><trkpt lat="44.949873434528065" lon="9.48698550423788"><ele>306.5</ele><time>2026-04-04T08:30:32.999Z</time></trkpt><trkpt lat="44.94981687712282" lon="9.487065517960785"><ele>308.0</ele><time>2026-04-04T08:30:33.999Z</time></trkpt><trkpt lat="44.949759165610864" lon="9.48714476787284"><ele>309.5</ele><time>2026-04-04T08:30:34.999Z</time></trkpt><trkpt lat="44.94969713977701" lon="9.487222385274347"><ele>311.0</ele><time>2026-04-04T08:30:35.999Z</time></trkpt><trkpt lat="44.94962743644412" lon="9.487314468981292"><ele>311.0</ele><time>2026-04-04T08:30:36.999Z</time></trkpt><trkpt lat="44.949586986435364" lon="9.487417484696124"><ele>311.0</ele><time>2026-04-04T08:30:37.999Z</time></trkpt><trkpt lat="44.94953202302815" lon="9.48749938748451"><ele>311.0</ele><time>2026-04-04T08:30:38.999Z</time></trkpt><trkpt lat="44.94947071739362" lon="9.487596420633764"><ele>311.0</ele><time>2026-04-04T08:30:39.999Z</time></trkpt><trkpt lat="44.94942325446835" lon="9.487690528890827"><ele>311.0</ele><time>2026-04-04T08:30:40.999Z</time></trkpt><trkpt lat="44.949387270174746" lon="9.487786168936745"><ele>311.0</ele><time>2026-04-04T08:30:41.999Z</time></trkpt><trkpt lat="44.94936782274145" lon="9.487925313391147"><ele>309.8</ele><time>2026-04-04T08:30:42.999Z</time></trkpt><trkpt lat="44.94936683661263" lon="9.488056416982685"><ele>308.6</ele><time>2026-04-04T08:30:43.999Z</time></trkpt><trkpt lat="44.94936056904429" lon="9.488162995670143"><ele>307.4</ele><time>2026-04-04T08:30:44.999Z</time></trkpt><trkpt lat="44.94935297395857" lon="9.488292148471391"><ele>306.2</ele><time>2026-04-04T08:30:45.999Z</time></trkpt><trkpt lat="44.949345072231566" lon="9.48842651561007"><ele>305.0</ele><time>2026-04-04T08:30:46.999Z</time></trkpt><trkpt lat="44.949352709465686" lon="9.488559871761153"><ele>305.0</ele><time>2026-04-04T08:30:47.999Z</time></trkpt><trkpt lat="44.94933364484748" lon="9.488696310001798"><ele>305.0</ele><time>2026-04-04T08:30:48.999Z</time></trkpt><trkpt lat="44.94932158794344" lon="9.488832810847233"><ele>305.0</ele><time>2026-04-04T08:30:49.999Z</time></trkpt><trkpt lat="44.949310051685636" lon="9.488965859292524"><ele>305.0</ele><time>2026-04-04T08:30:50.999Z</time></trkpt><trkpt lat="44.94931099981581" lon="9.489081910452239"><ele>305.0</ele><time>2026-04-04T08:30:51.999Z</time></trkpt><trkpt lat="44.94929356190567" lon="9.489239410922352"><ele>304.83333333333337</ele><time>2026-04-04T08:30:52.999Z</time></trkpt><trkpt lat="44.94930838501703" lon="9.489365148491219"><ele>304.6666666666667</ele><time>2026-04-04T08:30:53.999Z</time></trkpt><trkpt lat="44.94930334384625" lon="9.489487859285807"><ele>304.5</ele><time>2026-04-04T08:30:54.999Z</time></trkpt><trkpt lat="44.94930999525331" lon="9.489610048604057"><ele>304.3333333333333</ele><time>2026-04-04T08:30:55.999Z</time></trkpt><trkpt lat="44.949317323290785" lon="9.489737972864795"><ele>304.16666666666663</ele><time>2026-04-04T08:30:56.998Z</time></trkpt><trkpt lat="44.949326321304675" lon="9.489843733116464"><ele>304.0</ele><time>2026-04-04T08:30:57.998Z</time></trkpt><trkpt lat="44.94931510628924" lon="9.48995238348943"><ele>304.0</ele><time>2026-04-04T08:30:58.998Z</time></trkpt><trkpt lat="44.9493175288061" lon="9.490044739372353"><ele>304.0</ele><time>2026-04-04T08:30:59.998Z</time></trkpt><trkpt lat="44.949315515807086" lon="9.490205256611642"><ele>304.0</ele><time>2026-04-04T08:31:01.998Z</time></trkpt><trkpt lat="44.94928443317374" lon="9.490321177061256"><ele>304.0</ele><time>2026-04-04T08:31:03.998Z</time></trkpt><trkpt lat="44.94920099928521" lon="9.490412153338363"><ele>304.0</ele><time>2026-04-04T08:31:05.998Z</time></trkpt><trkpt lat="44.949093816238694" lon="9.490433371250797"><ele>306.3333333333333</ele><time>2026-04-04T08:31:08Z</time></trkpt><trkpt lat="44.94902818952371" lon="9.49041400178972"><ele>308.66666666666663</ele><time>2026-04-04T08:31:09Z</time></trkpt><trkpt lat="44.948956554971176" lon="9.490420603861688"><ele>311.0</ele><time>2026-04-04T08:31:10Z</time></trkpt><trkpt lat="44.94887780155845" lon="9.490396476505511"><ele>313.3333333333333</ele><time>2026-04-04T08:31:11Z</time></trkpt><trkpt lat="44.94879275398997" lon="9.490373992982882"><ele>315.6666666666667</ele><time>2026-04-04T08:31:12Z</time></trkpt><trkpt lat="44.94870349926434" lon="9.490356890393505"><ele>318.0</ele><time>2026-04-04T08:31:13Z</time></trkpt><trkpt lat="44.94862151133322" lon="9.490326583139153"><ele>318.0</ele><time>2026-04-04T08:31:14Z</time></trkpt><trkpt lat="44.948544536997034" lon="9.490305656120977"><ele>318.0</ele><time>2026-04-04T08:31:15Z</time></trkpt><trkpt lat="44.94845184182325" lon="9.490284161655673"><ele>318.0</ele><time>2026-04-04T08:31:16Z</time></trkpt><trkpt lat="44.94835531699964" lon="9.490232217282841"><ele>318.0</ele><time>2026-04-04T08:31:17Z</time></trkpt><trkpt lat="44.948251742574655" lon="9.490203514716228"><ele>318.0</ele><time>2026-04-04T08:31:18Z</time></trkpt><trkpt lat="44.948158940456075" lon="9.490182739522337"><ele>317.6</ele><time>2026-04-04T08:31:19Z</time></trkpt><trkpt lat="44.94805947854214" lon="9.490147686954147"><ele>317.20000000000005</ele><time>2026-04-04T08:31:20Z</time></trkpt><trkpt lat="44.94796452614608" lon="9.490108865063657"><ele>316.8</ele><time>2026-04-04T08:31:21Z</time></trkpt><trkpt lat="44.94787194526121" lon="9.490088332475233"><ele>316.40000000000003</ele><time>2026-04-04T08:31:22Z</time></trkpt><trkpt lat="44.947773764868096" lon="9.490068631086466"><ele>316.0</ele><time>2026-04-04T08:31:23Z</time></trkpt><trkpt lat="44.94766858550273" lon="9.49004937441971"><ele>316.0</ele><time>2026-04-04T08:31:24Z</time></trkpt><trkpt lat="44.94756097790619" lon="9.490029211832951"><ele>316.0</ele><time>2026-04-04T08:31:25Z</time></trkpt><trkpt lat="44.94747036648914" lon="9.490009731920523"><ele>316.0</ele><time>2026-04-04T08:31:26Z</time></trkpt><trkpt lat="44.94738855008177" lon="9.48999894929901"><ele>316.0</ele><time>2026-04-04T08:31:27Z</time></trkpt><trkpt lat="44.94729652823957" lon="9.489993129473248"><ele>316.0</ele><time>2026-04-04T08:31:28Z</time></trkpt><trkpt lat="44.94721011929362" lon="9.489987951781258"><ele>315.40000000000003</ele><time>2026-04-04T08:31:29Z</time></trkpt><trkpt lat="44.94712176996901" lon="9.489979094752112"><ele>314.8</ele><time>2026-04-04T08:31:30Z</time></trkpt><trkpt lat="44.947029798786765" lon="9.48996967039038"><ele>314.20000000000005</ele><time>2026-04-04T08:31:31Z</time></trkpt><trkpt lat="44.94692724567567" lon="9.489953738748955"><ele>313.6</ele><time>2026-04-04T08:31:32Z</time></trkpt><trkpt lat="44.94683249302505" lon="9.489942232917222"><ele>313.0</ele><time>2026-04-04T08:31:33Z</time></trkpt><trkpt lat="44.946749853036984" lon="9.489941267136384"><ele>312.2</ele><time>2026-04-04T08:31:34Z</time></trkpt><trkpt lat="44.94665253903603" lon="9.489916638796323"><ele>311.4</ele><time>2026-04-04T08:31:35Z</time></trkpt><trkpt lat="44.946553127391674" lon="9.489933573731406"><ele>310.59999999999997</ele><time>2026-04-04T08:31:36Z</time></trkpt><trkpt lat="44.946457364225466" lon="9.48998780702021"><ele>309.8</ele><time>2026-04-04T08:31:37Z</time></trkpt><trkpt lat="44.94635826728509" lon="9.490028396934383"><ele>309.0</ele><time>2026-04-04T08:31:38Z</time></trkpt><trkpt lat="44.94625818538348" lon="9.490079702235292"><ele>309.0</ele><time>2026-04-04T08:31:39Z</time></trkpt><trkpt lat="44.94616536662162" lon="9.49010444752323"><ele>309.0</ele><time>2026-04-04T08:31:40Z</time></trkpt><trkpt lat="44.946085003366186" lon="9.49014960544837"><ele>309.0</ele><time>2026-04-04T08:31:41Z</time></trkpt><trkpt lat="44.94601062209614" lon="9.490192406004418"><ele>309.0</ele><time>2026-04-04T08:31:42Z</time></trkpt><trkpt lat="44.94593675682219" lon="9.49023614203822"><ele>309.0</ele><time>2026-04-04T08:31:43Z</time></trkpt><trkpt lat="44.94586188855458" lon="9.490275431750206"><ele>309.0</ele><time>2026-04-04T08:31:44Z</time></trkpt><trkpt lat="44.945784301661405" lon="9.490326166900623"><ele>310.2</ele><time>2026-04-04T08:31:45Z</time></trkpt><trkpt lat="44.94569422825782" lon="9.490356671871357"><ele>311.4</ele><time>2026-04-04T08:31:45.999Z</time></trkpt><trkpt lat="44.945627113298904" lon="9.490382320693342"><ele>312.6</ele><time>2026-04-04T08:31:46.999Z</time></trkpt><trkpt lat="44.94552037412381" lon="9.49040430737769"><ele>313.8</ele><time>2026-04-04T08:31:48.999Z</time></trkpt><trkpt lat="44.94543564927411" lon="9.490368843094812"><ele>315.0</ele><time>2026-04-04T08:31:50.999Z</time></trkpt><trkpt lat="44.94539218367405" lon="9.490177063708918"><ele>315.0</ele><time>2026-04-04T08:31:54.999Z</time></trkpt><trkpt lat="44.94542986783908" lon="9.490058646665128"><ele>315.0</ele><time>2026-04-04T08:31:55.999Z</time></trkpt><trkpt lat="44.94546664540414" lon="9.489923966393743"><ele>315.0</ele><time>2026-04-04T08:31:56.999Z</time></trkpt><trkpt lat="44.94551388689176" lon="9.489748464826047"><ele>315.0</ele><time>2026-04-04T08:31:57.999Z</time></trkpt><trkpt lat="44.945577280799995" lon="9.489531749070537"><ele>317.25</ele><time>2026-04-04T08:31:58.999Z</time></trkpt><trkpt lat="44.94563185833877" lon="9.489346804987726"><ele>319.5</ele><time>2026-04-04T08:31:59.999Z</time></trkpt><trkpt lat="44.94566871027539" lon="9.489194184587062"><ele>321.75</ele><time>2026-04-04T08:32:00.999Z</time></trkpt><trkpt lat="44.94570880042563" lon="9.489071558480683"><ele>324.0</ele><time>2026-04-04T08:32:01.999Z</time></trkpt><trkpt lat="44.94574926876697" lon="9.48894459684309"><ele>324.0</ele><time>2026-04-04T08:32:02.999Z</time></trkpt><trkpt lat="44.94579329901935" lon="9.488817543251555"><ele>324.0</ele><time>2026-04-04T08:32:03.999Z</time></trkpt><trkpt lat="44.945846068814305" lon="9.488666972620532"><ele>324.0</ele><time>2026-04-04T08:32:04.999Z</time></trkpt><trkpt lat="44.94591367035389" lon="9.488483681951069"><ele>324.0</ele><time>2026-04-04T08:32:05.999Z</time></trkpt><trkpt lat="44.94597535282421" lon="9.488277774459812"><ele>327.5</ele><time>2026-04-04T08:32:06.999Z</time></trkpt><trkpt lat="44.94600754790916" lon="9.488101072356852"><ele>331.0</ele><time>2026-04-04T08:32:07.999Z</time></trkpt><trkpt lat="44.94602849872558" lon="9.487942574831076"><ele>334.5</ele><time>2026-04-04T08:32:08.999Z</time></trkpt><trkpt lat="44.946050786521354" lon="9.48778623093394"><ele>338.0</ele><time>2026-04-04T08:32:09.999Z</time></trkpt><trkpt lat="44.94605246230934" lon="9.487635467344878"><ele>338.33333333333337</ele><time>2026-04-04T08:32:10.999Z</time></trkpt><trkpt lat="44.94604820628675" lon="9.487498287300115"><ele>338.6666666666667</ele><time>2026-04-04T08:32:11.999Z</time></trkpt><trkpt lat="44.94603052184209" lon="9.487379462168452"><ele>339.0</ele><time>2026-04-04T08:32:12.999Z</time></trkpt><trkpt lat="44.94601478003573" lon="9.487259133072158"><ele>339.3333333333333</ele><time>2026-04-04T08:32:13.999Z</time></trkpt><trkpt lat="44.94599760104902" lon="9.487136776403478"><ele>339.66666666666663</ele><time>2026-04-04T08:32:14.999Z</time></trkpt><trkpt lat="44.945981191404954" lon="9.48702018342739"><ele>340.0</ele><time>2026-04-04T08:32:15.999Z</time></trkpt><trkpt lat="44.94596757551553" lon="9.486902214644388"><ele>341.0</ele><time>2026-04-04T08:32:16.999Z</time></trkpt><trkpt lat="44.945955466402005" lon="9.486792768086376"><ele>342.0</ele><time>2026-04-04T08:32:17.999Z</time></trkpt><trkpt lat="44.945952694851286" lon="9.486681175584238"><ele>343.0</ele><time>2026-04-04T08:32:18.999Z</time></trkpt><trkpt lat="44.94596566622431" lon="9.486571706401904"><ele>344.0</ele><time>2026-04-04T08:32:19.999Z</time></trkpt><trkpt lat="44.945982080784425" lon="9.486455305414157"><ele>345.0</ele><time>2026-04-04T08:32:20.999Z</time></trkpt><trkpt lat="44.94600458369474" lon="9.486326222230211"><ele>346.0</ele><time>2026-04-04T08:32:21.999Z</time></trkpt><trkpt lat="44.94602698318487" lon="9.48620463286344"><ele>347.20000000000005</ele><time>2026-04-04T08:32:22.999Z</time></trkpt><trkpt lat="44.94605271121265" lon="9.486082954931726"><ele>348.40000000000003</ele><time>2026-04-04T08:32:23.999Z</time></trkpt><trkpt lat="44.946078876333324" lon="9.485963236453756"><ele>349.6</ele><time>2026-04-04T08:32:24.999Z</time></trkpt><trkpt lat="44.94610121984479" lon="9.485836974859037"><ele>350.8</ele><time>2026-04-04T08:32:25.999Z</time></trkpt><trkpt lat="44.94612129361224" lon="9.485703354118781"><ele>352.0</ele><time>2026-04-04T08:32:26.999Z</time></trkpt><trkpt lat="44.94614646275549" lon="9.485560127879868"><ele>352.8</ele><time>2026-04-04T08:32:27.999Z</time></trkpt><trkpt lat="44.94616935035706" lon="9.4854133139152"><ele>353.6</ele><time>2026-04-04T08:32:28.999Z</time></trkpt><trkpt lat="44.94618797805084" lon="9.485275288133574"><ele>354.40000000000003</ele><time>2026-04-04T08:32:29.999Z</time></trkpt><trkpt lat="44.94619411929311" lon="9.485120268949027"><ele>355.20000000000005</ele><time>2026-04-04T08:32:30.999Z</time></trkpt><trkpt lat="44.94620814929673" lon="9.484945772952496"><ele>356.0</ele><time>2026-04-04T08:32:31.999Z</time></trkpt><trkpt lat="44.946219099267964" lon="9.484746480834021"><ele>357.0</ele><time>2026-04-04T08:32:32.999Z</time></trkpt><trkpt lat="44.94623891260571" lon="9.484551267628092"><ele>358.0</ele><time>2026-04-04T08:32:33.999Z</time></trkpt><trkpt lat="44.946256382620064" lon="9.484386672838598"><ele>359.0</ele><time>2026-04-04T08:32:34.999Z</time></trkpt><trkpt lat="44.94626453025897" lon="9.484242281948791"><ele>360.0</ele><time>2026-04-04T08:32:35.999Z</time></trkpt><trkpt lat="44.94627510048163" lon="9.48408672701562"><ele>360.0</ele><time>2026-04-04T08:32:36.999Z</time></trkpt><trkpt lat="44.94629065698817" lon="9.483926677640554"><ele>360.0</ele><time>2026-04-04T08:32:37.999Z</time></trkpt><trkpt lat="44.94629635210723" lon="9.483769859233872"><ele>360.0</ele><time>2026-04-04T08:32:38.999Z</time></trkpt><trkpt lat="44.94627899187629" lon="9.483606636617385"><ele>360.0</ele><time>2026-04-04T08:32:39.999Z</time></trkpt><trkpt lat="44.94623788793493" lon="9.483430543294732"><ele>360.75</ele><time>2026-04-04T08:32:40.999Z</time></trkpt><trkpt lat="44.94617598016015" lon="9.483233235597002"><ele>361.5</ele><time>2026-04-04T08:32:41.999Z</time></trkpt><trkpt lat="44.94611447382857" lon="9.483045871323894"><ele>362.25</ele><time>2026-04-04T08:32:42.999Z</time></trkpt><trkpt lat="44.946059856997366" lon="9.482908454901704"><ele>363.0</ele><time>2026-04-04T08:32:43.999Z</time></trkpt><trkpt lat="44.94601638796325" lon="9.482783272721552"><ele>363.79999999999995</ele><time>2026-04-04T08:32:44.999Z</time></trkpt><trkpt lat="44.94596553455584" lon="9.482641720124743"><ele>364.6</ele><time>2026-04-04T08:32:45.999Z</time></trkpt><trkpt lat="44.94591565108238" lon="9.482523180048913"><ele>365.4</ele><time>2026-04-04T08:32:46.999Z</time></trkpt><trkpt lat="44.94586849007463" lon="9.482398133972062"><ele>366.20000000000005</ele><time>2026-04-04T08:32:47.999Z</time></trkpt><trkpt lat="44.945822391096385" lon="9.482284161339681"><ele>367.0</ele><time>2026-04-04T08:32:48.999Z</time></trkpt><trkpt lat="44.94577765007478" lon="9.482162061846788"><ele>370.20000000000005</ele><time>2026-04-04T08:32:49.999Z</time></trkpt><trkpt lat="44.94572947664523" lon="9.482039697308279"><ele>373.4</ele><time>2026-04-04T08:32:50.999Z</time></trkpt><trkpt lat="44.945684437200065" lon="9.481912940224134"><ele>376.6</ele><time>2026-04-04T08:32:51.999Z</time></trkpt><trkpt lat="44.94564016273185" lon="9.48178854267171"><ele>379.79999999999995</ele><time>2026-04-04T08:32:52.999Z</time></trkpt><trkpt lat="44.94559595496982" lon="9.481667709885759"><ele>383.0</ele><time>2026-04-04T08:32:53.999Z</time></trkpt><trkpt lat="44.945552071996275" lon="9.481555836065132"><ele>383.0</ele><time>2026-04-04T08:32:54.998Z</time></trkpt><trkpt lat="44.945517305416416" lon="9.481450895759192"><ele>383.0</ele><time>2026-04-04T08:32:55.998Z</time></trkpt><trkpt lat="44.94548025564084" lon="9.481352348254266"><ele>383.0</ele><time>2026-04-04T08:32:56.998Z</time></trkpt><trkpt lat="44.9454338413596" lon="9.481248954675044"><ele>383.0</ele><time>2026-04-04T08:32:58.998Z</time></trkpt><trkpt lat="44.945400441411245" lon="9.48115893681639"><ele>383.0</ele><time>2026-04-04T08:33:00.998Z</time></trkpt><trkpt lat="44.945348494914974" lon="9.481011296054223"><ele>383.0</ele><time>2026-04-04T08:33:02.998Z</time></trkpt><trkpt lat="44.945321637144765" lon="9.480908812306073"><ele>383.0</ele><time>2026-04-04T08:33:04.998Z</time></trkpt><trkpt lat="44.945279019575736" lon="9.480788177791375"><ele>383.0</ele><time>2026-04-04T08:33:06.998Z</time></trkpt><trkpt lat="44.9452166577542" lon="9.480663781654947"><ele>383.0</ele><time>2026-04-04T08:33:08.998Z</time></trkpt><trkpt lat="44.94516762134019" lon="9.480564410251757"><ele>383.0</ele><time>2026-04-04T08:33:10.998Z</time></trkpt><trkpt lat="44.94526858236452" lon="9.480386252364898"><ele>381.2</ele><time>2026-04-04T08:33:11.998Z</time></trkpt><trkpt lat="44.94530249229494" lon="9.48023070074981"><ele>379.4</ele><time>2026-04-04T08:33:14Z</time></trkpt><trkpt lat="44.945320061818535" lon="9.480081857526725"><ele>377.59999999999997</ele><time>2026-04-04T08:33:16Z</time></trkpt><trkpt lat="44.9453396273262" lon="9.479920478161535"><ele>375.79999999999995</ele><time>2026-04-04T08:33:18Z</time></trkpt><trkpt lat="44.94534745186632" lon="9.479822848714551"><ele>374.0</ele><time>2026-04-04T08:33:19Z</time></trkpt><trkpt lat="44.94535459687546" lon="9.47971596746719"><ele>374.0</ele><time>2026-04-04T08:33:20Z</time></trkpt><trkpt lat="44.945359944269235" lon="9.479610809650795"><ele>374.0</ele><time>2026-04-04T08:33:21Z</time></trkpt><trkpt lat="44.94536502828908" lon="9.479505236510624"><ele>374.0</ele><time>2026-04-04T08:33:22Z</time></trkpt><trkpt lat="44.94537386124117" lon="9.479393309587728"><ele>374.0</ele><time>2026-04-04T08:33:23Z</time></trkpt><trkpt lat="44.94537905107157" lon="9.47929073744862"><ele>374.0</ele><time>2026-04-04T08:33:24Z</time></trkpt><trkpt lat="44.94536771214971" lon="9.47919918167891"><ele>374.0</ele><time>2026-04-04T08:33:25Z</time></trkpt><trkpt lat="44.945332087421306" lon="9.479032597498104"><ele>372.6</ele><time>2026-04-04T08:33:27Z</time></trkpt><trkpt lat="44.945272341646394" lon="9.478905599356693"><ele>371.2</ele><time>2026-04-04T08:33:29Z</time></trkpt><trkpt lat="44.94519816715995" lon="9.478766964267285"><ele>369.8</ele><time>2026-04-04T08:33:31Z</time></trkpt><trkpt lat="44.94515354306908" lon="9.478688666290557"><ele>368.40000000000003</ele><time>2026-04-04T08:33:32Z</time></trkpt><trkpt lat="44.9451049882079" lon="9.478601269558936"><ele>367.0</ele><time>2026-04-04T08:33:33Z</time></trkpt><trkpt lat="44.9450629791416" lon="9.478511445086758"><ele>366.0</ele><time>2026-04-04T08:33:34Z</time></trkpt><trkpt lat="44.94502200015732" lon="9.478423648578424"><ele>365.0</ele><time>2026-04-04T08:33:35Z</time></trkpt><trkpt lat="44.94497119846901" lon="9.478264284353214"><ele>364.0</ele><time>2026-04-04T08:33:37Z</time></trkpt><trkpt lat="44.9449636707456" lon="9.478167980494131"><ele>363.0</ele><time>2026-04-04T08:33:38Z</time></trkpt><trkpt lat="44.944974573154006" lon="9.478060661636407"><ele>362.0</ele><time>2026-04-04T08:33:39Z</time></trkpt><trkpt lat="44.945005849574144" lon="9.477953150019738"><ele>361.0</ele><time>2026-04-04T08:33:40Z</time></trkpt><trkpt lat="44.945047337359405" lon="9.477839914084663"><ele>361.0</ele><time>2026-04-04T08:33:41Z</time></trkpt><trkpt lat="44.9450927211323" lon="9.477704303650299"><ele>361.0</ele><time>2026-04-04T08:33:42Z</time></trkpt><trkpt lat="44.94513566777226" lon="9.477568032750122"><ele>361.0</ele><time>2026-04-04T08:33:43Z</time></trkpt><trkpt lat="44.945173734739264" lon="9.47744052113326"><ele>361.0</ele><time>2026-04-04T08:33:44Z</time></trkpt><trkpt lat="44.94520691040994" lon="9.477316658601328"><ele>361.0</ele><time>2026-04-04T08:33:45Z</time></trkpt><trkpt lat="44.94524838366616" lon="9.477170346733361"><ele>361.4</ele><time>2026-04-04T08:33:46Z</time></trkpt><trkpt lat="44.94529577252088" lon="9.477026943931147"><ele>361.8</ele><time>2026-04-04T08:33:47Z</time></trkpt><trkpt lat="44.94534288547098" lon="9.476891906847081"><ele>362.2</ele><time>2026-04-04T08:33:48Z</time></trkpt><trkpt lat="44.945392609363466" lon="9.476757733485785"><ele>362.59999999999997</ele><time>2026-04-04T08:33:49Z</time></trkpt><trkpt lat="44.94544954536875" lon="9.476610895234325"><ele>363.0</ele><time>2026-04-04T08:33:50Z</time></trkpt><trkpt lat="44.94550399256162" lon="9.476463799884508"><ele>363.0</ele><time>2026-04-04T08:33:51Z</time></trkpt><trkpt lat="44.94555893051264" lon="9.476327807089891"><ele>363.0</ele><time>2026-04-04T08:33:52Z</time></trkpt><trkpt lat="44.94561145544636" lon="9.476190987610533"><ele>363.0</ele><time>2026-04-04T08:33:53Z</time></trkpt><trkpt lat="44.94566859466162" lon="9.476048042004683"><ele>363.0</ele><time>2026-04-04T08:33:54Z</time></trkpt><trkpt lat="44.945722157510055" lon="9.475905913361862"><ele>363.4</ele><time>2026-04-04T08:33:55Z</time></trkpt><trkpt lat="44.94577761532707" lon="9.475757911076329"><ele>363.79999999999995</ele><time>2026-04-04T08:33:56Z</time></trkpt><trkpt lat="44.94582588390375" lon="9.475606927777866"><ele>364.2</ele><time>2026-04-04T08:33:57Z</time></trkpt><trkpt lat="44.94585744941384" lon="9.475461186256044"><ele>364.6</ele><time>2026-04-04T08:33:58Z</time></trkpt><trkpt lat="44.945876493362114" lon="9.475328650835447"><ele>365.0</ele><time>2026-04-04T08:33:59Z</time></trkpt><trkpt lat="44.945894583763035" lon="9.475183717759666"><ele>363.8</ele><time>2026-04-04T08:34:00Z</time></trkpt><trkpt lat="44.94590642864842" lon="9.475033618619335"><ele>362.6</ele><time>2026-04-04T08:34:00.999Z</time></trkpt><trkpt lat="44.94593600795053" lon="9.474881097545317"><ele>361.4</ele><time>2026-04-04T08:34:01.999Z</time></trkpt><trkpt lat="44.94594956406807" lon="9.47472196758029"><ele>360.2</ele><time>2026-04-04T08:34:02.999Z</time></trkpt><trkpt lat="44.94596156015425" lon="9.474581150125791"><ele>359.0</ele><time>2026-04-04T08:34:03.999Z</time></trkpt><trkpt lat="44.94597368278228" lon="9.47443884741218"><ele>359.0</ele><time>2026-04-04T08:34:04.999Z</time></trkpt><trkpt lat="44.94598386271197" lon="9.47430588151338"><ele>359.0</ele><time>2026-04-04T08:34:05.999Z</time></trkpt><trkpt lat="44.94599377306386" lon="9.474173507522869"><ele>359.0</ele><time>2026-04-04T08:34:06.999Z</time></trkpt><trkpt lat="44.94600368663694" lon="9.474032310316508"><ele>359.0</ele><time>2026-04-04T08:34:07.999Z</time></trkpt><trkpt lat="44.946010381212034" lon="9.473881860685996"><ele>359.0</ele><time>2026-04-04T08:34:08.999Z</time></trkpt><trkpt lat="44.94601174608791" lon="9.473722379668036"><ele>358.75</ele><time>2026-04-04T08:34:09.999Z</time></trkpt><trkpt lat="44.94600320886871" lon="9.473547014047515"><ele>358.5</ele><time>2026-04-04T08:34:10.999Z</time></trkpt><trkpt lat="44.94598157464289" lon="9.473390339708818"><ele>358.25</ele><time>2026-04-04T08:34:11.999Z</time></trkpt><trkpt lat="44.945952001811996" lon="9.473243977123872"><ele>358.0</ele><time>2026-04-04T08:34:12.999Z</time></trkpt><trkpt lat="44.94590616837517" lon="9.473109804356826"><ele>359.4</ele><time>2026-04-04T08:34:13.999Z</time></trkpt><trkpt lat="44.94587666168912" lon="9.472969276693163"><ele>360.79999999999995</ele><time>2026-04-04T08:34:14.999Z</time></trkpt><trkpt lat="44.945854642148376" lon="9.472818856923563"><ele>362.2</ele><time>2026-04-04T08:34:15.999Z</time></trkpt><trkpt lat="44.94582413498073" lon="9.47266665962359"><ele>363.6</ele><time>2026-04-04T08:34:16.999Z</time></trkpt><trkpt lat="44.9457974901289" lon="9.472507716326398"><ele>365.0</ele><time>2026-04-04T08:34:17.999Z</time></trkpt><trkpt lat="44.94577373813044" lon="9.472344206104738"><ele>365.0</ele><time>2026-04-04T08:34:18.999Z</time></trkpt><trkpt lat="44.945755827199136" lon="9.47219649711895"><ele>365.0</ele><time>2026-04-04T08:34:19.999Z</time></trkpt><trkpt lat="44.94573915492052" lon="9.472052670241572"><ele>365.0</ele><time>2026-04-04T08:34:20.999Z</time></trkpt><trkpt lat="44.94572206904253" lon="9.471901749143383"><ele>365.0</ele><time>2026-04-04T08:34:21.999Z</time></trkpt><trkpt lat="44.94570682430337" lon="9.471748227747895"><ele>365.0</ele><time>2026-04-04T08:34:22.999Z</time></trkpt><trkpt lat="44.94569573751007" lon="9.471599742393394"><ele>365.2</ele><time>2026-04-04T08:34:23.999Z</time></trkpt><trkpt lat="44.94569362009637" lon="9.471460412359603"><ele>365.4</ele><time>2026-04-04T08:34:24.999Z</time></trkpt><trkpt lat="44.94569774301184" lon="9.471328996597373"><ele>365.6</ele><time>2026-04-04T08:34:25.999Z</time></trkpt><trkpt lat="44.94570901129839" lon="9.47119914068129"><ele>365.8</ele><time>2026-04-04T08:34:26.999Z</time></trkpt><trkpt lat="44.945730607522925" lon="9.471065727341701"><ele>366.0</ele><time>2026-04-04T08:34:27.999Z</time></trkpt><trkpt lat="44.94577379414034" lon="9.470923852099162"><ele>367.25</ele><time>2026-04-04T08:34:28.999Z</time></trkpt><trkpt lat="44.945816357479714" lon="9.470783509906349"><ele>368.5</ele><time>2026-04-04T08:34:29.999Z</time></trkpt><trkpt lat="44.945868425226145" lon="9.470644811250393"><ele>369.75</ele><time>2026-04-04T08:34:30.999Z</time></trkpt><trkpt lat="44.94593157507903" lon="9.470516006266939"><ele>371.0</ele><time>2026-04-04T08:34:31.999Z</time></trkpt><trkpt lat="44.94601357191901" lon="9.47038547713926"><ele>373.20000000000005</ele><time>2026-04-04T08:34:32.999Z</time></trkpt><trkpt lat="44.94610154928573" lon="9.470267550204433"><ele>375.40000000000003</ele><time>2026-04-04T08:34:33.999Z</time></trkpt><trkpt lat="44.9461825323455" lon="9.470162534236394"><ele>377.6</ele><time>2026-04-04T08:34:34.999Z</time></trkpt><trkpt lat="44.94625334658371" lon="9.470070644815214"><ele>379.8</ele><time>2026-04-04T08:34:35.999Z</time></trkpt><trkpt lat="44.946325829688796" lon="9.469983976891292"><ele>382.0</ele><time>2026-04-04T08:34:36.999Z</time></trkpt><trkpt lat="44.9463855778216" lon="9.46991383129746"><ele>382.0</ele><time>2026-04-04T08:34:37.999Z</time></trkpt><trkpt lat="44.94644167321155" lon="9.469848066634384"><ele>382.0</ele><time>2026-04-04T08:34:38.999Z</time></trkpt><trkpt lat="44.94649832898524" lon="9.469779340837801"><ele>382.0</ele><time>2026-04-04T08:34:39.999Z</time></trkpt><trkpt lat="44.946548478356256" lon="9.469711683001595"><ele>382.0</ele><time>2026-04-04T08:34:40.999Z</time></trkpt><trkpt lat="44.946600588238844" lon="9.469649247347258"><ele>382.0</ele><time>2026-04-04T08:34:41.999Z</time></trkpt><trkpt lat="44.94664807916296" lon="9.469586389513259"><ele>382.0</ele><time>2026-04-04T08:34:42.999Z</time></trkpt><trkpt lat="44.94671906641469" lon="9.469489298804497"><ele>382.0</ele><time>2026-04-04T08:34:44.999Z</time></trkpt><trkpt lat="44.94676041044261" lon="9.469419548626218"><ele>382.5</ele><time>2026-04-04T08:34:46.999Z</time></trkpt><trkpt lat="44.94680492353781" lon="9.469355292256878"><ele>383.0</ele><time>2026-04-04T08:34:59.999Z</time></trkpt><trkpt lat="44.94685833301759" lon="9.469303106056378"><ele>383.5</ele><time>2026-04-04T08:35:01.999Z</time></trkpt><trkpt lat="44.946946273733666" lon="9.469247638289618"><ele>384.0</ele><time>2026-04-04T08:35:11.998Z</time></trkpt><trkpt lat="44.94701447957085" lon="9.469208961788672"><ele>384.50000000000006</ele><time>2026-04-04T08:35:18.998Z</time></trkpt><trkpt lat="44.94688746262018" lon="9.469156417776372"><ele>385.0</ele><time>2026-04-04T08:35:28Z</time></trkpt><trkpt lat="44.94677209792612" lon="9.469139869157257"><ele>386.00000000000006</ele><time>2026-04-04T08:35:30Z</time></trkpt><trkpt lat="44.94670121535907" lon="9.469140505193568"><ele>387.0</ele><time>2026-04-04T08:35:31Z</time></trkpt><trkpt lat="44.94660690725438" lon="9.4691392648096"><ele>388.0</ele><time>2026-04-04T08:35:32Z</time></trkpt><trkpt lat="44.94651957046558" lon="9.469131708304387"><ele>389.0</ele><time>2026-04-04T08:35:33Z</time></trkpt><trkpt lat="44.94642619019795" lon="9.469124407297098"><ele>390.00000000000006</ele><time>2026-04-04T08:35:34Z</time></trkpt><trkpt lat="44.94633039945377" lon="9.469118372529108"><ele>391.0</ele><time>2026-04-04T08:35:35Z</time></trkpt><trkpt lat="44.94623736800853" lon="9.469112511583836"><ele>391.0</ele><time>2026-04-04T08:35:36Z</time></trkpt><trkpt lat="44.94613896269172" lon="9.46910047387775"><ele>391.0</ele><time>2026-04-04T08:35:37Z</time></trkpt><trkpt lat="44.94603743237942" lon="9.46908808146367"><ele>391.0</ele><time>2026-04-04T08:35:38Z</time></trkpt><trkpt lat="44.94594491064689" lon="9.469084466316026"><ele>391.0</ele><time>2026-04-04T08:35:39Z</time></trkpt><trkpt lat="44.94584571602403" lon="9.469082674845037"><ele>391.0</ele><time>2026-04-04T08:35:40Z</time></trkpt><trkpt lat="44.94575132923018" lon="9.469080970200908"><ele>391.33333333333337</ele><time>2026-04-04T08:35:41Z</time></trkpt><trkpt lat="44.94567297703169" lon="9.469079555144964"><ele>391.6666666666667</ele><time>2026-04-04T08:35:42Z</time></trkpt><trkpt lat="44.94559095016053" lon="9.46907514749585"><ele>392.0</ele><time>2026-04-04T08:35:43Z</time></trkpt><trkpt lat="44.94550541050085" lon="9.469068409075232"><ele>392.33333333333337</ele><time>2026-04-04T08:35:44Z</time></trkpt><trkpt lat="44.945417365085454" lon="9.46905478144733"><ele>392.6666666666667</ele><time>2026-04-04T08:35:45Z</time></trkpt><trkpt lat="44.945341646042245" lon="9.4690369241731"><ele>393.0</ele><time>2026-04-04T08:35:46Z</time></trkpt><trkpt lat="44.945267943562314" lon="9.469013078095879"><ele>393.0</ele><time>2026-04-04T08:35:47Z</time></trkpt><trkpt lat="44.94520085538703" lon="9.46898756310142"><ele>393.0</ele><time>2026-04-04T08:35:48Z</time></trkpt><trkpt lat="44.945126150205766" lon="9.468957506877356"><ele>393.0</ele><time>2026-04-04T08:35:49Z</time></trkpt><trkpt lat="44.945056901226614" lon="9.468929731943893"><ele>393.0</ele><time>2026-04-04T08:35:50Z</time></trkpt><trkpt lat="44.94493794013206" lon="9.468877812872888"><ele>393.0</ele><time>2026-04-04T08:35:52Z</time></trkpt><trkpt lat="44.944803745159646" lon="9.468830987771645"><ele>394.1666666666667</ele><time>2026-04-04T08:35:54Z</time></trkpt><trkpt lat="44.944722805395116" lon="9.46881590301941"><ele>395.33333333333337</ele><time>2026-04-04T08:35:55Z</time></trkpt><trkpt lat="44.94465612289408" lon="9.46880949334857"><ele>396.5</ele><time>2026-04-04T08:35:56Z</time></trkpt><trkpt lat="44.94457368594613" lon="9.468810045629379"><ele>397.6666666666667</ele><time>2026-04-04T08:35:57Z</time></trkpt><trkpt lat="44.94448019478928" lon="9.468833088487102"><ele>398.83333333333337</ele><time>2026-04-04T08:35:58Z</time></trkpt><trkpt lat="44.94440160913507" lon="9.468864487441286"><ele>400.0</ele><time>2026-04-04T08:35:59Z</time></trkpt><trkpt lat="44.94432235741406" lon="9.46889724139696"><ele>400.00000000000006</ele><time>2026-04-04T08:36:00Z</time></trkpt><trkpt lat="44.94424891834505" lon="9.468926987723718"><ele>400.0</ele><time>2026-04-04T08:36:01Z</time></trkpt><trkpt lat="44.94417183055151" lon="9.46895060166246"><ele>400.0</ele><time>2026-04-04T08:36:02Z</time></trkpt><trkpt lat="44.94409956927677" lon="9.46896546073653"><ele>400.0</ele><time>2026-04-04T08:36:03Z</time></trkpt><trkpt lat="44.94402446367696" lon="9.468980772114024"><ele>400.00000000000006</ele><time>2026-04-04T08:36:04Z</time></trkpt><trkpt lat="44.94393801371223" lon="9.46900164446854"><ele>400.0</ele><time>2026-04-04T08:36:05Z</time></trkpt><trkpt lat="44.94386034627716" lon="9.469025217881978"><ele>401.42857142857144</ele><time>2026-04-04T08:36:06Z</time></trkpt><trkpt lat="44.94378356089292" lon="9.469064110310727"><ele>402.8571428571429</ele><time>2026-04-04T08:36:07Z</time></trkpt><trkpt lat="44.94370877115186" lon="9.469094462277528"><ele>404.28571428571433</ele><time>2026-04-04T08:36:08Z</time></trkpt><trkpt lat="44.94364443045148" lon="9.469084501416091"><ele>405.7142857142857</ele><time>2026-04-04T08:36:09Z</time></trkpt><trkpt lat="44.943574613532824" lon="9.469072583673318"><ele>407.1428571428571</ele><time>2026-04-04T08:36:10Z</time></trkpt><trkpt lat="44.94350316841061" lon="9.46906230627609"><ele>408.5714285714286</ele><time>2026-04-04T08:36:11Z</time></trkpt><trkpt lat="44.94342286013293" lon="9.469049704132752"><ele>410.0</ele><time>2026-04-04T08:36:12Z</time></trkpt><trkpt lat="44.943333046089386" lon="9.469036816293668"><ele>410.66666666666663</ele><time>2026-04-04T08:36:12.999Z</time></trkpt><trkpt lat="44.94324749452911" lon="9.469014358707522"><ele>411.3333333333333</ele><time>2026-04-04T08:36:13.999Z</time></trkpt><trkpt lat="44.94316918552729" lon="9.46900182857359"><ele>412.0</ele><time>2026-04-04T08:36:14.999Z</time></trkpt><trkpt lat="44.94308071558623" lon="9.468980458110622"><ele>412.66666666666663</ele><time>2026-04-04T08:36:15.999Z</time></trkpt><trkpt lat="44.942984981529975" lon="9.468960343697354"><ele>413.3333333333333</ele><time>2026-04-04T08:36:16.999Z</time></trkpt><trkpt lat="44.94288909614745" lon="9.468968877511745"><ele>414.0</ele><time>2026-04-04T08:36:17.999Z</time></trkpt><trkpt lat="44.94279367259874" lon="9.468942945099835"><ele>414.0</ele><time>2026-04-04T08:36:18.999Z</time></trkpt><trkpt lat="44.942689685658806" lon="9.468944970697995"><ele>414.0</ele><time>2026-04-04T08:36:19.999Z</time></trkpt><trkpt lat="44.94259802030627" lon="9.468951461947636"><ele>414.0</ele><time>2026-04-04T08:36:20.999Z</time></trkpt><trkpt lat="44.94252207121132" lon="9.46897869555375"><ele>414.0</ele><time>2026-04-04T08:36:21.999Z</time></trkpt><trkpt lat="44.94243231238909" lon="9.468977463033013"><ele>414.0</ele><time>2026-04-04T08:36:22.999Z</time></trkpt><trkpt lat="44.94234280570029" lon="9.46898618585309"><ele>415.0</ele><time>2026-04-04T08:36:23.999Z</time></trkpt><trkpt lat="44.94225419008248" lon="9.468985837058629"><ele>416.0</ele><time>2026-04-04T08:36:24.999Z</time></trkpt><trkpt lat="44.94216134347808" lon="9.468966842845763"><ele>417.0</ele><time>2026-04-04T08:36:25.999Z</time></trkpt><trkpt lat="44.9420708370153" lon="9.468973387913643"><ele>418.0</ele><time>2026-04-04T08:36:26.999Z</time></trkpt><trkpt lat="44.94198048957996" lon="9.469013026594988"><ele>419.0</ele><time>2026-04-04T08:36:27.999Z</time></trkpt><trkpt lat="44.94188355904261" lon="9.469020191921969"><ele>418.99999999999994</ele><time>2026-04-04T08:36:28.999Z</time></trkpt><trkpt lat="44.94179029817529" lon="9.469042181242587"><ele>419.0</ele><time>2026-04-04T08:36:29.999Z</time></trkpt><trkpt lat="44.94170540110495" lon="9.469063322914888"><ele>419.0</ele><time>2026-04-04T08:36:30.999Z</time></trkpt><trkpt lat="44.941622046867636" lon="9.46908009375947"><ele>419.0</ele><time>2026-04-04T08:36:31.999Z</time></trkpt><trkpt lat="44.94154498014804" lon="9.469102460547717"><ele>418.99999999999994</ele><time>2026-04-04T08:36:32.999Z</time></trkpt><trkpt lat="44.941461233835504" lon="9.469125286782248"><ele>419.0</ele><time>2026-04-04T08:36:33.999Z</time></trkpt><trkpt lat="44.94137795011077" lon="9.469144519600048"><ele>420.3333333333333</ele><time>2026-04-04T08:36:34.999Z</time></trkpt><trkpt lat="44.94130478547887" lon="9.469137100465387"><ele>421.66666666666663</ele><time>2026-04-04T08:36:35.999Z</time></trkpt><trkpt lat="44.9412216705376" lon="9.469146823785733"><ele>423.0</ele><time>2026-04-04T08:36:36.999Z</time></trkpt><trkpt lat="44.94113707227832" lon="9.469147353879931"><ele>424.33333333333337</ele><time>2026-04-04T08:36:37.999Z</time></trkpt><trkpt lat="44.94105282623903" lon="9.469146002228454"><ele>425.6666666666667</ele><time>2026-04-04T08:36:38.999Z</time></trkpt><trkpt lat="44.940982805985655" lon="9.469149338061394"><ele>427.0</ele><time>2026-04-04T08:36:39.999Z</time></trkpt><trkpt lat="44.940917542199244" lon="9.469144579018439"><ele>428.83333333333337</ele><time>2026-04-04T08:36:40.999Z</time></trkpt><trkpt lat="44.940818366416245" lon="9.46912947791719"><ele>430.6666666666667</ele><time>2026-04-04T08:36:42.999Z</time></trkpt><trkpt lat="44.94078307310091" lon="9.46920841519819"><ele>432.5</ele><time>2026-04-04T08:36:49.999Z</time></trkpt><trkpt lat="44.94078804892701" lon="9.469329220237633"><ele>434.33333333333337</ele><time>2026-04-04T08:38:13Z</time></trkpt><trkpt lat="44.94078057334884" lon="9.469424973096814"><ele>436.1666666666667</ele><time>2026-04-04T08:38:14.999Z</time></trkpt><trkpt lat="44.940733557549684" lon="9.469537559619486"><ele>438.0</ele><time>2026-04-04T08:38:16.999Z</time></trkpt><trkpt lat="44.940681437843736" lon="9.469673556145844"><ele>438.2</ele><time>2026-04-04T08:38:19.999Z</time></trkpt><trkpt lat="44.940654008646305" lon="9.469788197953244"><ele>438.4</ele><time>2026-04-04T08:38:21.999Z</time></trkpt><trkpt lat="44.94060435500235" lon="9.46989444646936"><ele>438.59999999999997</ele><time>2026-04-04T08:38:23.999Z</time></trkpt><trkpt lat="44.94054715352625" lon="9.469991805779786"><ele>438.79999999999995</ele><time>2026-04-04T08:38:25.999Z</time></trkpt><trkpt lat="44.94045889838005" lon="9.470047293090042"><ele>439.0</ele><time>2026-04-04T08:38:27.999Z</time></trkpt><trkpt lat="44.94033988037955" lon="9.47005362179624"><ele>439.0</ele><time>2026-04-04T08:38:29.999Z</time></trkpt><trkpt lat="44.940270102888896" lon="9.46999229299778"><ele>439.0</ele><time>2026-04-04T08:38:30.999Z</time></trkpt><trkpt lat="44.94016002355716" lon="9.470034913007497"><ele>439.0</ele><time>2026-04-04T08:38:32.999Z</time></trkpt><trkpt lat="44.940109246468204" lon="9.470102070014867"><ele>439.0</ele><time>2026-04-04T08:38:33.999Z</time></trkpt><trkpt lat="44.94003468745872" lon="9.470230544612404"><ele>439.0</ele><time>2026-04-04T08:38:35.999Z</time></trkpt><trkpt lat="44.939969213333896" lon="9.470323587949691"><ele>440.4</ele><time>2026-04-04T08:38:37.999Z</time></trkpt><trkpt lat="44.93987254634545" lon="9.47042061501002"><ele>441.79999999999995</ele><time>2026-04-04T08:38:39.999Z</time></trkpt><trkpt lat="44.939807195873165" lon="9.470524373359785"><ele>443.20000000000005</ele><time>2026-04-04T08:38:41.999Z</time></trkpt><trkpt lat="44.93976546714457" lon="9.470594269845115"><ele>444.6</ele><time>2026-04-04T08:38:43.999Z</time></trkpt><trkpt lat="44.93971747613179" lon="9.470681686269163"><ele>446.0</ele><time>2026-04-04T08:38:46.999Z</time></trkpt><trkpt lat="44.93966592786844" lon="9.470788682442048"><ele>447.3333333333333</ele><time>2026-04-04T08:38:49.999Z</time></trkpt><trkpt lat="44.93963205021193" lon="9.470873055234502"><ele>448.66666666666663</ele><time>2026-04-04T08:38:52.999Z</time></trkpt><trkpt lat="44.939586214325594" lon="9.470934287751115"><ele>450.0</ele><time>2026-04-04T08:38:55.999Z</time></trkpt><trkpt lat="44.93949859809064" lon="9.470871147975469"><ele>451.33333333333337</ele><time>2026-04-04T08:38:57.999Z</time></trkpt><trkpt lat="44.939414207032286" lon="9.470805112095858"><ele>452.6666666666667</ele><time>2026-04-04T08:38:59.999Z</time></trkpt><trkpt lat="44.93933149175696" lon="9.470736009053294"><ele>454.0</ele><time>2026-04-04T08:39:01.999Z</time></trkpt><trkpt lat="44.93923562123042" lon="9.470658525158848"><ele>451.1666666666667</ele><time>2026-04-04T08:39:03.999Z</time></trkpt><trkpt lat="44.939154872299746" lon="9.470583653619915"><ele>448.33333333333337</ele><time>2026-04-04T08:39:05.999Z</time></trkpt><trkpt lat="44.93907574882935" lon="9.4705363708875"><ele>445.5</ele><time>2026-04-04T08:39:07.999Z</time></trkpt><trkpt lat="44.93900368684287" lon="9.470503614332713"><ele>442.66666666666663</ele><time>2026-04-04T08:39:09.999Z</time></trkpt><trkpt lat="44.93891685310088" lon="9.470466975500857"><ele>439.8333333333333</ele><time>2026-04-04T08:39:11.999Z</time></trkpt><trkpt lat="44.93882287892063" lon="9.470445653428914"><ele>437.0</ele><time>2026-04-04T08:39:13.999Z</time></trkpt><trkpt lat="44.938710697623414" lon="9.470450117403201"><ele>436.99999999999994</ele><time>2026-04-04T08:39:15.999Z</time></trkpt><trkpt lat="44.93861199997001" lon="9.470476890756846"><ele>437.0</ele><time>2026-04-04T08:39:17.999Z</time></trkpt><trkpt lat="44.938531172149794" lon="9.470482139683185"><ele>437.0</ele><time>2026-04-04T08:39:19.999Z</time></trkpt><trkpt lat="44.938442883897444" lon="9.470560692716393"><ele>437.0</ele><time>2026-04-04T08:39:21.999Z</time></trkpt><trkpt lat="44.93840173098624" lon="9.470636084693748"><ele>436.99999999999994</ele><time>2026-04-04T08:39:22.999Z</time></trkpt><trkpt lat="44.938363405595105" lon="9.470717945455592"><ele>437.0</ele><time>2026-04-04T08:39:23.998Z</time></trkpt><trkpt lat="44.93830113893397" lon="9.470848480403957"><ele>434.8</ele><time>2026-04-04T08:39:25.998Z</time></trkpt><trkpt lat="44.93823844960351" lon="9.470953477640764"><ele>432.6</ele><time>2026-04-04T08:39:27.998Z</time></trkpt><trkpt lat="44.938176638732564" lon="9.471077274100743"><ele>430.40000000000003</ele><time>2026-04-04T08:39:29.998Z</time></trkpt><trkpt lat="44.938143980801854" lon="9.471160824914843"><ele>428.20000000000005</ele><time>2026-04-04T08:39:30.998Z</time></trkpt><trkpt lat="44.93805459958496" lon="9.471258104312259"><ele>426.0</ele><time>2026-04-04T08:39:33Z</time></trkpt><trkpt lat="44.93800252738424" lon="9.471327370644666"><ele>426.0</ele><time>2026-04-04T08:39:35Z</time></trkpt><trkpt lat="44.93791003421559" lon="9.471197352845296"><ele>426.0</ele><time>2026-04-04T08:39:37Z</time></trkpt><trkpt lat="44.937841135431185" lon="9.471140022034925"><ele>426.0</ele><time>2026-04-04T08:39:38Z</time></trkpt><trkpt lat="44.93776038824863" lon="9.471072832496649"><ele>426.0</ele><time>2026-04-04T08:39:39Z</time></trkpt><trkpt lat="44.937670900111414" lon="9.470998421738805"><ele>426.0</ele><time>2026-04-04T08:39:40Z</time></trkpt><trkpt lat="44.93758167875254" lon="9.470913139958968"><ele>424.0</ele><time>2026-04-04T08:39:41Z</time></trkpt><trkpt lat="44.93749818781616" lon="9.470806425910649"><ele>422.0</ele><time>2026-04-04T08:39:42Z</time></trkpt><trkpt lat="44.93741082019368" lon="9.470691111506545"><ele>420.0</ele><time>2026-04-04T08:39:43Z</time></trkpt><trkpt lat="44.9373425038259" lon="9.470575750989106"><ele>418.0</ele><time>2026-04-04T08:39:44Z</time></trkpt><trkpt lat="44.93728766528221" lon="9.470440468107205"><ele>416.0</ele><time>2026-04-04T08:39:45Z</time></trkpt><trkpt lat="44.93721623892263" lon="9.470315160999741"><ele>414.8</ele><time>2026-04-04T08:39:46Z</time></trkpt><trkpt lat="44.937146997878635" lon="9.470196155593497"><ele>413.6</ele><time>2026-04-04T08:39:47Z</time></trkpt><trkpt lat="44.93706494907473" lon="9.470090717888056"><ele>412.4</ele><time>2026-04-04T08:39:48Z</time></trkpt><trkpt lat="44.936992943501814" lon="9.469957552363258"><ele>411.2</ele><time>2026-04-04T08:39:49Z</time></trkpt><trkpt lat="44.93692264882141" lon="9.469843056067699"><ele>410.0</ele><time>2026-04-04T08:39:50Z</time></trkpt><trkpt lat="44.93684754175319" lon="9.469747545544703"><ele>410.0</ele><time>2026-04-04T08:39:51Z</time></trkpt><trkpt lat="44.93676082961489" lon="9.469644925631304"><ele>410.0</ele><time>2026-04-04T08:39:52Z</time></trkpt><trkpt lat="44.9366382648025" lon="9.4695812037184"><ele>410.0</ele><time>2026-04-04T08:39:53Z</time></trkpt><trkpt lat="44.93650892614604" lon="9.469540558852174"><ele>410.0</ele><time>2026-04-04T08:39:54Z</time></trkpt><trkpt lat="44.936373198209" lon="9.469500127740012"><ele>408.0</ele><time>2026-04-04T08:39:55Z</time></trkpt><trkpt lat="44.93623715189486" lon="9.469458941833535"><ele>406.0</ele><time>2026-04-04T08:39:56Z</time></trkpt><trkpt lat="44.93610860266727" lon="9.4694146658922"><ele>404.0</ele><time>2026-04-04T08:39:57Z</time></trkpt><trkpt lat="44.93598507785159" lon="9.469371937767093"><ele>402.0</ele><time>2026-04-04T08:39:58Z</time></trkpt><trkpt lat="44.93587056148215" lon="9.469330226502946"><ele>401.5</ele><time>2026-04-04T08:39:59Z</time></trkpt><trkpt lat="44.935764932143854" lon="9.469296619874589"><ele>401.0</ele><time>2026-04-04T08:40:00Z</time></trkpt><trkpt lat="44.93565320086282" lon="9.46928857748796"><ele>400.5</ele><time>2026-04-04T08:40:01Z</time></trkpt><trkpt lat="44.935548936032184" lon="9.469244805047186"><ele>400.0</ele><time>2026-04-04T08:40:02Z</time></trkpt><trkpt lat="44.935401158603916" lon="9.469223142927754"><ele>400.0</ele><time>2026-04-04T08:40:03Z</time></trkpt><trkpt lat="44.935254289802806" lon="9.469221663760319"><ele>400.0</ele><time>2026-04-04T08:40:04Z</time></trkpt><trkpt lat="44.93512377298404" lon="9.46921732903745"><ele>400.0</ele><time>2026-04-04T08:40:05Z</time></trkpt><trkpt lat="44.9349838955234" lon="9.469227187861268"><ele>400.0</ele><time>2026-04-04T08:40:06Z</time></trkpt><trkpt lat="44.93484486090176" lon="9.46921172879779"><ele>399.0</ele><time>2026-04-04T08:40:07Z</time></trkpt><trkpt lat="44.9347048288121" lon="9.46917885499331"><ele>398.0</ele><time>2026-04-04T08:40:08Z</time></trkpt><trkpt lat="44.93457167495722" lon="9.469157669883513"><ele>397.0</ele><time>2026-04-04T08:40:09Z</time></trkpt><trkpt lat="44.93443481795601" lon="9.469147244517696"><ele>396.0</ele><time>2026-04-04T08:40:10Z</time></trkpt><trkpt lat="44.93430082836675" lon="9.469140211585426"><ele>398.0</ele><time>2026-04-04T08:40:11Z</time></trkpt><trkpt lat="44.93416971229416" lon="9.469124816800653"><ele>400.0</ele><time>2026-04-04T08:40:12Z</time></trkpt><trkpt lat="44.93406744631895" lon="9.469117628747368"><ele>402.0</ele><time>2026-04-04T08:40:13Z</time></trkpt><trkpt lat="44.93397942963972" lon="9.46908869825904"><ele>404.0</ele><time>2026-04-04T08:40:14Z</time></trkpt><trkpt lat="44.93390608277578" lon="9.469026759540375"><ele>406.0</ele><time>2026-04-04T08:40:15Z</time></trkpt><trkpt lat="44.933832690033746" lon="9.468925564594683"><ele>406.0</ele><time>2026-04-04T08:40:16Z</time></trkpt><trkpt lat="44.93377253627436" lon="9.468786596813192"><ele>406.0</ele><time>2026-04-04T08:40:17Z</time></trkpt><trkpt lat="44.9337213584422" lon="9.468666215884332"><ele>406.0</ele><time>2026-04-04T08:40:18Z</time></trkpt><trkpt lat="44.93363538778301" lon="9.468580023715775"><ele>406.0</ele><time>2026-04-04T08:40:19Z</time></trkpt><trkpt lat="44.9335251417457" lon="9.468509135010002"><ele>406.0</ele><time>2026-04-04T08:40:20Z</time></trkpt><trkpt lat="44.93341110153402" lon="9.468417417125343"><ele>408.33333333333337</ele><time>2026-04-04T08:40:21Z</time></trkpt><trkpt lat="44.933271489032464" lon="9.46832207837721"><ele>410.66666666666663</ele><time>2026-04-04T08:40:22Z</time></trkpt><trkpt lat="44.933110591427585" lon="9.468210714411724"><ele>413.0</ele><time>2026-04-04T08:40:23Z</time></trkpt><trkpt lat="44.9329454863263" lon="9.468106816728628"><ele>413.0</ele><time>2026-04-04T08:40:24Z</time></trkpt><trkpt lat="44.93279612605928" lon="9.46802834692821"><ele>413.0</ele><time>2026-04-04T08:40:24.999Z</time></trkpt><trkpt lat="44.932651775503885" lon="9.467983555595215"><ele>413.0</ele><time>2026-04-04T08:40:25.999Z</time></trkpt><trkpt lat="44.932497831087716" lon="9.467957091806513"><ele>412.3333333333333</ele><time>2026-04-04T08:40:26.999Z</time></trkpt><trkpt lat="44.93233000206657" lon="9.467973822848093"><ele>411.66666666666663</ele><time>2026-04-04T08:40:27.999Z</time></trkpt><trkpt lat="44.93216653255279" lon="9.46801058496993"><ele>411.0</ele><time>2026-04-04T08:40:28.999Z</time></trkpt><trkpt lat="44.93202424298031" lon="9.468024311819095"><ele>411.0</ele><time>2026-04-04T08:40:29.999Z</time></trkpt><trkpt lat="44.931892436042304" lon="9.467998004815962"><ele>411.0</ele><time>2026-04-04T08:40:30.999Z</time></trkpt><trkpt lat="44.93175876834217" lon="9.467946397929913"><ele>411.0</ele><time>2026-04-04T08:40:31.999Z</time></trkpt><trkpt lat="44.931633015369606" lon="9.467867749587603"><ele>411.0</ele><time>2026-04-04T08:40:32.999Z</time></trkpt><trkpt lat="44.93151468553322" lon="9.467766714901849"><ele>413.5</ele><time>2026-04-04T08:40:33.999Z</time></trkpt><trkpt lat="44.9314128262514" lon="9.467654556218895"><ele>416.0</ele><time>2026-04-04T08:40:34.999Z</time></trkpt><trkpt lat="44.93131545526465" lon="9.467523970347013"><ele>418.5</ele><time>2026-04-04T08:40:35.999Z</time></trkpt><trkpt lat="44.931209741392976" lon="9.467330237718482"><ele>421.0</ele><time>2026-04-04T08:40:36.999Z</time></trkpt><trkpt lat="44.93111287246637" lon="9.467104119887571"><ele>421.0</ele><time>2026-04-04T08:40:37.999Z</time></trkpt><trkpt lat="44.931011976526285" lon="9.466898890626648"><ele>421.0</ele><time>2026-04-04T08:40:38.999Z</time></trkpt><trkpt lat="44.93088701083771" lon="9.466752625480238"><ele>421.0</ele><time>2026-04-04T08:40:39.999Z</time></trkpt><trkpt lat="44.93075776219721" lon="9.466652119309414"><ele>420.6666666666667</ele><time>2026-04-04T08:40:40.999Z</time></trkpt><trkpt lat="44.93061798628624" lon="9.466527930473353"><ele>420.33333333333337</ele><time>2026-04-04T08:40:41.999Z</time></trkpt><trkpt lat="44.93047070478669" lon="9.466444177937863"><ele>420.0</ele><time>2026-04-04T08:40:42.999Z</time></trkpt><trkpt lat="44.93033866839851" lon="9.466361296643532"><ele>418.0</ele><time>2026-04-04T08:40:43.999Z</time></trkpt><trkpt lat="44.930213922791616" lon="9.46627438435682"><ele>416.0</ele><time>2026-04-04T08:40:44.999Z</time></trkpt><trkpt lat="44.93009703671437" lon="9.46618694241431"><ele>414.0</ele><time>2026-04-04T08:40:45.999Z</time></trkpt><trkpt lat="44.929981952451826" lon="9.466083844174468"><ele>412.0</ele><time>2026-04-04T08:40:46.999Z</time></trkpt><trkpt lat="44.92988644066633" lon="9.465968045259476"><ele>411.33333333333337</ele><time>2026-04-04T08:40:47.999Z</time></trkpt><trkpt lat="44.92975605127714" lon="9.465890568089797"><ele>410.66666666666663</ele><time>2026-04-04T08:40:48.999Z</time></trkpt><trkpt lat="44.92959516914018" lon="9.46582401403126"><ele>410.0</ele><time>2026-04-04T08:40:49.999Z</time></trkpt><trkpt lat="44.92943912765027" lon="9.465770909739348"><ele>410.0</ele><time>2026-04-04T08:40:50.999Z</time></trkpt><trkpt lat="44.92929732734888" lon="9.465716745098177"><ele>410.0</ele><time>2026-04-04T08:40:51.999Z</time></trkpt><trkpt lat="44.92913667857838" lon="9.465637091228842"><ele>410.0</ele><time>2026-04-04T08:40:52.999Z</time></trkpt><trkpt lat="44.92899286065592" lon="9.465539696034268"><ele>409.66666666666663</ele><time>2026-04-04T08:40:53.999Z</time></trkpt><trkpt lat="44.928848640778334" lon="9.465426765093248"><ele>409.33333333333337</ele><time>2026-04-04T08:40:54.999Z</time></trkpt><trkpt lat="44.92869183803104" lon="9.465317772393217"><ele>409.0</ele><time>2026-04-04T08:40:55.999Z</time></trkpt><trkpt lat="44.92856640043939" lon="9.46522161950599"><ele>409.0</ele><time>2026-04-04T08:40:56.999Z</time></trkpt><trkpt lat="44.92844629413088" lon="9.46514249024882"><ele>409.0</ele><time>2026-04-04T08:40:57.999Z</time></trkpt><trkpt lat="44.92816321672235" lon="9.464978345822546"><ele>409.0</ele><time>2026-04-04T08:40:59.999Z</time></trkpt><trkpt lat="44.92802156664283" lon="9.464927331035023"><ele>411.5</ele><time>2026-04-04T08:41:00.999Z</time></trkpt><trkpt lat="44.92787900364633" lon="9.464882527804049"><ele>414.0</ele><time>2026-04-04T08:41:01.999Z</time></trkpt><trkpt lat="44.927753653783995" lon="9.46483043948301"><ele>416.5</ele><time>2026-04-04T08:41:02.999Z</time></trkpt><trkpt lat="44.92763612965276" lon="9.464793008370853"><ele>419.0</ele><time>2026-04-04T08:41:03.999Z</time></trkpt><trkpt lat="44.92751756343101" lon="9.464780548171467"><ele>420.25</ele><time>2026-04-04T08:41:04.999Z</time></trkpt><trkpt lat="44.92739439720352" lon="9.464780891417469"><ele>421.5</ele><time>2026-04-04T08:41:05.999Z</time></trkpt><trkpt lat="44.92728696072281" lon="9.464881746895259"><ele>422.75</ele><time>2026-04-04T08:41:06.999Z</time></trkpt><trkpt lat="44.92717042619359" lon="9.465016235274817"><ele>424.0</ele><time>2026-04-04T08:41:07.999Z</time></trkpt><trkpt lat="44.92704003946827" lon="9.46514567316258"><ele>424.0</ele><time>2026-04-04T08:41:08.999Z</time></trkpt><trkpt lat="44.92693301606035" lon="9.465262568646379"><ele>424.0</ele><time>2026-04-04T08:41:09.999Z</time></trkpt><trkpt lat="44.926843867209804" lon="9.46537788865975"><ele>424.0</ele><time>2026-04-04T08:41:10.999Z</time></trkpt><trkpt lat="44.92673048625082" lon="9.465466295512824"><ele>424.0</ele><time>2026-04-04T08:41:11.999Z</time></trkpt><trkpt lat="44.92663258855297" lon="9.465587887336639"><ele>427.0</ele><time>2026-04-04T08:41:12.999Z</time></trkpt><trkpt lat="44.926519837079006" lon="9.465709933269387"><ele>430.0</ele><time>2026-04-04T08:41:13.999Z</time></trkpt><trkpt lat="44.926460126527" lon="9.465854483215047"><ele>433.0</ele><time>2026-04-04T08:41:14.999Z</time></trkpt><trkpt lat="44.926399060952434" lon="9.466003000995347"><ele>436.0</ele><time>2026-04-04T08:41:15.999Z</time></trkpt><trkpt lat="44.92633532781931" lon="9.466154036521518"><ele>436.0</ele><time>2026-04-04T08:41:16.999Z</time></trkpt><trkpt lat="44.926293293779814" lon="9.466326486468862"><ele>436.0</ele><time>2026-04-04T08:41:17.999Z</time></trkpt><trkpt lat="44.92627227504998" lon="9.466518445001896"><ele>436.0</ele><time>2026-04-04T08:41:18.999Z</time></trkpt><trkpt lat="44.926239262807634" lon="9.46667698930585"><ele>436.0</ele><time>2026-04-04T08:41:19.999Z</time></trkpt><trkpt lat="44.92620859462397" lon="9.466854971831118"><ele>436.0</ele><time>2026-04-04T08:41:20.999Z</time></trkpt><trkpt lat="44.926172154953505" lon="9.467002304854583"><ele>436.0</ele><time>2026-04-04T08:41:21.999Z</time></trkpt><trkpt lat="44.92612134533322" lon="9.467135661477982"><ele>436.0</ele><time>2026-04-04T08:41:22.999Z</time></trkpt><trkpt lat="44.92605267545918" lon="9.467244698465167"><ele>436.0</ele><time>2026-04-04T08:41:23.999Z</time></trkpt><trkpt lat="44.92594138268547" lon="9.467311422131658"><ele>436.0</ele><time>2026-04-04T08:41:24.999Z</time></trkpt><trkpt lat="44.9258458113465" lon="9.46739946806114"><ele>440.4</ele><time>2026-04-04T08:41:25.999Z</time></trkpt><trkpt lat="44.92577825613402" lon="9.46746064284059"><ele>444.8</ele><time>2026-04-04T08:41:26.999Z</time></trkpt><trkpt lat="44.92571545513683" lon="9.467527270781853"><ele>449.19999999999993</ele><time>2026-04-04T08:41:27.999Z</time></trkpt><trkpt lat="44.92565372841986" lon="9.46756781839694"><ele>453.59999999999997</ele><time>2026-04-04T08:41:28.999Z</time></trkpt><trkpt lat="44.925546149294355" lon="9.467581101352948"><ele>458.0</ele><time>2026-04-04T08:41:29.999Z</time></trkpt><trkpt lat="44.92543130709471" lon="9.46758175165973"><ele>458.0</ele><time>2026-04-04T08:41:30.999Z</time></trkpt><trkpt lat="44.92530433557949" lon="9.467536727944326"><ele>458.0</ele><time>2026-04-04T08:41:31.999Z</time></trkpt><trkpt lat="44.92514674886864" lon="9.46748864139952"><ele>458.0</ele><time>2026-04-04T08:41:32.998Z</time></trkpt><trkpt lat="44.9250196912666" lon="9.467469010597904"><ele>458.0</ele><time>2026-04-04T08:41:33.998Z</time></trkpt><trkpt lat="44.92488548195435" lon="9.467472413913507"><ele>461.0</ele><time>2026-04-04T08:41:34.998Z</time></trkpt><trkpt lat="44.92474248343606" lon="9.467501060430457"><ele>464.0</ele><time>2026-04-04T08:41:35.998Z</time></trkpt><trkpt lat="44.92458717936743" lon="9.467533355326577"><ele>467.0</ele><time>2026-04-04T08:41:36.998Z</time></trkpt><trkpt lat="44.92445443325028" lon="9.467543819660996"><ele>470.0</ele><time>2026-04-04T08:41:38Z</time></trkpt><trkpt lat="44.924342451898134" lon="9.467562271287346"><ele>470.0</ele><time>2026-04-04T08:41:39Z</time></trkpt><trkpt lat="44.92423303226959" lon="9.46758856160569"><ele>470.0</ele><time>2026-04-04T08:41:40Z</time></trkpt><trkpt lat="44.924162089059244" lon="9.467570441945933"><ele>470.0</ele><time>2026-04-04T08:41:41Z</time></trkpt><trkpt lat="44.9240801111193" lon="9.467573559990768"><ele>470.0</ele><time>2026-04-04T08:41:42Z</time></trkpt><trkpt lat="44.92396573417521" lon="9.46748076336385"><ele>470.0</ele><time>2026-04-04T08:41:44Z</time></trkpt><trkpt lat="44.923966078597296" lon="9.467337899375941"><ele>472.25</ele><time>2026-04-04T08:41:45Z</time></trkpt><trkpt lat="44.92400310635311" lon="9.467198085173983"><ele>474.5</ele><time>2026-04-04T08:41:46Z</time></trkpt><trkpt lat="44.924082912294196" lon="9.467049622498225"><ele>476.75</ele><time>2026-04-04T08:41:47Z</time></trkpt><trkpt lat="44.92417987943827" lon="9.466875836611097"><ele>479.0</ele><time>2026-04-04T08:41:48Z</time></trkpt><trkpt lat="44.92426985990068" lon="9.466704104492074"><ele>480.3333333333333</ele><time>2026-04-04T08:41:49Z</time></trkpt><trkpt lat="44.924349729369716" lon="9.466518151316087"><ele>481.66666666666663</ele><time>2026-04-04T08:41:50Z</time></trkpt><trkpt lat="44.92441164141825" lon="9.466316554226195"><ele>483.0</ele><time>2026-04-04T08:41:51Z</time></trkpt><trkpt lat="44.92445803352741" lon="9.466109847669836"><ele>484.33333333333337</ele><time>2026-04-04T08:41:52Z</time></trkpt><trkpt lat="44.92448642379623" lon="9.465903053037893"><ele>485.6666666666667</ele><time>2026-04-04T08:41:53Z</time></trkpt><trkpt lat="44.9245057791351" lon="9.465694086870943"><ele>487.0</ele><time>2026-04-04T08:41:54Z</time></trkpt><trkpt lat="44.92452035129936" lon="9.46547805974787"><ele>482.6666666666667</ele><time>2026-04-04T08:41:55Z</time></trkpt><trkpt lat="44.924533119051766" lon="9.465261599066272"><ele>478.33333333333337</ele><time>2026-04-04T08:41:56Z</time></trkpt><trkpt lat="44.92453776081841" lon="9.465042289720623"><ele>474.0</ele><time>2026-04-04T08:41:57Z</time></trkpt><trkpt lat="44.924526102195145" lon="9.464813432370878"><ele>470.66666666666663</ele><time>2026-04-04T08:41:58Z</time></trkpt><trkpt lat="44.92450009413823" lon="9.464573121794627"><ele>467.3333333333333</ele><time>2026-04-04T08:41:59Z</time></trkpt><trkpt lat="44.92445528423307" lon="9.464291772086511"><ele>464.0</ele><time>2026-04-04T08:42:00Z</time></trkpt><trkpt lat="44.92441217125292" lon="9.464037855786088"><ele>464.0</ele><time>2026-04-04T08:42:01Z</time></trkpt><trkpt lat="44.924391416021436" lon="9.463811246383363"><ele>464.0</ele><time>2026-04-04T08:42:02Z</time></trkpt><trkpt lat="44.92436525468299" lon="9.46360149053738"><ele>464.0</ele><time>2026-04-04T08:42:03Z</time></trkpt><trkpt lat="44.92432592722054" lon="9.463413332712957"><ele>463.75</ele><time>2026-04-04T08:42:04Z</time></trkpt><trkpt lat="44.924296449175" lon="9.463211748050565"><ele>463.5</ele><time>2026-04-04T08:42:05Z</time></trkpt><trkpt lat="44.92426908668627" lon="9.463008315620808"><ele>463.25</ele><time>2026-04-04T08:42:06Z</time></trkpt><trkpt lat="44.92424306117771" lon="9.462800597547082"><ele>463.0</ele><time>2026-04-04T08:42:07Z</time></trkpt><trkpt lat="44.924237246041535" lon="9.462591832415963"><ele>469.75</ele><time>2026-04-04T08:42:08Z</time></trkpt><trkpt lat="44.92420446007287" lon="9.462399002998618"><ele>476.5</ele><time>2026-04-04T08:42:09Z</time></trkpt><trkpt lat="44.92417233365126" lon="9.462209425034947"><ele>483.25</ele><time>2026-04-04T08:42:10Z</time></trkpt><trkpt lat="44.924126599668995" lon="9.462028782560527"><ele>490.0</ele><time>2026-04-04T08:42:11Z</time></trkpt><trkpt lat="44.92407528175378" lon="9.461842152148483"><ele>491.5</ele><time>2026-04-04T08:42:12Z</time></trkpt><trkpt lat="44.92401336958378" lon="9.461671099942532"><ele>493.0</ele><time>2026-04-04T08:42:13Z</time></trkpt><trkpt lat="44.92393663229158" lon="9.461503063897053"><ele>494.5</ele><time>2026-04-04T08:42:14Z</time></trkpt><trkpt lat="44.923865274680715" lon="9.461360026954647"><ele>496.0</ele><time>2026-04-04T08:42:15Z</time></trkpt><trkpt lat="44.923801695472385" lon="9.461217022916962"><ele>498.0</ele><time>2026-04-04T08:42:16Z</time></trkpt><trkpt lat="44.923733307182665" lon="9.461073986856588"><ele>500.0</ele><time>2026-04-04T08:42:17Z</time></trkpt><trkpt lat="44.923665105634775" lon="9.460928333580135"><ele>502.0</ele><time>2026-04-04T08:42:18Z</time></trkpt><trkpt lat="44.92359472128186" lon="9.460785902185833"><ele>504.0</ele><time>2026-04-04T08:42:19Z</time></trkpt><trkpt lat="44.9235205180166" lon="9.460634863253603"><ele>504.0</ele><time>2026-04-04T08:42:20Z</time></trkpt><trkpt lat="44.923447850338455" lon="9.46049085678987"><ele>504.0</ele><time>2026-04-04T08:42:21Z</time></trkpt><trkpt lat="44.9233795230355" lon="9.460334793455662"><ele>504.0</ele><time>2026-04-04T08:42:22Z</time></trkpt><trkpt lat="44.92333386767928" lon="9.460162017938535"><ele>504.0</ele><time>2026-04-04T08:42:23Z</time></trkpt><trkpt lat="44.923289597394295" lon="9.459962181447722"><ele>502.0</ele><time>2026-04-04T08:42:24Z</time></trkpt><trkpt lat="44.923247237268534" lon="9.459755197271477"><ele>500.0</ele><time>2026-04-04T08:42:25Z</time></trkpt><trkpt lat="44.923199424717346" lon="9.459538062740622"><ele>498.0</ele><time>2026-04-04T08:42:26Z</time></trkpt><trkpt lat="44.923139774808924" lon="9.459320880032076"><ele>498.0</ele><time>2026-04-04T08:42:27Z</time></trkpt><trkpt lat="44.92307094980495" lon="9.459101908338134"><ele>498.0</ele><time>2026-04-04T08:42:28Z</time></trkpt><trkpt lat="44.922988836421574" lon="9.458914889987248"><ele>498.0</ele><time>2026-04-04T08:42:29Z</time></trkpt><trkpt lat="44.92289897843795" lon="9.45872630431399"><ele>499.33333333333337</ele><time>2026-04-04T08:42:30Z</time></trkpt><trkpt lat="44.922817080914626" lon="9.458533131760255"><ele>500.6666666666667</ele><time>2026-04-04T08:42:30.999Z</time></trkpt><trkpt lat="44.92276943017491" lon="9.458315300473197"><ele>502.0</ele><time>2026-04-04T08:42:31.999Z</time></trkpt><trkpt lat="44.922702005590956" lon="9.458109623270234"><ele>502.5</ele><time>2026-04-04T08:42:32.999Z</time></trkpt><trkpt lat="44.922647077754355" lon="9.457897568487416"><ele>503.0</ele><time>2026-04-04T08:42:33.999Z</time></trkpt><trkpt lat="44.92261300441259" lon="9.457726736728436"><ele>503.5</ele><time>2026-04-04T08:42:34.999Z</time></trkpt><trkpt lat="44.92257007932212" lon="9.457586776706991"><ele>504.0</ele><time>2026-04-04T08:42:35.999Z</time></trkpt><trkpt lat="44.922537208350825" lon="9.457488164012792"><ele>502.6666666666667</ele><time>2026-04-04T08:42:36.999Z</time></trkpt><trkpt lat="44.92248629101058" lon="9.457400937326275"><ele>501.33333333333337</ele><time>2026-04-04T08:42:37.999Z</time></trkpt><trkpt lat="44.92246904775412" lon="9.45731135739755"><ele>500.0</ele><time>2026-04-04T08:42:38.999Z</time></trkpt><trkpt lat="44.922434781444984" lon="9.457224326145113"><ele>498.6666666666667</ele><time>2026-04-04T08:42:39.999Z</time></trkpt><trkpt lat="44.92238656849461" lon="9.4571146997661"><ele>497.33333333333337</ele><time>2026-04-04T08:42:41.999Z</time></trkpt><trkpt lat="44.92233612959508" lon="9.456970564484612"><ele>496.0</ele><time>2026-04-04T08:42:43.999Z</time></trkpt><trkpt lat="44.92228417354034" lon="9.45681025183177"><ele>496.00000000000006</ele><time>2026-04-04T08:42:45.999Z</time></trkpt><trkpt lat="44.922268519855145" lon="9.456696643524397"><ele>496.0</ele><time>2026-04-04T08:42:46.999Z</time></trkpt><trkpt lat="44.92225950143658" lon="9.456561750937697"><ele>496.0</ele><time>2026-04-04T08:42:47.999Z</time></trkpt><trkpt lat="44.92225891220995" lon="9.456431494150577"><ele>496.0</ele><time>2026-04-04T08:42:48.999Z</time></trkpt><trkpt lat="44.92227164857559" lon="9.45633302049325"><ele>496.00000000000006</ele><time>2026-04-04T08:42:49.999Z</time></trkpt><trkpt lat="44.92229117140353" lon="9.456243451719246"><ele>496.0</ele><time>2026-04-04T08:42:50.999Z</time></trkpt><trkpt lat="44.922309287763674" lon="9.456154863230312"><ele>496.25</ele><time>2026-04-04T08:42:51.999Z</time></trkpt><trkpt lat="44.92233452352194" lon="9.456002174118213"><ele>496.5</ele><time>2026-04-04T08:42:53.999Z</time></trkpt><trkpt lat="44.922303298939035" lon="9.45587629667378"><ele>496.75</ele><time>2026-04-04T08:42:55.999Z</time></trkpt><trkpt lat="44.922147085201104" lon="9.455828044180452"><ele>497.0</ele><time>2026-04-04T08:42:57.999Z</time></trkpt><trkpt lat="44.92205445406215" lon="9.455786486342456"><ele>497.0</ele><time>2026-04-04T08:42:58.999Z</time></trkpt><trkpt lat="44.9219518178908" lon="9.45575276783612"><ele>497.00000000000006</ele><time>2026-04-04T08:42:59.999Z</time></trkpt><trkpt lat="44.92183953764625" lon="9.455739805854225"><ele>497.00000000000006</ele><time>2026-04-04T08:43:00.999Z</time></trkpt><trkpt lat="44.921731555537605" lon="9.455688435767241"><ele>497.0</ele><time>2026-04-04T08:43:01.999Z</time></trkpt><trkpt lat="44.9216203435475" lon="9.455652938714515"><ele>497.0</ele><time>2026-04-04T08:43:02.999Z</time></trkpt><trkpt lat="44.9215011648133" lon="9.455621818910291"><ele>495.40000000000003</ele><time>2026-04-04T08:43:03.999Z</time></trkpt><trkpt lat="44.921388438792135" lon="9.455607559126381"><ele>493.80000000000007</ele><time>2026-04-04T08:43:04.999Z</time></trkpt><trkpt lat="44.92127636682152" lon="9.455577176202679"><ele>492.2</ele><time>2026-04-04T08:43:05.999Z</time></trkpt><trkpt lat="44.92117532404414" lon="9.455519733284921"><ele>490.6</ele><time>2026-04-04T08:43:06.999Z</time></trkpt><trkpt lat="44.92108472868732" lon="9.455430252531224"><ele>489.0</ele><time>2026-04-04T08:43:07.999Z</time></trkpt><trkpt lat="44.92099837953687" lon="9.455309984568197"><ele>487.25</ele><time>2026-04-04T08:43:08.999Z</time></trkpt><trkpt lat="44.92092381334354" lon="9.455170571593332"><ele>485.5</ele><time>2026-04-04T08:43:09.999Z</time></trkpt><trkpt lat="44.920853608017204" lon="9.455023252182558"><ele>483.75</ele><time>2026-04-04T08:43:10.999Z</time></trkpt><trkpt lat="44.92079307215999" lon="9.454861795302444"><ele>482.0</ele><time>2026-04-04T08:43:11.999Z</time></trkpt><trkpt lat="44.92074715218948" lon="9.454695865451228"><ele>481.40000000000003</ele><time>2026-04-04T08:43:12.999Z</time></trkpt><trkpt lat="44.92071458918966" lon="9.454535368636307"><ele>480.80000000000007</ele><time>2026-04-04T08:43:13.999Z</time></trkpt><trkpt lat="44.92068852818129" lon="9.454379391148088"><ele>480.2</ele><time>2026-04-04T08:43:14.999Z</time></trkpt><trkpt lat="44.920661044800745" lon="9.45424199254124"><ele>479.6</ele><time>2026-04-04T08:43:15.999Z</time></trkpt><trkpt lat="44.92064405363755" lon="9.454092824037398"><ele>479.0</ele><time>2026-04-04T08:43:16.999Z</time></trkpt><trkpt lat="44.9205776619687" lon="9.45396306526503"><ele>479.0</ele><time>2026-04-04T08:43:17.999Z</time></trkpt><trkpt lat="44.92051928381436" lon="9.45381190210466"><ele>479.0</ele><time>2026-04-04T08:43:18.999Z</time></trkpt><trkpt lat="44.920429599598585" lon="9.45369614405653"><ele>479.0</ele><time>2026-04-04T08:43:19.999Z</time></trkpt><trkpt lat="44.9203195563793" lon="9.453602660188515"><ele>479.0</ele><time>2026-04-04T08:43:20.999Z</time></trkpt><trkpt lat="44.920189191491716" lon="9.453534818122481"><ele>478.79999999999995</ele><time>2026-04-04T08:43:21.999Z</time></trkpt><trkpt lat="44.920070445905445" lon="9.453495655963847"><ele>478.59999999999997</ele><time>2026-04-04T08:43:22.999Z</time></trkpt><trkpt lat="44.919956401531714" lon="9.453461620102356"><ele>478.4</ele><time>2026-04-04T08:43:23.999Z</time></trkpt><trkpt lat="44.9198514001349" lon="9.453446072670914"><ele>478.2</ele><time>2026-04-04T08:43:24.999Z</time></trkpt><trkpt lat="44.919765252895765" lon="9.453400160133343"><ele>478.0</ele><time>2026-04-04T08:43:25.999Z</time></trkpt><trkpt lat="44.91968568553754" lon="9.453330148747341"><ele>477.75</ele><time>2026-04-04T08:43:26.999Z</time></trkpt><trkpt lat="44.919584110629465" lon="9.453281010172422"><ele>477.5</ele><time>2026-04-04T08:43:27.999Z</time></trkpt><trkpt lat="44.91950854100959" lon="9.453067883139152"><ele>477.25</ele><time>2026-04-04T08:43:28.999Z</time></trkpt><trkpt lat="44.91941360398499" lon="9.4529267271128"><ele>477.0</ele><time>2026-04-04T08:43:29.999Z</time></trkpt><trkpt lat="44.91933164385713" lon="9.452821143245068"><ele>477.0</ele><time>2026-04-04T08:43:30.999Z</time></trkpt><trkpt lat="44.919249198622936" lon="9.4527019669002"><ele>477.0</ele><time>2026-04-04T08:43:31.999Z</time></trkpt><trkpt lat="44.91914753176471" lon="9.452593805711972"><ele>477.0</ele><time>2026-04-04T08:43:32.999Z</time></trkpt><trkpt lat="44.91904073737513" lon="9.452481937346851"><ele>477.0</ele><time>2026-04-04T08:43:33.999Z</time></trkpt><trkpt lat="44.918926827907434" lon="9.452356562804482"><ele>477.75</ele><time>2026-04-04T08:43:34.998Z</time></trkpt><trkpt lat="44.91879396644881" lon="9.452215337185844"><ele>478.5</ele><time>2026-04-04T08:43:35.998Z</time></trkpt><trkpt lat="44.918684498547776" lon="9.452088518110617"><ele>479.25</ele><time>2026-04-04T08:43:36.998Z</time></trkpt><trkpt lat="44.91859548423295" lon="9.451966238197675"><ele>480.0</ele><time>2026-04-04T08:43:37.998Z</time></trkpt><trkpt lat="44.91852777333446" lon="9.451797611928173"><ele>480.0</ele><time>2026-04-04T08:43:38.998Z</time></trkpt><trkpt lat="44.918475404764465" lon="9.451607266532461"><ele>480.0</ele><time>2026-04-04T08:43:39.998Z</time></trkpt><trkpt lat="44.918425710394125" lon="9.451413005855523"><ele>480.0</ele><time>2026-04-04T08:43:40.998Z</time></trkpt><trkpt lat="44.918394374362684" lon="9.45124799441882"><ele>480.0</ele><time>2026-04-04T08:43:41.998Z</time></trkpt><trkpt lat="44.91836315661424" lon="9.45110338075255"><ele>482.1666666666667</ele><time>2026-04-04T08:43:42.998Z</time></trkpt><trkpt lat="44.918331314446405" lon="9.450981292954605"><ele>484.33333333333337</ele><time>2026-04-04T08:43:44Z</time></trkpt><trkpt lat="44.91829521739978" lon="9.450864402618476"><ele>486.5</ele><time>2026-04-04T08:43:45Z</time></trkpt><trkpt lat="44.91824579169759" lon="9.450777658707565"><ele>488.6666666666667</ele><time>2026-04-04T08:43:46Z</time></trkpt><trkpt lat="44.918176183870266" lon="9.450715423741062"><ele>490.83333333333337</ele><time>2026-04-04T08:43:47Z</time></trkpt><trkpt lat="44.91808909000097" lon="9.450671883351808"><ele>493.0</ele><time>2026-04-04T08:43:48Z</time></trkpt><trkpt lat="44.91800338122914" lon="9.450635594053214"><ele>493.0</ele><time>2026-04-04T08:43:49Z</time></trkpt><trkpt lat="44.917907156603945" lon="9.450612896339662"><ele>492.99999999999994</ele><time>2026-04-04T08:43:50Z</time></trkpt><trkpt lat="44.91780514614584" lon="9.450588589993425"><ele>492.99999999999994</ele><time>2026-04-04T08:43:51Z</time></trkpt><trkpt lat="44.91772049488547" lon="9.450500981993683"><ele>493.0</ele><time>2026-04-04T08:43:52Z</time></trkpt><trkpt lat="44.91764801664036" lon="9.450363864744258"><ele>493.0</ele><time>2026-04-04T08:43:53Z</time></trkpt><trkpt lat="44.91760626027847" lon="9.450202622478907"><ele>493.25</ele><time>2026-04-04T08:43:54Z</time></trkpt><trkpt lat="44.91757868789658" lon="9.450042902589871"><ele>493.5</ele><time>2026-04-04T08:43:55Z</time></trkpt><trkpt lat="44.91753656454766" lon="9.44987228925502"><ele>493.75</ele><time>2026-04-04T08:43:56Z</time></trkpt><trkpt lat="44.917491978005295" lon="9.449698284654206"><ele>494.0</ele><time>2026-04-04T08:43:57Z</time></trkpt><trkpt lat="44.917438470965514" lon="9.44952823111232"><ele>494.0</ele><time>2026-04-04T08:43:58Z</time></trkpt><trkpt lat="44.917390269752886" lon="9.44937488443819"><ele>494.0</ele><time>2026-04-04T08:43:59Z</time></trkpt><trkpt lat="44.917346440398866" lon="9.449221772058369"><ele>494.0</ele><time>2026-04-04T08:44:00Z</time></trkpt><trkpt lat="44.917298207841014" lon="9.449061660711836"><ele>494.0</ele><time>2026-04-04T08:44:01Z</time></trkpt><trkpt lat="44.917249692097194" lon="9.448907536698231"><ele>494.25</ele><time>2026-04-04T08:44:02Z</time></trkpt><trkpt lat="44.91719850749657" lon="9.448749149758491"><ele>494.5</ele><time>2026-04-04T08:44:03Z</time></trkpt><trkpt lat="44.91715647040127" lon="9.448583740834966"><ele>494.75</ele><time>2026-04-04T08:44:04Z</time></trkpt><trkpt lat="44.91711625936577" lon="9.448422579963612"><ele>495.0</ele><time>2026-04-04T08:44:05Z</time></trkpt><trkpt lat="44.91707882092104" lon="9.448256681030852"><ele>495.0</ele><time>2026-04-04T08:44:06Z</time></trkpt><trkpt lat="44.91705278444058" lon="9.448106334830607"><ele>495.0</ele><time>2026-04-04T08:44:07Z</time></trkpt><trkpt lat="44.917029892086454" lon="9.447959187911348"><ele>495.0</ele><time>2026-04-04T08:44:08Z</time></trkpt><trkpt lat="44.91700397487773" lon="9.44781666366006"><ele>495.0</ele><time>2026-04-04T08:44:09Z</time></trkpt><trkpt lat="44.91698265733121" lon="9.447669145600182"><ele>495.0</ele><time>2026-04-04T08:44:10Z</time></trkpt><trkpt lat="44.916961366018775" lon="9.447530099668388"><ele>495.6666666666667</ele><time>2026-04-04T08:44:11Z</time></trkpt><trkpt lat="44.91693868168829" lon="9.447401539206584"><ele>496.33333333333337</ele><time>2026-04-04T08:44:12Z</time></trkpt><trkpt lat="44.916933577615104" lon="9.447269054473775"><ele>497.0</ele><time>2026-04-04T08:44:13Z</time></trkpt><trkpt lat="44.91695165698928" lon="9.447146029120773"><ele>497.6666666666667</ele><time>2026-04-04T08:44:14Z</time></trkpt><trkpt lat="44.91697569084907" lon="9.447021684290387"><ele>498.33333333333337</ele><time>2026-04-04T08:44:15Z</time></trkpt><trkpt lat="44.916980402826475" lon="9.446924149069362"><ele>499.0</ele><time>2026-04-04T08:44:16Z</time></trkpt><trkpt lat="44.91698633953521" lon="9.44682900006166"><ele>499.57142857142867</ele><time>2026-04-04T08:44:17Z</time></trkpt><trkpt lat="44.916997854692596" lon="9.446732025502559"><ele>500.14285714285717</ele><time>2026-04-04T08:44:18Z</time></trkpt><trkpt lat="44.9170065204566" lon="9.44663171138592"><ele>500.7142857142858</ele><time>2026-04-04T08:44:19Z</time></trkpt><trkpt lat="44.91700812403559" lon="9.446533435888583"><ele>501.28571428571433</ele><time>2026-04-04T08:44:20Z</time></trkpt><trkpt lat="44.91701505317328" lon="9.446443465080362"><ele>501.8571428571429</ele><time>2026-04-04T08:44:21Z</time></trkpt><trkpt lat="44.917006161187146" lon="9.44635440719113"><ele>502.42857142857144</ele><time>2026-04-04T08:44:22Z</time></trkpt><trkpt lat="44.916980029858536" lon="9.446259071179608"><ele>503.0</ele><time>2026-04-04T08:44:23Z</time></trkpt><trkpt lat="44.91694893813508" lon="9.446150112140408"><ele>504.0</ele><time>2026-04-04T08:44:24Z</time></trkpt><trkpt lat="44.91691059442879" lon="9.446049231756158"><ele>504.99999999999994</ele><time>2026-04-04T08:44:25Z</time></trkpt><trkpt lat="44.91684030721801" lon="9.445975619027532"><ele>505.99999999999994</ele><time>2026-04-04T08:44:26Z</time></trkpt><trkpt lat="44.91675953845774" lon="9.44590876966234"><ele>507.0</ele><time>2026-04-04T08:44:27Z</time></trkpt><trkpt lat="44.91666800385391" lon="9.445860109011376"><ele>508.0</ele><time>2026-04-04T08:44:28Z</time></trkpt><trkpt lat="44.916574994517724" lon="9.445807583333806"><ele>508.4</ele><time>2026-04-04T08:44:28.999Z</time></trkpt><trkpt lat="44.91648748994618" lon="9.445731280205152"><ele>508.79999999999995</ele><time>2026-04-04T08:44:29.999Z</time></trkpt><trkpt lat="44.91640170026912" lon="9.445658509639285"><ele>509.2</ele><time>2026-04-04T08:44:30.999Z</time></trkpt><trkpt lat="44.91631401553605" lon="9.44557662737869"><ele>509.6</ele><time>2026-04-04T08:44:31.999Z</time></trkpt><trkpt lat="44.91622926105093" lon="9.445485738193451"><ele>510.0</ele><time>2026-04-04T08:44:32.999Z</time></trkpt><trkpt lat="44.91615031994907" lon="9.445396696897367"><ele>509.2</ele><time>2026-04-04T08:44:33.999Z</time></trkpt><trkpt lat="44.916060084564535" lon="9.445323917975982"><ele>508.4</ele><time>2026-04-04T08:44:34.999Z</time></trkpt><trkpt lat="44.9159656729425" lon="9.44528641384846"><ele>507.6</ele><time>2026-04-04T08:44:35.999Z</time></trkpt><trkpt lat="44.91586581289589" lon="9.44524967841971"><ele>506.8</ele><time>2026-04-04T08:44:36.999Z</time></trkpt><trkpt lat="44.915760228323784" lon="9.445262528743262"><ele>506.0</ele><time>2026-04-04T08:44:37.999Z</time></trkpt><trkpt lat="44.915657995871506" lon="9.44530074749197"><ele>506.0</ele><time>2026-04-04T08:44:38.999Z</time></trkpt><trkpt lat="44.91555086561374" lon="9.445354154500672"><ele>506.0</ele><time>2026-04-04T08:44:39.999Z</time></trkpt><trkpt lat="44.915442126358094" lon="9.44540822400069"><ele>506.0</ele><time>2026-04-04T08:44:40.999Z</time></trkpt><trkpt lat="44.915332296995196" lon="9.44545755177109"><ele>506.0</ele><time>2026-04-04T08:44:41.999Z</time></trkpt><trkpt lat="44.91521486770887" lon="9.44548959345007"><ele>508.5</ele><time>2026-04-04T08:44:42.999Z</time></trkpt><trkpt lat="44.915091765987725" lon="9.445519017128873"><ele>511.0</ele><time>2026-04-04T08:44:43.999Z</time></trkpt><trkpt lat="44.914964026501714" lon="9.445490090372175"><ele>513.5</ele><time>2026-04-04T08:44:44.999Z</time></trkpt><trkpt lat="44.91483905425031" lon="9.445479861099024"><ele>516.0</ele><time>2026-04-04T08:44:45.999Z</time></trkpt><trkpt lat="44.91472139494528" lon="9.445477171706502"><ele>516.0</ele><time>2026-04-04T08:44:46.999Z</time></trkpt><trkpt lat="44.914611808015096" lon="9.445494003505402"><ele>516.0</ele><time>2026-04-04T08:44:47.999Z</time></trkpt><trkpt lat="44.91450669297424" lon="9.445503367763052"><ele>516.0</ele><time>2026-04-04T08:44:48.999Z</time></trkpt><trkpt lat="44.91440056739714" lon="9.445494340448915"><ele>516.0</ele><time>2026-04-04T08:44:49.999Z</time></trkpt><trkpt lat="44.914305428971254" lon="9.445523701909606"><ele>516.0</ele><time>2026-04-04T08:44:50.999Z</time></trkpt><trkpt lat="44.91421143767169" lon="9.445578107591034"><ele>513.75</ele><time>2026-04-04T08:44:51.999Z</time></trkpt><trkpt lat="44.914114701966334" lon="9.445656854761014"><ele>511.5</ele><time>2026-04-04T08:44:52.999Z</time></trkpt><trkpt lat="44.914028181162536" lon="9.445773061137704"><ele>509.25</ele><time>2026-04-04T08:44:53.999Z</time></trkpt><trkpt lat="44.913950060371675" lon="9.445907017955804"><ele>507.0</ele><time>2026-04-04T08:44:54.999Z</time></trkpt><trkpt lat="44.91388040618285" lon="9.446043223449612"><ele>507.0</ele><time>2026-04-04T08:44:55.999Z</time></trkpt><trkpt lat="44.91379874199159" lon="9.446166264323125"><ele>507.0</ele><time>2026-04-04T08:44:56.999Z</time></trkpt><trkpt lat="44.91370479932445" lon="9.446286048161255"><ele>507.0</ele><time>2026-04-04T08:44:57.999Z</time></trkpt><trkpt lat="44.91360704404283" lon="9.446403224622133"><ele>507.0</ele><time>2026-04-04T08:44:58.999Z</time></trkpt><trkpt lat="44.91350635079066" lon="9.446510106529258"><ele>506.25</ele><time>2026-04-04T08:44:59.999Z</time></trkpt><trkpt lat="44.91340224798297" lon="9.446610311172575"><ele>505.5</ele><time>2026-04-04T08:45:00.999Z</time></trkpt><trkpt lat="44.91329287062191" lon="9.446724565174465"><ele>504.75</ele><time>2026-04-04T08:45:01.999Z</time></trkpt><trkpt lat="44.91318022408389" lon="9.446858130186646"><ele>504.0</ele><time>2026-04-04T08:45:02.999Z</time></trkpt><trkpt lat="44.91307583788043" lon="9.446986328233956"><ele>504.0</ele><time>2026-04-04T08:45:03.999Z</time></trkpt><trkpt lat="44.912980914923004" lon="9.447104535669935"><ele>504.0</ele><time>2026-04-04T08:45:04.999Z</time></trkpt><trkpt lat="44.91287215447696" lon="9.447179143308501"><ele>504.0</ele><time>2026-04-04T08:45:05.999Z</time></trkpt><trkpt lat="44.9127612686095" lon="9.447249507271936"><ele>504.0</ele><time>2026-04-04T08:45:06.999Z</time></trkpt><trkpt lat="44.912659376108515" lon="9.447333321959897"><ele>504.25</ele><time>2026-04-04T08:45:07.999Z</time></trkpt><trkpt lat="44.91256115093819" lon="9.447424237944507"><ele>504.5</ele><time>2026-04-04T08:45:08.999Z</time></trkpt><trkpt lat="44.91248431598193" lon="9.447542050009869"><ele>504.75</ele><time>2026-04-04T08:45:09.999Z</time></trkpt><trkpt lat="44.91240419860348" lon="9.44765431319175"><ele>505.0</ele><time>2026-04-04T08:45:10.999Z</time></trkpt><trkpt lat="44.912298115639594" lon="9.447713742540921"><ele>505.0</ele><time>2026-04-04T08:45:11.999Z</time></trkpt><trkpt lat="44.91217997321612" lon="9.44774186490914"><ele>505.0</ele><time>2026-04-04T08:45:12.999Z</time></trkpt><trkpt lat="44.912054705629075" lon="9.447737187636378"><ele>505.0</ele><time>2026-04-04T08:45:13.999Z</time></trkpt><trkpt lat="44.91189988166509" lon="9.447684097220776"><ele>505.0</ele><time>2026-04-04T08:45:14.999Z</time></trkpt><trkpt lat="44.911765450099125" lon="9.44763491483636"><ele>506.0</ele><time>2026-04-04T08:45:15.999Z</time></trkpt><trkpt lat="44.911655327312374" lon="9.447573007195242"><ele>507.0</ele><time>2026-04-04T08:45:16.999Z</time></trkpt><trkpt lat="44.911548270016276" lon="9.447557804157004"><ele>508.0</ele><time>2026-04-04T08:45:17.999Z</time></trkpt><trkpt lat="44.911431857947704" lon="9.44752935423981"><ele>509.0</ele><time>2026-04-04T08:45:18.999Z</time></trkpt><trkpt lat="44.91131583980352" lon="9.447549217229783"><ele>509.0</ele><time>2026-04-04T08:45:19.999Z</time></trkpt><trkpt lat="44.91121746264843" lon="9.447571658000621"><ele>509.0</ele><time>2026-04-04T08:45:20.999Z</time></trkpt><trkpt lat="44.91111165774432" lon="9.447599694590814"><ele>509.0</ele><time>2026-04-04T08:45:21.999Z</time></trkpt><trkpt lat="44.91100479606502" lon="9.447632180943787"><ele>509.0</ele><time>2026-04-04T08:45:22.999Z</time></trkpt><trkpt lat="44.91089798626769" lon="9.447669352513326"><ele>509.0</ele><time>2026-04-04T08:45:23.999Z</time></trkpt><trkpt lat="44.910789978113044" lon="9.447709098155887"><ele>509.0</ele><time>2026-04-04T08:45:24.999Z</time></trkpt><trkpt lat="44.91067581753892" lon="9.447752346000392"><ele>509.0</ele><time>2026-04-04T08:45:25.999Z</time></trkpt><trkpt lat="44.910564415522344" lon="9.447819287859087"><ele>509.0</ele><time>2026-04-04T08:45:26.999Z</time></trkpt><trkpt lat="44.91044699333995" lon="9.4478652327736"><ele>509.0</ele><time>2026-04-04T08:45:27.999Z</time></trkpt><trkpt lat="44.910330981169736" lon="9.447909679771499"><ele>509.0</ele><time>2026-04-04T08:45:28.999Z</time></trkpt><trkpt lat="44.910212314695244" lon="9.447954720406708"><ele>509.0</ele><time>2026-04-04T08:45:29.999Z</time></trkpt><trkpt lat="44.910098968282256" lon="9.448007007511743"><ele>509.0</ele><time>2026-04-04T08:45:30.999Z</time></trkpt><trkpt lat="44.91000218793075" lon="9.44805596319179"><ele>509.0</ele><time>2026-04-04T08:45:31.999Z</time></trkpt><trkpt lat="44.90991145551846" lon="9.448104187901"><ele>509.0</ele><time>2026-04-04T08:45:32.999Z</time></trkpt><trkpt lat="44.90982063760421" lon="9.448153096168507"><ele>510.4</ele><time>2026-04-04T08:45:33.999Z</time></trkpt><trkpt lat="44.90972886685207" lon="9.448212302438053"><ele>511.79999999999995</ele><time>2026-04-04T08:45:34.998Z</time></trkpt><trkpt lat="44.90963217466921" lon="9.448270559866703"><ele>513.2</ele><time>2026-04-04T08:45:35.998Z</time></trkpt><trkpt lat="44.90952933745638" lon="9.448308317000707"><ele>514.6</ele><time>2026-04-04T08:45:36.998Z</time></trkpt><trkpt lat="44.9094243029097" lon="9.448347804505897"><ele>516.0</ele><time>2026-04-04T08:45:37.998Z</time></trkpt><trkpt lat="44.90931721735139" lon="9.448367830772245"><ele>515.0</ele><time>2026-04-04T08:45:38.998Z</time></trkpt><trkpt lat="44.90920678607293" lon="9.448355570180679"><ele>514.0</ele><time>2026-04-04T08:45:39.998Z</time></trkpt><trkpt lat="44.909098375675235" lon="9.448309823882017"><ele>513.0</ele><time>2026-04-04T08:45:40.998Z</time></trkpt><trkpt lat="44.9089866626379" lon="9.448241280372974"><ele>512.0</ele><time>2026-04-04T08:45:41.998Z</time></trkpt><trkpt lat="44.90888737207617" lon="9.448163884182685"><ele>511.99999999999994</ele><time>2026-04-04T08:45:42.998Z</time></trkpt><trkpt lat="44.90879161033047" lon="9.44808742305129"><ele>512.0</ele><time>2026-04-04T08:45:43.998Z</time></trkpt><trkpt lat="44.9087064085726" lon="9.44802243408014"><ele>512.0</ele><time>2026-04-04T08:45:44.998Z</time></trkpt><trkpt lat="44.90863546955587" lon="9.447975144602665"><ele>512.0</ele><time>2026-04-04T08:45:45.998Z</time></trkpt><trkpt lat="44.90857175224389" lon="9.447938648640667"><ele>511.99999999999994</ele><time>2026-04-04T08:45:46.998Z</time></trkpt><trkpt lat="44.90851095011152" lon="9.447914551296346"><ele>512.0</ele><time>2026-04-04T08:45:47.998Z</time></trkpt><trkpt lat="44.90840745201351" lon="9.447873413572491"><ele>510.6</ele><time>2026-04-04T08:45:50Z</time></trkpt><trkpt lat="44.908320855072986" lon="9.447856319769281"><ele>509.20000000000005</ele><time>2026-04-04T08:45:52Z</time></trkpt><trkpt lat="44.90825384688345" lon="9.447843498578003"><ele>507.8</ele><time>2026-04-04T08:45:55Z</time></trkpt><trkpt lat="44.908183344399795" lon="9.447830008716185"><ele>506.4</ele><time>2026-04-04T08:45:58Z</time></trkpt><trkpt lat="44.9081711808989" lon="9.447648487630127"><ele>505.0</ele><time>2026-04-04T08:46:03Z</time></trkpt><trkpt lat="44.90821561296612" lon="9.447519471808839"><ele>505.0</ele><time>2026-04-04T08:46:05Z</time></trkpt><trkpt lat="44.90826557879378" lon="9.447379133491456"><ele>505.0</ele><time>2026-04-04T08:46:07Z</time></trkpt><trkpt lat="44.90830805030864" lon="9.447217405327832"><ele>505.0</ele><time>2026-04-04T08:46:09Z</time></trkpt><trkpt lat="44.90832094676531" lon="9.447056242876988"><ele>505.0</ele><time>2026-04-04T08:46:11Z</time></trkpt><trkpt lat="44.908327500984406" lon="9.446923894341866"><ele>505.0</ele><time>2026-04-04T08:46:13Z</time></trkpt><trkpt lat="44.908330587593724" lon="9.446803865399882"><ele>502.50000000000006</ele><time>2026-04-04T08:46:15Z</time></trkpt><trkpt lat="44.90833641488434" lon="9.446693082658497"><ele>500.0</ele><time>2026-04-04T08:46:17Z</time></trkpt><trkpt lat="44.908338407983585" lon="9.446567505293624"><ele>497.5</ele><time>2026-04-04T08:46:19Z</time></trkpt><trkpt lat="44.90835592897709" lon="9.446438445436474"><ele>495.0</ele><time>2026-04-04T08:46:21Z</time></trkpt><trkpt lat="44.90839536916801" lon="9.446316125847225"><ele>492.50000000000006</ele><time>2026-04-04T08:46:23Z</time></trkpt><trkpt lat="44.90843292497266" lon="9.446217485515398"><ele>490.0</ele><time>2026-04-04T08:46:25Z</time></trkpt><trkpt lat="44.90847884695858" lon="9.446135596636742"><ele>488.0</ele><time>2026-04-04T08:46:27Z</time></trkpt><trkpt lat="44.90852836588236" lon="9.446063677346723"><ele>486.0</ele><time>2026-04-04T08:46:29Z</time></trkpt><trkpt lat="44.90857187619101" lon="9.44597688429988"><ele>484.0</ele><time>2026-04-04T08:46:31Z</time></trkpt><trkpt lat="44.908600846419276" lon="9.445879843240487"><ele>482.0</ele><time>2026-04-04T08:46:33Z</time></trkpt><trkpt lat="44.90858462099308" lon="9.44578448926963"><ele>480.0</ele><time>2026-04-04T08:46:35Z</time></trkpt><trkpt lat="44.90853877805886" lon="9.445690997208676"><ele>478.0</ele><time>2026-04-04T08:46:37.999Z</time></trkpt><trkpt lat="44.908485874371195" lon="9.44561060104579"><ele>476.0</ele><time>2026-04-04T08:50:45Z</time></trkpt><trkpt lat="44.90839281073531" lon="9.445574847840028"><ele>476.0</ele><time>2026-04-04T08:50:48Z</time></trkpt><trkpt lat="44.9083014574073" lon="9.445523433849658"><ele>476.0</ele><time>2026-04-04T08:50:51Z</time></trkpt><trkpt lat="44.90825438514923" lon="9.44540420430801"><ele>476.0</ele><time>2026-04-04T08:50:53Z</time></trkpt><trkpt lat="44.90824391947266" lon="9.445270199977017"><ele>476.0</ele><time>2026-04-04T08:50:54.999Z</time></trkpt><trkpt lat="44.90829396183928" lon="9.445121038931656"><ele>476.0</ele><time>2026-04-04T08:50:56.999Z</time></trkpt><trkpt lat="44.908337966545396" lon="9.445017391922587"><ele>473.99999999999994</ele><time>2026-04-04T08:50:58.999Z</time></trkpt><trkpt lat="44.90838246903718" lon="9.444939008376123"><ele>472.0</ele><time>2026-04-04T08:51:00.999Z</time></trkpt><trkpt lat="44.908414681671445" lon="9.444842988708723"><ele>470.0</ele><time>2026-04-04T08:51:02.999Z</time></trkpt><trkpt lat="44.908407850383234" lon="9.444736608069501"><ele>468.0</ele><time>2026-04-04T08:51:04.999Z</time></trkpt><trkpt lat="44.908362084693" lon="9.444650267171124"><ele>465.99999999999994</ele><time>2026-04-04T08:51:06.999Z</time></trkpt><trkpt lat="44.908290274043246" lon="9.444566557396007"><ele>464.0</ele><time>2026-04-04T08:51:08.999Z</time></trkpt><trkpt lat="44.90819728556756" lon="9.44451152643931"><ele>461.0</ele><time>2026-04-04T08:51:10.999Z</time></trkpt><trkpt lat="44.908097630003105" lon="9.444475201372333"><ele>458.0</ele><time>2026-04-04T08:51:12.999Z</time></trkpt><trkpt lat="44.90800893294665" lon="9.444430519763118"><ele>455.0</ele><time>2026-04-04T08:51:14.999Z</time></trkpt><trkpt lat="44.90791909107577" lon="9.44436709228305"><ele>452.0</ele><time>2026-04-04T08:51:16.999Z</time></trkpt><trkpt lat="44.907865571454984" lon="9.44423049991902"><ele>449.0</ele><time>2026-04-04T08:51:18.999Z</time></trkpt><trkpt lat="44.907800020757556" lon="9.444092916264575"><ele>449.0</ele><time>2026-04-04T08:51:20.999Z</time></trkpt><trkpt lat="44.90774433073702" lon="9.443956387009436"><ele>449.0</ele><time>2026-04-04T08:51:22.999Z</time></trkpt><trkpt lat="44.907722031823816" lon="9.4438130146988"><ele>449.0</ele><time>2026-04-04T08:51:24.999Z</time></trkpt><trkpt lat="44.90771688115577" lon="9.44371429798253"><ele>449.0</ele><time>2026-04-04T08:51:25.999Z</time></trkpt><trkpt lat="44.9077094699784" lon="9.443617762998379"><ele>449.0</ele><time>2026-04-04T08:51:26.999Z</time></trkpt><trkpt lat="44.90769979650921" lon="9.443444468082733"><ele>446.6</ele><time>2026-04-04T08:51:28.999Z</time></trkpt><trkpt lat="44.907694591171136" lon="9.443333363150327"><ele>444.2</ele><time>2026-04-04T08:51:29.999Z</time></trkpt><trkpt lat="44.9076909581688" lon="9.443158875923377"><ele>441.80000000000007</ele><time>2026-04-04T08:51:31.999Z</time></trkpt><trkpt lat="44.90771404559214" lon="9.442980293923894"><ele>439.40000000000003</ele><time>2026-04-04T08:51:33.999Z</time></trkpt><trkpt lat="44.90774697579218" lon="9.442821114158377"><ele>437.0</ele><time>2026-04-04T08:51:35.999Z</time></trkpt><trkpt lat="44.907781295781724" lon="9.44273714550064"><ele>435.4285714285714</ele><time>2026-04-04T08:51:36.999Z</time></trkpt><trkpt lat="44.907822678569524" lon="9.442660233705984"><ele>433.8571428571429</ele><time>2026-04-04T08:51:37.999Z</time></trkpt><trkpt lat="44.90785993767132" lon="9.442588164065446"><ele>432.2857142857143</ele><time>2026-04-04T08:51:38.999Z</time></trkpt><trkpt lat="44.90790149971774" lon="9.44251270749251"><ele>430.71428571428567</ele><time>2026-04-04T08:51:39.999Z</time></trkpt><trkpt lat="44.90793911613453" lon="9.442437215089685"><ele>429.1428571428571</ele><time>2026-04-04T08:51:40.999Z</time></trkpt><trkpt lat="44.90797541387482" lon="9.442352666213592"><ele>427.57142857142856</ele><time>2026-04-04T08:51:41.999Z</time></trkpt><trkpt lat="44.90801259361226" lon="9.442254599771436"><ele>426.0</ele><time>2026-04-04T08:51:42.999Z</time></trkpt><trkpt lat="44.90803520501367" lon="9.442143402251146"><ele>425.1666666666667</ele><time>2026-04-04T08:51:43.999Z</time></trkpt><trkpt lat="44.90805559516916" lon="9.442028949891315"><ele>424.33333333333337</ele><time>2026-04-04T08:51:44.999Z</time></trkpt><trkpt lat="44.90807251513486" lon="9.441919660670328"><ele>423.5</ele><time>2026-04-04T08:51:45.999Z</time></trkpt><trkpt lat="44.90809228939324" lon="9.441825387048052"><ele>422.6666666666667</ele><time>2026-04-04T08:51:46.999Z</time></trkpt><trkpt lat="44.90811045567577" lon="9.44173020004853"><ele>421.83333333333337</ele><time>2026-04-04T08:51:47.999Z</time></trkpt><trkpt lat="44.90812700662028" lon="9.441642748216726"><ele>421.0</ele><time>2026-04-04T08:51:48.999Z</time></trkpt><trkpt lat="44.908148475597905" lon="9.4414914698028"><ele>421.00000000000006</ele><time>2026-04-04T08:51:50.999Z</time></trkpt><trkpt lat="44.90816669171254" lon="9.44138944742677"><ele>421.0</ele><time>2026-04-04T08:51:52.999Z</time></trkpt><trkpt lat="44.9082248202084" lon="9.441317662482696"><ele>421.0</ele><time>2026-04-04T08:51:54.999Z</time></trkpt><trkpt lat="44.90831049266913" lon="9.441290126067644"><ele>421.0</ele><time>2026-04-04T08:51:56.999Z</time></trkpt><trkpt lat="44.90837628808587" lon="9.44125990457666"><ele>421.0</ele><time>2026-04-04T08:51:59.998Z</time></trkpt><trkpt lat="44.90844245229314" lon="9.4412415421023"><ele>421.00000000000006</ele><time>2026-04-04T08:52:37Z</time></trkpt><trkpt lat="44.90846721913079" lon="9.441153559265944"><ele>421.0</ele><time>2026-04-04T08:52:40Z</time></trkpt><trkpt lat="44.90852089058746" lon="9.441084570271231"><ele>419.6666666666667</ele><time>2026-04-04T08:52:44Z</time></trkpt><trkpt lat="44.90861831829656" lon="9.441112244093409"><ele>418.33333333333337</ele><time>2026-04-04T08:55:43.999Z</time></trkpt><trkpt lat="44.908683921864046" lon="9.441134291176503"><ele>417.0</ele><time>2026-04-04T08:55:46.999Z</time></trkpt><trkpt lat="44.90875698287558" lon="9.44115322730242"><ele>415.66666666666663</ele><time>2026-04-04T08:55:49.999Z</time></trkpt><trkpt lat="44.908825826364215" lon="9.441154616929667"><ele>414.3333333333333</ele><time>2026-04-04T08:55:51.999Z</time></trkpt><trkpt lat="44.90891417375279" lon="9.441175261584531"><ele>413.0</ele><time>2026-04-04T08:55:54.999Z</time></trkpt><trkpt lat="44.90901547568093" lon="9.441188498296414"><ele>412.99999999999994</ele><time>2026-04-04T08:55:57.999Z</time></trkpt><trkpt lat="44.90911736313466" lon="9.441206846460371"><ele>413.0</ele><time>2026-04-04T08:55:59.999Z</time></trkpt><trkpt lat="44.90922821324835" lon="9.441227543361158"><ele>413.0</ele><time>2026-04-04T08:56:01.999Z</time></trkpt><trkpt lat="44.90929976358818" lon="9.441227908375936"><ele>413.0</ele><time>2026-04-04T08:56:02.999Z</time></trkpt><trkpt lat="44.90937002230263" lon="9.441236073926627"><ele>412.99999999999994</ele><time>2026-04-04T08:56:03.999Z</time></trkpt><trkpt lat="44.90944341974403" lon="9.44125104228844"><ele>413.0</ele><time>2026-04-04T08:56:04.999Z</time></trkpt><trkpt lat="44.909510533424125" lon="9.441260516969912"><ele>412.85714285714283</ele><time>2026-04-04T08:56:05.999Z</time></trkpt><trkpt lat="44.909571928870406" lon="9.441282043453793"><ele>412.7142857142857</ele><time>2026-04-04T08:56:06.998Z</time></trkpt><trkpt lat="44.90963532534703" lon="9.44129777191378"><ele>412.57142857142856</ele><time>2026-04-04T08:56:07.998Z</time></trkpt><trkpt lat="44.90970386717768" lon="9.441309481320019"><ele>412.42857142857144</ele><time>2026-04-04T08:56:08.998Z</time></trkpt><trkpt lat="44.90977425297826" lon="9.44132861027074"><ele>412.2857142857143</ele><time>2026-04-04T08:56:09.998Z</time></trkpt><trkpt lat="44.90984458880793" lon="9.441346378421368"><ele>412.1428571428571</ele><time>2026-04-04T08:56:10.998Z</time></trkpt><trkpt lat="44.909916501566876" lon="9.44136115220317"><ele>412.0</ele><time>2026-04-04T08:56:11.998Z</time></trkpt><trkpt lat="44.90998970184339" lon="9.441387790542771"><ele>412.0</ele><time>2026-04-04T08:56:12.998Z</time></trkpt><trkpt lat="44.910054855866925" lon="9.441421274213507"><ele>412.0</ele><time>2026-04-04T08:56:13.998Z</time></trkpt><trkpt lat="44.91012610012467" lon="9.441452492754625"><ele>412.0</ele><time>2026-04-04T08:56:14.998Z</time></trkpt><trkpt lat="44.910236976336485" lon="9.441442710731305"><ele>412.0</ele><time>2026-04-04T08:56:16.998Z</time></trkpt><trkpt lat="44.910325127201695" lon="9.441341616918905"><ele>412.0</ele><time>2026-04-04T08:56:18.998Z</time></trkpt><trkpt lat="44.91035933834066" lon="9.441192754584888"><ele>412.00000000000006</ele><time>2026-04-04T08:56:21Z</time></trkpt><trkpt lat="44.91036571129244" lon="9.441058081014425"><ele>412.0</ele><time>2026-04-04T08:56:23Z</time></trkpt><trkpt lat="44.91037553197808" lon="9.440959568083784"><ele>412.0</ele><time>2026-04-04T08:56:24Z</time></trkpt><trkpt lat="44.91039689469704" lon="9.440847909732183"><ele>412.0</ele><time>2026-04-04T08:56:25Z</time></trkpt><trkpt lat="44.91043512596034" lon="9.440744986239476"><ele>412.00000000000006</ele><time>2026-04-04T08:56:26Z</time></trkpt><trkpt lat="44.91047890951594" lon="9.44065096812841"><ele>412.0</ele><time>2026-04-04T08:56:27Z</time></trkpt><trkpt lat="44.91052275140874" lon="9.44055943978702"><ele>412.00000000000006</ele><time>2026-04-04T08:56:28Z</time></trkpt><trkpt lat="44.9105775814248" lon="9.440492123984411"><ele>412.0</ele><time>2026-04-04T08:56:29Z</time></trkpt><trkpt lat="44.91064313161067" lon="9.440435239932299"><ele>412.0</ele><time>2026-04-04T08:56:30Z</time></trkpt><trkpt lat="44.910718094597506" lon="9.440382204292979"><ele>412.0</ele><time>2026-04-04T08:56:31Z</time></trkpt><trkpt lat="44.910794965680864" lon="9.4403276683184"><ele>412.00000000000006</ele><time>2026-04-04T08:56:32Z</time></trkpt><trkpt lat="44.910874606472895" lon="9.440277256992552"><ele>412.0</ele><time>2026-04-04T08:56:33Z</time></trkpt><trkpt lat="44.91094428023465" lon="9.44022907367296"><ele>412.2857142857143</ele><time>2026-04-04T08:56:34Z</time></trkpt><trkpt lat="44.91101072029825" lon="9.440182206445852"><ele>412.57142857142856</ele><time>2026-04-04T08:56:35Z</time></trkpt><trkpt lat="44.91107613405532" lon="9.440141100848852"><ele>412.8571428571429</ele><time>2026-04-04T08:56:36Z</time></trkpt><trkpt lat="44.91113950151687" lon="9.440100836349323"><ele>413.1428571428571</ele><time>2026-04-04T08:56:37Z</time></trkpt><trkpt lat="44.91120737482055" lon="9.4400557805263"><ele>413.42857142857144</ele><time>2026-04-04T08:56:38Z</time></trkpt><trkpt lat="44.91127836879009" lon="9.440013495147795"><ele>413.7142857142857</ele><time>2026-04-04T08:56:39Z</time></trkpt><trkpt lat="44.91134992610347" lon="9.439973060358104"><ele>414.0</ele><time>2026-04-04T08:56:40Z</time></trkpt><trkpt lat="44.91142235931054" lon="9.439936485251213"><ele>414.0</ele><time>2026-04-04T08:56:41Z</time></trkpt><trkpt lat="44.91149317278486" lon="9.43989237700789"><ele>414.0</ele><time>2026-04-04T08:56:42Z</time></trkpt><trkpt lat="44.91156434346342" lon="9.439850832629883"><ele>414.0</ele><time>2026-04-04T08:56:43Z</time></trkpt><trkpt lat="44.911647406873875" lon="9.439806315873936"><ele>414.0</ele><time>2026-04-04T08:56:44Z</time></trkpt><trkpt lat="44.911734753661456" lon="9.439759865427336"><ele>414.0</ele><time>2026-04-04T08:56:45Z</time></trkpt><trkpt lat="44.91185566943517" lon="9.439693118839498"><ele>414.79999999999995</ele><time>2026-04-04T08:56:46Z</time></trkpt><trkpt lat="44.911944184816136" lon="9.439638930399045"><ele>415.59999999999997</ele><time>2026-04-04T08:56:47Z</time></trkpt><trkpt lat="44.91202725407669" lon="9.439603466192935"><ele>416.4</ele><time>2026-04-04T08:56:48Z</time></trkpt><trkpt lat="44.912111293266406" lon="9.43959948749155"><ele>417.2</ele><time>2026-04-04T08:56:49Z</time></trkpt><trkpt lat="44.91219710300744" lon="9.439602881549725"><ele>418.0</ele><time>2026-04-04T08:56:50Z</time></trkpt><trkpt lat="44.912305107970504" lon="9.439628353704316"><ele>418.0</ele><time>2026-04-04T08:56:51Z</time></trkpt><trkpt lat="44.91241248105843" lon="9.439666745973096"><ele>418.0</ele><time>2026-04-04T08:56:52Z</time></trkpt><trkpt lat="44.91251294845788" lon="9.439688479621958"><ele>418.0</ele><time>2026-04-04T08:56:53Z</time></trkpt><trkpt lat="44.91261042144662" lon="9.43972480961272"><ele>418.0</ele><time>2026-04-04T08:56:54Z</time></trkpt><trkpt lat="44.91270899311823" lon="9.439774616012466"><ele>418.0</ele><time>2026-04-04T08:56:55Z</time></trkpt><trkpt lat="44.9128057662826" lon="9.43978684691459"><ele>418.2</ele><time>2026-04-04T08:56:56Z</time></trkpt><trkpt lat="44.91290708940388" lon="9.439764909912755"><ele>418.4</ele><time>2026-04-04T08:56:57Z</time></trkpt><trkpt lat="44.91301044198659" lon="9.43973364075658"><ele>418.59999999999997</ele><time>2026-04-04T08:56:58Z</time></trkpt><trkpt lat="44.913109867582804" lon="9.439709887945256"><ele>418.79999999999995</ele><time>2026-04-04T08:56:59Z</time></trkpt><trkpt lat="44.91319470381927" lon="9.439714375109405"><ele>419.0</ele><time>2026-04-04T08:57:00Z</time></trkpt><trkpt lat="44.91326107379874" lon="9.439728107109449"><ele>418.99999999999994</ele><time>2026-04-04T08:57:01Z</time></trkpt><trkpt lat="44.913329302190625" lon="9.43974502043692"><ele>419.0</ele><time>2026-04-04T08:57:02Z</time></trkpt><trkpt lat="44.91341314327377" lon="9.439763880594068"><ele>419.0</ele><time>2026-04-04T08:57:03Z</time></trkpt><trkpt lat="44.913495110882685" lon="9.439770132504101"><ele>419.0</ele><time>2026-04-04T08:57:04Z</time></trkpt><trkpt lat="44.91358992964073" lon="9.439784735646633"><ele>418.99999999999994</ele><time>2026-04-04T08:57:04.999Z</time></trkpt><trkpt lat="44.91368070246284" lon="9.439794121874556"><ele>419.0</ele><time>2026-04-04T08:57:05.999Z</time></trkpt><trkpt lat="44.91377242683022" lon="9.439794565860346"><ele>419.0</ele><time>2026-04-04T08:57:06.999Z</time></trkpt><trkpt lat="44.91386593312756" lon="9.439776325587422"><ele>419.0</ele><time>2026-04-04T08:57:07.999Z</time></trkpt><trkpt lat="44.9139616996058" lon="9.439743763428494"><ele>419.0</ele><time>2026-04-04T08:57:08.999Z</time></trkpt><trkpt lat="44.91406509459882" lon="9.43971866981967"><ele>419.0</ele><time>2026-04-04T08:57:09.999Z</time></trkpt><trkpt lat="44.91416895228961" lon="9.43967685557472"><ele>419.0</ele><time>2026-04-04T08:57:10.999Z</time></trkpt><trkpt lat="44.91427075540274" lon="9.439619908048828"><ele>419.0</ele><time>2026-04-04T08:57:11.999Z</time></trkpt><trkpt lat="44.91436299472235" lon="9.439575184047026"><ele>419.0</ele><time>2026-04-04T08:57:12.999Z</time></trkpt><trkpt lat="44.914452530845146" lon="9.439528287653172"><ele>419.0</ele><time>2026-04-04T08:57:13.999Z</time></trkpt><trkpt lat="44.91455126553233" lon="9.439487032367087"><ele>419.0</ele><time>2026-04-04T08:57:14.999Z</time></trkpt><trkpt lat="44.91465557169043" lon="9.43944309982228"><ele>419.0</ele><time>2026-04-04T08:57:15.999Z</time></trkpt><trkpt lat="44.91474948837956" lon="9.439406188636054"><ele>418.99999999999994</ele><time>2026-04-04T08:57:16.999Z</time></trkpt><trkpt lat="44.914834633588676" lon="9.439366915597711"><ele>419.0</ele><time>2026-04-04T08:57:17.999Z</time></trkpt><trkpt lat="44.91491226225794" lon="9.439334551868678"><ele>419.0</ele><time>2026-04-04T08:57:18.999Z</time></trkpt><trkpt lat="44.914986707064195" lon="9.439307256489002"><ele>419.0</ele><time>2026-04-04T08:57:19.999Z</time></trkpt><trkpt lat="44.9150665667333" lon="9.439282720484687"><ele>418.99999999999994</ele><time>2026-04-04T08:57:20.999Z</time></trkpt><trkpt lat="44.91516292702977" lon="9.439272972330627"><ele>419.0</ele><time>2026-04-04T08:57:21.999Z</time></trkpt><trkpt lat="44.91525432672187" lon="9.439292268852505"><ele>419.4</ele><time>2026-04-04T08:57:22.999Z</time></trkpt><trkpt lat="44.91533709220357" lon="9.439308659547981"><ele>419.79999999999995</ele><time>2026-04-04T08:57:23.999Z</time></trkpt><trkpt lat="44.91543779418069" lon="9.439265295305631"><ele>420.20000000000005</ele><time>2026-04-04T08:57:24.999Z</time></trkpt><trkpt lat="44.91554134691444" lon="9.43919362305688"><ele>420.6</ele><time>2026-04-04T08:57:25.999Z</time></trkpt><trkpt lat="44.91564835005303" lon="9.439127010039954"><ele>421.0</ele><time>2026-04-04T08:57:26.999Z</time></trkpt><trkpt lat="44.9157481483409" lon="9.43905836142011"><ele>421.0</ele><time>2026-04-04T08:57:27.999Z</time></trkpt><trkpt lat="44.915830908594174" lon="9.438990120338175"><ele>421.0</ele><time>2026-04-04T08:57:28.999Z</time></trkpt><trkpt lat="44.915904888943516" lon="9.438898357023904"><ele>421.0</ele><time>2026-04-04T08:57:29.999Z</time></trkpt><trkpt lat="44.915975799340025" lon="9.438779958622408"><ele>421.0</ele><time>2026-04-04T08:57:30.999Z</time></trkpt><trkpt lat="44.916045548245556" lon="9.43866597270974"><ele>421.0</ele><time>2026-04-04T08:57:31.999Z</time></trkpt><trkpt lat="44.91613049434552" lon="9.43855458415785"><ele>420.5</ele><time>2026-04-04T08:57:32.999Z</time></trkpt><trkpt lat="44.916206718045075" lon="9.43844143391798"><ele>420.0</ele><time>2026-04-04T08:57:33.999Z</time></trkpt><trkpt lat="44.91628564825852" lon="9.438314848157953"><ele>419.5</ele><time>2026-04-04T08:57:34.999Z</time></trkpt><trkpt lat="44.91636584707959" lon="9.438180966676677"><ele>419.0</ele><time>2026-04-04T08:57:35.999Z</time></trkpt><trkpt lat="44.916448294213936" lon="9.438045168606816"><ele>418.6</ele><time>2026-04-04T08:57:36.999Z</time></trkpt><trkpt lat="44.91651697030114" lon="9.437930809535878"><ele>418.2</ele><time>2026-04-04T08:57:37.999Z</time></trkpt><trkpt lat="44.91658247924212" lon="9.437823047227333"><ele>417.8</ele><time>2026-04-04T08:57:38.999Z</time></trkpt><trkpt lat="44.91664701136977" lon="9.437731621883604"><ele>417.40000000000003</ele><time>2026-04-04T08:57:39.999Z</time></trkpt><trkpt lat="44.91671513123246" lon="9.4376284955923"><ele>417.0</ele><time>2026-04-04T08:57:40.999Z</time></trkpt><trkpt lat="44.916775092363444" lon="9.437530558097071"><ele>417.0</ele><time>2026-04-04T08:57:41.999Z</time></trkpt><trkpt lat="44.91685038770558" lon="9.437446780469495"><ele>417.0</ele><time>2026-04-04T08:57:42.999Z</time></trkpt><trkpt lat="44.91695533167754" lon="9.43736840966207"><ele>417.0</ele><time>2026-04-04T08:57:43.999Z</time></trkpt><trkpt lat="44.917063842625545" lon="9.437298204269087"><ele>417.0</ele><time>2026-04-04T08:57:44.999Z</time></trkpt><trkpt lat="44.917181972849804" lon="9.4372217079936"><ele>417.0</ele><time>2026-04-04T08:57:45.999Z</time></trkpt><trkpt lat="44.91730262983798" lon="9.43715292059399"><ele>417.0</ele><time>2026-04-04T08:57:46.999Z</time></trkpt><trkpt lat="44.91742420212236" lon="9.437090454784716"><ele>417.0</ele><time>2026-04-04T08:57:47.999Z</time></trkpt><trkpt lat="44.917550252124656" lon="9.437047439242928"><ele>417.0</ele><time>2026-04-04T08:57:48.999Z</time></trkpt><trkpt lat="44.91766410648891" lon="9.437005228340741"><ele>416.40000000000003</ele><time>2026-04-04T08:57:49.999Z</time></trkpt><trkpt lat="44.917760999871064" lon="9.43693632113562"><ele>415.8</ele><time>2026-04-04T08:57:50.999Z</time></trkpt><trkpt lat="44.917840249289675" lon="9.436867604509208"><ele>415.2</ele><time>2026-04-04T08:57:51.999Z</time></trkpt><trkpt lat="44.91792480535378" lon="9.436790866822653"><ele>414.6</ele><time>2026-04-04T08:57:52.999Z</time></trkpt><trkpt lat="44.918009541844924" lon="9.436718167682246"><ele>414.0</ele><time>2026-04-04T08:57:53.999Z</time></trkpt><trkpt lat="44.91810399359982" lon="9.43665640202457"><ele>414.0</ele><time>2026-04-04T08:57:54.999Z</time></trkpt><trkpt lat="44.91818222606973" lon="9.436600988399807"><ele>414.0</ele><time>2026-04-04T08:57:55.999Z</time></trkpt><trkpt lat="44.91825472666397" lon="9.436540361034202"><ele>414.0</ele><time>2026-04-04T08:57:56.999Z</time></trkpt><trkpt lat="44.91832591805483" lon="9.436455342821459"><ele>414.0</ele><time>2026-04-04T08:57:57.999Z</time></trkpt><trkpt lat="44.918382448614615" lon="9.436329627906167"><ele>414.0</ele><time>2026-04-04T08:57:58.999Z</time></trkpt><trkpt lat="44.9184367152736" lon="9.436191089840927"><ele>414.0</ele><time>2026-04-04T08:57:59.999Z</time></trkpt><trkpt lat="44.91850845116149" lon="9.436053007062391"><ele>414.0</ele><time>2026-04-04T08:58:00.999Z</time></trkpt><trkpt lat="44.91858221790143" lon="9.435908956748076"><ele>414.0</ele><time>2026-04-04T08:58:01.999Z</time></trkpt><trkpt lat="44.91865407095651" lon="9.43574970380433"><ele>414.0</ele><time>2026-04-04T08:58:02.999Z</time></trkpt><trkpt lat="44.91873175719277" lon="9.435594570590778"><ele>413.25</ele><time>2026-04-04T08:58:03.999Z</time></trkpt><trkpt lat="44.91881092093208" lon="9.43543968104445"><ele>412.5</ele><time>2026-04-04T08:58:04.999Z</time></trkpt><trkpt lat="44.91888127145948" lon="9.43529684348973"><ele>411.75</ele><time>2026-04-04T08:58:05.999Z</time></trkpt><trkpt lat="44.918942918799765" lon="9.435147346856686"><ele>411.0</ele><time>2026-04-04T08:58:06.999Z</time></trkpt><trkpt lat="44.91899035360973" lon="9.43499316911131"><ele>411.0</ele><time>2026-04-04T08:58:07.998Z</time></trkpt><trkpt lat="44.91903461733509" lon="9.43485238374023"><ele>411.0</ele><time>2026-04-04T08:58:08.998Z</time></trkpt><trkpt lat="44.91907161884992" lon="9.43471620717594"><ele>411.0</ele><time>2026-04-04T08:58:09.998Z</time></trkpt><trkpt lat="44.91910890417814" lon="9.434580436591576"><ele>411.0</ele><time>2026-04-04T08:58:10.998Z</time></trkpt><trkpt lat="44.91915033766753" lon="9.434434277720227"><ele>411.0</ele><time>2026-04-04T08:58:11.998Z</time></trkpt><trkpt lat="44.91919722660183" lon="9.434290295521597"><ele>411.6</ele><time>2026-04-04T08:58:12.998Z</time></trkpt><trkpt lat="44.919237569011514" lon="9.434158579185219"><ele>412.20000000000005</ele><time>2026-04-04T08:58:13.998Z</time></trkpt><trkpt lat="44.91926123754549" lon="9.434029820925797"><ele>412.79999999999995</ele><time>2026-04-04T08:58:14.998Z</time></trkpt><trkpt lat="44.91927915839206" lon="9.433902273373647"><ele>413.4</ele><time>2026-04-04T08:58:15.998Z</time></trkpt><trkpt lat="44.91929626990088" lon="9.433768685756469"><ele>414.0</ele><time>2026-04-04T08:58:16.998Z</time></trkpt><trkpt lat="44.91931517354736" lon="9.433635193372766"><ele>414.0</ele><time>2026-04-04T08:58:17.998Z</time></trkpt><trkpt lat="44.919344087872474" lon="9.433497249143896"><ele>414.0</ele><time>2026-04-04T08:58:18.998Z</time></trkpt><trkpt lat="44.91937379499251" lon="9.433362168424576"><ele>414.0</ele><time>2026-04-04T08:58:19.998Z</time></trkpt><trkpt lat="44.91941123464849" lon="9.433238257781573"><ele>414.0</ele><time>2026-04-04T08:58:20.998Z</time></trkpt><trkpt lat="44.91944771259643" lon="9.433131412291111"><ele>414.0</ele><time>2026-04-04T08:58:21.998Z</time></trkpt><trkpt lat="44.91948927361713" lon="9.43304872759252"><ele>414.00000000000006</ele><time>2026-04-04T08:58:22.998Z</time></trkpt><trkpt lat="44.91953550234819" lon="9.432980480326332"><ele>414.0</ele><time>2026-04-04T08:58:23.998Z</time></trkpt><trkpt lat="44.919589213573204" lon="9.432923802625925"><ele>414.0</ele><time>2026-04-04T08:58:26Z</time></trkpt><trkpt lat="44.919652739240455" lon="9.432855138922923"><ele>414.0</ele><time>2026-04-04T08:58:33Z</time></trkpt><trkpt lat="44.91971683799412" lon="9.432809304150782"><ele>414.0</ele><time>2026-04-04T08:58:36Z</time></trkpt><trkpt lat="44.91979198474686" lon="9.43278656812713"><ele>414.00000000000006</ele><time>2026-04-04T08:58:40Z</time></trkpt><trkpt lat="44.91986031160825" lon="9.432784963468517"><ele>414.0</ele><time>2026-04-04T08:58:43Z</time></trkpt><trkpt lat="44.919820810598544" lon="9.432688182887508"><ele>413.6666666666667</ele><time>2026-04-04T08:58:45Z</time></trkpt><trkpt lat="44.919865066429" lon="9.432622980609933"><ele>413.33333333333337</ele><time>2026-04-04T09:00:03.999Z</time></trkpt><trkpt lat="44.919836930558084" lon="9.432512181302803"><ele>413.0</ele><time>2026-04-04T09:00:09.999Z</time></trkpt><trkpt lat="44.91981005068971" lon="9.432417727606508"><ele>412.6666666666667</ele><time>2026-04-04T09:00:12.999Z</time></trkpt><trkpt lat="44.9197921602286" lon="9.43228936556706"><ele>412.33333333333337</ele><time>2026-04-04T09:00:14.999Z</time></trkpt><trkpt lat="44.919786211246205" lon="9.432179704396775"><ele>412.0</ele><time>2026-04-04T09:00:15.999Z</time></trkpt><trkpt lat="44.91977515948434" lon="9.432089140251078"><ele>411.6666666666667</ele><time>2026-04-04T09:00:16.998Z</time></trkpt><trkpt lat="44.919767293283556" lon="9.431996375330053"><ele>411.33333333333337</ele><time>2026-04-04T09:00:17.998Z</time></trkpt><trkpt lat="44.91976265026497" lon="9.431905854666422"><ele>411.0</ele><time>2026-04-04T09:00:18.998Z</time></trkpt><trkpt lat="44.919754688661186" lon="9.431813447885828"><ele>410.66666666666663</ele><time>2026-04-04T09:00:19.998Z</time></trkpt><trkpt lat="44.91975426559225" lon="9.431628632320976"><ele>410.3333333333333</ele><time>2026-04-04T09:00:21.998Z</time></trkpt><trkpt lat="44.91975139745158" lon="9.431522496126581"><ele>410.0</ele><time>2026-04-04T09:00:22.998Z</time></trkpt><trkpt lat="44.919759365470654" lon="9.431409914432425"><ele>408.6</ele><time>2026-04-04T09:00:23.998Z</time></trkpt><trkpt lat="44.91979064136709" lon="9.431283315280902"><ele>407.2</ele><time>2026-04-04T09:00:24.998Z</time></trkpt><trkpt lat="44.91986316418301" lon="9.431182480619565"><ele>405.79999999999995</ele><time>2026-04-04T09:00:25.998Z</time></trkpt><trkpt lat="44.9199373827816" lon="9.431079795526179"><ele>404.4</ele><time>2026-04-04T09:00:26.998Z</time></trkpt><trkpt lat="44.920003107878514" lon="9.430972512672342"><ele>403.0</ele><time>2026-04-04T09:00:27.998Z</time></trkpt><trkpt lat="44.92007750681688" lon="9.430891863795324"><ele>403.00000000000006</ele><time>2026-04-04T09:00:28.998Z</time></trkpt><trkpt lat="44.9201267645972" lon="9.430835645436707"><ele>403.0</ele><time>2026-04-04T09:00:29.998Z</time></trkpt><trkpt lat="44.920182224764766" lon="9.430765662661512"><ele>403.0</ele><time>2026-04-04T09:00:30.998Z</time></trkpt><trkpt lat="44.92023305405309" lon="9.430690755453897"><ele>403.0</ele><time>2026-04-04T09:00:32Z</time></trkpt><trkpt lat="44.9202768704519" lon="9.430602392199999"><ele>403.00000000000006</ele><time>2026-04-04T09:00:33Z</time></trkpt><trkpt lat="44.920302703634185" lon="9.430405664901638"><ele>403.0</ele><time>2026-04-04T09:00:35Z</time></trkpt><trkpt lat="44.9202663986672" lon="9.430290766512364"><ele>401.59999999999997</ele><time>2026-04-04T09:00:36Z</time></trkpt><trkpt lat="44.92021187351661" lon="9.430186925932402"><ele>400.2</ele><time>2026-04-04T09:00:37Z</time></trkpt><trkpt lat="44.92015004187009" lon="9.43007960624917"><ele>398.8</ele><time>2026-04-04T09:00:38Z</time></trkpt><trkpt lat="44.92006658783646" lon="9.429950003402844"><ele>397.4</ele><time>2026-04-04T09:00:39Z</time></trkpt><trkpt lat="44.91997546744048" lon="9.429861908941119"><ele>396.0</ele><time>2026-04-04T09:00:40Z</time></trkpt><trkpt lat="44.91989324245228" lon="9.429783229098476"><ele>395.6</ele><time>2026-04-04T09:00:41Z</time></trkpt><trkpt lat="44.919793354532814" lon="9.429752229398167"><ele>395.20000000000005</ele><time>2026-04-04T09:00:42Z</time></trkpt><trkpt lat="44.919702884550716" lon="9.429709059334884"><ele>394.79999999999995</ele><time>2026-04-04T09:00:43Z</time></trkpt><trkpt lat="44.91963016017418" lon="9.42963140439089"><ele>394.4</ele><time>2026-04-04T09:00:44Z</time></trkpt><trkpt lat="44.919601532875866" lon="9.429502913266344"><ele>394.0</ele><time>2026-04-04T09:00:45Z</time></trkpt><trkpt lat="44.91958440857584" lon="9.429326900039705"><ele>390.5</ele><time>2026-04-04T09:00:46Z</time></trkpt><trkpt lat="44.91957489372795" lon="9.42915341415256"><ele>387.0</ele><time>2026-04-04T09:00:47Z</time></trkpt><trkpt lat="44.91954628450095" lon="9.428967440871311"><ele>383.5</ele><time>2026-04-04T09:00:48Z</time></trkpt><trkpt lat="44.919523013334626" lon="9.428801466380312"><ele>380.0</ele><time>2026-04-04T09:00:49Z</time></trkpt><trkpt lat="44.91950304577129" lon="9.428632019309468"><ele>377.75</ele><time>2026-04-04T09:00:50Z</time></trkpt><trkpt lat="44.9194701507024" lon="9.428460764398269"><ele>375.5</ele><time>2026-04-04T09:00:51Z</time></trkpt><trkpt lat="44.919425536357956" lon="9.428286625658997"><ele>373.25</ele><time>2026-04-04T09:00:52Z</time></trkpt><trkpt lat="44.91937125613663" lon="9.428104596587888"><ele>371.0</ele><time>2026-04-04T09:00:53Z</time></trkpt><trkpt lat="44.91931760854992" lon="9.42794486696628"><ele>371.0</ele><time>2026-04-04T09:00:54Z</time></trkpt><trkpt lat="44.91927329415205" lon="9.4278024372073"><ele>371.0</ele><time>2026-04-04T09:00:55Z</time></trkpt><trkpt lat="44.919232840569414" lon="9.427649518636265"><ele>371.0</ele><time>2026-04-04T09:00:56Z</time></trkpt><trkpt lat="44.91919326002992" lon="9.42749531122949"><ele>371.0</ele><time>2026-04-04T09:00:57Z</time></trkpt><trkpt lat="44.919156091808645" lon="9.42733719388245"><ele>371.0</ele><time>2026-04-04T09:00:58Z</time></trkpt><trkpt lat="44.919134082947856" lon="9.427171269837189"><ele>371.0</ele><time>2026-04-04T09:00:59Z</time></trkpt><trkpt lat="44.91913999980413" lon="9.42700108440451"><ele>371.0</ele><time>2026-04-04T09:01:00Z</time></trkpt><trkpt lat="44.91918271174884" lon="9.4268395532824"><ele>371.0</ele><time>2026-04-04T09:01:01Z</time></trkpt><trkpt lat="44.91924784623563" lon="9.42670392117091"><ele>367.25</ele><time>2026-04-04T09:01:02Z</time></trkpt><trkpt lat="44.919320117699975" lon="9.426574489510427"><ele>363.5</ele><time>2026-04-04T09:01:03Z</time></trkpt><trkpt lat="44.919390490711606" lon="9.426449931131186"><ele>359.75</ele><time>2026-04-04T09:01:04Z</time></trkpt><trkpt lat="44.919469124230865" lon="9.426332760065641"><ele>356.0</ele><time>2026-04-04T09:01:05Z</time></trkpt><trkpt lat="44.9195467080358" lon="9.426217430223813"><ele>354.75</ele><time>2026-04-04T09:01:06Z</time></trkpt><trkpt lat="44.91962456619254" lon="9.426086435609694"><ele>353.5</ele><time>2026-04-04T09:01:07Z</time></trkpt><trkpt lat="44.91970247603919" lon="9.425959653092349"><ele>352.25</ele><time>2026-04-04T09:01:08Z</time></trkpt><trkpt lat="44.91978194768809" lon="9.425828224189498"><ele>351.0</ele><time>2026-04-04T09:01:09Z</time></trkpt><trkpt lat="44.91986275752986" lon="9.425696476071252"><ele>351.0</ele><time>2026-04-04T09:01:10Z</time></trkpt><trkpt lat="44.91994024878689" lon="9.425563610481897"><ele>351.0</ele><time>2026-04-04T09:01:11Z</time></trkpt><trkpt lat="44.920018245529064" lon="9.425431332451037"><ele>351.0</ele><time>2026-04-04T09:01:12Z</time></trkpt><trkpt lat="44.920098999864635" lon="9.425296916005564"><ele>351.0</ele><time>2026-04-04T09:01:13Z</time></trkpt><trkpt lat="44.920178024579236" lon="9.425160149316934"><ele>348.0</ele><time>2026-04-04T09:01:14Z</time></trkpt><trkpt lat="44.920249332648865" lon="9.425019417092402"><ele>345.0</ele><time>2026-04-04T09:01:15Z</time></trkpt><trkpt lat="44.92032287841279" lon="9.42487454706675"><ele>342.0</ele><time>2026-04-04T09:01:16Z</time></trkpt><trkpt lat="44.92038862229243" lon="9.424728115566902"><ele>339.0</ele><time>2026-04-04T09:01:17Z</time></trkpt><trkpt lat="44.92046436752299" lon="9.424582854546237"><ele>338.5</ele><time>2026-04-04T09:01:18Z</time></trkpt><trkpt lat="44.92054613443733" lon="9.424437877179914"><ele>338.0</ele><time>2026-04-04T09:01:18.999Z</time></trkpt><trkpt lat="44.92064189456005" lon="9.42431432110709"><ele>337.5</ele><time>2026-04-04T09:01:19.999Z</time></trkpt><trkpt lat="44.92074895610627" lon="9.424210631575576"><ele>337.0</ele><time>2026-04-04T09:01:20.999Z</time></trkpt><trkpt lat="44.92086298893213" lon="9.424113939164176"><ele>334.25</ele><time>2026-04-04T09:01:21.999Z</time></trkpt><trkpt lat="44.9209739767205" lon="9.424005551884743"><ele>331.5</ele><time>2026-04-04T09:01:22.999Z</time></trkpt><trkpt lat="44.92108747616868" lon="9.423904548974654"><ele>328.75</ele><time>2026-04-04T09:01:23.999Z</time></trkpt><trkpt lat="44.92119835441619" lon="9.423803046720776"><ele>326.0</ele><time>2026-04-04T09:01:24.999Z</time></trkpt><trkpt lat="44.921306524077686" lon="9.423702630068028"><ele>324.25</ele><time>2026-04-04T09:01:25.999Z</time></trkpt><trkpt lat="44.92141816408004" lon="9.423597630499039"><ele>322.5</ele><time>2026-04-04T09:01:26.999Z</time></trkpt><trkpt lat="44.92153813842067" lon="9.423492566892394"><ele>320.75</ele><time>2026-04-04T09:01:27.999Z</time></trkpt><trkpt lat="44.92165655494877" lon="9.42338370379804"><ele>319.0</ele><time>2026-04-04T09:01:28.999Z</time></trkpt><trkpt lat="44.92174935955544" lon="9.42328067942022"><ele>319.0</ele><time>2026-04-04T09:01:29.999Z</time></trkpt><trkpt lat="44.92186350965664" lon="9.42317223702587"><ele>319.0</ele><time>2026-04-04T09:01:30.999Z</time></trkpt><trkpt lat="44.92197704942552" lon="9.423049090925952"><ele>319.0</ele><time>2026-04-04T09:01:31.999Z</time></trkpt><trkpt lat="44.92208837925123" lon="9.422903778412632"><ele>319.0</ele><time>2026-04-04T09:01:32.999Z</time></trkpt><trkpt lat="44.92217148600688" lon="9.422742449747817"><ele>316.3333333333333</ele><time>2026-04-04T09:01:33.999Z</time></trkpt><trkpt lat="44.922234515608935" lon="9.422554994970787"><ele>313.6666666666667</ele><time>2026-04-04T09:01:34.999Z</time></trkpt><trkpt lat="44.9222888228153" lon="9.422328468600938"><ele>311.0</ele><time>2026-04-04T09:01:35.999Z</time></trkpt><trkpt lat="44.922340759731775" lon="9.42210061514449"><ele>310.0</ele><time>2026-04-04T09:01:36.999Z</time></trkpt><trkpt lat="44.922391638662134" lon="9.421892247497759"><ele>309.0</ele><time>2026-04-04T09:01:37.999Z</time></trkpt><trkpt lat="44.922440562113664" lon="9.421693853094382"><ele>308.0</ele><time>2026-04-04T09:01:38.999Z</time></trkpt><trkpt lat="44.922490261082196" lon="9.421506958748257"><ele>307.0</ele><time>2026-04-04T09:01:39.999Z</time></trkpt><trkpt lat="44.92255047554077" lon="9.42133226033963"><ele>304.25</ele><time>2026-04-04T09:01:40.999Z</time></trkpt><trkpt lat="44.92262617241163" lon="9.421162026710375"><ele>301.5</ele><time>2026-04-04T09:01:41.999Z</time></trkpt><trkpt lat="44.92271165781928" lon="9.421011002466914"><ele>298.75</ele><time>2026-04-04T09:01:42.999Z</time></trkpt><trkpt lat="44.92280423830537" lon="9.42085993430423"><ele>296.0</ele><time>2026-04-04T09:01:43.999Z</time></trkpt><trkpt lat="44.92289720159974" lon="9.420708178270987"><ele>296.0</ele><time>2026-04-04T09:01:44.999Z</time></trkpt><trkpt lat="44.922979837943465" lon="9.420568251875185"><ele>296.0</ele><time>2026-04-04T09:01:45.999Z</time></trkpt><trkpt lat="44.92304450318274" lon="9.420421092748333"><ele>296.0</ele><time>2026-04-04T09:01:46.999Z</time></trkpt><trkpt lat="44.923103464432984" lon="9.420267154887904"><ele>296.0</ele><time>2026-04-04T09:01:47.999Z</time></trkpt><trkpt lat="44.92314742175281" lon="9.420085252626968"><ele>294.5</ele><time>2026-04-04T09:01:48.999Z</time></trkpt><trkpt lat="44.92316870728806" lon="9.419908530308836"><ele>293.0</ele><time>2026-04-04T09:01:49.999Z</time></trkpt><trkpt lat="44.923179436186025" lon="9.41974379361001"><ele>291.5</ele><time>2026-04-04T09:01:50.999Z</time></trkpt><trkpt lat="44.92319377252772" lon="9.419574653195962"><ele>290.0</ele><time>2026-04-04T09:01:51.999Z</time></trkpt><trkpt lat="44.923216966285835" lon="9.419411698147709"><ele>288.5</ele><time>2026-04-04T09:01:52.999Z</time></trkpt><trkpt lat="44.923248010181936" lon="9.419251666906746"><ele>287.0</ele><time>2026-04-04T09:01:53.999Z</time></trkpt><trkpt lat="44.92326996577455" lon="9.419090873091417"><ele>285.5</ele><time>2026-04-04T09:01:54.999Z</time></trkpt><trkpt lat="44.92328571275649" lon="9.418921287914138"><ele>284.0</ele><time>2026-04-04T09:01:55.999Z</time></trkpt><trkpt lat="44.923269579915" lon="9.418751210464551"><ele>282.25</ele><time>2026-04-04T09:01:56.999Z</time></trkpt><trkpt lat="44.923228840109594" lon="9.418597190482151"><ele>280.5</ele><time>2026-04-04T09:01:57.999Z</time></trkpt><trkpt lat="44.92319970953566" lon="9.41843956367801"><ele>278.75</ele><time>2026-04-04T09:01:58.999Z</time></trkpt><trkpt lat="44.923153238748654" lon="9.418288781947547"><ele>277.0</ele><time>2026-04-04T09:01:59.999Z</time></trkpt><trkpt lat="44.92310208944449" lon="9.418139861749644"><ele>277.0</ele><time>2026-04-04T09:02:00.999Z</time></trkpt><trkpt lat="44.92305743175236" lon="9.417994348316848"><ele>277.0</ele><time>2026-04-04T09:02:01.999Z</time></trkpt><trkpt lat="44.92301626670781" lon="9.417840206507876"><ele>277.0</ele><time>2026-04-04T09:02:02.999Z</time></trkpt><trkpt lat="44.92296949864505" lon="9.41768473842794"><ele>277.0</ele><time>2026-04-04T09:02:03.999Z</time></trkpt><trkpt lat="44.9229206295275" lon="9.41752515455808"><ele>274.0</ele><time>2026-04-04T09:02:04.999Z</time></trkpt><trkpt lat="44.92285137279463" lon="9.417379660359316"><ele>271.0</ele><time>2026-04-04T09:02:05.999Z</time></trkpt><trkpt lat="44.92277703623976" lon="9.417230844433144"><ele>268.0</ele><time>2026-04-04T09:02:06.999Z</time></trkpt><trkpt lat="44.92268791452081" lon="9.417095937942227"><ele>265.0</ele><time>2026-04-04T09:02:07.999Z</time></trkpt><trkpt lat="44.92261069492065" lon="9.416946230758665"><ele>264.0</ele><time>2026-04-04T09:02:08.999Z</time></trkpt><trkpt lat="44.92252933320151" lon="9.416788641126033"><ele>263.0</ele><time>2026-04-04T09:02:09.999Z</time></trkpt><trkpt lat="44.92245096461257" lon="9.416639754170212"><ele>262.0</ele><time>2026-04-04T09:02:10.999Z</time></trkpt><trkpt lat="44.92237024737652" lon="9.416492708848121"><ele>261.0</ele><time>2026-04-04T09:02:11.999Z</time></trkpt><trkpt lat="44.92230281146784" lon="9.416352059958271"><ele>259.8</ele><time>2026-04-04T09:02:12.999Z</time></trkpt><trkpt lat="44.92224548269686" lon="9.416214288062788"><ele>258.6</ele><time>2026-04-04T09:02:13.999Z</time></trkpt><trkpt lat="44.92220758083498" lon="9.416067474936748"><ele>257.4</ele><time>2026-04-04T09:02:14.999Z</time></trkpt><trkpt lat="44.92218241056703" lon="9.41591207949198"><ele>256.2</ele><time>2026-04-04T09:02:15.999Z</time></trkpt><trkpt lat="44.92219044205898" lon="9.415764371754648"><ele>255.0</ele><time>2026-04-04T09:02:16.999Z</time></trkpt><trkpt lat="44.922220216231224" lon="9.41563219667099"><ele>255.0</ele><time>2026-04-04T09:02:17.999Z</time></trkpt><trkpt lat="44.92226905920536" lon="9.415512905720544"><ele>255.0</ele><time>2026-04-04T09:02:18.999Z</time></trkpt><trkpt lat="44.92234653306978" lon="9.415442618817103"><ele>255.0</ele><time>2026-04-04T09:02:19.999Z</time></trkpt><trkpt lat="44.922443524924226" lon="9.41541738967586"><ele>255.0</ele><time>2026-04-04T09:02:20.999Z</time></trkpt><trkpt lat="44.92255572277477" lon="9.415416101190823"><ele>255.0</ele><time>2026-04-04T09:02:21.999Z</time></trkpt><trkpt lat="44.92266690403376" lon="9.415412845456508"><ele>251.6</ele><time>2026-04-04T09:02:22.999Z</time></trkpt><trkpt lat="44.9227756761517" lon="9.415407897619108"><ele>248.2</ele><time>2026-04-04T09:02:23.998Z</time></trkpt><trkpt lat="44.92288873706883" lon="9.415401961765808"><ele>244.8</ele><time>2026-04-04T09:02:24.998Z</time></trkpt><trkpt lat="44.92298601731426" lon="9.415380967674896"><ele>241.4</ele><time>2026-04-04T09:02:25.998Z</time></trkpt><trkpt lat="44.923069120361674" lon="9.415351016611076"><ele>238.0</ele><time>2026-04-04T09:02:26.998Z</time></trkpt><trkpt lat="44.92314095947553" lon="9.41528439700909"><ele>238.0</ele><time>2026-04-04T09:02:27.998Z</time></trkpt><trkpt lat="44.92318469767176" lon="9.415167072343882"><ele>238.0</ele><time>2026-04-04T09:02:28.998Z</time></trkpt><trkpt lat="44.92321439451774" lon="9.415041533232316"><ele>238.0</ele><time>2026-04-04T09:02:29.998Z</time></trkpt><trkpt lat="44.92319694091325" lon="9.414879619889293"><ele>238.0</ele><time>2026-04-04T09:02:30.998Z</time></trkpt><trkpt lat="44.92316050529933" lon="9.414715217531757"><ele>238.0</ele><time>2026-04-04T09:02:31.998Z</time></trkpt><trkpt lat="44.92312435497162" lon="9.414559823392434"><ele>236.8</ele><time>2026-04-04T09:02:32.998Z</time></trkpt><trkpt lat="44.9230906793384" lon="9.41441500297614"><ele>235.60000000000002</ele><time>2026-04-04T09:02:33.998Z</time></trkpt><trkpt lat="44.923064751681444" lon="9.414268425552223"><ele>234.39999999999998</ele><time>2026-04-04T09:02:34.998Z</time></trkpt><trkpt lat="44.92304309049902" lon="9.414131042911515"><ele>233.2</ele><time>2026-04-04T09:02:35.998Z</time></trkpt><trkpt lat="44.92304364640732" lon="9.413979022152926"><ele>232.0</ele><time>2026-04-04T09:02:36.998Z</time></trkpt><trkpt lat="44.923031607347816" lon="9.413848987975712"><ele>230.6</ele><time>2026-04-04T09:02:38Z</time></trkpt><trkpt lat="44.92300438363119" lon="9.413714125065164"><ele>229.2</ele><time>2026-04-04T09:02:39Z</time></trkpt><trkpt lat="44.92291487020445" lon="9.413627028311277"><ele>227.8</ele><time>2026-04-04T09:02:40Z</time></trkpt><trkpt lat="44.92283276705523" lon="9.413568752889006"><ele>226.4</ele><time>2026-04-04T09:02:41Z</time></trkpt><trkpt lat="44.92275911022663" lon="9.413514328799891"><ele>225.0</ele><time>2026-04-04T09:02:42Z</time></trkpt><trkpt lat="44.922691971570224" lon="9.41346490868586"><ele>225.0</ele><time>2026-04-04T09:02:43Z</time></trkpt><trkpt lat="44.92262933839175" lon="9.41341616689048"><ele>225.0</ele><time>2026-04-04T09:02:44Z</time></trkpt><trkpt lat="44.922573971321114" lon="9.41337241604464"><ele>225.0</ele><time>2026-04-04T09:02:45Z</time></trkpt><trkpt lat="44.92248701578289" lon="9.413316570269188"><ele>225.0</ele><time>2026-04-04T09:02:47Z</time></trkpt><trkpt lat="44.92241464886732" lon="9.413252238603162"><ele>225.0</ele><time>2026-04-04T09:02:50Z</time></trkpt><trkpt lat="44.922363570401224" lon="9.41318011345328"><ele>225.0</ele><time>2026-04-04T09:02:53Z</time></trkpt><trkpt lat="44.92231144378585" lon="9.413106847652749"><ele>225.0</ele><time>2026-04-04T09:02:55Z</time></trkpt><trkpt lat="44.922190707322606" lon="9.413142071547995"><ele>225.0</ele><time>2026-04-04T09:02:56Z</time></trkpt><trkpt lat="44.92210610963037" lon="9.413187237857452"><ele>225.0</ele><time>2026-04-04T09:02:58Z</time></trkpt><trkpt lat="44.92201242774225" lon="9.413229398996855"><ele>225.0</ele><time>2026-04-04T09:03:00Z</time></trkpt><trkpt lat="44.921906395494396" lon="9.413267271669135"><ele>225.0</ele><time>2026-04-04T09:03:02Z</time></trkpt><trkpt lat="44.92184322493774" lon="9.413276800640126"><ele>225.0</ele><time>2026-04-04T09:03:03Z</time></trkpt><trkpt lat="44.92177284033173" lon="9.41328023798074"><ele>225.0</ele><time>2026-04-04T09:03:04Z</time></trkpt><trkpt lat="44.921691345538655" lon="9.413283806708272"><ele>225.0</ele><time>2026-04-04T09:03:05Z</time></trkpt><trkpt lat="44.92159007976087" lon="9.41329501463868"><ele>225.0</ele><time>2026-04-04T09:03:06Z</time></trkpt><trkpt lat="44.92150238163185" lon="9.41333582976658"><ele>225.0</ele><time>2026-04-04T09:03:07Z</time></trkpt><trkpt lat="44.9214080306249" lon="9.413358220031169"><ele>225.0</ele><time>2026-04-04T09:03:08Z</time></trkpt><trkpt lat="44.921313321212615" lon="9.413376468169547"><ele>225.66666666666666</ele><time>2026-04-04T09:03:09Z</time></trkpt><trkpt lat="44.921225185463555" lon="9.413387856645077"><ele>226.33333333333331</ele><time>2026-04-04T09:03:10Z</time></trkpt><trkpt lat="44.92114277733243" lon="9.413395597838214"><ele>227.0</ele><time>2026-04-04T09:03:11Z</time></trkpt><trkpt lat="44.92106602486202" lon="9.413394335370558"><ele>227.66666666666666</ele><time>2026-04-04T09:03:12Z</time></trkpt><trkpt lat="44.92099360556248" lon="9.413393794593254"><ele>228.33333333333331</ele><time>2026-04-04T09:03:13Z</time></trkpt><trkpt lat="44.920915659711184" lon="9.413390792970212"><ele>229.0</ele><time>2026-04-04T09:03:14Z</time></trkpt><trkpt lat="44.920838219201315" lon="9.413408410758063"><ele>228.99999999999997</ele><time>2026-04-04T09:03:15Z</time></trkpt><trkpt lat="44.920754743231534" lon="9.413430004968095"><ele>229.0</ele><time>2026-04-04T09:03:16Z</time></trkpt><trkpt lat="44.92067167515205" lon="9.413462715076088"><ele>229.0</ele><time>2026-04-04T09:03:17Z</time></trkpt><trkpt lat="44.9205899608483" lon="9.413497502685226"><ele>229.0</ele><time>2026-04-04T09:03:18Z</time></trkpt><trkpt lat="44.920502802741616" lon="9.413532274957555"><ele>228.99999999999997</ele><time>2026-04-04T09:03:19Z</time></trkpt><trkpt lat="44.92042299385436" lon="9.413591783591354"><ele>229.0</ele><time>2026-04-04T09:03:20Z</time></trkpt><trkpt lat="44.92035535194776" lon="9.413680792344804"><ele>229.0</ele><time>2026-04-04T09:03:21Z</time></trkpt><trkpt lat="44.920293553247745" lon="9.413774720663525"><ele>228.99999999999997</ele><time>2026-04-04T09:03:22Z</time></trkpt><trkpt lat="44.92024835045093" lon="9.413898945719348"><ele>228.99999999999997</ele><time>2026-04-04T09:03:23Z</time></trkpt><trkpt lat="44.920203150891275" lon="9.414034605967679"><ele>229.0</ele><time>2026-04-04T09:03:23.999Z</time></trkpt><trkpt lat="44.920174851873604" lon="9.414184498482898"><ele>229.0</ele><time>2026-04-04T09:03:24.999Z</time></trkpt><trkpt lat="44.920157538582" lon="9.414348546409324"><ele>229.75</ele><time>2026-04-04T09:03:25.999Z</time></trkpt><trkpt lat="44.92009812884118" lon="9.414489755362517"><ele>230.5</ele><time>2026-04-04T09:03:26.999Z</time></trkpt><trkpt lat="44.92003847022975" lon="9.414625487394384"><ele>231.25</ele><time>2026-04-04T09:03:27.999Z</time></trkpt><trkpt lat="44.91994318234132" lon="9.414743732935023"><ele>232.0</ele><time>2026-04-04T09:03:28.999Z</time></trkpt><trkpt lat="44.9198387976695" lon="9.414891578095327"><ele>233.66666666666666</ele><time>2026-04-04T09:03:29.999Z</time></trkpt><trkpt lat="44.91971334848522" lon="9.415015624279796"><ele>235.33333333333331</ele><time>2026-04-04T09:03:30.999Z</time></trkpt><trkpt lat="44.919603938352346" lon="9.415158416180642"><ele>237.0</ele><time>2026-04-04T09:03:31.999Z</time></trkpt><trkpt lat="44.91948243025049" lon="9.415305688220714"><ele>237.0</ele><time>2026-04-04T09:03:32.999Z</time></trkpt><trkpt lat="44.91934860922966" lon="9.415454281636967"><ele>237.0</ele><time>2026-04-04T09:03:33.999Z</time></trkpt><trkpt lat="44.91921432513162" lon="9.4155897556851"><ele>237.0</ele><time>2026-04-04T09:03:34.999Z</time></trkpt><trkpt lat="44.919084811455804" lon="9.415700481317755"><ele>236.25</ele><time>2026-04-04T09:03:35.999Z</time></trkpt><trkpt lat="44.91896771964682" lon="9.415813384820838"><ele>235.5</ele><time>2026-04-04T09:03:36.999Z</time></trkpt><trkpt lat="44.918859638254354" lon="9.415920077251844"><ele>234.75</ele><time>2026-04-04T09:03:37.999Z</time></trkpt><trkpt lat="44.91875514528924" lon="9.41604165835275"><ele>234.0</ele><time>2026-04-04T09:03:38.999Z</time></trkpt><trkpt lat="44.918654839229376" lon="9.416191525269356"><ele>235.0</ele><time>2026-04-04T09:03:39.999Z</time></trkpt><trkpt lat="44.91856225780195" lon="9.416361519403646"><ele>236.0</ele><time>2026-04-04T09:03:40.999Z</time></trkpt><trkpt lat="44.91845221886676" lon="9.416526565495891"><ele>237.0</ele><time>2026-04-04T09:03:41.999Z</time></trkpt><trkpt lat="44.918368378850566" lon="9.416709773217207"><ele>237.0</ele><time>2026-04-04T09:03:42.999Z</time></trkpt><trkpt lat="44.918269264297464" lon="9.41686858635967"><ele>237.0</ele><time>2026-04-04T09:03:43.999Z</time></trkpt><trkpt lat="44.91818162051367" lon="9.417019766703985"><ele>237.0</ele><time>2026-04-04T09:03:44.999Z</time></trkpt><trkpt lat="44.91806692833831" lon="9.417141162403"><ele>237.0</ele><time>2026-04-04T09:03:45.999Z</time></trkpt><trkpt lat="44.917962458679135" lon="9.417260742270937"><ele>237.25</ele><time>2026-04-04T09:03:46.999Z</time></trkpt><trkpt lat="44.9178491173666" lon="9.417377736581495"><ele>237.5</ele><time>2026-04-04T09:03:47.999Z</time></trkpt><trkpt lat="44.91772612072911" lon="9.417495773235721"><ele>237.75</ele><time>2026-04-04T09:03:48.999Z</time></trkpt><trkpt lat="44.917596555244415" lon="9.417598812376866"><ele>238.0</ele><time>2026-04-04T09:03:49.999Z</time></trkpt><trkpt lat="44.91745048594932" lon="9.417689230383921"><ele>238.0</ele><time>2026-04-04T09:03:50.999Z</time></trkpt><trkpt lat="44.91726181181793" lon="9.417806705967202"><ele>238.0</ele><time>2026-04-04T09:03:51.999Z</time></trkpt><trkpt lat="44.917061777726865" lon="9.417898089464652"><ele>238.0</ele><time>2026-04-04T09:03:52.999Z</time></trkpt><trkpt lat="44.91689146479798" lon="9.41797570263291"><ele>238.0</ele><time>2026-04-04T09:03:53.999Z</time></trkpt><trkpt lat="44.91672004708885" lon="9.417984043875292"><ele>238.0</ele><time>2026-04-04T09:03:54.999Z</time></trkpt><trkpt lat="44.916527836139075" lon="9.41799642420007"><ele>238.0</ele><time>2026-04-04T09:03:55.999Z</time></trkpt><trkpt lat="44.91632227297099" lon="9.417943288995552"><ele>238.0</ele><time>2026-04-04T09:03:56.999Z</time></trkpt><trkpt lat="44.916148429959016" lon="9.41786685308643"><ele>238.0</ele><time>2026-04-04T09:03:57.999Z</time></trkpt><trkpt lat="44.91598813223286" lon="9.417808517255086"><ele>238.0</ele><time>2026-04-04T09:03:58.999Z</time></trkpt><trkpt lat="44.91583382232403" lon="9.417753235496118"><ele>238.75</ele><time>2026-04-04T09:03:59.999Z</time></trkpt><trkpt lat="44.915680370395314" lon="9.417711184885688"><ele>239.5</ele><time>2026-04-04T09:04:00.999Z</time></trkpt><trkpt lat="44.91554461432758" lon="9.417670400219691"><ele>240.25</ele><time>2026-04-04T09:04:01.999Z</time></trkpt><trkpt lat="44.91541989075949" lon="9.417628338034495"><ele>241.0</ele><time>2026-04-04T09:04:02.999Z</time></trkpt><trkpt lat="44.91530064700851" lon="9.417590755065849"><ele>241.0</ele><time>2026-04-04T09:04:03.999Z</time></trkpt><trkpt lat="44.91517528395174" lon="9.417565128267915"><ele>241.0</ele><time>2026-04-04T09:04:04.999Z</time></trkpt><trkpt lat="44.91504168532537" lon="9.417533285204236"><ele>241.0</ele><time>2026-04-04T09:04:05.999Z</time></trkpt><trkpt lat="44.914874823298916" lon="9.417553458889623"><ele>241.0</ele><time>2026-04-04T09:04:06.999Z</time></trkpt><trkpt lat="44.91472811509756" lon="9.4175528696499"><ele>241.25</ele><time>2026-04-04T09:04:07.999Z</time></trkpt><trkpt lat="44.91459224440229" lon="9.417566836873187"><ele>241.5</ele><time>2026-04-04T09:04:08.999Z</time></trkpt><trkpt lat="44.91446542824818" lon="9.417579725227096"><ele>241.75</ele><time>2026-04-04T09:04:09.999Z</time></trkpt><trkpt lat="44.91434316034585" lon="9.417589203194312"><ele>242.0</ele><time>2026-04-04T09:04:10.999Z</time></trkpt><trkpt lat="44.91423420966576" lon="9.417577014020027"><ele>243.5</ele><time>2026-04-04T09:04:11.999Z</time></trkpt><trkpt lat="44.914130697737356" lon="9.417523550756481"><ele>245.0</ele><time>2026-04-04T09:04:12.999Z</time></trkpt><trkpt lat="44.9140275744497" lon="9.417432811116706"><ele>246.5</ele><time>2026-04-04T09:04:13.999Z</time></trkpt><trkpt lat="44.91393097818148" lon="9.417315022156634"><ele>248.0</ele><time>2026-04-04T09:04:14.999Z</time></trkpt><trkpt lat="44.91383686395964" lon="9.417159009840416"><ele>245.75</ele><time>2026-04-04T09:04:15.999Z</time></trkpt><trkpt lat="44.91375815602252" lon="9.416993153200076"><ele>243.5</ele><time>2026-04-04T09:04:16.999Z</time></trkpt><trkpt lat="44.91369687972565" lon="9.416831310313713"><ele>241.25</ele><time>2026-04-04T09:04:17.999Z</time></trkpt><trkpt lat="44.91368012287771" lon="9.416640978821539"><ele>239.0</ele><time>2026-04-04T09:04:18.999Z</time></trkpt><trkpt lat="44.913664396793294" lon="9.41644434306588"><ele>240.75</ele><time>2026-04-04T09:04:19.999Z</time></trkpt><trkpt lat="44.91364374935968" lon="9.416278557407228"><ele>242.5</ele><time>2026-04-04T09:04:20.999Z</time></trkpt><trkpt lat="44.91363097507991" lon="9.416101961852032"><ele>244.25</ele><time>2026-04-04T09:04:21.999Z</time></trkpt><trkpt lat="44.91362293861948" lon="9.415941343849356"><ele>246.0</ele><time>2026-04-04T09:04:22.999Z</time></trkpt><trkpt lat="44.913631125088095" lon="9.415782305738679"><ele>246.0</ele><time>2026-04-04T09:04:23.999Z</time></trkpt><trkpt lat="44.91362267989421" lon="9.415643706232999"><ele>246.0</ele><time>2026-04-04T09:04:24.999Z</time></trkpt><trkpt lat="44.91361317605362" lon="9.415543839806684"><ele>246.0</ele><time>2026-04-04T09:04:25.999Z</time></trkpt><trkpt lat="44.91353368431975" lon="9.415414744291718"><ele>246.0</ele><time>2026-04-04T09:04:27.999Z</time></trkpt><trkpt lat="44.91346045788238" lon="9.415396963357118"><ele>246.0</ele><time>2026-04-04T09:04:28.999Z</time></trkpt><trkpt lat="44.91339034115229" lon="9.415336681127958"><ele>246.0</ele><time>2026-04-04T09:04:29.998Z</time></trkpt><trkpt lat="44.913281259708704" lon="9.415246276500701"><ele>250.0</ele><time>2026-04-04T09:04:30.998Z</time></trkpt><trkpt lat="44.91317578273354" lon="9.415093280933117"><ele>254.0</ele><time>2026-04-04T09:04:31.998Z</time></trkpt><trkpt lat="44.9130600030112" lon="9.414947248056956"><ele>258.0</ele><time>2026-04-04T09:04:32.998Z</time></trkpt><trkpt lat="44.912886080065476" lon="9.414824139244024"><ele>258.0</ele><time>2026-04-04T09:04:33.998Z</time></trkpt><trkpt lat="44.912677242053654" lon="9.414705673894227"><ele>258.0</ele><time>2026-04-04T09:04:34.998Z</time></trkpt><trkpt lat="44.912489848705235" lon="9.41461054128554"><ele>258.0</ele><time>2026-04-04T09:04:35.998Z</time></trkpt><trkpt lat="44.91232427656087" lon="9.414552063471954"><ele>258.75</ele><time>2026-04-04T09:04:36.998Z</time></trkpt><trkpt lat="44.912176343359164" lon="9.414473086228352"><ele>259.5</ele><time>2026-04-04T09:04:37.998Z</time></trkpt><trkpt lat="44.91204547354886" lon="9.41439754010116"><ele>260.25</ele><time>2026-04-04T09:04:38.998Z</time></trkpt><trkpt lat="44.91191295278243" lon="9.414316298165017"><ele>261.0</ele><time>2026-04-04T09:04:39.998Z</time></trkpt><trkpt lat="44.911779186813966" lon="9.414255238333352"><ele>259.25</ele><time>2026-04-04T09:04:40.998Z</time></trkpt><trkpt lat="44.91164927738732" lon="9.414183552747653"><ele>257.5</ele><time>2026-04-04T09:04:41.998Z</time></trkpt><trkpt lat="44.911527454073706" lon="9.41413706682724"><ele>255.75</ele><time>2026-04-04T09:04:42.998Z</time></trkpt><trkpt lat="44.911417196322816" lon="9.414062721138567"><ele>254.0</ele><time>2026-04-04T09:04:44Z</time></trkpt><trkpt lat="44.911286320586484" lon="9.414001462659693"><ele>254.0</ele><time>2026-04-04T09:04:45Z</time></trkpt><trkpt lat="44.911164392221224" lon="9.41391373761442"><ele>254.0</ele><time>2026-04-04T09:04:46Z</time></trkpt><trkpt lat="44.9110480363131" lon="9.413820397337549"><ele>254.0</ele><time>2026-04-04T09:04:47Z</time></trkpt><trkpt lat="44.910931209158065" lon="9.413712446364022"><ele>254.0</ele><time>2026-04-04T09:04:48Z</time></trkpt><trkpt lat="44.910828319153545" lon="9.413628176707528"><ele>255.0</ele><time>2026-04-04T09:04:49Z</time></trkpt><trkpt lat="44.910736735551076" lon="9.413560978538522"><ele>255.99999999999997</ele><time>2026-04-04T09:04:50Z</time></trkpt><trkpt lat="44.91064873867066" lon="9.413482414963909"><ele>257.0</ele><time>2026-04-04T09:04:51Z</time></trkpt><trkpt lat="44.91055840272605" lon="9.41342163245736"><ele>258.0</ele><time>2026-04-04T09:04:52Z</time></trkpt><trkpt lat="44.910456960426075" lon="9.413371606889982"><ele>259.0</ele><time>2026-04-04T09:04:53Z</time></trkpt><trkpt lat="44.91034919184044" lon="9.413321276625428"><ele>259.0</ele><time>2026-04-04T09:04:54Z</time></trkpt><trkpt lat="44.91023803209803" lon="9.413282021822978"><ele>259.0</ele><time>2026-04-04T09:04:55Z</time></trkpt><trkpt lat="44.91014009798814" lon="9.413259797564098"><ele>259.0</ele><time>2026-04-04T09:04:56Z</time></trkpt><trkpt lat="44.91005143758108" lon="9.413225774519773"><ele>259.0</ele><time>2026-04-04T09:04:57Z</time></trkpt><trkpt lat="44.909969201042564" lon="9.413182181738588"><ele>259.0</ele><time>2026-04-04T09:04:58Z</time></trkpt><trkpt lat="44.90990506233694" lon="9.413148031932165"><ele>259.2</ele><time>2026-04-04T09:04:59Z</time></trkpt><trkpt lat="44.909838123002054" lon="9.413100022370367"><ele>259.4</ele><time>2026-04-04T09:05:00Z</time></trkpt><trkpt lat="44.90974036307768" lon="9.413024451317938"><ele>259.6</ele><time>2026-04-04T09:05:02Z</time></trkpt><trkpt lat="44.90970204707177" lon="9.412928275025436"><ele>259.8</ele><time>2026-04-04T09:05:03Z</time></trkpt><trkpt lat="44.90965750514001" lon="9.412788834971513"><ele>260.0</ele><time>2026-04-04T09:05:04Z</time></trkpt><trkpt lat="44.90959999086569" lon="9.412656606768488"><ele>260.0</ele><time>2026-04-04T09:05:05Z</time></trkpt><trkpt lat="44.90953913810095" lon="9.412543858194915"><ele>260.0</ele><time>2026-04-04T09:05:06Z</time></trkpt><trkpt lat="44.909480666149626" lon="9.412445052057327"><ele>260.0</ele><time>2026-04-04T09:05:07Z</time></trkpt><trkpt lat="44.9094136359893" lon="9.412338711926978"><ele>260.0</ele><time>2026-04-04T09:05:08Z</time></trkpt><trkpt lat="44.909336576091796" lon="9.412236861372953"><ele>260.0</ele><time>2026-04-04T09:05:09Z</time></trkpt><trkpt lat="44.909251729974464" lon="9.412143970545284"><ele>262.25</ele><time>2026-04-04T09:05:10Z</time></trkpt><trkpt lat="44.90916788574084" lon="9.41204427994409"><ele>264.5</ele><time>2026-04-04T09:05:11Z</time></trkpt><trkpt lat="44.90908078577637" lon="9.411929684960331"><ele>266.75</ele><time>2026-04-04T09:05:12Z</time></trkpt><trkpt lat="44.90899006039025" lon="9.411845316922589"><ele>269.0</ele><time>2026-04-04T09:05:13Z</time></trkpt><trkpt lat="44.908893953013646" lon="9.411747916067197"><ele>269.0</ele><time>2026-04-04T09:05:14Z</time></trkpt><trkpt lat="44.90878292061828" lon="9.411673125197792"><ele>269.0</ele><time>2026-04-04T09:05:15Z</time></trkpt><trkpt lat="44.90866418653358" lon="9.411545174278265"><ele>269.0</ele><time>2026-04-04T09:05:16Z</time></trkpt><trkpt lat="44.9085353751826" lon="9.411448513828486"><ele>269.0</ele><time>2026-04-04T09:05:17Z</time></trkpt><trkpt lat="44.9083981409396" lon="9.411362551678"><ele>273.5</ele><time>2026-04-04T09:05:18Z</time></trkpt><trkpt lat="44.908248890495614" lon="9.4112876935242"><ele>278.0</ele><time>2026-04-04T09:05:19Z</time></trkpt><trkpt lat="44.908116919077834" lon="9.411224565244986"><ele>282.5</ele><time>2026-04-04T09:05:20Z</time></trkpt><trkpt lat="44.907985255522945" lon="9.41115606377052"><ele>287.0</ele><time>2026-04-04T09:05:21Z</time></trkpt><trkpt lat="44.907865173737505" lon="9.41110079730556"><ele>287.0</ele><time>2026-04-04T09:05:22Z</time></trkpt><trkpt lat="44.907734117522146" lon="9.411049424520975"><ele>287.0</ele><time>2026-04-04T09:05:23Z</time></trkpt><trkpt lat="44.90759943706415" lon="9.411010604096163"><ele>287.0</ele><time>2026-04-04T09:05:24Z</time></trkpt><trkpt lat="44.90746699479736" lon="9.410978887657835"><ele>287.0</ele><time>2026-04-04T09:05:25Z</time></trkpt><trkpt lat="44.90733691107543" lon="9.410935288927725"><ele>285.5</ele><time>2026-04-04T09:05:26Z</time></trkpt><trkpt lat="44.90721173654358" lon="9.41088580253011"><ele>284.0</ele><time>2026-04-04T09:05:27Z</time></trkpt><trkpt lat="44.907080587165694" lon="9.410852327746467"><ele>282.5</ele><time>2026-04-04T09:05:28Z</time></trkpt><trkpt lat="44.90691187146349" lon="9.410811678154515"><ele>281.0</ele><time>2026-04-04T09:05:28.999Z</time></trkpt><trkpt lat="44.90674911638228" lon="9.410815799408422"><ele>281.6666666666667</ele><time>2026-04-04T09:05:29.999Z</time></trkpt><trkpt lat="44.90656037137289" lon="9.410830661753147"><ele>282.3333333333333</ele><time>2026-04-04T09:05:30.999Z</time></trkpt><trkpt lat="44.906378877362684" lon="9.410859282873535"><ele>283.0</ele><time>2026-04-04T09:05:31.999Z</time></trkpt><trkpt lat="44.90620459865558" lon="9.410853039421328"><ele>283.0</ele><time>2026-04-04T09:05:32.999Z</time></trkpt><trkpt lat="44.90602902266731" lon="9.410933667956352"><ele>283.0</ele><time>2026-04-04T09:05:33.999Z</time></trkpt><trkpt lat="44.9058703990323" lon="9.410988893989101"><ele>283.0</ele><time>2026-04-04T09:05:34.999Z</time></trkpt><trkpt lat="44.905727159299545" lon="9.411022968127932"><ele>284.8</ele><time>2026-04-04T09:05:35.999Z</time></trkpt><trkpt lat="44.90559940586834" lon="9.411032218350948"><ele>286.6</ele><time>2026-04-04T09:05:36.999Z</time></trkpt><trkpt lat="44.905489129632365" lon="9.41101158076484"><ele>288.4</ele><time>2026-04-04T09:05:37.999Z</time></trkpt><trkpt lat="44.90539417833165" lon="9.410945738235846"><ele>290.2</ele><time>2026-04-04T09:05:38.999Z</time></trkpt><trkpt lat="44.90531587227973" lon="9.410855153241728"><ele>292.0</ele><time>2026-04-04T09:05:39.999Z</time></trkpt><trkpt lat="44.905223831889096" lon="9.410752830934435"><ele>292.0</ele><time>2026-04-04T09:05:40.999Z</time></trkpt><trkpt lat="44.905144773572495" lon="9.410587910817538"><ele>292.0</ele><time>2026-04-04T09:05:41.999Z</time></trkpt><trkpt lat="44.90511543432456" lon="9.41039814643964"><ele>292.0</ele><time>2026-04-04T09:05:42.999Z</time></trkpt><trkpt lat="44.90503724832818" lon="9.41022967064698"><ele>292.0</ele><time>2026-04-04T09:05:43.999Z</time></trkpt><trkpt lat="44.90492069936115" lon="9.410092153834086"><ele>292.66666666666663</ele><time>2026-04-04T09:05:44.999Z</time></trkpt><trkpt lat="44.90476117763134" lon="9.409947014388937"><ele>293.3333333333333</ele><time>2026-04-04T09:05:45.999Z</time></trkpt><trkpt lat="44.90457081418905" lon="9.409851264518851"><ele>294.0</ele><time>2026-04-04T09:05:46.999Z</time></trkpt><trkpt lat="44.90442795467377" lon="9.409741346399512"><ele>294.0</ele><time>2026-04-04T09:05:47.999Z</time></trkpt><trkpt lat="44.90428555887222" lon="9.409671775724899"><ele>294.0</ele><time>2026-04-04T09:05:48.999Z</time></trkpt><trkpt lat="44.904164191850185" lon="9.409591977561142"><ele>294.0</ele><time>2026-04-04T09:05:49.999Z</time></trkpt><trkpt lat="44.90405481075995" lon="9.40952213022337"><ele>294.0</ele><time>2026-04-04T09:05:50.999Z</time></trkpt><trkpt lat="44.90394098201452" lon="9.409495469205206"><ele>294.2</ele><time>2026-04-04T09:05:51.999Z</time></trkpt><trkpt lat="44.90383662762893" lon="9.40946214701759"><ele>294.4</ele><time>2026-04-04T09:05:52.999Z</time></trkpt><trkpt lat="44.903725507278956" lon="9.409473848709554"><ele>294.6</ele><time>2026-04-04T09:05:53.999Z</time></trkpt><trkpt lat="44.90361398242667" lon="9.409489023298903"><ele>294.8</ele><time>2026-04-04T09:05:54.999Z</time></trkpt><trkpt lat="44.90350026451041" lon="9.409503458257083"><ele>295.0</ele><time>2026-04-04T09:05:55.999Z</time></trkpt><trkpt lat="44.903377321930805" lon="9.40952449433452"><ele>295.5</ele><time>2026-04-04T09:05:56.999Z</time></trkpt><trkpt lat="44.90326523891986" lon="9.409594545465517"><ele>296.0</ele><time>2026-04-04T09:05:57.999Z</time></trkpt><trkpt lat="44.90315680278532" lon="9.409690705746492"><ele>296.5</ele><time>2026-04-04T09:05:58.999Z</time></trkpt><trkpt lat="44.903071834119956" lon="9.409834802114622"><ele>297.0</ele><time>2026-04-04T09:05:59.999Z</time></trkpt><trkpt lat="44.90302466699142" lon="9.41001446695704"><ele>295.2</ele><time>2026-04-04T09:06:00.999Z</time></trkpt><trkpt lat="44.903011318078356" lon="9.410223764840264"><ele>293.4</ele><time>2026-04-04T09:06:01.999Z</time></trkpt><trkpt lat="44.90299652394622" lon="9.410382796946529"><ele>291.6</ele><time>2026-04-04T09:06:02.999Z</time></trkpt><trkpt lat="44.902970668361995" lon="9.410511041799388"><ele>289.8</ele><time>2026-04-04T09:06:03.999Z</time></trkpt><trkpt lat="44.90292132701063" lon="9.410606020899413"><ele>288.0</ele><time>2026-04-04T09:06:04.999Z</time></trkpt><trkpt lat="44.902853999985425" lon="9.410684867742155"><ele>287.5</ele><time>2026-04-04T09:06:05.999Z</time></trkpt><trkpt lat="44.902780585858224" lon="9.410719724675698"><ele>287.0</ele><time>2026-04-04T09:06:06.999Z</time></trkpt><trkpt lat="44.90271536081858" lon="9.410738316258994"><ele>286.5</ele><time>2026-04-04T09:06:07.999Z</time></trkpt><trkpt lat="44.90260840990604" lon="9.410762117150082"><ele>286.0</ele><time>2026-04-04T09:06:09.999Z</time></trkpt><trkpt lat="44.902513647652746" lon="9.410783205878438"><ele>285.5</ele><time>2026-04-04T09:06:11.999Z</time></trkpt><trkpt lat="44.902449457813276" lon="9.41079749106365"><ele>285.0</ele><time>2026-04-04T09:06:13.999Z</time></trkpt><trkpt lat="44.902386787298" lon="9.410811438129668"><ele>286.57142857142856</ele><time>2026-04-04T09:06:15.999Z</time></trkpt><trkpt lat="44.90231087235687" lon="9.410828332688013"><ele>288.14285714285717</ele><time>2026-04-04T09:06:18.999Z</time></trkpt><trkpt lat="44.90226468671995" lon="9.410898462007944"><ele>289.7142857142857</ele><time>2026-04-04T09:06:20.999Z</time></trkpt><trkpt lat="44.90226943499475" lon="9.41100197570163"><ele>291.2857142857143</ele><time>2026-04-04T09:08:35.999Z</time></trkpt><trkpt lat="44.90219268358344" lon="9.411012460331424"><ele>292.85714285714283</ele><time>2026-04-04T09:08:39.999Z</time></trkpt><trkpt lat="44.90211391174725" lon="9.410966107068951"><ele>294.42857142857144</ele><time>2026-04-04T09:08:42.998Z</time></trkpt><trkpt lat="44.90205221406656" lon="9.410927182806383"><ele>296.0</ele><time>2026-04-04T09:08:45.998Z</time></trkpt><trkpt lat="44.90197232334032" lon="9.410865335851803"><ele>296.0</ele><time>2026-04-04T09:08:47.998Z</time></trkpt><trkpt lat="44.901919432696" lon="9.41078276929032"><ele>296.0</ele><time>2026-04-04T09:08:51.998Z</time></trkpt><trkpt lat="44.901879030376655" lon="9.410649846277538"><ele>296.0</ele><time>2026-04-04T09:08:54.998Z</time></trkpt><trkpt lat="44.90187186012021" lon="9.410558426873616"><ele>296.0</ele><time>2026-04-04T09:08:57Z</time></trkpt><trkpt lat="44.90186441234631" lon="9.4104483741689"><ele>296.0</ele><time>2026-04-04T09:08:59Z</time></trkpt><trkpt lat="44.9018535474613" lon="9.410323687740261"><ele>296.0</ele><time>2026-04-04T09:09:01Z</time></trkpt><trkpt lat="44.901863884596175" lon="9.410232870522504"><ele>297.1666666666667</ele><time>2026-04-04T09:09:02Z</time></trkpt><trkpt lat="44.9018754048591" lon="9.41013355021203"><ele>298.33333333333337</ele><time>2026-04-04T09:09:03Z</time></trkpt><trkpt lat="44.90191509346712" lon="9.409967727330455"><ele>299.5</ele><time>2026-04-04T09:09:05Z</time></trkpt><trkpt lat="44.90193969754753" lon="9.409885600372494"><ele>300.6666666666667</ele><time>2026-04-04T09:09:06Z</time></trkpt><trkpt lat="44.90196580999247" lon="9.40979176599232"><ele>301.8333333333333</ele><time>2026-04-04T09:09:07Z</time></trkpt><trkpt lat="44.90198371481736" lon="9.40968556361912"><ele>303.0</ele><time>2026-04-04T09:09:08Z</time></trkpt><trkpt lat="44.9019933146305" lon="9.409579390899845"><ele>304.6666666666667</ele><time>2026-04-04T09:09:09Z</time></trkpt><trkpt lat="44.901995130538275" lon="9.409475749831575"><ele>306.3333333333333</ele><time>2026-04-04T09:09:10Z</time></trkpt><trkpt lat="44.90199546530298" lon="9.409370797763549"><ele>308.0</ele><time>2026-04-04T09:09:11Z</time></trkpt><trkpt lat="44.901987693360084" lon="9.40928155164551"><ele>309.66666666666663</ele><time>2026-04-04T09:09:12Z</time></trkpt><trkpt lat="44.901979613900906" lon="9.40909790202647"><ele>311.3333333333333</ele><time>2026-04-04T09:09:14Z</time></trkpt><trkpt lat="44.901976344193756" lon="9.408989998416526"><ele>313.0</ele><time>2026-04-04T09:09:15Z</time></trkpt><trkpt lat="44.90198080622831" lon="9.40887189075356"><ele>313.5</ele><time>2026-04-04T09:09:16Z</time></trkpt><trkpt lat="44.90200335363803" lon="9.408757443486065"><ele>314.0</ele><time>2026-04-04T09:09:17Z</time></trkpt><trkpt lat="44.90202147011286" lon="9.408630551669383"><ele>314.5</ele><time>2026-04-04T09:09:18Z</time></trkpt><trkpt lat="44.902045155552514" lon="9.408514636924531"><ele>315.0</ele><time>2026-04-04T09:09:19Z</time></trkpt><trkpt lat="44.9020695185475" lon="9.408391556365386"><ele>315.5</ele><time>2026-04-04T09:09:20Z</time></trkpt><trkpt lat="44.90208140280427" lon="9.408263442321372"><ele>316.0</ele><time>2026-04-04T09:09:21Z</time></trkpt><trkpt lat="44.90211013603552" lon="9.408130880147224"><ele>316.0</ele><time>2026-04-04T09:09:22Z</time></trkpt><trkpt lat="44.90212529759307" lon="9.40800262254102"><ele>316.0</ele><time>2026-04-04T09:09:23Z</time></trkpt><trkpt lat="44.902140926126776" lon="9.407877690115397"><ele>316.0</ele><time>2026-04-04T09:09:24Z</time></trkpt><trkpt lat="44.902160343527356" lon="9.407750907003065"><ele>316.0</ele><time>2026-04-04T09:09:25Z</time></trkpt><trkpt lat="44.90216481871412" lon="9.40762139239674"><ele>316.0</ele><time>2026-04-04T09:09:26Z</time></trkpt><trkpt lat="44.90217986831196" lon="9.407492710993882"><ele>317.0</ele><time>2026-04-04T09:09:27Z</time></trkpt><trkpt lat="44.90219991389603" lon="9.407341731498333"><ele>318.0</ele><time>2026-04-04T09:09:28Z</time></trkpt><trkpt lat="44.9021984321397" lon="9.407127442752298"><ele>319.0</ele><time>2026-04-04T09:09:29Z</time></trkpt><trkpt lat="44.90219091569137" lon="9.406870896234766"><ele>320.0</ele><time>2026-04-04T09:09:30Z</time></trkpt><trkpt lat="44.902187243051856" lon="9.406702282059758"><ele>321.0</ele><time>2026-04-04T09:09:31Z</time></trkpt><trkpt lat="44.90218082399295" lon="9.40654070041803"><ele>322.0</ele><time>2026-04-04T09:09:32Z</time></trkpt><trkpt lat="44.90215789132813" lon="9.406394431375945"><ele>323.0</ele><time>2026-04-04T09:09:33Z</time></trkpt><trkpt lat="44.90213887023013" lon="9.40625022261887"><ele>324.0</ele><time>2026-04-04T09:09:34Z</time></trkpt><trkpt lat="44.90209815540245" lon="9.406136373143047"><ele>325.0</ele><time>2026-04-04T09:09:35Z</time></trkpt><trkpt lat="44.90204727973596" lon="9.40602348626813"><ele>326.5</ele><time>2026-04-04T09:09:36Z</time></trkpt><trkpt lat="44.901946206355326" lon="9.40590323252731"><ele>328.0</ele><time>2026-04-04T09:09:37Z</time></trkpt><trkpt lat="44.90182524622332" lon="9.405775139303268"><ele>329.5</ele><time>2026-04-04T09:09:38Z</time></trkpt><trkpt lat="44.90172660059441" lon="9.405657031287708"><ele>331.0</ele><time>2026-04-04T09:09:39Z</time></trkpt><trkpt lat="44.901652411805735" lon="9.405556683574732"><ele>333.8</ele><time>2026-04-04T09:09:40Z</time></trkpt><trkpt lat="44.90158339938374" lon="9.40547090171259"><ele>336.6</ele><time>2026-04-04T09:09:41Z</time></trkpt><trkpt lat="44.90151392331571" lon="9.405406212542406"><ele>339.4</ele><time>2026-04-04T09:09:42Z</time></trkpt><trkpt lat="44.90145045373504" lon="9.405305392727723"><ele>342.2</ele><time>2026-04-04T09:09:43Z</time></trkpt><trkpt lat="44.90139476948427" lon="9.405197001801278"><ele>345.0</ele><time>2026-04-04T09:09:44Z</time></trkpt><trkpt lat="44.901353888890874" lon="9.405087626937842"><ele>345.0</ele><time>2026-04-04T09:09:44.999Z</time></trkpt><trkpt lat="44.90132421274262" lon="9.404959801544361"><ele>345.0</ele><time>2026-04-04T09:09:45.999Z</time></trkpt><trkpt lat="44.90131609774487" lon="9.40483390357472"><ele>345.0</ele><time>2026-04-04T09:09:46.999Z</time></trkpt><trkpt lat="44.90133230313868" lon="9.404734482888387"><ele>345.0</ele><time>2026-04-04T09:09:47.999Z</time></trkpt><trkpt lat="44.90136377948661" lon="9.404589689898852"><ele>345.0</ele><time>2026-04-04T09:09:48.999Z</time></trkpt><trkpt lat="44.90141922122704" lon="9.404472849441662"><ele>344.8333333333333</ele><time>2026-04-04T09:09:49.999Z</time></trkpt><trkpt lat="44.90148014799775" lon="9.404388305129908"><ele>344.6666666666667</ele><time>2026-04-04T09:09:50.999Z</time></trkpt><trkpt lat="44.901540528282254" lon="9.404312789427248"><ele>344.5</ele><time>2026-04-04T09:09:51.999Z</time></trkpt><trkpt lat="44.901600089512456" lon="9.404256472307775"><ele>344.33333333333337</ele><time>2026-04-04T09:09:52.999Z</time></trkpt><trkpt lat="44.901647308888094" lon="9.404187262951277"><ele>344.1666666666667</ele><time>2026-04-04T09:09:53.999Z</time></trkpt><trkpt lat="44.90172789022516" lon="9.404124063050483"><ele>344.0</ele><time>2026-04-04T09:09:55.999Z</time></trkpt><trkpt lat="44.90183010056909" lon="9.404067797524155"><ele>344.0</ele><time>2026-04-04T09:09:57.999Z</time></trkpt><trkpt lat="44.901930254837126" lon="9.403984223560775"><ele>344.0</ele><time>2026-04-04T09:09:59.999Z</time></trkpt><trkpt lat="44.9020132268182" lon="9.403907190390381"><ele>344.0</ele><time>2026-04-04T09:10:01.999Z</time></trkpt><trkpt lat="44.902069208108166" lon="9.403809879705024"><ele>344.0</ele><time>2026-04-04T09:10:03.999Z</time></trkpt><trkpt lat="44.90212968807991" lon="9.403656534680533"><ele>344.0</ele><time>2026-04-04T09:10:05.999Z</time></trkpt><trkpt lat="44.902148467606196" lon="9.40356341625447"><ele>344.83333333333337</ele><time>2026-04-04T09:10:06.999Z</time></trkpt><trkpt lat="44.90216486766995" lon="9.403474130407742"><ele>345.6666666666667</ele><time>2026-04-04T09:10:07.999Z</time></trkpt><trkpt lat="44.90221812564182" lon="9.403326713418975"><ele>346.5</ele><time>2026-04-04T09:10:09.999Z</time></trkpt><trkpt lat="44.90226051464759" lon="9.403233743960806"><ele>347.3333333333333</ele><time>2026-04-04T09:10:10.999Z</time></trkpt><trkpt lat="44.90229289844621" lon="9.403132232953444"><ele>348.16666666666663</ele><time>2026-04-04T09:10:11.999Z</time></trkpt><trkpt lat="44.90233742658796" lon="9.403023421464887"><ele>349.0</ele><time>2026-04-04T09:10:12.999Z</time></trkpt><trkpt lat="44.902389114162936" lon="9.402913531894898"><ele>349.79999999999995</ele><time>2026-04-04T09:10:13.999Z</time></trkpt><trkpt lat="44.9024420624522" lon="9.402804990208185"><ele>350.59999999999997</ele><time>2026-04-04T09:10:14.999Z</time></trkpt><trkpt lat="44.90249338629902" lon="9.402709066518916"><ele>351.4</ele><time>2026-04-04T09:10:15.999Z</time></trkpt><trkpt lat="44.902543622333916" lon="9.402592363843087"><ele>352.2</ele><time>2026-04-04T09:10:16.999Z</time></trkpt><trkpt lat="44.9025859125419" lon="9.402460624688059"><ele>353.0</ele><time>2026-04-04T09:10:17.999Z</time></trkpt><trkpt lat="44.90263530353153" lon="9.402341203441187"><ele>353.0</ele><time>2026-04-04T09:10:18.999Z</time></trkpt><trkpt lat="44.902704686751285" lon="9.402261730135676"><ele>353.0</ele><time>2026-04-04T09:10:19.999Z</time></trkpt><trkpt lat="44.90279274232421" lon="9.402237497321918"><ele>353.0</ele><time>2026-04-04T09:10:20.999Z</time></trkpt><trkpt lat="44.90289307050388" lon="9.402237685837116"><ele>353.0</ele><time>2026-04-04T09:10:21.999Z</time></trkpt><trkpt lat="44.902988271535946" lon="9.402257659084007"><ele>353.0</ele><time>2026-04-04T09:10:22.999Z</time></trkpt><trkpt lat="44.903071707211815" lon="9.4022476837149"><ele>353.0</ele><time>2026-04-04T09:10:23.999Z</time></trkpt><trkpt lat="44.90314655317257" lon="9.402219188538346"><ele>353.0</ele><time>2026-04-04T09:10:24.999Z</time></trkpt><trkpt lat="44.90322473818169" lon="9.402188767823672"><ele>353.0</ele><time>2026-04-04T09:10:25.999Z</time></trkpt><trkpt lat="44.90329527475735" lon="9.402149194102352"><ele>353.0</ele><time>2026-04-04T09:10:26.999Z</time></trkpt><trkpt lat="44.90335609901114" lon="9.402114836787614"><ele>353.0</ele><time>2026-04-04T09:10:27.999Z</time></trkpt><trkpt lat="44.90346753483583" lon="9.402071482716678"><ele>353.0</ele><time>2026-04-04T09:10:29.999Z</time></trkpt><trkpt lat="44.9035922759503" lon="9.402086566641726"><ele>356.33333333333337</ele><time>2026-04-04T09:10:31.999Z</time></trkpt><trkpt lat="44.90365680010587" lon="9.402124647570508"><ele>359.6666666666667</ele><time>2026-04-04T09:10:32.999Z</time></trkpt><trkpt lat="44.90373265685334" lon="9.402139140105133"><ele>363.0</ele><time>2026-04-04T09:10:33.999Z</time></trkpt><trkpt lat="44.90380109727031" lon="9.40213569287628"><ele>366.3333333333333</ele><time>2026-04-04T09:10:34.999Z</time></trkpt><trkpt lat="44.90389815840176" lon="9.402076018870954"><ele>369.66666666666663</ele><time>2026-04-04T09:10:36.999Z</time></trkpt><trkpt lat="44.903899204796126" lon="9.401897547933723"><ele>373.0</ele><time>2026-04-04T09:10:38.999Z</time></trkpt><trkpt lat="44.90385736545913" lon="9.401778832841863"><ele>373.0</ele><time>2026-04-04T09:10:39.999Z</time></trkpt><trkpt lat="44.90382264691848" lon="9.401635120737273"><ele>373.0</ele><time>2026-04-04T09:10:40.999Z</time></trkpt><trkpt lat="44.9038030088606" lon="9.401487910702452"><ele>373.0</ele><time>2026-04-04T09:10:41.999Z</time></trkpt><trkpt lat="44.9037927899238" lon="9.401341491710994"><ele>373.0</ele><time>2026-04-04T09:10:42.999Z</time></trkpt><trkpt lat="44.9037879437787" lon="9.401229818979393"><ele>373.0</ele><time>2026-04-04T09:10:43.999Z</time></trkpt><trkpt lat="44.90385388852386" lon="9.401065233758178"><ele>375.4</ele><time>2026-04-04T09:10:45.999Z</time></trkpt><trkpt lat="44.903926806450485" lon="9.401016728654053"><ele>377.79999999999995</ele><time>2026-04-04T09:10:46.999Z</time></trkpt><trkpt lat="44.90401301011867" lon="9.4009992618735"><ele>380.2</ele><time>2026-04-04T09:10:47.999Z</time></trkpt><trkpt lat="44.90411607071598" lon="9.401016245332583"><ele>382.6</ele><time>2026-04-04T09:10:48.999Z</time></trkpt><trkpt lat="44.904241246210525" lon="9.40102151304951"><ele>385.0</ele><time>2026-04-04T09:10:49.999Z</time></trkpt><trkpt lat="44.90434029527423" lon="9.401010279314459"><ele>386.42857142857144</ele><time>2026-04-04T09:10:50.999Z</time></trkpt><trkpt lat="44.90440780850237" lon="9.40099568439399"><ele>387.8571428571429</ele><time>2026-04-04T09:10:51.998Z</time></trkpt><trkpt lat="44.9044693253789" lon="9.400974662030888"><ele>389.2857142857143</ele><time>2026-04-04T09:10:52.998Z</time></trkpt><trkpt lat="44.90452943040673" lon="9.40092280726327"><ele>390.7142857142857</ele><time>2026-04-04T09:10:53.998Z</time></trkpt><trkpt lat="44.90457126365913" lon="9.400848054541083"><ele>392.14285714285717</ele><time>2026-04-04T09:10:54.998Z</time></trkpt><trkpt lat="44.904582832858594" lon="9.400748960927135"><ele>393.57142857142856</ele><time>2026-04-04T09:10:55.998Z</time></trkpt><trkpt lat="44.90457201779596" lon="9.400635993891584"><ele>395.0</ele><time>2026-04-04T09:10:56.998Z</time></trkpt><trkpt lat="44.904540191271316" lon="9.40052260221023"><ele>397.3333333333333</ele><time>2026-04-04T09:10:57.998Z</time></trkpt><trkpt lat="44.90449701111238" lon="9.40042264262472"><ele>399.66666666666663</ele><time>2026-04-04T09:10:58.998Z</time></trkpt><trkpt lat="44.90443714453484" lon="9.400377579166767"><ele>402.0</ele><time>2026-04-04T09:10:59.998Z</time></trkpt><trkpt lat="44.904372555326795" lon="9.400348751435537"><ele>404.33333333333337</ele><time>2026-04-04T09:11:00.998Z</time></trkpt><trkpt lat="44.90429817830582" lon="9.400361642236225"><ele>406.6666666666667</ele><time>2026-04-04T09:11:02Z</time></trkpt><trkpt lat="44.90421238222456" lon="9.400394807030452"><ele>409.0</ele><time>2026-04-04T09:11:03Z</time></trkpt><trkpt lat="44.904124052608495" lon="9.400384614194175"><ele>409.0</ele><time>2026-04-04T09:11:04Z</time></trkpt><trkpt lat="44.90403404459006" lon="9.400337339274722"><ele>409.0</ele><time>2026-04-04T09:11:05Z</time></trkpt><trkpt lat="44.90394792296239" lon="9.400264212375282"><ele>409.0</ele><time>2026-04-04T09:11:06Z</time></trkpt><trkpt lat="44.90384767381619" lon="9.40021233716587"><ele>409.0</ele><time>2026-04-04T09:11:07Z</time></trkpt><trkpt lat="44.90371795106605" lon="9.400220074700517"><ele>409.0</ele><time>2026-04-04T09:11:08Z</time></trkpt><trkpt lat="44.903573764366655" lon="9.400232857499788"><ele>409.0</ele><time>2026-04-04T09:11:09Z</time></trkpt><trkpt lat="44.90347668309623" lon="9.40022454813333"><ele>409.0</ele><time>2026-04-04T09:11:10Z</time></trkpt><trkpt lat="44.90339713150975" lon="9.400090914294196"><ele>409.0</ele><time>2026-04-04T09:11:12Z</time></trkpt><trkpt lat="44.90340643544023" lon="9.399981708180148"><ele>409.0</ele><time>2026-04-04T09:11:13Z</time></trkpt><trkpt lat="44.903449534357364" lon="9.399826606053848"><ele>409.0</ele><time>2026-04-04T09:11:14Z</time></trkpt><trkpt lat="44.903525075219335" lon="9.399717282467972"><ele>411.79999999999995</ele><time>2026-04-04T09:11:15Z</time></trkpt><trkpt lat="44.90359763907806" lon="9.399642535119243"><ele>414.59999999999997</ele><time>2026-04-04T09:11:16Z</time></trkpt><trkpt lat="44.903675100405394" lon="9.399591985544712"><ele>417.4</ele><time>2026-04-04T09:11:17Z</time></trkpt><trkpt lat="44.90377544069834" lon="9.399584428022134"><ele>420.2</ele><time>2026-04-04T09:11:18Z</time></trkpt><trkpt lat="44.903887033269214" lon="9.399566562229486"><ele>423.0</ele><time>2026-04-04T09:11:19Z</time></trkpt><trkpt lat="44.904012995206266" lon="9.399555067226517"><ele>423.0</ele><time>2026-04-04T09:11:20Z</time></trkpt><trkpt lat="44.9041015830732" lon="9.399534644686417"><ele>423.0</ele><time>2026-04-04T09:11:21Z</time></trkpt><trkpt lat="44.904170163232926" lon="9.399540803358008"><ele>423.0</ele><time>2026-04-04T09:11:22Z</time></trkpt><trkpt lat="44.90427301709217" lon="9.399584500307826"><ele>423.0</ele><time>2026-04-04T09:11:24Z</time></trkpt><trkpt lat="44.90439207524464" lon="9.399555839785165"><ele>423.0</ele><time>2026-04-04T09:11:26Z</time></trkpt><trkpt lat="44.9044652764035" lon="9.399482058037414"><ele>423.2</ele><time>2026-04-04T09:11:27Z</time></trkpt><trkpt lat="44.90452665315248" lon="9.399398928051859"><ele>423.4</ele><time>2026-04-04T09:11:28Z</time></trkpt><trkpt lat="44.904619317768045" lon="9.399291015378422"><ele>423.59999999999997</ele><time>2026-04-04T09:11:29Z</time></trkpt><trkpt lat="44.90469471785685" lon="9.399157130929026"><ele>423.79999999999995</ele><time>2026-04-04T09:11:30Z</time></trkpt><trkpt lat="44.90476039169174" lon="9.399021194004133"><ele>424.0</ele><time>2026-04-04T09:11:31Z</time></trkpt><trkpt lat="44.90482875118938" lon="9.398926924847949"><ele>424.00000000000006</ele><time>2026-04-04T09:11:32Z</time></trkpt><trkpt lat="44.90489196058721" lon="9.39884903331461"><ele>424.0</ele><time>2026-04-04T09:11:33Z</time></trkpt><trkpt lat="44.90494483860003" lon="9.398784876265843"><ele>424.0</ele><time>2026-04-04T09:11:34Z</time></trkpt><trkpt lat="44.90506323773733" lon="9.39871655813844"><ele>424.0</ele><time>2026-04-04T09:11:36Z</time></trkpt><trkpt lat="44.90514172081741" lon="9.398714085042167"><ele>424.00000000000006</ele><time>2026-04-04T09:11:37Z</time></trkpt><trkpt lat="44.90522119369891" lon="9.39875327174163"><ele>424.0</ele><time>2026-04-04T09:11:38Z</time></trkpt><trkpt lat="44.90528353430395" lon="9.398845895686685"><ele>426.0</ele><time>2026-04-04T09:11:39Z</time></trkpt><trkpt lat="44.9053515643295" lon="9.39891596777122"><ele>428.0</ele><time>2026-04-04T09:11:40Z</time></trkpt><trkpt lat="44.905448194208745" lon="9.398991607991078"><ele>430.0</ele><time>2026-04-04T09:11:41Z</time></trkpt><trkpt lat="44.905538231237976" lon="9.399063377443241"><ele>432.0</ele><time>2026-04-04T09:11:42Z</time></trkpt><trkpt lat="44.90562809624879" lon="9.399120187393809"><ele>434.0</ele><time>2026-04-04T09:11:43Z</time></trkpt><trkpt lat="44.90571879171973" lon="9.399160690194744"><ele>433.99999999999994</ele><time>2026-04-04T09:11:44Z</time></trkpt><trkpt lat="44.90579227062577" lon="9.39920077357215"><ele>434.0</ele><time>2026-04-04T09:11:45Z</time></trkpt><trkpt lat="44.90586986748627" lon="9.399252148295696"><ele>434.0</ele><time>2026-04-04T09:11:46Z</time></trkpt><trkpt lat="44.90594030554142" lon="9.399280273805456"><ele>434.0</ele><time>2026-04-04T09:11:47Z</time></trkpt><trkpt lat="44.9060181167054" lon="9.399312195989964"><ele>433.99999999999994</ele><time>2026-04-04T09:11:47.999Z</time></trkpt><trkpt lat="44.90608881643298" lon="9.399353553925414"><ele>434.0</ele><time>2026-04-04T09:11:48.999Z</time></trkpt><trkpt lat="44.90615092131336" lon="9.399382738092237"><ele>434.2</ele><time>2026-04-04T09:11:49.999Z</time></trkpt><trkpt lat="44.906212544208955" lon="9.399400931154332"><ele>434.4</ele><time>2026-04-04T09:11:50.999Z</time></trkpt><trkpt lat="44.90630044740555" lon="9.39943060974884"><ele>434.6</ele><time>2026-04-04T09:11:52.999Z</time></trkpt><trkpt lat="44.90638512148866" lon="9.399353365391363"><ele>434.8</ele><time>2026-04-04T09:11:54.999Z</time></trkpt><trkpt lat="44.906397002471024" lon="9.399181272018586"><ele>435.0</ele><time>2026-04-04T09:11:56.999Z</time></trkpt><trkpt lat="44.906348388812255" lon="9.399093926242067"><ele>435.0</ele><time>2026-04-04T09:11:57.999Z</time></trkpt><trkpt lat="44.906287952732114" lon="9.399017545974774"><ele>435.0</ele><time>2026-04-04T09:11:58.999Z</time></trkpt><trkpt lat="44.90623047391543" lon="9.398941284888027"><ele>435.0</ele><time>2026-04-04T09:11:59.999Z</time></trkpt><trkpt lat="44.90617497661148" lon="9.39888345594093"><ele>435.0</ele><time>2026-04-04T09:12:00.999Z</time></trkpt><trkpt lat="44.906106250700574" lon="9.398774008149212"><ele>435.0</ele><time>2026-04-04T09:12:02.999Z</time></trkpt><trkpt lat="44.90610131639238" lon="9.398640190557789"><ele>435.0</ele><time>2026-04-04T09:12:04.999Z</time></trkpt><trkpt lat="44.9060204486395" lon="9.39850446773988"><ele>435.5</ele><time>2026-04-04T09:12:06.999Z</time></trkpt><trkpt lat="44.905971435571274" lon="9.39843734456389"><ele>436.0</ele><time>2026-04-04T09:12:07.999Z</time></trkpt><trkpt lat="44.90590232898791" lon="9.398366356980784"><ele>436.5</ele><time>2026-04-04T09:12:08.999Z</time></trkpt><trkpt lat="44.905835399674174" lon="9.398306093901159"><ele>437.0</ele><time>2026-04-04T09:12:09.999Z</time></trkpt><trkpt lat="44.9057649516259" lon="9.398265859668623"><ele>437.5</ele><time>2026-04-04T09:12:10.999Z</time></trkpt><trkpt lat="44.905710014469896" lon="9.398211582367322"><ele>438.0</ele><time>2026-04-04T09:12:11.999Z</time></trkpt><trkpt lat="44.9056469338511" lon="9.398156596796584"><ele>438.0</ele><time>2026-04-04T09:12:12.999Z</time></trkpt><trkpt lat="44.90557115668683" lon="9.398107825915087"><ele>437.99999999999994</ele><time>2026-04-04T09:12:13.999Z</time></trkpt><trkpt lat="44.90549055662582" lon="9.398058756755166"><ele>437.99999999999994</ele><time>2026-04-04T09:12:14.999Z</time></trkpt><trkpt lat="44.90541234005378" lon="9.39797741062001"><ele>438.0</ele><time>2026-04-04T09:12:15.999Z</time></trkpt><trkpt lat="44.90532537077002" lon="9.397905477619924"><ele>438.0</ele><time>2026-04-04T09:12:16.999Z</time></trkpt><trkpt lat="44.90522135375525" lon="9.397794507366694"><ele>437.4</ele><time>2026-04-04T09:12:17.999Z</time></trkpt><trkpt lat="44.90512523449878" lon="9.397657599649033"><ele>436.79999999999995</ele><time>2026-04-04T09:12:18.999Z</time></trkpt><trkpt lat="44.90506507490467" lon="9.397551402462932"><ele>436.2</ele><time>2026-04-04T09:12:19.999Z</time></trkpt><trkpt lat="44.905016026627294" lon="9.397449911604332"><ele>435.6</ele><time>2026-04-04T09:12:20.999Z</time></trkpt><trkpt lat="44.90495258815897" lon="9.397361512671191"><ele>435.0</ele><time>2026-04-04T09:12:21.999Z</time></trkpt><trkpt lat="44.90489121841068" lon="9.397267896794876"><ele>437.5</ele><time>2026-04-04T09:12:22.999Z</time></trkpt><trkpt lat="44.90483857850647" lon="9.397172018340767"><ele>440.0</ele><time>2026-04-04T09:12:23.999Z</time></trkpt><trkpt lat="44.90478834488413" lon="9.39708976440792"><ele>442.5</ele><time>2026-04-04T09:12:24.999Z</time></trkpt><trkpt lat="44.904723856413526" lon="9.396980944755589"><ele>445.0</ele><time>2026-04-04T09:12:26.999Z</time></trkpt><trkpt lat="44.90466407057794" lon="9.396898275118964"><ele>447.5</ele><time>2026-04-04T09:12:28.999Z</time></trkpt><trkpt lat="44.90460453349583" lon="9.396815548697939"><ele>450.0</ele><time>2026-04-04T09:12:30.999Z</time></trkpt><trkpt lat="44.904541639525924" lon="9.396734520273196"><ele>450.0</ele><time>2026-04-04T09:12:33.999Z</time></trkpt><trkpt lat="44.90453571473006" lon="9.396615507370816"><ele>450.0</ele><time>2026-04-04T09:14:10.999Z</time></trkpt><trkpt lat="44.90450561305773" lon="9.396527426835112"><ele>450.0</ele><time>2026-04-04T09:14:12.999Z</time></trkpt><trkpt lat="44.904464128748245" lon="9.39642820585178"><ele>450.0</ele><time>2026-04-04T09:14:15.999Z</time></trkpt><trkpt lat="44.90443506499409" lon="9.396335063462784"><ele>450.0</ele><time>2026-04-04T09:14:17.999Z</time></trkpt><trkpt lat="44.90440861732597" lon="9.396223171214377"><ele>450.0</ele><time>2026-04-04T09:14:19.999Z</time></trkpt><trkpt lat="44.904390610984045" lon="9.396091370375437"><ele>450.2</ele><time>2026-04-04T09:14:21.999Z</time></trkpt><trkpt lat="44.904377219816155" lon="9.395954769902062"><ele>450.4</ele><time>2026-04-04T09:14:23.999Z</time></trkpt><trkpt lat="44.90436456511408" lon="9.39581901801203"><ele>450.6</ele><time>2026-04-04T09:14:25.999Z</time></trkpt><trkpt lat="44.90434327365078" lon="9.395643022530702"><ele>450.8</ele><time>2026-04-04T09:14:27.999Z</time></trkpt><trkpt lat="44.904333541495056" lon="9.395554584585744"><ele>451.0</ele><time>2026-04-04T09:14:28.999Z</time></trkpt><trkpt lat="44.90432472692013" lon="9.395389290631458"><ele>452.6</ele><time>2026-04-04T09:14:30.999Z</time></trkpt><trkpt lat="44.90432396237619" lon="9.395264513067065"><ele>454.20000000000005</ele><time>2026-04-04T09:14:32.999Z</time></trkpt><trkpt lat="44.904326699090774" lon="9.395125377229082"><ele>455.79999999999995</ele><time>2026-04-04T09:14:34.999Z</time></trkpt><trkpt lat="44.904326383195915" lon="9.394989977436047"><ele>457.4</ele><time>2026-04-04T09:14:36.999Z</time></trkpt><trkpt lat="44.90431343450532" lon="9.394863550241801"><ele>459.0</ele><time>2026-04-04T09:14:38.999Z</time></trkpt><trkpt lat="44.90430725806725" lon="9.39472425156598"><ele>460.3333333333333</ele><time>2026-04-04T09:14:40.999Z</time></trkpt><trkpt lat="44.904303695769904" lon="9.394579021926965"><ele>461.66666666666663</ele><time>2026-04-04T09:14:42.999Z</time></trkpt><trkpt lat="44.904317406753954" lon="9.394423561963968"><ele>463.0</ele><time>2026-04-04T09:14:44.999Z</time></trkpt><trkpt lat="44.90432526095001" lon="9.394333435851898"><ele>464.3333333333333</ele><time>2026-04-04T09:14:45.999Z</time></trkpt><trkpt lat="44.90434113463077" lon="9.39421595310413"><ele>465.66666666666663</ele><time>2026-04-04T09:14:46.999Z</time></trkpt><trkpt lat="44.90435356166719" lon="9.394126846160571"><ele>467.0</ele><time>2026-04-04T09:14:47.999Z</time></trkpt><trkpt lat="44.90438018598117" lon="9.393976044905356"><ele>468.8</ele><time>2026-04-04T09:14:49.999Z</time></trkpt><trkpt lat="44.904408647839745" lon="9.393821952240343"><ele>470.6</ele><time>2026-04-04T09:14:51.999Z</time></trkpt><trkpt lat="44.9044523767123" lon="9.393668100609402"><ele>472.40000000000003</ele><time>2026-04-04T09:14:53.999Z</time></trkpt><trkpt lat="44.904475213963686" lon="9.393549228422128"><ele>474.20000000000005</ele><time>2026-04-04T09:14:54.999Z</time></trkpt><trkpt lat="44.904496558273166" lon="9.39345286942055"><ele>476.0</ele><time>2026-04-04T09:14:55.999Z</time></trkpt><trkpt lat="44.904518955270795" lon="9.393345264517183"><ele>476.0</ele><time>2026-04-04T09:14:56.999Z</time></trkpt><trkpt lat="44.90454495225371" lon="9.3932201227148"><ele>476.0</ele><time>2026-04-04T09:14:57.998Z</time></trkpt><trkpt lat="44.9045707499461" lon="9.393089725474084"><ele>476.0</ele><time>2026-04-04T09:14:58.998Z</time></trkpt><trkpt lat="44.90459605835155" lon="9.392955268595415"><ele>476.0</ele><time>2026-04-04T09:14:59.998Z</time></trkpt><trkpt lat="44.90461249763834" lon="9.392819231349865"><ele>476.0</ele><time>2026-04-04T09:15:00.998Z</time></trkpt><trkpt lat="44.90462631480824" lon="9.392674423818798"><ele>477.5</ele><time>2026-04-04T09:15:01.998Z</time></trkpt><trkpt lat="44.904640094367636" lon="9.3925011552944"><ele>479.0</ele><time>2026-04-04T09:15:02.998Z</time></trkpt><trkpt lat="44.9046471605499" lon="9.392322829446238"><ele>480.5</ele><time>2026-04-04T09:15:03.998Z</time></trkpt><trkpt lat="44.90466280210405" lon="9.392139909369948"><ele>482.0</ele><time>2026-04-04T09:15:04.998Z</time></trkpt><trkpt lat="44.90467453753344" lon="9.391937163290839"><ele>483.6</ele><time>2026-04-04T09:15:05.998Z</time></trkpt><trkpt lat="44.90469171489956" lon="9.391798937999333"><ele>485.20000000000005</ele><time>2026-04-04T09:15:06.998Z</time></trkpt><trkpt lat="44.90471939572293" lon="9.391647852888868"><ele>486.8</ele><time>2026-04-04T09:15:07.998Z</time></trkpt><trkpt lat="44.90476035379624" lon="9.391486751476597"><ele>488.4</ele><time>2026-04-04T09:15:08.998Z</time></trkpt><trkpt lat="44.90480517981899" lon="9.39134353308461"><ele>490.0</ele><time>2026-04-04T09:15:09.998Z</time></trkpt><trkpt lat="44.904848356798894" lon="9.391192872366203"><ele>491.75</ele><time>2026-04-04T09:15:10.998Z</time></trkpt><trkpt lat="44.904911308730824" lon="9.391022916415865"><ele>493.5</ele><time>2026-04-04T09:15:11.998Z</time></trkpt><trkpt lat="44.90497869104914" lon="9.390843083355294"><ele>495.25</ele><time>2026-04-04T09:15:12.998Z</time></trkpt><trkpt lat="44.905014320444835" lon="9.39070387464543"><ele>497.0</ele><time>2026-04-04T09:15:14Z</time></trkpt><trkpt lat="44.90505302088618" lon="9.39056561671636"><ele>496.5</ele><time>2026-04-04T09:15:15Z</time></trkpt><trkpt lat="44.90510010146589" lon="9.390428473385699"><ele>496.0</ele><time>2026-04-04T09:15:16Z</time></trkpt><trkpt lat="44.905132279144546" lon="9.390268466596925"><ele>495.5</ele><time>2026-04-04T09:15:17Z</time></trkpt><trkpt lat="44.90514385021551" lon="9.390086205660275"><ele>495.0</ele><time>2026-04-04T09:15:18Z</time></trkpt><trkpt lat="44.905140082744545" lon="9.389889340953633"><ele>495.0</ele><time>2026-04-04T09:15:19Z</time></trkpt><trkpt lat="44.90514517376001" lon="9.38970490302274"><ele>495.0</ele><time>2026-04-04T09:15:20Z</time></trkpt><trkpt lat="44.90513611958189" lon="9.38954378353117"><ele>495.0</ele><time>2026-04-04T09:15:21Z</time></trkpt><trkpt lat="44.90515376081207" lon="9.389363688867128"><ele>495.0</ele><time>2026-04-04T09:15:22Z</time></trkpt><trkpt lat="44.90518821056938" lon="9.389143922144358"><ele>497.4</ele><time>2026-04-04T09:15:23Z</time></trkpt><trkpt lat="44.90520967880335" lon="9.388968177704015"><ele>499.8</ele><time>2026-04-04T09:15:24Z</time></trkpt><trkpt lat="44.90522591207486" lon="9.38883088910501"><ele>502.20000000000005</ele><time>2026-04-04T09:15:25Z</time></trkpt><trkpt lat="44.9052441476478" lon="9.388708024051894"><ele>504.6</ele><time>2026-04-04T09:15:26Z</time></trkpt><trkpt lat="44.90526849381154" lon="9.38858086145231"><ele>507.0</ele><time>2026-04-04T09:15:27Z</time></trkpt><trkpt lat="44.90530124104633" lon="9.38844209627162"><ele>509.0</ele><time>2026-04-04T09:15:28Z</time></trkpt><trkpt lat="44.90536236373119" lon="9.388274427320605"><ele>511.00000000000006</ele><time>2026-04-04T09:15:29Z</time></trkpt><trkpt lat="44.9054355862682" lon="9.38814133310861"><ele>513.0</ele><time>2026-04-04T09:15:30Z</time></trkpt><trkpt lat="44.90549512995991" lon="9.388035332186035"><ele>515.0</ele><time>2026-04-04T09:15:31Z</time></trkpt><trkpt lat="44.90555768113029" lon="9.387939500158918"><ele>517.0</ele><time>2026-04-04T09:15:32Z</time></trkpt><trkpt lat="44.9056088457168" lon="9.387868331513252"><ele>515.4</ele><time>2026-04-04T09:15:33Z</time></trkpt><trkpt lat="44.90568372963909" lon="9.387746210997634"><ele>513.8000000000001</ele><time>2026-04-04T09:15:35Z</time></trkpt><trkpt lat="44.905748146260585" lon="9.387662824917264"><ele>512.2</ele><time>2026-04-04T09:15:37Z</time></trkpt><trkpt lat="44.90582318772952" lon="9.387540278717262"><ele>510.6</ele><time>2026-04-04T09:15:39Z</time></trkpt><trkpt lat="44.90587804603678" lon="9.38741733251211"><ele>509.0</ele><time>2026-04-04T09:15:41Z</time></trkpt><trkpt lat="44.905913903650806" lon="9.38725961907064"><ele>511.0</ele><time>2026-04-04T09:15:43Z</time></trkpt><trkpt lat="44.905926773738656" lon="9.387171152325104"><ele>513.0</ele><time>2026-04-04T09:15:44Z</time></trkpt><trkpt lat="44.90591974903757" lon="9.386992472472537"><ele>515.0</ele><time>2026-04-04T09:15:46Z</time></trkpt><trkpt lat="44.90591989235626" lon="9.386900243047654"><ele>517.0</ele><time>2026-04-04T09:15:47Z</time></trkpt><trkpt lat="44.90591161656929" lon="9.386717783021558"><ele>519.0</ele><time>2026-04-04T09:15:49Z</time></trkpt><trkpt lat="44.90591345840231" lon="9.38660771804498"><ele>519.0</ele><time>2026-04-04T09:15:50Z</time></trkpt><trkpt lat="44.90593031746337" lon="9.386488873219013"><ele>519.0</ele><time>2026-04-04T09:15:51Z</time></trkpt><trkpt lat="44.905963143510824" lon="9.386366349980573"><ele>519.0</ele><time>2026-04-04T09:15:52Z</time></trkpt><trkpt lat="44.90601465998798" lon="9.386240076734879"><ele>519.0</ele><time>2026-04-04T09:15:53Z</time></trkpt><trkpt lat="44.90608359924959" lon="9.386130454783427"><ele>519.0</ele><time>2026-04-04T09:15:54Z</time></trkpt><trkpt lat="44.906150797701414" lon="9.386043493519802"><ele>521.1666666666666</ele><time>2026-04-04T09:15:55Z</time></trkpt><trkpt lat="44.90624066193149" lon="9.38598139099536"><ele>523.3333333333334</ele><time>2026-04-04T09:15:56Z</time></trkpt><trkpt lat="44.9063167895701" lon="9.385912067174106"><ele>525.5</ele><time>2026-04-04T09:15:57Z</time></trkpt><trkpt lat="44.906372009985986" lon="9.38581726087113"><ele>527.6666666666667</ele><time>2026-04-04T09:15:58Z</time></trkpt><trkpt lat="44.90642122869747" lon="9.38571118702579"><ele>529.8333333333334</ele><time>2026-04-04T09:15:59Z</time></trkpt><trkpt lat="44.90645987792522" lon="9.38562502364519"><ele>532.0</ele><time>2026-04-04T09:16:00Z</time></trkpt><trkpt lat="44.9065295988656" lon="9.385498127242734"><ele>532.8333333333334</ele><time>2026-04-04T09:16:01.999Z</time></trkpt><trkpt lat="44.90661208925283" lon="9.385429632575573"><ele>533.6666666666667</ele><time>2026-04-04T09:16:03.999Z</time></trkpt><trkpt lat="44.906686409461514" lon="9.38539118075164"><ele>534.5</ele><time>2026-04-04T09:16:05.999Z</time></trkpt><trkpt lat="44.906766208398146" lon="9.385363639415926"><ele>535.3333333333334</ele><time>2026-04-04T09:16:09.999Z</time></trkpt><trkpt lat="44.90683341478601" lon="9.385314566519812"><ele>536.1666666666666</ele><time>2026-04-04T09:16:14.999Z</time></trkpt><trkpt lat="44.90689276094191" lon="9.385259780354627"><ele>537.0</ele><time>2026-04-04T09:16:17.999Z</time></trkpt><trkpt lat="44.90684755343929" lon="9.385155708028998"><ele>537.0</ele><time>2026-04-04T09:16:20.999Z</time></trkpt><trkpt lat="44.90672658305819" lon="9.38515310724755"><ele>537.0</ele><time>2026-04-04T09:16:22.999Z</time></trkpt><trkpt lat="44.906663243219505" lon="9.3851378350001"><ele>537.0</ele><time>2026-04-04T09:16:23.999Z</time></trkpt><trkpt lat="44.90655728418287" lon="9.385087274200608"><ele>537.0</ele><time>2026-04-04T09:16:25.999Z</time></trkpt><trkpt lat="44.90649321311432" lon="9.38502130456395"><ele>537.0</ele><time>2026-04-04T09:16:27.999Z</time></trkpt><trkpt lat="44.906415213763836" lon="9.384962104506084"><ele>537.0</ele><time>2026-04-04T09:16:29.999Z</time></trkpt><trkpt lat="44.906337342468284" lon="9.38488843093883"><ele>537.0</ele><time>2026-04-04T09:16:31.999Z</time></trkpt><trkpt lat="44.90630263852797" lon="9.384811287376694"><ele>537.0</ele><time>2026-04-04T09:16:33.999Z</time></trkpt><trkpt lat="44.90625941034309" lon="9.384718801310191"><ele>537.0</ele><time>2026-04-04T09:16:37.999Z</time></trkpt><trkpt lat="44.90622411603523" lon="9.384637827078778"><ele>537.0</ele><time>2026-04-04T09:16:39.999Z</time></trkpt><trkpt lat="44.9061479033038" lon="9.384566774610594"><ele>537.0</ele><time>2026-04-04T09:16:42.999Z</time></trkpt><trkpt lat="44.906032187802516" lon="9.384676274575115"><ele>536.9999999999999</ele><time>2026-04-04T09:16:46.999Z</time></trkpt><trkpt lat="44.906078288619156" lon="9.384762675980777"><ele>537.0</ele><time>2026-04-04T09:16:47.999Z</time></trkpt><trkpt lat="44.906110366494616" lon="9.38484264036234"><ele>537.0</ele><time>2026-04-04T09:16:48.999Z</time></trkpt><trkpt lat="44.90615345308565" lon="9.384916589860264"><ele>537.0</ele><time>2026-04-04T09:16:49.999Z</time></trkpt><trkpt lat="44.90619524622521" lon="9.384998845772126"><ele>537.0</ele><time>2026-04-04T09:16:50.999Z</time></trkpt><trkpt lat="44.90622936120967" lon="9.38508775743145"><ele>536.9999999999999</ele><time>2026-04-04T09:16:51.999Z</time></trkpt><trkpt lat="44.90623311082502" lon="9.38520066109947"><ele>537.0</ele><time>2026-04-04T09:16:52.999Z</time></trkpt><trkpt lat="44.906236515329" lon="9.385298973297985"><ele>537.0</ele><time>2026-04-04T09:16:53.999Z</time></trkpt><trkpt lat="44.90620974192149" lon="9.38538541718591"><ele>537.0</ele><time>2026-04-04T09:16:54.999Z</time></trkpt><trkpt lat="44.90616502929169" lon="9.38545845979408"><ele>537.0</ele><time>2026-04-04T09:16:55.999Z</time></trkpt><trkpt lat="44.90611977143394" lon="9.385535061794236"><ele>537.0</ele><time>2026-04-04T09:16:56.999Z</time></trkpt><trkpt lat="44.90606421172013" lon="9.385602304845156"><ele>537.0</ele><time>2026-04-04T09:16:57.999Z</time></trkpt><trkpt lat="44.905956178938915" lon="9.385642788256277"><ele>537.0</ele><time>2026-04-04T09:16:58.999Z</time></trkpt><trkpt lat="44.905818253468006" lon="9.385746991011708"><ele>539.6</ele><time>2026-04-04T09:16:59.999Z</time></trkpt><trkpt lat="44.905723285196764" lon="9.385844176817915"><ele>542.2</ele><time>2026-04-04T09:17:00.999Z</time></trkpt><trkpt lat="44.90564018297933" lon="9.385951763777639"><ele>544.8</ele><time>2026-04-04T09:17:01.999Z</time></trkpt><trkpt lat="44.905567791226034" lon="9.38604751635421"><ele>547.4</ele><time>2026-04-04T09:17:02.999Z</time></trkpt><trkpt lat="44.905477290180386" lon="9.386144620911608"><ele>550.0</ele><time>2026-04-04T09:17:03.999Z</time></trkpt><trkpt lat="44.905386507606956" lon="9.386215772631973"><ele>550.0</ele><time>2026-04-04T09:17:04.999Z</time></trkpt><trkpt lat="44.9053132465715" lon="9.386257802343966"><ele>550.0</ele><time>2026-04-04T09:17:05.999Z</time></trkpt><trkpt lat="44.90524109387829" lon="9.38630069888216"><ele>550.0</ele><time>2026-04-04T09:17:06.999Z</time></trkpt><trkpt lat="44.90515865114947" lon="9.38634971284631"><ele>550.0</ele><time>2026-04-04T09:17:07.999Z</time></trkpt><trkpt lat="44.90505585427635" lon="9.386410828273418"><ele>550.0</ele><time>2026-04-04T09:17:08.999Z</time></trkpt><trkpt lat="44.9049729938168" lon="9.38645575341054"><ele>550.0</ele><time>2026-04-04T09:17:09.999Z</time></trkpt><trkpt lat="44.90489394052508" lon="9.38649524217736"><ele>550.6666666666667</ele><time>2026-04-04T09:17:10.999Z</time></trkpt><trkpt lat="44.90481917356954" lon="9.386516763522703"><ele>551.3333333333334</ele><time>2026-04-04T09:17:11.999Z</time></trkpt><trkpt lat="44.904747280967314" lon="9.38652474659822"><ele>552.0</ele><time>2026-04-04T09:17:12.998Z</time></trkpt><trkpt lat="44.904667253851635" lon="9.386503925266544"><ele>552.6666666666666</ele><time>2026-04-04T09:17:13.998Z</time></trkpt><trkpt lat="44.90458310184688" lon="9.386463785051328"><ele>553.3333333333333</ele><time>2026-04-04T09:17:14.998Z</time></trkpt><trkpt lat="44.9044887318623" lon="9.386414553304812"><ele>554.0</ele><time>2026-04-04T09:17:15.998Z</time></trkpt><trkpt lat="44.90441852588701" lon="9.386381188056363"><ele>554.0</ele><time>2026-04-04T09:17:16.998Z</time></trkpt><trkpt lat="44.90435459141319" lon="9.386375248005967"><ele>554.0</ele><time>2026-04-04T09:17:17.998Z</time></trkpt><trkpt lat="44.90424145986958" lon="9.386293019031328"><ele>554.0</ele><time>2026-04-04T09:17:20Z</time></trkpt><trkpt lat="44.90417506662152" lon="9.386254166568552"><ele>554.0</ele><time>2026-04-04T09:17:21Z</time></trkpt><trkpt lat="44.904082113471894" lon="9.386180959951831"><ele>554.0</ele><time>2026-04-04T09:17:22Z</time></trkpt><trkpt lat="44.90399567992804" lon="9.386083772937491"><ele>557.8</ele><time>2026-04-04T09:17:23Z</time></trkpt><trkpt lat="44.90391823253708" lon="9.385995331587136"><ele>561.5999999999999</ele><time>2026-04-04T09:17:24Z</time></trkpt><trkpt lat="44.90383997585948" lon="9.385918633602765"><ele>565.4</ele><time>2026-04-04T09:17:25Z</time></trkpt><trkpt lat="44.90375100675258" lon="9.3858694631451"><ele>569.1999999999999</ele><time>2026-04-04T09:17:26Z</time></trkpt><trkpt lat="44.90367257351233" lon="9.38583642353076"><ele>573.0</ele><time>2026-04-04T09:17:27Z</time></trkpt><trkpt lat="44.90358189065131" lon="9.385864217077634"><ele>573.0</ele><time>2026-04-04T09:17:28Z</time></trkpt><trkpt lat="44.90349626218013" lon="9.385914433698117"><ele>573.0</ele><time>2026-04-04T09:17:29Z</time></trkpt><trkpt lat="44.90338717462802" lon="9.385976640052744"><ele>573.0</ele><time>2026-04-04T09:17:30Z</time></trkpt><trkpt lat="44.90329414926993" lon="9.386032555809294"><ele>573.0</ele><time>2026-04-04T09:17:31Z</time></trkpt><trkpt lat="44.90322251615329" lon="9.38607330551549"><ele>573.0</ele><time>2026-04-04T09:17:32Z</time></trkpt><trkpt lat="44.90315765761931" lon="9.386096083383425"><ele>573.0</ele><time>2026-04-04T09:17:33Z</time></trkpt><trkpt lat="44.90309368078883" lon="9.38609527868324"><ele>573.0</ele><time>2026-04-04T09:17:34Z</time></trkpt><trkpt lat="44.9030230336587" lon="9.38607190621146"><ele>573.0</ele><time>2026-04-04T09:17:35Z</time></trkpt><trkpt lat="44.90294972164139" lon="9.386025708713946"><ele>573.0</ele><time>2026-04-04T09:17:36Z</time></trkpt><trkpt lat="44.902862601088565" lon="9.385975499406662"><ele>573.0</ele><time>2026-04-04T09:17:37Z</time></trkpt><trkpt lat="44.9027856641194" lon="9.385920352461847"><ele>573.0</ele><time>2026-04-04T09:17:38Z</time></trkpt><trkpt lat="44.902725790865375" lon="9.385863393339225"><ele>573.0</ele><time>2026-04-04T09:17:39Z</time></trkpt><trkpt lat="44.90266474550188" lon="9.385801570269734"><ele>573.0</ele><time>2026-04-04T09:17:40Z</time></trkpt><trkpt lat="44.90258907639781" lon="9.385722795988682"><ele>573.0</ele><time>2026-04-04T09:17:41Z</time></trkpt><trkpt lat="44.90251015130695" lon="9.385641698412503"><ele>573.0</ele><time>2026-04-04T09:17:42Z</time></trkpt><trkpt lat="44.902437090753914" lon="9.385589993095255"><ele>573.0</ele><time>2026-04-04T09:17:43Z</time></trkpt><trkpt lat="44.902347908117605" lon="9.385562945540686"><ele>573.0</ele><time>2026-04-04T09:17:44Z</time></trkpt><trkpt lat="44.902246777278535" lon="9.385579149195902"><ele>573.0</ele><time>2026-04-04T09:17:45Z</time></trkpt><trkpt lat="44.90214748073029" lon="9.385660468137948"><ele>573.0</ele><time>2026-04-04T09:17:46Z</time></trkpt><trkpt lat="44.90205034601435" lon="9.38581290111057"><ele>573.0</ele><time>2026-04-04T09:17:47Z</time></trkpt><trkpt lat="44.90197872767197" lon="9.385946401454273"><ele>573.0</ele><time>2026-04-04T09:17:48Z</time></trkpt><trkpt lat="44.90189699511268" lon="9.386001705564391"><ele>573.0</ele><time>2026-04-04T09:17:49Z</time></trkpt><trkpt lat="44.901793468911656" lon="9.38607079055541"><ele>573.0</ele><time>2026-04-04T09:17:50Z</time></trkpt><trkpt lat="44.9017146413051" lon="9.386110730994996"><ele>573.0</ele><time>2026-04-04T09:17:51Z</time></trkpt><trkpt lat="44.90164180518363" lon="9.386142533198962"><ele>573.0</ele><time>2026-04-04T09:17:52Z</time></trkpt><trkpt lat="44.90156595023642" lon="9.386164848027954"><ele>573.0</ele><time>2026-04-04T09:17:53Z</time></trkpt><trkpt lat="44.901493591763526" lon="9.386164029133182"><ele>573.0</ele><time>2026-04-04T09:17:54Z</time></trkpt><trkpt lat="44.90136874325561" lon="9.386150486385961"><ele>575.75</ele><time>2026-04-04T09:17:55Z</time></trkpt><trkpt lat="44.901298978596465" lon="9.38615488877635"><ele>578.5</ele><time>2026-04-04T09:17:56Z</time></trkpt><trkpt lat="44.90116280418584" lon="9.386083373248889"><ele>581.25</ele><time>2026-04-04T09:17:58Z</time></trkpt><trkpt lat="44.90103917318616" lon="9.386026783872076"><ele>584.0</ele><time>2026-04-04T09:17:59Z</time></trkpt><trkpt lat="44.90093859572656" lon="9.38598432342602"><ele>585.0</ele><time>2026-04-04T09:18:00Z</time></trkpt><trkpt lat="44.900849130378965" lon="9.385938753248128"><ele>586.0</ele><time>2026-04-04T09:18:01Z</time></trkpt><trkpt lat="44.90073347625435" lon="9.385920878704583"><ele>587.0</ele><time>2026-04-04T09:18:02Z</time></trkpt><trkpt lat="44.900627649371835" lon="9.385933220306411"><ele>588.0</ele><time>2026-04-04T09:18:03Z</time></trkpt><trkpt lat="44.9005155777698" lon="9.385955541164206"><ele>589.0</ele><time>2026-04-04T09:18:04Z</time></trkpt><trkpt lat="44.90042051960922" lon="9.385974089123616"><ele>589.0</ele><time>2026-04-04T09:18:05Z</time></trkpt><trkpt lat="44.900338029554305" lon="9.385981621742841"><ele>589.0</ele><time>2026-04-04T09:18:06Z</time></trkpt><trkpt lat="44.900260958228984" lon="9.385983080284564"><ele>589.0</ele><time>2026-04-04T09:18:07Z</time></trkpt><trkpt lat="44.90017745284125" lon="9.38598488598854"><ele>589.0</ele><time>2026-04-04T09:18:08Z</time></trkpt><trkpt lat="44.90008501039901" lon="9.386010309774209"><ele>589.0</ele><time>2026-04-04T09:18:08.999Z</time></trkpt><trkpt lat="44.89999590789695" lon="9.385995708176099"><ele>589.0</ele><time>2026-04-04T09:18:09.999Z</time></trkpt><trkpt lat="44.899900030879834" lon="9.386024698434952"><ele>591.2</ele><time>2026-04-04T09:18:10.999Z</time></trkpt><trkpt lat="44.89980366846443" lon="9.386070490014394"><ele>593.4</ele><time>2026-04-04T09:18:11.999Z</time></trkpt><trkpt lat="44.899695747492544" lon="9.386123327582757"><ele>595.6</ele><time>2026-04-04T09:18:12.999Z</time></trkpt><trkpt lat="44.899607581542675" lon="9.386161581727636"><ele>597.8</ele><time>2026-04-04T09:18:13.999Z</time></trkpt><trkpt lat="44.89954536480723" lon="9.386181718018628"><ele>600.0</ele><time>2026-04-04T09:18:14.999Z</time></trkpt><trkpt lat="44.89944495036424" lon="9.386198483207469"><ele>600.0</ele><time>2026-04-04T09:18:15.999Z</time></trkpt><trkpt lat="44.89935858623873" lon="9.38619853134456"><ele>600.0</ele><time>2026-04-04T09:18:16.999Z</time></trkpt><trkpt lat="44.89926256882699" lon="9.386193895605262"><ele>600.0</ele><time>2026-04-04T09:18:17.999Z</time></trkpt><trkpt lat="44.899184728280545" lon="9.386162614911031"><ele>600.0</ele><time>2026-04-04T09:18:18.999Z</time></trkpt><trkpt lat="44.89911491529735" lon="9.386098927125511"><ele>600.0</ele><time>2026-04-04T09:18:19.999Z</time></trkpt><trkpt lat="44.89904235578396" lon="9.386053227564364"><ele>600.0</ele><time>2026-04-04T09:18:20.999Z</time></trkpt><trkpt lat="44.898969058095304" lon="9.386011678818676"><ele>601.3333333333334</ele><time>2026-04-04T09:18:21.999Z</time></trkpt><trkpt lat="44.89889209441583" lon="9.38599697039886"><ele>602.6666666666666</ele><time>2026-04-04T09:18:22.999Z</time></trkpt><trkpt lat="44.89881684829069" lon="9.385970819618251"><ele>604.0</ele><time>2026-04-04T09:18:23.999Z</time></trkpt><trkpt lat="44.898740654396086" lon="9.385937871837935"><ele>605.3333333333333</ele><time>2026-04-04T09:18:24.999Z</time></trkpt><trkpt lat="44.89865546923761" lon="9.385937327974274"><ele>606.6666666666666</ele><time>2026-04-04T09:18:25.999Z</time></trkpt><trkpt lat="44.89856244911047" lon="9.385959845466385"><ele>608.0</ele><time>2026-04-04T09:18:26.999Z</time></trkpt><trkpt lat="44.89847445292635" lon="9.386019793009176"><ele>608.1666666666666</ele><time>2026-04-04T09:18:27.999Z</time></trkpt><trkpt lat="44.898388526382" lon="9.386103319822734"><ele>608.3333333333333</ele><time>2026-04-04T09:18:28.999Z</time></trkpt><trkpt lat="44.89834034164241" lon="9.386231247566256"><ele>608.5</ele><time>2026-04-04T09:18:29.999Z</time></trkpt><trkpt lat="44.898289339442755" lon="9.386312202092046"><ele>608.6666666666666</ele><time>2026-04-04T09:18:30.999Z</time></trkpt><trkpt lat="44.89823440012584" lon="9.386382238853175"><ele>608.8333333333334</ele><time>2026-04-04T09:18:31.999Z</time></trkpt><trkpt lat="44.89814562772342" lon="9.386393404201753"><ele>609.0</ele><time>2026-04-04T09:18:32.999Z</time></trkpt><trkpt lat="44.89805029046843" lon="9.38637283700709"><ele>609.0</ele><time>2026-04-04T09:18:33.999Z</time></trkpt><trkpt lat="44.897949929880035" lon="9.386325137448615"><ele>609.0</ele><time>2026-04-04T09:18:34.999Z</time></trkpt><trkpt lat="44.89786214376248" lon="9.386234484118027"><ele>609.0</ele><time>2026-04-04T09:18:35.999Z</time></trkpt><trkpt lat="44.89779929416124" lon="9.386197024108458"><ele>609.0</ele><time>2026-04-04T09:18:36.999Z</time></trkpt><trkpt lat="44.89770687054971" lon="9.386160496090719"><ele>609.0</ele><time>2026-04-04T09:18:37.999Z</time></trkpt><trkpt lat="44.89756274737557" lon="9.386221941692508"><ele>609.75</ele><time>2026-04-04T09:18:38.999Z</time></trkpt><trkpt lat="44.89739346037595" lon="9.38624229073199"><ele>610.5</ele><time>2026-04-04T09:18:39.999Z</time></trkpt><trkpt lat="44.897271932387234" lon="9.386273683792687"><ele>611.25</ele><time>2026-04-04T09:18:40.999Z</time></trkpt><trkpt lat="44.897157170881215" lon="9.386304290236597"><ele>612.0</ele><time>2026-04-04T09:18:41.999Z</time></trkpt><trkpt lat="44.89707202220104" lon="9.386325737877984"><ele>612.0</ele><time>2026-04-04T09:18:42.999Z</time></trkpt><trkpt lat="44.89695647899644" lon="9.386350660481359"><ele>612.0</ele><time>2026-04-04T09:18:44.999Z</time></trkpt><trkpt lat="44.89688256372621" lon="9.386368567194614"><ele>612.0</ele><time>2026-04-04T09:18:45.999Z</time></trkpt><trkpt lat="44.89682610388598" lon="9.386319332736754"><ele>612.0</ele><time>2026-04-04T09:18:46.999Z</time></trkpt><trkpt lat="44.896750322765364" lon="9.386277376561281"><ele>612.0</ele><time>2026-04-04T09:18:47.999Z</time></trkpt><trkpt lat="44.896674078264205" lon="9.386184695789852"><ele>612.0</ele><time>2026-04-04T09:18:48.999Z</time></trkpt><trkpt lat="44.89661800936354" lon="9.386095811815286"><ele>613.0</ele><time>2026-04-04T09:18:49.999Z</time></trkpt><trkpt lat="44.8965590067508" lon="9.386042738909994"><ele>614.0</ele><time>2026-04-04T09:18:50.999Z</time></trkpt><trkpt lat="44.8964892963094" lon="9.385998536018736"><ele>615.0</ele><time>2026-04-04T09:18:51.999Z</time></trkpt><trkpt lat="44.89640161372951" lon="9.38596867898198"><ele>616.0</ele><time>2026-04-04T09:18:52.999Z</time></trkpt><trkpt lat="44.896290668803715" lon="9.386005537036153"><ele>617.0</ele><time>2026-04-04T09:18:53.999Z</time></trkpt><trkpt lat="44.896197296815195" lon="9.386112946368556"><ele>617.0</ele><time>2026-04-04T09:18:54.999Z</time></trkpt><trkpt lat="44.89615432472778" lon="9.386283143273467"><ele>617.0</ele><time>2026-04-04T09:18:55.999Z</time></trkpt><trkpt lat="44.89612005006539" lon="9.386379998616672"><ele>617.0</ele><time>2026-04-04T09:18:56.999Z</time></trkpt><trkpt lat="44.89602858608719" lon="9.386488017230402"><ele>617.0</ele><time>2026-04-04T09:18:58.999Z</time></trkpt><trkpt lat="44.89595880638837" lon="9.386517934231469"><ele>617.0</ele><time>2026-04-04T09:18:59.999Z</time></trkpt><trkpt lat="44.89586551065434" lon="9.386542278054089"><ele>615.75</ele><time>2026-04-04T09:19:00.999Z</time></trkpt><trkpt lat="44.895753012484505" lon="9.386558003841452"><ele>614.5</ele><time>2026-04-04T09:19:01.999Z</time></trkpt><trkpt lat="44.895654147621364" lon="9.386541115981972"><ele>613.25</ele><time>2026-04-04T09:19:02.999Z</time></trkpt><trkpt lat="44.895518014442196" lon="9.386551298653393"><ele>612.0</ele><time>2026-04-04T09:19:03.999Z</time></trkpt><trkpt lat="44.89541007343236" lon="9.386578825317612"><ele>612.0</ele><time>2026-04-04T09:19:04.999Z</time></trkpt><trkpt lat="44.89532210154589" lon="9.386613662929761"><ele>612.0</ele><time>2026-04-04T09:19:05.999Z</time></trkpt><trkpt lat="44.895246210718085" lon="9.386642083766647"><ele>612.0</ele><time>2026-04-04T09:19:06.999Z</time></trkpt><trkpt lat="44.89516610058432" lon="9.38666707692626"><ele>612.0</ele><time>2026-04-04T09:19:07.999Z</time></trkpt><trkpt lat="44.895045380712645" lon="9.386745220836016"><ele>612.0</ele><time>2026-04-04T09:19:08.999Z</time></trkpt><trkpt lat="44.894956915186015" lon="9.38692047122346"><ele>612.0</ele><time>2026-04-04T09:19:09.999Z</time></trkpt><trkpt lat="44.894915322159434" lon="9.387073370193791"><ele>612.0</ele><time>2026-04-04T09:19:10.999Z</time></trkpt><trkpt lat="44.894862159593806" lon="9.387189570661809"><ele>612.0</ele><time>2026-04-04T09:19:11.999Z</time></trkpt><trkpt lat="44.894808052481494" lon="9.387279165005484"><ele>612.0</ele><time>2026-04-04T09:19:12.999Z</time></trkpt><trkpt lat="44.89474545710534" lon="9.387337120895761"><ele>612.0</ele><time>2026-04-04T09:19:13.999Z</time></trkpt><trkpt lat="44.89468376320689" lon="9.387361779594768"><ele>612.0</ele><time>2026-04-04T09:19:14.999Z</time></trkpt><trkpt lat="44.8945563744492" lon="9.387409566947783"><ele>612.0</ele><time>2026-04-04T09:19:15.999Z</time></trkpt><trkpt lat="44.89439760480112" lon="9.38754290860096"><ele>612.0</ele><time>2026-04-04T09:19:16.999Z</time></trkpt><trkpt lat="44.89428700378357" lon="9.38769632069303"><ele>612.0</ele><time>2026-04-04T09:19:17.999Z</time></trkpt><trkpt lat="44.89422086114354" lon="9.387804027761407"><ele>612.0</ele><time>2026-04-04T09:19:18.999Z</time></trkpt><trkpt lat="44.894144624081925" lon="9.38785423620109"><ele>617.0</ele><time>2026-04-04T09:19:19.999Z</time></trkpt><trkpt lat="44.89406960152617" lon="9.38786477579686"><ele>622.0</ele><time>2026-04-04T09:19:20.999Z</time></trkpt><trkpt lat="44.89397127592641" lon="9.387876572385712"><ele>627.0</ele><time>2026-04-04T09:19:21.999Z</time></trkpt><trkpt lat="44.89385883903384" lon="9.387909721771187"><ele>632.0</ele><time>2026-04-04T09:19:22.998Z</time></trkpt><trkpt lat="44.893743113903184" lon="9.387956174405256"><ele>637.0</ele><time>2026-04-04T09:19:23.998Z</time></trkpt><trkpt lat="44.89366433982002" lon="9.387997292973102"><ele>636.8333333333334</ele><time>2026-04-04T09:19:24.998Z</time></trkpt><trkpt lat="44.893595898180195" lon="9.388038439293192"><ele>636.6666666666667</ele><time>2026-04-04T09:19:26Z</time></trkpt><trkpt lat="44.89352053900174" lon="9.388091523902487"><ele>636.5</ele><time>2026-04-04T09:19:27Z</time></trkpt><trkpt lat="44.89344516347873" lon="9.388169421339079"><ele>636.3333333333334</ele><time>2026-04-04T09:19:28Z</time></trkpt><trkpt lat="44.89336727723005" lon="9.388278805530986"><ele>636.1666666666666</ele><time>2026-04-04T09:19:29Z</time></trkpt><trkpt lat="44.893312369968285" lon="9.38835783174687"><ele>636.0</ele><time>2026-04-04T09:19:30Z</time></trkpt><trkpt lat="44.893250037570766" lon="9.388448070462308"><ele>636.0</ele><time>2026-04-04T09:19:31Z</time></trkpt><trkpt lat="44.89317284535219" lon="9.388518332238839"><ele>636.0</ele><time>2026-04-04T09:19:32Z</time></trkpt><trkpt lat="44.89308982963115" lon="9.388541161733968"><ele>636.0</ele><time>2026-04-04T09:19:33Z</time></trkpt><trkpt lat="44.89295700997094" lon="9.388533372739936"><ele>636.0</ele><time>2026-04-04T09:19:34Z</time></trkpt><trkpt lat="44.89284387216987" lon="9.388501010388778"><ele>636.0</ele><time>2026-04-04T09:19:35Z</time></trkpt><trkpt lat="44.89272927593467" lon="9.388483801975255"><ele>636.0</ele><time>2026-04-04T09:19:36Z</time></trkpt><trkpt lat="44.89263146366826" lon="9.388460351344891"><ele>636.0</ele><time>2026-04-04T09:19:37Z</time></trkpt><trkpt lat="44.8925480665033" lon="9.38841286674036"><ele>636.0</ele><time>2026-04-04T09:19:38Z</time></trkpt><trkpt lat="44.89245007407988" lon="9.38836986299144"><ele>636.0</ele><time>2026-04-04T09:19:39Z</time></trkpt><trkpt lat="44.892376604990645" lon="9.388332077572853"><ele>636.0</ele><time>2026-04-04T09:19:40Z</time></trkpt><trkpt lat="44.8923091685445" lon="9.38828489374233"><ele>636.0</ele><time>2026-04-04T09:19:41Z</time></trkpt><trkpt lat="44.89225654975923" lon="9.388231932746612"><ele>636.7142857142857</ele><time>2026-04-04T09:19:43Z</time></trkpt><trkpt lat="44.892231723829205" lon="9.388125996410029"><ele>637.4285714285714</ele><time>2026-04-04T09:20:03Z</time></trkpt><trkpt lat="44.892225532493825" lon="9.388025016601322"><ele>638.1428571428571</ele><time>2026-04-04T09:20:17.999Z</time></trkpt><trkpt lat="44.8922223425494" lon="9.387899574751085"><ele>638.8571428571429</ele><time>2026-04-04T09:20:20.999Z</time></trkpt><trkpt lat="44.89221468293684" lon="9.387809928731018"><ele>639.5714285714286</ele><time>2026-04-04T09:20:22.999Z</time></trkpt><trkpt lat="44.89220897533508" lon="9.387720982849443"><ele>640.2857142857143</ele><time>2026-04-04T09:20:25.999Z</time></trkpt><trkpt lat="44.89221556598109" lon="9.387607683820027"><ele>641.0</ele><time>2026-04-04T09:20:44.999Z</time></trkpt><trkpt lat="44.89221566161464" lon="9.387477991225719"><ele>642.3333333333333</ele><time>2026-04-04T09:20:47.999Z</time></trkpt><trkpt lat="44.89220977801366" lon="9.387368169410756"><ele>643.6666666666666</ele><time>2026-04-04T09:20:49.999Z</time></trkpt><trkpt lat="44.89221393845747" lon="9.387275928236702"><ele>645.0</ele><time>2026-04-04T09:20:51.999Z</time></trkpt><trkpt lat="44.89219356264762" lon="9.387133889091185"><ele>646.3333333333334</ele><time>2026-04-04T09:20:54.999Z</time></trkpt><trkpt lat="44.89219170248103" lon="9.387033796497539"><ele>647.6666666666667</ele><time>2026-04-04T09:20:56.999Z</time></trkpt><trkpt lat="44.8922192120591" lon="9.386913999937708"><ele>649.0</ele><time>2026-04-04T09:20:58.999Z</time></trkpt><trkpt lat="44.89223724981419" lon="9.38676528620537"><ele>649.0</ele><time>2026-04-04T09:21:01.999Z</time></trkpt><trkpt lat="44.892252179061565" lon="9.38667011120434"><ele>649.0</ele><time>2026-04-04T09:21:02.999Z</time></trkpt><trkpt lat="44.89225138537585" lon="9.386570560663865"><ele>649.0</ele><time>2026-04-04T09:21:03.999Z</time></trkpt><trkpt lat="44.892274946979235" lon="9.386417637802268"><ele>649.0</ele><time>2026-04-04T09:21:05.999Z</time></trkpt><trkpt lat="44.89227700396325" lon="9.386279416687803"><ele>649.0</ele><time>2026-04-04T09:21:07.999Z</time></trkpt><trkpt lat="44.892274211228155" lon="9.386148354157775"><ele>649.0</ele><time>2026-04-04T09:21:09.999Z</time></trkpt><trkpt lat="44.8922599014451" lon="9.385981318760285"><ele>648.4000000000001</ele><time>2026-04-04T09:21:11.999Z</time></trkpt><trkpt lat="44.89223947628672" lon="9.385822721905134"><ele>647.8</ele><time>2026-04-04T09:21:13.999Z</time></trkpt><trkpt lat="44.892214731376164" lon="9.38568060001695"><ele>647.2</ele><time>2026-04-04T09:21:15.999Z</time></trkpt><trkpt lat="44.89217752813039" lon="9.38554341006579"><ele>646.5999999999999</ele><time>2026-04-04T09:21:17.999Z</time></trkpt><trkpt lat="44.89213444378954" lon="9.38547795197023"><ele>646.0</ele><time>2026-04-04T09:21:18.999Z</time></trkpt><trkpt lat="44.89208198029159" lon="9.385353974147506"><ele>645.1999999999999</ele><time>2026-04-04T09:21:20.999Z</time></trkpt><trkpt lat="44.892027899668655" lon="9.385211441368401"><ele>644.4</ele><time>2026-04-04T09:21:22.999Z</time></trkpt><trkpt lat="44.89198285432749" lon="9.385078119504529"><ele>643.6</ele><time>2026-04-04T09:21:24.999Z</time></trkpt><trkpt lat="44.89198329406011" lon="9.384987427897201"><ele>642.8</ele><time>2026-04-04T09:21:25.999Z</time></trkpt><trkpt lat="44.891921448476374" lon="9.384862043611454"><ele>642.0</ele><time>2026-04-04T09:21:27.999Z</time></trkpt><trkpt lat="44.89187162007475" lon="9.384734449388798"><ele>643.0</ele><time>2026-04-04T09:21:29.999Z</time></trkpt><trkpt lat="44.89182381462843" lon="9.384583724365678"><ele>644.0</ele><time>2026-04-04T09:21:32Z</time></trkpt><trkpt lat="44.89177886630156" lon="9.384457968009208"><ele>645.0</ele><time>2026-04-04T09:21:34Z</time></trkpt><trkpt lat="44.89172533021434" lon="9.384297955026115"><ele>646.0</ele><time>2026-04-04T09:21:36Z</time></trkpt><trkpt lat="44.891660136368536" lon="9.384146549949845"><ele>642.7142857142858</ele><time>2026-04-04T09:21:38Z</time></trkpt><trkpt lat="44.891635208549395" lon="9.384059732680425"><ele>639.4285714285714</ele><time>2026-04-04T09:21:39Z</time></trkpt><trkpt lat="44.89161156379077" lon="9.383974702457797"><ele>636.1428571428571</ele><time>2026-04-04T09:21:40Z</time></trkpt><trkpt lat="44.89158556870991" lon="9.383886361493339"><ele>632.8571428571429</ele><time>2026-04-04T09:21:41Z</time></trkpt><trkpt lat="44.89155651196693" lon="9.383787245443932"><ele>629.5714285714286</ele><time>2026-04-04T09:21:42Z</time></trkpt><trkpt lat="44.89152926537461" lon="9.383693880412581"><ele>626.2857142857143</ele><time>2026-04-04T09:21:43Z</time></trkpt><trkpt lat="44.8915042483473" lon="9.38359576522357"><ele>623.0</ele><time>2026-04-04T09:21:44Z</time></trkpt><trkpt lat="44.89148204635303" lon="9.383502511134768"><ele>623.0</ele><time>2026-04-04T09:21:45Z</time></trkpt><trkpt lat="44.89146110489412" lon="9.383412041818865"><ele>623.0</ele><time>2026-04-04T09:21:46Z</time></trkpt><trkpt lat="44.891431344310845" lon="9.383300507695148"><ele>623.0</ele><time>2026-04-04T09:21:47Z</time></trkpt><trkpt lat="44.89139751177381" lon="9.383202432468666"><ele>623.0</ele><time>2026-04-04T09:21:48Z</time></trkpt><trkpt lat="44.891381256482475" lon="9.383092682400344"><ele>623.0</ele><time>2026-04-04T09:21:49Z</time></trkpt><trkpt lat="44.89133075341591" lon="9.382989034874008"><ele>623.0</ele><time>2026-04-04T09:21:50Z</time></trkpt><trkpt lat="44.89129326778157" lon="9.38289251487635"><ele>623.0</ele><time>2026-04-04T09:21:51Z</time></trkpt><trkpt lat="44.89125338148076" lon="9.382807323615253"><ele>623.0</ele><time>2026-04-04T09:21:52Z</time></trkpt><trkpt lat="44.89119564593328" lon="9.382682180840426"><ele>623.0</ele><time>2026-04-04T09:21:54Z</time></trkpt><trkpt lat="44.891170379348466" lon="9.382531395224241"><ele>623.0</ele><time>2026-04-04T09:21:56Z</time></trkpt><trkpt lat="44.89121234780796" lon="9.382387703003388"><ele>623.0</ele><time>2026-04-04T09:21:58Z</time></trkpt><trkpt lat="44.891255344268664" lon="9.382314883678283"><ele>623.0</ele><time>2026-04-04T09:21:59Z</time></trkpt><trkpt lat="44.89129665084755" lon="9.382215583231805"><ele>623.0</ele><time>2026-04-04T09:22:01Z</time></trkpt><trkpt lat="44.89131927964218" lon="9.382091745274144"><ele>623.0</ele><time>2026-04-04T09:22:04Z</time></trkpt><trkpt lat="44.8913599727139" lon="9.382000611970032"><ele>623.0</ele><time>2026-04-04T09:22:07Z</time></trkpt><trkpt lat="44.89140766991537" lon="9.381905425417147"><ele>623.0</ele><time>2026-04-04T09:22:10Z</time></trkpt><trkpt lat="44.89146484779583" lon="9.3817977356497"><ele>623.0</ele><time>2026-04-04T09:22:13Z</time></trkpt><trkpt lat="44.89149634305866" lon="9.38169594579817"><ele>621.6</ele><time>2026-04-04T09:22:15Z</time></trkpt><trkpt lat="44.89154188631981" lon="9.381576501399469"><ele>620.1999999999999</ele><time>2026-04-04T09:22:18Z</time></trkpt><trkpt lat="44.89160221568677" lon="9.381481627370396"><ele>618.8</ele><time>2026-04-04T09:22:20Z</time></trkpt><trkpt lat="44.89167062519118" lon="9.381407919855292"><ele>617.4</ele><time>2026-04-04T09:22:22Z</time></trkpt><trkpt lat="44.89173786898831" lon="9.381319938921786"><ele>616.0</ele><time>2026-04-04T09:22:24Z</time></trkpt><trkpt lat="44.89180334060619" lon="9.38122027460015"><ele>614.1666666666667</ele><time>2026-04-04T09:22:25.999Z</time></trkpt><trkpt lat="44.89183877941427" lon="9.381127612240398"><ele>612.3333333333334</ele><time>2026-04-04T09:22:27.999Z</time></trkpt><trkpt lat="44.89187114640371" lon="9.380988226874244"><ele>610.5</ele><time>2026-04-04T09:22:30.999Z</time></trkpt><trkpt lat="44.891907717931815" lon="9.380867285640791"><ele>608.6666666666666</ele><time>2026-04-04T09:22:32.999Z</time></trkpt><trkpt lat="44.8919607941489" lon="9.380777598821178"><ele>606.8333333333333</ele><time>2026-04-04T09:22:34.999Z</time></trkpt><trkpt lat="44.89202396486728" lon="9.380689688685818"><ele>605.0</ele><time>2026-04-04T09:22:36.999Z</time></trkpt><trkpt lat="44.892143000862184" lon="9.380667781538058"><ele>605.0</ele><time>2026-04-04T09:22:38.999Z</time></trkpt><trkpt lat="44.89223941420403" lon="9.380653621083013"><ele>605.0</ele><time>2026-04-04T09:22:40.999Z</time></trkpt><trkpt lat="44.89233100931634" lon="9.380662059767424"><ele>605.0</ele><time>2026-04-04T09:22:42.999Z</time></trkpt><trkpt lat="44.89245269255381" lon="9.38066623594008"><ele>605.0</ele><time>2026-04-04T09:22:44.999Z</time></trkpt><trkpt lat="44.89256471664331" lon="9.38062159378128"><ele>605.0</ele><time>2026-04-04T09:22:46.999Z</time></trkpt><trkpt lat="44.89265208996251" lon="9.38047935987675"><ele>606.1666666666666</ele><time>2026-04-04T09:22:48.999Z</time></trkpt><trkpt lat="44.892704506587165" lon="9.380351872354531"><ele>607.3333333333333</ele><time>2026-04-04T09:22:50.999Z</time></trkpt><trkpt lat="44.892743226525845" lon="9.380257969861326"><ele>608.5</ele><time>2026-04-04T09:22:51.999Z</time></trkpt><trkpt lat="44.892812749339214" lon="9.380184552169869"><ele>609.6666666666666</ele><time>2026-04-04T09:22:52.999Z</time></trkpt><trkpt lat="44.89289245477942" lon="9.380113550410163"><ele>610.8333333333334</ele><time>2026-04-04T09:22:53.999Z</time></trkpt><trkpt lat="44.89294684889156" lon="9.38003119863945"><ele>612.0</ele><time>2026-04-04T09:22:54.999Z</time></trkpt><trkpt lat="44.89297924469874" lon="9.379952066031962"><ele>612.0</ele><time>2026-04-04T09:22:55.999Z</time></trkpt><trkpt lat="44.89299734355628" lon="9.37986157478672"><ele>612.0</ele><time>2026-04-04T09:22:56.999Z</time></trkpt><trkpt lat="44.89302873811615" lon="9.379733356578276"><ele>612.0</ele><time>2026-04-04T09:22:57.999Z</time></trkpt><trkpt lat="44.893037937780356" lon="9.379636081066693"><ele>612.0</ele><time>2026-04-04T09:22:58.999Z</time></trkpt><trkpt lat="44.893042907081224" lon="9.379519296090695"><ele>612.0</ele><time>2026-04-04T09:22:59.999Z</time></trkpt><trkpt lat="44.89301791919723" lon="9.37939257283425"><ele>612.0</ele><time>2026-04-04T09:23:00.999Z</time></trkpt><trkpt lat="44.89300913687347" lon="9.379284088045896"><ele>608.8333333333334</ele><time>2026-04-04T09:23:01.999Z</time></trkpt><trkpt lat="44.893004337406765" lon="9.379189688224674"><ele>605.6666666666666</ele><time>2026-04-04T09:23:02.999Z</time></trkpt><trkpt lat="44.893017919849925" lon="9.379032134756589"><ele>602.5</ele><time>2026-04-04T09:23:04.999Z</time></trkpt><trkpt lat="44.89301605098164" lon="9.37890496229315"><ele>599.3333333333333</ele><time>2026-04-04T09:23:06.999Z</time></trkpt><trkpt lat="44.89300869323382" lon="9.378775365282028"><ele>596.1666666666666</ele><time>2026-04-04T09:23:08.999Z</time></trkpt><trkpt lat="44.89301928530011" lon="9.37865968741935"><ele>593.0</ele><time>2026-04-04T09:23:10.999Z</time></trkpt><trkpt lat="44.89302972032159" lon="9.378534084170479"><ele>592.8</ele><time>2026-04-04T09:23:12.999Z</time></trkpt><trkpt lat="44.893082060830146" lon="9.37846535379476"><ele>592.5999999999999</ele><time>2026-04-04T09:23:14.999Z</time></trkpt><trkpt lat="44.89328320950045" lon="9.378425220165504"><ele>592.4000000000001</ele><time>2026-04-04T09:23:19.999Z</time></trkpt><trkpt lat="44.89334890356869" lon="9.378424254780603"><ele>592.2</ele><time>2026-04-04T09:23:20.999Z</time></trkpt><trkpt lat="44.89342257703181" lon="9.378384549261852"><ele>592.0</ele><time>2026-04-04T09:23:22.999Z</time></trkpt><trkpt lat="44.893506023343065" lon="9.378283626682263"><ele>592.0</ele><time>2026-04-04T09:23:25.999Z</time></trkpt><trkpt lat="44.89350846846821" lon="9.378130827820673"><ele>592.0</ele><time>2026-04-04T09:23:27.999Z</time></trkpt><trkpt lat="44.893446633834564" lon="9.378024541376146"><ele>592.0</ele><time>2026-04-04T09:23:29.999Z</time></trkpt><trkpt lat="44.89337441389277" lon="9.377953083560318"><ele>592.0</ele><time>2026-04-04T09:23:31.999Z</time></trkpt><trkpt lat="44.893293567182475" lon="9.377889731142517"><ele>592.0</ele><time>2026-04-04T09:23:33.999Z</time></trkpt><trkpt lat="44.893247936945706" lon="9.377822563796974"><ele>587.0</ele><time>2026-04-04T09:23:35.999Z</time></trkpt><trkpt lat="44.89322071294221" lon="9.377714088054761"><ele>582.0</ele><time>2026-04-04T09:23:38Z</time></trkpt><trkpt lat="44.893198253091356" lon="9.377565480347718"><ele>577.0</ele><time>2026-04-04T09:23:40Z</time></trkpt><trkpt lat="44.893162943538854" lon="9.377411073171311"><ele>572.0</ele><time>2026-04-04T09:23:42Z</time></trkpt><trkpt lat="44.8931492721447" lon="9.377286278811333"><ele>567.0</ele><time>2026-04-04T09:23:44Z</time></trkpt><trkpt lat="44.893144268753844" lon="9.377148385941249"><ele>565.0</ele><time>2026-04-04T09:23:46Z</time></trkpt><trkpt lat="44.8931524181338" lon="9.377033785696192"><ele>563.0</ele><time>2026-04-04T09:23:48Z</time></trkpt><trkpt lat="44.89317825993594" lon="9.37694964931714"><ele>561.0</ele><time>2026-04-04T09:24:56.999Z</time></trkpt><trkpt lat="44.8932229880556" lon="9.376884620695028"><ele>559.0</ele><time>2026-04-04T09:24:59.999Z</time></trkpt><trkpt lat="44.89328667850526" lon="9.37683373613266"><ele>557.0</ele><time>2026-04-04T09:25:02.999Z</time></trkpt><trkpt lat="44.89335328940437" lon="9.376798653992644"><ele>555.0</ele><time>2026-04-04T09:25:04.999Z</time></trkpt><trkpt lat="44.89343699862646" lon="9.37670837512145"><ele>553.2</ele><time>2026-04-04T09:25:06.999Z</time></trkpt><trkpt lat="44.89349422542452" lon="9.376670520801158"><ele>551.4</ele><time>2026-04-04T09:25:07.999Z</time></trkpt><trkpt lat="44.89359270481095" lon="9.376591398675417"><ele>549.6</ele><time>2026-04-04T09:25:09.999Z</time></trkpt><trkpt lat="44.89365025989231" lon="9.376546924753775"><ele>547.8</ele><time>2026-04-04T09:25:10.999Z</time></trkpt><trkpt lat="44.89375097236295" lon="9.376446142267302"><ele>546.0</ele><time>2026-04-04T09:25:12.999Z</time></trkpt><trkpt lat="44.89383924419708" lon="9.376345028352107"><ele>542.2</ele><time>2026-04-04T09:25:14.999Z</time></trkpt><trkpt lat="44.89390653531239" lon="9.376229752355739"><ele>538.4000000000001</ele><time>2026-04-04T09:25:16.999Z</time></trkpt><trkpt lat="44.89394685913895" lon="9.376092640502199"><ele>534.6</ele><time>2026-04-04T09:25:18.999Z</time></trkpt><trkpt lat="44.89394372363621" lon="9.375949171820277"><ele>530.8000000000001</ele><time>2026-04-04T09:25:20.999Z</time></trkpt><trkpt lat="44.89390090465526" lon="9.375781329920839"><ele>527.0</ele><time>2026-04-04T09:25:22.999Z</time></trkpt><trkpt lat="44.893828661611195" lon="9.375655926168287"><ele>527.0</ele><time>2026-04-04T09:25:24.999Z</time></trkpt><trkpt lat="44.893784182754814" lon="9.375587937833268"><ele>527.0</ele><time>2026-04-04T09:25:25.999Z</time></trkpt><trkpt lat="44.893720768309684" lon="9.375453602506658"><ele>527.0</ele><time>2026-04-04T09:25:27.999Z</time></trkpt><trkpt lat="44.893658231974754" lon="9.375344892110405"><ele>527.0</ele><time>2026-04-04T09:25:29.999Z</time></trkpt><trkpt lat="44.89360974894048" lon="9.375253148357057"><ele>527.0</ele><time>2026-04-04T09:25:31.999Z</time></trkpt><trkpt lat="44.89356531989074" lon="9.375164254279817"><ele>527.0</ele><time>2026-04-04T09:25:33.999Z</time></trkpt><trkpt lat="44.89349489055662" lon="9.375040980961932"><ele>527.2</ele><time>2026-04-04T09:25:35.999Z</time></trkpt><trkpt lat="44.89340766557203" lon="9.374996005850534"><ele>527.4000000000001</ele><time>2026-04-04T09:25:37.999Z</time></trkpt><trkpt lat="44.89329839560483" lon="9.37493455874814"><ele>527.5999999999999</ele><time>2026-04-04T09:25:39.999Z</time></trkpt><trkpt lat="44.89323164541635" lon="9.37489743684169"><ele>527.8</ele><time>2026-04-04T09:25:40.999Z</time></trkpt><trkpt lat="44.89316348226082" lon="9.374815189428986"><ele>528.0</ele><time>2026-04-04T09:25:42.999Z</time></trkpt><trkpt lat="44.89312028139922" lon="9.374721730863644"><ele>525.6666666666666</ele><time>2026-04-04T09:25:45Z</time></trkpt><trkpt lat="44.8930516144525" lon="9.37465672349992"><ele>523.3333333333334</ele><time>2026-04-04T09:25:48Z</time></trkpt><trkpt lat="44.89297677377012" lon="9.374609147448389"><ele>521.0</ele><time>2026-04-04T09:25:50Z</time></trkpt><trkpt lat="44.89295624337218" lon="9.374521456211223"><ele>518.6666666666667</ele><time>2026-04-04T09:25:52Z</time></trkpt><trkpt lat="44.89299205999436" lon="9.374405090471127"><ele>516.3333333333334</ele><time>2026-04-04T09:25:54Z</time></trkpt><trkpt lat="44.8930753977454" lon="9.374367925395205"><ele>514.0</ele><time>2026-04-04T09:25:56Z</time></trkpt><trkpt lat="44.893220358618194" lon="9.374403079798432"><ele>514.0</ele><time>2026-04-04T09:25:59Z</time></trkpt><trkpt lat="44.89330059040116" lon="9.374416965723594"><ele>514.0</ele><time>2026-04-04T09:26:00Z</time></trkpt><trkpt lat="44.89339893978635" lon="9.374422804957032"><ele>514.0</ele><time>2026-04-04T09:26:02Z</time></trkpt><trkpt lat="44.893477245530455" lon="9.374393391976902"><ele>514.0</ele><time>2026-04-04T09:26:05Z</time></trkpt><trkpt lat="44.893573114638585" lon="9.37435816873885"><ele>514.0</ele><time>2026-04-04T09:26:08Z</time></trkpt><trkpt lat="44.89363970395475" lon="9.374329481623585"><ele>514.0</ele><time>2026-04-04T09:26:10Z</time></trkpt><trkpt lat="44.893729402028214" lon="9.37428682163374"><ele>512.5714285714286</ele><time>2026-04-04T09:26:13Z</time></trkpt><trkpt lat="44.893795817771526" lon="9.374297084931547"><ele>511.14285714285717</ele><time>2026-04-04T09:26:16Z</time></trkpt><trkpt lat="44.89385190781529" lon="9.374338497694469"><ele>509.7142857142857</ele><time>2026-04-04T09:26:18Z</time></trkpt><trkpt lat="44.89392125486277" lon="9.374368519696812"><ele>508.2857142857143</ele><time>2026-04-04T09:26:20Z</time></trkpt><trkpt lat="44.89398368109565" lon="9.374394323197807"><ele>506.8571428571429</ele><time>2026-04-04T09:26:22Z</time></trkpt><trkpt lat="44.89402584472747" lon="9.374306603585085"><ele>505.42857142857144</ele><time>2026-04-04T09:26:25Z</time></trkpt><trkpt lat="44.89405793637272" lon="9.374214529822085"><ele>504.0</ele><time>2026-04-04T09:26:27Z</time></trkpt><trkpt lat="44.89403680447009" lon="9.374096612701148"><ele>504.0</ele><time>2026-04-04T09:26:29Z</time></trkpt><trkpt lat="44.89398828576092" lon="9.373939449866432"><ele>504.0</ele><time>2026-04-04T09:26:31Z</time></trkpt><trkpt lat="44.8939831689383" lon="9.37381695779428"><ele>504.0</ele><time>2026-04-04T09:26:34.999Z</time></trkpt><trkpt lat="44.89397800701677" lon="9.37370419378135"><ele>504.0</ele><time>2026-04-04T09:26:37.999Z</time></trkpt><trkpt lat="44.89393689775977" lon="9.373612950901586"><ele>504.0</ele><time>2026-04-04T09:26:39.999Z</time></trkpt><trkpt lat="44.89392423620272" lon="9.373520803155278"><ele>504.0</ele><time>2026-04-04T09:26:40.999Z</time></trkpt><trkpt lat="44.89392853090611" lon="9.373391799225368"><ele>500.6</ele><time>2026-04-04T09:26:42.999Z</time></trkpt><trkpt lat="44.893892841840334" lon="9.373242474821273"><ele>497.2</ele><time>2026-04-04T09:26:45.999Z</time></trkpt><trkpt lat="44.893849595658565" lon="9.373108979586691"><ele>493.80000000000007</ele><time>2026-04-04T09:26:48.999Z</time></trkpt><trkpt lat="44.89379742436574" lon="9.37298476870977"><ele>490.40000000000003</ele><time>2026-04-04T09:26:49.999Z</time></trkpt><trkpt lat="44.89369604186235" lon="9.372893802319"><ele>487.0</ele><time>2026-04-04T09:26:51.999Z</time></trkpt><trkpt lat="44.89359748029184" lon="9.372840976185014"><ele>484.6</ele><time>2026-04-04T09:26:53.999Z</time></trkpt><trkpt lat="44.893466000756206" lon="9.372810619261951"><ele>482.20000000000005</ele><time>2026-04-04T09:26:55.999Z</time></trkpt><trkpt lat="44.893362928517675" lon="9.372854586407945"><ele>479.8</ele><time>2026-04-04T09:26:57.999Z</time></trkpt><trkpt lat="44.893273180633315" lon="9.372885484093032"><ele>477.4</ele><time>2026-04-04T09:26:59.999Z</time></trkpt><trkpt lat="44.893163312254316" lon="9.372902048186996"><ele>475.0</ele><time>2026-04-04T09:27:01.999Z</time></trkpt><trkpt lat="44.89306510543006" lon="9.372890739206113"><ele>475.00000000000006</ele><time>2026-04-04T09:27:03.999Z</time></trkpt><trkpt lat="44.89297385422745" lon="9.372837909109304"><ele>475.0</ele><time>2026-04-04T09:27:05.999Z</time></trkpt><trkpt lat="44.89287612241177" lon="9.372780081984935"><ele>475.0</ele><time>2026-04-04T09:27:07.999Z</time></trkpt><trkpt lat="44.892788841965604" lon="9.372736042388116"><ele>475.0</ele><time>2026-04-04T09:27:09.999Z</time></trkpt><trkpt lat="44.89272688531666" lon="9.372715015428772"><ele>475.00000000000006</ele><time>2026-04-04T09:27:10.999Z</time></trkpt><trkpt lat="44.892649685148996" lon="9.372695285346254"><ele>475.0</ele><time>2026-04-04T09:27:11.999Z</time></trkpt><trkpt lat="44.89258414954001" lon="9.372679601281028"><ele>475.1666666666667</ele><time>2026-04-04T09:27:12.999Z</time></trkpt><trkpt lat="44.89251286661909" lon="9.372657608848595"><ele>475.33333333333337</ele><time>2026-04-04T09:27:13.999Z</time></trkpt><trkpt lat="44.892415180850634" lon="9.372630988370757"><ele>475.5</ele><time>2026-04-04T09:27:15.999Z</time></trkpt><trkpt lat="44.89232359048642" lon="9.37260671434023"><ele>475.66666666666663</ele><time>2026-04-04T09:27:17.999Z</time></trkpt><trkpt lat="44.89223549529818" lon="9.372583366949147"><ele>475.8333333333333</ele><time>2026-04-04T09:27:19.999Z</time></trkpt><trkpt lat="44.892163389618425" lon="9.372560401822787"><ele>476.0</ele><time>2026-04-04T09:27:20.999Z</time></trkpt><trkpt lat="44.892096679518374" lon="9.37250661351497"><ele>476.0</ele><time>2026-04-04T09:27:21.999Z</time></trkpt><trkpt lat="44.89201204201528" lon="9.372447977272223"><ele>476.0</ele><time>2026-04-04T09:27:23.999Z</time></trkpt><trkpt lat="44.891929520428384" lon="9.372384860465894"><ele>476.0</ele><time>2026-04-04T09:27:25.999Z</time></trkpt><trkpt lat="44.89183420638667" lon="9.372322512215595"><ele>476.0</ele><time>2026-04-04T09:27:27.999Z</time></trkpt><trkpt lat="44.89170952798599" lon="9.372212484668376"><ele>476.0</ele><time>2026-04-04T09:27:29.999Z</time></trkpt><trkpt lat="44.89164238657378" lon="9.372241530464485"><ele>476.16666666666663</ele><time>2026-04-04T09:27:30.999Z</time></trkpt><trkpt lat="44.891520520751286" lon="9.372241282168387"><ele>476.3333333333333</ele><time>2026-04-04T09:27:32.999Z</time></trkpt><trkpt lat="44.89145354590781" lon="9.372241282170407"><ele>476.5</ele><time>2026-04-04T09:27:33.999Z</time></trkpt><trkpt lat="44.89136819293063" lon="9.372306020682965"><ele>476.66666666666663</ele><time>2026-04-04T09:27:34.999Z</time></trkpt><trkpt lat="44.891278139398416" lon="9.372362642551064"><ele>476.8333333333333</ele><time>2026-04-04T09:27:35.999Z</time></trkpt><trkpt lat="44.89123097635354" lon="9.372423011856727"><ele>477.0</ele><time>2026-04-04T09:27:36.999Z</time></trkpt><trkpt lat="44.89116043230598" lon="9.3724864666876"><ele>477.0</ele><time>2026-04-04T09:27:38.999Z</time></trkpt><trkpt lat="44.89107923246657" lon="9.372576681939094"><ele>477.00000000000006</ele><time>2026-04-04T09:27:40.999Z</time></trkpt><trkpt lat="44.89103556104923" lon="9.372751164852623"><ele>477.00000000000006</ele><time>2026-04-04T09:27:42.999Z</time></trkpt><trkpt lat="44.89098541610495" lon="9.372890051608811"><ele>477.0</ele><time>2026-04-04T09:27:44.998Z</time></trkpt><trkpt lat="44.89094048898488" lon="9.372960776243579"><ele>477.0</ele><time>2026-04-04T09:27:45.998Z</time></trkpt><trkpt lat="44.89088094658401" lon="9.373062625018601"><ele>476.5</ele><time>2026-04-04T09:27:46.998Z</time></trkpt><trkpt lat="44.89082918796392" lon="9.373159754679921"><ele>476.0</ele><time>2026-04-04T09:27:47.998Z</time></trkpt><trkpt lat="44.89077887244549" lon="9.37326672521526"><ele>475.5</ele><time>2026-04-04T09:27:48.998Z</time></trkpt><trkpt lat="44.890750876718464" lon="9.373377035926184"><ele>475.0</ele><time>2026-04-04T09:27:50Z</time></trkpt><trkpt lat="44.890708395888254" lon="9.373469505359378"><ele>474.5</ele><time>2026-04-04T09:27:51Z</time></trkpt><trkpt lat="44.89068251694295" lon="9.373569797930468"><ele>474.0</ele><time>2026-04-04T09:27:52Z</time></trkpt><trkpt lat="44.89066981078966" lon="9.373684231012348"><ele>474.0</ele><time>2026-04-04T09:27:53Z</time></trkpt><trkpt lat="44.89068947463145" lon="9.373805334357739"><ele>474.0</ele><time>2026-04-04T09:27:54Z</time></trkpt><trkpt lat="44.890711842836254" lon="9.373908107835545"><ele>474.0</ele><time>2026-04-04T09:27:55Z</time></trkpt><trkpt lat="44.890721294382594" lon="9.37400453760426"><ele>474.0</ele><time>2026-04-04T09:27:56Z</time></trkpt><trkpt lat="44.89073018238384" lon="9.374097779247275"><ele>474.0</ele><time>2026-04-04T09:27:57Z</time></trkpt><trkpt lat="44.89071743919171" lon="9.374247414426241"><ele>474.0</ele><time>2026-04-04T09:27:59Z</time></trkpt><trkpt lat="44.89063277340664" lon="9.374313253662017"><ele>473.8571428571428</ele><time>2026-04-04T09:28:01Z</time></trkpt><trkpt lat="44.89057166936959" lon="9.374412260601307"><ele>473.71428571428567</ele><time>2026-04-04T09:28:03Z</time></trkpt><trkpt lat="44.89051237744765" lon="9.37446080513777"><ele>473.57142857142856</ele><time>2026-04-04T09:28:05Z</time></trkpt><trkpt lat="44.89045378339373" lon="9.37451996893664"><ele>473.4285714285714</ele><time>2026-04-04T09:28:08Z</time></trkpt><trkpt lat="44.89040742553833" lon="9.374602473527933"><ele>473.2857142857142</ele><time>2026-04-04T09:29:12.999Z</time></trkpt><trkpt lat="44.890346259941595" lon="9.374657071616882"><ele>473.14285714285717</ele><time>2026-04-04T09:29:14.999Z</time></trkpt><trkpt lat="44.89029634622174" lon="9.37471832579709"><ele>473.0</ele><time>2026-04-04T09:29:17.999Z</time></trkpt><trkpt lat="44.8902257597106" lon="9.374754598149659"><ele>473.0</ele><time>2026-04-04T09:29:19.999Z</time></trkpt><trkpt lat="44.890160242431065" lon="9.374803255924816"><ele>472.99999999999994</ele><time>2026-04-04T09:29:21.999Z</time></trkpt><trkpt lat="44.89005548324286" lon="9.37487893175037"><ele>472.99999999999994</ele><time>2026-04-04T09:29:23.999Z</time></trkpt><trkpt lat="44.889953263044035" lon="9.37495908873993"><ele>473.0</ele><time>2026-04-04T09:29:25.999Z</time></trkpt><trkpt lat="44.88989478088141" lon="9.375004381975153"><ele>473.0</ele><time>2026-04-04T09:29:26.999Z</time></trkpt><trkpt lat="44.88979858706123" lon="9.37504710600901"><ele>470.8333333333333</ele><time>2026-04-04T09:29:28.999Z</time></trkpt><trkpt lat="44.88974080585534" lon="9.375084250597775"><ele>468.66666666666663</ele><time>2026-04-04T09:29:29.999Z</time></trkpt><trkpt lat="44.8896312767928" lon="9.37514901183777"><ele>466.5</ele><time>2026-04-04T09:29:31.999Z</time></trkpt><trkpt lat="44.889531725610375" lon="9.375244157959775"><ele>464.33333333333337</ele><time>2026-04-04T09:29:33.999Z</time></trkpt><trkpt lat="44.889466783767226" lon="9.375291551506566"><ele>462.1666666666667</ele><time>2026-04-04T09:29:34.999Z</time></trkpt><trkpt lat="44.889412353045735" lon="9.375352269154758"><ele>460.0</ele><time>2026-04-04T09:29:35.999Z</time></trkpt><trkpt lat="44.889374315182515" lon="9.375427081995351"><ele>460.0</ele><time>2026-04-04T09:29:36.999Z</time></trkpt><trkpt lat="44.88934860144634" lon="9.375516154119891"><ele>460.0</ele><time>2026-04-04T09:29:37.999Z</time></trkpt><trkpt lat="44.88934132427536" lon="9.375663052340489"><ele>460.0</ele><time>2026-04-04T09:29:39.999Z</time></trkpt><trkpt lat="44.88930597207453" lon="9.375800061722654"><ele>460.0</ele><time>2026-04-04T09:29:41.999Z</time></trkpt><trkpt lat="44.88925022483806" lon="9.37588683080909"><ele>460.0</ele><time>2026-04-04T09:29:43.999Z</time></trkpt><trkpt lat="44.889133931176914" lon="9.375873544212887"><ele>461.33333333333337</ele><time>2026-04-04T09:29:45.999Z</time></trkpt><trkpt lat="44.88907094478906" lon="9.375848223075204"><ele>462.6666666666667</ele><time>2026-04-04T09:29:46.999Z</time></trkpt><trkpt lat="44.88900849926336" lon="9.375825614965795"><ele>464.0</ele><time>2026-04-04T09:29:47.999Z</time></trkpt><trkpt lat="44.888916413530076" lon="9.375827299831698"><ele>465.33333333333337</ele><time>2026-04-04T09:29:49.999Z</time></trkpt><trkpt lat="44.888856507535934" lon="9.375868275432133"><ele>466.6666666666667</ele><time>2026-04-04T09:29:50.998Z</time></trkpt><trkpt lat="44.88874898811542" lon="9.375946240043513"><ele>468.0</ele><time>2026-04-04T09:29:52.998Z</time></trkpt><trkpt lat="44.888689818537905" lon="9.376001646241601"><ele>468.0</ele><time>2026-04-04T09:29:53.998Z</time></trkpt><trkpt lat="44.888579187463336" lon="9.376065107018782"><ele>467.99999999999994</ele><time>2026-04-04T09:29:56Z</time></trkpt><trkpt lat="44.88850799155456" lon="9.376044444162085"><ele>467.99999999999994</ele><time>2026-04-04T09:29:57Z</time></trkpt><trkpt lat="44.888395490878494" lon="9.375999634827972"><ele>468.0</ele><time>2026-04-04T09:29:59Z</time></trkpt><trkpt lat="44.88832636011876" lon="9.375948755399767"><ele>468.0</ele><time>2026-04-04T09:30:00Z</time></trkpt><trkpt lat="44.888261861767056" lon="9.375959239403693"><ele>469.0</ele><time>2026-04-04T09:30:01Z</time></trkpt><trkpt lat="44.88821690480649" lon="9.376022245376133"><ele>469.99999999999994</ele><time>2026-04-04T09:30:02Z</time></trkpt><trkpt lat="44.88811090067614" lon="9.376054554747702"><ele>470.99999999999994</ele><time>2026-04-04T09:30:04Z</time></trkpt><trkpt lat="44.88801135694483" lon="9.376095675647315"><ele>472.0</ele><time>2026-04-04T09:30:06Z</time></trkpt><trkpt lat="44.88788912349871" lon="9.376125906027356"><ele>473.0</ele><time>2026-04-04T09:30:08Z</time></trkpt><trkpt lat="44.88777525053532" lon="9.376151880657892"><ele>473.0</ele><time>2026-04-04T09:30:10Z</time></trkpt><trkpt lat="44.8877125531258" lon="9.376161343155776"><ele>472.99999999999994</ele><time>2026-04-04T09:30:11Z</time></trkpt><trkpt lat="44.88759269637351" lon="9.376207691462326"><ele>472.99999999999994</ele><time>2026-04-04T09:30:13Z</time></trkpt><trkpt lat="44.887495252767756" lon="9.376321503893548"><ele>473.0</ele><time>2026-04-04T09:30:15Z</time></trkpt><trkpt lat="44.88741311547621" lon="9.376356756595365"><ele>473.0</ele><time>2026-04-04T09:30:16Z</time></trkpt><trkpt lat="44.88733037756119" lon="9.37635493538691"><ele>475.79999999999995</ele><time>2026-04-04T09:30:17Z</time></trkpt><trkpt lat="44.887262379789306" lon="9.376374303983248"><ele>478.59999999999997</ele><time>2026-04-04T09:30:18Z</time></trkpt><trkpt lat="44.88719613357636" lon="9.376393999036253"><ele>481.40000000000003</ele><time>2026-04-04T09:30:19Z</time></trkpt><trkpt lat="44.88713117823227" lon="9.376412380729127"><ele>484.20000000000005</ele><time>2026-04-04T09:30:20Z</time></trkpt><trkpt lat="44.88701057317396" lon="9.376465181812623"><ele>487.0</ele><time>2026-04-04T09:30:22Z</time></trkpt><trkpt lat="44.88689571652537" lon="9.376519145774214"><ele>487.0</ele><time>2026-04-04T09:30:24Z</time></trkpt><trkpt lat="44.886812277803074" lon="9.376609917989281"><ele>487.00000000000006</ele><time>2026-04-04T09:30:26Z</time></trkpt><trkpt lat="44.88675722743759" lon="9.376718707096227"><ele>487.00000000000006</ele><time>2026-04-04T09:30:28Z</time></trkpt><trkpt lat="44.886747285976185" lon="9.376886089093322"><ele>487.0</ele><time>2026-04-04T09:30:30Z</time></trkpt><trkpt lat="44.88676561703801" lon="9.376975899815623"><ele>487.0</ele><time>2026-04-04T09:30:31Z</time></trkpt><trkpt lat="44.88680925460745" lon="9.377135845430425"><ele>489.50000000000006</ele><time>2026-04-04T09:30:33Z</time></trkpt><trkpt lat="44.88683988465486" lon="9.377255793733859"><ele>492.0</ele><time>2026-04-04T09:30:35Z</time></trkpt><trkpt lat="44.886885554930416" lon="9.377333123830077"><ele>494.5</ele><time>2026-04-04T09:30:37Z</time></trkpt><trkpt lat="44.886912614384244" lon="9.377432099217476"><ele>497.0</ele><time>2026-04-04T09:30:41Z</time></trkpt><trkpt lat="44.88682020393523" lon="9.377506359012946"><ele>499.50000000000006</ele><time>2026-04-04T09:30:43Z</time></trkpt><trkpt lat="44.88675582885471" lon="9.37751080164405"><ele>502.0</ele><time>2026-04-04T09:30:44Z</time></trkpt><trkpt lat="44.8866874439766" lon="9.37751739154989"><ele>502.00000000000006</ele><time>2026-04-04T09:30:45Z</time></trkpt><trkpt lat="44.88661081222451" lon="9.37751935447714"><ele>502.0</ele><time>2026-04-04T09:30:46Z</time></trkpt><trkpt lat="44.88653690963541" lon="9.37754508834508"><ele>502.0</ele><time>2026-04-04T09:30:47Z</time></trkpt><trkpt lat="44.8864595603641" lon="9.377567300775265"><ele>502.0</ele><time>2026-04-04T09:30:47.999Z</time></trkpt><trkpt lat="44.8863884564134" lon="9.377615812403738"><ele>502.00000000000006</ele><time>2026-04-04T09:30:48.999Z</time></trkpt><trkpt lat="44.886346048392475" lon="9.377698703365883"><ele>502.0</ele><time>2026-04-04T09:30:49.999Z</time></trkpt><trkpt lat="44.88626997608764" lon="9.377799672797696"><ele>502.0</ele><time>2026-04-04T09:30:51.999Z</time></trkpt><trkpt lat="44.886169973217086" lon="9.377905650279363"><ele>502.00000000000006</ele><time>2026-04-04T09:30:53.999Z</time></trkpt><trkpt lat="44.88610256257577" lon="9.377985839415786"><ele>502.00000000000006</ele><time>2026-04-04T09:30:54.999Z</time></trkpt><trkpt lat="44.88601196793331" lon="9.37806528091924"><ele>502.0</ele><time>2026-04-04T09:30:56.999Z</time></trkpt><trkpt lat="44.8859427925892" lon="9.37813954114474"><ele>502.0</ele><time>2026-04-04T09:30:58.999Z</time></trkpt><trkpt lat="44.885882188742904" lon="9.378257374122182"><ele>503.1666666666667</ele><time>2026-04-04T09:31:00.999Z</time></trkpt><trkpt lat="44.885853896498745" lon="9.378346280618127"><ele>504.33333333333337</ele><time>2026-04-04T09:31:01.999Z</time></trkpt><trkpt lat="44.885782048973084" lon="9.378443959514222"><ele>505.5</ele><time>2026-04-04T09:31:03.999Z</time></trkpt><trkpt lat="44.885732741823546" lon="9.37850603699432"><ele>506.66666666666663</ele><time>2026-04-04T09:31:04.999Z</time></trkpt><trkpt lat="44.88568499452327" lon="9.37857401391195"><ele>507.8333333333333</ele><time>2026-04-04T09:31:05.999Z</time></trkpt><trkpt lat="44.885635522665005" lon="9.378656967040186"><ele>509.0</ele><time>2026-04-04T09:31:06.999Z</time></trkpt><trkpt lat="44.88559272975466" lon="9.378759177233547"><ele>509.0</ele><time>2026-04-04T09:31:07.999Z</time></trkpt><trkpt lat="44.88555365847739" lon="9.37883606911779"><ele>509.0</ele><time>2026-04-04T09:31:08.999Z</time></trkpt><trkpt lat="44.88546297994172" lon="9.378956879597053"><ele>509.0</ele><time>2026-04-04T09:31:10.999Z</time></trkpt><trkpt lat="44.885373980424035" lon="9.378999067119478"><ele>509.0</ele><time>2026-04-04T09:31:12.999Z</time></trkpt><trkpt lat="44.885254828741004" lon="9.378973340551031"><ele>509.0</ele><time>2026-04-04T09:31:14.999Z</time></trkpt><trkpt lat="44.885175898337806" lon="9.379065443882661"><ele>509.99999999999994</ele><time>2026-04-04T09:31:16.999Z</time></trkpt><trkpt lat="44.885119645197015" lon="9.379151244211858"><ele>511.0</ele><time>2026-04-04T09:31:20.999Z</time></trkpt><trkpt lat="44.885026177923045" lon="9.379168095465712"><ele>512.0</ele><time>2026-04-04T09:31:22.999Z</time></trkpt><trkpt lat="44.884958426251636" lon="9.379209318922967"><ele>513.0</ele><time>2026-04-04T09:31:23.999Z</time></trkpt><trkpt lat="44.884899617858416" lon="9.379250297493568"><ele>514.0</ele><time>2026-04-04T09:31:24.999Z</time></trkpt><trkpt lat="44.884838405015095" lon="9.379277472706743"><ele>515.0</ele><time>2026-04-04T09:31:25.999Z</time></trkpt><trkpt lat="44.88477459479462" lon="9.379320863852232"><ele>515.0</ele><time>2026-04-04T09:31:26.999Z</time></trkpt><trkpt lat="44.88466357828684" lon="9.379360689064296"><ele>515.0</ele><time>2026-04-04T09:31:28.999Z</time></trkpt><trkpt lat="44.8846068127779" lon="9.379399223248857"><ele>515.0</ele><time>2026-04-04T09:31:29.999Z</time></trkpt><trkpt lat="44.88450409090549" lon="9.379452143550864"><ele>515.0</ele><time>2026-04-04T09:31:31.999Z</time></trkpt><trkpt lat="44.884374744235245" lon="9.37947107940222"><ele>515.0</ele><time>2026-04-04T09:31:33.999Z</time></trkpt><trkpt lat="44.8842561289307" lon="9.37948963267753"><ele>515.0</ele><time>2026-04-04T09:31:35.999Z</time></trkpt><trkpt lat="44.88416503068649" lon="9.379440125703928"><ele>515.0</ele><time>2026-04-04T09:31:37.999Z</time></trkpt><trkpt lat="44.88407895753966" lon="9.379335746718949"><ele>515.0</ele><time>2026-04-04T09:31:39.999Z</time></trkpt><trkpt lat="44.883979705761014" lon="9.379264119605935"><ele>515.0</ele><time>2026-04-04T09:31:41.999Z</time></trkpt><trkpt lat="44.883921550978556" lon="9.379201566009504"><ele>515.0</ele><time>2026-04-04T09:31:42.999Z</time></trkpt><trkpt lat="44.883824516384166" lon="9.379199186996871"><ele>515.0</ele><time>2026-04-04T09:31:44.999Z</time></trkpt><trkpt lat="44.883743761937026" lon="9.37920325993943"><ele>515.0</ele><time>2026-04-04T09:31:46.999Z</time></trkpt><trkpt lat="44.883662729541214" lon="9.379158351106007"><ele>515.0</ele><time>2026-04-04T09:31:48.999Z</time></trkpt><trkpt lat="44.88357995853856" lon="9.379150475613407"><ele>515.0</ele><time>2026-04-04T09:31:50.999Z</time></trkpt><trkpt lat="44.88351566198685" lon="9.379140684500921"><ele>515.0</ele><time>2026-04-04T09:31:52.999Z</time></trkpt><trkpt lat="44.88345226220286" lon="9.379126113916797"><ele>515.0</ele><time>2026-04-04T09:31:54.998Z</time></trkpt><trkpt lat="44.88338649469666" lon="9.379137944152577"><ele>515.0</ele><time>2026-04-04T09:31:57.998Z</time></trkpt><trkpt lat="44.88333168399026" lon="9.379052302429432"><ele>514.5</ele><time>2026-04-04T09:31:59.998Z</time></trkpt><trkpt lat="44.88329587044417" lon="9.378932630069807"><ele>514.0</ele><time>2026-04-04T09:32:02Z</time></trkpt><trkpt lat="44.88327598594601" lon="9.378842751959619"><ele>513.5</ele><time>2026-04-04T09:32:04Z</time></trkpt><trkpt lat="44.88326602183746" lon="9.378713976171966"><ele>513.0</ele><time>2026-04-04T09:32:06Z</time></trkpt><trkpt lat="44.883231789751655" lon="9.378601013406742"><ele>512.5</ele><time>2026-04-04T09:32:08Z</time></trkpt><trkpt lat="44.88319777004127" lon="9.378492511265323"><ele>512.0</ele><time>2026-04-04T09:32:11Z</time></trkpt><trkpt lat="44.88312196940983" lon="9.378442366699609"><ele>511.99999999999994</ele><time>2026-04-04T09:32:13Z</time></trkpt><trkpt lat="44.883046709639814" lon="9.378410748366237"><ele>512.0</ele><time>2026-04-04T09:32:15Z</time></trkpt><trkpt lat="44.88297375386306" lon="9.378436228206619"><ele>512.0</ele><time>2026-04-04T09:32:17Z</time></trkpt><trkpt lat="44.882912373707846" lon="9.378519400059899"><ele>512.0</ele><time>2026-04-04T09:32:19Z</time></trkpt><trkpt lat="44.8828897949529" lon="9.378685026752937"><ele>511.99999999999994</ele><time>2026-04-04T09:32:21Z</time></trkpt><trkpt lat="44.882892157116906" lon="9.378789034130916"><ele>512.0</ele><time>2026-04-04T09:32:22Z</time></trkpt><trkpt lat="44.882872907142065" lon="9.378886446277138"><ele>512.0</ele><time>2026-04-04T09:32:23Z</time></trkpt><trkpt lat="44.88290041397016" lon="9.378976269994165"><ele>511.99999999999994</ele><time>2026-04-04T09:32:24Z</time></trkpt><trkpt lat="44.882895937934244" lon="9.37907765761628"><ele>512.0</ele><time>2026-04-04T09:32:25Z</time></trkpt><trkpt lat="44.88288852930077" lon="9.379183160172227"><ele>512.0</ele><time>2026-04-04T09:32:26Z</time></trkpt><trkpt lat="44.882878086491054" lon="9.379285870894929"><ele>511.99999999999994</ele><time>2026-04-04T09:32:27Z</time></trkpt><trkpt lat="44.88287120242109" lon="9.379391682489532"><ele>512.0</ele><time>2026-04-04T09:32:28Z</time></trkpt><trkpt lat="44.882849313297775" lon="9.37948187058575"><ele>512.0</ele><time>2026-04-04T09:32:29Z</time></trkpt><trkpt lat="44.88284046755432" lon="9.379593972112405"><ele>512.1666666666666</ele><time>2026-04-04T09:32:30Z</time></trkpt><trkpt lat="44.882836892485415" lon="9.379712478463329"><ele>512.3333333333333</ele><time>2026-04-04T09:32:31Z</time></trkpt><trkpt lat="44.88283046686866" lon="9.379841295043194"><ele>512.5</ele><time>2026-04-04T09:32:32Z</time></trkpt><trkpt lat="44.88283698381396" lon="9.379968826628145"><ele>512.6666666666666</ele><time>2026-04-04T09:32:33Z</time></trkpt><trkpt lat="44.8828110241737" lon="9.380076458501533"><ele>512.8333333333334</ele><time>2026-04-04T09:32:34Z</time></trkpt><trkpt lat="44.88279578856476" lon="9.380169771513756"><ele>513.0</ele><time>2026-04-04T09:32:35Z</time></trkpt><trkpt lat="44.882771115871726" lon="9.38028608537871"><ele>513.0</ele><time>2026-04-04T09:32:36Z</time></trkpt><trkpt lat="44.88274507061443" lon="9.380426807472231"><ele>513.0</ele><time>2026-04-04T09:32:37Z</time></trkpt><trkpt lat="44.88272611431291" lon="9.380556176613014"><ele>513.0</ele><time>2026-04-04T09:32:38Z</time></trkpt><trkpt lat="44.882706573622464" lon="9.380664595531746"><ele>513.0</ele><time>2026-04-04T09:32:39Z</time></trkpt><trkpt lat="44.88267801271642" lon="9.380781237070638"><ele>513.0</ele><time>2026-04-04T09:32:40Z</time></trkpt><trkpt lat="44.88263732444018" lon="9.380892850140242"><ele>511.0</ele><time>2026-04-04T09:32:41Z</time></trkpt><trkpt lat="44.882590229363856" lon="9.380976225936536"><ele>509.0</ele><time>2026-04-04T09:32:42Z</time></trkpt><trkpt lat="44.882533966650605" lon="9.381079981956933"><ele>507.0</ele><time>2026-04-04T09:32:43Z</time></trkpt><trkpt lat="44.88250652495496" lon="9.381160425938521"><ele>505.0</ele><time>2026-04-04T09:32:44Z</time></trkpt><trkpt lat="44.88241326852117" lon="9.381184897200045"><ele>503.0</ele><time>2026-04-04T09:32:46Z</time></trkpt><trkpt lat="44.88231142668311" lon="9.381145600774671"><ele>501.0</ele><time>2026-04-04T09:32:48Z</time></trkpt><trkpt lat="44.88225289817254" lon="9.381094648981884"><ele>501.0</ele><time>2026-04-04T09:32:49Z</time></trkpt><trkpt lat="44.882185436842136" lon="9.381050048265944"><ele>501.0</ele><time>2026-04-04T09:32:50Z</time></trkpt><trkpt lat="44.882125104522245" lon="9.381012397136137"><ele>501.0</ele><time>2026-04-04T09:32:50.999Z</time></trkpt><trkpt lat="44.88200280103788" lon="9.38098098631307"><ele>501.0</ele><time>2026-04-04T09:32:52.999Z</time></trkpt><trkpt lat="44.88192764348408" lon="9.381009939848537"><ele>501.0</ele><time>2026-04-04T09:32:53.999Z</time></trkpt><trkpt lat="44.8818492194922" lon="9.38108630337746"><ele>501.0</ele><time>2026-04-04T09:32:54.999Z</time></trkpt><trkpt lat="44.88176337660147" lon="9.38115723998158"><ele>499.6</ele><time>2026-04-04T09:32:55.999Z</time></trkpt><trkpt lat="44.88165755347098" lon="9.38121571094968"><ele>498.20000000000005</ele><time>2026-04-04T09:32:56.999Z</time></trkpt><trkpt lat="44.88156208196401" lon="9.381261592039241"><ele>496.79999999999995</ele><time>2026-04-04T09:32:57.999Z</time></trkpt><trkpt lat="44.88147279177202" lon="9.381305980407813"><ele>495.4</ele><time>2026-04-04T09:32:58.999Z</time></trkpt><trkpt lat="44.88136483835786" lon="9.381375830612765"><ele>494.0</ele><time>2026-04-04T09:32:59.999Z</time></trkpt><trkpt lat="44.88124792787088" lon="9.381446715786295"><ele>495.8333333333333</ele><time>2026-04-04T09:33:00.999Z</time></trkpt><trkpt lat="44.881159229093846" lon="9.381498182018012"><ele>497.66666666666663</ele><time>2026-04-04T09:33:01.999Z</time></trkpt><trkpt lat="44.881070560150896" lon="9.381559581842872"><ele>499.5</ele><time>2026-04-04T09:33:02.999Z</time></trkpt><trkpt lat="44.881005027016016" lon="9.381610001007273"><ele>501.33333333333337</ele><time>2026-04-04T09:33:03.999Z</time></trkpt><trkpt lat="44.880946734077945" lon="9.381701614565452"><ele>503.1666666666667</ele><time>2026-04-04T09:33:04.999Z</time></trkpt><trkpt lat="44.88087690892819" lon="9.381773815971178"><ele>505.0</ele><time>2026-04-04T09:33:05.999Z</time></trkpt><trkpt lat="44.880786294458744" lon="9.381823459478257"><ele>505.00000000000006</ele><time>2026-04-04T09:33:06.999Z</time></trkpt><trkpt lat="44.88070774743499" lon="9.38184758286729"><ele>505.0</ele><time>2026-04-04T09:33:07.999Z</time></trkpt><trkpt lat="44.88063050328358" lon="9.381885313296863"><ele>505.0</ele><time>2026-04-04T09:33:08.999Z</time></trkpt><trkpt lat="44.880548761097984" lon="9.38196322146942"><ele>505.0</ele><time>2026-04-04T09:33:09.999Z</time></trkpt><trkpt lat="44.88046551842111" lon="9.38199444488125"><ele>505.00000000000006</ele><time>2026-04-04T09:33:10.999Z</time></trkpt><trkpt lat="44.88039259678562" lon="9.382042415910055"><ele>505.0</ele><time>2026-04-04T09:33:11.999Z</time></trkpt><trkpt lat="44.88032566838316" lon="9.382084397609676"><ele>505.00000000000006</ele><time>2026-04-04T09:33:12.999Z</time></trkpt><trkpt lat="44.88024365331181" lon="9.38212623479375"><ele>505.0</ele><time>2026-04-04T09:33:13.999Z</time></trkpt><trkpt lat="44.88017029767145" lon="9.382179690892755"><ele>505.0</ele><time>2026-04-04T09:33:14.999Z</time></trkpt><trkpt lat="44.880093871507576" lon="9.38226955518754"><ele>505.0</ele><time>2026-04-04T09:33:15.999Z</time></trkpt><trkpt lat="44.880033138632356" lon="9.382357216659157"><ele>505.00000000000006</ele><time>2026-04-04T09:33:16.999Z</time></trkpt><trkpt lat="44.879969296760784" lon="9.38241865461588"><ele>505.0</ele><time>2026-04-04T09:33:17.999Z</time></trkpt><trkpt lat="44.879901009985595" lon="9.382452691907192"><ele>505.2</ele><time>2026-04-04T09:33:18.999Z</time></trkpt><trkpt lat="44.87983472338515" lon="9.382481502810968"><ele>505.4</ele><time>2026-04-04T09:33:19.999Z</time></trkpt><trkpt lat="44.879754890662" lon="9.382501443291982"><ele>505.6</ele><time>2026-04-04T09:33:20.999Z</time></trkpt><trkpt lat="44.87966068359928" lon="9.382534472889501"><ele>505.8</ele><time>2026-04-04T09:33:21.999Z</time></trkpt><trkpt lat="44.8795576831268" lon="9.382588749265016"><ele>506.0</ele><time>2026-04-04T09:33:22.999Z</time></trkpt><trkpt lat="44.8794557177217" lon="9.382683291987341"><ele>505.99999999999994</ele><time>2026-04-04T09:33:23.999Z</time></trkpt><trkpt lat="44.87936748490292" lon="9.382785827829577"><ele>506.0</ele><time>2026-04-04T09:33:24.999Z</time></trkpt><trkpt lat="44.87929286637972" lon="9.382855982246152"><ele>506.0</ele><time>2026-04-04T09:33:25.999Z</time></trkpt><trkpt lat="44.879221053818" lon="9.382899876288235"><ele>506.0</ele><time>2026-04-04T09:33:26.999Z</time></trkpt><trkpt lat="44.879156056605865" lon="9.382932607920779"><ele>505.99999999999994</ele><time>2026-04-04T09:33:27.999Z</time></trkpt><trkpt lat="44.87908045322196" lon="9.382964776122053"><ele>506.0</ele><time>2026-04-04T09:33:28.999Z</time></trkpt><trkpt lat="44.878987941733705" lon="9.382987480011344"><ele>507.49999999999994</ele><time>2026-04-04T09:33:30.999Z</time></trkpt><trkpt lat="44.878908732357374" lon="9.383008115848511"><ele>509.0</ele><time>2026-04-04T09:33:32.999Z</time></trkpt><trkpt lat="44.878840582535986" lon="9.383007721553788"><ele>510.5</ele><time>2026-04-04T09:33:35.999Z</time></trkpt><trkpt lat="44.87877120987553" lon="9.383058783540324"><ele>512.0</ele><time>2026-04-04T09:33:38.999Z</time></trkpt><trkpt lat="44.87869740251801" lon="9.383014821796834"><ele>513.5</ele><time>2026-04-04T09:33:41.999Z</time></trkpt><trkpt lat="44.87862733599268" lon="9.38310368458074"><ele>515.0</ele><time>2026-04-04T09:34:52Z</time></trkpt><trkpt lat="44.87860057969554" lon="9.38319738096889"><ele>515.0</ele><time>2026-04-04T09:34:53.999Z</time></trkpt><trkpt lat="44.87853637761726" lon="9.383306144471025"><ele>515.0</ele><time>2026-04-04T09:34:55.999Z</time></trkpt><trkpt lat="44.87845421327968" lon="9.383391339172107"><ele>515.0</ele><time>2026-04-04T09:34:57.999Z</time></trkpt><trkpt lat="44.87838795808274" lon="9.383424161289895"><ele>515.0</ele><time>2026-04-04T09:34:58.999Z</time></trkpt><trkpt lat="44.87828747004614" lon="9.383370663994663"><ele>515.0</ele><time>2026-04-04T09:34:59.999Z</time></trkpt><trkpt lat="44.87820229619106" lon="9.383411283908393"><ele>513.5</ele><time>2026-04-04T09:35:00.999Z</time></trkpt><trkpt lat="44.87812947452097" lon="9.383446014970584"><ele>512.0</ele><time>2026-04-04T09:35:01.999Z</time></trkpt><trkpt lat="44.878028000419135" lon="9.383494392109531"><ele>510.5</ele><time>2026-04-04T09:35:03.999Z</time></trkpt><trkpt lat="44.877963179716076" lon="9.383525286568881"><ele>509.0</ele><time>2026-04-04T09:35:04.999Z</time></trkpt><trkpt lat="44.87789191619365" lon="9.383559251730434"><ele>507.49999999999994</ele><time>2026-04-04T09:35:05.999Z</time></trkpt><trkpt lat="44.877829750864905" lon="9.383587785192805"><ele>506.0</ele><time>2026-04-04T09:35:06.999Z</time></trkpt><trkpt lat="44.877709461120226" lon="9.383641882725229"><ele>505.99999999999994</ele><time>2026-04-04T09:35:08.999Z</time></trkpt><trkpt lat="44.87763665575009" lon="9.383674625245138"><ele>506.0</ele><time>2026-04-04T09:35:09.999Z</time></trkpt><trkpt lat="44.87757566902144" lon="9.38370081536491"><ele>506.0</ele><time>2026-04-04T09:35:10.999Z</time></trkpt><trkpt lat="44.87748467241664" lon="9.383721518744142"><ele>506.0</ele><time>2026-04-04T09:35:12.999Z</time></trkpt><trkpt lat="44.87740444635954" lon="9.383738549701704"><ele>505.99999999999994</ele><time>2026-04-04T09:35:14.999Z</time></trkpt><trkpt lat="44.87730508507098" lon="9.383771529073208"><ele>506.0</ele><time>2026-04-04T09:35:16.999Z</time></trkpt><trkpt lat="44.87720529275788" lon="9.383840855365607"><ele>506.8333333333333</ele><time>2026-04-04T09:35:18.999Z</time></trkpt><trkpt lat="44.877135078664445" lon="9.38393952703662"><ele>507.66666666666663</ele><time>2026-04-04T09:35:20.999Z</time></trkpt><trkpt lat="44.877081170279695" lon="9.384005297718945"><ele>508.5</ele><time>2026-04-04T09:35:21.999Z</time></trkpt><trkpt lat="44.877029047863665" lon="9.38406888934186"><ele>509.33333333333337</ele><time>2026-04-04T09:35:22.999Z</time></trkpt><trkpt lat="44.87705031186617" lon="9.384217093639894"><ele>510.1666666666667</ele><time>2026-04-04T09:35:23.999Z</time></trkpt><trkpt lat="44.87706409920926" lon="9.384340629060631"><ele>511.0</ele><time>2026-04-04T09:35:24.999Z</time></trkpt><trkpt lat="44.877083475341934" lon="9.384463682414147"><ele>511.00000000000006</ele><time>2026-04-04T09:35:25.999Z</time></trkpt><trkpt lat="44.87710908080144" lon="9.384592660238285"><ele>511.0</ele><time>2026-04-04T09:35:26.999Z</time></trkpt><trkpt lat="44.87713268111534" lon="9.384716731049476"><ele>511.0</ele><time>2026-04-04T09:35:27.999Z</time></trkpt><trkpt lat="44.87714732251914" lon="9.384833714092139"><ele>511.0</ele><time>2026-04-04T09:35:28.999Z</time></trkpt><trkpt lat="44.87714617405641" lon="9.384941226486044"><ele>511.00000000000006</ele><time>2026-04-04T09:35:29.999Z</time></trkpt><trkpt lat="44.87715149512194" lon="9.385046195447085"><ele>511.0</ele><time>2026-04-04T09:35:30.999Z</time></trkpt><trkpt lat="44.87713608502855" lon="9.385137951085355"><ele>511.33333333333337</ele><time>2026-04-04T09:35:31.999Z</time></trkpt><trkpt lat="44.8771051991336" lon="9.385219018457414"><ele>511.6666666666667</ele><time>2026-04-04T09:35:32.999Z</time></trkpt><trkpt lat="44.87704824736772" lon="9.385283824283006"><ele>512.0</ele><time>2026-04-04T09:35:33.999Z</time></trkpt><trkpt lat="44.876980787521454" lon="9.385311274312151"><ele>512.3333333333334</ele><time>2026-04-04T09:35:34.999Z</time></trkpt><trkpt lat="44.87690725193557" lon="9.385345107774814"><ele>512.6666666666666</ele><time>2026-04-04T09:35:35.999Z</time></trkpt><trkpt lat="44.876833839382684" lon="9.385371804708493"><ele>513.0</ele><time>2026-04-04T09:35:36.999Z</time></trkpt><trkpt lat="44.87670567968678" lon="9.385361802108784"><ele>510.3333333333333</ele><time>2026-04-04T09:35:38.999Z</time></trkpt><trkpt lat="44.87664802652198" lon="9.385308637671796"><ele>507.66666666666663</ele><time>2026-04-04T09:35:39.999Z</time></trkpt><trkpt lat="44.876589326565295" lon="9.385272590404993"><ele>505.0</ele><time>2026-04-04T09:35:40.999Z</time></trkpt><trkpt lat="44.87651498909841" lon="9.385176623662675"><ele>502.3333333333333</ele><time>2026-04-04T09:35:42.999Z</time></trkpt><trkpt lat="44.87648720541856" lon="9.385087317069852"><ele>499.66666666666663</ele><time>2026-04-04T09:35:43.999Z</time></trkpt><trkpt lat="44.876453285976424" lon="9.384929746827808"><ele>497.0</ele><time>2026-04-04T09:35:45.999Z</time></trkpt><trkpt lat="44.87643175655921" lon="9.384792116281279"><ele>497.0</ele><time>2026-04-04T09:35:47.999Z</time></trkpt><trkpt lat="44.876420469356745" lon="9.384702495117313"><ele>497.0</ele><time>2026-04-04T09:35:49.999Z</time></trkpt><trkpt lat="44.87643352865897" lon="9.38460856211502"><ele>497.0</ele><time>2026-04-04T09:35:52.999Z</time></trkpt><trkpt lat="44.87643929429449" lon="9.384514168599605"><ele>497.0</ele><time>2026-04-04T09:35:56.999Z</time></trkpt><trkpt lat="44.87644537487032" lon="9.384406367778867"><ele>497.0</ele><time>2026-04-04T09:36:20Z</time></trkpt><trkpt lat="44.8764455425951" lon="9.384284346267233"><ele>497.0</ele><time>2026-04-04T09:36:22Z</time></trkpt><trkpt lat="44.87643837405158" lon="9.384190231705594"><ele>497.0</ele><time>2026-04-04T09:36:24Z</time></trkpt><trkpt lat="44.87643586204148" lon="9.384099620703898"><ele>495.0</ele><time>2026-04-04T09:36:26Z</time></trkpt><trkpt lat="44.876410757973744" lon="9.384011961189179"><ele>495.0</ele><time>2026-04-04T09:36:28Z</time></trkpt><trkpt lat="44.876323208656814" lon="9.384021606190203"><ele>495.0</ele><time>2026-04-04T09:36:31Z</time></trkpt><trkpt lat="44.87628409235337" lon="9.384094446178919"><ele>495.0</ele><time>2026-04-04T09:36:33Z</time></trkpt><trkpt lat="44.87631769985177" lon="9.38401422151793"><ele>495.0</ele><time>2026-04-04T09:37:59.999Z</time></trkpt><trkpt lat="44.876301874840664" lon="9.383923161301476"><ele>495.0</ele><time>2026-04-04T09:38:31Z</time></trkpt><trkpt lat="44.87620944081249" lon="9.383916824399083"><ele>495.0</ele><time>2026-04-04T09:38:51Z</time></trkpt></trkseg><trkseg><trkpt lat="44.87626305103748" lon="9.384101965035459"><ele>495.0</ele><time>2026-04-04T09:56:16.923Z</time></trkpt><trkpt lat="44.87612299197153" lon="9.383884944577849"><ele>495.0</ele><time>2026-04-04T09:56:17.94Z</time></trkpt><trkpt lat="44.876232481304484" lon="9.384069697636045"><ele>495.0</ele><time>2026-04-04T09:56:19.022Z</time></trkpt><trkpt lat="44.876246944627965" lon="9.384161175764408"><ele>495.0</ele><time>2026-04-04T09:57:41.999Z</time></trkpt><trkpt lat="44.876229667076316" lon="9.384251361046106"><ele>495.0</ele><time>2026-04-04T09:57:43.999Z</time></trkpt><trkpt lat="44.876216388300264" lon="9.384355959498212"><ele>495.0</ele><time>2026-04-04T09:57:47.999Z</time></trkpt><trkpt lat="44.87620394056318" lon="9.3844633377902"><ele>495.0</ele><time>2026-04-04T09:57:50.999Z</time></trkpt><trkpt lat="44.876141538430964" lon="9.384562838714583"><ele>495.0</ele><time>2026-04-04T09:57:52.999Z</time></trkpt><trkpt lat="44.87609972446196" lon="9.384644598606695"><ele>495.0</ele><time>2026-04-04T09:57:54.999Z</time></trkpt><trkpt lat="44.87606764339288" lon="9.38475728972806"><ele>495.0</ele><time>2026-04-04T09:57:57.999Z</time></trkpt><trkpt lat="44.87600857998509" lon="9.384849230191485"><ele>495.3333333333333</ele><time>2026-04-04T09:58:00.999Z</time></trkpt><trkpt lat="44.87596721241867" lon="9.38494603939728"><ele>495.66666666666663</ele><time>2026-04-04T09:58:03.999Z</time></trkpt><trkpt lat="44.87591646176867" lon="9.385011927689913"><ele>496.0</ele><time>2026-04-04T09:59:41.999Z</time></trkpt><trkpt lat="44.87584593724905" lon="9.385052466429489"><ele>496.3333333333333</ele><time>2026-04-04T09:59:46.999Z</time></trkpt><trkpt lat="44.87575494900339" lon="9.385054277208258"><ele>496.66666666666663</ele><time>2026-04-04T09:59:49.999Z</time></trkpt><trkpt lat="44.8757022033307" lon="9.384961406225928"><ele>497.0</ele><time>2026-04-04T09:59:51.999Z</time></trkpt><trkpt lat="44.875748410904905" lon="9.384864041332746"><ele>497.0</ele><time>2026-04-04T09:59:52.999Z</time></trkpt><trkpt lat="44.87584935838308" lon="9.384810737311057"><ele>497.0</ele><time>2026-04-04T09:59:54.999Z</time></trkpt><trkpt lat="44.875921381379555" lon="9.38472909937926"><ele>497.0</ele><time>2026-04-04T09:59:56.999Z</time></trkpt><trkpt lat="44.87598924264003" lon="9.384679883655007"><ele>497.0</ele><time>2026-04-04T09:59:58.999Z</time></trkpt><trkpt lat="44.875977291026466" lon="9.384369258757074"><ele>493.6</ele><time>2026-04-04T10:00:03.999Z</time></trkpt><trkpt lat="44.87581882064859" lon="9.384429825925194"><ele>490.20000000000005</ele><time>2026-04-04T10:00:06.999Z</time></trkpt><trkpt lat="44.87576825364792" lon="9.384488204875046"><ele>486.8</ele><time>2026-04-04T10:00:07.999Z</time></trkpt><trkpt lat="44.875664941945516" lon="9.384543338066706"><ele>483.4</ele><time>2026-04-04T10:00:09.999Z</time></trkpt><trkpt lat="44.87558833407715" lon="9.384595116559902"><ele>480.0</ele><time>2026-04-04T10:00:10.999Z</time></trkpt><trkpt lat="44.875536571923135" lon="9.384657242148476"><ele>480.5</ele><time>2026-04-04T10:00:11.999Z</time></trkpt><trkpt lat="44.875468729304494" lon="9.384689523106937"><ele>481.0</ele><time>2026-04-04T10:00:12.999Z</time></trkpt><trkpt lat="44.87541001771814" lon="9.384739946397614"><ele>481.5</ele><time>2026-04-04T10:00:13.999Z</time></trkpt><trkpt lat="44.87534248260125" lon="9.384796890530573"><ele>482.0</ele><time>2026-04-04T10:00:14.999Z</time></trkpt><trkpt lat="44.87527321391259" lon="9.384864027628174"><ele>482.5</ele><time>2026-04-04T10:00:15.999Z</time></trkpt><trkpt lat="44.87519691532285" lon="9.38491476263757"><ele>483.0</ele><time>2026-04-04T10:00:16.999Z</time></trkpt><trkpt lat="44.875134150160065" lon="9.384994679520034"><ele>480.5</ele><time>2026-04-04T10:00:17.999Z</time></trkpt><trkpt lat="44.87506984119632" lon="9.385045470369624"><ele>478.0</ele><time>2026-04-04T10:00:18.999Z</time></trkpt><trkpt lat="44.87501656870215" lon="9.385100638180226"><ele>475.5</ele><time>2026-04-04T10:00:19.999Z</time></trkpt><trkpt lat="44.87493794562524" lon="9.385216303834559"><ele>473.0</ele><time>2026-04-04T10:00:21.999Z</time></trkpt><trkpt lat="44.87485964037572" lon="9.385291052670755"><ele>470.5</ele><time>2026-04-04T10:00:23.999Z</time></trkpt><trkpt lat="44.874809501020955" lon="9.385364138980822"><ele>468.0</ele><time>2026-04-04T10:00:24.999Z</time></trkpt><trkpt lat="44.874758883057304" lon="9.385444580191313"><ele>468.0</ele><time>2026-04-04T10:00:25.999Z</time></trkpt><trkpt lat="44.87470602809111" lon="9.385518762692053"><ele>468.0</ele><time>2026-04-04T10:00:26.999Z</time></trkpt><trkpt lat="44.87464820871927" lon="9.38558512989989"><ele>468.0</ele><time>2026-04-04T10:00:27.999Z</time></trkpt><trkpt lat="44.87458378430333" lon="9.385572609070078"><ele>468.0</ele><time>2026-04-04T10:00:28.999Z</time></trkpt><trkpt lat="44.87451353794353" lon="9.385423495655429"><ele>468.0</ele><time>2026-04-04T10:00:30.999Z</time></trkpt><trkpt lat="44.874508227091184" lon="9.385279364960821"><ele>468.0</ele><time>2026-04-04T10:00:31.999Z</time></trkpt><trkpt lat="44.8746341018854" lon="9.385158962664292"><ele>468.0</ele><time>2026-04-04T10:00:33Z</time></trkpt><trkpt lat="44.87471153987304" lon="9.385057462723756"><ele>467.99999999999994</ele><time>2026-04-04T10:00:34Z</time></trkpt><trkpt lat="44.87475318073618" lon="9.384943704836878"><ele>467.99999999999994</ele><time>2026-04-04T10:00:35Z</time></trkpt><trkpt lat="44.874788467738135" lon="9.384866313744302"><ele>468.0</ele><time>2026-04-04T10:00:36Z</time></trkpt><trkpt lat="44.874830203780384" lon="9.384689524070328"><ele>468.0</ele><time>2026-04-04T10:00:38Z</time></trkpt><trkpt lat="44.87486345698122" lon="9.384562818388043"><ele>467.0</ele><time>2026-04-04T10:00:40Z</time></trkpt><trkpt lat="44.874843449887706" lon="9.384460342606554"><ele>465.99999999999994</ele><time>2026-04-04T10:00:42Z</time></trkpt><trkpt lat="44.87474020897483" lon="9.384431360128701"><ele>464.99999999999994</ele><time>2026-04-04T10:00:43Z</time></trkpt><trkpt lat="44.87464312178911" lon="9.384397292305835"><ele>464.0</ele><time>2026-04-04T10:00:45Z</time></trkpt><trkpt lat="44.874557230759244" lon="9.38455704885591"><ele>463.0</ele><time>2026-04-04T10:00:46Z</time></trkpt><trkpt lat="44.87450478250946" lon="9.384642626475195"><ele>464.0</ele><time>2026-04-04T10:00:47Z</time></trkpt><trkpt lat="44.87448882373312" lon="9.384754480218565"><ele>464.99999999999994</ele><time>2026-04-04T10:00:48Z</time></trkpt><trkpt lat="44.874461106239565" lon="9.384838678901277"><ele>465.99999999999994</ele><time>2026-04-04T10:00:49Z</time></trkpt><trkpt lat="44.87441571554493" lon="9.384992827434942"><ele>467.0</ele><time>2026-04-04T10:00:51Z</time></trkpt><trkpt lat="44.8743914729685" lon="9.385082863400113"><ele>468.0</ele><time>2026-04-04T10:00:52Z</time></trkpt><trkpt lat="44.87435647472361" lon="9.385262244011866"><ele>468.0</ele><time>2026-04-04T10:00:54Z</time></trkpt><trkpt lat="44.874322211352016" lon="9.385362664808769"><ele>468.0</ele><time>2026-04-04T10:00:55Z</time></trkpt><trkpt lat="44.87428714499283" lon="9.385463235673889"><ele>468.0</ele><time>2026-04-04T10:00:56Z</time></trkpt><trkpt lat="44.874248337045614" lon="9.385564398353937"><ele>468.0</ele><time>2026-04-04T10:00:57Z</time></trkpt><trkpt lat="44.87419082092954" lon="9.385674390534927"><ele>468.0</ele><time>2026-04-04T10:00:58Z</time></trkpt><trkpt lat="44.87412908954994" lon="9.385791636655698"><ele>468.0</ele><time>2026-04-04T10:00:59Z</time></trkpt><trkpt lat="44.874057879504214" lon="9.385886199055143"><ele>465.4</ele><time>2026-04-04T10:01:00Z</time></trkpt><trkpt lat="44.87398058970297" lon="9.385958827692729"><ele>462.79999999999995</ele><time>2026-04-04T10:01:01Z</time></trkpt><trkpt lat="44.873892540571696" lon="9.386025277904642"><ele>460.2</ele><time>2026-04-04T10:01:02Z</time></trkpt><trkpt lat="44.873809898936464" lon="9.3860879746527"><ele>457.6</ele><time>2026-04-04T10:01:03Z</time></trkpt><trkpt lat="44.873724935665166" lon="9.386162603894014"><ele>455.0</ele><time>2026-04-04T10:01:04Z</time></trkpt><trkpt lat="44.87364614624315" lon="9.386231657362378"><ele>455.0</ele><time>2026-04-04T10:01:05Z</time></trkpt><trkpt lat="44.873565654849074" lon="9.386294627044947"><ele>455.0</ele><time>2026-04-04T10:01:06Z</time></trkpt><trkpt lat="44.873481915349736" lon="9.386374521742418"><ele>455.0</ele><time>2026-04-04T10:01:07Z</time></trkpt><trkpt lat="44.873416902050295" lon="9.386476001881121"><ele>455.0</ele><time>2026-04-04T10:01:08Z</time></trkpt><trkpt lat="44.87334591470194" lon="9.38659361656875"><ele>455.0</ele><time>2026-04-04T10:01:09Z</time></trkpt><trkpt lat="44.87328797070347" lon="9.386713874381966"><ele>454.2</ele><time>2026-04-04T10:01:10Z</time></trkpt><trkpt lat="44.873238011729576" lon="9.386808025492892"><ele>453.4</ele><time>2026-04-04T10:01:11Z</time></trkpt><trkpt lat="44.87318695300514" lon="9.386918337434539"><ele>452.6</ele><time>2026-04-04T10:01:12Z</time></trkpt><trkpt lat="44.87313587732392" lon="9.387018821794484"><ele>451.8</ele><time>2026-04-04T10:01:13Z</time></trkpt><trkpt lat="44.87306899531255" lon="9.387107901361581"><ele>451.0</ele><time>2026-04-04T10:01:14Z</time></trkpt><trkpt lat="44.87299046745997" lon="9.38718578164557"><ele>451.0</ele><time>2026-04-04T10:01:15Z</time></trkpt><trkpt lat="44.87290659104647" lon="9.387232031816716"><ele>451.0</ele><time>2026-04-04T10:01:16Z</time></trkpt><trkpt lat="44.872809755625845" lon="9.387271380659694"><ele>451.0</ele><time>2026-04-04T10:01:17Z</time></trkpt><trkpt lat="44.872711638620004" lon="9.387311291718428"><ele>451.0</ele><time>2026-04-04T10:01:18Z</time></trkpt><trkpt lat="44.87261422462219" lon="9.387340981785279"><ele>451.0</ele><time>2026-04-04T10:01:19Z</time></trkpt><trkpt lat="44.87251440656365" lon="9.387388202535918"><ele>451.0</ele><time>2026-04-04T10:01:20Z</time></trkpt><trkpt lat="44.87241614893856" lon="9.38743052011733"><ele>451.0</ele><time>2026-04-04T10:01:21Z</time></trkpt><trkpt lat="44.872322867226416" lon="9.387466680541195"><ele>451.0</ele><time>2026-04-04T10:01:22Z</time></trkpt><trkpt lat="44.87221617799894" lon="9.387516261199728"><ele>451.0</ele><time>2026-04-04T10:01:23Z</time></trkpt><trkpt lat="44.872117403445785" lon="9.387580045533806"><ele>451.0</ele><time>2026-04-04T10:01:24Z</time></trkpt><trkpt lat="44.87202570784664" lon="9.387681973825517"><ele>451.0</ele><time>2026-04-04T10:01:25Z</time></trkpt><trkpt lat="44.87193739580064" lon="9.387807940588441"><ele>451.0</ele><time>2026-04-04T10:01:25.999Z</time></trkpt><trkpt lat="44.87181810293949" lon="9.387932456329153"><ele>451.0</ele><time>2026-04-04T10:01:26.999Z</time></trkpt><trkpt lat="44.87173118730549" lon="9.388064279798785"><ele>451.0</ele><time>2026-04-04T10:01:27.999Z</time></trkpt><trkpt lat="44.87165750948395" lon="9.388165869977904"><ele>451.20000000000005</ele><time>2026-04-04T10:01:28.999Z</time></trkpt><trkpt lat="44.87159864115849" lon="9.388261892544703"><ele>451.40000000000003</ele><time>2026-04-04T10:01:29.999Z</time></trkpt><trkpt lat="44.871543995737106" lon="9.388379789636168"><ele>451.6</ele><time>2026-04-04T10:01:30.999Z</time></trkpt><trkpt lat="44.87152194619866" lon="9.388539367944464"><ele>451.8</ele><time>2026-04-04T10:01:31.999Z</time></trkpt><trkpt lat="44.87151719104925" lon="9.388715267727108"><ele>452.0</ele><time>2026-04-04T10:01:32.999Z</time></trkpt><trkpt lat="44.87151306402238" lon="9.388904549204922"><ele>452.0</ele><time>2026-04-04T10:01:33.999Z</time></trkpt><trkpt lat="44.8715111420497" lon="9.389092275486668"><ele>452.0</ele><time>2026-04-04T10:01:34.999Z</time></trkpt><trkpt lat="44.87150569960558" lon="9.389282804552023"><ele>452.0</ele><time>2026-04-04T10:01:35.999Z</time></trkpt><trkpt lat="44.87150118257692" lon="9.389455112692668"><ele>452.0</ele><time>2026-04-04T10:01:36.999Z</time></trkpt><trkpt lat="44.87147398516767" lon="9.389642169848065"><ele>453.75</ele><time>2026-04-04T10:01:37.999Z</time></trkpt><trkpt lat="44.87139497592884" lon="9.389813406109447"><ele>455.5</ele><time>2026-04-04T10:01:38.999Z</time></trkpt><trkpt lat="44.87131131863348" lon="9.389955250417604"><ele>457.25</ele><time>2026-04-04T10:01:39.999Z</time></trkpt><trkpt lat="44.87122156081141" lon="9.390136633254663"><ele>459.0</ele><time>2026-04-04T10:01:40.999Z</time></trkpt><trkpt lat="44.87113519224423" lon="9.390291871362772"><ele>459.0</ele><time>2026-04-04T10:01:41.999Z</time></trkpt><trkpt lat="44.87107586704057" lon="9.390433748929384"><ele>459.0</ele><time>2026-04-04T10:01:42.999Z</time></trkpt><trkpt lat="44.87100840575067" lon="9.390580076841061"><ele>459.0</ele><time>2026-04-04T10:01:43.999Z</time></trkpt><trkpt lat="44.87094099917374" lon="9.390720163932945"><ele>459.0</ele><time>2026-04-04T10:01:44.999Z</time></trkpt><trkpt lat="44.87087707918051" lon="9.390861389569686"><ele>458.25</ele><time>2026-04-04T10:01:45.999Z</time></trkpt><trkpt lat="44.870814584018035" lon="9.391010562568155"><ele>457.5</ele><time>2026-04-04T10:01:46.999Z</time></trkpt><trkpt lat="44.87076535757663" lon="9.391180343217092"><ele>456.75</ele><time>2026-04-04T10:01:47.999Z</time></trkpt><trkpt lat="44.87072363552886" lon="9.391362230198494"><ele>456.0</ele><time>2026-04-04T10:01:48.999Z</time></trkpt><trkpt lat="44.870687007630025" lon="9.39154430245766"><ele>456.0</ele><time>2026-04-04T10:01:49.999Z</time></trkpt><trkpt lat="44.87064176385405" lon="9.391732624091004"><ele>456.0</ele><time>2026-04-04T10:01:50.999Z</time></trkpt><trkpt lat="44.87060376299101" lon="9.391927857642067"><ele>456.0</ele><time>2026-04-04T10:01:51.999Z</time></trkpt><trkpt lat="44.87057181505515" lon="9.392127040215117"><ele>456.0</ele><time>2026-04-04T10:01:52.999Z</time></trkpt><trkpt lat="44.8705369441035" lon="9.392331803643684"><ele>457.5</ele><time>2026-04-04T10:01:53.999Z</time></trkpt><trkpt lat="44.87050312324792" lon="9.392538686129996"><ele>459.0</ele><time>2026-04-04T10:01:54.999Z</time></trkpt><trkpt lat="44.87047292997424" lon="9.392745099924392"><ele>460.5</ele><time>2026-04-04T10:01:55.999Z</time></trkpt><trkpt lat="44.870441968641664" lon="9.392940760533113"><ele>462.0</ele><time>2026-04-04T10:01:56.999Z</time></trkpt><trkpt lat="44.87041553231298" lon="9.393112675489878"><ele>463.25</ele><time>2026-04-04T10:01:57.999Z</time></trkpt><trkpt lat="44.87038283825711" lon="9.393273980337511"><ele>464.5</ele><time>2026-04-04T10:01:58.999Z</time></trkpt><trkpt lat="44.870347118189514" lon="9.393430780682458"><ele>465.75</ele><time>2026-04-04T10:01:59.999Z</time></trkpt><trkpt lat="44.870305579158014" lon="9.393589489358204"><ele>467.0</ele><time>2026-04-04T10:02:00.999Z</time></trkpt><trkpt lat="44.87026071234233" lon="9.393741024537924"><ele>467.6</ele><time>2026-04-04T10:02:01.999Z</time></trkpt><trkpt lat="44.870220730515385" lon="9.393868285554817"><ele>468.20000000000005</ele><time>2026-04-04T10:02:02.999Z</time></trkpt><trkpt lat="44.870177297412525" lon="9.393989466186202"><ele>468.8</ele><time>2026-04-04T10:02:03.999Z</time></trkpt><trkpt lat="44.870131704224406" lon="9.394095827816743"><ele>469.4</ele><time>2026-04-04T10:02:04.999Z</time></trkpt><trkpt lat="44.87007704514129" lon="9.394204780987582"><ele>470.0</ele><time>2026-04-04T10:02:05.999Z</time></trkpt><trkpt lat="44.870027772181786" lon="9.394293557060868"><ele>467.4285714285714</ele><time>2026-04-04T10:02:06.999Z</time></trkpt><trkpt lat="44.86998538955196" lon="9.39437233086855"><ele>464.8571428571428</ele><time>2026-04-04T10:02:07.999Z</time></trkpt><trkpt lat="44.86995745716825" lon="9.394456317246016"><ele>462.2857142857143</ele><time>2026-04-04T10:02:08.999Z</time></trkpt><trkpt lat="44.86990258522477" lon="9.394513946518877"><ele>459.71428571428567</ele><time>2026-04-04T10:02:09.999Z</time></trkpt><trkpt lat="44.86985316484953" lon="9.394580085926288"><ele>457.1428571428571</ele><time>2026-04-04T10:02:10.999Z</time></trkpt><trkpt lat="44.86981544915438" lon="9.394653639571594"><ele>454.57142857142856</ele><time>2026-04-04T10:02:11.999Z</time></trkpt><trkpt lat="44.8697353882159" lon="9.39468152402824"><ele>452.0</ele><time>2026-04-04T10:02:12.999Z</time></trkpt><trkpt lat="44.86965980864235" lon="9.394735047371421"><ele>452.0</ele><time>2026-04-04T10:02:13.999Z</time></trkpt><trkpt lat="44.86962536937293" lon="9.394921440249506"><ele>452.00000000000006</ele><time>2026-04-04T10:02:14.999Z</time></trkpt><trkpt lat="44.869556226876746" lon="9.39500832828785"><ele>452.00000000000006</ele><time>2026-04-04T10:02:15.999Z</time></trkpt><trkpt lat="44.8695089374453" lon="9.395113132345193"><ele>452.0</ele><time>2026-04-04T10:02:16.999Z</time></trkpt><trkpt lat="44.86944825240604" lon="9.395188320274624"><ele>452.0</ele><time>2026-04-04T10:02:17.999Z</time></trkpt><trkpt lat="44.869396142195164" lon="9.395251254111825"><ele>451.99999999999994</ele><time>2026-04-04T10:02:18.999Z</time></trkpt><trkpt lat="44.869363686922554" lon="9.395357908935628"><ele>452.0</ele><time>2026-04-04T10:02:19.999Z</time></trkpt><trkpt lat="44.86934127311249" lon="9.3954602005554"><ele>452.0</ele><time>2026-04-04T10:02:20.999Z</time></trkpt><trkpt lat="44.869348476057006" lon="9.3955659644341"><ele>452.0</ele><time>2026-04-04T10:02:21.999Z</time></trkpt><trkpt lat="44.86934916382039" lon="9.395664358854164"><ele>451.99999999999994</ele><time>2026-04-04T10:02:22.999Z</time></trkpt><trkpt lat="44.86934955667568" lon="9.395770271713964"><ele>452.0</ele><time>2026-04-04T10:02:23.999Z</time></trkpt><trkpt lat="44.86935558086084" lon="9.395871674378013"><ele>452.8333333333333</ele><time>2026-04-04T10:02:24.999Z</time></trkpt><trkpt lat="44.86935798543869" lon="9.39598258117639"><ele>453.66666666666663</ele><time>2026-04-04T10:02:25.999Z</time></trkpt><trkpt lat="44.869345496592054" lon="9.396096516988207"><ele>454.5</ele><time>2026-04-04T10:02:26.999Z</time></trkpt><trkpt lat="44.869341170138725" lon="9.39621522714749"><ele>455.33333333333337</ele><time>2026-04-04T10:02:27.999Z</time></trkpt><trkpt lat="44.86933647178946" lon="9.396344142833616"><ele>456.1666666666667</ele><time>2026-04-04T10:02:28.999Z</time></trkpt><trkpt lat="44.869346813762824" lon="9.396496590572829"><ele>457.0</ele><time>2026-04-04T10:02:29.999Z</time></trkpt><trkpt lat="44.869324265297415" lon="9.39663292889021"><ele>457.40000000000003</ele><time>2026-04-04T10:02:30.999Z</time></trkpt><trkpt lat="44.86932399392864" lon="9.396746689347317"><ele>457.80000000000007</ele><time>2026-04-04T10:02:31.999Z</time></trkpt><trkpt lat="44.86933461383461" lon="9.396852691615672"><ele>458.2</ele><time>2026-04-04T10:02:32.999Z</time></trkpt><trkpt lat="44.86939621288494" lon="9.39695480660039"><ele>458.6</ele><time>2026-04-04T10:02:33.999Z</time></trkpt><trkpt lat="44.869468003159476" lon="9.397067226110392"><ele>459.0</ele><time>2026-04-04T10:02:34.999Z</time></trkpt><trkpt lat="44.86958367622986" lon="9.397170260097091"><ele>459.79999999999995</ele><time>2026-04-04T10:02:35.999Z</time></trkpt><trkpt lat="44.86969004524041" lon="9.397230346163127"><ele>460.59999999999997</ele><time>2026-04-04T10:02:36.999Z</time></trkpt><trkpt lat="44.86978104766524" lon="9.397242520939207"><ele>461.4</ele><time>2026-04-04T10:02:37.999Z</time></trkpt><trkpt lat="44.86985755671123" lon="9.397232914708974"><ele>462.2</ele><time>2026-04-04T10:02:39Z</time></trkpt><trkpt lat="44.869979356800975" lon="9.397262436226669"><ele>463.0</ele><time>2026-04-04T10:02:41Z</time></trkpt><trkpt lat="44.87001470288866" lon="9.397351624594213"><ele>463.0</ele><time>2026-04-04T10:02:42Z</time></trkpt><trkpt lat="44.87002308581061" lon="9.397444881836252"><ele>462.99999999999994</ele><time>2026-04-04T10:02:43Z</time></trkpt><trkpt lat="44.86996695450386" lon="9.39753649819664"><ele>462.99999999999994</ele><time>2026-04-04T10:02:44Z</time></trkpt><trkpt lat="44.86986026173236" lon="9.397574354865842"><ele>463.0</ele><time>2026-04-04T10:02:45Z</time></trkpt><trkpt lat="44.869748104846295" lon="9.397725885814932"><ele>463.0</ele><time>2026-04-04T10:02:46Z</time></trkpt><trkpt lat="44.86969614927023" lon="9.397927327161737"><ele>465.6666666666667</ele><time>2026-04-04T10:02:47Z</time></trkpt><trkpt lat="44.86962059466455" lon="9.398142771192726"><ele>468.33333333333337</ele><time>2026-04-04T10:02:48Z</time></trkpt><trkpt lat="44.869531878338684" lon="9.398348304211321"><ele>471.0</ele><time>2026-04-04T10:02:49Z</time></trkpt><trkpt lat="44.86948185935109" lon="9.39852008749241"><ele>471.0</ele><time>2026-04-04T10:02:50Z</time></trkpt><trkpt lat="44.869450357384196" lon="9.398654889314448"><ele>471.0</ele><time>2026-04-04T10:02:51Z</time></trkpt><trkpt lat="44.869395859115556" lon="9.39876023335113"><ele>471.0</ele><time>2026-04-04T10:02:52Z</time></trkpt><trkpt lat="44.86934062557222" lon="9.398870644053751"><ele>471.0</ele><time>2026-04-04T10:02:53Z</time></trkpt><trkpt lat="44.869300646259454" lon="9.398991819832242"><ele>471.0</ele><time>2026-04-04T10:02:54Z</time></trkpt><trkpt lat="44.869254260006244" lon="9.399076977572975"><ele>469.8</ele><time>2026-04-04T10:02:55Z</time></trkpt><trkpt lat="44.869226695724954" lon="9.399187963299255"><ele>468.6</ele><time>2026-04-04T10:02:56Z</time></trkpt><trkpt lat="44.86921682647198" lon="9.399327848441093"><ele>467.4</ele><time>2026-04-04T10:02:57Z</time></trkpt><trkpt lat="44.869226127219214" lon="9.399517755833102"><ele>466.2</ele><time>2026-04-04T10:02:58Z</time></trkpt><trkpt lat="44.869250202029995" lon="9.399675046597286"><ele>465.0</ele><time>2026-04-04T10:02:59Z</time></trkpt><trkpt lat="44.869266853770135" lon="9.399828965353457"><ele>467.8</ele><time>2026-04-04T10:03:00Z</time></trkpt><trkpt lat="44.86927914773716" lon="9.399980077246195"><ele>470.6</ele><time>2026-04-04T10:03:01Z</time></trkpt><trkpt lat="44.86929474790307" lon="9.40013251072441"><ele>473.4</ele><time>2026-04-04T10:03:02Z</time></trkpt><trkpt lat="44.869348058650225" lon="9.400264802524458"><ele>476.2</ele><time>2026-04-04T10:03:03Z</time></trkpt><trkpt lat="44.869412778141324" lon="9.400361876009597"><ele>479.0</ele><time>2026-04-04T10:03:04Z</time></trkpt><trkpt lat="44.869470241334334" lon="9.400457903322014"><ele>479.4</ele><time>2026-04-04T10:03:05Z</time></trkpt><trkpt lat="44.86951216826891" lon="9.400561330138608"><ele>479.79999999999995</ele><time>2026-04-04T10:03:06Z</time></trkpt><trkpt lat="44.86951722886283" lon="9.400671966050728"><ele>480.20000000000005</ele><time>2026-04-04T10:03:07Z</time></trkpt><trkpt lat="44.86942391001054" lon="9.40077412118028"><ele>480.6</ele><time>2026-04-04T10:03:08Z</time></trkpt><trkpt lat="44.869345114527626" lon="9.400830972158042"><ele>481.0</ele><time>2026-04-04T10:03:09Z</time></trkpt><trkpt lat="44.869246491650244" lon="9.40098898243732"><ele>480.0</ele><time>2026-04-04T10:03:10Z</time></trkpt><trkpt lat="44.869210346970306" lon="9.401142840877867"><ele>479.0</ele><time>2026-04-04T10:03:11Z</time></trkpt><trkpt lat="44.86918494906614" lon="9.401299036462339"><ele>478.0</ele><time>2026-04-04T10:03:12Z</time></trkpt><trkpt lat="44.86914827611697" lon="9.401457672611157"><ele>477.0</ele><time>2026-04-04T10:03:13Z</time></trkpt><trkpt lat="44.869122948066234" lon="9.40159554745177"><ele>476.0</ele><time>2026-04-04T10:03:14Z</time></trkpt><trkpt lat="44.869100567063356" lon="9.40174026823715"><ele>476.0</ele><time>2026-04-04T10:03:15Z</time></trkpt><trkpt lat="44.869093579781214" lon="9.40189347579745"><ele>476.0</ele><time>2026-04-04T10:03:16Z</time></trkpt><trkpt lat="44.86909391828597" lon="9.402063390713382"><ele>476.0</ele><time>2026-04-04T10:03:17Z</time></trkpt><trkpt lat="44.86909306008174" lon="9.402237649019845"><ele>476.0</ele><time>2026-04-04T10:03:18Z</time></trkpt><trkpt lat="44.86909467098528" lon="9.402408449211523"><ele>477.4</ele><time>2026-04-04T10:03:19Z</time></trkpt><trkpt lat="44.86910352631429" lon="9.402577644797649"><ele>478.8</ele><time>2026-04-04T10:03:20Z</time></trkpt><trkpt lat="44.86911692516275" lon="9.4027178755334"><ele>480.19999999999993</ele><time>2026-04-04T10:03:21Z</time></trkpt><trkpt lat="44.86912085341422" lon="9.402825811986649"><ele>481.59999999999997</ele><time>2026-04-04T10:03:22Z</time></trkpt><trkpt lat="44.869117572543054" lon="9.40293797358181"><ele>483.0</ele><time>2026-04-04T10:03:23Z</time></trkpt><trkpt lat="44.86910074091781" lon="9.403042074905654"><ele>484.0</ele><time>2026-04-04T10:03:24Z</time></trkpt><trkpt lat="44.86908592325267" lon="9.40314204777457"><ele>485.0</ele><time>2026-04-04T10:03:25Z</time></trkpt><trkpt lat="44.86907078810374" lon="9.403236786599296"><ele>486.0</ele><time>2026-04-04T10:03:26Z</time></trkpt><trkpt lat="44.869014125646835" lon="9.403399430325479"><ele>487.0</ele><time>2026-04-04T10:03:28Z</time></trkpt><trkpt lat="44.86899792029298" lon="9.40349298475829"><ele>488.0</ele><time>2026-04-04T10:03:29Z</time></trkpt><trkpt lat="44.86895304861599" lon="9.403613558922542"><ele>489.0</ele><time>2026-04-04T10:03:31Z</time></trkpt><trkpt lat="44.868905939692276" lon="9.40372403116605"><ele>489.0</ele><time>2026-04-04T10:03:33Z</time></trkpt><trkpt lat="44.86885962256305" lon="9.403797884016894"><ele>489.00000000000006</ele><time>2026-04-04T10:03:35Z</time></trkpt><trkpt lat="44.868820068287114" lon="9.40386838861711"><ele>489.0</ele><time>2026-04-04T10:03:38.999Z</time></trkpt><trkpt lat="44.86876174724706" lon="9.403951610588729"><ele>489.0</ele><time>2026-04-04T10:03:49.999Z</time></trkpt><trkpt lat="44.868702296652174" lon="9.404064292517692"><ele>489.00000000000006</ele><time>2026-04-04T10:03:58.999Z</time></trkpt><trkpt lat="44.86866589037896" lon="9.40413899210193"><ele>489.0</ele><time>2026-04-04T10:03:59.999Z</time></trkpt><trkpt lat="44.86863766998292" lon="9.404222003280143"><ele>489.0</ele><time>2026-04-04T10:04:00.999Z</time></trkpt><trkpt lat="44.868619168464036" lon="9.40440409479015"><ele>490.79999999999995</ele><time>2026-04-04T10:04:02.999Z</time></trkpt><trkpt lat="44.868617845432496" lon="9.404496635510473"><ele>492.59999999999997</ele><time>2026-04-04T10:04:03.999Z</time></trkpt><trkpt lat="44.86859891675345" lon="9.40466931562373"><ele>494.4</ele><time>2026-04-04T10:04:05.999Z</time></trkpt><trkpt lat="44.8685727243063" lon="9.404824682092919"><ele>496.2</ele><time>2026-04-04T10:04:07.999Z</time></trkpt><trkpt lat="44.86853663083882" lon="9.404958268777156"><ele>498.0</ele><time>2026-04-04T10:04:09.999Z</time></trkpt><trkpt lat="44.86849728409007" lon="9.405088025673027"><ele>496.59999999999997</ele><time>2026-04-04T10:04:11.999Z</time></trkpt><trkpt lat="44.86844471183837" lon="9.40521493285723"><ele>495.19999999999993</ele><time>2026-04-04T10:04:13.999Z</time></trkpt><trkpt lat="44.868397771916385" lon="9.405306874302072"><ele>493.8</ele><time>2026-04-04T10:04:15.999Z</time></trkpt><trkpt lat="44.8683839422475" lon="9.40543464820184"><ele>492.4</ele><time>2026-04-04T10:04:17.999Z</time></trkpt><trkpt lat="44.868347378702076" lon="9.405607137274723"><ele>491.0</ele><time>2026-04-04T10:04:19.999Z</time></trkpt><trkpt lat="44.868334807076266" lon="9.405716081634477"><ele>491.0</ele><time>2026-04-04T10:04:20.999Z</time></trkpt><trkpt lat="44.868321283201574" lon="9.405834360023274"><ele>491.0</ele><time>2026-04-04T10:04:21.999Z</time></trkpt><trkpt lat="44.868304638035035" lon="9.405969461517241"><ele>491.0</ele><time>2026-04-04T10:04:22.999Z</time></trkpt><trkpt lat="44.86831155897787" lon="9.406096621574374"><ele>491.0</ele><time>2026-04-04T10:04:23.999Z</time></trkpt><trkpt lat="44.8683297311685" lon="9.406222453354456"><ele>491.0</ele><time>2026-04-04T10:04:24.999Z</time></trkpt><trkpt lat="44.868357142037894" lon="9.406339475577186"><ele>491.3333333333333</ele><time>2026-04-04T10:04:25.999Z</time></trkpt><trkpt lat="44.86839549274344" lon="9.406451078047459"><ele>491.66666666666663</ele><time>2026-04-04T10:04:26.999Z</time></trkpt><trkpt lat="44.868426263333426" lon="9.406575219993373"><ele>492.0</ele><time>2026-04-04T10:04:27.999Z</time></trkpt><trkpt lat="44.86846026222617" lon="9.406697267759279"><ele>492.33333333333337</ele><time>2026-04-04T10:04:28.999Z</time></trkpt><trkpt lat="44.86847603466938" lon="9.406812811574783"><ele>492.6666666666667</ele><time>2026-04-04T10:04:29.999Z</time></trkpt><trkpt lat="44.8685073460816" lon="9.40693202720158"><ele>493.0</ele><time>2026-04-04T10:04:30.999Z</time></trkpt><trkpt lat="44.86853839218736" lon="9.407037231645507"><ele>494.50000000000006</ele><time>2026-04-04T10:04:31.999Z</time></trkpt><trkpt lat="44.8685584758964" lon="9.40714124134509"><ele>496.0</ele><time>2026-04-04T10:04:32.999Z</time></trkpt><trkpt lat="44.868577707757076" lon="9.407264491505805"><ele>497.5</ele><time>2026-04-04T10:04:33.999Z</time></trkpt><trkpt lat="44.86860736500549" lon="9.407384775200525"><ele>499.0</ele><time>2026-04-04T10:04:34.999Z</time></trkpt><trkpt lat="44.86864646135492" lon="9.407478448530949"><ele>500.50000000000006</ele><time>2026-04-04T10:04:35.999Z</time></trkpt><trkpt lat="44.868688766643004" lon="9.407548105256508"><ele>502.0</ele><time>2026-04-04T10:04:36.999Z</time></trkpt><trkpt lat="44.86877136816104" lon="9.40768180427603"><ele>502.0</ele><time>2026-04-04T10:04:38.999Z</time></trkpt><trkpt lat="44.868827750936106" lon="9.40776058844408"><ele>502.00000000000006</ele><time>2026-04-04T10:04:39.999Z</time></trkpt><trkpt lat="44.86889506980925" lon="9.407835511862631"><ele>502.00000000000006</ele><time>2026-04-04T10:04:40.999Z</time></trkpt><trkpt lat="44.86896545964089" lon="9.407928379668334"><ele>502.0</ele><time>2026-04-04T10:04:41.999Z</time></trkpt><trkpt lat="44.869035923411715" lon="9.408035292216944"><ele>502.0</ele><time>2026-04-04T10:04:42.999Z</time></trkpt><trkpt lat="44.869116222802944" lon="9.408143168221502"><ele>502.40000000000003</ele><time>2026-04-04T10:04:43.999Z</time></trkpt><trkpt lat="44.869207079858455" lon="9.408229630639134"><ele>502.80000000000007</ele><time>2026-04-04T10:04:45Z</time></trkpt><trkpt lat="44.8692968279919" lon="9.408276322774393"><ele>503.2</ele><time>2026-04-04T10:04:46Z</time></trkpt><trkpt lat="44.86938655352069" lon="9.408302810645004"><ele>503.6</ele><time>2026-04-04T10:04:47Z</time></trkpt><trkpt lat="44.869483789955794" lon="9.408309005066947"><ele>504.0</ele><time>2026-04-04T10:04:48Z</time></trkpt><trkpt lat="44.86958737390564" lon="9.408291421137717"><ele>505.6666666666667</ele><time>2026-04-04T10:04:49Z</time></trkpt><trkpt lat="44.86968586192936" lon="9.408275365087867"><ele>507.33333333333337</ele><time>2026-04-04T10:04:50Z</time></trkpt><trkpt lat="44.86976438211062" lon="9.40828735178772"><ele>509.0</ele><time>2026-04-04T10:04:51Z</time></trkpt><trkpt lat="44.8698468782743" lon="9.40836068816902"><ele>510.6666666666667</ele><time>2026-04-04T10:04:53Z</time></trkpt><trkpt lat="44.869881316582216" lon="9.408441663507803"><ele>512.3333333333334</ele><time>2026-04-04T10:04:55Z</time></trkpt><trkpt lat="44.86983553126152" lon="9.408573408457595"><ele>514.0</ele><time>2026-04-04T10:04:57Z</time></trkpt><trkpt lat="44.86972019632486" lon="9.408595006511089"><ele>514.0</ele><time>2026-04-04T10:04:59Z</time></trkpt><trkpt lat="44.869640883120695" lon="9.408620628650029"><ele>514.0</ele><time>2026-04-04T10:05:00Z</time></trkpt><trkpt lat="44.869563877103815" lon="9.408662394804995"><ele>514.0</ele><time>2026-04-04T10:05:01Z</time></trkpt><trkpt lat="44.86949444852802" lon="9.408741061620422"><ele>514.0</ele><time>2026-04-04T10:05:02Z</time></trkpt><trkpt lat="44.869432635839274" lon="9.408825001869033"><ele>514.0</ele><time>2026-04-04T10:05:03Z</time></trkpt><trkpt lat="44.869387558157825" lon="9.408952591613904"><ele>514.0</ele><time>2026-04-04T10:05:04Z</time></trkpt><trkpt lat="44.86934580991712" lon="9.409090837775105"><ele>514.25</ele><time>2026-04-04T10:05:05Z</time></trkpt><trkpt lat="44.86932294987224" lon="9.409242336467074"><ele>514.5</ele><time>2026-04-04T10:05:06Z</time></trkpt><trkpt lat="44.86930865245667" lon="9.409409400388375"><ele>514.75</ele><time>2026-04-04T10:05:07Z</time></trkpt><trkpt lat="44.86928747846226" lon="9.409587336551564"><ele>515.0</ele><time>2026-04-04T10:05:08Z</time></trkpt><trkpt lat="44.86927390597342" lon="9.409731338200283"><ele>519.8</ele><time>2026-04-04T10:05:09Z</time></trkpt><trkpt lat="44.86929694056768" lon="9.409872717806909"><ele>524.6</ele><time>2026-04-04T10:05:10Z</time></trkpt><trkpt lat="44.86933084255837" lon="9.410034070784937"><ele>529.4</ele><time>2026-04-04T10:05:11Z</time></trkpt><trkpt lat="44.86936583887638" lon="9.410202318671496"><ele>534.2</ele><time>2026-04-04T10:05:12Z</time></trkpt><trkpt lat="44.86938809264101" lon="9.410330979390773"><ele>539.0</ele><time>2026-04-04T10:05:13Z</time></trkpt><trkpt lat="44.86941186695016" lon="9.410468431232866"><ele>539.0</ele><time>2026-04-04T10:05:14Z</time></trkpt><trkpt lat="44.86944712380473" lon="9.410596686124322"><ele>539.0</ele><time>2026-04-04T10:05:15Z</time></trkpt><trkpt lat="44.86946356790211" lon="9.410775257501854"><ele>539.0</ele><time>2026-04-04T10:05:16Z</time></trkpt><trkpt lat="44.869478162747676" lon="9.4109386696975"><ele>539.0</ele><time>2026-04-04T10:05:17Z</time></trkpt><trkpt lat="44.869527474543716" lon="9.411133044380202"><ele>539.0</ele><time>2026-04-04T10:05:18Z</time></trkpt><trkpt lat="44.86956531047181" lon="9.411319721311108"><ele>539.0</ele><time>2026-04-04T10:05:19Z</time></trkpt><trkpt lat="44.8695938803133" lon="9.41147087946247"><ele>539.0</ele><time>2026-04-04T10:05:20Z</time></trkpt><trkpt lat="44.86961056302979" lon="9.411643541898005"><ele>539.0</ele><time>2026-04-04T10:05:21Z</time></trkpt><trkpt lat="44.86962840914616" lon="9.411796124917617"><ele>538.2</ele><time>2026-04-04T10:05:22Z</time></trkpt><trkpt lat="44.86964923093607" lon="9.411948857855318"><ele>537.4</ele><time>2026-04-04T10:05:23Z</time></trkpt><trkpt lat="44.86966747807158" lon="9.412099963768066"><ele>536.6</ele><time>2026-04-04T10:05:24Z</time></trkpt><trkpt lat="44.86967786509861" lon="9.412224900764182"><ele>535.8</ele><time>2026-04-04T10:05:25Z</time></trkpt><trkpt lat="44.86969573502911" lon="9.412324491538962"><ele>535.0</ele><time>2026-04-04T10:05:26Z</time></trkpt><trkpt lat="44.869709076623536" lon="9.412420956322103"><ele>534.6666666666667</ele><time>2026-04-04T10:05:27Z</time></trkpt><trkpt lat="44.869729390960764" lon="9.412559072081036"><ele>534.3333333333334</ele><time>2026-04-04T10:05:29Z</time></trkpt><trkpt lat="44.86973976260756" lon="9.412665284846536"><ele>534.0</ele><time>2026-04-04T10:05:31Z</time></trkpt><trkpt lat="44.86974272568503" lon="9.412770488716486"><ele>533.6666666666666</ele><time>2026-04-04T10:05:33Z</time></trkpt><trkpt lat="44.8697446541013" lon="9.412895107148895"><ele>533.3333333333333</ele><time>2026-04-04T10:05:36Z</time></trkpt><trkpt lat="44.869760532137896" lon="9.413012609129247"><ele>533.0</ele><time>2026-04-04T10:05:39Z</time></trkpt><trkpt lat="44.86976981705989" lon="9.413105542637215"><ele>533.0</ele><time>2026-04-04T10:05:43Z</time></trkpt><trkpt lat="44.86979213802406" lon="9.41319355773141"><ele>533.0</ele><time>2026-04-04T10:05:46.999Z</time></trkpt><trkpt lat="44.86988136759478" lon="9.4132508280773"><ele>533.0</ele><time>2026-04-04T10:05:50.999Z</time></trkpt><trkpt lat="44.86999661463626" lon="9.413215880021186"><ele>533.0</ele><time>2026-04-04T10:05:52.999Z</time></trkpt><trkpt lat="44.87006265782969" lon="9.41320827152216"><ele>533.0</ele><time>2026-04-04T10:05:53.999Z</time></trkpt><trkpt lat="44.87013062600598" lon="9.413198333519002"><ele>533.0</ele><time>2026-04-04T10:05:54.999Z</time></trkpt><trkpt lat="44.870208098345856" lon="9.413192548143709"><ele>534.8333333333333</ele><time>2026-04-04T10:05:55.999Z</time></trkpt><trkpt lat="44.870292063930926" lon="9.413186699321447"><ele>536.6666666666666</ele><time>2026-04-04T10:05:56.999Z</time></trkpt><trkpt lat="44.87037733611255" lon="9.413177771294531"><ele>538.5</ele><time>2026-04-04T10:05:57.999Z</time></trkpt><trkpt lat="44.87046869415886" lon="9.413160035931307"><ele>540.3333333333334</ele><time>2026-04-04T10:05:58.999Z</time></trkpt><trkpt lat="44.87056720618807" lon="9.41314726760258"><ele>542.1666666666667</ele><time>2026-04-04T10:05:59.999Z</time></trkpt><trkpt lat="44.870650985316416" lon="9.413140879029426"><ele>544.0</ele><time>2026-04-04T10:06:00.999Z</time></trkpt><trkpt lat="44.870723275237815" lon="9.413133790067759"><ele>544.0</ele><time>2026-04-04T10:06:01.999Z</time></trkpt><trkpt lat="44.870787260649664" lon="9.413113546115481"><ele>544.0</ele><time>2026-04-04T10:06:02.999Z</time></trkpt><trkpt lat="44.87084910742685" lon="9.413060622229082"><ele>544.0</ele><time>2026-04-04T10:06:03.999Z</time></trkpt><trkpt lat="44.870906793253305" lon="9.412976187483425"><ele>544.0</ele><time>2026-04-04T10:06:04.999Z</time></trkpt><trkpt lat="44.87094713558551" lon="9.412879599950006"><ele>544.0</ele><time>2026-04-04T10:06:05.999Z</time></trkpt><trkpt lat="44.87101672367114" lon="9.4128125551809"><ele>544.0</ele><time>2026-04-04T10:06:06.999Z</time></trkpt><trkpt lat="44.87109724614768" lon="9.412748977412615"><ele>545.6666666666667</ele><time>2026-04-04T10:06:07.999Z</time></trkpt><trkpt lat="44.871176692030716" lon="9.412700164306349"><ele>547.3333333333334</ele><time>2026-04-04T10:06:08.999Z</time></trkpt><trkpt lat="44.871254206209166" lon="9.412669770381221"><ele>549.0</ele><time>2026-04-04T10:06:09.999Z</time></trkpt><trkpt lat="44.87134548657481" lon="9.412657534044685"><ele>550.6666666666666</ele><time>2026-04-04T10:06:10.999Z</time></trkpt><trkpt lat="44.87142446556772" lon="9.41264176920439"><ele>552.3333333333333</ele><time>2026-04-04T10:06:11.999Z</time></trkpt><trkpt lat="44.87148675388395" lon="9.412584973072564"><ele>554.0</ele><time>2026-04-04T10:06:12.999Z</time></trkpt><trkpt lat="44.8715354111012" lon="9.412491465836307"><ele>554.0</ele><time>2026-04-04T10:06:13.999Z</time></trkpt><trkpt lat="44.87157085050768" lon="9.412379234107174"><ele>554.0</ele><time>2026-04-04T10:06:14.999Z</time></trkpt><trkpt lat="44.871598016017394" lon="9.41226618975198"><ele>554.0</ele><time>2026-04-04T10:06:15.999Z</time></trkpt><trkpt lat="44.87160570463982" lon="9.412159565280298"><ele>554.0</ele><time>2026-04-04T10:06:16.999Z</time></trkpt><trkpt lat="44.87160296515369" lon="9.412064709852757"><ele>554.0</ele><time>2026-04-04T10:06:17.999Z</time></trkpt><trkpt lat="44.87157252763297" lon="9.411968572719223"><ele>554.0</ele><time>2026-04-04T10:06:18.999Z</time></trkpt><trkpt lat="44.87149481149645" lon="9.411883548619631"><ele>554.5</ele><time>2026-04-04T10:06:19.999Z</time></trkpt><trkpt lat="44.87144044837959" lon="9.411789668624827"><ele>555.0</ele><time>2026-04-04T10:06:20.999Z</time></trkpt><trkpt lat="44.871404417358114" lon="9.411692103628802"><ele>555.5</ele><time>2026-04-04T10:06:21.999Z</time></trkpt><trkpt lat="44.87136536651579" lon="9.411574111530287"><ele>556.0</ele><time>2026-04-04T10:06:22.999Z</time></trkpt><trkpt lat="44.87131743753719" lon="9.41146116248584"><ele>556.5</ele><time>2026-04-04T10:06:23.999Z</time></trkpt><trkpt lat="44.871239606890505" lon="9.411385524970088"><ele>557.0</ele><time>2026-04-04T10:06:24.999Z</time></trkpt><trkpt lat="44.871172159946916" lon="9.411314599312187"><ele>557.7142857142858</ele><time>2026-04-04T10:06:25.999Z</time></trkpt><trkpt lat="44.87111121767256" lon="9.411235298081518"><ele>558.4285714285714</ele><time>2026-04-04T10:06:26.999Z</time></trkpt><trkpt lat="44.871052949921264" lon="9.411174731453992"><ele>559.1428571428571</ele><time>2026-04-04T10:06:27.999Z</time></trkpt><trkpt lat="44.8709952772677" lon="9.411110561758415"><ele>559.8571428571429</ele><time>2026-04-04T10:06:28.999Z</time></trkpt><trkpt lat="44.870946566017594" lon="9.411043700002109"><ele>560.5714285714286</ele><time>2026-04-04T10:06:29.999Z</time></trkpt><trkpt lat="44.87090576371054" lon="9.410962655258283"><ele>561.2857142857143</ele><time>2026-04-04T10:06:30.999Z</time></trkpt><trkpt lat="44.870878322736644" lon="9.41087275967834"><ele>562.0</ele><time>2026-04-04T10:06:31.999Z</time></trkpt><trkpt lat="44.870883087270975" lon="9.410695731776737"><ele>562.0</ele><time>2026-04-04T10:06:33.999Z</time></trkpt><trkpt lat="44.870861624757495" lon="9.410597790674611"><ele>562.0</ele><time>2026-04-04T10:06:34.999Z</time></trkpt><trkpt lat="44.87086279088089" lon="9.41049103836502"><ele>562.0</ele><time>2026-04-04T10:06:35.999Z</time></trkpt><trkpt lat="44.87087725544707" lon="9.410379797815773"><ele>562.0</ele><time>2026-04-04T10:06:36.999Z</time></trkpt><trkpt lat="44.87090503675716" lon="9.410262251551632"><ele>562.0</ele><time>2026-04-04T10:06:37.999Z</time></trkpt><trkpt lat="44.870941711479816" lon="9.410135917403137"><ele>562.0</ele><time>2026-04-04T10:06:38.999Z</time></trkpt><trkpt lat="44.87098260103444" lon="9.410008706001312"><ele>562.2</ele><time>2026-04-04T10:06:39.999Z</time></trkpt><trkpt lat="44.87104010171792" lon="9.409819701496623"><ele>562.4000000000001</ele><time>2026-04-04T10:06:40.999Z</time></trkpt><trkpt lat="44.8710883326382" lon="9.409657576120278"><ele>562.5999999999999</ele><time>2026-04-04T10:06:41.999Z</time></trkpt><trkpt lat="44.8711252626231" lon="9.409535472891744"><ele>562.8</ele><time>2026-04-04T10:06:42.999Z</time></trkpt><trkpt lat="44.87115514489355" lon="9.40943571884413"><ele>563.0</ele><time>2026-04-04T10:06:43.999Z</time></trkpt><trkpt lat="44.87118247278971" lon="9.40934449181888"><ele>563.0</ele><time>2026-04-04T10:06:44.999Z</time></trkpt><trkpt lat="44.87121414511063" lon="9.409247812104997"><ele>563.0</ele><time>2026-04-04T10:06:45.999Z</time></trkpt><trkpt lat="44.87125451967619" lon="9.409141671225312"><ele>563.0</ele><time>2026-04-04T10:06:46.999Z</time></trkpt><trkpt lat="44.8713056672317" lon="9.40904963541572"><ele>563.0</ele><time>2026-04-04T10:06:47.999Z</time></trkpt><trkpt lat="44.871371293644785" lon="9.408964432344423"><ele>563.0</ele><time>2026-04-04T10:06:48.999Z</time></trkpt><trkpt lat="44.87145032295885" lon="9.408904897055768"><ele>563.0</ele><time>2026-04-04T10:06:49.999Z</time></trkpt><trkpt lat="44.87152512254001" lon="9.408864805255357"><ele>563.6666666666666</ele><time>2026-04-04T10:06:51Z</time></trkpt><trkpt lat="44.871603257297856" lon="9.408822801975052"><ele>564.3333333333333</ele><time>2026-04-04T10:06:52Z</time></trkpt><trkpt lat="44.871672639910905" lon="9.408768378220625"><ele>565.0</ele><time>2026-04-04T10:06:53Z</time></trkpt><trkpt lat="44.87173915709465" lon="9.408743672978325"><ele>565.6666666666666</ele><time>2026-04-04T10:06:54Z</time></trkpt><trkpt lat="44.87180623716527" lon="9.408710676300975"><ele>566.3333333333334</ele><time>2026-04-04T10:06:55Z</time></trkpt><trkpt lat="44.87187464518364" lon="9.408667153919026"><ele>567.0</ele><time>2026-04-04T10:06:56Z</time></trkpt><trkpt lat="44.871940716623264" lon="9.408605580812441"><ele>567.0</ele><time>2026-04-04T10:06:57Z</time></trkpt><trkpt lat="44.87200942059494" lon="9.408527029607223"><ele>567.0</ele><time>2026-04-04T10:06:58Z</time></trkpt><trkpt lat="44.87207443249975" lon="9.408449418031035"><ele>567.0</ele><time>2026-04-04T10:06:59Z</time></trkpt><trkpt lat="44.87215769323979" lon="9.408372056915114"><ele>567.0</ele><time>2026-04-04T10:07:00Z</time></trkpt><trkpt lat="44.87223714741468" lon="9.408284971221356"><ele>567.0</ele><time>2026-04-04T10:07:01Z</time></trkpt><trkpt lat="44.87231173671618" lon="9.40818799031493"><ele>567.0</ele><time>2026-04-04T10:07:02Z</time></trkpt><trkpt lat="44.872379539318615" lon="9.408092024449468"><ele>567.0</ele><time>2026-04-04T10:07:03Z</time></trkpt><trkpt lat="44.872416453236326" lon="9.40799308595521"><ele>567.0</ele><time>2026-04-04T10:07:04Z</time></trkpt><trkpt lat="44.87246389950706" lon="9.407913416097726"><ele>567.0</ele><time>2026-04-04T10:07:05Z</time></trkpt><trkpt lat="44.872514170173204" lon="9.40784898096403"><ele>567.0</ele><time>2026-04-04T10:07:06Z</time></trkpt><trkpt lat="44.87256570875002" lon="9.407792837496057"><ele>567.0</ele><time>2026-04-04T10:07:07Z</time></trkpt><trkpt lat="44.872693601529605" lon="9.407683531778742"><ele>567.8571428571429</ele><time>2026-04-04T10:07:09Z</time></trkpt><trkpt lat="44.87274021828304" lon="9.40761641220961"><ele>568.7142857142858</ele><time>2026-04-04T10:07:10Z</time></trkpt><trkpt lat="44.872774020777186" lon="9.407541424221197"><ele>569.5714285714286</ele><time>2026-04-04T10:07:11Z</time></trkpt><trkpt lat="44.872791551720184" lon="9.407448964507862"><ele>570.4285714285714</ele><time>2026-04-04T10:07:12Z</time></trkpt><trkpt lat="44.87278669461867" lon="9.407347649949298"><ele>571.2857142857143</ele><time>2026-04-04T10:07:13Z</time></trkpt><trkpt lat="44.872730643819274" lon="9.407265707680658"><ele>572.1428571428571</ele><time>2026-04-04T10:07:14Z</time></trkpt><trkpt lat="44.87266878241684" lon="9.407195657093627"><ele>573.0</ele><time>2026-04-04T10:07:15Z</time></trkpt><trkpt lat="44.872628802021644" lon="9.407109577602712"><ele>573.6666666666666</ele><time>2026-04-04T10:07:16Z</time></trkpt><trkpt lat="44.87260620565097" lon="9.406915071057506"><ele>574.3333333333334</ele><time>2026-04-04T10:07:18Z</time></trkpt><trkpt lat="44.872597083918" lon="9.406794468843799"><ele>575.0</ele><time>2026-04-04T10:07:19Z</time></trkpt><trkpt lat="44.87261519975951" lon="9.40670250711962"><ele>575.6666666666667</ele><time>2026-04-04T10:07:20Z</time></trkpt><trkpt lat="44.87260781545638" lon="9.406596102985702"><ele>576.3333333333334</ele><time>2026-04-04T10:07:21Z</time></trkpt><trkpt lat="44.87262060854463" lon="9.406484609546586"><ele>577.0</ele><time>2026-04-04T10:07:22Z</time></trkpt><trkpt lat="44.87262806977826" lon="9.406352309704777"><ele>577.8333333333334</ele><time>2026-04-04T10:07:23Z</time></trkpt><trkpt lat="44.87263363803804" lon="9.406247261444117"><ele>578.6666666666667</ele><time>2026-04-04T10:07:24Z</time></trkpt><trkpt lat="44.87262873623042" lon="9.406154209605663"><ele>579.5</ele><time>2026-04-04T10:07:25Z</time></trkpt><trkpt lat="44.872604903281974" lon="9.405995577826502"><ele>580.3333333333334</ele><time>2026-04-04T10:07:27Z</time></trkpt><trkpt lat="44.87259270667972" lon="9.405907702203947"><ele>581.1666666666666</ele><time>2026-04-04T10:07:28Z</time></trkpt><trkpt lat="44.87259174221349" lon="9.405809934187232"><ele>582.0</ele><time>2026-04-04T10:07:29Z</time></trkpt><trkpt lat="44.87257199889524" lon="9.405709104259762"><ele>582.0</ele><time>2026-04-04T10:07:30Z</time></trkpt><trkpt lat="44.872622186310565" lon="9.405604604137249"><ele>582.0</ele><time>2026-04-04T10:07:31Z</time></trkpt><trkpt lat="44.872640384674035" lon="9.4054842148086"><ele>582.0</ele><time>2026-04-04T10:07:32Z</time></trkpt><trkpt lat="44.87264977769979" lon="9.40534779215974"><ele>582.0</ele><time>2026-04-04T10:07:33Z</time></trkpt><trkpt lat="44.872662005743315" lon="9.405245449148024"><ele>582.0</ele><time>2026-04-04T10:07:34Z</time></trkpt><trkpt lat="44.872687990054864" lon="9.405113770332761"><ele>582.0</ele><time>2026-04-04T10:07:36Z</time></trkpt><trkpt lat="44.87276741313838" lon="9.405026837856756"><ele>582.0</ele><time>2026-04-04T10:07:38Z</time></trkpt><trkpt lat="44.87284809565991" lon="9.405051302155705"><ele>582.0</ele><time>2026-04-04T10:07:40Z</time></trkpt><trkpt lat="44.87289821249568" lon="9.405148907233551"><ele>582.0</ele><time>2026-04-04T10:07:42Z</time></trkpt><trkpt lat="44.8728552915183" lon="9.405290375793253"><ele>582.0</ele><time>2026-04-04T10:07:44Z</time></trkpt><trkpt lat="44.8728632956524" lon="9.405441534131915"><ele>582.0</ele><time>2026-04-04T10:07:46Z</time></trkpt><trkpt lat="44.872878688804356" lon="9.405531565389849"><ele>582.0</ele><time>2026-04-04T10:07:47Z</time></trkpt><trkpt lat="44.8729181744378" lon="9.405616766551372"><ele>582.0</ele><time>2026-04-04T10:07:48Z</time></trkpt><trkpt lat="44.87295707559232" lon="9.40570929683701"><ele>582.0</ele><time>2026-04-04T10:07:49Z</time></trkpt><trkpt lat="44.87300428338275" lon="9.405786980467024"><ele>582.0</ele><time>2026-04-04T10:07:50Z</time></trkpt><trkpt lat="44.8730561062466" lon="9.405858256878377"><ele>582.0</ele><time>2026-04-04T10:07:51Z</time></trkpt><trkpt lat="44.87309781162488" lon="9.405928750627965"><ele>582.0</ele><time>2026-04-04T10:07:52Z</time></trkpt><trkpt lat="44.8731599398091" lon="9.406015368560745"><ele>582.0</ele><time>2026-04-04T10:07:54Z</time></trkpt><trkpt lat="44.87321234043119" lon="9.406142783034898"><ele>582.0</ele><time>2026-04-04T10:07:55.999Z</time></trkpt><trkpt lat="44.873281004711096" lon="9.40627364155669"><ele>582.0</ele><time>2026-04-04T10:07:57.999Z</time></trkpt><trkpt lat="44.87332640152355" lon="9.406336446731851"><ele>582.0</ele><time>2026-04-04T10:07:58.999Z</time></trkpt><trkpt lat="44.87338125865735" lon="9.406390711411682"><ele>582.0</ele><time>2026-04-04T10:07:59.999Z</time></trkpt><trkpt lat="44.87344194429511" lon="9.406421656704323"><ele>582.0</ele><time>2026-04-04T10:08:00.999Z</time></trkpt><trkpt lat="44.87350581062128" lon="9.406461557611449"><ele>582.0</ele><time>2026-04-04T10:08:01.999Z</time></trkpt><trkpt lat="44.8735766611746" lon="9.40646548906198"><ele>583.1666666666666</ele><time>2026-04-04T10:08:02.999Z</time></trkpt><trkpt lat="44.8736515492574" lon="9.406472983866207"><ele>584.3333333333334</ele><time>2026-04-04T10:08:03.999Z</time></trkpt><trkpt lat="44.87375967044558" lon="9.406538194557797"><ele>585.5</ele><time>2026-04-04T10:08:05.999Z</time></trkpt><trkpt lat="44.87381171076226" lon="9.406588680058952"><ele>586.6666666666667</ele><time>2026-04-04T10:08:06.999Z</time></trkpt><trkpt lat="44.87385122161914" lon="9.406666073425384"><ele>587.8333333333334</ele><time>2026-04-04T10:08:07.999Z</time></trkpt><trkpt lat="44.87388172557667" lon="9.406749418006482"><ele>589.0</ele><time>2026-04-04T10:08:08.999Z</time></trkpt><trkpt lat="44.873909257014134" lon="9.406845157356575"><ele>589.0</ele><time>2026-04-04T10:08:09.999Z</time></trkpt><trkpt lat="44.873911393293604" lon="9.406966510539897"><ele>589.0</ele><time>2026-04-04T10:08:10.999Z</time></trkpt><trkpt lat="44.873937991625056" lon="9.407090768637547"><ele>589.0</ele><time>2026-04-04T10:08:11.999Z</time></trkpt><trkpt lat="44.87396065696186" lon="9.407193919352206"><ele>589.0</ele><time>2026-04-04T10:08:12.999Z</time></trkpt><trkpt lat="44.87398571858274" lon="9.40731777034093"><ele>589.0</ele><time>2026-04-04T10:08:13.999Z</time></trkpt><trkpt lat="44.874017030103346" lon="9.407429469950461"><ele>589.0</ele><time>2026-04-04T10:08:14.999Z</time></trkpt><trkpt lat="44.87405505056748" lon="9.407548091019907"><ele>589.0</ele><time>2026-04-04T10:08:15.999Z</time></trkpt><trkpt lat="44.874089239140986" lon="9.407653570518471"><ele>589.0</ele><time>2026-04-04T10:08:16.999Z</time></trkpt><trkpt lat="44.87411828923884" lon="9.407778857778954"><ele>589.0</ele><time>2026-04-04T10:08:17.999Z</time></trkpt><trkpt lat="44.87415458424176" lon="9.407893553181388"><ele>589.0</ele><time>2026-04-04T10:08:18.999Z</time></trkpt><trkpt lat="44.87419234289271" lon="9.408006456707277"><ele>589.0</ele><time>2026-04-04T10:08:19.999Z</time></trkpt><trkpt lat="44.87422592221481" lon="9.408122185345274"><ele>589.0</ele><time>2026-04-04T10:08:20.999Z</time></trkpt><trkpt lat="44.87426021073513" lon="9.408256515053733"><ele>592.8333333333334</ele><time>2026-04-04T10:08:21.999Z</time></trkpt><trkpt lat="44.874302022287154" lon="9.408383792883665"><ele>596.6666666666667</ele><time>2026-04-04T10:08:22.999Z</time></trkpt><trkpt lat="44.87433174756668" lon="9.408476736899114"><ele>600.5</ele><time>2026-04-04T10:08:23.999Z</time></trkpt><trkpt lat="44.87433858416152" lon="9.40856729459377"><ele>604.3333333333334</ele><time>2026-04-04T10:08:24.999Z</time></trkpt><trkpt lat="44.874336938496434" lon="9.40866394111561"><ele>608.1666666666666</ele><time>2026-04-04T10:08:25.999Z</time></trkpt><trkpt lat="44.874323791062054" lon="9.408765627375118"><ele>612.0</ele><time>2026-04-04T10:08:26.999Z</time></trkpt><trkpt lat="44.87429850916195" lon="9.408892103046426"><ele>613.3333333333334</ele><time>2026-04-04T10:08:27.999Z</time></trkpt><trkpt lat="44.874273989589504" lon="9.409037002997538"><ele>614.6666666666666</ele><time>2026-04-04T10:08:28.999Z</time></trkpt><trkpt lat="44.87424589336574" lon="9.409152425423311"><ele>616.0</ele><time>2026-04-04T10:08:29.999Z</time></trkpt><trkpt lat="44.87422226525653" lon="9.409237192238892"><ele>617.3333333333333</ele><time>2026-04-04T10:08:30.999Z</time></trkpt><trkpt lat="44.874192123535494" lon="9.40938673988198"><ele>618.6666666666666</ele><time>2026-04-04T10:08:32.999Z</time></trkpt><trkpt lat="44.87417635974015" lon="9.409477399393953"><ele>620.0</ele><time>2026-04-04T10:08:33.999Z</time></trkpt><trkpt lat="44.87412591208875" lon="9.409638318726143"><ele>617.4</ele><time>2026-04-04T10:08:35.999Z</time></trkpt><trkpt lat="44.874077851627796" lon="9.409807391479855"><ele>614.8</ele><time>2026-04-04T10:08:37.999Z</time></trkpt><trkpt lat="44.87405877602377" lon="9.409894053509309"><ele>612.2</ele><time>2026-04-04T10:08:38.999Z</time></trkpt><trkpt lat="44.874043582674666" lon="9.410043128419087"><ele>609.6</ele><time>2026-04-04T10:08:40.999Z</time></trkpt><trkpt lat="44.87407987275337" lon="9.410168686448804"><ele>607.0</ele><time>2026-04-04T10:08:42.999Z</time></trkpt><trkpt lat="44.87416305520336" lon="9.410229656217446"><ele>607.0</ele><time>2026-04-04T10:08:44.999Z</time></trkpt><trkpt lat="44.87422830222155" lon="9.410247402786332"><ele>607.0</ele><time>2026-04-04T10:08:46.999Z</time></trkpt><trkpt lat="44.87429768799246" lon="9.410105381209249"><ele>607.0</ele><time>2026-04-04T10:08:47.999Z</time></trkpt><trkpt lat="44.8743428324551" lon="9.410010302927788"><ele>607.0</ele><time>2026-04-04T10:08:48.999Z</time></trkpt><trkpt lat="44.87438737768122" lon="9.409928880333636"><ele>607.0</ele><time>2026-04-04T10:08:49.999Z</time></trkpt><trkpt lat="44.87445560532519" lon="9.409871315252575"><ele>607.0</ele><time>2026-04-04T10:08:50.999Z</time></trkpt><trkpt lat="44.87452093647929" lon="9.40979116693528"><ele>609.6</ele><time>2026-04-04T10:08:51.999Z</time></trkpt><trkpt lat="44.87458847643713" lon="9.40968456912317"><ele>612.2</ele><time>2026-04-04T10:08:52.999Z</time></trkpt><trkpt lat="44.87467005537066" lon="9.409603785701034"><ele>614.8</ele><time>2026-04-04T10:08:53.999Z</time></trkpt><trkpt lat="44.874729550990885" lon="9.409517798718989"><ele>617.4</ele><time>2026-04-04T10:08:54.999Z</time></trkpt><trkpt lat="44.8748042947472" lon="9.409441546548829"><ele>620.0</ele><time>2026-04-04T10:08:55.999Z</time></trkpt><trkpt lat="44.87487165362471" lon="9.409347704571772"><ele>620.0</ele><time>2026-04-04T10:08:57Z</time></trkpt><trkpt lat="44.87494425714617" lon="9.40925200847189"><ele>620.0</ele><time>2026-04-04T10:08:58Z</time></trkpt><trkpt lat="44.87501127577242" lon="9.409156457336683"><ele>620.0</ele><time>2026-04-04T10:08:59Z</time></trkpt><trkpt lat="44.87507418461372" lon="9.40907159131954"><ele>620.0</ele><time>2026-04-04T10:09:00Z</time></trkpt><trkpt lat="44.875137644973556" lon="9.408980564169493"><ele>620.0</ele><time>2026-04-04T10:09:01Z</time></trkpt><trkpt lat="44.87519321562944" lon="9.408880781876585"><ele>620.8</ele><time>2026-04-04T10:09:02Z</time></trkpt><trkpt lat="44.87526043750505" lon="9.408801318630145"><ele>621.6</ele><time>2026-04-04T10:09:03Z</time></trkpt><trkpt lat="44.87531228285027" lon="9.408698212026694"><ele>622.4</ele><time>2026-04-04T10:09:04Z</time></trkpt><trkpt lat="44.875384891917435" lon="9.408640640874662"><ele>623.2</ele><time>2026-04-04T10:09:05Z</time></trkpt><trkpt lat="44.87550558156956" lon="9.408556533900827"><ele>624.0</ele><time>2026-04-04T10:09:07Z</time></trkpt><trkpt lat="44.875589115981796" lon="9.408535202996346"><ele>624.0</ele><time>2026-04-04T10:09:08Z</time></trkpt><trkpt lat="44.87565993569465" lon="9.408519540789491"><ele>624.0</ele><time>2026-04-04T10:09:09Z</time></trkpt><trkpt lat="44.87572916749311" lon="9.408538673489208"><ele>624.0</ele><time>2026-04-04T10:09:10Z</time></trkpt><trkpt lat="44.875787746577565" lon="9.408587472675407"><ele>624.0</ele><time>2026-04-04T10:09:11Z</time></trkpt><trkpt lat="44.87586654607728" lon="9.408632167136508"><ele>624.0</ele><time>2026-04-04T10:09:12Z</time></trkpt><trkpt lat="44.875969665490004" lon="9.40871409168635"><ele>624.0</ele><time>2026-04-04T10:09:14Z</time></trkpt><trkpt lat="44.87607643658015" lon="9.408778360980328"><ele>621.2</ele><time>2026-04-04T10:09:16Z</time></trkpt><trkpt lat="44.87612648048536" lon="9.408847227147055"><ele>618.4</ele><time>2026-04-04T10:09:17Z</time></trkpt><trkpt lat="44.876207793813045" lon="9.408939925660532"><ele>615.6</ele><time>2026-04-04T10:09:19Z</time></trkpt><trkpt lat="44.87628643038268" lon="9.409044498546033"><ele>612.8</ele><time>2026-04-04T10:09:21Z</time></trkpt><trkpt lat="44.87637126320452" lon="9.409137506009216"><ele>610.0</ele><time>2026-04-04T10:09:23Z</time></trkpt><trkpt lat="44.87645889125668" lon="9.409258389378016"><ele>610.0</ele><time>2026-04-04T10:09:25Z</time></trkpt><trkpt lat="44.87649933793566" lon="9.40935724706928"><ele>610.0</ele><time>2026-04-04T10:09:26Z</time></trkpt><trkpt lat="44.876543259711006" lon="9.409431230592698"><ele>610.0</ele><time>2026-04-04T10:09:27Z</time></trkpt><trkpt lat="44.876640285503555" lon="9.409552552849881"><ele>610.0</ele><time>2026-04-04T10:09:29Z</time></trkpt><trkpt lat="44.87668946135051" lon="9.409619948222534"><ele>610.0</ele><time>2026-04-04T10:09:30Z</time></trkpt><trkpt lat="44.87674946790595" lon="9.40969708479485"><ele>610.0</ele><time>2026-04-04T10:09:31Z</time></trkpt><trkpt lat="44.87681267429477" lon="9.4097497941784"><ele>605.0</ele><time>2026-04-04T10:09:32Z</time></trkpt><trkpt lat="44.87690415509782" lon="9.409899178453816"><ele>600.0</ele><time>2026-04-04T10:09:34Z</time></trkpt><trkpt lat="44.87696937563847" lon="9.409995335339243"><ele>595.0</ele><time>2026-04-04T10:09:35Z</time></trkpt><trkpt lat="44.87702836974703" lon="9.410095198446562"><ele>590.0</ele><time>2026-04-04T10:09:36Z</time></trkpt><trkpt lat="44.87708155220862" lon="9.410191794571324"><ele>585.0</ele><time>2026-04-04T10:09:37Z</time></trkpt><trkpt lat="44.87712398453511" lon="9.41027461469066"><ele>585.0</ele><time>2026-04-04T10:09:38Z</time></trkpt><trkpt lat="44.87716510564974" lon="9.410359949790916"><ele>585.0</ele><time>2026-04-04T10:09:39Z</time></trkpt><trkpt lat="44.87720796486573" lon="9.410436590160213"><ele>585.0</ele><time>2026-04-04T10:09:40Z</time></trkpt><trkpt lat="44.87723317176767" lon="9.410529340534637"><ele>585.0</ele><time>2026-04-04T10:09:41Z</time></trkpt><trkpt lat="44.87730167521963" lon="9.410668399027944"><ele>585.0</ele><time>2026-04-04T10:09:43Z</time></trkpt><trkpt lat="44.87732401547124" lon="9.410766382759453"><ele>585.0</ele><time>2026-04-04T10:09:44Z</time></trkpt><trkpt lat="44.87735972335205" lon="9.410858975945036"><ele>585.2</ele><time>2026-04-04T10:09:45Z</time></trkpt><trkpt lat="44.877410490852085" lon="9.410956569085272"><ele>585.4</ele><time>2026-04-04T10:09:46Z</time></trkpt><trkpt lat="44.87747339295927" lon="9.411053902655818"><ele>585.6</ele><time>2026-04-04T10:09:47Z</time></trkpt><trkpt lat="44.87754562826443" lon="9.411140376113242"><ele>585.8</ele><time>2026-04-04T10:09:48Z</time></trkpt><trkpt lat="44.877609965345144" lon="9.411232532324679"><ele>586.0</ele><time>2026-04-04T10:09:49Z</time></trkpt><trkpt lat="44.87767740574413" lon="9.411332951075073"><ele>586.0</ele><time>2026-04-04T10:09:50Z</time></trkpt><trkpt lat="44.87774877560905" lon="9.41142198837674"><ele>586.0</ele><time>2026-04-04T10:09:51Z</time></trkpt><trkpt lat="44.87781370259918" lon="9.411496573990128"><ele>586.0</ele><time>2026-04-04T10:09:52Z</time></trkpt><trkpt lat="44.877871283347034" lon="9.411571106373035"><ele>586.0</ele><time>2026-04-04T10:09:53Z</time></trkpt><trkpt lat="44.8779412688475" lon="9.411638158366562"><ele>586.0</ele><time>2026-04-04T10:09:54Z</time></trkpt><trkpt lat="44.87802362589897" lon="9.411691864860682"><ele>586.0</ele><time>2026-04-04T10:09:55Z</time></trkpt><trkpt lat="44.87808389057381" lon="9.41176072788046"><ele>586.0</ele><time>2026-04-04T10:09:56Z</time></trkpt><trkpt lat="44.87814594205533" lon="9.411807178923164"><ele>586.0</ele><time>2026-04-04T10:09:57Z</time></trkpt><trkpt lat="44.87824245549612" lon="9.411916641678866"><ele>586.0</ele><time>2026-04-04T10:09:59Z</time></trkpt><trkpt lat="44.87832686142508" lon="9.4120346558305"><ele>586.0</ele><time>2026-04-04T10:10:01Z</time></trkpt><trkpt lat="44.87836684414416" lon="9.412106525325573"><ele>586.0</ele><time>2026-04-04T10:10:02Z</time></trkpt><trkpt lat="44.87840697941948" lon="9.412204430132952"><ele>582.8333333333334</ele><time>2026-04-04T10:10:03Z</time></trkpt><trkpt lat="44.87844043252065" lon="9.412310643691368"><ele>579.6666666666667</ele><time>2026-04-04T10:10:04Z</time></trkpt><trkpt lat="44.878464209594874" lon="9.412403443761056"><ele>576.5</ele><time>2026-04-04T10:10:05Z</time></trkpt><trkpt lat="44.878487857677314" lon="9.412561556785018"><ele>573.3333333333334</ele><time>2026-04-04T10:10:06.999Z</time></trkpt><trkpt lat="44.87852694683447" lon="9.412661010087257"><ele>570.1666666666666</ele><time>2026-04-04T10:10:08.999Z</time></trkpt><trkpt lat="44.878560629096725" lon="9.412778561182309"><ele>567.0</ele><time>2026-04-04T10:10:10.999Z</time></trkpt><trkpt lat="44.87857476413726" lon="9.412936202683065"><ele>566.6</ele><time>2026-04-04T10:10:12.999Z</time></trkpt><trkpt lat="44.87854396049904" lon="9.413094208204186"><ele>566.2</ele><time>2026-04-04T10:10:14.999Z</time></trkpt><trkpt lat="44.87848161387115" lon="9.41319620545504"><ele>565.8</ele><time>2026-04-04T10:10:15.999Z</time></trkpt><trkpt lat="44.87843117213061" lon="9.413282449748742"><ele>565.4</ele><time>2026-04-04T10:10:16.999Z</time></trkpt><trkpt lat="44.878345401282104" lon="9.413383688852514"><ele>565.0</ele><time>2026-04-04T10:10:17.999Z</time></trkpt><trkpt lat="44.87827948016058" lon="9.413480287778805"><ele>565.8</ele><time>2026-04-04T10:10:18.999Z</time></trkpt><trkpt lat="44.878223079110406" lon="9.41357989847024"><ele>566.6</ele><time>2026-04-04T10:10:19.999Z</time></trkpt><trkpt lat="44.87814797589243" lon="9.413691688915899"><ele>567.4</ele><time>2026-04-04T10:10:20.999Z</time></trkpt><trkpt lat="44.878069159000425" lon="9.413813393715246"><ele>568.2</ele><time>2026-04-04T10:10:21.999Z</time></trkpt><trkpt lat="44.87800118921605" lon="9.413930243707826"><ele>569.0</ele><time>2026-04-04T10:10:22.999Z</time></trkpt><trkpt lat="44.8779425082476" lon="9.414068760656424"><ele>569.0</ele><time>2026-04-04T10:10:23.999Z</time></trkpt><trkpt lat="44.877901628703995" lon="9.414197215517964"><ele>569.0</ele><time>2026-04-04T10:10:24.999Z</time></trkpt><trkpt lat="44.87786825843586" lon="9.414314697645972"><ele>569.0</ele><time>2026-04-04T10:10:25.999Z</time></trkpt><trkpt lat="44.87784115977133" lon="9.414423146918583"><ele>569.0</ele><time>2026-04-04T10:10:26.999Z</time></trkpt><trkpt lat="44.87781867315702" lon="9.414522647736616"><ele>569.0</ele><time>2026-04-04T10:10:27.999Z</time></trkpt><trkpt lat="44.877862320164354" lon="9.414704821165454"><ele>567.0</ele><time>2026-04-04T10:10:29.999Z</time></trkpt><trkpt lat="44.877922301125025" lon="9.414768529387795"><ele>565.0</ele><time>2026-04-04T10:10:30.999Z</time></trkpt><trkpt lat="44.87799833523486" lon="9.414820456589165"><ele>563.0</ele><time>2026-04-04T10:10:31.999Z</time></trkpt><trkpt lat="44.87808369332403" lon="9.414829676266834"><ele>561.0</ele><time>2026-04-04T10:10:32.999Z</time></trkpt><trkpt lat="44.87818054192412" lon="9.41482753109147"><ele>559.0</ele><time>2026-04-04T10:10:33.999Z</time></trkpt><trkpt lat="44.87828731770093" lon="9.414789085253497"><ele>559.0</ele><time>2026-04-04T10:10:34.999Z</time></trkpt><trkpt lat="44.87839617208946" lon="9.414730659628207"><ele>559.0</ele><time>2026-04-04T10:10:35.999Z</time></trkpt><trkpt lat="44.878500931941765" lon="9.414665565481355"><ele>559.0</ele><time>2026-04-04T10:10:36.999Z</time></trkpt><trkpt lat="44.87860321298939" lon="9.414659667676208"><ele>559.0</ele><time>2026-04-04T10:10:37.999Z</time></trkpt><trkpt lat="44.87868297000372" lon="9.414648033255238"><ele>559.0</ele><time>2026-04-04T10:10:38.999Z</time></trkpt><trkpt lat="44.878766826871605" lon="9.414638949426351"><ele>557.8333333333334</ele><time>2026-04-04T10:10:39.999Z</time></trkpt><trkpt lat="44.87884787306588" lon="9.414658876795938"><ele>556.6666666666667</ele><time>2026-04-04T10:10:40.999Z</time></trkpt><trkpt lat="44.87891689750725" lon="9.414688964933159"><ele>555.5</ele><time>2026-04-04T10:10:41.999Z</time></trkpt><trkpt lat="44.87898575475221" lon="9.414710877832773"><ele>554.3333333333334</ele><time>2026-04-04T10:10:42.999Z</time></trkpt><trkpt lat="44.87904963898799" lon="9.414727706563417"><ele>553.1666666666666</ele><time>2026-04-04T10:10:43.999Z</time></trkpt><trkpt lat="44.87914607023958" lon="9.41475533272563"><ele>552.0</ele><time>2026-04-04T10:10:44.999Z</time></trkpt><trkpt lat="44.87925721165108" lon="9.41478323925905"><ele>550.2</ele><time>2026-04-04T10:10:45.999Z</time></trkpt><trkpt lat="44.87936739285982" lon="9.414801381172104"><ele>548.4000000000001</ele><time>2026-04-04T10:10:46.999Z</time></trkpt><trkpt lat="44.879462812482274" lon="9.414815722387235"><ele>546.5999999999999</ele><time>2026-04-04T10:10:47.999Z</time></trkpt><trkpt lat="44.879538346817064" lon="9.414815352771207"><ele>544.8</ele><time>2026-04-04T10:10:48.999Z</time></trkpt><trkpt lat="44.879640498377064" lon="9.414808839172899"><ele>543.0</ele><time>2026-04-04T10:10:49.999Z</time></trkpt><trkpt lat="44.879727969264664" lon="9.414778416995338"><ele>543.0</ele><time>2026-04-04T10:10:50.999Z</time></trkpt><trkpt lat="44.87981516454163" lon="9.414761125896224"><ele>543.0</ele><time>2026-04-04T10:10:51.999Z</time></trkpt><trkpt lat="44.87988476212787" lon="9.414744557386307"><ele>543.0</ele><time>2026-04-04T10:10:52.999Z</time></trkpt><trkpt lat="44.879966033791426" lon="9.414730884740727"><ele>543.0</ele><time>2026-04-04T10:10:53.999Z</time></trkpt><trkpt lat="44.88004517247937" lon="9.41471015182083"><ele>543.0</ele><time>2026-04-04T10:10:54.999Z</time></trkpt><trkpt lat="44.88011217408657" lon="9.414691632469498"><ele>543.0</ele><time>2026-04-04T10:10:55.999Z</time></trkpt><trkpt lat="44.88018657142349" lon="9.414680850131088"><ele>541.6666666666666</ele><time>2026-04-04T10:10:56.999Z</time></trkpt><trkpt lat="44.880248177019745" lon="9.41466084962727"><ele>540.3333333333334</ele><time>2026-04-04T10:10:57.999Z</time></trkpt><trkpt lat="44.8803273299104" lon="9.414628234048877"><ele>539.0</ele><time>2026-04-04T10:10:58.999Z</time></trkpt><trkpt lat="44.88039757701624" lon="9.414613659629422"><ele>537.6666666666667</ele><time>2026-04-04T10:10:59.999Z</time></trkpt><trkpt lat="44.880461576507535" lon="9.414546746296363"><ele>536.3333333333334</ele><time>2026-04-04T10:11:00.999Z</time></trkpt><trkpt lat="44.88053810297255" lon="9.414496662367586"><ele>535.0</ele><time>2026-04-04T10:11:01.999Z</time></trkpt><trkpt lat="44.880602209354294" lon="9.414446755473778"><ele>535.0</ele><time>2026-04-04T10:11:03Z</time></trkpt><trkpt lat="44.88066488821824" lon="9.414409654839204"><ele>535.0</ele><time>2026-04-04T10:11:04Z</time></trkpt><trkpt lat="44.88075848419136" lon="9.414367758733144"><ele>535.0</ele><time>2026-04-04T10:11:06Z</time></trkpt><trkpt lat="44.88085558182705" lon="9.414346865956231"><ele>535.0</ele><time>2026-04-04T10:11:08Z</time></trkpt><trkpt lat="44.8809678861502" lon="9.414355041641224"><ele>535.0</ele><time>2026-04-04T10:11:10Z</time></trkpt><trkpt lat="44.88105411980298" lon="9.414381147508397"><ele>533.1428571428571</ele><time>2026-04-04T10:11:11Z</time></trkpt><trkpt lat="44.8811312192576" lon="9.414416982348873"><ele>531.2857142857143</ele><time>2026-04-04T10:11:12Z</time></trkpt><trkpt lat="44.88119467857224" lon="9.414453073946882"><ele>529.4285714285714</ele><time>2026-04-04T10:11:13Z</time></trkpt><trkpt lat="44.88126408340334" lon="9.414482223629495"><ele>527.5714285714286</ele><time>2026-04-04T10:11:14Z</time></trkpt><trkpt lat="44.88133829758647" lon="9.414496431259987"><ele>525.7142857142857</ele><time>2026-04-04T10:11:15Z</time></trkpt><trkpt lat="44.881414864052516" lon="9.414506871562947"><ele>523.8571428571429</ele><time>2026-04-04T10:11:16Z</time></trkpt><trkpt lat="44.88148717622505" lon="9.414494903182733"><ele>522.0</ele><time>2026-04-04T10:11:17Z</time></trkpt><trkpt lat="44.88155983218478" lon="9.4144765781865"><ele>522.0</ele><time>2026-04-04T10:11:18Z</time></trkpt><trkpt lat="44.88165872149593" lon="9.414460145914346"><ele>522.0</ele><time>2026-04-04T10:11:19Z</time></trkpt><trkpt lat="44.88174467770697" lon="9.41443840133709"><ele>522.0</ele><time>2026-04-04T10:11:20Z</time></trkpt><trkpt lat="44.88181906541321" lon="9.414418367396925"><ele>522.0</ele><time>2026-04-04T10:11:21Z</time></trkpt><trkpt lat="44.8819048282298" lon="9.414421361618057"><ele>522.0</ele><time>2026-04-04T10:11:22Z</time></trkpt><trkpt lat="44.88199602664921" lon="9.41442675954643"><ele>522.0</ele><time>2026-04-04T10:11:23Z</time></trkpt><trkpt lat="44.88207818839415" lon="9.414464611571"><ele>519.8000000000001</ele><time>2026-04-04T10:11:24Z</time></trkpt><trkpt lat="44.882174270310486" lon="9.414490639760958"><ele>517.6</ele><time>2026-04-04T10:11:25Z</time></trkpt><trkpt lat="44.88224563223106" lon="9.414521242257308"><ele>515.4000000000001</ele><time>2026-04-04T10:11:26Z</time></trkpt><trkpt lat="44.88231629625058" lon="9.414531448846168"><ele>513.2</ele><time>2026-04-04T10:11:27Z</time></trkpt><trkpt lat="44.88242912907832" lon="9.414501933269767"><ele>511.0</ele><time>2026-04-04T10:11:29Z</time></trkpt><trkpt lat="44.88251909084061" lon="9.414418115223251"><ele>509.20000000000005</ele><time>2026-04-04T10:11:31Z</time></trkpt><trkpt lat="44.882610712414966" lon="9.41438831019346"><ele>507.40000000000003</ele><time>2026-04-04T10:11:33Z</time></trkpt><trkpt lat="44.88270855890632" lon="9.414426059520817"><ele>505.6</ele><time>2026-04-04T10:11:35Z</time></trkpt><trkpt lat="44.882797053573974" lon="9.414545282383605"><ele>503.8</ele><time>2026-04-04T10:11:37Z</time></trkpt><trkpt lat="44.88284055890675" lon="9.414685929949894"><ele>502.0</ele><time>2026-04-04T10:11:39Z</time></trkpt><trkpt lat="44.88291932206505" lon="9.414841341406358"><ele>501.99999999999994</ele><time>2026-04-04T10:11:41Z</time></trkpt><trkpt lat="44.882974540122184" lon="9.414909965073164"><ele>502.0</ele><time>2026-04-04T10:11:42Z</time></trkpt><trkpt lat="44.883041491303544" lon="9.414969840071043"><ele>501.99999999999994</ele><time>2026-04-04T10:11:43Z</time></trkpt><trkpt lat="44.88310344357038" lon="9.41501661595536"><ele>501.99999999999994</ele><time>2026-04-04T10:11:44Z</time></trkpt><trkpt lat="44.88317124759405" lon="9.415063054851446"><ele>502.0</ele><time>2026-04-04T10:11:45Z</time></trkpt><trkpt lat="44.88323377081712" lon="9.415093838130865"><ele>501.99999999999994</ele><time>2026-04-04T10:11:46Z</time></trkpt><trkpt lat="44.883303654680056" lon="9.415105970898102"><ele>501.99999999999994</ele><time>2026-04-04T10:11:47Z</time></trkpt><trkpt lat="44.883370143802395" lon="9.415097262230503"><ele>499.33333333333337</ele><time>2026-04-04T10:11:48Z</time></trkpt><trkpt lat="44.88349016734254" lon="9.41505369595558"><ele>496.6666666666667</ele><time>2026-04-04T10:11:50Z</time></trkpt><trkpt lat="44.88355798703736" lon="9.41501081084338"><ele>494.0</ele><time>2026-04-04T10:11:51Z</time></trkpt><trkpt lat="44.883617465695266" lon="9.414972365042045"><ele>491.33333333333337</ele><time>2026-04-04T10:11:52Z</time></trkpt><trkpt lat="44.883681359570076" lon="9.414924209770795"><ele>488.6666666666667</ele><time>2026-04-04T10:11:53Z</time></trkpt><trkpt lat="44.88375390148776" lon="9.414876077629536"><ele>486.0</ele><time>2026-04-04T10:11:54Z</time></trkpt><trkpt lat="44.88381909426205" lon="9.414831474313937"><ele>486.0</ele><time>2026-04-04T10:11:55Z</time></trkpt><trkpt lat="44.88387875656749" lon="9.414785726652404"><ele>486.0</ele><time>2026-04-04T10:11:56Z</time></trkpt><trkpt lat="44.88397943200613" lon="9.414702009842115"><ele>486.0</ele><time>2026-04-04T10:11:58Z</time></trkpt><trkpt lat="44.88407493046344" lon="9.414613281390988"><ele>486.0</ele><time>2026-04-04T10:12:00Z</time></trkpt><trkpt lat="44.88414725642928" lon="9.414488240352199"><ele>486.0</ele><time>2026-04-04T10:12:02Z</time></trkpt><trkpt lat="44.88420748343115" lon="9.41435534618196"><ele>485.6</ele><time>2026-04-04T10:12:04Z</time></trkpt><trkpt lat="44.884255420319604" lon="9.414208765955102"><ele>485.20000000000005</ele><time>2026-04-04T10:12:06Z</time></trkpt><trkpt lat="44.884300160332636" lon="9.414065761123235"><ele>484.79999999999995</ele><time>2026-04-04T10:12:08Z</time></trkpt><trkpt lat="44.88432621467503" lon="9.413982136353024"><ele>484.4</ele><time>2026-04-04T10:12:08.999Z</time></trkpt><trkpt lat="44.88434322080008" lon="9.413891039328863"><ele>484.0</ele><time>2026-04-04T10:12:09.999Z</time></trkpt><trkpt lat="44.88436668320736" lon="9.413745332605782"><ele>480.6</ele><time>2026-04-04T10:12:11.999Z</time></trkpt><trkpt lat="44.88438454219924" lon="9.413613128360163"><ele>477.2</ele><time>2026-04-04T10:12:13.999Z</time></trkpt><trkpt lat="44.88446208058766" lon="9.413528641775958"><ele>473.80000000000007</ele><time>2026-04-04T10:12:15.999Z</time></trkpt><trkpt lat="44.88458184060741" lon="9.413505194653759"><ele>470.40000000000003</ele><time>2026-04-04T10:12:17.999Z</time></trkpt><trkpt lat="44.88465045149272" lon="9.413506458347566"><ele>467.0</ele><time>2026-04-04T10:12:18.999Z</time></trkpt><trkpt lat="44.88472965893791" lon="9.413502122047536"><ele>466.99999999999994</ele><time>2026-04-04T10:12:19.999Z</time></trkpt><trkpt lat="44.88480539728146" lon="9.413499272472404"><ele>467.0</ele><time>2026-04-04T10:12:20.999Z</time></trkpt><trkpt lat="44.88487290810141" lon="9.413480872660136"><ele>467.0</ele><time>2026-04-04T10:12:21.999Z</time></trkpt><trkpt lat="44.88493271345391" lon="9.413452912981802"><ele>467.0</ele><time>2026-04-04T10:12:22.999Z</time></trkpt><trkpt lat="44.885021704176204" lon="9.413409606499952"><ele>466.99999999999994</ele><time>2026-04-04T10:12:24.999Z</time></trkpt><trkpt lat="44.88510976459145" lon="9.413455779064895"><ele>467.0</ele><time>2026-04-04T10:12:26.999Z</time></trkpt><trkpt lat="44.8851920975033" lon="9.413549726798994"><ele>464.0</ele><time>2026-04-04T10:12:28.999Z</time></trkpt><trkpt lat="44.88525615522797" lon="9.41370501874995"><ele>461.0</ele><time>2026-04-04T10:12:30.999Z</time></trkpt><trkpt lat="44.88527458348295" lon="9.413830394333205"><ele>458.0</ele><time>2026-04-04T10:12:31.999Z</time></trkpt><trkpt lat="44.88527976442094" lon="9.41399719961533"><ele>455.0</ele><time>2026-04-04T10:12:32.999Z</time></trkpt><trkpt lat="44.88527522369552" lon="9.414174896992792"><ele>454.6</ele><time>2026-04-04T10:12:33.999Z</time></trkpt><trkpt lat="44.88527704865573" lon="9.414353139032924"><ele>454.2</ele><time>2026-04-04T10:12:34.999Z</time></trkpt><trkpt lat="44.88527840959252" lon="9.414494539655616"><ele>453.79999999999995</ele><time>2026-04-04T10:12:35.999Z</time></trkpt><trkpt lat="44.88527429331294" lon="9.414622124030906"><ele>453.4</ele><time>2026-04-04T10:12:36.999Z</time></trkpt><trkpt lat="44.885272002465825" lon="9.414712958574178"><ele>453.0</ele><time>2026-04-04T10:12:37.999Z</time></trkpt><trkpt lat="44.88531808384967" lon="9.414815673667269"><ele>452.0</ele><time>2026-04-04T10:12:39.999Z</time></trkpt><trkpt lat="44.88541299659804" lon="9.41494305470199"><ele>450.99999999999994</ele><time>2026-04-04T10:12:41.999Z</time></trkpt><trkpt lat="44.88549823564238" lon="9.414989478660846"><ele>449.99999999999994</ele><time>2026-04-04T10:12:42.999Z</time></trkpt><trkpt lat="44.88558283805725" lon="9.41502014668526"><ele>449.0</ele><time>2026-04-04T10:12:43.999Z</time></trkpt><trkpt lat="44.88565861570486" lon="9.415056657881516"><ele>448.0</ele><time>2026-04-04T10:12:44.999Z</time></trkpt><trkpt lat="44.88573163131626" lon="9.415105704266814"><ele>448.00000000000006</ele><time>2026-04-04T10:12:45.999Z</time></trkpt><trkpt lat="44.885795708390766" lon="9.415141654354828"><ele>448.0</ele><time>2026-04-04T10:12:46.999Z</time></trkpt><trkpt lat="44.88585667979238" lon="9.41518351346596"><ele>448.0</ele><time>2026-04-04T10:12:47.999Z</time></trkpt><trkpt lat="44.88595092471675" lon="9.415247811454623"><ele>448.0</ele><time>2026-04-04T10:12:49.999Z</time></trkpt><trkpt lat="44.886045318988415" lon="9.415276470638181"><ele>448.00000000000006</ele><time>2026-04-04T10:12:51.999Z</time></trkpt><trkpt lat="44.88613837409614" lon="9.415282331012971"><ele>448.0</ele><time>2026-04-04T10:12:53.999Z</time></trkpt><trkpt lat="44.886231717257736" lon="9.41528198323571"><ele>445.33333333333337</ele><time>2026-04-04T10:12:55.999Z</time></trkpt><trkpt lat="44.88631036781451" lon="9.415291777062302"><ele>442.6666666666667</ele><time>2026-04-04T10:12:57.999Z</time></trkpt><trkpt lat="44.88639834467267" lon="9.415317772759373"><ele>440.0</ele><time>2026-04-04T10:12:59.999Z</time></trkpt><trkpt lat="44.88646161677597" lon="9.415380106181914"><ele>437.33333333333337</ele><time>2026-04-04T10:13:01.999Z</time></trkpt><trkpt lat="44.886468918712495" lon="9.415528791583663"><ele>434.6666666666667</ele><time>2026-04-04T10:13:03.999Z</time></trkpt><trkpt lat="44.88642808990465" lon="9.415652264214303"><ele>432.0</ele><time>2026-04-04T10:13:05.999Z</time></trkpt><trkpt lat="44.88636332576663" lon="9.415800628557877"><ele>430.8</ele><time>2026-04-04T10:13:07.999Z</time></trkpt><trkpt lat="44.886308685541685" lon="9.415915127689912"><ele>429.6</ele><time>2026-04-04T10:13:09Z</time></trkpt><trkpt lat="44.88623873865677" lon="9.416036541436625"><ele>428.40000000000003</ele><time>2026-04-04T10:13:10Z</time></trkpt><trkpt lat="44.88617602776277" lon="9.41613698455879"><ele>427.20000000000005</ele><time>2026-04-04T10:13:11Z</time></trkpt><trkpt lat="44.886128450949194" lon="9.416216184874534"><ele>426.0</ele><time>2026-04-04T10:13:12Z</time></trkpt><trkpt lat="44.886050242907864" lon="9.416345896530162"><ele>424.3333333333333</ele><time>2026-04-04T10:13:14Z</time></trkpt><trkpt lat="44.886018387001336" lon="9.416425583144092"><ele>422.66666666666663</ele><time>2026-04-04T10:13:15Z</time></trkpt><trkpt lat="44.885990965602204" lon="9.416532104402712"><ele>421.0</ele><time>2026-04-04T10:13:16Z</time></trkpt><trkpt lat="44.88595828893047" lon="9.416668900780081"><ele>419.3333333333333</ele><time>2026-04-04T10:13:17Z</time></trkpt><trkpt lat="44.88595069176467" lon="9.416803492156982"><ele>417.66666666666663</ele><time>2026-04-04T10:13:18Z</time></trkpt><trkpt lat="44.8859470304667" lon="9.416938180227454"><ele>416.0</ele><time>2026-04-04T10:13:19Z</time></trkpt><trkpt lat="44.88593987071395" lon="9.417047628588348"><ele>417.6</ele><time>2026-04-04T10:13:20Z</time></trkpt><trkpt lat="44.88588499751643" lon="9.417197167923476"><ele>419.20000000000005</ele><time>2026-04-04T10:13:22Z</time></trkpt><trkpt lat="44.885818878826754" lon="9.417210269825361"><ele>420.79999999999995</ele><time>2026-04-04T10:13:23Z</time></trkpt><trkpt lat="44.885743464216986" lon="9.417242190801028"><ele>422.4</ele><time>2026-04-04T10:13:24Z</time></trkpt><trkpt lat="44.885649811470344" lon="9.41728151001807"><ele>424.0</ele><time>2026-04-04T10:13:25Z</time></trkpt><trkpt lat="44.885544873713044" lon="9.417331334323373"><ele>424.0</ele><time>2026-04-04T10:13:26Z</time></trkpt><trkpt lat="44.885433896647626" lon="9.417384247622362"><ele>424.0</ele><time>2026-04-04T10:13:27Z</time></trkpt><trkpt lat="44.885326961495196" lon="9.417435602560296"><ele>424.0</ele><time>2026-04-04T10:13:28Z</time></trkpt><trkpt lat="44.88522939083557" lon="9.41748739865804"><ele>424.0</ele><time>2026-04-04T10:13:29Z</time></trkpt><trkpt lat="44.88515738554724" lon="9.417543974330085"><ele>424.0</ele><time>2026-04-04T10:13:30Z</time></trkpt><trkpt lat="44.885092288666044" lon="9.41762628528723"><ele>425.4</ele><time>2026-04-04T10:13:31Z</time></trkpt><trkpt lat="44.885032081866065" lon="9.417739686724085"><ele>426.79999999999995</ele><time>2026-04-04T10:13:32Z</time></trkpt><trkpt lat="44.88498599101897" lon="9.417838795858744"><ele>428.20000000000005</ele><time>2026-04-04T10:13:33Z</time></trkpt><trkpt lat="44.884927682266245" lon="9.417929637247727"><ele>429.6</ele><time>2026-04-04T10:13:34Z</time></trkpt><trkpt lat="44.88485360953515" lon="9.418001651229746"><ele>431.0</ele><time>2026-04-04T10:13:35Z</time></trkpt><trkpt lat="44.88476147698657" lon="9.418070192592817"><ele>431.0</ele><time>2026-04-04T10:13:36Z</time></trkpt><trkpt lat="44.88465675262586" lon="9.418142400971389"><ele>431.0</ele><time>2026-04-04T10:13:37Z</time></trkpt><trkpt lat="44.884550890208956" lon="9.418227851863762"><ele>431.0</ele><time>2026-04-04T10:13:38Z</time></trkpt><trkpt lat="44.88445976724805" lon="9.418343028000976"><ele>431.0</ele><time>2026-04-04T10:13:39Z</time></trkpt><trkpt lat="44.884407842774586" lon="9.418465918903072"><ele>431.0</ele><time>2026-04-04T10:13:40Z</time></trkpt><trkpt lat="44.884352821483645" lon="9.418554836379347"><ele>431.0</ele><time>2026-04-04T10:13:41Z</time></trkpt><trkpt lat="44.8842842555591" lon="9.418635499831053"><ele>431.0</ele><time>2026-04-04T10:13:42Z</time></trkpt><trkpt lat="44.88420435102859" lon="9.418725447501844"><ele>431.0</ele><time>2026-04-04T10:13:43Z</time></trkpt><trkpt lat="44.88411983372213" lon="9.418810685332156"><ele>431.0</ele><time>2026-04-04T10:13:44Z</time></trkpt><trkpt lat="44.8840107020922" lon="9.418891780510812"><ele>431.6</ele><time>2026-04-04T10:13:45Z</time></trkpt><trkpt lat="44.883907918574266" lon="9.418945328469395"><ele>432.20000000000005</ele><time>2026-04-04T10:13:46Z</time></trkpt><trkpt lat="44.883836312145775" lon="9.419022089071518"><ele>432.79999999999995</ele><time>2026-04-04T10:13:47Z</time></trkpt><trkpt lat="44.88375239282531" lon="9.419086642698407"><ele>433.4</ele><time>2026-04-04T10:13:48Z</time></trkpt><trkpt lat="44.883647523778734" lon="9.419166289909358"><ele>434.0</ele><time>2026-04-04T10:13:49Z</time></trkpt><trkpt lat="44.88355570152945" lon="9.419279897173135"><ele>434.0</ele><time>2026-04-04T10:13:50Z</time></trkpt><trkpt lat="44.883491827671655" lon="9.419370016332039"><ele>434.0</ele><time>2026-04-04T10:13:51Z</time></trkpt><trkpt lat="44.88344612066569" lon="9.419477453018455"><ele>434.0</ele><time>2026-04-04T10:13:52Z</time></trkpt><trkpt lat="44.88338821166369" lon="9.41956341402403"><ele>434.0</ele><time>2026-04-04T10:13:53Z</time></trkpt><trkpt lat="44.88333713742732" lon="9.419670587698599"><ele>434.0</ele><time>2026-04-04T10:13:54Z</time></trkpt><trkpt lat="44.883294667061634" lon="9.419791194942853"><ele>435.3333333333333</ele><time>2026-04-04T10:13:55Z</time></trkpt><trkpt lat="44.88324642147053" lon="9.41990780070778"><ele>436.66666666666663</ele><time>2026-04-04T10:13:56Z</time></trkpt><trkpt lat="44.8831971808844" lon="9.420010204674908"><ele>438.0</ele><time>2026-04-04T10:13:57Z</time></trkpt><trkpt lat="44.88314664767405" lon="9.420124164500356"><ele>439.33333333333337</ele><time>2026-04-04T10:13:58Z</time></trkpt><trkpt lat="44.88310514601612" lon="9.420210220762993"><ele>440.6666666666667</ele><time>2026-04-04T10:13:59Z</time></trkpt><trkpt lat="44.88306207637086" lon="9.420330617936566"><ele>442.0</ele><time>2026-04-04T10:14:00Z</time></trkpt><trkpt lat="44.8830208162663" lon="9.42044875041399"><ele>441.83333333333337</ele><time>2026-04-04T10:14:01Z</time></trkpt><trkpt lat="44.88297052740304" lon="9.420555242475652"><ele>441.6666666666667</ele><time>2026-04-04T10:14:02Z</time></trkpt><trkpt lat="44.88291767091229" lon="9.420644505771124"><ele>441.5</ele><time>2026-04-04T10:14:03Z</time></trkpt><trkpt lat="44.88286817082602" lon="9.420763891863322"><ele>441.33333333333337</ele><time>2026-04-04T10:14:04Z</time></trkpt><trkpt lat="44.88284725707197" lon="9.420893701795498"><ele>441.1666666666667</ele><time>2026-04-04T10:14:05Z</time></trkpt><trkpt lat="44.882827912963826" lon="9.420993774627025"><ele>441.0</ele><time>2026-04-04T10:14:06Z</time></trkpt><trkpt lat="44.88277950393584" lon="9.421147746676978"><ele>441.0</ele><time>2026-04-04T10:14:08Z</time></trkpt><trkpt lat="44.88276068114303" lon="9.421245397373202"><ele>441.0</ele><time>2026-04-04T10:14:09Z</time></trkpt><trkpt lat="44.882749391300166" lon="9.421347307152386"><ele>441.0</ele><time>2026-04-04T10:14:10Z</time></trkpt><trkpt lat="44.88274252263418" lon="9.4214453030581"><ele>441.0</ele><time>2026-04-04T10:14:11Z</time></trkpt><trkpt lat="44.88276742966586" lon="9.421548110654264"><ele>441.0</ele><time>2026-04-04T10:14:12Z</time></trkpt><trkpt lat="44.8828101610193" lon="9.42165834639988"><ele>441.0</ele><time>2026-04-04T10:14:13Z</time></trkpt><trkpt lat="44.882882376135605" lon="9.421744895658012"><ele>441.8</ele><time>2026-04-04T10:14:14Z</time></trkpt><trkpt lat="44.882962719258806" lon="9.421816785743182"><ele>442.6</ele><time>2026-04-04T10:14:15Z</time></trkpt><trkpt lat="44.88305049837094" lon="9.421871823518286"><ele>443.4</ele><time>2026-04-04T10:14:15.999Z</time></trkpt><trkpt lat="44.88316706354083" lon="9.4219488262419"><ele>444.2</ele><time>2026-04-04T10:14:16.999Z</time></trkpt><trkpt lat="44.88328199618555" lon="9.422012860597718"><ele>445.0</ele><time>2026-04-04T10:14:17.999Z</time></trkpt><trkpt lat="44.883364415439395" lon="9.422076876151078"><ele>445.2</ele><time>2026-04-04T10:14:18.999Z</time></trkpt><trkpt lat="44.88346813840179" lon="9.4221687354424"><ele>445.4</ele><time>2026-04-04T10:14:19.999Z</time></trkpt><trkpt lat="44.8835574598441" lon="9.422262207148997"><ele>445.6</ele><time>2026-04-04T10:14:20.999Z</time></trkpt><trkpt lat="44.88361984244352" lon="9.422337283394214"><ele>445.8</ele><time>2026-04-04T10:14:21.999Z</time></trkpt><trkpt lat="44.883672525835905" lon="9.422401021143818"><ele>446.0</ele><time>2026-04-04T10:14:22.999Z</time></trkpt><trkpt lat="44.88374282228035" lon="9.422476231509007"><ele>446.0</ele><time>2026-04-04T10:14:23.999Z</time></trkpt><trkpt lat="44.88383486604445" lon="9.422561882839057"><ele>446.0</ele><time>2026-04-04T10:14:24.999Z</time></trkpt><trkpt lat="44.88389857565666" lon="9.422620280105841"><ele>446.0</ele><time>2026-04-04T10:14:25.999Z</time></trkpt><trkpt lat="44.88395613622871" lon="9.422673353024893"><ele>446.0</ele><time>2026-04-04T10:14:26.999Z</time></trkpt><trkpt lat="44.88404226810667" lon="9.422763473056138"><ele>446.0</ele><time>2026-04-04T10:14:28.999Z</time></trkpt><trkpt lat="44.88408594816447" lon="9.422894051451753"><ele>447.5</ele><time>2026-04-04T10:14:30.999Z</time></trkpt><trkpt lat="44.884021960186814" lon="9.423047730587742"><ele>449.0</ele><time>2026-04-04T10:14:32.999Z</time></trkpt><trkpt lat="44.883978342055144" lon="9.423186403688442"><ele>450.5</ele><time>2026-04-04T10:14:33.999Z</time></trkpt><trkpt lat="44.88392766594371" lon="9.423332266079285"><ele>452.0</ele><time>2026-04-04T10:14:34.999Z</time></trkpt><trkpt lat="44.883870387870736" lon="9.423472448786882"><ele>452.0</ele><time>2026-04-04T10:14:35.999Z</time></trkpt><trkpt lat="44.88382975541354" lon="9.423558003182471"><ele>452.00000000000006</ele><time>2026-04-04T10:14:36.999Z</time></trkpt><trkpt lat="44.88379194933325" lon="9.423629738742555"><ele>452.00000000000006</ele><time>2026-04-04T10:14:37.999Z</time></trkpt><trkpt lat="44.883735762811035" lon="9.423719294292862"><ele>452.0</ele><time>2026-04-04T10:14:39.999Z</time></trkpt><trkpt lat="44.88384491502744" lon="9.42395459246789"><ele>452.0</ele><time>2026-04-04T10:14:45.999Z</time></trkpt><trkpt lat="44.88394260729593" lon="9.42398354586417"><ele>453.0</ele><time>2026-04-04T10:14:47.999Z</time></trkpt><trkpt lat="44.88391749091001" lon="9.424104124635264"><ele>454.00000000000006</ele><time>2026-04-04T10:14:48.999Z</time></trkpt><trkpt lat="44.88389676674495" lon="9.424203239345768"><ele>455.00000000000006</ele><time>2026-04-04T10:14:51.999Z</time></trkpt><trkpt lat="44.88382169217917" lon="9.42427070469705"><ele>456.0</ele><time>2026-04-04T10:14:53.999Z</time></trkpt><trkpt lat="44.883726498769356" lon="9.424249860790471"><ele>457.0</ele><time>2026-04-04T10:14:54.999Z</time></trkpt><trkpt lat="44.88359838280638" lon="9.424314187096646"><ele>457.0</ele><time>2026-04-04T10:14:56.999Z</time></trkpt><trkpt lat="44.883502013556814" lon="9.424416555505491"><ele>457.00000000000006</ele><time>2026-04-04T10:14:58.999Z</time></trkpt><trkpt lat="44.88342771473455" lon="9.424551288871411"><ele>457.00000000000006</ele><time>2026-04-04T10:15:00.999Z</time></trkpt><trkpt lat="44.88340320393247" lon="9.424646693943153"><ele>457.0</ele><time>2026-04-04T10:15:01.999Z</time></trkpt><trkpt lat="44.88336778095232" lon="9.42474591456064"><ele>457.0</ele><time>2026-04-04T10:15:02.999Z</time></trkpt><trkpt lat="44.883334214931416" lon="9.424877409463555"><ele>460.0</ele><time>2026-04-04T10:15:03.999Z</time></trkpt><trkpt lat="44.88328861126245" lon="9.425000745688955"><ele>463.00000000000006</ele><time>2026-04-04T10:15:04.999Z</time></trkpt><trkpt lat="44.883242158271145" lon="9.425121327092942"><ele>466.00000000000006</ele><time>2026-04-04T10:15:05.999Z</time></trkpt><trkpt lat="44.883173431985895" lon="9.425185335871316"><ele>469.0</ele><time>2026-04-04T10:15:06.999Z</time></trkpt><trkpt lat="44.883101207902804" lon="9.425195339435295"><ele>472.0</ele><time>2026-04-04T10:15:07.999Z</time></trkpt><trkpt lat="44.88302609626163" lon="9.425096921131452"><ele>472.0</ele><time>2026-04-04T10:15:08.999Z</time></trkpt><trkpt lat="44.88289792089054" lon="9.42503299292906"><ele>472.0</ele><time>2026-04-04T10:15:09.999Z</time></trkpt><trkpt lat="44.88277085479451" lon="9.425011118605848"><ele>472.0</ele><time>2026-04-04T10:15:10.999Z</time></trkpt><trkpt lat="44.882673662107145" lon="9.425047080593124"><ele>472.0</ele><time>2026-04-04T10:15:11.999Z</time></trkpt><trkpt lat="44.88259901077878" lon="9.425167489852951"><ele>473.8</ele><time>2026-04-04T10:15:12.999Z</time></trkpt><trkpt lat="44.882538385161276" lon="9.425299497978571"><ele>475.6</ele><time>2026-04-04T10:15:13.999Z</time></trkpt><trkpt lat="44.882503047069875" lon="9.425443994551477"><ele>477.40000000000003</ele><time>2026-04-04T10:15:15Z</time></trkpt><trkpt lat="44.88249896875849" lon="9.425593858836402"><ele>479.20000000000005</ele><time>2026-04-04T10:15:16Z</time></trkpt><trkpt lat="44.8825779841901" lon="9.425703036733873"><ele>481.0</ele><time>2026-04-04T10:15:17Z</time></trkpt><trkpt lat="44.88263701059177" lon="9.42583183928379"><ele>481.0</ele><time>2026-04-04T10:15:18Z</time></trkpt><trkpt lat="44.88267380367953" lon="9.42598417969875"><ele>481.0</ele><time>2026-04-04T10:15:19Z</time></trkpt><trkpt lat="44.88268170154891" lon="9.426073371923987"><ele>481.0</ele><time>2026-04-04T10:15:20Z</time></trkpt><trkpt lat="44.882666042653206" lon="9.426210219330999"><ele>481.0</ele><time>2026-04-04T10:15:22Z</time></trkpt><trkpt lat="44.88260817668314" lon="9.426333809661527"><ele>481.0</ele><time>2026-04-04T10:15:23Z</time></trkpt><trkpt lat="44.88256760902238" lon="9.42643989255089"><ele>483.83333333333337</ele><time>2026-04-04T10:15:24Z</time></trkpt><trkpt lat="44.8825190646523" lon="9.426546362886544"><ele>486.6666666666667</ele><time>2026-04-04T10:15:25Z</time></trkpt><trkpt lat="44.88246459567949" lon="9.426629753592664"><ele>489.5</ele><time>2026-04-04T10:15:26Z</time></trkpt><trkpt lat="44.882406038378384" lon="9.426685809224239"><ele>492.33333333333337</ele><time>2026-04-04T10:15:27Z</time></trkpt><trkpt lat="44.88231911525735" lon="9.426703996227701"><ele>495.1666666666667</ele><time>2026-04-04T10:15:28Z</time></trkpt><trkpt lat="44.882238522119565" lon="9.426669660731898"><ele>498.0</ele><time>2026-04-04T10:15:29Z</time></trkpt><trkpt lat="44.88215183540847" lon="9.426640132776967"><ele>498.0</ele><time>2026-04-04T10:15:30Z</time></trkpt><trkpt lat="44.88210498674192" lon="9.426538599493261"><ele>497.99999999999994</ele><time>2026-04-04T10:15:31Z</time></trkpt><trkpt lat="44.88208685465238" lon="9.426428744568184"><ele>497.99999999999994</ele><time>2026-04-04T10:15:32Z</time></trkpt><trkpt lat="44.8820128100578" lon="9.42627916121069"><ele>498.0</ele><time>2026-04-04T10:15:33Z</time></trkpt><trkpt lat="44.88191581609402" lon="9.426145695836716"><ele>498.0</ele><time>2026-04-04T10:15:34Z</time></trkpt><trkpt lat="44.88184386126088" lon="9.426037528117808"><ele>496.2</ele><time>2026-04-04T10:15:35Z</time></trkpt><trkpt lat="44.88180074974771" lon="9.42593411831624"><ele>494.4</ele><time>2026-04-04T10:15:36Z</time></trkpt><trkpt lat="44.88171072788059" lon="9.425813377453203"><ele>492.59999999999997</ele><time>2026-04-04T10:15:38Z</time></trkpt><trkpt lat="44.88163727129387" lon="9.425759328353196"><ele>490.79999999999995</ele><time>2026-04-04T10:15:39Z</time></trkpt><trkpt lat="44.881574853531" lon="9.425702050673662"><ele>489.0</ele><time>2026-04-04T10:15:40Z</time></trkpt><trkpt lat="44.881465271488516" lon="9.425623949731019"><ele>492.6</ele><time>2026-04-04T10:15:42Z</time></trkpt><trkpt lat="44.88138587252409" lon="9.425587363813936"><ele>496.2</ele><time>2026-04-04T10:15:43Z</time></trkpt><trkpt lat="44.88127326612675" lon="9.425661432402425"><ele>499.80000000000007</ele><time>2026-04-04T10:15:44Z</time></trkpt><trkpt lat="44.88116411620265" lon="9.425709945614027"><ele>503.40000000000003</ele><time>2026-04-04T10:15:45Z</time></trkpt><trkpt lat="44.88105252235257" lon="9.425765119841502"><ele>507.0</ele><time>2026-04-04T10:15:46Z</time></trkpt><trkpt lat="44.88094847964868" lon="9.425841964306667"><ele>506.40000000000003</ele><time>2026-04-04T10:15:47Z</time></trkpt><trkpt lat="44.88085109413515" lon="9.425864971348034"><ele>505.80000000000007</ele><time>2026-04-04T10:15:48Z</time></trkpt><trkpt lat="44.880771885396754" lon="9.425848211256385"><ele>505.2</ele><time>2026-04-04T10:15:49Z</time></trkpt><trkpt lat="44.88068708958208" lon="9.42569925316951"><ele>504.6</ele><time>2026-04-04T10:15:51Z</time></trkpt><trkpt lat="44.88064086301945" lon="9.425549583712383"><ele>504.0</ele><time>2026-04-04T10:15:52Z</time></trkpt><trkpt lat="44.880555849862084" lon="9.425438388312207"><ele>504.0</ele><time>2026-04-04T10:15:53Z</time></trkpt><trkpt lat="44.88046608513352" lon="9.42537366502862"><ele>504.0</ele><time>2026-04-04T10:15:54Z</time></trkpt><trkpt lat="44.88037600152921" lon="9.425378827904405"><ele>504.0</ele><time>2026-04-04T10:15:55Z</time></trkpt><trkpt lat="44.88029211790381" lon="9.425440521910328"><ele>504.0</ele><time>2026-04-04T10:15:56Z</time></trkpt><trkpt lat="44.880237177437" lon="9.425619631610825"><ele>504.0</ele><time>2026-04-04T10:15:57Z</time></trkpt><trkpt lat="44.88017294048023" lon="9.425748718245462"><ele>505.8333333333333</ele><time>2026-04-04T10:15:58Z</time></trkpt><trkpt lat="44.88012664169215" lon="9.42585692292109"><ele>507.66666666666663</ele><time>2026-04-04T10:15:59Z</time></trkpt><trkpt lat="44.88009465927561" lon="9.425937272192678"><ele>509.5</ele><time>2026-04-04T10:16:00Z</time></trkpt><trkpt lat="44.88005580706113" lon="9.426073496425932"><ele>511.3333333333333</ele><time>2026-04-04T10:16:02Z</time></trkpt><trkpt lat="44.88008228847893" lon="9.426169368527894"><ele>513.1666666666666</ele><time>2026-04-04T10:16:03Z</time></trkpt><trkpt lat="44.88011151259916" lon="9.42627744517431"><ele>515.0</ele><time>2026-04-04T10:16:04Z</time></trkpt><trkpt lat="44.88018553438048" lon="9.426358981748102"><ele>517.25</ele><time>2026-04-04T10:16:05Z</time></trkpt><trkpt lat="44.88025375402976" lon="9.426451984312273"><ele>519.5</ele><time>2026-04-04T10:16:06Z</time></trkpt><trkpt lat="44.88033614979792" lon="9.426547365666563"><ele>521.75</ele><time>2026-04-04T10:16:07Z</time></trkpt><trkpt lat="44.88044421153925" lon="9.426658916871105"><ele>524.0</ele><time>2026-04-04T10:16:08Z</time></trkpt><trkpt lat="44.88057723759592" lon="9.426784436681139"><ele>524.0</ele><time>2026-04-04T10:16:09Z</time></trkpt><trkpt lat="44.88068027770795" lon="9.426884219669388"><ele>524.0</ele><time>2026-04-04T10:16:10Z</time></trkpt><trkpt lat="44.880768784526694" lon="9.426945253597472"><ele>524.0</ele><time>2026-04-04T10:16:11Z</time></trkpt><trkpt lat="44.88085482775227" lon="9.426956310219776"><ele>524.0</ele><time>2026-04-04T10:16:12Z</time></trkpt><trkpt lat="44.88095976044682" lon="9.42705899392417"><ele>524.0</ele><time>2026-04-04T10:16:14Z</time></trkpt><trkpt lat="44.88101731366034" lon="9.427125485243227"><ele>525.0</ele><time>2026-04-04T10:16:14.999Z</time></trkpt><trkpt lat="44.88102185431389" lon="9.42724782452852"><ele>526.0</ele><time>2026-04-04T10:16:15.999Z</time></trkpt><trkpt lat="44.880965493519156" lon="9.42740342101411"><ele>527.0</ele><time>2026-04-04T10:16:17.999Z</time></trkpt><trkpt lat="44.880911367776456" lon="9.427475157977517"><ele>528.0</ele><time>2026-04-04T10:16:18.999Z</time></trkpt><trkpt lat="44.88087463151817" lon="9.427620424065605"><ele>529.0</ele><time>2026-04-04T10:16:20.999Z</time></trkpt><trkpt lat="44.88086065995817" lon="9.427716726550395"><ele>529.0</ele><time>2026-04-04T10:16:21.999Z</time></trkpt><trkpt lat="44.88084868557594" lon="9.427809645389749"><ele>529.0</ele><time>2026-04-04T10:16:22.999Z</time></trkpt><trkpt lat="44.88085357654129" lon="9.42790560642743"><ele>529.0</ele><time>2026-04-04T10:16:23.999Z</time></trkpt><trkpt lat="44.88084232276793" lon="9.42800071446149"><ele>529.0</ele><time>2026-04-04T10:16:24.999Z</time></trkpt><trkpt lat="44.88083739595811" lon="9.428101309293597"><ele>529.0</ele><time>2026-04-04T10:16:25.999Z</time></trkpt><trkpt lat="44.88082953044417" lon="9.428218085430794"><ele>529.0</ele><time>2026-04-04T10:16:26.999Z</time></trkpt><trkpt lat="44.880845582742154" lon="9.428337171344948"><ele>529.0</ele><time>2026-04-04T10:16:27.999Z</time></trkpt><trkpt lat="44.8808488558602" lon="9.428457183422744"><ele>530.6</ele><time>2026-04-04T10:16:28.999Z</time></trkpt><trkpt lat="44.88084567908474" lon="9.428583513076862"><ele>532.2</ele><time>2026-04-04T10:16:29.999Z</time></trkpt><trkpt lat="44.880846187505696" lon="9.42872901047822"><ele>533.8000000000001</ele><time>2026-04-04T10:16:30.999Z</time></trkpt><trkpt lat="44.8808449522681" lon="9.428910900850886"><ele>535.4</ele><time>2026-04-04T10:16:31.999Z</time></trkpt><trkpt lat="44.880838490738924" lon="9.42909102129824"><ele>537.0</ele><time>2026-04-04T10:16:32.999Z</time></trkpt><trkpt lat="44.88084219641151" lon="9.429224940743365"><ele>538.3333333333334</ele><time>2026-04-04T10:16:33.999Z</time></trkpt><trkpt lat="44.88085085024949" lon="9.429345304696398"><ele>539.6666666666666</ele><time>2026-04-04T10:16:34.999Z</time></trkpt><trkpt lat="44.880860889851945" lon="9.429453006010826"><ele>541.0</ele><time>2026-04-04T10:16:35.999Z</time></trkpt><trkpt lat="44.88083657992136" lon="9.429551808398967"><ele>542.3333333333333</ele><time>2026-04-04T10:16:36.999Z</time></trkpt><trkpt lat="44.88080667089246" lon="9.429666963982319"><ele>543.6666666666666</ele><time>2026-04-04T10:16:37.999Z</time></trkpt><trkpt lat="44.88079664330268" lon="9.429775246368079"><ele>545.0</ele><time>2026-04-04T10:16:38.999Z</time></trkpt><trkpt lat="44.88077076671332" lon="9.429887685120462"><ele>545.5</ele><time>2026-04-04T10:16:39.999Z</time></trkpt><trkpt lat="44.88079445354407" lon="9.429972435196175"><ele>546.0</ele><time>2026-04-04T10:16:40.999Z</time></trkpt><trkpt lat="44.88084619050568" lon="9.430055247621027"><ele>546.5</ele><time>2026-04-04T10:16:41.999Z</time></trkpt><trkpt lat="44.880919499137924" lon="9.430129570893218"><ele>547.0</ele><time>2026-04-04T10:16:42.999Z</time></trkpt><trkpt lat="44.881012926119126" lon="9.430170508140007"><ele>547.5</ele><time>2026-04-04T10:16:43.999Z</time></trkpt><trkpt lat="44.881114211307164" lon="9.43021270187407"><ele>548.0</ele><time>2026-04-04T10:16:44.999Z</time></trkpt><trkpt lat="44.88119149254133" lon="9.430233374561535"><ele>548.0</ele><time>2026-04-04T10:16:45.999Z</time></trkpt><trkpt lat="44.88125426390898" lon="9.430266289501816"><ele>548.0</ele><time>2026-04-04T10:16:46.999Z</time></trkpt><trkpt lat="44.881309507737846" lon="9.430405975252636"><ele>548.0</ele><time>2026-04-04T10:16:48.999Z</time></trkpt><trkpt lat="44.881271996472364" lon="9.43056403436079"><ele>548.0</ele><time>2026-04-04T10:16:50.999Z</time></trkpt><trkpt lat="44.88125556848492" lon="9.430686420254535"><ele>548.0</ele><time>2026-04-04T10:16:51.999Z</time></trkpt><trkpt lat="44.88124964988096" lon="9.430875751142386"><ele>550.1999999999999</ele><time>2026-04-04T10:16:52.999Z</time></trkpt><trkpt lat="44.88123232705036" lon="9.43102327617347"><ele>552.4</ele><time>2026-04-04T10:16:53.999Z</time></trkpt><trkpt lat="44.88122781279337" lon="9.431135551298818"><ele>554.5999999999999</ele><time>2026-04-04T10:16:54.999Z</time></trkpt><trkpt lat="44.881237608702115" lon="9.43125302990617"><ele>556.8</ele><time>2026-04-04T10:16:55.999Z</time></trkpt><trkpt lat="44.881253710962696" lon="9.431359260032675"><ele>559.0</ele><time>2026-04-04T10:16:56.999Z</time></trkpt><trkpt lat="44.881315725620574" lon="9.431503612056728"><ele>561.4</ele><time>2026-04-04T10:16:58.999Z</time></trkpt><trkpt lat="44.8813540459486" lon="9.431603957767724"><ele>563.8</ele><time>2026-04-04T10:17:00.999Z</time></trkpt><trkpt lat="44.88149257380537" lon="9.431521222832977"><ele>566.2</ele><time>2026-04-04T10:17:01.999Z</time></trkpt><trkpt lat="44.88156250733749" lon="9.431469469426263"><ele>568.6</ele><time>2026-04-04T10:17:02.999Z</time></trkpt><trkpt lat="44.88166113376053" lon="9.431406157785196"><ele>571.0</ele><time>2026-04-04T10:17:03.999Z</time></trkpt><trkpt lat="44.8817566099011" lon="9.431386610569255"><ele>572.0</ele><time>2026-04-04T10:17:04.999Z</time></trkpt><trkpt lat="44.8818599943541" lon="9.4313956838351"><ele>573.0</ele><time>2026-04-04T10:17:05.999Z</time></trkpt><trkpt lat="44.881983196942514" lon="9.43142666982002"><ele>574.0</ele><time>2026-04-04T10:17:06.999Z</time></trkpt><trkpt lat="44.88211893623842" lon="9.431446422995267"><ele>575.0</ele><time>2026-04-04T10:17:07.999Z</time></trkpt><trkpt lat="44.88223445223002" lon="9.431465937547133"><ele>575.0</ele><time>2026-04-04T10:17:08.999Z</time></trkpt><trkpt lat="44.88232811970102" lon="9.431479507908595"><ele>575.0</ele><time>2026-04-04T10:17:09.999Z</time></trkpt><trkpt lat="44.88243542198775" lon="9.431509346091678"><ele>575.0</ele><time>2026-04-04T10:17:10.999Z</time></trkpt><trkpt lat="44.88254113361972" lon="9.4315500514352"><ele>575.0</ele><time>2026-04-04T10:17:11.999Z</time></trkpt><trkpt lat="44.882661247762314" lon="9.431594865506844"><ele>575.0</ele><time>2026-04-04T10:17:12.999Z</time></trkpt><trkpt lat="44.882745193527576" lon="9.431633039403888"><ele>574.6666666666666</ele><time>2026-04-04T10:17:13.999Z</time></trkpt><trkpt lat="44.882817874114565" lon="9.431666648366022"><ele>574.3333333333333</ele><time>2026-04-04T10:17:14.999Z</time></trkpt><trkpt lat="44.88287758559397" lon="9.431704637037464"><ele>574.0</ele><time>2026-04-04T10:17:15.999Z</time></trkpt><trkpt lat="44.88293669117609" lon="9.43176194563991"><ele>573.6666666666666</ele><time>2026-04-04T10:17:16.999Z</time></trkpt><trkpt lat="44.88300488067495" lon="9.431827820271886"><ele>573.3333333333334</ele><time>2026-04-04T10:17:17.999Z</time></trkpt><trkpt lat="44.8830782258723" lon="9.4318864155471"><ele>573.0</ele><time>2026-04-04T10:17:18.999Z</time></trkpt><trkpt lat="44.8831469273582" lon="9.431980203031346"><ele>573.0</ele><time>2026-04-04T10:17:19.999Z</time></trkpt><trkpt lat="44.883179962219195" lon="9.432072440963395"><ele>573.0</ele><time>2026-04-04T10:17:21Z</time></trkpt><trkpt lat="44.88321654488573" lon="9.432157640479485"><ele>573.0</ele><time>2026-04-04T10:17:22Z</time></trkpt><trkpt lat="44.883273284029755" lon="9.432214958193791"><ele>573.0</ele><time>2026-04-04T10:17:23Z</time></trkpt><trkpt lat="44.883349972705986" lon="9.432254990185585"><ele>573.0</ele><time>2026-04-04T10:17:24Z</time></trkpt><trkpt lat="44.88344501500917" lon="9.432252254257746"><ele>573.0</ele><time>2026-04-04T10:17:25Z</time></trkpt><trkpt lat="44.883539883623364" lon="9.432257099432883"><ele>575.4</ele><time>2026-04-04T10:17:26Z</time></trkpt><trkpt lat="44.88363422174206" lon="9.432298495392418"><ele>577.8</ele><time>2026-04-04T10:17:27Z</time></trkpt><trkpt lat="44.88372244267764" lon="9.432373490632605"><ele>580.2</ele><time>2026-04-04T10:17:28Z</time></trkpt><trkpt lat="44.88380595528327" lon="9.432450597915933"><ele>582.6</ele><time>2026-04-04T10:17:29Z</time></trkpt><trkpt lat="44.883882113447754" lon="9.432481266074191"><ele>585.0</ele><time>2026-04-04T10:17:30Z</time></trkpt><trkpt lat="44.88396959934612" lon="9.432491122001089"><ele>585.0</ele><time>2026-04-04T10:17:31Z</time></trkpt><trkpt lat="44.8840775961649" lon="9.43249868658209"><ele>585.0</ele><time>2026-04-04T10:17:32Z</time></trkpt><trkpt lat="44.88419447944149" lon="9.432502905572903"><ele>585.0</ele><time>2026-04-04T10:17:33Z</time></trkpt><trkpt lat="44.884292450657775" lon="9.43250306736412"><ele>585.0</ele><time>2026-04-04T10:17:34Z</time></trkpt><trkpt lat="44.884399235523865" lon="9.432503061824319"><ele>585.0</ele><time>2026-04-04T10:17:35Z</time></trkpt><trkpt lat="44.884518885093925" lon="9.432499410425699"><ele>585.8</ele><time>2026-04-04T10:17:36Z</time></trkpt><trkpt lat="44.884611552027344" lon="9.43249874505145"><ele>586.6</ele><time>2026-04-04T10:17:37Z</time></trkpt><trkpt lat="44.88470269420299" lon="9.432495410135902"><ele>587.4</ele><time>2026-04-04T10:17:38Z</time></trkpt><trkpt lat="44.88479495510965" lon="9.432503377731425"><ele>588.2</ele><time>2026-04-04T10:17:39Z</time></trkpt><trkpt lat="44.8849002326026" lon="9.432512420341205"><ele>589.0</ele><time>2026-04-04T10:17:40Z</time></trkpt><trkpt lat="44.88504005044572" lon="9.432526982571066"><ele>590.4</ele><time>2026-04-04T10:17:41Z</time></trkpt><trkpt lat="44.88515555650789" lon="9.43253459932923"><ele>591.8</ele><time>2026-04-04T10:17:42Z</time></trkpt><trkpt lat="44.88524150959348" lon="9.432541228044682"><ele>593.2</ele><time>2026-04-04T10:17:43Z</time></trkpt><trkpt lat="44.88532362918791" lon="9.432537595990585"><ele>594.6</ele><time>2026-04-04T10:17:44Z</time></trkpt><trkpt lat="44.885405708576116" lon="9.432535147954033"><ele>596.0</ele><time>2026-04-04T10:17:45Z</time></trkpt><trkpt lat="44.88550521034208" lon="9.43251404420265"><ele>596.0</ele><time>2026-04-04T10:17:46Z</time></trkpt><trkpt lat="44.88562499481356" lon="9.43248702538605"><ele>596.0</ele><time>2026-04-04T10:17:47Z</time></trkpt><trkpt lat="44.88572587832749" lon="9.432467122588823"><ele>596.0</ele><time>2026-04-04T10:17:48Z</time></trkpt><trkpt lat="44.88580885170214" lon="9.432446817639999"><ele>596.0</ele><time>2026-04-04T10:17:49Z</time></trkpt><trkpt lat="44.88593828426188" lon="9.432454678781495"><ele>596.0</ele><time>2026-04-04T10:17:51Z</time></trkpt><trkpt lat="44.88601411584231" lon="9.432492522999999"><ele>595.0</ele><time>2026-04-04T10:17:52Z</time></trkpt><trkpt lat="44.88610268351576" lon="9.432558680724751"><ele>594.0</ele><time>2026-04-04T10:17:53Z</time></trkpt><trkpt lat="44.88618334537087" lon="9.432645835078828"><ele>593.0</ele><time>2026-04-04T10:17:54Z</time></trkpt><trkpt lat="44.88627618678459" lon="9.432762528016776"><ele>592.0</ele><time>2026-04-04T10:17:55Z</time></trkpt><trkpt lat="44.886366348157175" lon="9.432890281172384"><ele>595.6</ele><time>2026-04-04T10:17:56Z</time></trkpt><trkpt lat="44.88643648024351" lon="9.432989735876848"><ele>599.2</ele><time>2026-04-04T10:17:57Z</time></trkpt><trkpt lat="44.886482504108436" lon="9.433073518615496"><ele>602.8</ele><time>2026-04-04T10:17:58Z</time></trkpt><trkpt lat="44.88657326775798" lon="9.433191343277432"><ele>606.4</ele><time>2026-04-04T10:18:00Z</time></trkpt><trkpt lat="44.88662939935803" lon="9.433265889650597"><ele>610.0</ele><time>2026-04-04T10:18:01Z</time></trkpt><trkpt lat="44.88669909607615" lon="9.433352913504917"><ele>612.0</ele><time>2026-04-04T10:18:02Z</time></trkpt><trkpt lat="44.88678579307591" lon="9.43344279314311"><ele>614.0</ele><time>2026-04-04T10:18:03Z</time></trkpt><trkpt lat="44.88684380765511" lon="9.433515525475103"><ele>616.0</ele><time>2026-04-04T10:18:04Z</time></trkpt><trkpt lat="44.886927618502774" lon="9.433612653487337"><ele>618.0</ele><time>2026-04-04T10:18:05Z</time></trkpt><trkpt lat="44.88703013158702" lon="9.433726398445117"><ele>620.0</ele><time>2026-04-04T10:18:06Z</time></trkpt><trkpt lat="44.887124802114876" lon="9.433845430310901"><ele>620.0</ele><time>2026-04-04T10:18:07Z</time></trkpt><trkpt lat="44.88718887575717" lon="9.43393485309972"><ele>620.0</ele><time>2026-04-04T10:18:08Z</time></trkpt><trkpt lat="44.88724118548897" lon="9.434019236971713"><ele>620.0</ele><time>2026-04-04T10:18:09Z</time></trkpt><trkpt lat="44.88728117966189" lon="9.43411259462596"><ele>620.0</ele><time>2026-04-04T10:18:10Z</time></trkpt><trkpt lat="44.88731577463745" lon="9.434244020046563"><ele>620.0</ele><time>2026-04-04T10:18:11Z</time></trkpt><trkpt lat="44.887373548342794" lon="9.434379617129638"><ele>620.0</ele><time>2026-04-04T10:18:11.999Z</time></trkpt><trkpt lat="44.887419380562" lon="9.434460009116927"><ele>620.0</ele><time>2026-04-04T10:18:12.999Z</time></trkpt><trkpt lat="44.88750134808548" lon="9.43451194240818"><ele>620.0</ele><time>2026-04-04T10:18:13.999Z</time></trkpt><trkpt lat="44.8875732523109" lon="9.434547749971692"><ele>620.0</ele><time>2026-04-04T10:18:14.999Z</time></trkpt><trkpt lat="44.88768626728356" lon="9.434573426208981"><ele>620.0</ele><time>2026-04-04T10:18:16.999Z</time></trkpt><trkpt lat="44.88779024445898" lon="9.434644257357451"><ele>621.5</ele><time>2026-04-04T10:18:18.999Z</time></trkpt><trkpt lat="44.88784299156606" lon="9.434708446636408"><ele>623.0</ele><time>2026-04-04T10:18:20.999Z</time></trkpt><trkpt lat="44.887888216971085" lon="9.434804259701515"><ele>624.5</ele><time>2026-04-04T10:18:22.999Z</time></trkpt><trkpt lat="44.88787007687415" lon="9.434893812031245"><ele>626.0</ele><time>2026-04-04T10:18:26.999Z</time></trkpt><trkpt lat="44.887745382102175" lon="9.43483579863076"><ele>627.5</ele><time>2026-04-04T10:18:28.999Z</time></trkpt><trkpt lat="44.88767568397291" lon="9.434816306951099"><ele>629.0</ele><time>2026-04-04T10:18:30.999Z</time></trkpt><trkpt lat="44.88761298270472" lon="9.434787373107092"><ele>630.0</ele><time>2026-04-04T10:18:32.999Z</time></trkpt><trkpt lat="44.887533570792314" lon="9.434772838797562"><ele>631.0</ele><time>2026-04-04T10:18:34.999Z</time></trkpt><trkpt lat="44.88746687875474" lon="9.434760671857253"><ele>632.0</ele><time>2026-04-04T10:18:37.999Z</time></trkpt><trkpt lat="44.887394251716294" lon="9.434818080738546"><ele>633.0</ele><time>2026-04-04T10:19:07.999Z</time></trkpt><trkpt lat="44.887320083420704" lon="9.434866091314836"><ele>634.0</ele><time>2026-04-04T10:19:09.999Z</time></trkpt><trkpt lat="44.88724711300557" lon="9.434863541191161"><ele>635.0</ele><time>2026-04-04T10:19:10.999Z</time></trkpt><trkpt lat="44.88716949766856" lon="9.43484815714245"><ele>635.0</ele><time>2026-04-04T10:19:11.999Z</time></trkpt><trkpt lat="44.88709483872043" lon="9.434826316787813"><ele>635.0</ele><time>2026-04-04T10:19:13.999Z</time></trkpt><trkpt lat="44.886966853125806" lon="9.434784904257258"><ele>635.0</ele><time>2026-04-04T10:19:15.999Z</time></trkpt><trkpt lat="44.88690473111671" lon="9.43475572139335"><ele>635.0</ele><time>2026-04-04T10:19:16.999Z</time></trkpt><trkpt lat="44.88677982705482" lon="9.434825234751226"><ele>635.0</ele><time>2026-04-04T10:19:18.999Z</time></trkpt><trkpt lat="44.886710604127764" lon="9.434925993454423"><ele>636.0</ele><time>2026-04-04T10:19:19.999Z</time></trkpt><trkpt lat="44.88663438637943" lon="9.435035748326946"><ele>637.0</ele><time>2026-04-04T10:19:20.999Z</time></trkpt><trkpt lat="44.8865466420738" lon="9.435117598880026"><ele>638.0</ele><time>2026-04-04T10:19:21.999Z</time></trkpt><trkpt lat="44.886477439692655" lon="9.43519560723722"><ele>639.0</ele><time>2026-04-04T10:19:22.999Z</time></trkpt><trkpt lat="44.8863908599342" lon="9.435289928247485"><ele>640.0</ele><time>2026-04-04T10:19:23.999Z</time></trkpt><trkpt lat="44.88627605556963" lon="9.435387018956538"><ele>640.0</ele><time>2026-04-04T10:19:24.999Z</time></trkpt><trkpt lat="44.88617004204807" lon="9.435449200486543"><ele>640.0</ele><time>2026-04-04T10:19:25.999Z</time></trkpt><trkpt lat="44.88604941529838" lon="9.43552194358387"><ele>640.0</ele><time>2026-04-04T10:19:27Z</time></trkpt><trkpt lat="44.88593658695029" lon="9.435571225720606"><ele>640.0</ele><time>2026-04-04T10:19:28Z</time></trkpt><trkpt lat="44.88582971460939" lon="9.435592941016495"><ele>643.0</ele><time>2026-04-04T10:19:29Z</time></trkpt><trkpt lat="44.885707542638" lon="9.43560978942558"><ele>646.0</ele><time>2026-04-04T10:19:30Z</time></trkpt><trkpt lat="44.88557387534679" lon="9.435615472885711"><ele>649.0</ele><time>2026-04-04T10:19:31Z</time></trkpt><trkpt lat="44.88546677027168" lon="9.435576959610714"><ele>652.0</ele><time>2026-04-04T10:19:32Z</time></trkpt><trkpt lat="44.885369039143384" lon="9.435531443957602"><ele>652.0</ele><time>2026-04-04T10:19:33Z</time></trkpt><trkpt lat="44.88529274731034" lon="9.435506935868233"><ele>652.0</ele><time>2026-04-04T10:19:34Z</time></trkpt><trkpt lat="44.88521621689272" lon="9.435539971554459"><ele>652.0</ele><time>2026-04-04T10:19:35Z</time></trkpt><trkpt lat="44.88514117876769" lon="9.435560904387655"><ele>652.0</ele><time>2026-04-04T10:19:36Z</time></trkpt><trkpt lat="44.88506377627934" lon="9.435609325930065"><ele>652.0</ele><time>2026-04-04T10:19:37Z</time></trkpt><trkpt lat="44.8849873322102" lon="9.435669331704867"><ele>652.0</ele><time>2026-04-04T10:19:38Z</time></trkpt><trkpt lat="44.88491312528328" lon="9.435741527386588"><ele>652.8</ele><time>2026-04-04T10:19:39Z</time></trkpt><trkpt lat="44.884844311117455" lon="9.43582526630159"><ele>653.6</ele><time>2026-04-04T10:19:40Z</time></trkpt><trkpt lat="44.88475436213794" lon="9.43590559535188"><ele>654.4</ele><time>2026-04-04T10:19:41Z</time></trkpt><trkpt lat="44.88467085774336" lon="9.43596369651234"><ele>655.1999999999999</ele><time>2026-04-04T10:19:42Z</time></trkpt><trkpt lat="44.884571806718334" lon="9.436038845614739"><ele>656.0</ele><time>2026-04-04T10:19:43Z</time></trkpt><trkpt lat="44.88446554325851" lon="9.436109633729528"><ele>656.0</ele><time>2026-04-04T10:19:44Z</time></trkpt><trkpt lat="44.88435353807936" lon="9.43617142611688"><ele>656.0</ele><time>2026-04-04T10:19:45Z</time></trkpt><trkpt lat="44.88423046886103" lon="9.436218285756809"><ele>656.0</ele><time>2026-04-04T10:19:46Z</time></trkpt><trkpt lat="44.88410954566047" lon="9.436237941650173"><ele>656.0</ele><time>2026-04-04T10:19:47Z</time></trkpt><trkpt lat="44.88398448215886" lon="9.436253867054146"><ele>654.4</ele><time>2026-04-04T10:19:48Z</time></trkpt><trkpt lat="44.88388430269605" lon="9.436266311942298"><ele>652.8</ele><time>2026-04-04T10:19:49Z</time></trkpt><trkpt lat="44.88380456611365" lon="9.436275962692674"><ele>651.1999999999999</ele><time>2026-04-04T10:19:50Z</time></trkpt><trkpt lat="44.883698001730494" lon="9.436288700955302"><ele>649.5999999999999</ele><time>2026-04-04T10:19:51Z</time></trkpt><trkpt lat="44.8835841267794" lon="9.43630337316443"><ele>648.0</ele><time>2026-04-04T10:19:52Z</time></trkpt><trkpt lat="44.883463929805416" lon="9.436331653123077"><ele>652.3333333333334</ele><time>2026-04-04T10:19:53Z</time></trkpt><trkpt lat="44.88331033319183" lon="9.436391616496909"><ele>656.6666666666667</ele><time>2026-04-04T10:19:54Z</time></trkpt><trkpt lat="44.88314099428722" lon="9.43648199891398"><ele>661.0</ele><time>2026-04-04T10:19:55Z</time></trkpt><trkpt lat="44.88300095478438" lon="9.436563606816023"><ele>661.0</ele><time>2026-04-04T10:19:56Z</time></trkpt><trkpt lat="44.882866462123474" lon="9.436594287170719"><ele>661.0</ele><time>2026-04-04T10:19:57Z</time></trkpt><trkpt lat="44.88274252452588" lon="9.436639423615135"><ele>661.0</ele><time>2026-04-04T10:19:58Z</time></trkpt><trkpt lat="44.88263094256248" lon="9.43672038197066"><ele>661.0</ele><time>2026-04-04T10:19:59Z</time></trkpt><trkpt lat="44.882485371072924" lon="9.436730617019128"><ele>661.1999999999999</ele><time>2026-04-04T10:20:00Z</time></trkpt><trkpt lat="44.88236106231474" lon="9.436735648042685"><ele>661.4</ele><time>2026-04-04T10:20:01Z</time></trkpt><trkpt lat="44.88225282860691" lon="9.43675920095755"><ele>661.6</ele><time>2026-04-04T10:20:02Z</time></trkpt><trkpt lat="44.88217790041798" lon="9.436822223709173"><ele>661.8</ele><time>2026-04-04T10:20:03Z</time></trkpt><trkpt lat="44.88209548071788" lon="9.43689740059194"><ele>662.0</ele><time>2026-04-04T10:20:04Z</time></trkpt><trkpt lat="44.88200985730696" lon="9.436999359849287"><ele>662.0</ele><time>2026-04-04T10:20:05Z</time></trkpt><trkpt lat="44.88190797165929" lon="9.437017314714765"><ele>662.0</ele><time>2026-04-04T10:20:06Z</time></trkpt><trkpt lat="44.88179687889773" lon="9.43701372056912"><ele>662.0</ele><time>2026-04-04T10:20:07Z</time></trkpt><trkpt lat="44.88166323579981" lon="9.437011302096867"><ele>662.0</ele><time>2026-04-04T10:20:08Z</time></trkpt><trkpt lat="44.88152597049861" lon="9.43701070071678"><ele>661.25</ele><time>2026-04-04T10:20:09Z</time></trkpt><trkpt lat="44.88140411325724" lon="9.437017068286686"><ele>660.5</ele><time>2026-04-04T10:20:10Z</time></trkpt><trkpt lat="44.88128894420977" lon="9.43703786122236"><ele>659.75</ele><time>2026-04-04T10:20:11Z</time></trkpt><trkpt lat="44.88118328139488" lon="9.437078695377318"><ele>659.0</ele><time>2026-04-04T10:20:12Z</time></trkpt><trkpt lat="44.881077754603844" lon="9.437115279237887"><ele>659.0</ele><time>2026-04-04T10:20:13Z</time></trkpt><trkpt lat="44.880967671255604" lon="9.43710812368871"><ele>659.0</ele><time>2026-04-04T10:20:14Z</time></trkpt><trkpt lat="44.88086906183602" lon="9.437092535919495"><ele>659.0</ele><time>2026-04-04T10:20:15Z</time></trkpt><trkpt lat="44.880784814856874" lon="9.437054943088024"><ele>659.0</ele><time>2026-04-04T10:20:16Z</time></trkpt><trkpt lat="44.880713772208075" lon="9.43701353283858"><ele>659.0</ele><time>2026-04-04T10:20:17Z</time></trkpt><trkpt lat="44.88063394884458" lon="9.436982611719225"><ele>659.0</ele><time>2026-04-04T10:20:18Z</time></trkpt><trkpt lat="44.88056359920934" lon="9.43699806322325"><ele>659.0</ele><time>2026-04-04T10:20:19Z</time></trkpt><trkpt lat="44.88044940422827" lon="9.437021660455603"><ele>659.0</ele><time>2026-04-04T10:20:21Z</time></trkpt><trkpt lat="44.88036059825878" lon="9.437030618440062"><ele>659.0</ele><time>2026-04-04T10:20:22.999Z</time></trkpt><trkpt lat="44.88029352306157" lon="9.437059665765714"><ele>659.0</ele><time>2026-04-04T10:20:24.999Z</time></trkpt><trkpt lat="44.88021376761712" lon="9.43709092306438"><ele>659.0</ele><time>2026-04-04T10:20:27.999Z</time></trkpt><trkpt lat="44.88014590163237" lon="9.437116767330325"><ele>661.0</ele><time>2026-04-04T10:20:30.999Z</time></trkpt><trkpt lat="44.88013321028875" lon="9.43725350680957"><ele>663.0</ele><time>2026-04-04T10:20:40.999Z</time></trkpt><trkpt lat="44.88013762298275" lon="9.437370736723565"><ele>665.0</ele><time>2026-04-04T10:20:45.999Z</time></trkpt><trkpt lat="44.88016053192699" lon="9.437498898023506"><ele>667.0</ele><time>2026-04-04T10:20:47.999Z</time></trkpt><trkpt lat="44.88020043756691" lon="9.437596020051421"><ele>669.0</ele><time>2026-04-04T10:20:49.999Z</time></trkpt><trkpt lat="44.88024788599728" lon="9.437703786537778"><ele>671.0</ele><time>2026-04-04T10:20:51.999Z</time></trkpt><trkpt lat="44.880288706856014" lon="9.437812622485666"><ele>671.0</ele><time>2026-04-04T10:20:53.999Z</time></trkpt><trkpt lat="44.88032431714888" lon="9.437960694831334"><ele>671.0</ele><time>2026-04-04T10:20:55.999Z</time></trkpt><trkpt lat="44.88030552822689" lon="9.438100220691826"><ele>671.0</ele><time>2026-04-04T10:20:57.999Z</time></trkpt><trkpt lat="44.880312037734846" lon="9.438264350110208"><ele>671.0</ele><time>2026-04-04T10:20:59.999Z</time></trkpt><trkpt lat="44.8803519930799" lon="9.438446858800004"><ele>671.0</ele><time>2026-04-04T10:21:01.999Z</time></trkpt><trkpt lat="44.880388932527" lon="9.438549961540184"><ele>671.0</ele><time>2026-04-04T10:21:02.999Z</time></trkpt><trkpt lat="44.880428733386026" lon="9.438638474500866"><ele>671.0</ele><time>2026-04-04T10:21:03.999Z</time></trkpt><trkpt lat="44.88047851902754" lon="9.43872119907712"><ele>671.0</ele><time>2026-04-04T10:21:04.999Z</time></trkpt><trkpt lat="44.88052368399387" lon="9.438799018196933"><ele>671.0</ele><time>2026-04-04T10:21:05.999Z</time></trkpt><trkpt lat="44.8805618157926" lon="9.438884502724477"><ele>671.0</ele><time>2026-04-04T10:21:06.999Z</time></trkpt><trkpt lat="44.88060798859111" lon="9.439037277547456"><ele>670.4</ele><time>2026-04-04T10:21:08.999Z</time></trkpt><trkpt lat="44.8806267271293" lon="9.439143962249641"><ele>669.8</ele><time>2026-04-04T10:21:09.999Z</time></trkpt><trkpt lat="44.880645270210124" lon="9.439311925822606"><ele>669.1999999999999</ele><time>2026-04-04T10:21:11.999Z</time></trkpt><trkpt lat="44.880666094876794" lon="9.4394647863186"><ele>668.5999999999999</ele><time>2026-04-04T10:21:13.999Z</time></trkpt><trkpt lat="44.88065425448174" lon="9.439562436360944"><ele>668.0</ele><time>2026-04-04T10:21:14.999Z</time></trkpt><trkpt lat="44.880647384666595" lon="9.43973292468274"><ele>668.0</ele><time>2026-04-04T10:21:16.999Z</time></trkpt><trkpt lat="44.880642980962655" lon="9.439824409289884"><ele>668.0</ele><time>2026-04-04T10:21:17.999Z</time></trkpt><trkpt lat="44.88065323750156" lon="9.439924958725927"><ele>668.0</ele><time>2026-04-04T10:21:18.999Z</time></trkpt><trkpt lat="44.88063315518894" lon="9.440098670708363"><ele>668.0</ele><time>2026-04-04T10:21:20.999Z</time></trkpt><trkpt lat="44.88059084243512" lon="9.440270373459235"><ele>668.0</ele><time>2026-04-04T10:21:22.999Z</time></trkpt><trkpt lat="44.880530622554694" lon="9.440320954547037"><ele>668.0</ele><time>2026-04-04T10:21:23.999Z</time></trkpt><trkpt lat="44.880476948061634" lon="9.440385192298377"><ele>668.0</ele><time>2026-04-04T10:21:24.999Z</time></trkpt><trkpt lat="44.88038631663343" lon="9.440496827418073"><ele>668.0</ele><time>2026-04-04T10:21:26.999Z</time></trkpt><trkpt lat="44.88029546193146" lon="9.440625967000964"><ele>668.0</ele><time>2026-04-04T10:21:28.999Z</time></trkpt><trkpt lat="44.88023531020894" lon="9.440778623822222"><ele>668.0</ele><time>2026-04-04T10:21:30.999Z</time></trkpt><trkpt lat="44.880243333789196" lon="9.440886994042398"><ele>669.2</ele><time>2026-04-04T10:21:31.999Z</time></trkpt><trkpt lat="44.88022461936185" lon="9.440975095077453"><ele>670.4</ele><time>2026-04-04T10:21:33Z</time></trkpt><trkpt lat="44.88016922625914" lon="9.441084610407188"><ele>671.6</ele><time>2026-04-04T10:21:35Z</time></trkpt><trkpt lat="44.88014390047241" lon="9.441230476623197"><ele>672.8000000000001</ele><time>2026-04-04T10:21:37Z</time></trkpt><trkpt lat="44.88011660284099" lon="9.441383343977643"><ele>674.0</ele><time>2026-04-04T10:21:39Z</time></trkpt><trkpt lat="44.88009311795204" lon="9.44148156118817"><ele>669.0</ele><time>2026-04-04T10:21:40Z</time></trkpt><trkpt lat="44.8800720223394" lon="9.441574048821717"><ele>664.0</ele><time>2026-04-04T10:21:41Z</time></trkpt><trkpt lat="44.88004452412291" lon="9.441659323975818"><ele>659.0</ele><time>2026-04-04T10:21:42Z</time></trkpt><trkpt lat="44.879988382417366" lon="9.441789973675395"><ele>654.0</ele><time>2026-04-04T10:21:44Z</time></trkpt><trkpt lat="44.87992884017877" lon="9.441944714836739"><ele>649.0</ele><time>2026-04-04T10:21:46Z</time></trkpt><trkpt lat="44.87989159001647" lon="9.442081221429175"><ele>650.3333333333334</ele><time>2026-04-04T10:21:48Z</time></trkpt><trkpt lat="44.87990522113586" lon="9.4422223588509"><ele>651.6666666666667</ele><time>2026-04-04T10:21:50Z</time></trkpt><trkpt lat="44.87990575478556" lon="9.442319555857713"><ele>653.0</ele><time>2026-04-04T10:21:51Z</time></trkpt><trkpt lat="44.87990239580963" lon="9.442418566041077"><ele>654.3333333333334</ele><time>2026-04-04T10:21:52Z</time></trkpt><trkpt lat="44.87989263747704" lon="9.442518727341419"><ele>655.6666666666666</ele><time>2026-04-04T10:21:53Z</time></trkpt><trkpt lat="44.879869163049186" lon="9.442608073218818"><ele>657.0</ele><time>2026-04-04T10:21:54Z</time></trkpt><trkpt lat="44.87985184315819" lon="9.442711614214838"><ele>657.0</ele><time>2026-04-04T10:21:55Z</time></trkpt><trkpt lat="44.879840447359314" lon="9.442824979636836"><ele>657.0</ele><time>2026-04-04T10:21:56Z</time></trkpt><trkpt lat="44.8798340544576" lon="9.4429660698621"><ele>657.0</ele><time>2026-04-04T10:21:57Z</time></trkpt><trkpt lat="44.87985383328712" lon="9.443108449558505"><ele>657.0</ele><time>2026-04-04T10:21:58Z</time></trkpt><trkpt lat="44.87987502590088" lon="9.443220377745863"><ele>657.0</ele><time>2026-04-04T10:21:59Z</time></trkpt><trkpt lat="44.87990959833058" lon="9.443319642549957"><ele>657.0</ele><time>2026-04-04T10:22:00Z</time></trkpt><trkpt lat="44.879949986148354" lon="9.443414875058103"><ele>656.5</ele><time>2026-04-04T10:22:01Z</time></trkpt><trkpt lat="44.879999824728735" lon="9.443477613680646"><ele>656.0</ele><time>2026-04-04T10:22:02Z</time></trkpt><trkpt lat="44.88002163013479" lon="9.443582844445846"><ele>655.5</ele><time>2026-04-04T10:22:03Z</time></trkpt><trkpt lat="44.880067327745195" lon="9.443712844962691"><ele>655.0</ele><time>2026-04-04T10:22:05Z</time></trkpt><trkpt lat="44.880111317100834" lon="9.443822510386813"><ele>654.5</ele><time>2026-04-04T10:22:07Z</time></trkpt><trkpt lat="44.88016028526747" lon="9.44388521281838"><ele>654.0</ele><time>2026-04-04T10:22:08Z</time></trkpt><trkpt lat="44.880232209685914" lon="9.443920154336011"><ele>653.1666666666666</ele><time>2026-04-04T10:22:09Z</time></trkpt><trkpt lat="44.88029880318755" lon="9.443920223370048"><ele>652.3333333333334</ele><time>2026-04-04T10:22:10Z</time></trkpt><trkpt lat="44.88037031019726" lon="9.443950018982676"><ele>651.5</ele><time>2026-04-04T10:22:11Z</time></trkpt><trkpt lat="44.8804536890811" lon="9.443989814626098"><ele>650.6666666666667</ele><time>2026-04-04T10:22:12Z</time></trkpt><trkpt lat="44.88051632768133" lon="9.444024092846018"><ele>649.8333333333334</ele><time>2026-04-04T10:22:13Z</time></trkpt><trkpt lat="44.88059004411177" lon="9.444057220302861"><ele>649.0</ele><time>2026-04-04T10:22:14Z</time></trkpt><trkpt lat="44.88063062488185" lon="9.444149529348687"><ele>649.0</ele><time>2026-04-04T10:22:15Z</time></trkpt><trkpt lat="44.88071224905093" lon="9.444232213495162"><ele>649.0</ele><time>2026-04-04T10:22:16Z</time></trkpt><trkpt lat="44.88078186473908" lon="9.444302732044921"><ele>649.0</ele><time>2026-04-04T10:22:17Z</time></trkpt><trkpt lat="44.88087097628273" lon="9.444396456766217"><ele>649.0</ele><time>2026-04-04T10:22:19Z</time></trkpt><trkpt lat="44.88091237774138" lon="9.444489612469257"><ele>649.0</ele><time>2026-04-04T10:22:20Z</time></trkpt><trkpt lat="44.880969171403976" lon="9.444552075207428"><ele>649.0</ele><time>2026-04-04T10:22:21Z</time></trkpt><trkpt lat="44.881146697729534" lon="9.444596614476701"><ele>648.6</ele><time>2026-04-04T10:22:24Z</time></trkpt><trkpt lat="44.881218425076355" lon="9.444625419907675"><ele>648.2</ele><time>2026-04-04T10:22:25Z</time></trkpt><trkpt lat="44.88132018041794" lon="9.444678428972225"><ele>647.8000000000001</ele><time>2026-04-04T10:22:26.999Z</time></trkpt><trkpt lat="44.88138558347347" lon="9.444691751080216"><ele>647.4000000000001</ele><time>2026-04-04T10:22:27.999Z</time></trkpt><trkpt lat="44.88149009054994" lon="9.444620656110988"><ele>647.0</ele><time>2026-04-04T10:22:29.999Z</time></trkpt><trkpt lat="44.8816067966137" lon="9.444574883878465"><ele>647.0</ele><time>2026-04-04T10:22:31.999Z</time></trkpt><trkpt lat="44.881716890546954" lon="9.44455518494273"><ele>647.0</ele><time>2026-04-04T10:22:33.999Z</time></trkpt><trkpt lat="44.8817918392397" lon="9.44453145500378"><ele>647.0</ele><time>2026-04-04T10:22:35.999Z</time></trkpt><trkpt lat="44.8818678841128" lon="9.444510261125824"><ele>647.0</ele><time>2026-04-04T10:22:37.999Z</time></trkpt><trkpt lat="44.88193989542977" lon="9.444480457769407"><ele>647.0</ele><time>2026-04-04T10:22:40.999Z</time></trkpt><trkpt lat="44.88209353644107" lon="9.444460852515771"><ele>645.1666666666666</ele><time>2026-04-04T10:23:14.999Z</time></trkpt><trkpt lat="44.88216369761176" lon="9.444443541524858"><ele>643.3333333333333</ele><time>2026-04-04T10:23:18.999Z</time></trkpt><trkpt lat="44.88224411046069" lon="9.4444498176169"><ele>641.5</ele><time>2026-04-04T10:23:21.999Z</time></trkpt><trkpt lat="44.88231575821364" lon="9.444458851519087"><ele>639.6666666666666</ele><time>2026-04-04T10:23:24.999Z</time></trkpt><trkpt lat="44.88239856897971" lon="9.44448135767926"><ele>637.8333333333334</ele><time>2026-04-04T10:23:26.999Z</time></trkpt><trkpt lat="44.88246320947275" lon="9.444497731398215"><ele>636.0</ele><time>2026-04-04T10:23:27.999Z</time></trkpt><trkpt lat="44.88255955649061" lon="9.44452185883226"><ele>635.5</ele><time>2026-04-04T10:23:29.999Z</time></trkpt><trkpt lat="44.88263292193729" lon="9.444545261592385"><ele>635.0</ele><time>2026-04-04T10:23:31.999Z</time></trkpt><trkpt lat="44.8826960989345" lon="9.444576402144934"><ele>634.5</ele><time>2026-04-04T10:23:33.999Z</time></trkpt><trkpt lat="44.882775152530385" lon="9.444602214627729"><ele>634.0</ele><time>2026-04-04T10:23:36.999Z</time></trkpt><trkpt lat="44.88283949302605" lon="9.44464134914978"><ele>633.5</ele><time>2026-04-04T10:24:15Z</time></trkpt><trkpt lat="44.88292147766362" lon="9.444713179522845"><ele>633.0</ele><time>2026-04-04T10:24:17Z</time></trkpt><trkpt lat="44.882981217418155" lon="9.444818820643386"><ele>632.3333333333334</ele><time>2026-04-04T10:24:19Z</time></trkpt><trkpt lat="44.88300544856692" lon="9.444963780509934"><ele>631.6666666666666</ele><time>2026-04-04T10:24:21Z</time></trkpt><trkpt lat="44.88299930178547" lon="9.445088450521034"><ele>631.0</ele><time>2026-04-04T10:24:22Z</time></trkpt><trkpt lat="44.882998322496356" lon="9.445206429994098"><ele>630.3333333333333</ele><time>2026-04-04T10:24:23Z</time></trkpt><trkpt lat="44.88301744649271" lon="9.445310446685003"><ele>629.6666666666666</ele><time>2026-04-04T10:24:24Z</time></trkpt><trkpt lat="44.883051259117565" lon="9.445414278123971"><ele>629.0</ele><time>2026-04-04T10:24:25Z</time></trkpt><trkpt lat="44.883085617337684" lon="9.445523851612323"><ele>628.3333333333333</ele><time>2026-04-04T10:24:26Z</time></trkpt><trkpt lat="44.88311042755626" lon="9.44562231301662"><ele>627.6666666666666</ele><time>2026-04-04T10:24:27Z</time></trkpt><trkpt lat="44.88314175451243" lon="9.445719208854973"><ele>627.0</ele><time>2026-04-04T10:24:28Z</time></trkpt><trkpt lat="44.88319346832922" lon="9.445897455806389"><ele>626.3333333333334</ele><time>2026-04-04T10:24:30Z</time></trkpt><trkpt lat="44.883208503612806" lon="9.445993062446153"><ele>625.6666666666667</ele><time>2026-04-04T10:24:30.999Z</time></trkpt><trkpt lat="44.88324004690293" lon="9.446086595118924"><ele>625.0</ele><time>2026-04-04T10:24:31.999Z</time></trkpt><trkpt lat="44.88329663669457" lon="9.446159652428696"><ele>625.0000000000001</ele><time>2026-04-04T10:24:32.999Z</time></trkpt><trkpt lat="44.883345201908966" lon="9.44622986585938"><ele>625.0</ele><time>2026-04-04T10:24:33.999Z</time></trkpt><trkpt lat="44.883371935816804" lon="9.446326746829524"><ele>625.0</ele><time>2026-04-04T10:24:34.999Z</time></trkpt><trkpt lat="44.88339843127031" lon="9.446415650676443"><ele>625.0</ele><time>2026-04-04T10:24:35.999Z</time></trkpt><trkpt lat="44.88340498573773" lon="9.446509413209071"><ele>625.0</ele><time>2026-04-04T10:24:36.999Z</time></trkpt><trkpt lat="44.88342688236907" lon="9.446611766018082"><ele>625.0000000000001</ele><time>2026-04-04T10:24:37.999Z</time></trkpt><trkpt lat="44.883455594856954" lon="9.446698880247798"><ele>625.0</ele><time>2026-04-04T10:24:38.999Z</time></trkpt><trkpt lat="44.88350879179398" lon="9.446757968917005"><ele>625.5714285714287</ele><time>2026-04-04T10:24:39.999Z</time></trkpt><trkpt lat="44.88355770222427" lon="9.446824908761755"><ele>626.1428571428571</ele><time>2026-04-04T10:24:40.999Z</time></trkpt><trkpt lat="44.88361019056173" lon="9.446907382612876"><ele>626.7142857142858</ele><time>2026-04-04T10:24:41.999Z</time></trkpt><trkpt lat="44.883645483382196" lon="9.447003297723441"><ele>627.2857142857143</ele><time>2026-04-04T10:24:42.999Z</time></trkpt><trkpt lat="44.88368638813188" lon="9.447085744432476"><ele>627.8571428571429</ele><time>2026-04-04T10:24:43.999Z</time></trkpt><trkpt lat="44.883729267672074" lon="9.447171174784046"><ele>628.4285714285714</ele><time>2026-04-04T10:24:44.999Z</time></trkpt><trkpt lat="44.88373049078568" lon="9.44727758100355"><ele>629.0</ele><time>2026-04-04T10:24:45.999Z</time></trkpt><trkpt lat="44.88374148418969" lon="9.447383870742339"><ele>629.0</ele><time>2026-04-04T10:24:46.999Z</time></trkpt><trkpt lat="44.883771779891454" lon="9.447489582741662"><ele>629.0</ele><time>2026-04-04T10:24:47.999Z</time></trkpt><trkpt lat="44.88378569414571" lon="9.44757948324109"><ele>629.0</ele><time>2026-04-04T10:24:48.999Z</time></trkpt><trkpt lat="44.883807112834184" lon="9.44766596221723"><ele>629.0</ele><time>2026-04-04T10:24:49.999Z</time></trkpt><trkpt lat="44.88384974169448" lon="9.447791635574832"><ele>629.0</ele><time>2026-04-04T10:24:51.999Z</time></trkpt><trkpt lat="44.88389255432504" lon="9.447905282382504"><ele>629.0</ele><time>2026-04-04T10:24:53.999Z</time></trkpt><trkpt lat="44.88392721151702" lon="9.44799281987871"><ele>627.3333333333333</ele><time>2026-04-04T10:24:55.999Z</time></trkpt><trkpt lat="44.883962692947996" lon="9.4481133660582"><ele>625.6666666666666</ele><time>2026-04-04T10:24:58.999Z</time></trkpt><trkpt lat="44.88397626374388" lon="9.448247963786361"><ele>624.0</ele><time>2026-04-04T10:25:01.999Z</time></trkpt><trkpt lat="44.8839902606512" lon="9.4483435770078"><ele>622.3333333333334</ele><time>2026-04-04T10:25:03.999Z</time></trkpt><trkpt lat="44.88399609192502" lon="9.448461535392095"><ele>620.6666666666667</ele><time>2026-04-04T10:25:05.999Z</time></trkpt><trkpt lat="44.88399590912542" lon="9.448569150187483"><ele>619.0</ele><time>2026-04-04T10:25:07.999Z</time></trkpt><trkpt lat="44.88399525099523" lon="9.448704358014378"><ele>616.4</ele><time>2026-04-04T10:25:09.999Z</time></trkpt><trkpt lat="44.884010270513976" lon="9.44883016704418"><ele>613.8</ele><time>2026-04-04T10:25:11.999Z</time></trkpt><trkpt lat="44.88401413288555" lon="9.448985296171486"><ele>611.2</ele><time>2026-04-04T10:25:13.999Z</time></trkpt><trkpt lat="44.88403298440228" lon="9.449147056127337"><ele>608.6</ele><time>2026-04-04T10:25:15.999Z</time></trkpt><trkpt lat="44.88408773949974" lon="9.449291379934042"><ele>606.0</ele><time>2026-04-04T10:25:17.999Z</time></trkpt><trkpt lat="44.884113623672064" lon="9.449444829294947"><ele>606.0</ele><time>2026-04-04T10:25:19.999Z</time></trkpt><trkpt lat="44.88414613928212" lon="9.449587880721214"><ele>606.0</ele><time>2026-04-04T10:25:21.999Z</time></trkpt><trkpt lat="44.88415228118104" lon="9.44972775576211"><ele>606.0</ele><time>2026-04-04T10:25:23.999Z</time></trkpt><trkpt lat="44.88417712603064" lon="9.44991136800125"><ele>606.0</ele><time>2026-04-04T10:25:25.999Z</time></trkpt><trkpt lat="44.88417588722475" lon="9.450011080615482"><ele>606.0</ele><time>2026-04-04T10:25:26.999Z</time></trkpt><trkpt lat="44.8841802778967" lon="9.450101563615682"><ele>604.6</ele><time>2026-04-04T10:25:27.999Z</time></trkpt><trkpt lat="44.88418716318959" lon="9.450194043357428"><ele>603.2</ele><time>2026-04-04T10:25:28.999Z</time></trkpt><trkpt lat="44.88420113402883" lon="9.450305002048692"><ele>601.8</ele><time>2026-04-04T10:25:29.999Z</time></trkpt><trkpt lat="44.8842163841646" lon="9.450404542486352"><ele>600.4</ele><time>2026-04-04T10:25:30.999Z</time></trkpt><trkpt lat="44.8842476479583" lon="9.450552124275276"><ele>599.0</ele><time>2026-04-04T10:25:32.999Z</time></trkpt><trkpt lat="44.88416760696448" lon="9.450701340537714"><ele>597.25</ele><time>2026-04-04T10:25:33.999Z</time></trkpt><trkpt lat="44.88417918081158" lon="9.45084460661577"><ele>595.5</ele><time>2026-04-04T10:25:34.999Z</time></trkpt><trkpt lat="44.88425055219817" lon="9.4510112131315"><ele>593.75</ele><time>2026-04-04T10:25:35.999Z</time></trkpt><trkpt lat="44.88428427334058" lon="9.451210855079012"><ele>592.0</ele><time>2026-04-04T10:25:36.999Z</time></trkpt><trkpt lat="44.884321949943704" lon="9.451426320245053"><ele>589.75</ele><time>2026-04-04T10:25:37.999Z</time></trkpt><trkpt lat="44.88437980102677" lon="9.451611427492757"><ele>587.5</ele><time>2026-04-04T10:25:38.999Z</time></trkpt><trkpt lat="44.88443844301705" lon="9.45179630267862"><ele>585.25</ele><time>2026-04-04T10:25:39.999Z</time></trkpt><trkpt lat="44.88450054830211" lon="9.451966019701157"><ele>583.0</ele><time>2026-04-04T10:25:40.999Z</time></trkpt><trkpt lat="44.8845450082399" lon="9.452141399909225"><ele>583.0</ele><time>2026-04-04T10:25:41.998Z</time></trkpt><trkpt lat="44.88457921401257" lon="9.452318415459567"><ele>583.0</ele><time>2026-04-04T10:25:42.998Z</time></trkpt><trkpt lat="44.88460250349149" lon="9.452494891493044"><ele>583.0</ele><time>2026-04-04T10:25:43.998Z</time></trkpt><trkpt lat="44.884630174638694" lon="9.452653162426136"><ele>583.0</ele><time>2026-04-04T10:25:45Z</time></trkpt><trkpt lat="44.88467131708781" lon="9.452807359477017"><ele>584.0</ele><time>2026-04-04T10:25:46Z</time></trkpt><trkpt lat="44.88472020966214" lon="9.452957397718592"><ele>585.0</ele><time>2026-04-04T10:25:47Z</time></trkpt><trkpt lat="44.884787772495095" lon="9.45307883957724"><ele>586.0</ele><time>2026-04-04T10:25:48Z</time></trkpt><trkpt lat="44.8848469676054" lon="9.453190146655132"><ele>587.0</ele><time>2026-04-04T10:25:49Z</time></trkpt><trkpt lat="44.88491195797401" lon="9.45333147789068"><ele>588.0</ele><time>2026-04-04T10:25:50Z</time></trkpt><trkpt lat="44.88498247466521" lon="9.453519010726273"><ele>588.0</ele><time>2026-04-04T10:25:51Z</time></trkpt><trkpt lat="44.88505173876126" lon="9.453706062841961"><ele>588.0</ele><time>2026-04-04T10:25:52Z</time></trkpt><trkpt lat="44.88509717428342" lon="9.453834568399447"><ele>588.0</ele><time>2026-04-04T10:25:53Z</time></trkpt><trkpt lat="44.88513425095421" lon="9.453924423483086"><ele>588.0</ele><time>2026-04-04T10:25:54Z</time></trkpt><trkpt lat="44.885177475131385" lon="9.454017771825614"><ele>588.0</ele><time>2026-04-04T10:25:55Z</time></trkpt><trkpt lat="44.88522772687314" lon="9.45412194993517"><ele>588.1999999999999</ele><time>2026-04-04T10:25:56Z</time></trkpt><trkpt lat="44.88528029805652" lon="9.454266307522392"><ele>588.4</ele><time>2026-04-04T10:25:57Z</time></trkpt><trkpt lat="44.88534437282753" lon="9.454409662133095"><ele>588.5999999999999</ele><time>2026-04-04T10:25:58Z</time></trkpt><trkpt lat="44.88540925251862" lon="9.454520832021855"><ele>588.8</ele><time>2026-04-04T10:25:59Z</time></trkpt><trkpt lat="44.88545964858758" lon="9.454659371529676"><ele>589.0</ele><time>2026-04-04T10:26:00Z</time></trkpt><trkpt lat="44.88552284258698" lon="9.454819067264383"><ele>590.75</ele><time>2026-04-04T10:26:01Z</time></trkpt><trkpt lat="44.88559286993357" lon="9.45500959411295"><ele>592.5</ele><time>2026-04-04T10:26:02Z</time></trkpt><trkpt lat="44.88566335945269" lon="9.455169939668869"><ele>594.25</ele><time>2026-04-04T10:26:03Z</time></trkpt><trkpt lat="44.88570680775549" lon="9.455339409180953"><ele>596.0</ele><time>2026-04-04T10:26:04Z</time></trkpt><trkpt lat="44.88575059908252" lon="9.455465071008799"><ele>596.5</ele><time>2026-04-04T10:26:05Z</time></trkpt><trkpt lat="44.88579073797083" lon="9.455580252328712"><ele>597.0</ele><time>2026-04-04T10:26:06Z</time></trkpt><trkpt lat="44.88582881980922" lon="9.455689530594517"><ele>597.5</ele><time>2026-04-04T10:26:07Z</time></trkpt><trkpt lat="44.88588054126823" lon="9.455801167058826"><ele>598.0</ele><time>2026-04-04T10:26:08Z</time></trkpt><trkpt lat="44.8859213360289" lon="9.455909898272175"><ele>598.5</ele><time>2026-04-04T10:26:09Z</time></trkpt><trkpt lat="44.88593988137398" lon="9.45601539695143"><ele>599.0</ele><time>2026-04-04T10:26:10Z</time></trkpt><trkpt lat="44.88597340789835" lon="9.456117753465369"><ele>599.0</ele><time>2026-04-04T10:26:11Z</time></trkpt><trkpt lat="44.886006997662925" lon="9.456269478531198"><ele>599.0</ele><time>2026-04-04T10:26:13Z</time></trkpt><trkpt lat="44.88600543190513" lon="9.456361632498815"><ele>599.0</ele><time>2026-04-04T10:26:14Z</time></trkpt><trkpt lat="44.88598595429948" lon="9.456456990625234"><ele>599.0</ele><time>2026-04-04T10:26:15Z</time></trkpt><trkpt lat="44.88595265560155" lon="9.4565544690067"><ele>599.0</ele><time>2026-04-04T10:26:16Z</time></trkpt><trkpt lat="44.88592137019789" lon="9.456647767195895"><ele>599.0</ele><time>2026-04-04T10:26:17Z</time></trkpt><trkpt lat="44.885902033338894" lon="9.456757740918185"><ele>602.2</ele><time>2026-04-04T10:26:18Z</time></trkpt><trkpt lat="44.88589177017299" lon="9.45688199732208"><ele>605.4</ele><time>2026-04-04T10:26:19Z</time></trkpt><trkpt lat="44.885885584597816" lon="9.457021176938717"><ele>608.6</ele><time>2026-04-04T10:26:20Z</time></trkpt><trkpt lat="44.88588272991923" lon="9.457167525149757"><ele>611.8</ele><time>2026-04-04T10:26:21Z</time></trkpt><trkpt lat="44.88589096583095" lon="9.457322643195345"><ele>615.0</ele><time>2026-04-04T10:26:22Z</time></trkpt><trkpt lat="44.885910224662034" lon="9.45747327852275"><ele>617.8</ele><time>2026-04-04T10:26:23Z</time></trkpt><trkpt lat="44.88594430339235" lon="9.457621442424967"><ele>620.6</ele><time>2026-04-04T10:26:24Z</time></trkpt><trkpt lat="44.885997113268274" lon="9.45776953645585"><ele>623.4</ele><time>2026-04-04T10:26:25Z</time></trkpt><trkpt lat="44.886053667590936" lon="9.457912971954912"><ele>626.2</ele><time>2026-04-04T10:26:26Z</time></trkpt><trkpt lat="44.88609532859272" lon="9.458005961280396"><ele>629.0</ele><time>2026-04-04T10:26:27Z</time></trkpt><trkpt lat="44.886118318537925" lon="9.458110631711296"><ele>630.1666666666666</ele><time>2026-04-04T10:26:28Z</time></trkpt><trkpt lat="44.88615139132059" lon="9.458192001435677"><ele>631.3333333333333</ele><time>2026-04-04T10:26:29Z</time></trkpt><trkpt lat="44.88618029914769" lon="9.458276776700616"><ele>632.5</ele><time>2026-04-04T10:26:30Z</time></trkpt><trkpt lat="44.88621377905228" lon="9.458352102004548"><ele>633.6666666666666</ele><time>2026-04-04T10:26:31Z</time></trkpt><trkpt lat="44.88623822226677" lon="9.458436650014882"><ele>634.8333333333334</ele><time>2026-04-04T10:26:32Z</time></trkpt><trkpt lat="44.8862855143203" lon="9.458563554193868"><ele>636.0</ele><time>2026-04-04T10:26:34Z</time></trkpt><trkpt lat="44.88632912787459" lon="9.458695039637567"><ele>637.75</ele><time>2026-04-04T10:26:35.999Z</time></trkpt><trkpt lat="44.88637966968852" lon="9.458830505012585"><ele>639.5</ele><time>2026-04-04T10:26:37.999Z</time></trkpt><trkpt lat="44.88625232960903" lon="9.459049668106108"><ele>641.25</ele><time>2026-04-04T10:26:38.999Z</time></trkpt><trkpt lat="44.8862038252726" lon="9.459179634337476"><ele>643.0</ele><time>2026-04-04T10:26:39.999Z</time></trkpt><trkpt lat="44.88614203226343" lon="9.459286959203338"><ele>643.0</ele><time>2026-04-04T10:26:40.999Z</time></trkpt><trkpt lat="44.88605229621563" lon="9.459374114555768"><ele>643.0</ele><time>2026-04-04T10:26:41.999Z</time></trkpt><trkpt lat="44.88596073122304" lon="9.459430582728217"><ele>643.0</ele><time>2026-04-04T10:26:42.999Z</time></trkpt><trkpt lat="44.88586822680242" lon="9.45946302338097"><ele>643.0</ele><time>2026-04-04T10:26:43.999Z</time></trkpt><trkpt lat="44.885771952954734" lon="9.459501487049268"><ele>643.0</ele><time>2026-04-04T10:26:44.999Z</time></trkpt><trkpt lat="44.88568730640965" lon="9.45955998413679"><ele>640.4</ele><time>2026-04-04T10:26:45.999Z</time></trkpt><trkpt lat="44.88560777594449" lon="9.459623857627395"><ele>637.8</ele><time>2026-04-04T10:26:46.999Z</time></trkpt><trkpt lat="44.88552245437913" lon="9.45968049412513"><ele>635.2</ele><time>2026-04-04T10:26:47.999Z</time></trkpt><trkpt lat="44.8854399925157" lon="9.459749242525373"><ele>632.6</ele><time>2026-04-04T10:26:48.999Z</time></trkpt><trkpt lat="44.88536009232542" lon="9.459824310368242"><ele>630.0</ele><time>2026-04-04T10:26:49.999Z</time></trkpt><trkpt lat="44.88529361123028" lon="9.459920169331786"><ele>630.0</ele><time>2026-04-04T10:26:50.999Z</time></trkpt><trkpt lat="44.8852319106269" lon="9.460015787618739"><ele>630.0</ele><time>2026-04-04T10:26:51.999Z</time></trkpt><trkpt lat="44.88517414173751" lon="9.460124152646545"><ele>630.0</ele><time>2026-04-04T10:26:52.999Z</time></trkpt><trkpt lat="44.88513329065006" lon="9.460245365889838"><ele>630.0</ele><time>2026-04-04T10:26:53.999Z</time></trkpt><trkpt lat="44.885081122520795" lon="9.460363967287352"><ele>630.0</ele><time>2026-04-04T10:26:54.999Z</time></trkpt><trkpt lat="44.88504103863169" lon="9.460477661412503"><ele>625.8</ele><time>2026-04-04T10:26:55.999Z</time></trkpt><trkpt lat="44.884996244437396" lon="9.460596962105907"><ele>621.6</ele><time>2026-04-04T10:26:56.999Z</time></trkpt><trkpt lat="44.88495429737508" lon="9.46071819631618"><ele>617.4</ele><time>2026-04-04T10:26:57.999Z</time></trkpt><trkpt lat="44.884905266737064" lon="9.460843205215008"><ele>613.2</ele><time>2026-04-04T10:26:58.999Z</time></trkpt><trkpt lat="44.884855625011184" lon="9.460964828688043"><ele>609.0</ele><time>2026-04-04T10:26:59.999Z</time></trkpt><trkpt lat="44.88479892654238" lon="9.461084363990215"><ele>609.0</ele><time>2026-04-04T10:27:00.999Z</time></trkpt><trkpt lat="44.88474753425821" lon="9.461199873987129"><ele>609.0</ele><time>2026-04-04T10:27:01.999Z</time></trkpt><trkpt lat="44.884702133505805" lon="9.461301636445867"><ele>609.0</ele><time>2026-04-04T10:27:02.999Z</time></trkpt><trkpt lat="44.88466612567096" lon="9.461391742179941"><ele>609.0</ele><time>2026-04-04T10:27:03.999Z</time></trkpt><trkpt lat="44.88462857620327" lon="9.461472247097118"><ele>609.0</ele><time>2026-04-04T10:27:04.999Z</time></trkpt><trkpt lat="44.88458089428694" lon="9.461536548056781"><ele>609.0</ele><time>2026-04-04T10:27:05.999Z</time></trkpt><trkpt lat="44.88451782808728" lon="9.46157023658435"><ele>609.0</ele><time>2026-04-04T10:27:06.999Z</time></trkpt><trkpt lat="44.88444918068232" lon="9.461529537511675"><ele>609.0</ele><time>2026-04-04T10:27:07.999Z</time></trkpt><trkpt lat="44.884416102727" lon="9.461433565706791"><ele>609.0</ele><time>2026-04-04T10:27:08.999Z</time></trkpt><trkpt lat="44.88439958622141" lon="9.46129993795564"><ele>609.0</ele><time>2026-04-04T10:27:09.999Z</time></trkpt><trkpt lat="44.88442296785597" lon="9.461145837715375"><ele>609.0</ele><time>2026-04-04T10:27:10.999Z</time></trkpt><trkpt lat="44.884450160367656" lon="9.46097053760116"><ele>609.0</ele><time>2026-04-04T10:27:11.999Z</time></trkpt><trkpt lat="44.88445805186534" lon="9.460817782804632"><ele>609.0</ele><time>2026-04-04T10:27:12.999Z</time></trkpt><trkpt lat="44.88446706769621" lon="9.460676891327987"><ele>609.0</ele><time>2026-04-04T10:27:13.999Z</time></trkpt><trkpt lat="44.88447343610383" lon="9.460560564593036"><ele>609.0</ele><time>2026-04-04T10:27:14.999Z</time></trkpt><trkpt lat="44.884485554100976" lon="9.460456698538723"><ele>609.0</ele><time>2026-04-04T10:27:15.999Z</time></trkpt><trkpt lat="44.88448737554875" lon="9.46035259423233"><ele>609.0</ele><time>2026-04-04T10:27:16.999Z</time></trkpt><trkpt lat="44.884472597468275" lon="9.460184409497574"><ele>607.6</ele><time>2026-04-04T10:27:18.999Z</time></trkpt><trkpt lat="44.88444319068055" lon="9.460049026112317"><ele>606.2</ele><time>2026-04-04T10:27:20.999Z</time></trkpt><trkpt lat="44.88436723653457" lon="9.459990914170152"><ele>604.8000000000001</ele><time>2026-04-04T10:27:22.999Z</time></trkpt><trkpt lat="44.88429648460386" lon="9.460133580953972"><ele>603.4</ele><time>2026-04-04T10:27:24.999Z</time></trkpt><trkpt lat="44.884295653571456" lon="9.46025774138112"><ele>602.0</ele><time>2026-04-04T10:27:25.999Z</time></trkpt><trkpt lat="44.88429791766939" lon="9.460400185632954"><ele>603.1666666666666</ele><time>2026-04-04T10:27:26.999Z</time></trkpt><trkpt lat="44.88428734028203" lon="9.460536569843825"><ele>604.3333333333333</ele><time>2026-04-04T10:27:27.999Z</time></trkpt><trkpt lat="44.88425980244723" lon="9.460659479924423"><ele>605.5</ele><time>2026-04-04T10:27:28.999Z</time></trkpt><trkpt lat="44.88419795609979" lon="9.460753857119185"><ele>606.6666666666666</ele><time>2026-04-04T10:27:29.999Z</time></trkpt><trkpt lat="44.88411571501326" lon="9.46081356184966"><ele>607.8333333333334</ele><time>2026-04-04T10:27:30.999Z</time></trkpt><trkpt lat="44.88405085619309" lon="9.46086932732561"><ele>609.0</ele><time>2026-04-04T10:27:31.999Z</time></trkpt><trkpt lat="44.88400304341349" lon="9.460945460376857"><ele>603.4</ele><time>2026-04-04T10:27:32.999Z</time></trkpt><trkpt lat="44.883976666624726" lon="9.461046746031169"><ele>597.8</ele><time>2026-04-04T10:27:33.999Z</time></trkpt><trkpt lat="44.88397265281878" lon="9.461155519207598"><ele>592.2</ele><time>2026-04-04T10:27:34.999Z</time></trkpt><trkpt lat="44.883968085620445" lon="9.461276286619684"><ele>586.6</ele><time>2026-04-04T10:27:35.999Z</time></trkpt><trkpt lat="44.88393345869282" lon="9.461422644155887"><ele>581.0</ele><time>2026-04-04T10:27:36.999Z</time></trkpt><trkpt lat="44.88390685580416" lon="9.461560763203249"><ele>581.0</ele><time>2026-04-04T10:27:37.999Z</time></trkpt><trkpt lat="44.88387258110983" lon="9.46169335638581"><ele>581.0</ele><time>2026-04-04T10:27:38.999Z</time></trkpt><trkpt lat="44.88383437776926" lon="9.461829881226322"><ele>581.0</ele><time>2026-04-04T10:27:39.999Z</time></trkpt><trkpt lat="44.883799425824016" lon="9.461964358913264"><ele>581.0</ele><time>2026-04-04T10:27:40.999Z</time></trkpt><trkpt lat="44.883760213901795" lon="9.46209229773511"><ele>581.0</ele><time>2026-04-04T10:27:41.999Z</time></trkpt><trkpt lat="44.883713082449844" lon="9.462210554202585"><ele>581.0</ele><time>2026-04-04T10:27:42.999Z</time></trkpt><trkpt lat="44.883657562726434" lon="9.462320001105462"><ele>581.0</ele><time>2026-04-04T10:27:43.999Z</time></trkpt><trkpt lat="44.88359406160741" lon="9.462421482101613"><ele>581.0</ele><time>2026-04-04T10:27:44.999Z</time></trkpt><trkpt lat="44.88353665443195" lon="9.462517559225804"><ele>581.0</ele><time>2026-04-04T10:27:45.999Z</time></trkpt><trkpt lat="44.88346411771707" lon="9.462618560799719"><ele>581.0</ele><time>2026-04-04T10:27:46.999Z</time></trkpt><trkpt lat="44.8834110095888" lon="9.462747014678973"><ele>575.8</ele><time>2026-04-04T10:27:47.999Z</time></trkpt><trkpt lat="44.88335668643022" lon="9.462886800888608"><ele>570.6</ele><time>2026-04-04T10:27:48.998Z</time></trkpt><trkpt lat="44.88329128446353" lon="9.463018932432671"><ele>565.4</ele><time>2026-04-04T10:27:49.998Z</time></trkpt><trkpt lat="44.88323737320106" lon="9.463148775706102"><ele>560.2</ele><time>2026-04-04T10:27:51Z</time></trkpt><trkpt lat="44.883188595080355" lon="9.46328563892047"><ele>555.0</ele><time>2026-04-04T10:27:52Z</time></trkpt><trkpt lat="44.88313564384353" lon="9.46343393193535"><ele>555.0</ele><time>2026-04-04T10:27:53Z</time></trkpt><trkpt lat="44.8830901869595" lon="9.463593726085064"><ele>555.0</ele><time>2026-04-04T10:27:54Z</time></trkpt><trkpt lat="44.88304685413596" lon="9.463757594315899"><ele>555.0</ele><time>2026-04-04T10:27:55Z</time></trkpt><trkpt lat="44.883010839886715" lon="9.463929968522017"><ele>555.0</ele><time>2026-04-04T10:27:56Z</time></trkpt><trkpt lat="44.88297299854763" lon="9.46411163035055"><ele>554.8</ele><time>2026-04-04T10:27:57Z</time></trkpt><trkpt lat="44.88294477673955" lon="9.464283387407322"><ele>554.6</ele><time>2026-04-04T10:27:58Z</time></trkpt><trkpt lat="44.88292272008617" lon="9.464450079082571"><ele>554.4</ele><time>2026-04-04T10:27:59Z</time></trkpt><trkpt lat="44.88289493239528" lon="9.464610809611592"><ele>554.2</ele><time>2026-04-04T10:28:00Z</time></trkpt><trkpt lat="44.88287978394786" lon="9.46473188627318"><ele>554.0</ele><time>2026-04-04T10:28:01Z</time></trkpt><trkpt lat="44.882863679909306" lon="9.46485250804486"><ele>554.0</ele><time>2026-04-04T10:28:02Z</time></trkpt><trkpt lat="44.88290114388957" lon="9.46497922672252"><ele>554.0</ele><time>2026-04-04T10:28:03Z</time></trkpt><trkpt lat="44.882946733903324" lon="9.465101687804431"><ele>554.0</ele><time>2026-04-04T10:28:04Z</time></trkpt><trkpt lat="44.88300766600777" lon="9.465214661778356"><ele>554.0</ele><time>2026-04-04T10:28:05Z</time></trkpt><trkpt lat="44.88304931867302" lon="9.46534248066004"><ele>554.0</ele><time>2026-04-04T10:28:06Z</time></trkpt><trkpt lat="44.88307075744532" lon="9.465472313752551"><ele>554.2</ele><time>2026-04-04T10:28:07Z</time></trkpt><trkpt lat="44.883063661568265" lon="9.46560276058681"><ele>554.4</ele><time>2026-04-04T10:28:08Z</time></trkpt><trkpt lat="44.88299905120238" lon="9.465718216853986"><ele>554.6</ele><time>2026-04-04T10:28:09Z</time></trkpt><trkpt lat="44.88297619900281" lon="9.46584753545944"><ele>554.8</ele><time>2026-04-04T10:28:10Z</time></trkpt><trkpt lat="44.88293331908234" lon="9.465976945951303"><ele>555.0</ele><time>2026-04-04T10:28:11Z</time></trkpt><trkpt lat="44.88290613588005" lon="9.46612388350292"><ele>556.5</ele><time>2026-04-04T10:28:12Z</time></trkpt><trkpt lat="44.882878979213274" lon="9.466293661639112"><ele>558.0</ele><time>2026-04-04T10:28:13Z</time></trkpt><trkpt lat="44.88283920772449" lon="9.466485897622901"><ele>559.5</ele><time>2026-04-04T10:28:14Z</time></trkpt><trkpt lat="44.88276542793511" lon="9.466642943249495"><ele>561.0</ele><time>2026-04-04T10:28:15Z</time></trkpt><trkpt lat="44.88268248478737" lon="9.466781100176794"><ele>558.4</ele><time>2026-04-04T10:28:16Z</time></trkpt><trkpt lat="44.882586754000705" lon="9.466881024613496"><ele>555.8</ele><time>2026-04-04T10:28:17Z</time></trkpt><trkpt lat="44.88249520589264" lon="9.46694885644936"><ele>553.1999999999999</ele><time>2026-04-04T10:28:18Z</time></trkpt><trkpt lat="44.88242135877784" lon="9.467037899525897"><ele>550.6</ele><time>2026-04-04T10:28:19Z</time></trkpt><trkpt lat="44.882346731899695" lon="9.467117763632862"><ele>548.0</ele><time>2026-04-04T10:28:20Z</time></trkpt><trkpt lat="44.88229501211355" lon="9.467227801473163"><ele>548.0</ele><time>2026-04-04T10:28:21Z</time></trkpt><trkpt lat="44.8822457425791" lon="9.467336219662482"><ele>548.0</ele><time>2026-04-04T10:28:22Z</time></trkpt><trkpt lat="44.88219192210695" lon="9.46744808836112"><ele>548.0</ele><time>2026-04-04T10:28:23Z</time></trkpt><trkpt lat="44.882124700974266" lon="9.467561493083323"><ele>548.0</ele><time>2026-04-04T10:28:24Z</time></trkpt><trkpt lat="44.882066424597376" lon="9.46766993072223"><ele>548.0</ele><time>2026-04-04T10:28:25Z</time></trkpt><trkpt lat="44.88201348352198" lon="9.467759552792778"><ele>548.0</ele><time>2026-04-04T10:28:26Z</time></trkpt><trkpt lat="44.88197163206967" lon="9.467833065067344"><ele>548.0</ele><time>2026-04-04T10:28:28Z</time></trkpt><trkpt lat="44.88192009090513" lon="9.467916760924954"><ele>548.0</ele><time>2026-04-04T10:28:30Z</time></trkpt><trkpt lat="44.88187834533518" lon="9.46801814922206"><ele>548.0</ele><time>2026-04-04T10:28:33Z</time></trkpt><trkpt lat="44.88184756235772" lon="9.468134688008554"><ele>548.0</ele><time>2026-04-04T10:28:36Z</time></trkpt><trkpt lat="44.88182457792021" lon="9.468402570024217"><ele>548.1666666666666</ele><time>2026-04-04T10:29:09.999Z</time></trkpt><trkpt lat="44.88181791741571" lon="9.468519794944697"><ele>548.3333333333333</ele><time>2026-04-04T10:29:12.999Z</time></trkpt><trkpt lat="44.8817507006638" lon="9.468532845760704"><ele>548.5</ele><time>2026-04-04T10:29:14.999Z</time></trkpt><trkpt lat="44.88169272546906" lon="9.46848430498315"><ele>548.6666666666666</ele><time>2026-04-04T10:29:16.999Z</time></trkpt><trkpt lat="44.88161155965222" lon="9.468460893861634"><ele>548.8333333333334</ele><time>2026-04-04T10:29:19.999Z</time></trkpt><trkpt lat="44.88152879814159" lon="9.468415149962011"><ele>549.0</ele><time>2026-04-04T10:29:21.999Z</time></trkpt><trkpt lat="44.88145064253161" lon="9.46838025709779"><ele>547.5</ele><time>2026-04-04T10:29:23.999Z</time></trkpt><trkpt lat="44.881387467434706" lon="9.468394921226178"><ele>546.0</ele><time>2026-04-04T10:29:26.999Z</time></trkpt><trkpt lat="44.88134085131208" lon="9.468468439179578"><ele>544.5</ele><time>2026-04-04T10:29:28.999Z</time></trkpt><trkpt lat="44.88130332680478" lon="9.46856812122385"><ele>543.0</ele><time>2026-04-04T10:29:30.999Z</time></trkpt><trkpt lat="44.88128948494652" lon="9.468698264901"><ele>541.5</ele><time>2026-04-04T10:29:32.999Z</time></trkpt><trkpt lat="44.88126394874746" lon="9.468829078463166"><ele>540.0</ele><time>2026-04-04T10:29:34.999Z</time></trkpt><trkpt lat="44.88121253012922" lon="9.468950730086332"><ele>540.0</ele><time>2026-04-04T10:29:36.999Z</time></trkpt><trkpt lat="44.88117120596913" lon="9.469033752806963"><ele>540.0</ele><time>2026-04-04T10:29:39.999Z</time></trkpt><trkpt lat="44.881106768226026" lon="9.469013256313634"><ele>540.0</ele><time>2026-04-04T10:29:41.999Z</time></trkpt><trkpt lat="44.88108331642577" lon="9.468868759189514"><ele>540.0</ele><time>2026-04-04T10:29:43.999Z</time></trkpt><trkpt lat="44.881053011187426" lon="9.468729387240522"><ele>540.0</ele><time>2026-04-04T10:29:45.999Z</time></trkpt><trkpt lat="44.8810223320827" lon="9.468584014931281"><ele>540.0</ele><time>2026-04-04T10:29:47.999Z</time></trkpt><trkpt lat="44.881005077946476" lon="9.468490304518673"><ele>540.0</ele><time>2026-04-04T10:29:48.999Z</time></trkpt><trkpt lat="44.8809771922615" lon="9.468337406131333"><ele>540.0</ele><time>2026-04-04T10:29:50.999Z</time></trkpt><trkpt lat="44.88094853655438" lon="9.468215400259346"><ele>540.0</ele><time>2026-04-04T10:29:52.999Z</time></trkpt><trkpt lat="44.88092372007285" lon="9.468075329119849"><ele>540.0</ele><time>2026-04-04T10:29:54.998Z</time></trkpt><trkpt lat="44.88093310847186" lon="9.467949167917206"><ele>538.2</ele><time>2026-04-04T10:29:57Z</time></trkpt><trkpt lat="44.88093905898473" lon="9.467789559294136"><ele>536.4</ele><time>2026-04-04T10:29:59Z</time></trkpt><trkpt lat="44.88095301658876" lon="9.467671964480017"><ele>534.6</ele><time>2026-04-04T10:30:01Z</time></trkpt><trkpt lat="44.88097915446951" lon="9.467548490763594"><ele>532.8</ele><time>2026-04-04T10:30:03Z</time></trkpt><trkpt lat="44.88095221048102" lon="9.46744324354978"><ele>531.0</ele><time>2026-04-04T10:30:05Z</time></trkpt><trkpt lat="44.88086019798557" lon="9.467434082609259"><ele>528.8</ele><time>2026-04-04T10:30:07Z</time></trkpt><trkpt lat="44.880784520155274" lon="9.467529418537728"><ele>526.6</ele><time>2026-04-04T10:30:09Z</time></trkpt><trkpt lat="44.880738796046955" lon="9.4676617686245"><ele>524.4</ele><time>2026-04-04T10:30:11Z</time></trkpt><trkpt lat="44.88070106359337" lon="9.467802994475923"><ele>522.2</ele><time>2026-04-04T10:30:13Z</time></trkpt><trkpt lat="44.880658951191144" lon="9.467949328844352"><ele>520.0</ele><time>2026-04-04T10:30:15Z</time></trkpt><trkpt lat="44.8806350132183" lon="9.46803945398497"><ele>520.0000000000001</ele><time>2026-04-04T10:30:16Z</time></trkpt><trkpt lat="44.88061220384518" lon="9.468129329951914"><ele>520.0</ele><time>2026-04-04T10:30:17Z</time></trkpt><trkpt lat="44.88058945797988" lon="9.468223953992608"><ele>520.0</ele><time>2026-04-04T10:30:18Z</time></trkpt><trkpt lat="44.88056506420265" lon="9.468327242399639"><ele>520.0</ele><time>2026-04-04T10:30:19Z</time></trkpt><trkpt lat="44.880558354693704" lon="9.468436730100306"><ele>520.0</ele><time>2026-04-04T10:30:20Z</time></trkpt><trkpt lat="44.88052370623908" lon="9.468521533418174"><ele>520.0000000000001</ele><time>2026-04-04T10:30:21Z</time></trkpt><trkpt lat="44.88050191247096" lon="9.468606090202245"><ele>520.0</ele><time>2026-04-04T10:30:22Z</time></trkpt><trkpt lat="44.88043867123324" lon="9.468753799442565"><ele>520.0</ele><time>2026-04-04T10:30:24Z</time></trkpt><trkpt lat="44.88037271224144" lon="9.468854799880154"><ele>520.0</ele><time>2026-04-04T10:30:26Z</time></trkpt><trkpt lat="44.88031614497674" lon="9.468927098758066"><ele>520.0</ele><time>2026-04-04T10:30:28Z</time></trkpt><trkpt lat="44.88024676706212" lon="9.46900217859021"><ele>520.0</ele><time>2026-04-04T10:30:31Z</time></trkpt><trkpt lat="44.880176330928045" lon="9.468980203155592"><ele>520.0</ele><time>2026-04-04T10:30:35Z</time></trkpt><trkpt lat="44.88022683489707" lon="9.46886928966221"><ele>520.0</ele><time>2026-04-04T10:30:38Z</time></trkpt><trkpt lat="44.88030494745485" lon="9.468701709093784"><ele>520.0</ele><time>2026-04-04T10:30:40Z</time></trkpt><trkpt lat="44.880354271331775" lon="9.468619417562746"><ele>520.0</ele><time>2026-04-04T10:30:41Z</time></trkpt><trkpt lat="44.88038326810453" lon="9.468533874881171"><ele>520.0</ele><time>2026-04-04T10:30:42Z</time></trkpt><trkpt lat="44.88041081589008" lon="9.468356419323225"><ele>520.0</ele><time>2026-04-04T10:30:43.999Z</time></trkpt><trkpt lat="44.88041053994045" lon="9.468253517516557"><ele>520.0</ele><time>2026-04-04T10:30:44.999Z</time></trkpt><trkpt lat="44.88040954748109" lon="9.46815975255941"><ele>520.0</ele><time>2026-04-04T10:30:45.999Z</time></trkpt><trkpt lat="44.88038723600988" lon="9.468061134296384"><ele>518.8333333333334</ele><time>2026-04-04T10:30:46.999Z</time></trkpt><trkpt lat="44.880322647805095" lon="9.46791416291983"><ele>517.6666666666667</ele><time>2026-04-04T10:30:48.999Z</time></trkpt><trkpt lat="44.88026812420395" lon="9.467850820751211"><ele>516.5</ele><time>2026-04-04T10:30:49.999Z</time></trkpt><trkpt lat="44.880213110733905" lon="9.46779869538021"><ele>515.3333333333334</ele><time>2026-04-04T10:30:50.999Z</time></trkpt><trkpt lat="44.880143102792786" lon="9.467769106813023"><ele>514.1666666666666</ele><time>2026-04-04T10:30:51.999Z</time></trkpt><trkpt lat="44.88009285462773" lon="9.467689890653102"><ele>513.0</ele><time>2026-04-04T10:30:52.999Z</time></trkpt><trkpt lat="44.880062001516414" lon="9.467612389122765"><ele>509.0</ele><time>2026-04-04T10:30:53.999Z</time></trkpt><trkpt lat="44.87999364212312" lon="9.46753329476397"><ele>505.0</ele><time>2026-04-04T10:30:56.999Z</time></trkpt><trkpt lat="44.87991038594881" lon="9.467531161854664"><ele>501.0</ele><time>2026-04-04T10:30:59.999Z</time></trkpt><trkpt lat="44.87987168552671" lon="9.467625213515985"><ele>497.0</ele><time>2026-04-04T10:31:01.999Z</time></trkpt><trkpt lat="44.87991545831147" lon="9.467705226527844"><ele>493.0</ele><time>2026-04-04T10:31:02.999Z</time></trkpt><trkpt lat="44.87993410005066" lon="9.467821349453558"><ele>489.0</ele><time>2026-04-04T10:31:04.999Z</time></trkpt><trkpt lat="44.8799582611212" lon="9.467944193998033"><ele>489.0</ele><time>2026-04-04T10:31:06.999Z</time></trkpt><trkpt lat="44.879927421127974" lon="9.468040983417522"><ele>489.0</ele><time>2026-04-04T10:31:09.999Z</time></trkpt><trkpt lat="44.87985123965434" lon="9.46799730767381"><ele>489.0</ele><time>2026-04-04T10:31:12.999Z</time></trkpt><trkpt lat="44.87980808515885" lon="9.467879239697373"><ele>489.0</ele><time>2026-04-04T10:31:14.999Z</time></trkpt><trkpt lat="44.87974878061867" lon="9.467719420446448"><ele>489.0</ele><time>2026-04-04T10:31:16.999Z</time></trkpt><trkpt lat="44.87970974460398" lon="9.46762848411218"><ele>488.8333333333333</ele><time>2026-04-04T10:31:17.999Z</time></trkpt><trkpt lat="44.87966856866676" lon="9.467544544929082"><ele>488.66666666666663</ele><time>2026-04-04T10:31:18.999Z</time></trkpt><trkpt lat="44.87962150497033" lon="9.46746826120934"><ele>488.5</ele><time>2026-04-04T10:31:19.999Z</time></trkpt><trkpt lat="44.879585764021364" lon="9.467341238347899"><ele>488.3333333333333</ele><time>2026-04-04T10:31:21.999Z</time></trkpt><trkpt lat="44.87959200400002" lon="9.467215453691693"><ele>488.16666666666663</ele><time>2026-04-04T10:31:23.999Z</time></trkpt><trkpt lat="44.87964176540254" lon="9.467113749607789"><ele>488.0</ele><time>2026-04-04T10:31:25.999Z</time></trkpt><trkpt lat="44.879643771357514" lon="9.466957271801432"><ele>487.99999999999994</ele><time>2026-04-04T10:31:27.999Z</time></trkpt><trkpt lat="44.879566781034875" lon="9.466901086589491"><ele>488.0</ele><time>2026-04-04T10:31:28.999Z</time></trkpt><trkpt lat="44.87947707223277" lon="9.466926483415277"><ele>488.0</ele><time>2026-04-04T10:31:29.999Z</time></trkpt><trkpt lat="44.87939891218156" lon="9.466969205833758"><ele>488.0</ele><time>2026-04-04T10:31:30.999Z</time></trkpt><trkpt lat="44.87932757110687" lon="9.467026794211561"><ele>487.99999999999994</ele><time>2026-04-04T10:31:31.999Z</time></trkpt><trkpt lat="44.87928589449462" lon="9.467125870510255"><ele>488.0</ele><time>2026-04-04T10:31:32.999Z</time></trkpt><trkpt lat="44.8792298555625" lon="9.467175193185527"><ele>483.99999999999994</ele><time>2026-04-04T10:31:33.999Z</time></trkpt><trkpt lat="44.87914259841919" lon="9.467313513404784"><ele>480.0</ele><time>2026-04-04T10:31:35.999Z</time></trkpt><trkpt lat="44.87910564196259" lon="9.467386631090212"><ele>476.0</ele><time>2026-04-04T10:31:36.999Z</time></trkpt><trkpt lat="44.87906650071682" lon="9.467521036890584"><ele>472.0</ele><time>2026-04-04T10:31:38.999Z</time></trkpt><trkpt lat="44.87908511956846" lon="9.467620168557653"><ele>467.99999999999994</ele><time>2026-04-04T10:31:39.999Z</time></trkpt><trkpt lat="44.8791326985557" lon="9.467682336711924"><ele>464.0</ele><time>2026-04-04T10:31:40.999Z</time></trkpt><trkpt lat="44.879209716782526" lon="9.46783031321521"><ele>463.6</ele><time>2026-04-04T10:31:42.999Z</time></trkpt><trkpt lat="44.879202953946724" lon="9.46798237983691"><ele>463.2</ele><time>2026-04-04T10:31:44.999Z</time></trkpt><trkpt lat="44.879172338720196" lon="9.468149879362635"><ele>462.80000000000007</ele><time>2026-04-04T10:31:46.999Z</time></trkpt><trkpt lat="44.87916703994745" lon="9.468264265319892"><ele>462.40000000000003</ele><time>2026-04-04T10:31:47.999Z</time></trkpt><trkpt lat="44.87916546893911" lon="9.468358526353526"><ele>462.0</ele><time>2026-04-04T10:31:48.999Z</time></trkpt><trkpt lat="44.87914573796527" lon="9.468474555003333"><ele>462.0</ele><time>2026-04-04T10:31:50.999Z</time></trkpt><trkpt lat="44.8790683434086" lon="9.46850392050765"><ele>462.00000000000006</ele><time>2026-04-04T10:31:52.998Z</time></trkpt><trkpt lat="44.87896881517156" lon="9.468397669712415"><ele>462.00000000000006</ele><time>2026-04-04T10:31:54.998Z</time></trkpt><trkpt lat="44.87890984842541" lon="9.468340050111312"><ele>462.0</ele><time>2026-04-04T10:31:55.998Z</time></trkpt><trkpt lat="44.87882866758325" lon="9.468286997834024"><ele>462.0</ele><time>2026-04-04T10:31:56.998Z</time></trkpt><trkpt lat="44.8787609109034" lon="9.468190550375118"><ele>462.0</ele><time>2026-04-04T10:31:57.998Z</time></trkpt><trkpt lat="44.878709539180974" lon="9.468117880531848"><ele>462.0</ele><time>2026-04-04T10:31:58.998Z</time></trkpt><trkpt lat="44.8786547668744" lon="9.467998015580086"><ele>462.0</ele><time>2026-04-04T10:32:00.998Z</time></trkpt><trkpt lat="44.87860870371487" lon="9.467924352788705"><ele>462.0</ele><time>2026-04-04T10:32:03Z</time></trkpt><trkpt lat="44.87859276084958" lon="9.46782764057072"><ele>462.0</ele><time>2026-04-04T10:32:05Z</time></trkpt><trkpt lat="44.87856231219365" lon="9.467717550307087"><ele>462.0</ele><time>2026-04-04T10:32:07Z</time></trkpt><trkpt lat="44.87850326903974" lon="9.467647433161453"><ele>458.8333333333333</ele><time>2026-04-04T10:32:09Z</time></trkpt><trkpt lat="44.87841703145852" lon="9.467664832474062"><ele>455.66666666666663</ele><time>2026-04-04T10:32:11Z</time></trkpt><trkpt lat="44.878364989246585" lon="9.467762376620882"><ele>452.5</ele><time>2026-04-04T10:32:13Z</time></trkpt><trkpt lat="44.87834670011167" lon="9.467878784443664"><ele>449.3333333333333</ele><time>2026-04-04T10:32:17Z</time></trkpt><trkpt lat="44.878344237738965" lon="9.467983689548834"><ele>446.16666666666663</ele><time>2026-04-04T10:32:31Z</time></trkpt><trkpt lat="44.878345085813834" lon="9.46809186110068"><ele>443.0</ele><time>2026-04-04T10:32:33Z</time></trkpt><trkpt lat="44.878370639264205" lon="9.46818782231392"><ele>442.59999999999997</ele><time>2026-04-04T10:32:37Z</time></trkpt><trkpt lat="44.87838717273813" lon="9.468323126692894"><ele>442.19999999999993</ele><time>2026-04-04T10:32:40Z</time></trkpt><trkpt lat="44.878394774376744" lon="9.468450868654188"><ele>441.8</ele><time>2026-04-04T10:32:42Z</time></trkpt><trkpt lat="44.87840240862981" lon="9.468606377762388"><ele>441.4</ele><time>2026-04-04T10:32:44Z</time></trkpt><trkpt lat="44.878405605713795" lon="9.468778874157506"><ele>441.0</ele><time>2026-04-04T10:32:46Z</time></trkpt><trkpt lat="44.87842294595056" lon="9.468871318048603"><ele>445.4</ele><time>2026-04-04T10:32:47Z</time></trkpt><trkpt lat="44.87846307599527" lon="9.468951024737152"><ele>449.8</ele><time>2026-04-04T10:32:48Z</time></trkpt><trkpt lat="44.87849922645956" lon="9.469103197105145"><ele>454.19999999999993</ele><time>2026-04-04T10:32:50Z</time></trkpt><trkpt lat="44.878539966803565" lon="9.469257950874619"><ele>458.59999999999997</ele><time>2026-04-04T10:32:52Z</time></trkpt><trkpt lat="44.878532938362646" lon="9.469382079682994"><ele>463.0</ele><time>2026-04-04T10:32:53.999Z</time></trkpt><trkpt lat="44.87846305290785" lon="9.469452788532884"><ele>458.6666666666667</ele><time>2026-04-04T10:32:55.999Z</time></trkpt><trkpt lat="44.87837742868953" lon="9.469516731575807"><ele>454.33333333333337</ele><time>2026-04-04T10:32:58.999Z</time></trkpt><trkpt lat="44.87831797202609" lon="9.469594181895241"><ele>450.0</ele><time>2026-04-04T10:33:01.999Z</time></trkpt><trkpt lat="44.878266029891286" lon="9.469668079439517"><ele>445.66666666666663</ele><time>2026-04-04T10:33:16.999Z</time></trkpt><trkpt lat="44.87822093918406" lon="9.469771348422626"><ele>441.3333333333333</ele><time>2026-04-04T10:33:18.999Z</time></trkpt><trkpt lat="44.87817764999655" lon="9.469873745994004"><ele>437.0</ele><time>2026-04-04T10:33:20.999Z</time></trkpt><trkpt lat="44.87819229271494" lon="9.47002865042775"><ele>437.0</ele><time>2026-04-04T10:33:22.999Z</time></trkpt><trkpt lat="44.87818250373543" lon="9.47017807237433"><ele>437.00000000000006</ele><time>2026-04-04T10:33:24.999Z</time></trkpt><trkpt lat="44.87820455809055" lon="9.47035420588948"><ele>437.00000000000006</ele><time>2026-04-04T10:33:26.999Z</time></trkpt><trkpt lat="44.878220751553044" lon="9.470445613093732"><ele>437.0</ele><time>2026-04-04T10:33:27.999Z</time></trkpt><trkpt lat="44.878248145455544" lon="9.470603334031255"><ele>437.0</ele><time>2026-04-04T10:33:29.999Z</time></trkpt><trkpt lat="44.87827458185189" lon="9.470771353168422"><ele>435.6</ele><time>2026-04-04T10:33:31.999Z</time></trkpt><trkpt lat="44.87828953982685" lon="9.47086712776447"><ele>434.20000000000005</ele><time>2026-04-04T10:33:32.999Z</time></trkpt><trkpt lat="44.87830763015673" lon="9.470982958556577"><ele>432.8</ele><time>2026-04-04T10:33:33.999Z</time></trkpt><trkpt lat="44.878326503380215" lon="9.471100118055388"><ele>431.4</ele><time>2026-04-04T10:33:34.999Z</time></trkpt><trkpt lat="44.87834645345711" lon="9.471209637369224"><ele>430.0</ele><time>2026-04-04T10:33:35.999Z</time></trkpt><trkpt lat="44.87838327424212" lon="9.471388331841693"><ele>428.2857142857143</ele><time>2026-04-04T10:33:37.999Z</time></trkpt><trkpt lat="44.87840684568932" lon="9.471491166406182"><ele>426.5714285714286</ele><time>2026-04-04T10:33:38.999Z</time></trkpt><trkpt lat="44.87843001488561" lon="9.471583663105132"><ele>424.8571428571429</ele><time>2026-04-04T10:33:39.999Z</time></trkpt><trkpt lat="44.878460678448384" lon="9.47168830756126"><ele>423.1428571428571</ele><time>2026-04-04T10:33:40.999Z</time></trkpt><trkpt lat="44.878499454458506" lon="9.471778988805218"><ele>421.42857142857144</ele><time>2026-04-04T10:33:41.999Z</time></trkpt><trkpt lat="44.87852011789064" lon="9.471886267977775"><ele>419.7142857142857</ele><time>2026-04-04T10:33:42.999Z</time></trkpt><trkpt lat="44.87855731227082" lon="9.471962946221709"><ele>418.0</ele><time>2026-04-04T10:33:43.999Z</time></trkpt><trkpt lat="44.87860795141537" lon="9.472039878887884"><ele>422.6666666666667</ele><time>2026-04-04T10:33:44.999Z</time></trkpt><trkpt lat="44.87869099467443" lon="9.472140286034994"><ele>427.33333333333337</ele><time>2026-04-04T10:33:46.999Z</time></trkpt><trkpt lat="44.878737389167085" lon="9.47220166132739"><ele>432.0</ele><time>2026-04-04T10:33:47.999Z</time></trkpt><trkpt lat="44.87877511250295" lon="9.472295863174793"><ele>436.66666666666663</ele><time>2026-04-04T10:33:48.999Z</time></trkpt><trkpt lat="44.878784533457974" lon="9.472425406481058"><ele>441.3333333333333</ele><time>2026-04-04T10:33:49.999Z</time></trkpt><trkpt lat="44.87875437199605" lon="9.472525948367734"><ele>446.0</ele><time>2026-04-04T10:33:50.999Z</time></trkpt><trkpt lat="44.878732626004975" lon="9.47262903485786"><ele>446.0</ele><time>2026-04-04T10:33:51.999Z</time></trkpt><trkpt lat="44.87863750510974" lon="9.472719698689735"><ele>446.0</ele><time>2026-04-04T10:33:53.999Z</time></trkpt><trkpt lat="44.87856942243906" lon="9.472789214763724"><ele>446.0</ele><time>2026-04-04T10:33:54.999Z</time></trkpt><trkpt lat="44.87849189653429" lon="9.472936362736545"><ele>446.0</ele><time>2026-04-04T10:33:56.999Z</time></trkpt><trkpt lat="44.878473610345715" lon="9.473023469038532"><ele>446.0</ele><time>2026-04-04T10:33:57.999Z</time></trkpt><trkpt lat="44.87844105331029" lon="9.473178057031864"><ele>445.3333333333333</ele><time>2026-04-04T10:33:59.999Z</time></trkpt><trkpt lat="44.87844073449154" lon="9.473268261420198"><ele>444.66666666666663</ele><time>2026-04-04T10:34:00.999Z</time></trkpt><trkpt lat="44.87849665951319" lon="9.473355744587105"><ele>444.0</ele><time>2026-04-04T10:34:01.999Z</time></trkpt><trkpt lat="44.87851392974595" lon="9.47346191345318"><ele>443.33333333333337</ele><time>2026-04-04T10:34:02.999Z</time></trkpt><trkpt lat="44.87850314601919" lon="9.473637887529634"><ele>442.6666666666667</ele><time>2026-04-04T10:34:04.998Z</time></trkpt><trkpt lat="44.878486234977935" lon="9.473754437993884"><ele>442.0</ele><time>2026-04-04T10:34:05.998Z</time></trkpt><trkpt lat="44.87848365009783" lon="9.473889713060618"><ele>440.33333333333337</ele><time>2026-04-04T10:34:06.998Z</time></trkpt><trkpt lat="44.87845408628247" lon="9.474027369593182"><ele>438.6666666666667</ele><time>2026-04-04T10:34:07.998Z</time></trkpt><trkpt lat="44.87844190816377" lon="9.474136670110376"><ele>437.0</ele><time>2026-04-04T10:34:09Z</time></trkpt><trkpt lat="44.87843093050985" lon="9.474244355898545"><ele>435.33333333333337</ele><time>2026-04-04T10:34:10Z</time></trkpt><trkpt lat="44.87841073745829" lon="9.474340437917768"><ele>433.6666666666667</ele><time>2026-04-04T10:34:11Z</time></trkpt><trkpt lat="44.878389102666176" lon="9.474447136426365"><ele>432.0</ele><time>2026-04-04T10:34:12Z</time></trkpt><trkpt lat="44.87839132571608" lon="9.474562402974891"><ele>430.5</ele><time>2026-04-04T10:34:13Z</time></trkpt><trkpt lat="44.87843139769001" lon="9.474666602927028"><ele>429.0</ele><time>2026-04-04T10:34:14Z</time></trkpt><trkpt lat="44.87847964157104" lon="9.474743804337102"><ele>427.5</ele><time>2026-04-04T10:34:15Z</time></trkpt><trkpt lat="44.87854050670421" lon="9.47479351386907"><ele>426.0</ele><time>2026-04-04T10:34:16Z</time></trkpt><trkpt lat="44.878599978647046" lon="9.474844001130444"><ele>424.5</ele><time>2026-04-04T10:34:17Z</time></trkpt><trkpt lat="44.878671278475615" lon="9.47493274152966"><ele>423.0</ele><time>2026-04-04T10:34:18Z</time></trkpt><trkpt lat="44.878702959380284" lon="9.47502062830382"><ele>423.0</ele><time>2026-04-04T10:34:19Z</time></trkpt><trkpt lat="44.87874493170834" lon="9.475113054585517"><ele>423.0</ele><time>2026-04-04T10:34:20Z</time></trkpt><trkpt lat="44.878770321623634" lon="9.475203977380142"><ele>423.0</ele><time>2026-04-04T10:34:21Z</time></trkpt><trkpt lat="44.87879929702712" lon="9.47529859248223"><ele>423.0</ele><time>2026-04-04T10:34:22Z</time></trkpt><trkpt lat="44.87882414144653" lon="9.47540240262481"><ele>423.0</ele><time>2026-04-04T10:34:23Z</time></trkpt><trkpt lat="44.87884431192342" lon="9.47551618889895"><ele>423.0</ele><time>2026-04-04T10:34:24Z</time></trkpt><trkpt lat="44.878827589392586" lon="9.475656022307723"><ele>421.5</ele><time>2026-04-04T10:34:26Z</time></trkpt><trkpt lat="44.87879270474626" lon="9.475830396992798"><ele>420.0</ele><time>2026-04-04T10:34:28Z</time></trkpt><trkpt lat="44.87878238335528" lon="9.47604160968961"><ele>418.5</ele><time>2026-04-04T10:34:30Z</time></trkpt><trkpt lat="44.878804356723826" lon="9.476184818805983"><ele>417.0</ele><time>2026-04-04T10:34:31Z</time></trkpt><trkpt lat="44.87882074446344" lon="9.476311686184165"><ele>414.8333333333333</ele><time>2026-04-04T10:34:32Z</time></trkpt><trkpt lat="44.8788454489403" lon="9.47643114815612"><ele>412.66666666666663</ele><time>2026-04-04T10:34:33Z</time></trkpt><trkpt lat="44.878889978901434" lon="9.47652701931235"><ele>410.5</ele><time>2026-04-04T10:34:34Z</time></trkpt><trkpt lat="44.87893471246754" lon="9.476602034829696"><ele>408.3333333333333</ele><time>2026-04-04T10:34:35Z</time></trkpt><trkpt lat="44.87900280827283" lon="9.476648106087662"><ele>406.16666666666663</ele><time>2026-04-04T10:34:36Z</time></trkpt><trkpt lat="44.879077063177576" lon="9.476640896775466"><ele>404.0</ele><time>2026-04-04T10:34:37Z</time></trkpt><trkpt lat="44.8791402867358" lon="9.476685090760007"><ele>404.0</ele><time>2026-04-04T10:34:38Z</time></trkpt><trkpt lat="44.879209525327944" lon="9.476761865814034"><ele>404.0</ele><time>2026-04-04T10:34:40Z</time></trkpt><trkpt lat="44.87924989901783" lon="9.47692434755083"><ele>404.0</ele><time>2026-04-04T10:34:42Z</time></trkpt><trkpt lat="44.87929514340136" lon="9.477043411892877"><ele>404.0</ele><time>2026-04-04T10:34:43Z</time></trkpt><trkpt lat="44.87934139715992" lon="9.477133439954327"><ele>404.0</ele><time>2026-04-04T10:34:44Z</time></trkpt><trkpt lat="44.87938816857716" lon="9.477234956699464"><ele>404.6</ele><time>2026-04-04T10:34:45Z</time></trkpt><trkpt lat="44.879458055035606" lon="9.477324208537686"><ele>405.2</ele><time>2026-04-04T10:34:46Z</time></trkpt><trkpt lat="44.8795133336968" lon="9.477429116674582"><ele>405.8</ele><time>2026-04-04T10:34:47Z</time></trkpt><trkpt lat="44.879589550816654" lon="9.477514251778532"><ele>406.40000000000003</ele><time>2026-04-04T10:34:48Z</time></trkpt><trkpt lat="44.87965288009212" lon="9.477598627009254"><ele>407.0</ele><time>2026-04-04T10:34:49Z</time></trkpt><trkpt lat="44.879720249745745" lon="9.477693421527608"><ele>407.0</ele><time>2026-04-04T10:34:50Z</time></trkpt><trkpt lat="44.87977335768456" lon="9.477789848639702"><ele>407.0</ele><time>2026-04-04T10:34:51Z</time></trkpt><trkpt lat="44.879827572012346" lon="9.47786994774939"><ele>407.0</ele><time>2026-04-04T10:34:52Z</time></trkpt><trkpt lat="44.87993277568347" lon="9.477962259187601"><ele>407.0</ele><time>2026-04-04T10:34:54Z</time></trkpt><trkpt lat="44.880002477978636" lon="9.477972973967534"><ele>407.0</ele><time>2026-04-04T10:34:55Z</time></trkpt><trkpt lat="44.88013096400997" lon="9.477949415628823"><ele>408.0</ele><time>2026-04-04T10:34:57Z</time></trkpt><trkpt lat="44.88038991937558" lon="9.477924062469024"><ele>409.0</ele><time>2026-04-04T10:34:59.999Z</time></trkpt><trkpt lat="44.880477900977475" lon="9.477947854609004"><ele>410.0</ele><time>2026-04-04T10:35:00.999Z</time></trkpt><trkpt lat="44.88056412228101" lon="9.477952812538256"><ele>411.0</ele><time>2026-04-04T10:35:01.999Z</time></trkpt><trkpt lat="44.880727699152345" lon="9.47796902740074"><ele>408.5</ele><time>2026-04-04T10:35:03.999Z</time></trkpt><trkpt lat="44.880789696191115" lon="9.47802930439733"><ele>406.0</ele><time>2026-04-04T10:35:04.999Z</time></trkpt><trkpt lat="44.88084307071843" lon="9.478084728313753"><ele>403.5</ele><time>2026-04-04T10:35:05.999Z</time></trkpt><trkpt lat="44.88090178274074" lon="9.478226297038878"><ele>401.0</ele><time>2026-04-04T10:35:07.999Z</time></trkpt><trkpt lat="44.880936955885495" lon="9.47830814496793"><ele>398.5</ele><time>2026-04-04T10:35:08.999Z</time></trkpt><trkpt lat="44.88099671206312" lon="9.478376785524999"><ele>396.0</ele><time>2026-04-04T10:35:09.999Z</time></trkpt><trkpt lat="44.88106701783608" lon="9.478421263140266"><ele>396.0</ele><time>2026-04-04T10:35:10.999Z</time></trkpt><trkpt lat="44.8811263726745" lon="9.478464955966148"><ele>396.0</ele><time>2026-04-04T10:35:11.999Z</time></trkpt><trkpt lat="44.881180448435735" lon="9.47853090916986"><ele>396.0</ele><time>2026-04-04T10:35:12.999Z</time></trkpt><trkpt lat="44.88122915135288" lon="9.478595541949359"><ele>396.0</ele><time>2026-04-04T10:35:13.999Z</time></trkpt><trkpt lat="44.88132624828198" lon="9.478700723558704"><ele>396.0</ele><time>2026-04-04T10:35:15.999Z</time></trkpt><trkpt lat="44.88140448652598" lon="9.478734017531648"><ele>396.0</ele><time>2026-04-04T10:35:16.999Z</time></trkpt><trkpt lat="44.88148973240802" lon="9.478746930913688"><ele>392.20000000000005</ele><time>2026-04-04T10:35:17.999Z</time></trkpt><trkpt lat="44.88158852281681" lon="9.478775578471598"><ele>388.40000000000003</ele><time>2026-04-04T10:35:18.999Z</time></trkpt><trkpt lat="44.8816873380549" lon="9.478821576012345"><ele>384.6</ele><time>2026-04-04T10:35:19.999Z</time></trkpt><trkpt lat="44.8817805220161" lon="9.478887039594376"><ele>380.8</ele><time>2026-04-04T10:35:20.999Z</time></trkpt><trkpt lat="44.881852959889514" lon="9.478925223614658"><ele>377.0</ele><time>2026-04-04T10:35:21.999Z</time></trkpt><trkpt lat="44.881924807839376" lon="9.478979755863195"><ele>377.0</ele><time>2026-04-04T10:35:22.999Z</time></trkpt><trkpt lat="44.881982891095106" lon="9.479054952967832"><ele>377.0</ele><time>2026-04-04T10:35:23.999Z</time></trkpt><trkpt lat="44.88209227328571" lon="9.47911961540714"><ele>377.0</ele><time>2026-04-04T10:35:25.999Z</time></trkpt><trkpt lat="44.882154117952076" lon="9.479138893349209"><ele>377.0</ele><time>2026-04-04T10:35:26.999Z</time></trkpt><trkpt lat="44.88222596828579" lon="9.479133356344523"><ele>377.0</ele><time>2026-04-04T10:35:27.999Z</time></trkpt><trkpt lat="44.88231074330676" lon="9.47914952757357"><ele>377.0</ele><time>2026-04-04T10:35:28.999Z</time></trkpt><trkpt lat="44.8823910531236" lon="9.479165751522444"><ele>377.0</ele><time>2026-04-04T10:35:29.999Z</time></trkpt><trkpt lat="44.88247346773998" lon="9.479206288571609"><ele>377.0</ele><time>2026-04-04T10:35:30.999Z</time></trkpt><trkpt lat="44.88256651322906" lon="9.479265854160053"><ele>377.0</ele><time>2026-04-04T10:35:31.999Z</time></trkpt><trkpt lat="44.88267188659753" lon="9.479330524284649"><ele>377.0</ele><time>2026-04-04T10:35:32.999Z</time></trkpt><trkpt lat="44.882755090078625" lon="9.479376563247008"><ele>377.0</ele><time>2026-04-04T10:35:33.999Z</time></trkpt><trkpt lat="44.88282461035328" lon="9.479413916399876"><ele>377.20000000000005</ele><time>2026-04-04T10:35:34.999Z</time></trkpt><trkpt lat="44.88289624711208" lon="9.479421085303484"><ele>377.4</ele><time>2026-04-04T10:35:35.999Z</time></trkpt><trkpt lat="44.88296111313719" lon="9.47941389209306"><ele>377.6</ele><time>2026-04-04T10:35:36.999Z</time></trkpt><trkpt lat="44.88309374052863" lon="9.479457816812616"><ele>377.79999999999995</ele><time>2026-04-04T10:35:38.999Z</time></trkpt><trkpt lat="44.883178040412346" lon="9.479519427686943"><ele>378.0</ele><time>2026-04-04T10:35:39.999Z</time></trkpt><trkpt lat="44.88325984968243" lon="9.479598788625369"><ele>374.0</ele><time>2026-04-04T10:35:40.999Z</time></trkpt><trkpt lat="44.883356103676626" lon="9.479641207568593"><ele>370.0</ele><time>2026-04-04T10:35:41.999Z</time></trkpt><trkpt lat="44.88346100521707" lon="9.479671303728972"><ele>366.0</ele><time>2026-04-04T10:35:42.999Z</time></trkpt><trkpt lat="44.883575890667856" lon="9.47971112056576"><ele>362.0</ele><time>2026-04-04T10:35:43.999Z</time></trkpt><trkpt lat="44.88369330934926" lon="9.479746836791119"><ele>358.0</ele><time>2026-04-04T10:35:44.999Z</time></trkpt><trkpt lat="44.883914388401905" lon="9.479788302803016"><ele>358.0</ele><time>2026-04-04T10:35:46.999Z</time></trkpt><trkpt lat="44.88398369576885" lon="9.479864506705697"><ele>358.0</ele><time>2026-04-04T10:35:47.999Z</time></trkpt><trkpt lat="44.884048460698835" lon="9.479979242536492"><ele>358.0</ele><time>2026-04-04T10:35:48.999Z</time></trkpt><trkpt lat="44.884084099917025" lon="9.480119838018004"><ele>358.0</ele><time>2026-04-04T10:35:49.999Z</time></trkpt><trkpt lat="44.88412618653921" lon="9.480245806234915"><ele>358.0</ele><time>2026-04-04T10:35:50.999Z</time></trkpt><trkpt lat="44.88417874676477" lon="9.480394501909014"><ele>358.0</ele><time>2026-04-04T10:35:51.999Z</time></trkpt><trkpt lat="44.88422282821783" lon="9.48053365321247"><ele>358.0</ele><time>2026-04-04T10:35:52.999Z</time></trkpt><trkpt lat="44.88426871553091" lon="9.480648447236538"><ele>358.0</ele><time>2026-04-04T10:35:53.999Z</time></trkpt><trkpt lat="44.88431593340194" lon="9.480777203235585"><ele>358.0</ele><time>2026-04-04T10:35:54.999Z</time></trkpt><trkpt lat="44.884352009794334" lon="9.480884512930135"><ele>358.0</ele><time>2026-04-04T10:35:55.999Z</time></trkpt><trkpt lat="44.884386820448526" lon="9.480989991084645"><ele>358.0</ele><time>2026-04-04T10:35:56.999Z</time></trkpt><trkpt lat="44.88443141477939" lon="9.481078107170994"><ele>358.0</ele><time>2026-04-04T10:35:57.999Z</time></trkpt><trkpt lat="44.884486257465035" lon="9.48117499357354"><ele>358.0</ele><time>2026-04-04T10:35:58.999Z</time></trkpt><trkpt lat="44.88455815400975" lon="9.48129044993288"><ele>358.0</ele><time>2026-04-04T10:35:59.999Z</time></trkpt><trkpt lat="44.88463496445003" lon="9.481403112556034"><ele>358.0</ele><time>2026-04-04T10:36:00.999Z</time></trkpt><trkpt lat="44.884704506204926" lon="9.481501386267231"><ele>357.2</ele><time>2026-04-04T10:36:01.999Z</time></trkpt><trkpt lat="44.8847726606179" lon="9.48159453455572"><ele>356.4</ele><time>2026-04-04T10:36:02.999Z</time></trkpt><trkpt lat="44.884845946784" lon="9.481697539885179"><ele>355.59999999999997</ele><time>2026-04-04T10:36:03.999Z</time></trkpt><trkpt lat="44.88492088862553" lon="9.481800465075231"><ele>354.79999999999995</ele><time>2026-04-04T10:36:04.999Z</time></trkpt><trkpt lat="44.88499724254602" lon="9.481912134770427"><ele>354.0</ele><time>2026-04-04T10:36:05.999Z</time></trkpt><trkpt lat="44.88506136194408" lon="9.481997579532159"><ele>353.8333333333333</ele><time>2026-04-04T10:36:06.999Z</time></trkpt><trkpt lat="44.88512635612874" lon="9.48206526764518"><ele>353.6666666666667</ele><time>2026-04-04T10:36:07.999Z</time></trkpt><trkpt lat="44.885199222365436" lon="9.482122499616471"><ele>353.5</ele><time>2026-04-04T10:36:08.999Z</time></trkpt><trkpt lat="44.88528046263433" lon="9.48216616407647"><ele>353.33333333333337</ele><time>2026-04-04T10:36:09.999Z</time></trkpt><trkpt lat="44.885366306255335" lon="9.482178643692551"><ele>353.1666666666667</ele><time>2026-04-04T10:36:10.999Z</time></trkpt><trkpt lat="44.88544692519914" lon="9.482159502251324"><ele>353.0</ele><time>2026-04-04T10:36:11.999Z</time></trkpt><trkpt lat="44.8855309936674" lon="9.48213245552278"><ele>354.2</ele><time>2026-04-04T10:36:12.998Z</time></trkpt><trkpt lat="44.88560699317979" lon="9.482073181150604"><ele>355.4</ele><time>2026-04-04T10:36:13.998Z</time></trkpt><trkpt lat="44.88567968342132" lon="9.482015500529759"><ele>356.59999999999997</ele><time>2026-04-04T10:36:15Z</time></trkpt><trkpt lat="44.88576287293128" lon="9.481960538824872"><ele>357.79999999999995</ele><time>2026-04-04T10:36:16Z</time></trkpt><trkpt lat="44.88582819808258" lon="9.481929753809563"><ele>359.0</ele><time>2026-04-04T10:36:17Z</time></trkpt><trkpt lat="44.885952890506026" lon="9.481945600732569"><ele>360.0</ele><time>2026-04-04T10:36:19Z</time></trkpt><trkpt lat="44.88601156906898" lon="9.482041677375477"><ele>361.0</ele><time>2026-04-04T10:36:21Z</time></trkpt><trkpt lat="44.886032970804806" lon="9.48213641333742"><ele>362.0</ele><time>2026-04-04T10:36:22Z</time></trkpt><trkpt lat="44.88602732170866" lon="9.482242376269793"><ele>363.0</ele><time>2026-04-04T10:36:23Z</time></trkpt><trkpt lat="44.88600973594462" lon="9.48235618738231"><ele>364.0</ele><time>2026-04-04T10:36:24Z</time></trkpt><trkpt lat="44.88598846959186" lon="9.482451049378357"><ele>365.0</ele><time>2026-04-04T10:36:25Z</time></trkpt><trkpt lat="44.885986711201426" lon="9.482542021516476"><ele>365.0</ele><time>2026-04-04T10:36:26Z</time></trkpt><trkpt lat="44.886017063897484" lon="9.482659891989455"><ele>365.0</ele><time>2026-04-04T10:36:27Z</time></trkpt><trkpt lat="44.886085096115046" lon="9.482741921903846"><ele>365.0</ele><time>2026-04-04T10:36:28Z</time></trkpt><trkpt lat="44.886179869130714" lon="9.482807143412233"><ele>365.0</ele><time>2026-04-04T10:36:29Z</time></trkpt><trkpt lat="44.88628229650348" lon="9.482860326676601"><ele>365.0</ele><time>2026-04-04T10:36:30Z</time></trkpt><trkpt lat="44.88639597281881" lon="9.482934750050996"><ele>363.0</ele><time>2026-04-04T10:36:31Z</time></trkpt><trkpt lat="44.88651212375888" lon="9.483019379937533"><ele>361.0</ele><time>2026-04-04T10:36:32Z</time></trkpt><trkpt lat="44.886611423040094" lon="9.48310359427293"><ele>359.0</ele><time>2026-04-04T10:36:33Z</time></trkpt><trkpt lat="44.8866955635955" lon="9.483171276352945"><ele>357.0</ele><time>2026-04-04T10:36:34Z</time></trkpt><trkpt lat="44.886785864683624" lon="9.483248682121419"><ele>355.0</ele><time>2026-04-04T10:36:35Z</time></trkpt><trkpt lat="44.886867552010195" lon="9.483333576891496"><ele>356.0</ele><time>2026-04-04T10:36:36Z</time></trkpt><trkpt lat="44.88694327522971" lon="9.483425115508362"><ele>357.0</ele><time>2026-04-04T10:36:37Z</time></trkpt><trkpt lat="44.88700619578787" lon="9.483510663873371"><ele>358.0</ele><time>2026-04-04T10:36:38Z</time></trkpt><trkpt lat="44.887063455106045" lon="9.483628016500722"><ele>359.0</ele><time>2026-04-04T10:36:39Z</time></trkpt><trkpt lat="44.887100423845474" lon="9.48377322863536"><ele>360.0</ele><time>2026-04-04T10:36:40Z</time></trkpt><trkpt lat="44.88715185082394" lon="9.483900691733865"><ele>360.0</ele><time>2026-04-04T10:36:41Z</time></trkpt><trkpt lat="44.88718228525109" lon="9.484037025973027"><ele>360.0</ele><time>2026-04-04T10:36:42Z</time></trkpt><trkpt lat="44.88722126184232" lon="9.484142652086495"><ele>360.0</ele><time>2026-04-04T10:36:43Z</time></trkpt><trkpt lat="44.88726822297198" lon="9.484234564761197"><ele>360.0</ele><time>2026-04-04T10:36:44Z</time></trkpt><trkpt lat="44.887327770811346" lon="9.484295722063658"><ele>360.0</ele><time>2026-04-04T10:36:45Z</time></trkpt><trkpt lat="44.887406157088336" lon="9.484360414478207"><ele>360.0</ele><time>2026-04-04T10:36:46Z</time></trkpt><trkpt lat="44.88748531596849" lon="9.484450132997095"><ele>359.0</ele><time>2026-04-04T10:36:47Z</time></trkpt><trkpt lat="44.88759709794596" lon="9.48454134168122"><ele>358.0</ele><time>2026-04-04T10:36:48Z</time></trkpt><trkpt lat="44.88768187336625" lon="9.484613588351525"><ele>357.0</ele><time>2026-04-04T10:36:49Z</time></trkpt><trkpt lat="44.88775798460065" lon="9.484672757992119"><ele>356.0</ele><time>2026-04-04T10:36:50Z</time></trkpt><trkpt lat="44.88783250259288" lon="9.484723644747136"><ele>355.0</ele><time>2026-04-04T10:36:51Z</time></trkpt><trkpt lat="44.887916428612584" lon="9.484766783241058"><ele>355.0</ele><time>2026-04-04T10:36:52Z</time></trkpt><trkpt lat="44.88799948804876" lon="9.484780033572006"><ele>355.0</ele><time>2026-04-04T10:36:53Z</time></trkpt><trkpt lat="44.8880854259771" lon="9.48482022940799"><ele>355.0</ele><time>2026-04-04T10:36:54Z</time></trkpt><trkpt lat="44.888173988815296" lon="9.484909302423546"><ele>355.0</ele><time>2026-04-04T10:36:55Z</time></trkpt><trkpt lat="44.88826192923406" lon="9.485044034709636"><ele>355.0</ele><time>2026-04-04T10:36:56Z</time></trkpt><trkpt lat="44.88835758076854" lon="9.485168964899467"><ele>358.4</ele><time>2026-04-04T10:36:57Z</time></trkpt><trkpt lat="44.888450978649566" lon="9.485247402479281"><ele>361.8</ele><time>2026-04-04T10:36:58Z</time></trkpt><trkpt lat="44.88854641096882" lon="9.485283347079354"><ele>365.20000000000005</ele><time>2026-04-04T10:36:59Z</time></trkpt><trkpt lat="44.88864939734543" lon="9.48530931177262"><ele>368.6</ele><time>2026-04-04T10:37:00Z</time></trkpt><trkpt lat="44.88875723044134" lon="9.485304323512143"><ele>372.0</ele><time>2026-04-04T10:37:01Z</time></trkpt><trkpt lat="44.88887208086556" lon="9.485304341481235"><ele>372.0</ele><time>2026-04-04T10:37:02Z</time></trkpt><trkpt lat="44.888957826307795" lon="9.485381670875919"><ele>372.0</ele><time>2026-04-04T10:37:03Z</time></trkpt><trkpt lat="44.889014153315685" lon="9.485473822639607"><ele>372.0</ele><time>2026-04-04T10:37:04Z</time></trkpt><trkpt lat="44.88905929062504" lon="9.485568299529938"><ele>372.0</ele><time>2026-04-04T10:37:05Z</time></trkpt><trkpt lat="44.88906497294846" lon="9.485697614023453"><ele>372.0</ele><time>2026-04-04T10:37:05.999Z</time></trkpt><trkpt lat="44.88911576869981" lon="9.485799273364922"><ele>372.0</ele><time>2026-04-04T10:37:06.999Z</time></trkpt><trkpt lat="44.88917496736114" lon="9.485889270657351"><ele>373.7142857142857</ele><time>2026-04-04T10:37:07.999Z</time></trkpt><trkpt lat="44.88923279500805" lon="9.48594495502414"><ele>375.42857142857144</ele><time>2026-04-04T10:37:08.999Z</time></trkpt><trkpt lat="44.88928520069387" lon="9.485995600277521"><ele>377.1428571428571</ele><time>2026-04-04T10:37:09.999Z</time></trkpt><trkpt lat="44.88934861988369" lon="9.486026089256912"><ele>378.8571428571429</ele><time>2026-04-04T10:37:10.999Z</time></trkpt><trkpt lat="44.889409369992556" lon="9.486057234069108"><ele>380.57142857142856</ele><time>2026-04-04T10:37:11.999Z</time></trkpt><trkpt lat="44.88948901786149" lon="9.486049274802872"><ele>382.2857142857143</ele><time>2026-04-04T10:37:12.999Z</time></trkpt><trkpt lat="44.889560234947645" lon="9.486017574109741"><ele>384.0</ele><time>2026-04-04T10:37:13.999Z</time></trkpt><trkpt lat="44.88964133151082" lon="9.48605537846303"><ele>384.0</ele><time>2026-04-04T10:37:14.999Z</time></trkpt><trkpt lat="44.889718565472926" lon="9.48612137396222"><ele>384.0</ele><time>2026-04-04T10:37:15.999Z</time></trkpt><trkpt lat="44.889802559063064" lon="9.486202473391947"><ele>384.0</ele><time>2026-04-04T10:37:16.999Z</time></trkpt><trkpt lat="44.88988607021481" lon="9.486276549587158"><ele>384.0</ele><time>2026-04-04T10:37:17.999Z</time></trkpt><trkpt lat="44.88997033014076" lon="9.486375205073836"><ele>384.0</ele><time>2026-04-04T10:37:18.999Z</time></trkpt><trkpt lat="44.89003604231543" lon="9.486478073718967"><ele>383.0</ele><time>2026-04-04T10:37:19.999Z</time></trkpt><trkpt lat="44.89008963300733" lon="9.48658900428348"><ele>382.0</ele><time>2026-04-04T10:37:20.999Z</time></trkpt><trkpt lat="44.89016924194791" lon="9.486716588599117"><ele>381.0</ele><time>2026-04-04T10:37:21.999Z</time></trkpt><trkpt lat="44.89023663992261" lon="9.486812567028364"><ele>380.0</ele><time>2026-04-04T10:37:22.999Z</time></trkpt><trkpt lat="44.89026893191445" lon="9.486891611319535"><ele>379.0</ele><time>2026-04-04T10:37:23.999Z</time></trkpt><trkpt lat="44.89038446577047" lon="9.486976085804054"><ele>379.0</ele><time>2026-04-04T10:37:25.999Z</time></trkpt><trkpt lat="44.890457997289154" lon="9.486984792558895"><ele>379.0</ele><time>2026-04-04T10:37:26.999Z</time></trkpt><trkpt lat="44.89054334615334" lon="9.48698478775525"><ele>379.0</ele><time>2026-04-04T10:37:27.999Z</time></trkpt><trkpt lat="44.89062332625856" lon="9.486988757292146"><ele>379.0</ele><time>2026-04-04T10:37:28.999Z</time></trkpt><trkpt lat="44.89071824704185" lon="9.486999068417454"><ele>379.0</ele><time>2026-04-04T10:37:29.999Z</time></trkpt><trkpt lat="44.89081829303789" lon="9.487040041158755"><ele>379.0</ele><time>2026-04-04T10:37:30.999Z</time></trkpt><trkpt lat="44.89090541778084" lon="9.48709056582169"><ele>376.0</ele><time>2026-04-04T10:37:31.999Z</time></trkpt><trkpt lat="44.8910016721353" lon="9.48718838688892"><ele>373.0</ele><time>2026-04-04T10:37:32.999Z</time></trkpt><trkpt lat="44.891067421424104" lon="9.487294109604322"><ele>370.0</ele><time>2026-04-04T10:37:33.999Z</time></trkpt><trkpt lat="44.891129743880164" lon="9.48736515268721"><ele>367.0</ele><time>2026-04-04T10:37:34.999Z</time></trkpt><trkpt lat="44.89119831988262" lon="9.487435351464553"><ele>364.0</ele><time>2026-04-04T10:37:35.999Z</time></trkpt><trkpt lat="44.89126542045034" lon="9.487515041003192"><ele>364.0</ele><time>2026-04-04T10:37:36.999Z</time></trkpt><trkpt lat="44.89132792888459" lon="9.487571861063572"><ele>364.0</ele><time>2026-04-04T10:37:37.999Z</time></trkpt><trkpt lat="44.8913986989104" lon="9.487609917444312"><ele>364.0</ele><time>2026-04-04T10:37:38.999Z</time></trkpt><trkpt lat="44.89147639982968" lon="9.487603205253162"><ele>364.0</ele><time>2026-04-04T10:37:39.999Z</time></trkpt><trkpt lat="44.89155149941629" lon="9.487616824287985"><ele>364.0</ele><time>2026-04-04T10:37:40.999Z</time></trkpt><trkpt lat="44.891633213207804" lon="9.48764012255964"><ele>364.0</ele><time>2026-04-04T10:37:41.999Z</time></trkpt><trkpt lat="44.89170420964993" lon="9.487710984948933"><ele>364.6</ele><time>2026-04-04T10:37:42.999Z</time></trkpt><trkpt lat="44.891769476322345" lon="9.487815007329287"><ele>365.2</ele><time>2026-04-04T10:37:43.999Z</time></trkpt><trkpt lat="44.89181482077856" lon="9.48788774155929"><ele>365.8</ele><time>2026-04-04T10:37:44.999Z</time></trkpt><trkpt lat="44.89196800720868" lon="9.48784484467881"><ele>366.40000000000003</ele><time>2026-04-04T10:37:46.999Z</time></trkpt><trkpt lat="44.89204998657504" lon="9.487791725591586"><ele>367.0</ele><time>2026-04-04T10:37:47.999Z</time></trkpt><trkpt lat="44.892136112869004" lon="9.487772487899987"><ele>367.0</ele><time>2026-04-04T10:37:48.999Z</time></trkpt><trkpt lat="44.8922009474816" lon="9.487810479578139"><ele>367.0</ele><time>2026-04-04T10:37:49.999Z</time></trkpt><trkpt lat="44.89227042462206" lon="9.487887035628162"><ele>367.0</ele><time>2026-04-04T10:37:50.999Z</time></trkpt><trkpt lat="44.89240091476327" lon="9.488146176661802"><ele>367.0</ele><time>2026-04-04T10:37:52.999Z</time></trkpt><trkpt lat="44.892463560001744" lon="9.488282311239605"><ele>365.0</ele><time>2026-04-04T10:37:53.999Z</time></trkpt><trkpt lat="44.89254783669629" lon="9.488408850388415"><ele>363.0</ele><time>2026-04-04T10:37:54.999Z</time></trkpt><trkpt lat="44.892616061512804" lon="9.488495659296325"><ele>361.0</ele><time>2026-04-04T10:37:55.999Z</time></trkpt><trkpt lat="44.892675136405586" lon="9.488575622387904"><ele>359.0</ele><time>2026-04-04T10:37:56.999Z</time></trkpt><trkpt lat="44.89273272285404" lon="9.488634388287084"><ele>357.0</ele><time>2026-04-04T10:37:57.999Z</time></trkpt><trkpt lat="44.89279580396609" lon="9.488648321873898"><ele>355.0</ele><time>2026-04-04T10:37:58.999Z</time></trkpt><trkpt lat="44.89285928766474" lon="9.488616821598123"><ele>354.5</ele><time>2026-04-04T10:37:59.999Z</time></trkpt><trkpt lat="44.89293024635843" lon="9.488545405311356"><ele>354.0</ele><time>2026-04-04T10:38:00.999Z</time></trkpt><trkpt lat="44.89297983195959" lon="9.488470366531113"><ele>353.5</ele><time>2026-04-04T10:38:01.999Z</time></trkpt><trkpt lat="44.8930408770913" lon="9.48838544740177"><ele>353.0</ele><time>2026-04-04T10:38:02.999Z</time></trkpt><trkpt lat="44.89311358706509" lon="9.488320980797573"><ele>352.5</ele><time>2026-04-04T10:38:03.999Z</time></trkpt><trkpt lat="44.89320194117041" lon="9.488275010206195"><ele>352.0</ele><time>2026-04-04T10:38:04.999Z</time></trkpt><trkpt lat="44.893286594126394" lon="9.488238028011555"><ele>352.0</ele><time>2026-04-04T10:38:05.999Z</time></trkpt><trkpt lat="44.89334669073892" lon="9.488082980428631"><ele>352.0</ele><time>2026-04-04T10:38:07.999Z</time></trkpt><trkpt lat="44.89339175777408" lon="9.487977328355916"><ele>352.0</ele><time>2026-04-04T10:38:08.999Z</time></trkpt><trkpt lat="44.89344285595445" lon="9.487870315786033"><ele>352.0</ele><time>2026-04-04T10:38:09.999Z</time></trkpt><trkpt lat="44.89352328159835" lon="9.487789168631643"><ele>352.0</ele><time>2026-04-04T10:38:10.999Z</time></trkpt><trkpt lat="44.89360434472887" lon="9.487709370931602"><ele>353.8</ele><time>2026-04-04T10:38:11.999Z</time></trkpt><trkpt lat="44.89368557890933" lon="9.487641472538971"><ele>355.6</ele><time>2026-04-04T10:38:12.999Z</time></trkpt><trkpt lat="44.89375963345722" lon="9.487572882785253"><ele>357.40000000000003</ele><time>2026-04-04T10:38:13.999Z</time></trkpt><trkpt lat="44.89383903514409" lon="9.487525296655996"><ele>359.20000000000005</ele><time>2026-04-04T10:38:14.999Z</time></trkpt><trkpt lat="44.893915790524495" lon="9.487533271305209"><ele>361.0</ele><time>2026-04-04T10:38:15.999Z</time></trkpt><trkpt lat="44.894009353967476" lon="9.48763626060672"><ele>361.0</ele><time>2026-04-04T10:38:17.998Z</time></trkpt><trkpt lat="44.894023120633406" lon="9.487763669267835"><ele>361.0</ele><time>2026-04-04T10:38:18.998Z</time></trkpt><trkpt lat="44.89398915687002" lon="9.487944572278924"><ele>361.0</ele><time>2026-04-04T10:38:19.998Z</time></trkpt><trkpt lat="44.893985198052064" lon="9.488073506131762"><ele>361.0</ele><time>2026-04-04T10:38:21Z</time></trkpt><trkpt lat="44.89398477889145" lon="9.488180849231707"><ele>361.0</ele><time>2026-04-04T10:38:22Z</time></trkpt><trkpt lat="44.89396335590184" lon="9.48830649691393"><ele>360.20000000000005</ele><time>2026-04-04T10:38:23Z</time></trkpt><trkpt lat="44.89398244452846" lon="9.48840564256989"><ele>359.40000000000003</ele><time>2026-04-04T10:38:24Z</time></trkpt><trkpt lat="44.89400922835011" lon="9.488514643049625"><ele>358.6</ele><time>2026-04-04T10:38:25Z</time></trkpt><trkpt lat="44.894075357740945" lon="9.48863708405649"><ele>357.8</ele><time>2026-04-04T10:38:26Z</time></trkpt><trkpt lat="44.89414161729876" lon="9.48878133109568"><ele>357.0</ele><time>2026-04-04T10:38:27Z</time></trkpt><trkpt lat="44.894224292011984" lon="9.488931305403707"><ele>360.0</ele><time>2026-04-04T10:38:28Z</time></trkpt><trkpt lat="44.89427467478642" lon="9.489079124015296"><ele>363.0</ele><time>2026-04-04T10:38:29Z</time></trkpt><trkpt lat="44.89430725440455" lon="9.48921503249834"><ele>366.0</ele><time>2026-04-04T10:38:30Z</time></trkpt><trkpt lat="44.89433931561687" lon="9.489330289737335"><ele>369.0</ele><time>2026-04-04T10:38:31Z</time></trkpt><trkpt lat="44.89436412266008" lon="9.489460967675464"><ele>372.0</ele><time>2026-04-04T10:38:32Z</time></trkpt><trkpt lat="44.894374322190714" lon="9.4895952893458"><ele>372.0</ele><time>2026-04-04T10:38:33Z</time></trkpt><trkpt lat="44.894380905336234" lon="9.489747391682467"><ele>372.0</ele><time>2026-04-04T10:38:34Z</time></trkpt><trkpt lat="44.894381168138935" lon="9.489895964171671"><ele>372.0</ele><time>2026-04-04T10:38:35Z</time></trkpt><trkpt lat="44.89436585722184" lon="9.490033295503443"><ele>372.0</ele><time>2026-04-04T10:38:36Z</time></trkpt><trkpt lat="44.894349759393435" lon="9.490164377062442"><ele>372.0</ele><time>2026-04-04T10:38:37Z</time></trkpt><trkpt lat="44.89432895162283" lon="9.490296457226655"><ele>373.75</ele><time>2026-04-04T10:38:38Z</time></trkpt><trkpt lat="44.89427068033868" lon="9.4904339052025"><ele>375.5</ele><time>2026-04-04T10:38:39Z</time></trkpt><trkpt lat="44.89421463434401" lon="9.490590829827621"><ele>377.25</ele><time>2026-04-04T10:38:40Z</time></trkpt><trkpt lat="44.894176423336646" lon="9.49075671708444"><ele>379.0</ele><time>2026-04-04T10:38:41Z</time></trkpt><trkpt lat="44.89416421751978" lon="9.49088398454844"><ele>374.8333333333333</ele><time>2026-04-04T10:38:42Z</time></trkpt><trkpt lat="44.89414861671241" lon="9.491003250998803"><ele>370.66666666666663</ele><time>2026-04-04T10:38:43Z</time></trkpt><trkpt lat="44.89411929293791" lon="9.49112575295497"><ele>366.5</ele><time>2026-04-04T10:38:44Z</time></trkpt><trkpt lat="44.89409016469779" lon="9.491224284776395"><ele>362.3333333333333</ele><time>2026-04-04T10:38:45Z</time></trkpt><trkpt lat="44.89408805418267" lon="9.491352191983466"><ele>358.1666666666667</ele><time>2026-04-04T10:38:46Z</time></trkpt><trkpt lat="44.8941078318735" lon="9.491480595834844"><ele>354.0</ele><time>2026-04-04T10:38:47Z</time></trkpt><trkpt lat="44.89416442296232" lon="9.49158620070088"><ele>354.0</ele><time>2026-04-04T10:38:48Z</time></trkpt><trkpt lat="44.89425082146951" lon="9.491693834781287"><ele>354.0</ele><time>2026-04-04T10:38:49Z</time></trkpt><trkpt lat="44.894320939874966" lon="9.491777601314782"><ele>354.0</ele><time>2026-04-04T10:38:50Z</time></trkpt><trkpt lat="44.89434530090358" lon="9.491889208260407"><ele>354.0</ele><time>2026-04-04T10:38:51Z</time></trkpt><trkpt lat="44.894340536758456" lon="9.492002311092886"><ele>354.0</ele><time>2026-04-04T10:38:52Z</time></trkpt><trkpt lat="44.89431492333965" lon="9.4921245957839"><ele>355.5</ele><time>2026-04-04T10:38:53Z</time></trkpt><trkpt lat="44.894262761450214" lon="9.492209167198329"><ele>357.0</ele><time>2026-04-04T10:38:54Z</time></trkpt><trkpt lat="44.89419369199074" lon="9.492306014593254"><ele>358.5</ele><time>2026-04-04T10:38:55Z</time></trkpt><trkpt lat="44.89419689505861" lon="9.492433116175848"><ele>360.0</ele><time>2026-04-04T10:38:56Z</time></trkpt><trkpt lat="44.894237465318525" lon="9.492543106070304"><ele>361.5</ele><time>2026-04-04T10:38:57Z</time></trkpt><trkpt lat="44.89429057630213" lon="9.492632895749205"><ele>363.0</ele><time>2026-04-04T10:38:58Z</time></trkpt><trkpt lat="44.8943847308601" lon="9.492711837248983"><ele>363.0</ele><time>2026-04-04T10:38:59Z</time></trkpt><trkpt lat="44.894462811713645" lon="9.492789005315558"><ele>363.0</ele><time>2026-04-04T10:39:00Z</time></trkpt><trkpt lat="44.89454762088947" lon="9.492857444862116"><ele>363.0</ele><time>2026-04-04T10:39:01Z</time></trkpt><trkpt lat="44.89463092805278" lon="9.492856221090655"><ele>363.0</ele><time>2026-04-04T10:39:02Z</time></trkpt><trkpt lat="44.89472727572077" lon="9.492864191199297"><ele>363.0</ele><time>2026-04-04T10:39:03Z</time></trkpt><trkpt lat="44.894857690457904" lon="9.492831674187421"><ele>363.0</ele><time>2026-04-04T10:39:04Z</time></trkpt><trkpt lat="44.89498653376855" lon="9.49281067216869"><ele>363.0</ele><time>2026-04-04T10:39:05Z</time></trkpt><trkpt lat="44.895112104177215" lon="9.492776328900572"><ele>363.0</ele><time>2026-04-04T10:39:06Z</time></trkpt><trkpt lat="44.89524768160684" lon="9.492724058759995"><ele>363.0</ele><time>2026-04-04T10:39:06.999Z</time></trkpt><trkpt lat="44.895379709777735" lon="9.492689852157964"><ele>360.75</ele><time>2026-04-04T10:39:07.999Z</time></trkpt><trkpt lat="44.89550569168403" lon="9.492663146851262"><ele>358.5</ele><time>2026-04-04T10:39:08.999Z</time></trkpt><trkpt lat="44.89564844830009" lon="9.49262907443863"><ele>356.25</ele><time>2026-04-04T10:39:09.999Z</time></trkpt><trkpt lat="44.89578719776288" lon="9.492652097731252"><ele>354.0</ele><time>2026-04-04T10:39:10.999Z</time></trkpt><trkpt lat="44.89592816310223" lon="9.49267067776016"><ele>351.5</ele><time>2026-04-04T10:39:11.999Z</time></trkpt><trkpt lat="44.89607399641733" lon="9.492673410526889"><ele>349.0</ele><time>2026-04-04T10:39:12.999Z</time></trkpt><trkpt lat="44.89619625143984" lon="9.492692302425032"><ele>346.5</ele><time>2026-04-04T10:39:13.999Z</time></trkpt><trkpt lat="44.89632269692289" lon="9.492712972136154"><ele>344.0</ele><time>2026-04-04T10:39:14.999Z</time></trkpt><trkpt lat="44.896424248792684" lon="9.492748676156442"><ele>344.0</ele><time>2026-04-04T10:39:15.999Z</time></trkpt><trkpt lat="44.89651667835467" lon="9.492620485436682"><ele>344.0</ele><time>2026-04-04T10:39:16.999Z</time></trkpt><trkpt lat="44.896637075011924" lon="9.492536426094528"><ele>344.0</ele><time>2026-04-04T10:39:17.999Z</time></trkpt><trkpt lat="44.89675860752964" lon="9.492440268786014"><ele>344.0</ele><time>2026-04-04T10:39:18.999Z</time></trkpt><trkpt lat="44.89687664991263" lon="9.492405096204536"><ele>340.75</ele><time>2026-04-04T10:39:19.999Z</time></trkpt><trkpt lat="44.896992073157016" lon="9.492400455778553"><ele>337.5</ele><time>2026-04-04T10:39:20.999Z</time></trkpt><trkpt lat="44.89712369561903" lon="9.492439968377413"><ele>334.25</ele><time>2026-04-04T10:39:21.999Z</time></trkpt><trkpt lat="44.89723557436132" lon="9.492464059355733"><ele>331.0</ele><time>2026-04-04T10:39:22.999Z</time></trkpt><trkpt lat="44.89755881056424" lon="9.49245478621171"><ele>329.8</ele><time>2026-04-04T10:39:25.999Z</time></trkpt><trkpt lat="44.89766097824498" lon="9.492433018812804"><ele>328.6</ele><time>2026-04-04T10:39:26.999Z</time></trkpt><trkpt lat="44.89774101981521" lon="9.492338524760873"><ele>327.4</ele><time>2026-04-04T10:39:27.999Z</time></trkpt><trkpt lat="44.897788268343305" lon="9.492220968044071"><ele>326.2</ele><time>2026-04-04T10:39:28.999Z</time></trkpt><trkpt lat="44.897813209027255" lon="9.492110224137626"><ele>325.0</ele><time>2026-04-04T10:39:29.999Z</time></trkpt><trkpt lat="44.89783878281114" lon="9.491994179743976"><ele>325.0</ele><time>2026-04-04T10:39:30.999Z</time></trkpt><trkpt lat="44.89789072975651" lon="9.49187773798523"><ele>325.0</ele><time>2026-04-04T10:39:31.999Z</time></trkpt><trkpt lat="44.89795915441879" lon="9.491766544563404"><ele>325.0</ele><time>2026-04-04T10:39:32.999Z</time></trkpt><trkpt lat="44.898030616910624" lon="9.491677067418456"><ele>325.0</ele><time>2026-04-04T10:39:33.999Z</time></trkpt><trkpt lat="44.89811365455141" lon="9.491596978794824"><ele>325.0</ele><time>2026-04-04T10:39:34.999Z</time></trkpt><trkpt lat="44.89821710732911" lon="9.491560933142821"><ele>325.0</ele><time>2026-04-04T10:39:35.999Z</time></trkpt><trkpt lat="44.898313491077076" lon="9.491529259278078"><ele>325.0</ele><time>2026-04-04T10:39:36.999Z</time></trkpt><trkpt lat="44.898427983407124" lon="9.491518926260008"><ele>325.0</ele><time>2026-04-04T10:39:37.999Z</time></trkpt><trkpt lat="44.898547140956865" lon="9.491561234504346"><ele>325.0</ele><time>2026-04-04T10:39:38.999Z</time></trkpt><trkpt lat="44.89866476395589" lon="9.491568056358899"><ele>322.6</ele><time>2026-04-04T10:39:39.999Z</time></trkpt><trkpt lat="44.89878555624569" lon="9.491582188039555"><ele>320.2</ele><time>2026-04-04T10:39:40.999Z</time></trkpt><trkpt lat="44.8988894121485" lon="9.491589908150688"><ele>317.8</ele><time>2026-04-04T10:39:41.999Z</time></trkpt><trkpt lat="44.898972789522084" lon="9.491652615656964"><ele>315.4</ele><time>2026-04-04T10:39:42.999Z</time></trkpt><trkpt lat="44.89904979189297" lon="9.491727055515428"><ele>313.0</ele><time>2026-04-04T10:39:43.999Z</time></trkpt><trkpt lat="44.899124791950854" lon="9.49179530925164"><ele>313.0</ele><time>2026-04-04T10:39:44.999Z</time></trkpt><trkpt lat="44.89918394564035" lon="9.491837955991656"><ele>313.0</ele><time>2026-04-04T10:39:45.999Z</time></trkpt><trkpt lat="44.89926075850644" lon="9.491837778908703"><ele>313.0</ele><time>2026-04-04T10:39:46.999Z</time></trkpt><trkpt lat="44.89933914233016" lon="9.49178709320093"><ele>313.0</ele><time>2026-04-04T10:39:47.999Z</time></trkpt><trkpt lat="44.89941885989506" lon="9.491684329800993"><ele>313.0</ele><time>2026-04-04T10:39:48.999Z</time></trkpt><trkpt lat="44.89947784812942" lon="9.49155606211464"><ele>313.0</ele><time>2026-04-04T10:39:49.999Z</time></trkpt><trkpt lat="44.89954570467138" lon="9.491453279968663"><ele>314.3333333333333</ele><time>2026-04-04T10:39:50.999Z</time></trkpt><trkpt lat="44.8995675681489" lon="9.491368655611122"><ele>315.66666666666663</ele><time>2026-04-04T10:39:51.999Z</time></trkpt><trkpt lat="44.899636755670876" lon="9.491292403551519"><ele>317.0</ele><time>2026-04-04T10:39:52.999Z</time></trkpt><trkpt lat="44.899701433328644" lon="9.491244946745523"><ele>318.3333333333333</ele><time>2026-04-04T10:39:53.999Z</time></trkpt><trkpt lat="44.89978040611237" lon="9.491180392897967"><ele>319.6666666666667</ele><time>2026-04-04T10:39:55.999Z</time></trkpt><trkpt lat="44.89984804008316" lon="9.491175892298086"><ele>321.0</ele><time>2026-04-04T10:39:58.999Z</time></trkpt><trkpt lat="44.90002299923526" lon="9.491173475081117"><ele>317.2</ele><time>2026-04-04T10:43:34.999Z</time></trkpt><trkpt lat="44.90004169271762" lon="9.491334148340988"><ele>313.40000000000003</ele><time>2026-04-04T10:43:45.999Z</time></trkpt><trkpt lat="44.89997318594104" lon="9.491360790193717"><ele>309.6</ele><time>2026-04-04T10:43:46.999Z</time></trkpt><trkpt lat="44.899874302981104" lon="9.49142430732931"><ele>305.8</ele><time>2026-04-04T10:43:47.999Z</time></trkpt><trkpt lat="44.89982294427459" lon="9.491589161581436"><ele>302.0</ele><time>2026-04-04T10:43:48.999Z</time></trkpt><trkpt lat="44.89976284123659" lon="9.491798702996249"><ele>302.0</ele><time>2026-04-04T10:43:49.999Z</time></trkpt><trkpt lat="44.899720059554916" lon="9.491989456484964"><ele>302.0</ele><time>2026-04-04T10:43:50.999Z</time></trkpt><trkpt lat="44.89966823291496" lon="9.492134160555198"><ele>302.0</ele><time>2026-04-04T10:43:51.999Z</time></trkpt><trkpt lat="44.89960805324255" lon="9.4922209817987"><ele>302.0</ele><time>2026-04-04T10:43:52.999Z</time></trkpt><trkpt lat="44.899545643331535" lon="9.492295260400688"><ele>302.0</ele><time>2026-04-04T10:43:53.999Z</time></trkpt><trkpt lat="44.89944573635012" lon="9.492410237390493"><ele>301.6</ele><time>2026-04-04T10:43:54.999Z</time></trkpt><trkpt lat="44.89934617268316" lon="9.492518438631908"><ele>301.2</ele><time>2026-04-04T10:43:55.999Z</time></trkpt><trkpt lat="44.89928576211935" lon="9.492609358808071"><ele>300.8</ele><time>2026-04-04T10:43:56.999Z</time></trkpt><trkpt lat="44.89923206315064" lon="9.492686789467099"><ele>300.4</ele><time>2026-04-04T10:43:57.999Z</time></trkpt><trkpt lat="44.899162973310396" lon="9.492761657870979"><ele>300.0</ele><time>2026-04-04T10:43:58.999Z</time></trkpt><trkpt lat="44.89911247670492" lon="9.492836190910227"><ele>300.0</ele><time>2026-04-04T10:43:59.999Z</time></trkpt><trkpt lat="44.89905987656523" lon="9.492899437733161"><ele>300.0</ele><time>2026-04-04T10:44:00.999Z</time></trkpt><trkpt lat="44.89900124914425" lon="9.492977518752863"><ele>300.0</ele><time>2026-04-04T10:44:01.999Z</time></trkpt><trkpt lat="44.89892382226361" lon="9.493050817274566"><ele>300.0</ele><time>2026-04-04T10:44:02.999Z</time></trkpt><trkpt lat="44.898831065026336" lon="9.4931339568818"><ele>300.0</ele><time>2026-04-04T10:44:03.999Z</time></trkpt><trkpt lat="44.898735628612116" lon="9.493199298408697"><ele>298.5</ele><time>2026-04-04T10:44:04.999Z</time></trkpt><trkpt lat="44.89862850080916" lon="9.493258131266778"><ele>297.0</ele><time>2026-04-04T10:44:05.999Z</time></trkpt><trkpt lat="44.898516618082006" lon="9.493312216250017"><ele>295.5</ele><time>2026-04-04T10:44:06.999Z</time></trkpt><trkpt lat="44.898416215671936" lon="9.49335338469883"><ele>294.0</ele><time>2026-04-04T10:44:07.999Z</time></trkpt><trkpt lat="44.89829699423495" lon="9.493384449142955"><ele>294.0</ele><time>2026-04-04T10:44:08.999Z</time></trkpt><trkpt lat="44.89816491950169" lon="9.493426517257628"><ele>294.0</ele><time>2026-04-04T10:44:09.999Z</time></trkpt><trkpt lat="44.89802883751597" lon="9.493460310349281"><ele>294.0</ele><time>2026-04-04T10:44:10.999Z</time></trkpt><trkpt lat="44.8979095627623" lon="9.493485763201146"><ele>294.0</ele><time>2026-04-04T10:44:11.999Z</time></trkpt><trkpt lat="44.897801526316954" lon="9.49352191485286"><ele>294.0</ele><time>2026-04-04T10:44:12.999Z</time></trkpt><trkpt lat="44.89769947307294" lon="9.493546318270113"><ele>294.0</ele><time>2026-04-04T10:44:13.999Z</time></trkpt><trkpt lat="44.89760258972419" lon="9.493580146185527"><ele>294.0</ele><time>2026-04-04T10:44:14.999Z</time></trkpt><trkpt lat="44.897513663800574" lon="9.493614127818686"><ele>294.0</ele><time>2026-04-04T10:44:15.999Z</time></trkpt><trkpt lat="44.89742777682748" lon="9.493658612366346"><ele>294.0</ele><time>2026-04-04T10:44:16.999Z</time></trkpt><trkpt lat="44.897350990263504" lon="9.493671557926302"><ele>293.2</ele><time>2026-04-04T10:44:17.999Z</time></trkpt><trkpt lat="44.897271206694484" lon="9.493692568246528"><ele>292.4</ele><time>2026-04-04T10:44:18.999Z</time></trkpt><trkpt lat="44.897171204825625" lon="9.493722241055046"><ele>291.6</ele><time>2026-04-04T10:44:19.999Z</time></trkpt><trkpt lat="44.89706840811118" lon="9.493750982430202"><ele>290.8</ele><time>2026-04-04T10:44:20.999Z</time></trkpt><trkpt lat="44.896967564163674" lon="9.4937676277661"><ele>290.0</ele><time>2026-04-04T10:44:21.999Z</time></trkpt><trkpt lat="44.89687084214681" lon="9.493756925044064"><ele>293.0</ele><time>2026-04-04T10:44:22.999Z</time></trkpt><trkpt lat="44.89677019888937" lon="9.493734483397834"><ele>296.0</ele><time>2026-04-04T10:44:23.999Z</time></trkpt><trkpt lat="44.89666853767317" lon="9.493734152085135"><ele>299.0</ele><time>2026-04-04T10:44:24.999Z</time></trkpt><trkpt lat="44.89654214222625" lon="9.493745726394788"><ele>302.0</ele><time>2026-04-04T10:44:25.999Z</time></trkpt><trkpt lat="44.89641324963393" lon="9.493754269589843"><ele>300.25</ele><time>2026-04-04T10:44:26.999Z</time></trkpt><trkpt lat="44.89629021039901" lon="9.493780606523288"><ele>298.5</ele><time>2026-04-04T10:44:27.999Z</time></trkpt><trkpt lat="44.896171125187756" lon="9.49380073383594"><ele>296.75</ele><time>2026-04-04T10:44:28.999Z</time></trkpt><trkpt lat="44.89605192041835" lon="9.493812399458017"><ele>295.0</ele><time>2026-04-04T10:44:29.999Z</time></trkpt><trkpt lat="44.89589342515493" lon="9.493793036354452"><ele>295.0</ele><time>2026-04-04T10:44:30.999Z</time></trkpt><trkpt lat="44.89571620715412" lon="9.49379545191499"><ele>295.0</ele><time>2026-04-04T10:44:31.999Z</time></trkpt><trkpt lat="44.89557585072948" lon="9.493785864592445"><ele>295.0</ele><time>2026-04-04T10:44:32.998Z</time></trkpt><trkpt lat="44.89541748876163" lon="9.493764184725539"><ele>295.0</ele><time>2026-04-04T10:44:33.998Z</time></trkpt><trkpt lat="44.895259214658125" lon="9.493776613651763"><ele>295.0</ele><time>2026-04-04T10:44:34.998Z</time></trkpt><trkpt lat="44.89509671416858" lon="9.49378814196109"><ele>295.0</ele><time>2026-04-04T10:44:35.998Z</time></trkpt><trkpt lat="44.89496638659736" lon="9.493760326160988"><ele>300.5</ele><time>2026-04-04T10:44:36.998Z</time></trkpt><trkpt lat="44.89482724920826" lon="9.49375303728816"><ele>306.0</ele><time>2026-04-04T10:44:37.998Z</time></trkpt><trkpt lat="44.8946980124405" lon="9.493736304439826"><ele>311.5</ele><time>2026-04-04T10:44:39Z</time></trkpt><trkpt lat="44.89459811752941" lon="9.493719206386645"><ele>317.0</ele><time>2026-04-04T10:44:40Z</time></trkpt><trkpt lat="44.89450982866674" lon="9.49369054520782"><ele>317.0</ele><time>2026-04-04T10:44:41Z</time></trkpt><trkpt lat="44.89442601618148" lon="9.493657569879725"><ele>317.0</ele><time>2026-04-04T10:44:43Z</time></trkpt><trkpt lat="44.89435553963129" lon="9.493623827301816"><ele>317.0</ele><time>2026-04-04T10:44:47Z</time></trkpt><trkpt lat="44.894273231107405" lon="9.493620076399045"><ele>317.0</ele><time>2026-04-04T10:44:50Z</time></trkpt><trkpt lat="44.89414853225889" lon="9.493626703346946"><ele>317.0</ele><time>2026-04-04T10:44:52Z</time></trkpt><trkpt lat="44.89401072227615" lon="9.493647220255468"><ele>316.1666666666667</ele><time>2026-04-04T10:44:54Z</time></trkpt><trkpt lat="44.89393418413935" lon="9.493655921540508"><ele>315.33333333333337</ele><time>2026-04-04T10:44:55Z</time></trkpt><trkpt lat="44.893849892866776" lon="9.49362158984005"><ele>314.5</ele><time>2026-04-04T10:44:56Z</time></trkpt><trkpt lat="44.893771286965794" lon="9.49360194337495"><ele>313.6666666666667</ele><time>2026-04-04T10:44:57Z</time></trkpt><trkpt lat="44.89371148676062" lon="9.493638619699183"><ele>312.8333333333333</ele><time>2026-04-04T10:44:58Z</time></trkpt><trkpt lat="44.893652030209324" lon="9.493701478296494"><ele>312.0</ele><time>2026-04-04T10:44:59Z</time></trkpt><trkpt lat="44.89362675461377" lon="9.493793855684626"><ele>309.4</ele><time>2026-04-04T10:45:00Z</time></trkpt><trkpt lat="44.893633544960714" lon="9.493915005044224"><ele>306.79999999999995</ele><time>2026-04-04T10:45:01Z</time></trkpt><trkpt lat="44.89365456286538" lon="9.494026988542046"><ele>304.2</ele><time>2026-04-04T10:45:02Z</time></trkpt><trkpt lat="44.89369590916239" lon="9.494157928576039"><ele>301.59999999999997</ele><time>2026-04-04T10:45:03Z</time></trkpt><trkpt lat="44.893762196759454" lon="9.494300318397437"><ele>299.0</ele><time>2026-04-04T10:45:04Z</time></trkpt><trkpt lat="44.89383573569643" lon="9.494464283330595"><ele>300.0</ele><time>2026-04-04T10:45:05Z</time></trkpt><trkpt lat="44.89389362223986" lon="9.494590459331638"><ele>301.0</ele><time>2026-04-04T10:45:06Z</time></trkpt><trkpt lat="44.89394776875219" lon="9.494704060164453"><ele>302.0</ele><time>2026-04-04T10:45:07Z</time></trkpt><trkpt lat="44.89398383907883" lon="9.494817238087526"><ele>303.0</ele><time>2026-04-04T10:45:08Z</time></trkpt><trkpt lat="44.89401665288715" lon="9.4949519147613"><ele>304.0</ele><time>2026-04-04T10:45:09Z</time></trkpt><trkpt lat="44.89405227888467" lon="9.495108838044626"><ele>304.0</ele><time>2026-04-04T10:45:10Z</time></trkpt><trkpt lat="44.894069794094335" lon="9.495236811077696"><ele>304.0</ele><time>2026-04-04T10:45:11Z</time></trkpt><trkpt lat="44.89408628430247" lon="9.495397403984056"><ele>304.0</ele><time>2026-04-04T10:45:12Z</time></trkpt><trkpt lat="44.89408498426174" lon="9.49557138751188"><ele>304.0</ele><time>2026-04-04T10:45:13Z</time></trkpt><trkpt lat="44.89406516666451" lon="9.495723010586829"><ele>304.0</ele><time>2026-04-04T10:45:14Z</time></trkpt><trkpt lat="44.89404313306346" lon="9.495879723378671"><ele>305.25</ele><time>2026-04-04T10:45:15Z</time></trkpt><trkpt lat="44.89399856760991" lon="9.496025128893704"><ele>306.5</ele><time>2026-04-04T10:45:16Z</time></trkpt><trkpt lat="44.89396105974194" lon="9.496203617527353"><ele>307.75</ele><time>2026-04-04T10:45:17Z</time></trkpt><trkpt lat="44.893886003103496" lon="9.496427624069906"><ele>309.0</ele><time>2026-04-04T10:45:18Z</time></trkpt><trkpt lat="44.893844706712954" lon="9.496608063860677"><ele>309.8333333333333</ele><time>2026-04-04T10:45:19Z</time></trkpt><trkpt lat="44.89378456002966" lon="9.496748013764565"><ele>310.6666666666667</ele><time>2026-04-04T10:45:20Z</time></trkpt><trkpt lat="44.89376595191206" lon="9.496888615275804"><ele>311.5</ele><time>2026-04-04T10:45:21Z</time></trkpt><trkpt lat="44.89376147247576" lon="9.497001619516938"><ele>312.33333333333337</ele><time>2026-04-04T10:45:22Z</time></trkpt><trkpt lat="44.89378614352149" lon="9.497098534193173"><ele>313.1666666666667</ele><time>2026-04-04T10:45:23Z</time></trkpt><trkpt lat="44.89383266125913" lon="9.497176865311788"><ele>314.0</ele><time>2026-04-04T10:45:23.999Z</time></trkpt><trkpt lat="44.89390389755606" lon="9.497260774861777"><ele>314.5</ele><time>2026-04-04T10:45:24.999Z</time></trkpt><trkpt lat="44.89399293671891" lon="9.497311025927575"><ele>315.0</ele><time>2026-04-04T10:45:25.999Z</time></trkpt><trkpt lat="44.89407281278826" lon="9.497381770456057"><ele>315.5</ele><time>2026-04-04T10:45:26.999Z</time></trkpt><trkpt lat="44.89413461940601" lon="9.497430591371707"><ele>316.0</ele><time>2026-04-04T10:45:27.999Z</time></trkpt><trkpt lat="44.89416051146634" lon="9.497515465643492"><ele>316.5</ele><time>2026-04-04T10:45:28.999Z</time></trkpt><trkpt lat="44.894208949435914" lon="9.497664555572127"><ele>317.0</ele><time>2026-04-04T10:45:30.999Z</time></trkpt><trkpt lat="44.894228607723946" lon="9.497750161059372"><ele>317.0</ele><time>2026-04-04T10:45:31.999Z</time></trkpt><trkpt lat="44.89419444678108" lon="9.497852096424902"><ele>317.0</ele><time>2026-04-04T10:45:33.999Z</time></trkpt><trkpt lat="44.89413308964729" lon="9.4980240423685"><ele>317.0</ele><time>2026-04-04T10:48:14.999Z</time></trkpt><trkpt lat="44.894100868585824" lon="9.498126645372512"><ele>317.0</ele><time>2026-04-04T10:48:24.999Z</time></trkpt><trkpt lat="44.89401908526051" lon="9.498265916259003"><ele>317.0</ele><time>2026-04-04T10:48:31.999Z</time></trkpt><trkpt lat="44.89399593731144" lon="9.49836494641829"><ele>317.4</ele><time>2026-04-04T10:48:32.999Z</time></trkpt><trkpt lat="44.89397920003022" lon="9.49853449141936"><ele>317.79999999999995</ele><time>2026-04-04T10:48:34.999Z</time></trkpt><trkpt lat="44.89395571594199" lon="9.498629737335301"><ele>318.2</ele><time>2026-04-04T10:48:35.999Z</time></trkpt><trkpt lat="44.89389910932724" lon="9.498772835518839"><ele>318.59999999999997</ele><time>2026-04-04T10:48:37.999Z</time></trkpt><trkpt lat="44.89383667278011" lon="9.498918461394888"><ele>319.0</ele><time>2026-04-04T10:48:39.999Z</time></trkpt><trkpt lat="44.89381511874898" lon="9.499095168849987"><ele>319.8333333333333</ele><time>2026-04-04T10:48:41.999Z</time></trkpt><trkpt lat="44.893793895748196" lon="9.499205520789362"><ele>320.66666666666663</ele><time>2026-04-04T10:48:42.998Z</time></trkpt><trkpt lat="44.89376105545791" lon="9.499320809945951"><ele>321.5</ele><time>2026-04-04T10:48:43.998Z</time></trkpt><trkpt lat="44.89370788625499" lon="9.499417663334816"><ele>322.3333333333333</ele><time>2026-04-04T10:48:44.998Z</time></trkpt><trkpt lat="44.893682933951524" lon="9.499506301964772"><ele>323.1666666666667</ele><time>2026-04-04T10:48:45.998Z</time></trkpt><trkpt lat="44.89365225595853" lon="9.499599718059898"><ele>324.0</ele><time>2026-04-04T10:48:46.998Z</time></trkpt><trkpt lat="44.893616826293155" lon="9.49969537603457"><ele>325.0</ele><time>2026-04-04T10:48:47.998Z</time></trkpt><trkpt lat="44.893586356945036" lon="9.499792386373944"><ele>326.0</ele><time>2026-04-04T10:48:48.998Z</time></trkpt><trkpt lat="44.89355550066716" lon="9.499893958115058"><ele>327.0</ele><time>2026-04-04T10:48:49.998Z</time></trkpt><trkpt lat="44.89353540050079" lon="9.500030513377439"><ele>328.0</ele><time>2026-04-04T10:48:51Z</time></trkpt><trkpt lat="44.893517701424386" lon="9.500176202887774"><ele>329.0</ele><time>2026-04-04T10:48:52Z</time></trkpt><trkpt lat="44.89348438391011" lon="9.500294549901207"><ele>330.0</ele><time>2026-04-04T10:48:53Z</time></trkpt><trkpt lat="44.893480128642025" lon="9.500393134844291"><ele>331.2</ele><time>2026-04-04T10:48:54Z</time></trkpt><trkpt lat="44.89349180229701" lon="9.500570041547268"><ele>332.4</ele><time>2026-04-04T10:48:56Z</time></trkpt><trkpt lat="44.893505349003384" lon="9.500663426240637"><ele>333.6</ele><time>2026-04-04T10:48:57Z</time></trkpt><trkpt lat="44.89350688557549" lon="9.500868455469115"><ele>334.8</ele><time>2026-04-04T10:48:59Z</time></trkpt><trkpt lat="44.89350454695705" lon="9.500983166240731"><ele>336.0</ele><time>2026-04-04T10:49:00Z</time></trkpt><trkpt lat="44.89347653217338" lon="9.501110202789071"><ele>336.0</ele><time>2026-04-04T10:49:01Z</time></trkpt><trkpt lat="44.89345825663623" lon="9.50121525292166"><ele>336.0</ele><time>2026-04-04T10:49:02Z</time></trkpt><trkpt lat="44.89342557922004" lon="9.501304726365525"><ele>336.0</ele><time>2026-04-04T10:49:03Z</time></trkpt><trkpt lat="44.893399095014395" lon="9.501451511680036"><ele>336.0</ele><time>2026-04-04T10:49:05Z</time></trkpt><trkpt lat="44.893412619289634" lon="9.501542367360711"><ele>336.0</ele><time>2026-04-04T10:49:06Z</time></trkpt><trkpt lat="44.89345152406632" lon="9.501703196790148"><ele>336.0</ele><time>2026-04-04T10:49:08Z</time></trkpt><trkpt lat="44.89340629314241" lon="9.50184217479486"><ele>338.8333333333333</ele><time>2026-04-04T10:49:10Z</time></trkpt><trkpt lat="44.893356132807114" lon="9.501971616388792"><ele>341.6666666666667</ele><time>2026-04-04T10:49:12Z</time></trkpt><trkpt lat="44.89332139779866" lon="9.502114099844476"><ele>344.5</ele><time>2026-04-04T10:49:14Z</time></trkpt><trkpt lat="44.8932957135705" lon="9.502221291284279"><ele>347.33333333333337</ele><time>2026-04-04T10:49:16Z</time></trkpt><trkpt lat="44.893288843587364" lon="9.502309976929997"><ele>350.1666666666667</ele><time>2026-04-04T10:49:19Z</time></trkpt><trkpt lat="44.89324725351855" lon="9.502386344987869"><ele>353.0</ele><time>2026-04-04T10:50:22.999Z</time></trkpt><trkpt lat="44.893227860965666" lon="9.502488283427619"><ele>355.1666666666667</ele><time>2026-04-04T10:50:25.999Z</time></trkpt><trkpt lat="44.8932022658522" lon="9.50257910140695"><ele>357.33333333333337</ele><time>2026-04-04T10:50:27.999Z</time></trkpt><trkpt lat="44.89318089859048" lon="9.502662846591477"><ele>359.5</ele><time>2026-04-04T10:50:29.999Z</time></trkpt><trkpt lat="44.893149623697916" lon="9.502751336699292"><ele>361.6666666666667</ele><time>2026-04-04T10:50:31.999Z</time></trkpt><trkpt lat="44.89308913472854" lon="9.502852871964274"><ele>363.8333333333333</ele><time>2026-04-04T10:50:33.999Z</time></trkpt><trkpt lat="44.8930262875706" lon="9.502940771695865"><ele>366.0</ele><time>2026-04-04T10:50:35.999Z</time></trkpt><trkpt lat="44.89296719051106" lon="9.503047998943698"><ele>367.0</ele><time>2026-04-04T10:50:37.999Z</time></trkpt><trkpt lat="44.892914748343" lon="9.503165513955503"><ele>368.0</ele><time>2026-04-04T10:50:39.999Z</time></trkpt><trkpt lat="44.89288055721666" lon="9.503287292346933"><ele>369.0</ele><time>2026-04-04T10:50:41.999Z</time></trkpt><trkpt lat="44.89285812610975" lon="9.503415065676982"><ele>370.0</ele><time>2026-04-04T10:50:43.999Z</time></trkpt><trkpt lat="44.89282081509643" lon="9.503546495118034"><ele>371.0</ele><time>2026-04-04T10:50:45.999Z</time></trkpt><trkpt lat="44.892762354032264" lon="9.503639242497941"><ele>371.0</ele><time>2026-04-04T10:50:47.999Z</time></trkpt><trkpt lat="44.89269799616154" lon="9.50374606011538"><ele>371.0</ele><time>2026-04-04T10:50:49.998Z</time></trkpt><trkpt lat="44.89262935555664" lon="9.503827928503293"><ele>371.0</ele><time>2026-04-04T10:50:51.998Z</time></trkpt><trkpt lat="44.89254793361015" lon="9.503874120643076"><ele>371.0</ele><time>2026-04-04T10:50:53.998Z</time></trkpt><trkpt lat="44.89249311783622" lon="9.503944754140209"><ele>371.0</ele><time>2026-04-04T10:50:55.998Z</time></trkpt><trkpt lat="44.89245035734973" lon="9.504058419950411"><ele>371.0</ele><time>2026-04-04T10:50:58Z</time></trkpt><trkpt lat="44.89242222004417" lon="9.504178847152511"><ele>376.20000000000005</ele><time>2026-04-04T10:51:00Z</time></trkpt><trkpt lat="44.892386791927" lon="9.504302376918474"><ele>381.40000000000003</ele><time>2026-04-04T10:51:02Z</time></trkpt><trkpt lat="44.892346003289894" lon="9.504413849170513"><ele>386.6</ele><time>2026-04-04T10:51:04Z</time></trkpt><trkpt lat="44.89231310395171" lon="9.504519964389273"><ele>391.8</ele><time>2026-04-04T10:51:06Z</time></trkpt><trkpt lat="44.892271332957826" lon="9.504631313344102"><ele>397.0</ele><time>2026-04-04T10:51:09Z</time></trkpt><trkpt lat="44.8921612963521" lon="9.504818292007807"><ele>398.20000000000005</ele><time>2026-04-04T10:51:39Z</time></trkpt><trkpt lat="44.89210901618534" lon="9.504890562081432"><ele>399.4</ele><time>2026-04-04T10:51:41Z</time></trkpt><trkpt lat="44.89202230388109" lon="9.504939644275646"><ele>400.6</ele><time>2026-04-04T10:51:43Z</time></trkpt><trkpt lat="44.89194970818032" lon="9.505038982355765"><ele>401.79999999999995</ele><time>2026-04-04T10:51:44.999Z</time></trkpt><trkpt lat="44.891908917413126" lon="9.505166505752248"><ele>403.0</ele><time>2026-04-04T10:51:46.999Z</time></trkpt><trkpt lat="44.89187420716864" lon="9.505293391788278"><ele>403.00000000000006</ele><time>2026-04-04T10:51:48.999Z</time></trkpt><trkpt lat="44.89180767759389" lon="9.505388768736191"><ele>403.0</ele><time>2026-04-04T10:51:50.999Z</time></trkpt><trkpt lat="44.891750398383515" lon="9.505485433611137"><ele>403.0</ele><time>2026-04-04T10:51:52.999Z</time></trkpt><trkpt lat="44.891704177036154" lon="9.505583803484571"><ele>403.0</ele><time>2026-04-04T10:51:54.999Z</time></trkpt><trkpt lat="44.89165410296595" lon="9.505638205902466"><ele>403.00000000000006</ele><time>2026-04-04T10:51:56.999Z</time></trkpt><trkpt lat="44.89159148620884" lon="9.50558941872287"><ele>403.0</ele><time>2026-04-04T10:51:58.999Z</time></trkpt><trkpt lat="44.891576892402625" lon="9.505475168156204"><ele>406.6666666666667</ele><time>2026-04-04T10:52:00.999Z</time></trkpt><trkpt lat="44.89156624195896" lon="9.505375880098194"><ele>410.33333333333337</ele><time>2026-04-04T10:52:01.999Z</time></trkpt><trkpt lat="44.89148640946678" lon="9.50524913065503"><ele>414.0</ele><time>2026-04-04T10:52:03.999Z</time></trkpt><trkpt lat="44.891436768384736" lon="9.505182222691811"><ele>417.66666666666663</ele><time>2026-04-04T10:52:05.999Z</time></trkpt><trkpt lat="44.891372185838165" lon="9.50506262012749"><ele>421.3333333333333</ele><time>2026-04-04T10:52:07.999Z</time></trkpt><trkpt lat="44.89130337316789" lon="9.505001841305354"><ele>425.0</ele><time>2026-04-04T10:52:08.999Z</time></trkpt><trkpt lat="44.89123719912171" lon="9.504989169171184"><ele>425.0</ele><time>2026-04-04T10:52:09.999Z</time></trkpt><trkpt lat="44.89113463148692" lon="9.50503823355408"><ele>425.0</ele><time>2026-04-04T10:52:11.999Z</time></trkpt><trkpt lat="44.89104382991641" lon="9.505100255411769"><ele>425.0</ele><time>2026-04-04T10:52:13.999Z</time></trkpt><trkpt lat="44.89097523211702" lon="9.505133805312072"><ele>425.0</ele><time>2026-04-04T10:52:14.999Z</time></trkpt><trkpt lat="44.890888736604246" lon="9.505192120405717"><ele>425.0</ele><time>2026-04-04T10:52:16.999Z</time></trkpt><trkpt lat="44.89079353001313" lon="9.505249715133477"><ele>428.2</ele><time>2026-04-04T10:52:18.999Z</time></trkpt><trkpt lat="44.890695142287235" lon="9.505312562128829"><ele>431.4</ele><time>2026-04-04T10:52:20.999Z</time></trkpt><trkpt lat="44.89062137197338" lon="9.505429783706514"><ele>434.6</ele><time>2026-04-04T10:52:22.999Z</time></trkpt><trkpt lat="44.89054092618451" lon="9.505536755273836"><ele>437.8</ele><time>2026-04-04T10:52:24.999Z</time></trkpt><trkpt lat="44.89050959585259" lon="9.505637910105852"><ele>441.0</ele><time>2026-04-04T10:52:28.999Z</time></trkpt><trkpt lat="44.89046393699974" lon="9.505716301383563"><ele>443.6</ele><time>2026-04-04T10:55:05.998Z</time></trkpt><trkpt lat="44.89042451555564" lon="9.505829556292847"><ele>446.20000000000005</ele><time>2026-04-04T10:55:07.998Z</time></trkpt><trkpt lat="44.89037852316177" lon="9.505979958182088"><ele>448.79999999999995</ele><time>2026-04-04T10:55:10Z</time></trkpt><trkpt lat="44.890337075575474" lon="9.506086615871839"><ele>451.4</ele><time>2026-04-04T10:55:12Z</time></trkpt><trkpt lat="44.89029433398415" lon="9.506189623378786"><ele>454.0</ele><time>2026-04-04T10:55:14Z</time></trkpt><trkpt lat="44.89021753223584" lon="9.506245726851793"><ele>454.00000000000006</ele><time>2026-04-04T10:55:16Z</time></trkpt><trkpt lat="44.89011929340707" lon="9.506240086195424"><ele>454.0</ele><time>2026-04-04T10:55:18Z</time></trkpt><trkpt lat="44.89003263181619" lon="9.506189499291299"><ele>454.0</ele><time>2026-04-04T10:55:20Z</time></trkpt><trkpt lat="44.889960925041414" lon="9.506256609782671"><ele>454.0</ele><time>2026-04-04T10:55:23Z</time></trkpt><trkpt lat="44.88997068234838" lon="9.506359578289418"><ele>454.00000000000006</ele><time>2026-04-04T10:55:25Z</time></trkpt><trkpt lat="44.890016351509765" lon="9.506461528324165"><ele>454.0</ele><time>2026-04-04T10:55:27Z</time></trkpt><trkpt lat="44.89014600358876" lon="9.50653264869418"><ele>454.2</ele><time>2026-04-04T10:55:29Z</time></trkpt><trkpt lat="44.89022217359412" lon="9.506561326714209"><ele>454.4</ele><time>2026-04-04T10:55:31Z</time></trkpt><trkpt lat="44.89032993849079" lon="9.506533536261"><ele>454.6</ele><time>2026-04-04T10:55:33Z</time></trkpt><trkpt lat="44.89042385161586" lon="9.506513628132542"><ele>454.8</ele><time>2026-04-04T10:55:35Z</time></trkpt><trkpt lat="44.89047894420331" lon="9.506582687967677"><ele>455.0</ele><time>2026-04-04T10:55:37Z</time></trkpt><trkpt lat="44.89051162227026" lon="9.506704998339089"><ele>455.0</ele><time>2026-04-04T10:55:39Z</time></trkpt><trkpt lat="44.89048646110862" lon="9.506812992975624"><ele>455.0</ele><time>2026-04-04T10:55:42Z</time></trkpt><trkpt lat="44.89048936381054" lon="9.506987329701296"><ele>455.0</ele><time>2026-04-04T11:14:26Z</time></trkpt><trkpt lat="44.89045640212949" lon="9.507083299019204"><ele>455.0</ele><time>2026-04-04T11:14:28Z</time></trkpt><trkpt lat="44.89044032418285" lon="9.507181096710553"><ele>455.0</ele><time>2026-04-04T11:14:30Z</time></trkpt><trkpt lat="44.8904295814027" lon="9.507321849106244"><ele>455.0</ele><time>2026-04-04T11:14:32Z</time></trkpt><trkpt lat="44.890446062825184" lon="9.507414202653695"><ele>455.0</ele><time>2026-04-04T11:14:33Z</time></trkpt><trkpt lat="44.89046068296719" lon="9.507513822271639"><ele>455.0</ele><time>2026-04-04T11:14:34Z</time></trkpt><trkpt lat="44.89049729706278" lon="9.507632342108561"><ele>455.0</ele><time>2026-04-04T11:14:36Z</time></trkpt><trkpt lat="44.89057179940513" lon="9.507765121884418"><ele>455.0</ele><time>2026-04-04T11:14:38Z</time></trkpt><trkpt lat="44.890614431844625" lon="9.50790183585895"><ele>455.4</ele><time>2026-04-04T11:14:40Z</time></trkpt><trkpt lat="44.890564973249084" lon="9.507991993346414"><ele>455.8</ele><time>2026-04-04T11:14:41Z</time></trkpt><trkpt lat="44.89054258798225" lon="9.508121431174166"><ele>456.20000000000005</ele><time>2026-04-04T11:14:42Z</time></trkpt><trkpt lat="44.890586068376976" lon="9.508297602788394"><ele>456.6</ele><time>2026-04-04T11:14:44Z</time></trkpt><trkpt lat="44.89060648509691" lon="9.508411981479764"><ele>457.0</ele><time>2026-04-04T11:14:45Z</time></trkpt><trkpt lat="44.89062437809179" lon="9.508542216374282"><ele>457.0</ele><time>2026-04-04T11:14:46Z</time></trkpt><trkpt lat="44.89063258890358" lon="9.508671197309798"><ele>457.00000000000006</ele><time>2026-04-04T11:14:47Z</time></trkpt><trkpt lat="44.89066980601408" lon="9.508839786223689"><ele>457.00000000000006</ele><time>2026-04-04T11:14:49Z</time></trkpt><trkpt lat="44.89069810707811" lon="9.508942853900423"><ele>457.0</ele><time>2026-04-04T11:14:50Z</time></trkpt><trkpt lat="44.89071844833027" lon="9.509049257651297"><ele>457.0</ele><time>2026-04-04T11:14:51Z</time></trkpt><trkpt lat="44.890748696606835" lon="9.509149509880999"><ele>457.8</ele><time>2026-04-04T11:14:52Z</time></trkpt><trkpt lat="44.89079862252279" lon="9.509308847967558"><ele>458.6</ele><time>2026-04-04T11:14:54Z</time></trkpt><trkpt lat="44.89081558624556" lon="9.509469102779976"><ele>459.40000000000003</ele><time>2026-04-04T11:14:56Z</time></trkpt><trkpt lat="44.890810941760996" lon="9.509581057006818"><ele>460.20000000000005</ele><time>2026-04-04T11:14:57Z</time></trkpt><trkpt lat="44.890801315163685" lon="9.509673318190563"><ele>461.0</ele><time>2026-04-04T11:14:58Z</time></trkpt><trkpt lat="44.89076498908309" lon="9.509814407585965"><ele>462.4</ele><time>2026-04-04T11:14:59Z</time></trkpt><trkpt lat="44.89075065017406" lon="9.509925755932306"><ele>463.8</ele><time>2026-04-04T11:15:00Z</time></trkpt><trkpt lat="44.89074599099231" lon="9.510123415368565"><ele>465.19999999999993</ele><time>2026-04-04T11:15:02Z</time></trkpt><trkpt lat="44.89075351662008" lon="9.510256579440084"><ele>466.59999999999997</ele><time>2026-04-04T11:15:03Z</time></trkpt><trkpt lat="44.89076476413408" lon="9.510384095996013"><ele>468.0</ele><time>2026-04-04T11:15:04Z</time></trkpt><trkpt lat="44.890794870249486" lon="9.510550142921545"><ele>468.0</ele><time>2026-04-04T11:15:05.999Z</time></trkpt><trkpt lat="44.890837952123476" lon="9.510672875763726"><ele>467.99999999999994</ele><time>2026-04-04T11:15:07.999Z</time></trkpt><trkpt lat="44.89082286473156" lon="9.510792382132419"><ele>467.99999999999994</ele><time>2026-04-04T11:15:09.999Z</time></trkpt><trkpt lat="44.89074967045193" lon="9.510905245102505"><ele>468.0</ele><time>2026-04-04T11:15:11.999Z</time></trkpt><trkpt lat="44.890671513523245" lon="9.510986974592857"><ele>468.0</ele><time>2026-04-04T11:15:13.999Z</time></trkpt><trkpt lat="44.89057384833818" lon="9.510968031000886"><ele>468.0</ele><time>2026-04-04T11:15:14.999Z</time></trkpt><trkpt lat="44.89050445770456" lon="9.510999708745393"><ele>468.0</ele><time>2026-04-04T11:15:15.999Z</time></trkpt><trkpt lat="44.89042639290522" lon="9.511096292324858"><ele>468.0</ele><time>2026-04-04T11:15:17.999Z</time></trkpt><trkpt lat="44.890395884519684" lon="9.511179236935508"><ele>468.0</ele><time>2026-04-04T11:15:18.999Z</time></trkpt><trkpt lat="44.89037068747001" lon="9.511328080262802"><ele>468.0</ele><time>2026-04-04T11:15:20.999Z</time></trkpt><trkpt lat="44.89041948644047" lon="9.511436569028318"><ele>468.0</ele><time>2026-04-04T11:15:21.999Z</time></trkpt><trkpt lat="44.89046417252988" lon="9.511525469150087"><ele>468.2</ele><time>2026-04-04T11:15:22.999Z</time></trkpt><trkpt lat="44.89053374229823" lon="9.511634244658621"><ele>468.4</ele><time>2026-04-04T11:15:23.999Z</time></trkpt><trkpt lat="44.890596839452236" lon="9.511719689006116"><ele>468.59999999999997</ele><time>2026-04-04T11:15:24.999Z</time></trkpt><trkpt lat="44.89065345574057" lon="9.511842493094434"><ele>468.79999999999995</ele><time>2026-04-04T11:15:25.999Z</time></trkpt><trkpt lat="44.890730021468634" lon="9.51190609897399"><ele>469.0</ele><time>2026-04-04T11:15:26.999Z</time></trkpt><trkpt lat="44.89076766925545" lon="9.512021004615832"><ele>470.0</ele><time>2026-04-04T11:15:27.999Z</time></trkpt><trkpt lat="44.8908063204426" lon="9.512100718465588"><ele>471.0</ele><time>2026-04-04T11:15:28.999Z</time></trkpt><trkpt lat="44.89082670015952" lon="9.512234449128101"><ele>472.0</ele><time>2026-04-04T11:15:30.999Z</time></trkpt><trkpt lat="44.89079620799555" lon="9.512325360868566"><ele>473.0</ele><time>2026-04-04T11:15:31.999Z</time></trkpt><trkpt lat="44.89083984009349" lon="9.51243848161826"><ele>474.0</ele><time>2026-04-04T11:15:33.999Z</time></trkpt><trkpt lat="44.89095183017785" lon="9.512515546492972"><ele>474.0</ele><time>2026-04-04T11:15:35.999Z</time></trkpt><trkpt lat="44.891025384590094" lon="9.512522404745168"><ele>474.0</ele><time>2026-04-04T11:15:36.999Z</time></trkpt><trkpt lat="44.89112297150039" lon="9.512529825614507"><ele>474.0</ele><time>2026-04-04T11:15:37.999Z</time></trkpt><trkpt lat="44.89123674353994" lon="9.512543970971347"><ele>474.0</ele><time>2026-04-04T11:15:38.999Z</time></trkpt><trkpt lat="44.89135313649625" lon="9.512539487221535"><ele>474.0</ele><time>2026-04-04T11:15:39.999Z</time></trkpt><trkpt lat="44.89145187860814" lon="9.512542802140832"><ele>474.0</ele><time>2026-04-04T11:15:40.999Z</time></trkpt><trkpt lat="44.891528560495146" lon="9.512552348244453"><ele>474.0</ele><time>2026-04-04T11:15:41.999Z</time></trkpt><trkpt lat="44.89159440419442" lon="9.512581254105038"><ele>474.0</ele><time>2026-04-04T11:15:42.999Z</time></trkpt><trkpt lat="44.891705725398936" lon="9.512609203331149"><ele>474.0</ele><time>2026-04-04T11:15:44.999Z</time></trkpt><trkpt lat="44.89177236597374" lon="9.512646239071568"><ele>474.0</ele><time>2026-04-04T11:15:45.999Z</time></trkpt><trkpt lat="44.891852160313256" lon="9.512702153482952"><ele>474.0</ele><time>2026-04-04T11:15:46.999Z</time></trkpt><trkpt lat="44.89192079994601" lon="9.512713365269864"><ele>475.2</ele><time>2026-04-04T11:15:47.999Z</time></trkpt><trkpt lat="44.89198666723002" lon="9.512698705253259"><ele>476.4</ele><time>2026-04-04T11:15:48.999Z</time></trkpt><trkpt lat="44.89207069042052" lon="9.512643197411487"><ele>477.6</ele><time>2026-04-04T11:15:49.999Z</time></trkpt><trkpt lat="44.89216537032654" lon="9.512581070535395"><ele>478.8</ele><time>2026-04-04T11:15:50.999Z</time></trkpt><trkpt lat="44.89225545494067" lon="9.51251690685197"><ele>480.0</ele><time>2026-04-04T11:15:51.999Z</time></trkpt><trkpt lat="44.892377716296494" lon="9.512435587674105"><ele>480.0</ele><time>2026-04-04T11:15:52.999Z</time></trkpt><trkpt lat="44.892460354369845" lon="9.512404463348274"><ele>480.0</ele><time>2026-04-04T11:15:53.999Z</time></trkpt><trkpt lat="44.892532153533764" lon="9.512384666654679"><ele>480.0</ele><time>2026-04-04T11:15:54.999Z</time></trkpt><trkpt lat="44.89260917148079" lon="9.512330289023966"><ele>480.0</ele><time>2026-04-04T11:15:56.999Z</time></trkpt><trkpt lat="44.892668522525746" lon="9.51228725625103"><ele>480.0</ele><time>2026-04-04T11:15:57.999Z</time></trkpt><trkpt lat="44.89282914741371" lon="9.512264348271565"><ele>481.66666666666663</ele><time>2026-04-04T11:15:59.999Z</time></trkpt><trkpt lat="44.89294556140213" lon="9.512279098610028"><ele>483.3333333333333</ele><time>2026-04-04T11:16:00.999Z</time></trkpt><trkpt lat="44.89307510445448" lon="9.512280179719973"><ele>485.0</ele><time>2026-04-04T11:16:01.999Z</time></trkpt><trkpt lat="44.89330968265041" lon="9.512266300814398"><ele>484.99999999999994</ele><time>2026-04-04T11:16:03.999Z</time></trkpt><trkpt lat="44.89340275225924" lon="9.512242495933492"><ele>485.0</ele><time>2026-04-04T11:16:04.999Z</time></trkpt><trkpt lat="44.89348269371274" lon="9.51223496195105"><ele>485.0</ele><time>2026-04-04T11:16:05.999Z</time></trkpt><trkpt lat="44.89356546478138" lon="9.512245458036158"><ele>485.0</ele><time>2026-04-04T11:16:06.999Z</time></trkpt><trkpt lat="44.893644674590334" lon="9.512294803565668"><ele>484.99999999999994</ele><time>2026-04-04T11:16:07.999Z</time></trkpt><trkpt lat="44.89371520119444" lon="9.512365804777737"><ele>485.0</ele><time>2026-04-04T11:16:09Z</time></trkpt><trkpt lat="44.8937866955389" lon="9.512464201832056"><ele>484.4</ele><time>2026-04-04T11:16:10Z</time></trkpt><trkpt lat="44.89386719937857" lon="9.51258107398209"><ele>483.8</ele><time>2026-04-04T11:16:11Z</time></trkpt><trkpt lat="44.89395169774809" lon="9.512669209456725"><ele>483.20000000000005</ele><time>2026-04-04T11:16:12Z</time></trkpt><trkpt lat="44.89402227067132" lon="9.512731753696281"><ele>482.6</ele><time>2026-04-04T11:16:13Z</time></trkpt><trkpt lat="44.89412067115243" lon="9.512788128665376"><ele>482.0</ele><time>2026-04-04T11:16:15Z</time></trkpt><trkpt lat="44.894225041661116" lon="9.512781288079493"><ele>480.8333333333333</ele><time>2026-04-04T11:16:17Z</time></trkpt><trkpt lat="44.89428958020248" lon="9.512735895452131"><ele>479.66666666666663</ele><time>2026-04-04T11:16:18Z</time></trkpt><trkpt lat="44.8943677206989" lon="9.5126903883419"><ele>478.5</ele><time>2026-04-04T11:16:19Z</time></trkpt><trkpt lat="44.894447713549965" lon="9.51267431156895"><ele>477.33333333333337</ele><time>2026-04-04T11:16:20Z</time></trkpt><trkpt lat="44.89453209304666" lon="9.512677679010942"><ele>476.1666666666667</ele><time>2026-04-04T11:16:21Z</time></trkpt><trkpt lat="44.894599884338646" lon="9.512695288705544"><ele>475.0</ele><time>2026-04-04T11:16:22Z</time></trkpt><trkpt lat="44.894667036470025" lon="9.512739650591397"><ele>475.00000000000006</ele><time>2026-04-04T11:16:23Z</time></trkpt><trkpt lat="44.89473877123732" lon="9.512796651487102"><ele>475.0</ele><time>2026-04-04T11:16:24Z</time></trkpt><trkpt lat="44.89480904365499" lon="9.512846869301901"><ele>475.0</ele><time>2026-04-04T11:16:25Z</time></trkpt><trkpt lat="44.894889796809125" lon="9.512890835529644"><ele>475.0</ele><time>2026-04-04T11:16:26Z</time></trkpt><trkpt lat="44.8949799752548" lon="9.512929954769463"><ele>475.00000000000006</ele><time>2026-04-04T11:16:27Z</time></trkpt><trkpt lat="44.89504998827429" lon="9.512966529689464"><ele>475.0</ele><time>2026-04-04T11:16:28Z</time></trkpt><trkpt lat="44.89511421473818" lon="9.513000337709434"><ele>475.50000000000006</ele><time>2026-04-04T11:16:29Z</time></trkpt><trkpt lat="44.89518298059515" lon="9.513029530503939"><ele>476.0</ele><time>2026-04-04T11:16:30Z</time></trkpt><trkpt lat="44.895255314275076" lon="9.513072868765024"><ele>476.5</ele><time>2026-04-04T11:16:31Z</time></trkpt><trkpt lat="44.895318808264996" lon="9.513100602295426"><ele>477.0</ele><time>2026-04-04T11:16:32Z</time></trkpt><trkpt lat="44.895447826029326" lon="9.513053189564381"><ele>477.50000000000006</ele><time>2026-04-04T11:16:34Z</time></trkpt><trkpt lat="44.89551396698351" lon="9.51296908324424"><ele>478.0</ele><time>2026-04-04T11:16:35Z</time></trkpt><trkpt lat="44.89559672987041" lon="9.51285337759177"><ele>478.0</ele><time>2026-04-04T11:16:36Z</time></trkpt><trkpt lat="44.89567573682562" lon="9.512738609398168"><ele>477.99999999999994</ele><time>2026-04-04T11:16:37Z</time></trkpt><trkpt lat="44.89574467087438" lon="9.512658219048333"><ele>477.99999999999994</ele><time>2026-04-04T11:16:38Z</time></trkpt><trkpt lat="44.895819172539376" lon="9.512580142694429"><ele>478.0</ele><time>2026-04-04T11:16:39Z</time></trkpt><trkpt lat="44.895902587022505" lon="9.512496918538123"><ele>478.0</ele><time>2026-04-04T11:16:40Z</time></trkpt><trkpt lat="44.895953716640896" lon="9.512409529543898"><ele>478.6666666666667</ele><time>2026-04-04T11:16:41Z</time></trkpt><trkpt lat="44.895999839983865" lon="9.512348888645072"><ele>479.33333333333337</ele><time>2026-04-04T11:16:42Z</time></trkpt><trkpt lat="44.89605095658554" lon="9.512272943549922"><ele>480.0</ele><time>2026-04-04T11:16:43Z</time></trkpt><trkpt lat="44.89612197687536" lon="9.512203350550497"><ele>480.66666666666663</ele><time>2026-04-04T11:16:44Z</time></trkpt><trkpt lat="44.89619106589077" lon="9.512128021703136"><ele>481.3333333333333</ele><time>2026-04-04T11:16:45Z</time></trkpt><trkpt lat="44.89626884286118" lon="9.512037360314238"><ele>482.0</ele><time>2026-04-04T11:16:46Z</time></trkpt><trkpt lat="44.896335034631065" lon="9.511957628085877"><ele>481.99999999999994</ele><time>2026-04-04T11:16:47Z</time></trkpt><trkpt lat="44.8963993497755" lon="9.511897532128184"><ele>482.0</ele><time>2026-04-04T11:16:48Z</time></trkpt><trkpt lat="44.89648288319439" lon="9.51185490924836"><ele>482.0</ele><time>2026-04-04T11:16:49Z</time></trkpt><trkpt lat="44.896574640557944" lon="9.511822851686388"><ele>482.0</ele><time>2026-04-04T11:16:50Z</time></trkpt><trkpt lat="44.896670911835464" lon="9.511805598948383"><ele>481.99999999999994</ele><time>2026-04-04T11:16:51Z</time></trkpt><trkpt lat="44.896751615684096" lon="9.511779924204667"><ele>482.0</ele><time>2026-04-04T11:16:52Z</time></trkpt><trkpt lat="44.896830832174615" lon="9.511764464680937"><ele>483.49999999999994</ele><time>2026-04-04T11:16:53Z</time></trkpt><trkpt lat="44.896897454515084" lon="9.51172449882329"><ele>485.0</ele><time>2026-04-04T11:16:54Z</time></trkpt><trkpt lat="44.89695870120604" lon="9.511679289315273"><ele>486.5</ele><time>2026-04-04T11:16:55Z</time></trkpt><trkpt lat="44.897014271026336" lon="9.511598961482926"><ele>488.0</ele><time>2026-04-04T11:16:56Z</time></trkpt><trkpt lat="44.897071790258835" lon="9.51150674084206"><ele>489.49999999999994</ele><time>2026-04-04T11:16:57Z</time></trkpt><trkpt lat="44.897119841083416" lon="9.511414194664095"><ele>491.0</ele><time>2026-04-04T11:16:58Z</time></trkpt><trkpt lat="44.89720019769589" lon="9.511308701238308"><ele>491.0</ele><time>2026-04-04T11:17:00Z</time></trkpt><trkpt lat="44.89725743959311" lon="9.511266594086832"><ele>491.0</ele><time>2026-04-04T11:17:01Z</time></trkpt><trkpt lat="44.897376675439254" lon="9.511241406652603"><ele>491.0</ele><time>2026-04-04T11:17:03Z</time></trkpt><trkpt lat="44.89746412780644" lon="9.511215435203637"><ele>491.0</ele><time>2026-04-04T11:17:05Z</time></trkpt><trkpt lat="44.89765313691953" lon="9.511215464124207"><ele>490.25</ele><time>2026-04-04T11:17:58.999Z</time></trkpt><trkpt lat="44.89769384823181" lon="9.511503473607771"><ele>489.5</ele><time>2026-04-04T11:18:09.999Z</time></trkpt><trkpt lat="44.89767051464699" lon="9.51159283619252"><ele>488.75</ele><time>2026-04-04T11:18:10.999Z</time></trkpt><trkpt lat="44.897620716730444" lon="9.51173400952714"><ele>488.0</ele><time>2026-04-04T11:18:12.999Z</time></trkpt><trkpt lat="44.89761642735497" lon="9.511826510323328"><ele>488.0</ele><time>2026-04-04T11:18:13.999Z</time></trkpt><trkpt lat="44.89761315204478" lon="9.511975289679459"><ele>487.99999999999994</ele><time>2026-04-04T11:18:16Z</time></trkpt><trkpt lat="44.89753945083017" lon="9.512135609212798"><ele>487.99999999999994</ele><time>2026-04-04T11:18:18Z</time></trkpt><trkpt lat="44.897547062306856" lon="9.512257551350526"><ele>488.0</ele><time>2026-04-04T11:18:19Z</time></trkpt><trkpt lat="44.8975444741737" lon="9.512369230747769"><ele>488.0</ele><time>2026-04-04T11:18:20Z</time></trkpt><trkpt lat="44.897533515343234" lon="9.512481782489004"><ele>489.5714285714285</ele><time>2026-04-04T11:18:21Z</time></trkpt><trkpt lat="44.897526261061934" lon="9.512592248175668"><ele>491.1428571428571</ele><time>2026-04-04T11:18:22Z</time></trkpt><trkpt lat="44.89752450088688" lon="9.512689814236632"><ele>492.7142857142857</ele><time>2026-04-04T11:18:23Z</time></trkpt><trkpt lat="44.89752819464505" lon="9.512788625921624"><ele>494.2857142857143</ele><time>2026-04-04T11:18:24Z</time></trkpt><trkpt lat="44.897545993035706" lon="9.512883645117492"><ele>495.8571428571429</ele><time>2026-04-04T11:18:25Z</time></trkpt><trkpt lat="44.897567719696234" lon="9.51297855031373"><ele>497.4285714285715</ele><time>2026-04-04T11:18:26Z</time></trkpt><trkpt lat="44.8975952479833" lon="9.513060306894674"><ele>499.00000000000006</ele><time>2026-04-04T11:18:27Z</time></trkpt><trkpt lat="44.89763750110228" lon="9.51313677869766"><ele>500.57142857142867</ele><time>2026-04-04T11:18:28Z</time></trkpt><trkpt lat="44.89768246540527" lon="9.513204572094587"><ele>502.14285714285717</ele><time>2026-04-04T11:18:29Z</time></trkpt><trkpt lat="44.897731450354286" lon="9.513270888226144"><ele>503.7142857142858</ele><time>2026-04-04T11:18:30Z</time></trkpt><trkpt lat="44.89778732577181" lon="9.513334736959301"><ele>505.28571428571433</ele><time>2026-04-04T11:18:31Z</time></trkpt><trkpt lat="44.897837963672266" lon="9.513404923771327"><ele>506.8571428571429</ele><time>2026-04-04T11:18:32Z</time></trkpt><trkpt lat="44.89787744411887" lon="9.513475076866468"><ele>508.42857142857144</ele><time>2026-04-04T11:18:33Z</time></trkpt><trkpt lat="44.89793733964274" lon="9.513541096624795"><ele>510.0</ele><time>2026-04-04T11:18:34Z</time></trkpt><trkpt lat="44.89799490422871" lon="9.513595478018583"><ele>510.0</ele><time>2026-04-04T11:18:35Z</time></trkpt><trkpt lat="44.89804830008411" lon="9.513654065376253"><ele>510.0</ele><time>2026-04-04T11:18:36Z</time></trkpt><trkpt lat="44.898134686935116" lon="9.513799444408253"><ele>510.0</ele><time>2026-04-04T11:18:38Z</time></trkpt><trkpt lat="44.898182650891734" lon="9.5138788206602"><ele>510.0</ele><time>2026-04-04T11:18:39Z</time></trkpt><trkpt lat="44.89821461440843" lon="9.513969455355747"><ele>510.0</ele><time>2026-04-04T11:18:40Z</time></trkpt><trkpt lat="44.898273245414" lon="9.514052640873135"><ele>510.0</ele><time>2026-04-04T11:18:41Z</time></trkpt><trkpt lat="44.89831730868489" lon="9.514150062102004"><ele>511.2</ele><time>2026-04-04T11:18:42Z</time></trkpt><trkpt lat="44.89836840791734" lon="9.514260812931727"><ele>512.4</ele><time>2026-04-04T11:18:43Z</time></trkpt><trkpt lat="44.89842362407005" lon="9.514374262860072"><ele>513.6</ele><time>2026-04-04T11:18:44Z</time></trkpt><trkpt lat="44.89847584603572" lon="9.514495922868305"><ele>514.8</ele><time>2026-04-04T11:18:45Z</time></trkpt><trkpt lat="44.89851848024046" lon="9.514622315424518"><ele>516.0</ele><time>2026-04-04T11:18:46Z</time></trkpt><trkpt lat="44.89855742218712" lon="9.51475831221137"><ele>518.0</ele><time>2026-04-04T11:18:47Z</time></trkpt><trkpt lat="44.89859144635557" lon="9.51488679854321"><ele>520.0</ele><time>2026-04-04T11:18:48Z</time></trkpt><trkpt lat="44.8985938152313" lon="9.515042063329272"><ele>522.0</ele><time>2026-04-04T11:18:49Z</time></trkpt><trkpt lat="44.89861785330217" lon="9.515200305292893"><ele>524.0</ele><time>2026-04-04T11:18:50Z</time></trkpt><trkpt lat="44.89863402632196" lon="9.51534157371896"><ele>526.0</ele><time>2026-04-04T11:18:51Z</time></trkpt><trkpt lat="44.89863156917745" lon="9.515447386200641"><ele>527.3333333333334</ele><time>2026-04-04T11:18:52Z</time></trkpt><trkpt lat="44.898638390318546" lon="9.515542409957773"><ele>528.6666666666667</ele><time>2026-04-04T11:18:53Z</time></trkpt><trkpt lat="44.89864440284971" lon="9.51564169796227"><ele>530.0</ele><time>2026-04-04T11:18:54Z</time></trkpt><trkpt lat="44.89864360502326" lon="9.515779406424702"><ele>531.3333333333334</ele><time>2026-04-04T11:18:56Z</time></trkpt><trkpt lat="44.89865316257494" lon="9.515899205012875"><ele>532.6666666666666</ele><time>2026-04-04T11:18:59Z</time></trkpt><trkpt lat="44.898683951942054" lon="9.516004114389839"><ele>534.0</ele><time>2026-04-04T11:19:02Z</time></trkpt><trkpt lat="44.89876930355442" lon="9.516076606497021"><ele>534.0</ele><time>2026-04-04T11:19:04Z</time></trkpt><trkpt lat="44.89884007442316" lon="9.516084849545859"><ele>534.0</ele><time>2026-04-04T11:19:05Z</time></trkpt><trkpt lat="44.89891326132558" lon="9.516116997894853"><ele>534.0</ele><time>2026-04-04T11:19:06Z</time></trkpt><trkpt lat="44.898986828689196" lon="9.516169739414227"><ele>534.0</ele><time>2026-04-04T11:19:07Z</time></trkpt><trkpt lat="44.899059559484336" lon="9.51623225027368"><ele>534.0</ele><time>2026-04-04T11:19:08Z</time></trkpt><trkpt lat="44.89913241181795" lon="9.516290423290155"><ele>534.0</ele><time>2026-04-04T11:19:09Z</time></trkpt><trkpt lat="44.899212768669976" lon="9.516344215860023"><ele>536.0</ele><time>2026-04-04T11:19:10Z</time></trkpt><trkpt lat="44.89929510090063" lon="9.516399475052426"><ele>538.0</ele><time>2026-04-04T11:19:11Z</time></trkpt><trkpt lat="44.89936991432421" lon="9.516462470703512"><ele>540.0</ele><time>2026-04-04T11:19:11.999Z</time></trkpt><trkpt lat="44.899446667161136" lon="9.516521306521385"><ele>542.0</ele><time>2026-04-04T11:19:12.999Z</time></trkpt><trkpt lat="44.8995262914261" lon="9.516566730230723"><ele>544.0</ele><time>2026-04-04T11:19:13.999Z</time></trkpt><trkpt lat="44.89958920159775" lon="9.516615312856088"><ele>546.0</ele><time>2026-04-04T11:19:14.999Z</time></trkpt><trkpt lat="44.899671632378414" lon="9.516658306996455"><ele>546.0</ele><time>2026-04-04T11:19:16.999Z</time></trkpt><trkpt lat="44.89974348871296" lon="9.516719226315843"><ele>546.0</ele><time>2026-04-04T11:19:19.999Z</time></trkpt><trkpt lat="44.89979941885384" lon="9.516764611316377"><ele>546.0</ele><time>2026-04-04T11:19:22.999Z</time></trkpt><trkpt lat="44.899858285743704" lon="9.516826621018819"><ele>546.0</ele><time>2026-04-04T11:19:26.999Z</time></trkpt><trkpt lat="44.89991072470378" lon="9.516887487794921"><ele>546.0</ele><time>2026-04-04T11:19:29.999Z</time></trkpt><trkpt lat="44.89999102588005" lon="9.516975399268993"><ele>546.0</ele><time>2026-04-04T11:19:45.999Z</time></trkpt><trkpt lat="44.9000721579992" lon="9.51705781308501"><ele>546.0</ele><time>2026-04-04T11:19:47.999Z</time></trkpt><trkpt lat="44.900128856352076" lon="9.517099043812753"><ele>546.0</ele><time>2026-04-04T11:19:48.999Z</time></trkpt><trkpt lat="44.90019817017658" lon="9.517121441427957"><ele>546.0</ele><time>2026-04-04T11:19:49.999Z</time></trkpt><trkpt lat="44.90027214158372" lon="9.517124449233862"><ele>546.0</ele><time>2026-04-04T11:19:50.999Z</time></trkpt><trkpt lat="44.90036207449299" lon="9.517100238719452"><ele>546.0</ele><time>2026-04-04T11:19:51.999Z</time></trkpt><trkpt lat="44.900452926729926" lon="9.517053706041024"><ele>546.0</ele><time>2026-04-04T11:19:52.999Z</time></trkpt><trkpt lat="44.90053765237732" lon="9.51700644375748"><ele>546.0</ele><time>2026-04-04T11:19:53.999Z</time></trkpt><trkpt lat="44.90061887151218" lon="9.516943572532439"><ele>546.0</ele><time>2026-04-04T11:19:54.999Z</time></trkpt><trkpt lat="44.90070894318068" lon="9.51687972221816"><ele>546.0</ele><time>2026-04-04T11:19:55.999Z</time></trkpt><trkpt lat="44.90081285289827" lon="9.51679461307047"><ele>546.0</ele><time>2026-04-04T11:19:56.999Z</time></trkpt><trkpt lat="44.900915476343194" lon="9.516728070679962"><ele>546.0</ele><time>2026-04-04T11:19:57.999Z</time></trkpt><trkpt lat="44.90103540974332" lon="9.516653582210486"><ele>545.6</ele><time>2026-04-04T11:19:58.999Z</time></trkpt><trkpt lat="44.90114290348239" lon="9.516608041757163"><ele>545.2</ele><time>2026-04-04T11:19:59.999Z</time></trkpt><trkpt lat="44.901238645052295" lon="9.51656479372354"><ele>544.8</ele><time>2026-04-04T11:20:00.999Z</time></trkpt><trkpt lat="44.90132379498349" lon="9.516521914757385"><ele>544.4</ele><time>2026-04-04T11:20:01.999Z</time></trkpt><trkpt lat="44.90141530451889" lon="9.516460641584006"><ele>544.0</ele><time>2026-04-04T11:20:03.999Z</time></trkpt><trkpt lat="44.901500691453975" lon="9.51645321780435"><ele>544.0</ele><time>2026-04-04T11:20:05.999Z</time></trkpt><trkpt lat="44.90155351870861" lon="9.516510872007926"><ele>544.0</ele><time>2026-04-04T11:20:06.999Z</time></trkpt><trkpt lat="44.90159301035663" lon="9.516611293736027"><ele>544.0</ele><time>2026-04-04T11:20:07.999Z</time></trkpt><trkpt lat="44.9016368350074" lon="9.516693921437634"><ele>544.0</ele><time>2026-04-04T11:20:08.999Z</time></trkpt><trkpt lat="44.901705490626625" lon="9.51677836083969"><ele>544.0</ele><time>2026-04-04T11:20:09.999Z</time></trkpt><trkpt lat="44.90177965166485" lon="9.51682941721238"><ele>544.0</ele><time>2026-04-04T11:20:10.999Z</time></trkpt><trkpt lat="44.901872095069" lon="9.5168815043998"><ele>542.4</ele><time>2026-04-04T11:20:11.999Z</time></trkpt><trkpt lat="44.90196337606052" lon="9.516934561620618"><ele>540.8</ele><time>2026-04-04T11:20:12.999Z</time></trkpt><trkpt lat="44.90204977675408" lon="9.517015375111527"><ele>539.2</ele><time>2026-04-04T11:20:13.999Z</time></trkpt><trkpt lat="44.902134996915784" lon="9.517102896193116"><ele>537.6</ele><time>2026-04-04T11:20:14.999Z</time></trkpt><trkpt lat="44.902227421037594" lon="9.517192107361835"><ele>536.0</ele><time>2026-04-04T11:20:15.999Z</time></trkpt><trkpt lat="44.90231985310658" lon="9.517292543678144"><ele>535.75</ele><time>2026-04-04T11:20:16.999Z</time></trkpt><trkpt lat="44.90240403919443" lon="9.517409273244583"><ele>535.5</ele><time>2026-04-04T11:20:17.999Z</time></trkpt><trkpt lat="44.902486481406555" lon="9.517527762778561"><ele>535.25</ele><time>2026-04-04T11:20:18.999Z</time></trkpt><trkpt lat="44.90258202303144" lon="9.517634503645581"><ele>535.0</ele><time>2026-04-04T11:20:19.999Z</time></trkpt><trkpt lat="44.90268170108277" lon="9.517713158213166"><ele>532.75</ele><time>2026-04-04T11:20:21Z</time></trkpt><trkpt lat="44.90279359581971" lon="9.517788254377567"><ele>530.5</ele><time>2026-04-04T11:20:22Z</time></trkpt><trkpt lat="44.9029009753908" lon="9.517908331685053"><ele>528.25</ele><time>2026-04-04T11:20:23Z</time></trkpt><trkpt lat="44.903001917446666" lon="9.518055837912367"><ele>526.0</ele><time>2026-04-04T11:20:24Z</time></trkpt><trkpt lat="44.90307430154149" lon="9.518208032065282"><ele>526.0</ele><time>2026-04-04T11:20:25Z</time></trkpt><trkpt lat="44.903118292127296" lon="9.518362404846142"><ele>526.0</ele><time>2026-04-04T11:20:26Z</time></trkpt><trkpt lat="44.90313848221888" lon="9.518509536634141"><ele>526.0</ele><time>2026-04-04T11:20:27Z</time></trkpt><trkpt lat="44.90316161143781" lon="9.51868768165058"><ele>526.0</ele><time>2026-04-04T11:20:28Z</time></trkpt><trkpt lat="44.90318518866179" lon="9.518856099441996"><ele>528.5</ele><time>2026-04-04T11:20:29Z</time></trkpt><trkpt lat="44.90319932757861" lon="9.519037115262888"><ele>531.0</ele><time>2026-04-04T11:20:30Z</time></trkpt><trkpt lat="44.90319236465866" lon="9.519197032061788"><ele>533.5</ele><time>2026-04-04T11:20:31Z</time></trkpt><trkpt lat="44.90317006635114" lon="9.51936106469214"><ele>536.0</ele><time>2026-04-04T11:20:32Z</time></trkpt><trkpt lat="44.90318233205131" lon="9.519520538186924"><ele>536.3333333333333</ele><time>2026-04-04T11:20:33Z</time></trkpt><trkpt lat="44.903192736704945" lon="9.51965478188983"><ele>536.6666666666666</ele><time>2026-04-04T11:20:34Z</time></trkpt><trkpt lat="44.9031964291753" lon="9.5197638426236"><ele>537.0</ele><time>2026-04-04T11:20:35Z</time></trkpt><trkpt lat="44.903192111403534" lon="9.51988907350295"><ele>537.3333333333334</ele><time>2026-04-04T11:20:37Z</time></trkpt><trkpt lat="44.9031845430806" lon="9.519981284614476"><ele>537.6666666666667</ele><time>2026-04-04T11:20:40Z</time></trkpt><trkpt lat="44.90315568966833" lon="9.52009295912016"><ele>538.0</ele><time>2026-04-04T11:20:58Z</time></trkpt><trkpt lat="44.90313902680351" lon="9.52019264880762"><ele>538.0</ele><time>2026-04-04T11:21:00Z</time></trkpt><trkpt lat="44.90314671351623" lon="9.52028577077077"><ele>538.0</ele><time>2026-04-04T11:21:05Z</time></trkpt><trkpt lat="44.903142485786326" lon="9.520380396684383"><ele>538.0</ele><time>2026-04-04T11:21:10Z</time></trkpt><trkpt lat="44.90310332069874" lon="9.520462918554276"><ele>538.0</ele><time>2026-04-04T11:21:13Z</time></trkpt><trkpt lat="44.90307083615216" lon="9.520562163321253"><ele>538.0</ele><time>2026-04-04T11:21:16Z</time></trkpt><trkpt lat="44.9030507903776" lon="9.520649968833293"><ele>538.0</ele><time>2026-04-04T11:21:17.999Z</time></trkpt><trkpt lat="44.90301189742667" lon="9.520728415230865"><ele>538.0</ele><time>2026-04-04T11:21:20.999Z</time></trkpt><trkpt lat="44.902935032399355" lon="9.52073777630547"><ele>538.1666666666667</ele><time>2026-04-04T11:21:23.999Z</time></trkpt><trkpt lat="44.90291437527726" lon="9.520836171217137"><ele>538.3333333333334</ele><time>2026-04-04T11:21:25.999Z</time></trkpt><trkpt lat="44.90291557147671" lon="9.520949717086527"><ele>538.5</ele><time>2026-04-04T11:21:27.999Z</time></trkpt><trkpt lat="44.90289262556634" lon="9.52106893622048"><ele>538.6666666666666</ele><time>2026-04-04T11:21:29.999Z</time></trkpt><trkpt lat="44.902861378840896" lon="9.521159544679673"><ele>538.8333333333333</ele><time>2026-04-04T11:21:31.999Z</time></trkpt><trkpt lat="44.902832449759636" lon="9.5212618799243"><ele>539.0</ele><time>2026-04-04T11:21:33.999Z</time></trkpt><trkpt lat="44.90279657210607" lon="9.521363357916867"><ele>539.3333333333333</ele><time>2026-04-04T11:21:35.999Z</time></trkpt><trkpt lat="44.90277901669146" lon="9.521480003239752"><ele>539.6666666666666</ele><time>2026-04-04T11:21:37.999Z</time></trkpt><trkpt lat="44.902780838668654" lon="9.521601306751467"><ele>540.0</ele><time>2026-04-04T11:21:39.999Z</time></trkpt><trkpt lat="44.90276713387596" lon="9.521706646645194"><ele>540.3333333333334</ele><time>2026-04-04T11:21:41.999Z</time></trkpt><trkpt lat="44.90272635212777" lon="9.521823692054175"><ele>540.6666666666667</ele><time>2026-04-04T11:21:43.999Z</time></trkpt><trkpt lat="44.90269891914921" lon="9.521955734198595"><ele>541.0</ele><time>2026-04-04T11:21:45.999Z</time></trkpt><trkpt lat="44.902650230479324" lon="9.522110125865222"><ele>541.6666666666667</ele><time>2026-04-04T11:21:47.999Z</time></trkpt><trkpt lat="44.90263293551481" lon="9.522201291745938"><ele>542.3333333333334</ele><time>2026-04-04T11:21:48.999Z</time></trkpt><trkpt lat="44.902568007078244" lon="9.522347995539059"><ele>543.0</ele><time>2026-04-04T11:21:50.999Z</time></trkpt><trkpt lat="44.90251720924818" lon="9.522408384186752"><ele>543.6666666666666</ele><time>2026-04-04T11:21:51.999Z</time></trkpt><trkpt lat="44.902444765768514" lon="9.522518578068176"><ele>544.3333333333333</ele><time>2026-04-04T11:21:53.999Z</time></trkpt><trkpt lat="44.90238478169051" lon="9.522588824346013"><ele>545.0</ele><time>2026-04-04T11:21:55.999Z</time></trkpt><trkpt lat="44.90231918594597" lon="9.522612692570599"><ele>544.2</ele><time>2026-04-04T11:21:57.999Z</time></trkpt><trkpt lat="44.90221583761509" lon="9.52258805596511"><ele>543.4</ele><time>2026-04-04T11:21:59.999Z</time></trkpt><trkpt lat="44.90214466163368" lon="9.522671362540375"><ele>542.6</ele><time>2026-04-04T11:22:01.999Z</time></trkpt><trkpt lat="44.90209760565389" lon="9.522791180732556"><ele>541.8</ele><time>2026-04-04T11:22:03.999Z</time></trkpt><trkpt lat="44.90205646192582" lon="9.522860188651512"><ele>541.0</ele><time>2026-04-04T11:22:04.999Z</time></trkpt><trkpt lat="44.90199911483824" lon="9.522973692667948"><ele>541.0</ele><time>2026-04-04T11:22:06.999Z</time></trkpt><trkpt lat="44.9019482054752" lon="9.523088579076875"><ele>541.0</ele><time>2026-04-04T11:22:08.999Z</time></trkpt><trkpt lat="44.90193125068608" lon="9.523208431799802"><ele>541.0</ele><time>2026-04-04T11:22:10.999Z</time></trkpt><trkpt lat="44.901933649082494" lon="9.523341549278673"><ele>541.0</ele><time>2026-04-04T11:22:12.999Z</time></trkpt><trkpt lat="44.901905471012874" lon="9.523485868931333"><ele>541.0</ele><time>2026-04-04T11:22:14.999Z</time></trkpt><trkpt lat="44.901885389782784" lon="9.523633321077419"><ele>541.1666666666667</ele><time>2026-04-04T11:22:16.999Z</time></trkpt><trkpt lat="44.901851425943505" lon="9.523747645928292"><ele>541.3333333333334</ele><time>2026-04-04T11:22:18.999Z</time></trkpt><trkpt lat="44.90180943241221" lon="9.523833169631985"><ele>541.5</ele><time>2026-04-04T11:22:20.999Z</time></trkpt><trkpt lat="44.90174012208007" lon="9.523894333687862"><ele>541.6666666666666</ele><time>2026-04-04T11:22:22.999Z</time></trkpt><trkpt lat="44.90167691058714" lon="9.523920680577065"><ele>541.8333333333333</ele><time>2026-04-04T11:22:24.999Z</time></trkpt><trkpt lat="44.90158909861597" lon="9.523929337110326"><ele>542.0</ele><time>2026-04-04T11:22:28Z</time></trkpt><trkpt lat="44.90153587263176" lon="9.523881680892046"><ele>539.3333333333333</ele><time>2026-04-04T11:22:30Z</time></trkpt><trkpt lat="44.90148011884594" lon="9.523829809537562"><ele>536.6666666666666</ele><time>2026-04-04T11:22:32Z</time></trkpt><trkpt lat="44.90142616876389" lon="9.523783840701533"><ele>534.0</ele><time>2026-04-04T11:22:34Z</time></trkpt><trkpt lat="44.901346792616344" lon="9.523805033779498"><ele>531.3333333333334</ele><time>2026-04-04T11:22:37Z</time></trkpt><trkpt lat="44.901338344980005" lon="9.523901365223477"><ele>528.6666666666667</ele><time>2026-04-04T11:22:39Z</time></trkpt><trkpt lat="44.90137084684592" lon="9.524003053590787"><ele>526.0</ele><time>2026-04-04T11:22:41Z</time></trkpt><trkpt lat="44.90144703330443" lon="9.524138519203296"><ele>526.0</ele><time>2026-04-04T11:22:43Z</time></trkpt><trkpt lat="44.901517217063166" lon="9.524261435109683"><ele>526.0</ele><time>2026-04-04T11:22:45Z</time></trkpt><trkpt lat="44.9015700537833" lon="9.524375265955275"><ele>526.0</ele><time>2026-04-04T11:22:47Z</time></trkpt><trkpt lat="44.9016200066518" lon="9.524475877108218"><ele>526.0</ele><time>2026-04-04T11:22:49Z</time></trkpt><trkpt lat="44.90164802702813" lon="9.524623004391277"><ele>526.0</ele><time>2026-04-04T11:22:51Z</time></trkpt><trkpt lat="44.90167403357383" lon="9.524774808880084"><ele>525.8</ele><time>2026-04-04T11:22:53Z</time></trkpt><trkpt lat="44.901712661933956" lon="9.524925691132212"><ele>525.6</ele><time>2026-04-04T11:22:55Z</time></trkpt><trkpt lat="44.90178799396758" lon="9.525031260364742"><ele>525.4</ele><time>2026-04-04T11:22:57Z</time></trkpt><trkpt lat="44.90185021074064" lon="9.525154164997929"><ele>525.2</ele><time>2026-04-04T11:22:59Z</time></trkpt><trkpt lat="44.90191014376506" lon="9.52525770708464"><ele>525.0</ele><time>2026-04-04T11:23:01Z</time></trkpt><trkpt lat="44.90199589218409" lon="9.525354337861048"><ele>525.8</ele><time>2026-04-04T11:23:03Z</time></trkpt><trkpt lat="44.90207704899976" lon="9.525432482165343"><ele>526.6</ele><time>2026-04-04T11:23:05Z</time></trkpt><trkpt lat="44.90222420343937" lon="9.525562644539036"><ele>527.4</ele><time>2026-04-04T11:23:10Z</time></trkpt><trkpt lat="44.90228653018682" lon="9.525641954849076"><ele>528.2</ele><time>2026-04-04T11:23:13Z</time></trkpt><trkpt lat="44.90236367585249" lon="9.525687908299174"><ele>529.0</ele><time>2026-04-04T11:23:15Z</time></trkpt><trkpt lat="44.902459018963484" lon="9.525780320554182"><ele>529.0</ele><time>2026-04-04T11:23:17Z</time></trkpt><trkpt lat="44.902542597377774" lon="9.525803396156217"><ele>529.0</ele><time>2026-04-04T11:23:20Z</time></trkpt><trkpt lat="44.90259756825153" lon="9.525933386437128"><ele>529.0</ele><time>2026-04-04T11:23:22Z</time></trkpt><trkpt lat="44.90258771306793" lon="9.526113532870582"><ele>529.0</ele><time>2026-04-04T11:23:24Z</time></trkpt><trkpt lat="44.902603060767376" lon="9.526245236977639"><ele>529.0</ele><time>2026-04-04T11:23:25.999Z</time></trkpt><trkpt lat="44.9026086355096" lon="9.526350095960728"><ele>528.1428571428571</ele><time>2026-04-04T11:23:28.999Z</time></trkpt><trkpt lat="44.902631951053976" lon="9.526452375224903"><ele>527.2857142857142</ele><time>2026-04-04T11:23:31.999Z</time></trkpt><trkpt lat="44.90263926345971" lon="9.526544567699146"><ele>526.4285714285713</ele><time>2026-04-04T11:23:34.999Z</time></trkpt><trkpt lat="44.90260889878653" lon="9.52663480998998"><ele>525.5714285714286</ele><time>2026-04-04T11:23:57.999Z</time></trkpt><trkpt lat="44.90254623205718" lon="9.526694090934088"><ele>524.7142857142857</ele><time>2026-04-04T11:24:00.999Z</time></trkpt><trkpt lat="44.90249206302038" lon="9.52674097371887"><ele>523.8571428571428</ele><time>2026-04-04T11:24:03.999Z</time></trkpt><trkpt lat="44.902424356344035" lon="9.52680586674277"><ele>523.0</ele><time>2026-04-04T11:24:06.999Z</time></trkpt><trkpt lat="44.90234060280956" lon="9.526863151020471"><ele>523.0</ele><time>2026-04-04T11:24:09.999Z</time></trkpt><trkpt lat="44.9022598211735" lon="9.526892542137743"><ele>523.0</ele><time>2026-04-04T11:24:11.999Z</time></trkpt><trkpt lat="44.90217830316422" lon="9.52691317053635"><ele>523.0</ele><time>2026-04-04T11:24:13.999Z</time></trkpt><trkpt lat="44.90209337937599" lon="9.526938609683953"><ele>523.0</ele><time>2026-04-04T11:24:15.999Z</time></trkpt><trkpt lat="44.9020130355943" lon="9.526977262686302"><ele>523.0</ele><time>2026-04-04T11:24:17.999Z</time></trkpt><trkpt lat="44.90193065180732" lon="9.527015125233117"><ele>523.0</ele><time>2026-04-04T11:24:19.999Z</time></trkpt><trkpt lat="44.90184869279073" lon="9.52705513632552"><ele>522.0</ele><time>2026-04-04T11:24:21.999Z</time></trkpt><trkpt lat="44.9017793188595" lon="9.527112780985837"><ele>521.0</ele><time>2026-04-04T11:24:23.999Z</time></trkpt><trkpt lat="44.901709221667424" lon="9.527201798168894"><ele>520.0</ele><time>2026-04-04T11:24:25.999Z</time></trkpt><trkpt lat="44.9016239706686" lon="9.527315743071956"><ele>519.0</ele><time>2026-04-04T11:24:27.999Z</time></trkpt><trkpt lat="44.901574892725044" lon="9.527382911340556"><ele>518.0</ele><time>2026-04-04T11:24:28.999Z</time></trkpt><trkpt lat="44.90152000615181" lon="9.527456461784961"><ele>517.0</ele><time>2026-04-04T11:24:29.999Z</time></trkpt><trkpt lat="44.901467963044155" lon="9.527515905292528"><ele>514.6</ele><time>2026-04-04T11:24:30.999Z</time></trkpt><trkpt lat="44.901387869596604" lon="9.527653030588"><ele>512.2</ele><time>2026-04-04T11:24:33Z</time></trkpt><trkpt lat="44.90134127328684" lon="9.52780289742627"><ele>509.8</ele><time>2026-04-04T11:24:35Z</time></trkpt><trkpt lat="44.90132498458847" lon="9.527986915863513"><ele>507.4</ele><time>2026-04-04T11:24:37Z</time></trkpt><trkpt lat="44.90131737554246" lon="9.528083693501811"><ele>505.0</ele><time>2026-04-04T11:24:38Z</time></trkpt><trkpt lat="44.90130435100318" lon="9.528175339696125"><ele>504.6666666666667</ele><time>2026-04-04T11:24:39Z</time></trkpt><trkpt lat="44.9012964692171" lon="9.528286046229288"><ele>504.33333333333337</ele><time>2026-04-04T11:24:40Z</time></trkpt><trkpt lat="44.90129351185399" lon="9.528395172706166"><ele>504.0</ele><time>2026-04-04T11:24:41Z</time></trkpt><trkpt lat="44.90131146258376" lon="9.528496653799136"><ele>503.66666666666663</ele><time>2026-04-04T11:24:42Z</time></trkpt><trkpt lat="44.90133491811956" lon="9.528603599801237"><ele>503.3333333333333</ele><time>2026-04-04T11:24:43Z</time></trkpt><trkpt lat="44.90136479718941" lon="9.528722744020053"><ele>503.0</ele><time>2026-04-04T11:24:44Z</time></trkpt><trkpt lat="44.90139553618509" lon="9.528848728867018"><ele>502.79999999999995</ele><time>2026-04-04T11:24:45Z</time></trkpt><trkpt lat="44.90142447792348" lon="9.528978654036353"><ele>502.59999999999997</ele><time>2026-04-04T11:24:46Z</time></trkpt><trkpt lat="44.90144764836542" lon="9.529104734407689"><ele>502.40000000000003</ele><time>2026-04-04T11:24:47Z</time></trkpt><trkpt lat="44.901473455407064" lon="9.529226396301418"><ele>502.20000000000005</ele><time>2026-04-04T11:24:48Z</time></trkpt><trkpt lat="44.90150957952927" lon="9.529355512761631"><ele>502.0</ele><time>2026-04-04T11:24:49Z</time></trkpt><trkpt lat="44.90152324508642" lon="9.529473421992382"><ele>501.6666666666667</ele><time>2026-04-04T11:24:50Z</time></trkpt><trkpt lat="44.90156036814545" lon="9.529581895743279"><ele>501.33333333333337</ele><time>2026-04-04T11:24:51Z</time></trkpt><trkpt lat="44.90157880445814" lon="9.529680804347583"><ele>501.0</ele><time>2026-04-04T11:24:52Z</time></trkpt><trkpt lat="44.90159836216186" lon="9.529800439661027"><ele>500.66666666666663</ele><time>2026-04-04T11:24:53Z</time></trkpt><trkpt lat="44.90160916574912" lon="9.529937779290808"><ele>500.3333333333333</ele><time>2026-04-04T11:24:54Z</time></trkpt><trkpt lat="44.9016273588597" lon="9.530067358440073"><ele>500.0</ele><time>2026-04-04T11:24:55Z</time></trkpt><trkpt lat="44.901644058513455" lon="9.530200581407726"><ele>500.0</ele><time>2026-04-04T11:24:56Z</time></trkpt><trkpt lat="44.901654945776954" lon="9.530325983277331"><ele>500.0</ele><time>2026-04-04T11:24:57Z</time></trkpt><trkpt lat="44.90166209621156" lon="9.530465074047415"><ele>500.0</ele><time>2026-04-04T11:24:58Z</time></trkpt><trkpt lat="44.90164000014535" lon="9.530588484507005"><ele>500.0</ele><time>2026-04-04T11:24:59Z</time></trkpt><trkpt lat="44.901637078542024" lon="9.530721420584255"><ele>500.0</ele><time>2026-04-04T11:25:00Z</time></trkpt><trkpt lat="44.90160581364145" lon="9.530846507687079"><ele>500.8</ele><time>2026-04-04T11:25:01Z</time></trkpt><trkpt lat="44.901578538472464" lon="9.530978822938552"><ele>501.6</ele><time>2026-04-04T11:25:02Z</time></trkpt><trkpt lat="44.90152060490991" lon="9.531094347564288"><ele>502.4</ele><time>2026-04-04T11:25:03Z</time></trkpt><trkpt lat="44.90145127992547" lon="9.531212574206508"><ele>503.2</ele><time>2026-04-04T11:25:04Z</time></trkpt><trkpt lat="44.90138287099932" lon="9.531329122591512"><ele>504.0</ele><time>2026-04-04T11:25:05Z</time></trkpt><trkpt lat="44.90135233652199" lon="9.531423266600653"><ele>504.5</ele><time>2026-04-04T11:25:06Z</time></trkpt><trkpt lat="44.90131164965503" lon="9.531508126362095"><ele>505.0</ele><time>2026-04-04T11:25:07Z</time></trkpt><trkpt lat="44.901291687390426" lon="9.53161019015563"><ele>505.5</ele><time>2026-04-04T11:25:08Z</time></trkpt><trkpt lat="44.90128313941414" lon="9.53173802647459"><ele>506.0</ele><time>2026-04-04T11:25:09Z</time></trkpt><trkpt lat="44.90128606837143" lon="9.531865906844265"><ele>506.5</ele><time>2026-04-04T11:25:10Z</time></trkpt><trkpt lat="44.90129711709436" lon="9.531987061602688"><ele>507.0</ele><time>2026-04-04T11:25:11Z</time></trkpt><trkpt lat="44.90130487427867" lon="9.532090869958191"><ele>507.1666666666667</ele><time>2026-04-04T11:25:12Z</time></trkpt><trkpt lat="44.90131878331799" lon="9.532187989079214"><ele>507.33333333333337</ele><time>2026-04-04T11:25:13Z</time></trkpt><trkpt lat="44.90129485398542" lon="9.532297236436936"><ele>507.5</ele><time>2026-04-04T11:25:14Z</time></trkpt><trkpt lat="44.90127057036853" lon="9.532423698068524"><ele>507.6666666666667</ele><time>2026-04-04T11:25:15Z</time></trkpt><trkpt lat="44.90123981462763" lon="9.53254551171657"><ele>507.83333333333337</ele><time>2026-04-04T11:25:16Z</time></trkpt><trkpt lat="44.90120935276155" lon="9.532675318175038"><ele>508.0</ele><time>2026-04-04T11:25:17Z</time></trkpt><trkpt lat="44.901176359168325" lon="9.532806913579499"><ele>508.0</ele><time>2026-04-04T11:25:18Z</time></trkpt><trkpt lat="44.901139847646036" lon="9.53296070985028"><ele>507.99999999999994</ele><time>2026-04-04T11:25:19Z</time></trkpt><trkpt lat="44.901116918491205" lon="9.533115673587034"><ele>507.99999999999994</ele><time>2026-04-04T11:25:20Z</time></trkpt><trkpt lat="44.90109475753215" lon="9.53326381583475"><ele>508.0</ele><time>2026-04-04T11:25:21Z</time></trkpt><trkpt lat="44.90107054044854" lon="9.53340584569648"><ele>508.0</ele><time>2026-04-04T11:25:22Z</time></trkpt><trkpt lat="44.90104026324271" lon="9.533551593176234"><ele>508.00000000000006</ele><time>2026-04-04T11:25:23Z</time></trkpt><trkpt lat="44.90102058813109" lon="9.53369588640868"><ele>508.0</ele><time>2026-04-04T11:25:24Z</time></trkpt><trkpt lat="44.90100522781846" lon="9.53382296941417"><ele>508.0</ele><time>2026-04-04T11:25:25Z</time></trkpt><trkpt lat="44.9010080133572" lon="9.533945706642218"><ele>508.0</ele><time>2026-04-04T11:25:26Z</time></trkpt><trkpt lat="44.900994764431466" lon="9.534074600976677"><ele>508.00000000000006</ele><time>2026-04-04T11:25:27Z</time></trkpt><trkpt lat="44.90100453007636" lon="9.53417787676926"><ele>508.0</ele><time>2026-04-04T11:25:28Z</time></trkpt><trkpt lat="44.9010119761941" lon="9.534314878758533"><ele>508.79999999999995</ele><time>2026-04-04T11:25:29Z</time></trkpt><trkpt lat="44.901006062595016" lon="9.534439589357028"><ele>509.59999999999997</ele><time>2026-04-04T11:25:30Z</time></trkpt><trkpt lat="44.90101270309527" lon="9.534576964147545"><ele>510.40000000000003</ele><time>2026-04-04T11:25:31Z</time></trkpt><trkpt lat="44.90101332317178" lon="9.534722868132317"><ele>511.20000000000005</ele><time>2026-04-04T11:25:32Z</time></trkpt><trkpt lat="44.901013754127476" lon="9.534880194486755"><ele>512.0</ele><time>2026-04-04T11:25:33Z</time></trkpt><trkpt lat="44.90101226379505" lon="9.535034070496508"><ele>512.2</ele><time>2026-04-04T11:25:33.999Z</time></trkpt><trkpt lat="44.90100875761614" lon="9.535186505941631"><ele>512.4000000000001</ele><time>2026-04-04T11:25:34.999Z</time></trkpt><trkpt lat="44.90100314857433" lon="9.535340395084587"><ele>512.5999999999999</ele><time>2026-04-04T11:25:35.999Z</time></trkpt><trkpt lat="44.900996595903514" lon="9.535477937171393"><ele>512.8</ele><time>2026-04-04T11:25:36.999Z</time></trkpt><trkpt lat="44.90098111910972" lon="9.535604858449165"><ele>513.0</ele><time>2026-04-04T11:25:37.999Z</time></trkpt><trkpt lat="44.90095188842525" lon="9.535719454324514"><ele>511.4</ele><time>2026-04-04T11:25:38.999Z</time></trkpt><trkpt lat="44.900913772618104" lon="9.535850411161325"><ele>509.79999999999995</ele><time>2026-04-04T11:25:39.999Z</time></trkpt><trkpt lat="44.90088131892497" lon="9.536006446571992"><ele>508.2</ele><time>2026-04-04T11:25:40.999Z</time></trkpt><trkpt lat="44.90083420306437" lon="9.536135323168311"><ele>506.6</ele><time>2026-04-04T11:25:41.999Z</time></trkpt><trkpt lat="44.900788597416344" lon="9.536272152364287"><ele>505.0</ele><time>2026-04-04T11:25:42.999Z</time></trkpt><trkpt lat="44.9007382787811" lon="9.536397514948478"><ele>505.0</ele><time>2026-04-04T11:25:43.999Z</time></trkpt><trkpt lat="44.900683217049796" lon="9.536512673702388"><ele>505.0</ele><time>2026-04-04T11:25:44.999Z</time></trkpt><trkpt lat="44.90062810043382" lon="9.536632897544857"><ele>505.0</ele><time>2026-04-04T11:25:45.999Z</time></trkpt><trkpt lat="44.900588053132644" lon="9.536764083349096"><ele>505.0</ele><time>2026-04-04T11:25:46.999Z</time></trkpt><trkpt lat="44.900532158088055" lon="9.536854404195404"><ele>505.0</ele><time>2026-04-04T11:25:47.999Z</time></trkpt><trkpt lat="44.90050850413215" lon="9.536957163125136"><ele>505.4</ele><time>2026-04-04T11:25:48.999Z</time></trkpt><trkpt lat="44.90047320397137" lon="9.53713180348723"><ele>505.8</ele><time>2026-04-04T11:25:50.999Z</time></trkpt><trkpt lat="44.90046329937674" lon="9.537244593625775"><ele>506.20000000000005</ele><time>2026-04-04T11:25:51.999Z</time></trkpt><trkpt lat="44.90047520661029" lon="9.537372869595256"><ele>506.6</ele><time>2026-04-04T11:25:52.999Z</time></trkpt><trkpt lat="44.900481323874686" lon="9.537514734737401"><ele>507.0</ele><time>2026-04-04T11:25:53.999Z</time></trkpt><trkpt lat="44.900500497170604" lon="9.537666887677023"><ele>507.0</ele><time>2026-04-04T11:25:54.999Z</time></trkpt><trkpt lat="44.90051753638238" lon="9.537821611932333"><ele>507.00000000000006</ele><time>2026-04-04T11:25:55.999Z</time></trkpt><trkpt lat="44.90050819459202" lon="9.537973602898038"><ele>507.00000000000006</ele><time>2026-04-04T11:25:56.999Z</time></trkpt><trkpt lat="44.90051555780389" lon="9.538129710273902"><ele>507.0</ele><time>2026-04-04T11:25:57.999Z</time></trkpt><trkpt lat="44.900524675082394" lon="9.538255330028948"><ele>507.0</ele><time>2026-04-04T11:25:58.999Z</time></trkpt><trkpt lat="44.90053128399159" lon="9.538346388945284"><ele>504.6</ele><time>2026-04-04T11:25:59.999Z</time></trkpt><trkpt lat="44.90053939217679" lon="9.538458105354035"><ele>502.20000000000005</ele><time>2026-04-04T11:26:00.999Z</time></trkpt><trkpt lat="44.90055790805932" lon="9.538552210647547"><ele>499.8</ele><time>2026-04-04T11:26:01.999Z</time></trkpt><trkpt lat="44.900564210198624" lon="9.5387224145141"><ele>497.4</ele><time>2026-04-04T11:26:03.999Z</time></trkpt><trkpt lat="44.90060455444618" lon="9.538873739138314"><ele>495.0</ele><time>2026-04-04T11:26:05.999Z</time></trkpt><trkpt lat="44.9006528159838" lon="9.538937334091923"><ele>492.25</ele><time>2026-04-04T11:26:06.999Z</time></trkpt><trkpt lat="44.90074340370451" lon="9.539046813334355"><ele>489.5</ele><time>2026-04-04T11:26:08.999Z</time></trkpt><trkpt lat="44.90081912710347" lon="9.539173351085193"><ele>486.75</ele><time>2026-04-04T11:26:10.999Z</time></trkpt><trkpt lat="44.9008264724683" lon="9.539374964875018"><ele>484.0</ele><time>2026-04-04T11:26:12.999Z</time></trkpt><trkpt lat="44.90082929193223" lon="9.539493382177834"><ele>483.33333333333337</ele><time>2026-04-04T11:26:13.999Z</time></trkpt><trkpt lat="44.90082572844045" lon="9.539600385732577"><ele>482.6666666666667</ele><time>2026-04-04T11:26:14.999Z</time></trkpt><trkpt lat="44.90082115186037" lon="9.539726453174499"><ele>482.0</ele><time>2026-04-04T11:26:15.999Z</time></trkpt><trkpt lat="44.900817800134796" lon="9.53986893707216"><ele>481.33333333333337</ele><time>2026-04-04T11:26:16.999Z</time></trkpt><trkpt lat="44.90081615406461" lon="9.540000888104778"><ele>480.6666666666667</ele><time>2026-04-04T11:26:17.999Z</time></trkpt><trkpt lat="44.900837894486905" lon="9.540092562579371"><ele>480.0</ele><time>2026-04-04T11:26:18.999Z</time></trkpt><trkpt lat="44.90085841644712" lon="9.540180477236573"><ele>480.0</ele><time>2026-04-04T11:26:19.999Z</time></trkpt><trkpt lat="44.90090028726878" lon="9.540255547136159"><ele>480.0</ele><time>2026-04-04T11:26:20.999Z</time></trkpt><trkpt lat="44.900944351142755" lon="9.540328875767452"><ele>480.0</ele><time>2026-04-04T11:26:21.999Z</time></trkpt><trkpt lat="44.90099388292827" lon="9.540400987864375"><ele>480.0</ele><time>2026-04-04T11:26:22.999Z</time></trkpt><trkpt lat="44.90100501188912" lon="9.540489080267232"><ele>480.0</ele><time>2026-04-04T11:26:23.999Z</time></trkpt><trkpt lat="44.900989378089086" lon="9.54057594854125"><ele>480.0</ele><time>2026-04-04T11:26:24.999Z</time></trkpt><trkpt lat="44.90096516846934" lon="9.540663879842604"><ele>480.0</ele><time>2026-04-04T11:26:25.999Z</time></trkpt><trkpt lat="44.90094216940103" lon="9.540774418484405"><ele>479.6</ele><time>2026-04-04T11:26:26.999Z</time></trkpt><trkpt lat="44.900909107336474" lon="9.540911583868551"><ele>479.2</ele><time>2026-04-04T11:26:27.999Z</time></trkpt><trkpt lat="44.90087200650252" lon="9.541060157084045"><ele>478.79999999999995</ele><time>2026-04-04T11:26:28.999Z</time></trkpt><trkpt lat="44.90083473643723" lon="9.541209407982718"><ele>478.4</ele><time>2026-04-04T11:26:29.999Z</time></trkpt><trkpt lat="44.900798052588314" lon="9.541355569791875"><ele>478.0</ele><time>2026-04-04T11:26:30.999Z</time></trkpt><trkpt lat="44.90076277535954" lon="9.541495695374275"><ele>478.79999999999995</ele><time>2026-04-04T11:26:31.999Z</time></trkpt><trkpt lat="44.90072570037594" lon="9.541642961847593"><ele>479.59999999999997</ele><time>2026-04-04T11:26:32.999Z</time></trkpt><trkpt lat="44.90069565307642" lon="9.541762313489103"><ele>480.40000000000003</ele><time>2026-04-04T11:26:33.999Z</time></trkpt><trkpt lat="44.90066949234431" lon="9.541866086692828"><ele>481.20000000000005</ele><time>2026-04-04T11:26:34.999Z</time></trkpt><trkpt lat="44.90064058287959" lon="9.541982685615107"><ele>482.0</ele><time>2026-04-04T11:26:35.999Z</time></trkpt><trkpt lat="44.900626067308664" lon="9.542109653569371"><ele>483.49999999999994</ele><time>2026-04-04T11:26:36.999Z</time></trkpt><trkpt lat="44.90058893420537" lon="9.542220730624635"><ele>485.0</ele><time>2026-04-04T11:26:37.999Z</time></trkpt><trkpt lat="44.900570505168126" lon="9.542321709739756"><ele>486.5</ele><time>2026-04-04T11:26:39Z</time></trkpt><trkpt lat="44.90054579790867" lon="9.5424144854024"><ele>488.0</ele><time>2026-04-04T11:26:40Z</time></trkpt><trkpt lat="44.900508185947054" lon="9.54254029465667"><ele>489.49999999999994</ele><time>2026-04-04T11:26:42Z</time></trkpt><trkpt lat="44.90054843361542" lon="9.54264890784504"><ele>491.0</ele><time>2026-04-04T11:26:44Z</time></trkpt><trkpt lat="44.90066370909396" lon="9.542747540841702"><ele>491.0</ele><time>2026-04-04T11:26:46Z</time></trkpt><trkpt lat="44.90073824146444" lon="9.542817927895818"><ele>491.0</ele><time>2026-04-04T11:26:47Z</time></trkpt><trkpt lat="44.900812022911516" lon="9.542898236290336"><ele>491.0</ele><time>2026-04-04T11:26:48Z</time></trkpt><trkpt lat="44.90083361362351" lon="9.542986035985379"><ele>491.0</ele><time>2026-04-04T11:26:49Z</time></trkpt><trkpt lat="44.90087156565796" lon="9.543169223899127"><ele>491.0</ele><time>2026-04-04T11:26:51Z</time></trkpt><trkpt lat="44.90088080545439" lon="9.54330910999937"><ele>491.8333333333333</ele><time>2026-04-04T11:26:52Z</time></trkpt><trkpt lat="44.900858782089266" lon="9.543405259283153"><ele>492.66666666666663</ele><time>2026-04-04T11:26:53Z</time></trkpt><trkpt lat="44.90084352273175" lon="9.543506232281125"><ele>493.5</ele><time>2026-04-04T11:26:55Z</time></trkpt><trkpt lat="44.90079857195932" lon="9.543581306888669"><ele>494.33333333333337</ele><time>2026-04-04T11:26:58Z</time></trkpt><trkpt lat="44.90078506791407" lon="9.54368709481471"><ele>495.1666666666667</ele><time>2026-04-04T11:28:10.999Z</time></trkpt><trkpt lat="44.90072935974065" lon="9.543786716667935"><ele>496.0</ele><time>2026-04-04T11:28:13.999Z</time></trkpt><trkpt lat="44.90065296891212" lon="9.54384316287907"><ele>496.00000000000006</ele><time>2026-04-04T11:28:15.999Z</time></trkpt><trkpt lat="44.90054684812314" lon="9.543886197357777"><ele>496.0</ele><time>2026-04-04T11:28:17.999Z</time></trkpt><trkpt lat="44.9004835756822" lon="9.543901456311232"><ele>496.0</ele><time>2026-04-04T11:28:18.999Z</time></trkpt><trkpt lat="44.900410868684254" lon="9.543926190737388"><ele>496.0</ele><time>2026-04-04T11:28:19.999Z</time></trkpt><trkpt lat="44.900338822513646" lon="9.543959686270886"><ele>496.00000000000006</ele><time>2026-04-04T11:28:20.999Z</time></trkpt><trkpt lat="44.90025832504849" lon="9.544002544855555"><ele>496.0</ele><time>2026-04-04T11:28:21.999Z</time></trkpt><trkpt lat="44.90018070006687" lon="9.54404701857896"><ele>496.00000000000006</ele><time>2026-04-04T11:28:22.999Z</time></trkpt><trkpt lat="44.90011634200445" lon="9.544089375484491"><ele>496.0</ele><time>2026-04-04T11:28:23.999Z</time></trkpt><trkpt lat="44.90004805814325" lon="9.544131815774797"><ele>496.0</ele><time>2026-04-04T11:28:24.999Z</time></trkpt><trkpt lat="44.89998558138921" lon="9.544182016074087"><ele>496.0</ele><time>2026-04-04T11:28:25.999Z</time></trkpt><trkpt lat="44.89987504454577" lon="9.54423086712387"><ele>496.00000000000006</ele><time>2026-04-04T11:28:27.999Z</time></trkpt><trkpt lat="44.899778928690765" lon="9.544277135423338"><ele>496.0</ele><time>2026-04-04T11:28:29.999Z</time></trkpt><trkpt lat="44.89965483438066" lon="9.544273856220952"><ele>494.6</ele><time>2026-04-04T11:28:31.999Z</time></trkpt><trkpt lat="44.899554481266854" lon="9.544254827975774"><ele>493.20000000000005</ele><time>2026-04-04T11:28:33.999Z</time></trkpt><trkpt lat="44.89947770105993" lon="9.544237246719767"><ele>491.79999999999995</ele><time>2026-04-04T11:28:35.999Z</time></trkpt><trkpt lat="44.89937247003346" lon="9.544237947972192"><ele>490.4</ele><time>2026-04-04T11:28:37.999Z</time></trkpt><trkpt lat="44.899284652237085" lon="9.54428356151543"><ele>489.0</ele><time>2026-04-04T11:28:39.999Z</time></trkpt><trkpt lat="44.89924362736256" lon="9.544408101327129"><ele>489.0</ele><time>2026-04-04T11:28:41.999Z</time></trkpt><trkpt lat="44.8992769400352" lon="9.544498735899223"><ele>489.0</ele><time>2026-04-04T11:28:42.999Z</time></trkpt><trkpt lat="44.89930689061593" lon="9.544578885599327"><ele>489.0</ele><time>2026-04-04T11:28:43.999Z</time></trkpt><trkpt lat="44.89933786561626" lon="9.544669971000351"><ele>489.0</ele><time>2026-04-04T11:28:45Z</time></trkpt><trkpt lat="44.89945585752464" lon="9.544701555924297"><ele>489.0</ele><time>2026-04-04T11:28:46Z</time></trkpt><trkpt lat="44.89952776760735" lon="9.544761859727883"><ele>489.0</ele><time>2026-04-04T11:28:47Z</time></trkpt><trkpt lat="44.899627731587564" lon="9.54483937543387"><ele>487.6</ele><time>2026-04-04T11:28:48Z</time></trkpt><trkpt lat="44.899723482808945" lon="9.544889458597051"><ele>486.2</ele><time>2026-04-04T11:28:49Z</time></trkpt><trkpt lat="44.899801162227796" lon="9.544924766715772"><ele>484.80000000000007</ele><time>2026-04-04T11:28:50Z</time></trkpt><trkpt lat="44.8998799887703" lon="9.54495603543715"><ele>483.40000000000003</ele><time>2026-04-04T11:28:51Z</time></trkpt><trkpt lat="44.89997962934701" lon="9.544982883877225"><ele>482.0</ele><time>2026-04-04T11:28:52Z</time></trkpt><trkpt lat="44.90008212363624" lon="9.54504345346173"><ele>482.8</ele><time>2026-04-04T11:28:53Z</time></trkpt><trkpt lat="44.90018072758386" lon="9.545061569592585"><ele>483.6</ele><time>2026-04-04T11:28:54Z</time></trkpt><trkpt lat="44.90026467853493" lon="9.545068551683148"><ele>484.40000000000003</ele><time>2026-04-04T11:28:55Z</time></trkpt><trkpt lat="44.90035594704699" lon="9.545096825109804"><ele>485.20000000000005</ele><time>2026-04-04T11:28:56Z</time></trkpt><trkpt lat="44.900471785839876" lon="9.54509524513681"><ele>486.0</ele><time>2026-04-04T11:28:57Z</time></trkpt><trkpt lat="44.90060165309483" lon="9.545116411834298"><ele>486.0</ele><time>2026-04-04T11:28:58Z</time></trkpt><trkpt lat="44.900739762054485" lon="9.545119675125212"><ele>486.0</ele><time>2026-04-04T11:28:59Z</time></trkpt><trkpt lat="44.90086012495509" lon="9.545137193209646"><ele>486.0</ele><time>2026-04-04T11:29:00Z</time></trkpt><trkpt lat="44.900966090377906" lon="9.545141037147262"><ele>486.0</ele><time>2026-04-04T11:29:01Z</time></trkpt><trkpt lat="44.90106839647288" lon="9.545147729251406"><ele>485.20000000000005</ele><time>2026-04-04T11:29:02Z</time></trkpt><trkpt lat="44.901164193518625" lon="9.545134803562814"><ele>484.40000000000003</ele><time>2026-04-04T11:29:03Z</time></trkpt><trkpt lat="44.90123926104439" lon="9.54513506663606"><ele>483.6</ele><time>2026-04-04T11:29:04Z</time></trkpt><trkpt lat="44.901363146228206" lon="9.545139808422531"><ele>482.8</ele><time>2026-04-04T11:29:06Z</time></trkpt><trkpt lat="44.901486690743994" lon="9.545220117490507"><ele>482.0</ele><time>2026-04-04T11:29:08Z</time></trkpt><trkpt lat="44.90153764913295" lon="9.545289417251132"><ele>482.0</ele><time>2026-04-04T11:29:09Z</time></trkpt><trkpt lat="44.901580590160926" lon="9.545358344171376"><ele>482.00000000000006</ele><time>2026-04-04T11:29:10Z</time></trkpt><trkpt lat="44.901572144277154" lon="9.545512179886359"><ele>482.00000000000006</ele><time>2026-04-04T11:29:11Z</time></trkpt><trkpt lat="44.901564858770385" lon="9.545628015766072"><ele>482.0</ele><time>2026-04-04T11:29:12Z</time></trkpt><trkpt lat="44.9015592489339" lon="9.54576800033093"><ele>482.0</ele><time>2026-04-04T11:29:13Z</time></trkpt><trkpt lat="44.901540336419664" lon="9.545917098977895"><ele>481.66666666666663</ele><time>2026-04-04T11:29:14Z</time></trkpt><trkpt lat="44.90150435117775" lon="9.546067237565383"><ele>481.33333333333337</ele><time>2026-04-04T11:29:15Z</time></trkpt><trkpt lat="44.90143371557854" lon="9.546275211643323"><ele>481.0</ele><time>2026-04-04T11:29:16Z</time></trkpt><trkpt lat="44.90136064971266" lon="9.546502338646576"><ele>481.0</ele><time>2026-04-04T11:29:17Z</time></trkpt><trkpt lat="44.90130702365157" lon="9.546697122046409"><ele>481.0</ele><time>2026-04-04T11:29:18Z</time></trkpt><trkpt lat="44.901301403168375" lon="9.546873371512499"><ele>481.0</ele><time>2026-04-04T11:29:19Z</time></trkpt><trkpt lat="44.90128363359956" lon="9.547028452429718"><ele>481.0</ele><time>2026-04-04T11:29:20Z</time></trkpt><trkpt lat="44.901283328816255" lon="9.547198606601393"><ele>482.6</ele><time>2026-04-04T11:29:21Z</time></trkpt><trkpt lat="44.90126947303654" lon="9.547330628212778"><ele>484.20000000000005</ele><time>2026-04-04T11:29:22Z</time></trkpt><trkpt lat="44.90125613634267" lon="9.547460791517059"><ele>485.79999999999995</ele><time>2026-04-04T11:29:23Z</time></trkpt><trkpt lat="44.90121847877553" lon="9.547602293167369"><ele>487.4</ele><time>2026-04-04T11:29:24Z</time></trkpt><trkpt lat="44.90115764796066" lon="9.547735608057184"><ele>489.0</ele><time>2026-04-04T11:29:25Z</time></trkpt><trkpt lat="44.9011141804326" lon="9.547898668812888"><ele>491.0</ele><time>2026-04-04T11:29:26Z</time></trkpt><trkpt lat="44.90109770103375" lon="9.548038540324992"><ele>493.0</ele><time>2026-04-04T11:29:27Z</time></trkpt><trkpt lat="44.90108728089962" lon="9.548205948244352"><ele>495.0</ele><time>2026-04-04T11:29:28Z</time></trkpt><trkpt lat="44.9010741551618" lon="9.548373867475725"><ele>497.0</ele><time>2026-04-04T11:29:29Z</time></trkpt><trkpt lat="44.90105780635356" lon="9.548557241129634"><ele>496.99999999999994</ele><time>2026-04-04T11:29:30Z</time></trkpt><trkpt lat="44.90105761568987" lon="9.548702274251879"><ele>497.0</ele><time>2026-04-04T11:29:31Z</time></trkpt><trkpt lat="44.90104613733813" lon="9.548809582548623"><ele>497.0</ele><time>2026-04-04T11:29:32Z</time></trkpt><trkpt lat="44.90103399943349" lon="9.548938884091095"><ele>497.0</ele><time>2026-04-04T11:29:34Z</time></trkpt><trkpt lat="44.90102309165146" lon="9.549063731520913"><ele>496.99999999999994</ele><time>2026-04-04T11:29:36Z</time></trkpt><trkpt lat="44.90100729289587" lon="9.549150023508744"><ele>497.0</ele><time>2026-04-04T11:29:37.999Z</time></trkpt><trkpt lat="44.901002046224164" lon="9.549262211651769"><ele>496.99999999999994</ele><time>2026-04-04T11:29:40.999Z</time></trkpt><trkpt lat="44.901015039094204" lon="9.54935954220727"><ele>497.0</ele><time>2026-04-04T11:29:49.999Z</time></trkpt><trkpt lat="44.90110698753013" lon="9.549385357774026"><ele>497.0</ele><time>2026-04-04T11:29:51.999Z</time></trkpt><trkpt lat="44.90118066889284" lon="9.549391941558026"><ele>497.0</ele><time>2026-04-04T11:29:53.999Z</time></trkpt><trkpt lat="44.90126941218143" lon="9.549420903196548"><ele>496.99999999999994</ele><time>2026-04-04T11:29:55.999Z</time></trkpt><trkpt lat="44.901376892091356" lon="9.549397485049147"><ele>497.0</ele><time>2026-04-04T11:29:57.999Z</time></trkpt><trkpt lat="44.9014789105415" lon="9.549318628270441"><ele>496.99999999999994</ele><time>2026-04-04T11:29:59.999Z</time></trkpt><trkpt lat="44.901574364194985" lon="9.54920929642249"><ele>497.0</ele><time>2026-04-04T11:30:01.999Z</time></trkpt><trkpt lat="44.90162424812737" lon="9.54913725347429"><ele>497.0</ele><time>2026-04-04T11:30:02.999Z</time></trkpt><trkpt lat="44.901668405963115" lon="9.549064485508094"><ele>497.0</ele><time>2026-04-04T11:30:03.999Z</time></trkpt><trkpt lat="44.901715629257346" lon="9.548995885222812"><ele>496.99999999999994</ele><time>2026-04-04T11:30:04.999Z</time></trkpt><trkpt lat="44.90176687720197" lon="9.548919428891683"><ele>497.0</ele><time>2026-04-04T11:30:05.999Z</time></trkpt><trkpt lat="44.901824991129686" lon="9.548846604005165"><ele>497.99999999999994</ele><time>2026-04-04T11:30:06.999Z</time></trkpt><trkpt lat="44.901887097331795" lon="9.54878851630354"><ele>499.0</ele><time>2026-04-04T11:30:07.999Z</time></trkpt><trkpt lat="44.901945883612875" lon="9.548741704389021"><ele>500.0</ele><time>2026-04-04T11:30:08.999Z</time></trkpt><trkpt lat="44.902005546811864" lon="9.548698824409424"><ele>501.0</ele><time>2026-04-04T11:30:09.999Z</time></trkpt><trkpt lat="44.90207620748096" lon="9.548657138662767"><ele>501.99999999999994</ele><time>2026-04-04T11:30:10.999Z</time></trkpt><trkpt lat="44.90216077470482" lon="9.548616982447273"><ele>503.0</ele><time>2026-04-04T11:30:11.999Z</time></trkpt><trkpt lat="44.90225206373309" lon="9.548589998302356"><ele>503.49999999999994</ele><time>2026-04-04T11:30:12.999Z</time></trkpt><trkpt lat="44.90233739128297" lon="9.548579024872623"><ele>504.0</ele><time>2026-04-04T11:30:13.999Z</time></trkpt><trkpt lat="44.902414682642686" lon="9.548562437642547"><ele>504.5</ele><time>2026-04-04T11:30:14.999Z</time></trkpt><trkpt lat="44.9025010505376" lon="9.548561033852106"><ele>505.0</ele><time>2026-04-04T11:30:15.999Z</time></trkpt><trkpt lat="44.90258676336446" lon="9.548539401143998"><ele>505.49999999999994</ele><time>2026-04-04T11:30:16.999Z</time></trkpt><trkpt lat="44.90266707220134" lon="9.548557554034183"><ele>506.0</ele><time>2026-04-04T11:30:17.999Z</time></trkpt><trkpt lat="44.90273843902762" lon="9.548606427078234"><ele>507.3333333333333</ele><time>2026-04-04T11:30:18.999Z</time></trkpt><trkpt lat="44.902813951184946" lon="9.54864321108778"><ele>508.66666666666663</ele><time>2026-04-04T11:30:19.999Z</time></trkpt><trkpt lat="44.902897136934115" lon="9.548681156650689"><ele>510.0</ele><time>2026-04-04T11:30:20.999Z</time></trkpt><trkpt lat="44.902984644300666" lon="9.548714182635472"><ele>511.33333333333337</ele><time>2026-04-04T11:30:21.999Z</time></trkpt><trkpt lat="44.903071583620715" lon="9.548726865885984"><ele>512.6666666666667</ele><time>2026-04-04T11:30:22.999Z</time></trkpt><trkpt lat="44.903150712221155" lon="9.548692907623144"><ele>514.0</ele><time>2026-04-04T11:30:23.999Z</time></trkpt><trkpt lat="44.903232204377396" lon="9.548649157125025"><ele>514.0</ele><time>2026-04-04T11:30:24.999Z</time></trkpt><trkpt lat="44.90330222060345" lon="9.548621139193884"><ele>514.0</ele><time>2026-04-04T11:30:25.999Z</time></trkpt><trkpt lat="44.90339247093678" lon="9.548574572717605"><ele>514.0</ele><time>2026-04-04T11:30:27.999Z</time></trkpt><trkpt lat="44.90350784134423" lon="9.54858533187838"><ele>514.0</ele><time>2026-04-04T11:30:29.999Z</time></trkpt><trkpt lat="44.90352992767121" lon="9.548700319142863"><ele>514.0</ele><time>2026-04-04T11:30:30.999Z</time></trkpt><trkpt lat="44.90353855256043" lon="9.548805701306648"><ele>514.0</ele><time>2026-04-04T11:30:31.999Z</time></trkpt><trkpt lat="44.90346990903801" lon="9.54892453870854"><ele>517.4</ele><time>2026-04-04T11:30:32.999Z</time></trkpt><trkpt lat="44.90349418846496" lon="9.549036875815062"><ele>520.8</ele><time>2026-04-04T11:30:33.999Z</time></trkpt><trkpt lat="44.90354005148697" lon="9.549140400271964"><ele>524.2</ele><time>2026-04-04T11:30:34.999Z</time></trkpt><trkpt lat="44.903627505139134" lon="9.549208976372904"><ele>527.6</ele><time>2026-04-04T11:30:35.999Z</time></trkpt><trkpt lat="44.9037170272263" lon="9.549262195101145"><ele>531.0</ele><time>2026-04-04T11:30:36.999Z</time></trkpt><trkpt lat="44.903791866593075" lon="9.549339908658972"><ele>531.0</ele><time>2026-04-04T11:30:37.999Z</time></trkpt><trkpt lat="44.90385286729671" lon="9.549440895484441"><ele>531.0</ele><time>2026-04-04T11:30:38.999Z</time></trkpt><trkpt lat="44.90392094074581" lon="9.549489869563825"><ele>531.0</ele><time>2026-04-04T11:30:39.999Z</time></trkpt><trkpt lat="44.90400977551931" lon="9.549506080240658"><ele>531.0</ele><time>2026-04-04T11:30:40.999Z</time></trkpt><trkpt lat="44.9041136859299" lon="9.549515424581742"><ele>531.0</ele><time>2026-04-04T11:30:41.999Z</time></trkpt><trkpt lat="44.90420837678657" lon="9.54950861586422"><ele>530.4</ele><time>2026-04-04T11:30:42.999Z</time></trkpt><trkpt lat="44.90426717876659" lon="9.549592119187183"><ele>529.8</ele><time>2026-04-04T11:30:43.999Z</time></trkpt><trkpt lat="44.904342018269396" lon="9.549701959546347"><ele>529.1999999999999</ele><time>2026-04-04T11:30:45.999Z</time></trkpt><trkpt lat="44.90444773282134" lon="9.549813749087381"><ele>528.6</ele><time>2026-04-04T11:30:47.999Z</time></trkpt><trkpt lat="44.904528929039806" lon="9.549840146823247"><ele>528.0</ele><time>2026-04-04T11:30:48.999Z</time></trkpt><trkpt lat="44.904603251177114" lon="9.549832054431397"><ele>528.0</ele><time>2026-04-04T11:30:49.999Z</time></trkpt><trkpt lat="44.90466958165676" lon="9.549755847199044"><ele>528.0</ele><time>2026-04-04T11:30:51Z</time></trkpt><trkpt lat="44.904728953102044" lon="9.549668723618744"><ele>528.0</ele><time>2026-04-04T11:30:52Z</time></trkpt><trkpt lat="44.90479454926365" lon="9.549566660712658"><ele>528.0</ele><time>2026-04-04T11:30:53Z</time></trkpt><trkpt lat="44.904863335414014" lon="9.549438542834565"><ele>528.0</ele><time>2026-04-04T11:30:54Z</time></trkpt><trkpt lat="44.90493861991694" lon="9.549310414224015"><ele>531.0</ele><time>2026-04-04T11:30:55Z</time></trkpt><trkpt lat="44.905048408092554" lon="9.549156365058971"><ele>534.0</ele><time>2026-04-04T11:30:56Z</time></trkpt><trkpt lat="44.90514722443159" lon="9.54899557474829"><ele>537.0</ele><time>2026-04-04T11:30:57Z</time></trkpt><trkpt lat="44.90523436027825" lon="9.54882764705689"><ele>539.25</ele><time>2026-04-04T11:30:58Z</time></trkpt><trkpt lat="44.905312001580455" lon="9.54861125421707"><ele>541.5</ele><time>2026-04-04T11:30:59Z</time></trkpt><trkpt lat="44.90537300245119" lon="9.548418566816533"><ele>543.75</ele><time>2026-04-04T11:31:00Z</time></trkpt><trkpt lat="44.90542649730694" lon="9.548269916204857"><ele>546.0</ele><time>2026-04-04T11:31:01Z</time></trkpt><trkpt lat="44.90548194061589" lon="9.54814625768624"><ele>546.0</ele><time>2026-04-04T11:31:02Z</time></trkpt><trkpt lat="44.90551619416568" lon="9.548033303260544"><ele>546.0</ele><time>2026-04-04T11:31:03Z</time></trkpt><trkpt lat="44.90552549081095" lon="9.547888706706265"><ele>546.0</ele><time>2026-04-04T11:31:04Z</time></trkpt><trkpt lat="44.90550790487352" lon="9.547740175414313"><ele>546.0</ele><time>2026-04-04T11:31:05Z</time></trkpt><trkpt lat="44.90549972944388" lon="9.547611477259078"><ele>546.0</ele><time>2026-04-04T11:31:06Z</time></trkpt><trkpt lat="44.90551336727928" lon="9.54747306904129"><ele>545.75</ele><time>2026-04-04T11:31:07Z</time></trkpt><trkpt lat="44.90554174890522" lon="9.54733361355074"><ele>545.5</ele><time>2026-04-04T11:31:08Z</time></trkpt><trkpt lat="44.90559613322266" lon="9.54716674451751"><ele>545.25</ele><time>2026-04-04T11:31:09Z</time></trkpt><trkpt lat="44.905703048307" lon="9.546982734301281"><ele>545.0</ele><time>2026-04-04T11:31:10Z</time></trkpt><trkpt lat="44.90577049075974" lon="9.546834384857048"><ele>544.25</ele><time>2026-04-04T11:31:11Z</time></trkpt><trkpt lat="44.905813882391996" lon="9.546688241655263"><ele>543.5</ele><time>2026-04-04T11:31:12Z</time></trkpt><trkpt lat="44.90582461504183" lon="9.546506195952997"><ele>542.75</ele><time>2026-04-04T11:31:13Z</time></trkpt><trkpt lat="44.90580280070942" lon="9.546274195899445"><ele>542.0</ele><time>2026-04-04T11:31:14Z</time></trkpt><trkpt lat="44.90578473471883" lon="9.546038948206123"><ele>542.0</ele><time>2026-04-04T11:31:15Z</time></trkpt><trkpt lat="44.905779929319586" lon="9.545844819142662"><ele>542.0</ele><time>2026-04-04T11:31:16Z</time></trkpt><trkpt lat="44.90575295583775" lon="9.545683254696698"><ele>542.0</ele><time>2026-04-04T11:31:17Z</time></trkpt><trkpt lat="44.905745364100135" lon="9.545534686408121"><ele>542.0</ele><time>2026-04-04T11:31:18Z</time></trkpt><trkpt lat="44.905752517927276" lon="9.545383428962046"><ele>543.0</ele><time>2026-04-04T11:31:19Z</time></trkpt><trkpt lat="44.90577268737946" lon="9.545215255344786"><ele>544.0</ele><time>2026-04-04T11:31:20Z</time></trkpt><trkpt lat="44.905815148068406" lon="9.545024105552333"><ele>545.0</ele><time>2026-04-04T11:31:21Z</time></trkpt><trkpt lat="44.905792330200555" lon="9.544843595526626"><ele>546.0</ele><time>2026-04-04T11:31:22Z</time></trkpt><trkpt lat="44.90579001249803" lon="9.544686456963415"><ele>546.0</ele><time>2026-04-04T11:31:23Z</time></trkpt><trkpt lat="44.90578881882135" lon="9.544550051012353"><ele>546.0</ele><time>2026-04-04T11:31:24Z</time></trkpt><trkpt lat="44.90579910952008" lon="9.544428186880904"><ele>546.0</ele><time>2026-04-04T11:31:25Z</time></trkpt><trkpt lat="44.90582604394071" lon="9.544300737827461"><ele>546.0</ele><time>2026-04-04T11:31:26Z</time></trkpt><trkpt lat="44.90585670392868" lon="9.54419059839983"><ele>546.0</ele><time>2026-04-04T11:31:27Z</time></trkpt><trkpt lat="44.9059007176893" lon="9.544080929593436"><ele>543.75</ele><time>2026-04-04T11:31:28Z</time></trkpt><trkpt lat="44.905954119383395" lon="9.543950576218794"><ele>541.5</ele><time>2026-04-04T11:31:29Z</time></trkpt><trkpt lat="44.90600239426882" lon="9.54379912000877"><ele>539.25</ele><time>2026-04-04T11:31:30Z</time></trkpt><trkpt lat="44.90604936764549" lon="9.543629754367585"><ele>537.0</ele><time>2026-04-04T11:31:31Z</time></trkpt><trkpt lat="44.906098933180694" lon="9.543450219662649"><ele>537.0</ele><time>2026-04-04T11:31:32Z</time></trkpt><trkpt lat="44.90612814312257" lon="9.543251015709039"><ele>537.0</ele><time>2026-04-04T11:31:33Z</time></trkpt><trkpt lat="44.90617902216293" lon="9.543045187473107"><ele>537.0</ele><time>2026-04-04T11:31:34Z</time></trkpt><trkpt lat="44.90624464220645" lon="9.542848722611312"><ele>538.25</ele><time>2026-04-04T11:31:35Z</time></trkpt><trkpt lat="44.906312436307545" lon="9.54268665808145"><ele>539.5</ele><time>2026-04-04T11:31:36Z</time></trkpt><trkpt lat="44.90637686716693" lon="9.542516098209244"><ele>540.75</ele><time>2026-04-04T11:31:37Z</time></trkpt><trkpt lat="44.90643644614787" lon="9.542319346846345"><ele>542.0</ele><time>2026-04-04T11:31:38Z</time></trkpt><trkpt lat="44.90649156748013" lon="9.542107442006676"><ele>542.75</ele><time>2026-04-04T11:31:39Z</time></trkpt><trkpt lat="44.90655135829231" lon="9.54190089608423"><ele>543.5</ele><time>2026-04-04T11:31:40Z</time></trkpt><trkpt lat="44.906592698616116" lon="9.541719836778373"><ele>544.25</ele><time>2026-04-04T11:31:41Z</time></trkpt><trkpt lat="44.906634969128774" lon="9.541569749094105"><ele>545.0</ele><time>2026-04-04T11:31:42Z</time></trkpt><trkpt lat="44.90667316666998" lon="9.541463722617937"><ele>545.0</ele><time>2026-04-04T11:31:43Z</time></trkpt><trkpt lat="44.906711441825315" lon="9.541363412606799"><ele>545.0</ele><time>2026-04-04T11:31:44Z</time></trkpt><trkpt lat="44.90672394481085" lon="9.541223796047"><ele>545.0</ele><time>2026-04-04T11:31:45Z</time></trkpt><trkpt lat="44.906698684343226" lon="9.541073886154878"><ele>545.0</ele><time>2026-04-04T11:31:45.999Z</time></trkpt><trkpt lat="44.9066839042286" lon="9.540909683791181"><ele>545.0</ele><time>2026-04-04T11:31:46.999Z</time></trkpt><trkpt lat="44.90665544966481" lon="9.540745063120568"><ele>546.2</ele><time>2026-04-04T11:31:47.999Z</time></trkpt><trkpt lat="44.90662138088682" lon="9.540561411958178"><ele>547.4</ele><time>2026-04-04T11:31:48.999Z</time></trkpt><trkpt lat="44.90658879692889" lon="9.540390927687401"><ele>548.6</ele><time>2026-04-04T11:31:49.999Z</time></trkpt><trkpt lat="44.90654821962105" lon="9.54027052896995"><ele>549.8</ele><time>2026-04-04T11:31:50.999Z</time></trkpt><trkpt lat="44.906541966109614" lon="9.540173686195297"><ele>551.0</ele><time>2026-04-04T11:31:51.999Z</time></trkpt><trkpt lat="44.90649510557809" lon="9.540012330130537"><ele>552.1666666666666</ele><time>2026-04-04T11:31:53.999Z</time></trkpt><trkpt lat="44.906456783101945" lon="9.539923102270718"><ele>553.3333333333333</ele><time>2026-04-04T11:31:54.999Z</time></trkpt><trkpt lat="44.90642258832327" lon="9.53982882674158"><ele>554.5</ele><time>2026-04-04T11:31:55.999Z</time></trkpt><trkpt lat="44.90638654448492" lon="9.539724280667313"><ele>555.6666666666666</ele><time>2026-04-04T11:31:56.999Z</time></trkpt><trkpt lat="44.90635563639357" lon="9.539633509796403"><ele>556.8333333333334</ele><time>2026-04-04T11:31:57.999Z</time></trkpt><trkpt lat="44.90632730606588" lon="9.539547737257422"><ele>558.0</ele><time>2026-04-04T11:31:58.999Z</time></trkpt><trkpt lat="44.90628297663446" lon="9.539413526529632"><ele>558.0</ele><time>2026-04-04T11:32:00.999Z</time></trkpt><trkpt lat="44.906251742714225" lon="9.539320255362222"><ele>558.0</ele><time>2026-04-04T11:32:02.999Z</time></trkpt><trkpt lat="44.906220694209445" lon="9.53921564190435"><ele>558.0</ele><time>2026-04-04T11:32:04.999Z</time></trkpt><trkpt lat="44.906286069604604" lon="9.539095065816724"><ele>558.0</ele><time>2026-04-04T11:32:07.999Z</time></trkpt><trkpt lat="44.90633997344613" lon="9.539044166416181"><ele>558.0</ele><time>2026-04-04T11:32:10.999Z</time></trkpt><trkpt lat="44.90638807073896" lon="9.538984159669974"><ele>558.0</ele><time>2026-04-04T11:32:14.999Z</time></trkpt><trkpt lat="44.90649822808072" lon="9.53882162869436"><ele>558.0</ele><time>2026-04-04T11:32:26.999Z</time></trkpt><trkpt lat="44.906543630836275" lon="9.53872698469963"><ele>558.0</ele><time>2026-04-04T11:32:28.999Z</time></trkpt><trkpt lat="44.90658812448754" lon="9.53863065452901"><ele>558.0</ele><time>2026-04-04T11:32:30.999Z</time></trkpt><trkpt lat="44.906646670802544" lon="9.538539636941934"><ele>558.0</ele><time>2026-04-04T11:32:32.999Z</time></trkpt><trkpt lat="44.90669233793911" lon="9.538474121357563"><ele>558.0</ele><time>2026-04-04T11:32:34.999Z</time></trkpt><trkpt lat="44.90674806503047" lon="9.538390945095811"><ele>558.0</ele><time>2026-04-04T11:32:37.999Z</time></trkpt><trkpt lat="44.90682115805618" lon="9.538274332379691"><ele>554.5</ele><time>2026-04-04T11:32:39.999Z</time></trkpt><trkpt lat="44.90689022108223" lon="9.538156389988407"><ele>551.0</ele><time>2026-04-04T11:32:41.999Z</time></trkpt><trkpt lat="44.90693268465051" lon="9.538087777942131"><ele>547.5</ele><time>2026-04-04T11:32:42.999Z</time></trkpt><trkpt lat="44.90698046274111" lon="9.538015558655827"><ele>544.0</ele><time>2026-04-04T11:32:43.999Z</time></trkpt><trkpt lat="44.907038104162794" lon="9.537930180122828"><ele>540.5</ele><time>2026-04-04T11:32:44.999Z</time></trkpt><trkpt lat="44.907102256839345" lon="9.537836837070282"><ele>537.0</ele><time>2026-04-04T11:32:45.999Z</time></trkpt><trkpt lat="44.907163057985436" lon="9.537744255420703"><ele>536.2</ele><time>2026-04-04T11:32:46.999Z</time></trkpt><trkpt lat="44.907232280995196" lon="9.537650539715992"><ele>535.4000000000001</ele><time>2026-04-04T11:32:47.999Z</time></trkpt><trkpt lat="44.907308107768614" lon="9.537525071519442"><ele>534.5999999999999</ele><time>2026-04-04T11:32:48.999Z</time></trkpt><trkpt lat="44.90739889533567" lon="9.537421870404817"><ele>533.8</ele><time>2026-04-04T11:32:49.999Z</time></trkpt><trkpt lat="44.90748804216977" lon="9.53732554305347"><ele>533.0</ele><time>2026-04-04T11:32:50.999Z</time></trkpt><trkpt lat="44.90758802849151" lon="9.537257956269883"><ele>530.6</ele><time>2026-04-04T11:32:51.999Z</time></trkpt><trkpt lat="44.90766654226645" lon="9.537160120079353"><ele>528.1999999999999</ele><time>2026-04-04T11:32:52.999Z</time></trkpt><trkpt lat="44.907754746690635" lon="9.537077629322217"><ele>525.8</ele><time>2026-04-04T11:32:53.999Z</time></trkpt><trkpt lat="44.9078474347149" lon="9.536993166661661"><ele>523.4</ele><time>2026-04-04T11:32:54.999Z</time></trkpt><trkpt lat="44.90794033089293" lon="9.536908883633306"><ele>521.0</ele><time>2026-04-04T11:32:55.999Z</time></trkpt><trkpt lat="44.908037364970625" lon="9.536820846390858"><ele>519.5</ele><time>2026-04-04T11:32:57Z</time></trkpt><trkpt lat="44.90814104077254" lon="9.536753619997024"><ele>518.0</ele><time>2026-04-04T11:32:58Z</time></trkpt><trkpt lat="44.908240248764145" lon="9.536661566875196"><ele>516.5</ele><time>2026-04-04T11:32:59Z</time></trkpt><trkpt lat="44.908346921817724" lon="9.536554483524469"><ele>515.0</ele><time>2026-04-04T11:33:00Z</time></trkpt><trkpt lat="44.908458061651686" lon="9.536436614763785"><ele>512.0</ele><time>2026-04-04T11:33:01Z</time></trkpt><trkpt lat="44.90857608428099" lon="9.536327936599136"><ele>509.0</ele><time>2026-04-04T11:33:02Z</time></trkpt><trkpt lat="44.90870296732987" lon="9.536211099419333"><ele>506.0</ele><time>2026-04-04T11:33:03Z</time></trkpt><trkpt lat="44.908823762454034" lon="9.536100176609438"><ele>503.0</ele><time>2026-04-04T11:33:04Z</time></trkpt><trkpt lat="44.90894266245819" lon="9.535996176059777"><ele>503.0</ele><time>2026-04-04T11:33:05Z</time></trkpt><trkpt lat="44.90906434577699" lon="9.53592725537129"><ele>503.0</ele><time>2026-04-04T11:33:06Z</time></trkpt><trkpt lat="44.909183379047185" lon="9.535855583474277"><ele>503.0</ele><time>2026-04-04T11:33:07Z</time></trkpt><trkpt lat="44.909306041329614" lon="9.535822147769057"><ele>503.0</ele><time>2026-04-04T11:33:08Z</time></trkpt><trkpt lat="44.90943346408459" lon="9.535800600553669"><ele>500.75</ele><time>2026-04-04T11:33:09Z</time></trkpt><trkpt lat="44.90957118711878" lon="9.535792313592943"><ele>498.5</ele><time>2026-04-04T11:33:10Z</time></trkpt><trkpt lat="44.909701385289566" lon="9.535771733015824"><ele>496.25</ele><time>2026-04-04T11:33:11Z</time></trkpt><trkpt lat="44.909822356081484" lon="9.535740170304617"><ele>494.0</ele><time>2026-04-04T11:33:12Z</time></trkpt><trkpt lat="44.90993454392735" lon="9.535723101046562"><ele>494.0</ele><time>2026-04-04T11:33:13Z</time></trkpt><trkpt lat="44.910036212893125" lon="9.53569676343474"><ele>494.0</ele><time>2026-04-04T11:33:14Z</time></trkpt><trkpt lat="44.91012055177276" lon="9.535629437705836"><ele>494.0</ele><time>2026-04-04T11:33:15Z</time></trkpt><trkpt lat="44.91021110654435" lon="9.535542882861723"><ele>494.0</ele><time>2026-04-04T11:33:16Z</time></trkpt><trkpt lat="44.91030564769919" lon="9.535444356808801"><ele>494.0</ele><time>2026-04-04T11:33:17Z</time></trkpt><trkpt lat="44.91042492275933" lon="9.535350727262674"><ele>489.5</ele><time>2026-04-04T11:33:18Z</time></trkpt><trkpt lat="44.910536568237426" lon="9.535235130453202"><ele>485.0</ele><time>2026-04-04T11:33:19Z</time></trkpt><trkpt lat="44.91065256043274" lon="9.53512570332212"><ele>480.5</ele><time>2026-04-04T11:33:20Z</time></trkpt><trkpt lat="44.9107808359975" lon="9.535021127423224"><ele>476.0</ele><time>2026-04-04T11:33:21Z</time></trkpt><trkpt lat="44.910936220904425" lon="9.534920731890427"><ele>469.3333333333333</ele><time>2026-04-04T11:33:22Z</time></trkpt><trkpt lat="44.91109028980645" lon="9.534801788227753"><ele>462.66666666666663</ele><time>2026-04-04T11:33:23Z</time></trkpt><trkpt lat="44.9112170187614" lon="9.534685224024495"><ele>456.0</ele><time>2026-04-04T11:33:24Z</time></trkpt><trkpt lat="44.91133926528381" lon="9.534589584184246"><ele>456.4</ele><time>2026-04-04T11:33:25Z</time></trkpt><trkpt lat="44.91144704435642" lon="9.534525940430276"><ele>456.8</ele><time>2026-04-04T11:33:26Z</time></trkpt><trkpt lat="44.911532028416474" lon="9.534445015904023"><ele>457.19999999999993</ele><time>2026-04-04T11:33:27Z</time></trkpt><trkpt lat="44.911614294892544" lon="9.534365738152507"><ele>457.59999999999997</ele><time>2026-04-04T11:33:28Z</time></trkpt><trkpt lat="44.91167668807931" lon="9.53426777049481"><ele>458.0</ele><time>2026-04-04T11:33:29Z</time></trkpt><trkpt lat="44.91172346163762" lon="9.534187891713891"><ele>455.66666666666663</ele><time>2026-04-04T11:33:30Z</time></trkpt><trkpt lat="44.91175359270099" lon="9.534105773895595"><ele>453.3333333333333</ele><time>2026-04-04T11:33:31Z</time></trkpt><trkpt lat="44.91177731847853" lon="9.534005021528001"><ele>451.0</ele><time>2026-04-04T11:33:32Z</time></trkpt><trkpt lat="44.91178693992417" lon="9.533883541060213"><ele>448.66666666666663</ele><time>2026-04-04T11:33:33Z</time></trkpt><trkpt lat="44.911812254424184" lon="9.533755931009148"><ele>446.3333333333333</ele><time>2026-04-04T11:33:34Z</time></trkpt><trkpt lat="44.91182168534462" lon="9.533624023993259"><ele>444.0</ele><time>2026-04-04T11:33:35Z</time></trkpt><trkpt lat="44.911856320439696" lon="9.533507647557824"><ele>443.2</ele><time>2026-04-04T11:33:36Z</time></trkpt><trkpt lat="44.91192696474236" lon="9.533422121083413"><ele>442.4</ele><time>2026-04-04T11:33:37Z</time></trkpt><trkpt lat="44.91203432500077" lon="9.533381963943683"><ele>441.6</ele><time>2026-04-04T11:33:38Z</time></trkpt><trkpt lat="44.91215741017998" lon="9.53336805433762"><ele>440.8</ele><time>2026-04-04T11:33:39Z</time></trkpt><trkpt lat="44.91227882548363" lon="9.533376677843183"><ele>440.0</ele><time>2026-04-04T11:33:40Z</time></trkpt><trkpt lat="44.912399093169974" lon="9.533386977604332"><ele>440.0</ele><time>2026-04-04T11:33:41Z</time></trkpt><trkpt lat="44.912502351127884" lon="9.533418812634972"><ele>440.0</ele><time>2026-04-04T11:33:42Z</time></trkpt><trkpt lat="44.912600800634486" lon="9.533466162900224"><ele>440.0</ele><time>2026-04-04T11:33:43Z</time></trkpt><trkpt lat="44.912703219413686" lon="9.533453059801218"><ele>440.0</ele><time>2026-04-04T11:33:43.999Z</time></trkpt><trkpt lat="44.912817202072524" lon="9.533441675653581"><ele>440.0</ele><time>2026-04-04T11:33:44.999Z</time></trkpt><trkpt lat="44.91291358994078" lon="9.533450200245502"><ele>439.0</ele><time>2026-04-04T11:33:45.999Z</time></trkpt><trkpt lat="44.91298236073846" lon="9.533432095202274"><ele>438.0</ele><time>2026-04-04T11:33:46.999Z</time></trkpt><trkpt lat="44.913090737459065" lon="9.533387869342988"><ele>437.0</ele><time>2026-04-04T11:33:48.999Z</time></trkpt><trkpt lat="44.9131274564966" lon="9.533277705811454"><ele>436.0</ele><time>2026-04-04T11:33:49.999Z</time></trkpt><trkpt lat="44.91312741161632" lon="9.533144374162065"><ele>435.0</ele><time>2026-04-04T11:33:50.999Z</time></trkpt><trkpt lat="44.91313346792594" lon="9.53300514556104"><ele>433.25</ele><time>2026-04-04T11:33:51.999Z</time></trkpt><trkpt lat="44.9131281575704" lon="9.532871159318624"><ele>431.5</ele><time>2026-04-04T11:33:52.999Z</time></trkpt><trkpt lat="44.91312081791103" lon="9.532709101853904"><ele>429.75</ele><time>2026-04-04T11:33:53.999Z</time></trkpt><trkpt lat="44.91311668697187" lon="9.532501364622775"><ele>428.0</ele><time>2026-04-04T11:33:54.999Z</time></trkpt><trkpt lat="44.91311305976433" lon="9.532346361015701"><ele>428.0</ele><time>2026-04-04T11:33:55.999Z</time></trkpt><trkpt lat="44.913121531047366" lon="9.53218745241821"><ele>427.99999999999994</ele><time>2026-04-04T11:33:56.999Z</time></trkpt><trkpt lat="44.91314401140437" lon="9.53203742064917"><ele>427.99999999999994</ele><time>2026-04-04T11:33:57.999Z</time></trkpt><trkpt lat="44.91319750488186" lon="9.531915277894678"><ele>428.0</ele><time>2026-04-04T11:33:58.999Z</time></trkpt><trkpt lat="44.91325361165178" lon="9.531792761629948"><ele>428.0</ele><time>2026-04-04T11:33:59.999Z</time></trkpt><trkpt lat="44.9133256961329" lon="9.531662497006842"><ele>425.75</ele><time>2026-04-04T11:34:00.999Z</time></trkpt><trkpt lat="44.91339255035716" lon="9.53152288956551"><ele>423.5</ele><time>2026-04-04T11:34:01.999Z</time></trkpt><trkpt lat="44.913451950196745" lon="9.531349315335566"><ele>421.25</ele><time>2026-04-04T11:34:02.999Z</time></trkpt><trkpt lat="44.91348838687428" lon="9.531206433808954"><ele>419.0</ele><time>2026-04-04T11:34:03.999Z</time></trkpt><trkpt lat="44.91353222882099" lon="9.531064865677509"><ele>416.6</ele><time>2026-04-04T11:34:04.999Z</time></trkpt><trkpt lat="44.913587206762415" lon="9.530933558569439"><ele>414.2</ele><time>2026-04-04T11:34:05.999Z</time></trkpt><trkpt lat="44.91364830809998" lon="9.530832896452427"><ele>411.8</ele><time>2026-04-04T11:34:06.999Z</time></trkpt><trkpt lat="44.913719710755174" lon="9.53074204247616"><ele>409.40000000000003</ele><time>2026-04-04T11:34:07.999Z</time></trkpt><trkpt lat="44.91376830048908" lon="9.53066964828655"><ele>407.0</ele><time>2026-04-04T11:34:08.999Z</time></trkpt><trkpt lat="44.91383508850089" lon="9.530582844819035"><ele>407.0</ele><time>2026-04-04T11:34:10.999Z</time></trkpt><trkpt lat="44.91392305009482" lon="9.530529690181487"><ele>407.0</ele><time>2026-04-04T11:34:12.999Z</time></trkpt><trkpt lat="44.91398072823279" lon="9.530634698622125"><ele>407.0</ele><time>2026-04-04T11:34:13.999Z</time></trkpt><trkpt lat="44.91406059933974" lon="9.530684043353178"><ele>407.0</ele><time>2026-04-04T11:34:14.999Z</time></trkpt><trkpt lat="44.91415119067906" lon="9.530736404098853"><ele>407.0</ele><time>2026-04-04T11:34:15.999Z</time></trkpt><trkpt lat="44.914226180890864" lon="9.530776146530563"><ele>405.0</ele><time>2026-04-04T11:34:16.999Z</time></trkpt><trkpt lat="44.91429394764993" lon="9.530790814128302"><ele>403.0</ele><time>2026-04-04T11:34:17.999Z</time></trkpt><trkpt lat="44.91438448816255" lon="9.530825743630917"><ele>401.0</ele><time>2026-04-04T11:34:19.999Z</time></trkpt><trkpt lat="44.914466416932626" lon="9.530839115440696"><ele>399.0</ele><time>2026-04-04T11:34:21.999Z</time></trkpt><trkpt lat="44.91472512456276" lon="9.53083321997418"><ele>399.0</ele><time>2026-04-04T11:34:27.999Z</time></trkpt><trkpt lat="44.91483477512484" lon="9.530826594839754"><ele>399.0</ele><time>2026-04-04T11:34:30.999Z</time></trkpt><trkpt lat="44.91490935959017" lon="9.530828718129753"><ele>399.0</ele><time>2026-04-04T11:34:32.999Z</time></trkpt><trkpt lat="44.91500020957611" lon="9.530839073848579"><ele>399.0</ele><time>2026-04-04T11:34:34.999Z</time></trkpt><trkpt lat="44.91523226988637" lon="9.53086218748759"><ele>398.4</ele><time>2026-04-04T11:34:40.999Z</time></trkpt><trkpt lat="44.9153040748109" lon="9.531091753252932"><ele>397.79999999999995</ele><time>2026-04-04T11:34:48.999Z</time></trkpt><trkpt lat="44.91528491542966" lon="9.531248968225297"><ele>397.20000000000005</ele><time>2026-04-04T11:34:50.999Z</time></trkpt><trkpt lat="44.91528735333049" lon="9.53135112476829"><ele>396.6</ele><time>2026-04-04T11:34:51.999Z</time></trkpt><trkpt lat="44.915274586749504" lon="9.531451813770287"><ele>396.0</ele><time>2026-04-04T11:34:52.999Z</time></trkpt><trkpt lat="44.91525402448331" lon="9.531600184430635"><ele>396.0</ele><time>2026-04-04T11:34:53.999Z</time></trkpt><trkpt lat="44.91525900533235" lon="9.531794856361739"><ele>396.0</ele><time>2026-04-04T11:34:54.999Z</time></trkpt><trkpt lat="44.91528578479185" lon="9.531994198957392"><ele>396.0</ele><time>2026-04-04T11:34:55.999Z</time></trkpt><trkpt lat="44.915278506089265" lon="9.532143313733812"><ele>396.0</ele><time>2026-04-04T11:34:56.998Z</time></trkpt><trkpt lat="44.9152854191453" lon="9.532296947934752"><ele>397.1666666666667</ele><time>2026-04-04T11:34:58.998Z</time></trkpt><trkpt lat="44.91528416124111" lon="9.532413706812989"><ele>398.33333333333337</ele><time>2026-04-04T11:35:01.998Z</time></trkpt><trkpt lat="44.91527716340228" lon="9.532509841667574"><ele>399.5</ele><time>2026-04-04T11:35:05Z</time></trkpt><trkpt lat="44.915362083806635" lon="9.532582996969763"><ele>400.6666666666667</ele><time>2026-04-04T11:35:09Z</time></trkpt><trkpt lat="44.915454473832625" lon="9.532610777223027"><ele>401.83333333333337</ele><time>2026-04-04T11:35:11Z</time></trkpt><trkpt lat="44.91552126740544" lon="9.532620248074762"><ele>403.0</ele><time>2026-04-04T11:35:12Z</time></trkpt><trkpt lat="44.915602776871985" lon="9.53262203173992"><ele>403.00000000000006</ele><time>2026-04-04T11:35:13Z</time></trkpt><trkpt lat="44.915693428926204" lon="9.532610633147186"><ele>403.0</ele><time>2026-04-04T11:35:14Z</time></trkpt><trkpt lat="44.91578816088142" lon="9.532596848843454"><ele>403.0</ele><time>2026-04-04T11:35:15Z</time></trkpt><trkpt lat="44.91588636409704" lon="9.532601721389259"><ele>403.0</ele><time>2026-04-04T11:35:16Z</time></trkpt><trkpt lat="44.91596786007206" lon="9.532605240259906"><ele>403.00000000000006</ele><time>2026-04-04T11:35:17Z</time></trkpt><trkpt lat="44.916038012130976" lon="9.532611515922936"><ele>403.0</ele><time>2026-04-04T11:35:18Z</time></trkpt><trkpt lat="44.91610411000473" lon="9.532612836814414"><ele>400.83333333333337</ele><time>2026-04-04T11:35:19Z</time></trkpt><trkpt lat="44.91617468996237" lon="9.53261738500966"><ele>398.6666666666667</ele><time>2026-04-04T11:35:20Z</time></trkpt><trkpt lat="44.916240124930695" lon="9.532616786787917"><ele>396.5</ele><time>2026-04-04T11:35:21Z</time></trkpt><trkpt lat="44.916370397171065" lon="9.532625105023223"><ele>394.33333333333337</ele><time>2026-04-04T11:35:23Z</time></trkpt><trkpt lat="44.916448431910645" lon="9.532636604701798"><ele>392.1666666666667</ele><time>2026-04-04T11:35:24Z</time></trkpt><trkpt lat="44.9165301618278" lon="9.53265000417287"><ele>390.0</ele><time>2026-04-04T11:35:25Z</time></trkpt><trkpt lat="44.916598195489314" lon="9.532659320339896"><ele>390.0</ele><time>2026-04-04T11:35:26Z</time></trkpt><trkpt lat="44.916664812530215" lon="9.53266642096759"><ele>390.0</ele><time>2026-04-04T11:35:27Z</time></trkpt><trkpt lat="44.91684535592889" lon="9.532609365376745"><ele>390.0</ele><time>2026-04-04T11:35:30Z</time></trkpt><trkpt lat="44.91691688958456" lon="9.532547702294009"><ele>390.0</ele><time>2026-04-04T11:35:31Z</time></trkpt><trkpt lat="44.916988737203845" lon="9.53248595451241"><ele>390.0</ele><time>2026-04-04T11:35:32Z</time></trkpt><trkpt lat="44.917071534889025" lon="9.532426134382717"><ele>388.3333333333333</ele><time>2026-04-04T11:35:33Z</time></trkpt><trkpt lat="44.917149748403375" lon="9.532376237952885"><ele>386.6666666666667</ele><time>2026-04-04T11:35:34Z</time></trkpt><trkpt lat="44.917224707845044" lon="9.532331697113012"><ele>385.0</ele><time>2026-04-04T11:35:35Z</time></trkpt><trkpt lat="44.91730394775763" lon="9.53229245430985"><ele>383.33333333333337</ele><time>2026-04-04T11:35:36Z</time></trkpt><trkpt lat="44.91737782649098" lon="9.53225617138108"><ele>381.6666666666667</ele><time>2026-04-04T11:35:37Z</time></trkpt><trkpt lat="44.9174627234093" lon="9.5322184773089"><ele>380.0</ele><time>2026-04-04T11:35:38Z</time></trkpt><trkpt lat="44.91753527305383" lon="9.53218784397803"><ele>379.0</ele><time>2026-04-04T11:35:39Z</time></trkpt><trkpt lat="44.91760187703801" lon="9.532171968479775"><ele>378.0</ele><time>2026-04-04T11:35:40Z</time></trkpt><trkpt lat="44.91765797486859" lon="9.532124564921952"><ele>377.0</ele><time>2026-04-04T11:35:41Z</time></trkpt><trkpt lat="44.91772424193116" lon="9.532084496854022"><ele>376.0</ele><time>2026-04-04T11:35:42Z</time></trkpt><trkpt lat="44.91778353158798" lon="9.53205118139875"><ele>375.0</ele><time>2026-04-04T11:35:43Z</time></trkpt><trkpt lat="44.91788045346399" lon="9.531987719993284"><ele>374.0</ele><time>2026-04-04T11:35:45Z</time></trkpt><trkpt lat="44.917966600714095" lon="9.531918461333824"><ele>374.0</ele><time>2026-04-04T11:35:47Z</time></trkpt><trkpt lat="44.91805560080114" lon="9.53181356249017"><ele>374.0</ele><time>2026-04-04T11:35:49Z</time></trkpt><trkpt lat="44.918103089777624" lon="9.531708486174214"><ele>374.0</ele><time>2026-04-04T11:35:51Z</time></trkpt><trkpt lat="44.918150973747856" lon="9.531566302986109"><ele>374.0</ele><time>2026-04-04T11:35:53Z</time></trkpt><trkpt lat="44.91823088082983" lon="9.531523744640944"><ele>374.0</ele><time>2026-04-04T11:35:54Z</time></trkpt><trkpt lat="44.91826060120151" lon="9.531383740542822"><ele>374.0</ele><time>2026-04-04T11:35:56Z</time></trkpt><trkpt lat="44.918299505581416" lon="9.53121153471145"><ele>374.0</ele><time>2026-04-04T11:35:57.999Z</time></trkpt><trkpt lat="44.91832026365931" lon="9.531100237110735"><ele>374.0</ele><time>2026-04-04T11:35:58.999Z</time></trkpt><trkpt lat="44.91830598776583" lon="9.530974928242367"><ele>374.0</ele><time>2026-04-04T11:35:59.999Z</time></trkpt><trkpt lat="44.91832919271135" lon="9.530865454407385"><ele>374.0</ele><time>2026-04-04T11:36:00.999Z</time></trkpt><trkpt lat="44.91836373292961" lon="9.53077846387261"><ele>372.4</ele><time>2026-04-04T11:36:01.999Z</time></trkpt><trkpt lat="44.918446643970206" lon="9.530714631415016"><ele>370.79999999999995</ele><time>2026-04-04T11:36:02.999Z</time></trkpt><trkpt lat="44.918507075487554" lon="9.53064747868465"><ele>369.20000000000005</ele><time>2026-04-04T11:36:03.999Z</time></trkpt><trkpt lat="44.91859788412626" lon="9.530521553419792"><ele>367.6</ele><time>2026-04-04T11:36:05.999Z</time></trkpt><trkpt lat="44.91865668974498" lon="9.530391746273889"><ele>366.0</ele><time>2026-04-04T11:36:07.999Z</time></trkpt><trkpt lat="44.91869442201352" lon="9.53021288377479"><ele>365.3333333333333</ele><time>2026-04-04T11:36:09.999Z</time></trkpt><trkpt lat="44.91871798356313" lon="9.530094973595407"><ele>364.6666666666667</ele><time>2026-04-04T11:36:10.999Z</time></trkpt><trkpt lat="44.918743993064936" lon="9.529979582707611"><ele>364.0</ele><time>2026-04-04T11:36:11.999Z</time></trkpt><trkpt lat="44.9188094993918" lon="9.529893679111705"><ele>363.33333333333337</ele><time>2026-04-04T11:36:12.999Z</time></trkpt><trkpt lat="44.918858823715524" lon="9.52980163759489"><ele>362.6666666666667</ele><time>2026-04-04T11:36:13.999Z</time></trkpt><trkpt lat="44.91892189636955" lon="9.52971985756185"><ele>362.0</ele><time>2026-04-04T11:36:14.999Z</time></trkpt><trkpt lat="44.919005828058125" lon="9.529651316608321"><ele>362.0</ele><time>2026-04-04T11:36:15.999Z</time></trkpt><trkpt lat="44.9190965845108" lon="9.529595041348788"><ele>362.0</ele><time>2026-04-04T11:36:16.999Z</time></trkpt><trkpt lat="44.919190643984344" lon="9.529524275903338"><ele>362.0</ele><time>2026-04-04T11:36:17.999Z</time></trkpt><trkpt lat="44.91927883956441" lon="9.529445584471611"><ele>362.0</ele><time>2026-04-04T11:36:18.999Z</time></trkpt><trkpt lat="44.919359809495504" lon="9.529383014268907"><ele>362.0</ele><time>2026-04-04T11:36:19.999Z</time></trkpt><trkpt lat="44.91944500544468" lon="9.529335908142308"><ele>358.0</ele><time>2026-04-04T11:36:20.999Z</time></trkpt><trkpt lat="44.91951721939221" lon="9.529296305086577"><ele>354.0</ele><time>2026-04-04T11:36:21.999Z</time></trkpt><trkpt lat="44.91958339511089" lon="9.529263706752236"><ele>350.0</ele><time>2026-04-04T11:36:22.999Z</time></trkpt><trkpt lat="44.919703464776276" lon="9.529284992319415"><ele>346.0</ele><time>2026-04-04T11:36:24.999Z</time></trkpt><trkpt lat="44.919758833605954" lon="9.529329375799456"><ele>342.0</ele><time>2026-04-04T11:36:25.999Z</time></trkpt><trkpt lat="44.919820962405424" lon="9.529397444234341"><ele>338.0</ele><time>2026-04-04T11:36:26.999Z</time></trkpt><trkpt lat="44.919884288939215" lon="9.529496548076649"><ele>338.33333333333337</ele><time>2026-04-04T11:36:27.999Z</time></trkpt><trkpt lat="44.91993892897384" lon="9.529566322307614"><ele>338.6666666666667</ele><time>2026-04-04T11:36:28.999Z</time></trkpt><trkpt lat="44.91999334699118" lon="9.529638574835877"><ele>339.0</ele><time>2026-04-04T11:36:29.999Z</time></trkpt><trkpt lat="44.920045587462305" lon="9.52971195995162"><ele>339.3333333333333</ele><time>2026-04-04T11:36:30.999Z</time></trkpt><trkpt lat="44.92010375852525" lon="9.529803478778126"><ele>339.66666666666663</ele><time>2026-04-04T11:36:31.999Z</time></trkpt><trkpt lat="44.92010645257195" lon="9.529916067589786"><ele>340.0</ele><time>2026-04-04T11:36:32.999Z</time></trkpt><trkpt lat="44.920137253801705" lon="9.530052086972326"><ele>337.2</ele><time>2026-04-04T11:36:34.999Z</time></trkpt><trkpt lat="44.920133898603815" lon="9.530158066521237"><ele>334.4</ele><time>2026-04-04T11:36:35.999Z</time></trkpt><trkpt lat="44.9202062324552" lon="9.530292100402537"><ele>331.6</ele><time>2026-04-04T11:36:37.999Z</time></trkpt><trkpt lat="44.920347765256004" lon="9.530329070122665"><ele>328.8</ele><time>2026-04-04T11:36:39.999Z</time></trkpt><trkpt lat="44.92043117801663" lon="9.530345459294669"><ele>326.0</ele><time>2026-04-04T11:36:40.999Z</time></trkpt><trkpt lat="44.92050669972433" lon="9.530367916880325"><ele>325.83333333333337</ele><time>2026-04-04T11:36:41.999Z</time></trkpt><trkpt lat="44.920576247915285" lon="9.530411415249832"><ele>325.6666666666667</ele><time>2026-04-04T11:36:42.999Z</time></trkpt><trkpt lat="44.920620570507914" lon="9.530497299397066"><ele>325.5</ele><time>2026-04-04T11:36:43.999Z</time></trkpt><trkpt lat="44.9206461559838" lon="9.530592182261595"><ele>325.3333333333333</ele><time>2026-04-04T11:36:44.999Z</time></trkpt><trkpt lat="44.92065830544921" lon="9.53076125949149"><ele>325.16666666666663</ele><time>2026-04-04T11:36:46.999Z</time></trkpt><trkpt lat="44.92068327998835" lon="9.53090434351246"><ele>325.0</ele><time>2026-04-04T11:36:48.999Z</time></trkpt><trkpt lat="44.92068878637718" lon="9.531038471018139"><ele>325.0</ele><time>2026-04-04T11:36:50.999Z</time></trkpt><trkpt lat="44.920691041544856" lon="9.531182262785677"><ele>325.0</ele><time>2026-04-04T11:36:52.999Z</time></trkpt><trkpt lat="44.92069418122567" lon="9.531293691150562"><ele>325.0</ele><time>2026-04-04T11:36:53.999Z</time></trkpt><trkpt lat="44.9207123501491" lon="9.531399057917664"><ele>325.0</ele><time>2026-04-04T11:36:54.999Z</time></trkpt><trkpt lat="44.92073201915152" lon="9.531490987712953"><ele>325.0</ele><time>2026-04-04T11:36:55.999Z</time></trkpt><trkpt lat="44.92075614749524" lon="9.53157351793639"><ele>325.0</ele><time>2026-04-04T11:36:56.999Z</time></trkpt><trkpt lat="44.920810931204834" lon="9.53175415367699"><ele>325.0</ele><time>2026-04-04T11:36:58.999Z</time></trkpt><trkpt lat="44.92083170732287" lon="9.53187656127324"><ele>325.0</ele><time>2026-04-04T11:36:59.999Z</time></trkpt><trkpt lat="44.92085953942444" lon="9.532002103717742"><ele>325.0</ele><time>2026-04-04T11:37:00.999Z</time></trkpt><trkpt lat="44.920880038268656" lon="9.532124096140874"><ele>325.0</ele><time>2026-04-04T11:37:01.999Z</time></trkpt><trkpt lat="44.920918365164745" lon="9.53226072580877"><ele>325.0</ele><time>2026-04-04T11:37:02.999Z</time></trkpt><trkpt lat="44.92092959430743" lon="9.53239996419227"><ele>324.0</ele><time>2026-04-04T11:37:03.999Z</time></trkpt><trkpt lat="44.92096562889067" lon="9.53255563387885"><ele>323.0</ele><time>2026-04-04T11:37:04.999Z</time></trkpt><trkpt lat="44.921027500604986" lon="9.532714328410094"><ele>322.0</ele><time>2026-04-04T11:37:05.999Z</time></trkpt><trkpt lat="44.92109791469717" lon="9.532878788036298"><ele>321.0</ele><time>2026-04-04T11:37:06.999Z</time></trkpt><trkpt lat="44.92114747861962" lon="9.533046366507357"><ele>321.0</ele><time>2026-04-04T11:37:07.999Z</time></trkpt><trkpt lat="44.92116237434641" lon="9.533211751086979"><ele>321.0</ele><time>2026-04-04T11:37:09Z</time></trkpt><trkpt lat="44.921200108560434" lon="9.533386307717043"><ele>321.0</ele><time>2026-04-04T11:37:10Z</time></trkpt><trkpt lat="44.921228758596065" lon="9.53358430968788"><ele>321.0</ele><time>2026-04-04T11:37:11Z</time></trkpt><trkpt lat="44.921264417642554" lon="9.533776679545817"><ele>322.5</ele><time>2026-04-04T11:37:12Z</time></trkpt><trkpt lat="44.921333821964524" lon="9.53392452421636"><ele>324.0</ele><time>2026-04-04T11:37:13Z</time></trkpt><trkpt lat="44.921417353058075" lon="9.534026486942984"><ele>325.5</ele><time>2026-04-04T11:37:14Z</time></trkpt><trkpt lat="44.92152569372296" lon="9.534111711616259"><ele>327.0</ele><time>2026-04-04T11:37:15Z</time></trkpt><trkpt lat="44.921631172189066" lon="9.53422179373955"><ele>327.0</ele><time>2026-04-04T11:37:16Z</time></trkpt><trkpt lat="44.92172351314696" lon="9.534299643636661"><ele>327.0</ele><time>2026-04-04T11:37:17Z</time></trkpt><trkpt lat="44.92180186633099" lon="9.534367597278447"><ele>327.0</ele><time>2026-04-04T11:37:18Z</time></trkpt><trkpt lat="44.92187836513356" lon="9.534463023648508"><ele>327.0</ele><time>2026-04-04T11:37:19Z</time></trkpt><trkpt lat="44.92195824121382" lon="9.534513859902544"><ele>327.0</ele><time>2026-04-04T11:37:20Z</time></trkpt><trkpt lat="44.92202155270705" lon="9.534575928830355"><ele>328.0</ele><time>2026-04-04T11:37:21Z</time></trkpt><trkpt lat="44.92209139615726" lon="9.534656884265866"><ele>329.0</ele><time>2026-04-04T11:37:22Z</time></trkpt><trkpt lat="44.922150665355666" lon="9.534761341399285"><ele>330.0</ele><time>2026-04-04T11:37:23Z</time></trkpt><trkpt lat="44.922191318439076" lon="9.53487734259449"><ele>331.0</ele><time>2026-04-04T11:37:24Z</time></trkpt><trkpt lat="44.922229618443545" lon="9.5349758877774"><ele>332.0</ele><time>2026-04-04T11:37:25Z</time></trkpt><trkpt lat="44.92226938382121" lon="9.535087612391026"><ele>333.0</ele><time>2026-04-04T11:37:26Z</time></trkpt><trkpt lat="44.922310486043315" lon="9.535203764530085"><ele>333.0</ele><time>2026-04-04T11:37:27Z</time></trkpt><trkpt lat="44.92235059750265" lon="9.535315722280128"><ele>333.0</ele><time>2026-04-04T11:37:28Z</time></trkpt><trkpt lat="44.92239729764159" lon="9.535419570113682"><ele>333.0</ele><time>2026-04-04T11:37:29Z</time></trkpt><trkpt lat="44.92246064079387" lon="9.5354997857903"><ele>333.0</ele><time>2026-04-04T11:37:30Z</time></trkpt><trkpt lat="44.92253336943164" lon="9.535572675515276"><ele>333.0</ele><time>2026-04-04T11:37:31Z</time></trkpt><trkpt lat="44.922603177887794" lon="9.53564165163748"><ele>333.0</ele><time>2026-04-04T11:37:32Z</time></trkpt><trkpt lat="44.922680176054364" lon="9.535714633740902"><ele>335.5</ele><time>2026-04-04T11:37:33Z</time></trkpt><trkpt lat="44.92277094221469" lon="9.53576770617016"><ele>338.0</ele><time>2026-04-04T11:37:34Z</time></trkpt><trkpt lat="44.92288736576223" lon="9.535813070960888"><ele>340.5</ele><time>2026-04-04T11:37:35Z</time></trkpt><trkpt lat="44.92301386867885" lon="9.535854848720618"><ele>343.0</ele><time>2026-04-04T11:37:36Z</time></trkpt><trkpt lat="44.92313649497061" lon="9.535860710796802"><ele>343.0</ele><time>2026-04-04T11:37:37Z</time></trkpt><trkpt lat="44.923235219084795" lon="9.535903449390538"><ele>343.0</ele><time>2026-04-04T11:37:38Z</time></trkpt><trkpt lat="44.92332224273597" lon="9.535922147031703"><ele>343.0</ele><time>2026-04-04T11:37:39Z</time></trkpt><trkpt lat="44.923400578055706" lon="9.535938977853506"><ele>343.0</ele><time>2026-04-04T11:37:40Z</time></trkpt><trkpt lat="44.92346478308268" lon="9.535955865369736"><ele>343.0</ele><time>2026-04-04T11:37:41Z</time></trkpt><trkpt lat="44.92352809556988" lon="9.535960586038879"><ele>343.0</ele><time>2026-04-04T11:37:42Z</time></trkpt><trkpt lat="44.92358112248927" lon="9.536012093652062"><ele>343.66666666666663</ele><time>2026-04-04T11:37:43Z</time></trkpt><trkpt lat="44.92361752551233" lon="9.536100410153232"><ele>344.3333333333333</ele><time>2026-04-04T11:37:44Z</time></trkpt><trkpt lat="44.92367515066427" lon="9.53617808282728"><ele>345.0</ele><time>2026-04-04T11:37:45Z</time></trkpt><trkpt lat="44.92373584903448" lon="9.536280799399"><ele>345.6666666666667</ele><time>2026-04-04T11:37:47Z</time></trkpt><trkpt lat="44.92377558221527" lon="9.536356969146448"><ele>346.33333333333337</ele><time>2026-04-04T11:37:49Z</time></trkpt><trkpt lat="44.923834190258106" lon="9.536401393796199"><ele>347.0</ele><time>2026-04-04T11:37:51Z</time></trkpt><trkpt lat="44.92387473814429" lon="9.536497172335807"><ele>347.33333333333337</ele><time>2026-04-04T11:37:53Z</time></trkpt><trkpt lat="44.923995478207395" lon="9.536472179789461"><ele>347.6666666666667</ele><time>2026-04-04T11:37:54Z</time></trkpt><trkpt lat="44.924076711758026" lon="9.536499896247873"><ele>348.0</ele><time>2026-04-04T11:37:55Z</time></trkpt><trkpt lat="44.92413837656648" lon="9.536537011041153"><ele>348.3333333333333</ele><time>2026-04-04T11:37:56Z</time></trkpt><trkpt lat="44.92420674662375" lon="9.536557924728426"><ele>348.66666666666663</ele><time>2026-04-04T11:37:57Z</time></trkpt><trkpt lat="44.92429606604159" lon="9.53659232761595"><ele>349.0</ele><time>2026-04-04T11:37:58Z</time></trkpt><trkpt lat="44.92440422481375" lon="9.536630108603276"><ele>347.2</ele><time>2026-04-04T11:37:59Z</time></trkpt><trkpt lat="44.924515442952746" lon="9.536649214161885"><ele>345.4</ele><time>2026-04-04T11:38:00Z</time></trkpt><trkpt lat="44.924628212132234" lon="9.536663702115806"><ele>343.6</ele><time>2026-04-04T11:38:00.999Z</time></trkpt><trkpt lat="44.92473164916432" lon="9.536683679211889"><ele>341.8</ele><time>2026-04-04T11:38:01.999Z</time></trkpt><trkpt lat="44.92482727693742" lon="9.536706599599453"><ele>340.0</ele><time>2026-04-04T11:38:02.999Z</time></trkpt><trkpt lat="44.92491919197237" lon="9.536736360617468"><ele>340.0</ele><time>2026-04-04T11:38:03.999Z</time></trkpt><trkpt lat="44.92500587306224" lon="9.536798101904292"><ele>340.0</ele><time>2026-04-04T11:38:04.999Z</time></trkpt><trkpt lat="44.92508816255063" lon="9.53687546440382"><ele>340.0</ele><time>2026-04-04T11:38:05.999Z</time></trkpt><trkpt lat="44.92516541649115" lon="9.53693698728237"><ele>340.0</ele><time>2026-04-04T11:38:06.999Z</time></trkpt><trkpt lat="44.925231397059925" lon="9.536996357034546"><ele>340.0</ele><time>2026-04-04T11:38:07.999Z</time></trkpt><trkpt lat="44.925283896387526" lon="9.537060588005305"><ele>340.0</ele><time>2026-04-04T11:38:08.999Z</time></trkpt><trkpt lat="44.92537865696191" lon="9.537161826075785"><ele>338.66666666666663</ele><time>2026-04-04T11:38:10.999Z</time></trkpt><trkpt lat="44.92545890329115" lon="9.537189891959"><ele>337.3333333333333</ele><time>2026-04-04T11:38:12.999Z</time></trkpt><trkpt lat="44.92551903316028" lon="9.537221202417761"><ele>336.0</ele><time>2026-04-04T11:38:14.999Z</time></trkpt><trkpt lat="44.92558509580145" lon="9.537243975896093"><ele>334.6666666666667</ele><time>2026-04-04T11:38:16.999Z</time></trkpt><trkpt lat="44.92567398696374" lon="9.537205119559454"><ele>333.33333333333337</ele><time>2026-04-04T11:38:18.999Z</time></trkpt><trkpt lat="44.925734846826444" lon="9.537170760797578"><ele>332.0</ele><time>2026-04-04T11:38:19.999Z</time></trkpt><trkpt lat="44.92582391352722" lon="9.53712895622546"><ele>330.40000000000003</ele><time>2026-04-04T11:38:21.999Z</time></trkpt><trkpt lat="44.925966931228686" lon="9.537100455388346"><ele>328.8</ele><time>2026-04-04T11:38:23.999Z</time></trkpt><trkpt lat="44.92602832064183" lon="9.537032931740164"><ele>327.2</ele><time>2026-04-04T11:38:24.999Z</time></trkpt><trkpt lat="44.92609156918764" lon="9.536960391850782"><ele>325.6</ele><time>2026-04-04T11:38:25.999Z</time></trkpt><trkpt lat="44.92615455896972" lon="9.53687135944619"><ele>324.0</ele><time>2026-04-04T11:38:26.999Z</time></trkpt><trkpt lat="44.926205399016204" lon="9.536777445954868"><ele>323.8333333333333</ele><time>2026-04-04T11:38:27.999Z</time></trkpt><trkpt lat="44.9262500393991" lon="9.536671661058053"><ele>323.6666666666667</ele><time>2026-04-04T11:38:28.999Z</time></trkpt><trkpt lat="44.92628866880057" lon="9.53656890830074"><ele>323.5</ele><time>2026-04-04T11:38:29.999Z</time></trkpt><trkpt lat="44.9263406911038" lon="9.536471891030006"><ele>323.33333333333337</ele><time>2026-04-04T11:38:30.999Z</time></trkpt><trkpt lat="44.926380881134534" lon="9.536376447632245"><ele>323.1666666666667</ele><time>2026-04-04T11:38:31.999Z</time></trkpt><trkpt lat="44.92643108817683" lon="9.53627853834138"><ele>323.0</ele><time>2026-04-04T11:38:32.999Z</time></trkpt><trkpt lat="44.9264916256441" lon="9.536186208657204"><ele>321.59999999999997</ele><time>2026-04-04T11:38:33.999Z</time></trkpt><trkpt lat="44.92655681150746" lon="9.536097790649718"><ele>320.2</ele><time>2026-04-04T11:38:34.999Z</time></trkpt><trkpt lat="44.92661660694186" lon="9.535990397812013"><ele>318.8</ele><time>2026-04-04T11:38:35.999Z</time></trkpt><trkpt lat="44.92666607707421" lon="9.535859726818893"><ele>317.4</ele><time>2026-04-04T11:38:36.999Z</time></trkpt><trkpt lat="44.926702391454526" lon="9.535715332835679"><ele>316.0</ele><time>2026-04-04T11:38:37.999Z</time></trkpt><trkpt lat="44.9267354280046" lon="9.535576454763858"><ele>314.40000000000003</ele><time>2026-04-04T11:38:38.999Z</time></trkpt><trkpt lat="44.92677758424226" lon="9.535447125130794"><ele>312.8</ele><time>2026-04-04T11:38:39.999Z</time></trkpt><trkpt lat="44.92682447291332" lon="9.535321104648782"><ele>311.20000000000005</ele><time>2026-04-04T11:38:40.999Z</time></trkpt><trkpt lat="44.926874919945554" lon="9.535202111029616"><ele>309.6</ele><time>2026-04-04T11:38:41.999Z</time></trkpt><trkpt lat="44.92692389008791" lon="9.535088765628041"><ele>308.0</ele><time>2026-04-04T11:38:42.999Z</time></trkpt><trkpt lat="44.92698104528273" lon="9.53497517914514"><ele>307.4</ele><time>2026-04-04T11:38:43.999Z</time></trkpt><trkpt lat="44.927030948146665" lon="9.53485860083746"><ele>306.8</ele><time>2026-04-04T11:38:44.999Z</time></trkpt><trkpt lat="44.92708063695586" lon="9.534740656774296"><ele>306.2</ele><time>2026-04-04T11:38:45.999Z</time></trkpt><trkpt lat="44.92712087864026" lon="9.53462457607886"><ele>305.6</ele><time>2026-04-04T11:38:46.999Z</time></trkpt><trkpt lat="44.927153506611305" lon="9.534513118822135"><ele>305.0</ele><time>2026-04-04T11:38:47.999Z</time></trkpt><trkpt lat="44.92718428744897" lon="9.534400048367187"><ele>305.0</ele><time>2026-04-04T11:38:48.999Z</time></trkpt><trkpt lat="44.927213818250216" lon="9.534291693470218"><ele>305.0</ele><time>2026-04-04T11:38:49.999Z</time></trkpt><trkpt lat="44.927235158351486" lon="9.53418812781214"><ele>305.0</ele><time>2026-04-04T11:38:50.999Z</time></trkpt><trkpt lat="44.927252493363724" lon="9.5340961348351"><ele>305.0</ele><time>2026-04-04T11:38:51.999Z</time></trkpt><trkpt lat="44.92728446781706" lon="9.533942327063302"><ele>305.0</ele><time>2026-04-04T11:38:53.999Z</time></trkpt><trkpt lat="44.92731058491162" lon="9.533816914126156"><ele>305.0</ele><time>2026-04-04T11:38:55.999Z</time></trkpt><trkpt lat="44.927391912665925" lon="9.533693685058534"><ele>305.0</ele><time>2026-04-04T11:38:57.999Z</time></trkpt><trkpt lat="44.927462835338446" lon="9.533566326637985"><ele>305.0</ele><time>2026-04-04T11:38:59.999Z</time></trkpt><trkpt lat="44.92754565985988" lon="9.533453026723967"><ele>305.0</ele><time>2026-04-04T11:39:01.999Z</time></trkpt><trkpt lat="44.92760681525765" lon="9.533318172933297"><ele>305.0</ele><time>2026-04-04T11:39:03.999Z</time></trkpt><trkpt lat="44.927680052768984" lon="9.533208119956528"><ele>303.1666666666667</ele><time>2026-04-04T11:39:05.999Z</time></trkpt><trkpt lat="44.92778318840802" lon="9.533090271495743"><ele>301.33333333333337</ele><time>2026-04-04T11:39:07.999Z</time></trkpt><trkpt lat="44.92783406702374" lon="9.53301345825048"><ele>299.5</ele><time>2026-04-04T11:39:08.999Z</time></trkpt><trkpt lat="44.92785977258217" lon="9.532926994597455"><ele>297.6666666666667</ele><time>2026-04-04T11:39:09.999Z</time></trkpt><trkpt lat="44.927899797136035" lon="9.5328487063995"><ele>295.8333333333333</ele><time>2026-04-04T11:39:10.999Z</time></trkpt><trkpt lat="44.92793674694793" lon="9.532776432337988"><ele>294.0</ele><time>2026-04-04T11:39:11.998Z</time></trkpt><trkpt lat="44.928013691444626" lon="9.532739420259709"><ele>293.1666666666667</ele><time>2026-04-04T11:39:12.998Z</time></trkpt><trkpt lat="44.92808327281255" lon="9.532728126365724"><ele>292.3333333333333</ele><time>2026-04-04T11:39:13.998Z</time></trkpt><trkpt lat="44.928146261241594" lon="9.532703524795295"><ele>291.5</ele><time>2026-04-04T11:39:15Z</time></trkpt><trkpt lat="44.92822688522151" lon="9.532685210360956"><ele>290.66666666666663</ele><time>2026-04-04T11:39:16Z</time></trkpt><trkpt lat="44.92831778088785" lon="9.532684065779844"><ele>289.8333333333333</ele><time>2026-04-04T11:39:17Z</time></trkpt><trkpt lat="44.928413611972324" lon="9.532654275265843"><ele>289.0</ele><time>2026-04-04T11:39:18Z</time></trkpt><trkpt lat="44.92852191494873" lon="9.532639962630808"><ele>287.59999999999997</ele><time>2026-04-04T11:39:19Z</time></trkpt><trkpt lat="44.928618313962886" lon="9.532624157025314"><ele>286.2</ele><time>2026-04-04T11:39:20Z</time></trkpt><trkpt lat="44.92871149325533" lon="9.532617022195705"><ele>284.79999999999995</ele><time>2026-04-04T11:39:21Z</time></trkpt><trkpt lat="44.92881511843251" lon="9.532599414650946"><ele>283.4</ele><time>2026-04-04T11:39:22Z</time></trkpt><trkpt lat="44.928915355878814" lon="9.532581160616584"><ele>282.0</ele><time>2026-04-04T11:39:23Z</time></trkpt><trkpt lat="44.92902153229062" lon="9.53256765032503"><ele>282.0</ele><time>2026-04-04T11:39:24Z</time></trkpt><trkpt lat="44.92912662400009" lon="9.532557763120023"><ele>282.0</ele><time>2026-04-04T11:39:25Z</time></trkpt><trkpt lat="44.92922109450142" lon="9.532544185042866"><ele>282.0</ele><time>2026-04-04T11:39:26Z</time></trkpt><trkpt lat="44.92932777345672" lon="9.532532052318055"><ele>282.0</ele><time>2026-04-04T11:39:27Z</time></trkpt><trkpt lat="44.929451233120176" lon="9.532519560111348"><ele>282.0</ele><time>2026-04-04T11:39:28Z</time></trkpt><trkpt lat="44.92957110670006" lon="9.532507063431607"><ele>280.4</ele><time>2026-04-04T11:39:29Z</time></trkpt><trkpt lat="44.92967253615794" lon="9.532489113509973"><ele>278.79999999999995</ele><time>2026-04-04T11:39:30Z</time></trkpt><trkpt lat="44.92976517792539" lon="9.532467732214995"><ele>277.2</ele><time>2026-04-04T11:39:31Z</time></trkpt><trkpt lat="44.9298745655445" lon="9.53245068123308"><ele>275.59999999999997</ele><time>2026-04-04T11:39:32Z</time></trkpt><trkpt lat="44.929989948552596" lon="9.532457649096594"><ele>274.0</ele><time>2026-04-04T11:39:33Z</time></trkpt><trkpt lat="44.93010558314134" lon="9.532444007703685"><ele>273.16666666666663</ele><time>2026-04-04T11:39:34Z</time></trkpt><trkpt lat="44.93020813964508" lon="9.532409183164482"><ele>272.3333333333333</ele><time>2026-04-04T11:39:35Z</time></trkpt><trkpt lat="44.930301939286416" lon="9.53242162730169"><ele>271.5</ele><time>2026-04-04T11:39:36Z</time></trkpt><trkpt lat="44.93037774913737" lon="9.532415320767365"><ele>270.6666666666667</ele><time>2026-04-04T11:39:37Z</time></trkpt><trkpt lat="44.93045343005217" lon="9.532409815787497"><ele>269.83333333333337</ele><time>2026-04-04T11:39:38Z</time></trkpt><trkpt lat="44.9305203635384" lon="9.532378011837656"><ele>269.0</ele><time>2026-04-04T11:39:39Z</time></trkpt><trkpt lat="44.93058528810527" lon="9.532354624980341"><ele>269.0</ele><time>2026-04-04T11:39:40Z</time></trkpt><trkpt lat="44.930669604679665" lon="9.532331210026744"><ele>269.0</ele><time>2026-04-04T11:39:41Z</time></trkpt><trkpt lat="44.93075796546075" lon="9.532269357255899"><ele>269.0</ele><time>2026-04-04T11:39:42Z</time></trkpt><trkpt lat="44.930840179474416" lon="9.532205371331766"><ele>269.0</ele><time>2026-04-04T11:39:43Z</time></trkpt><trkpt lat="44.93092140603125" lon="9.532170588158271"><ele>269.0</ele><time>2026-04-04T11:39:44Z</time></trkpt><trkpt lat="44.9309852282064" lon="9.532131851416866"><ele>269.0</ele><time>2026-04-04T11:39:45Z</time></trkpt><trkpt lat="44.93104631024822" lon="9.532094777794097"><ele>267.59999999999997</ele><time>2026-04-04T11:39:46Z</time></trkpt><trkpt lat="44.93110048532143" lon="9.532044537394189"><ele>266.2</ele><time>2026-04-04T11:39:47Z</time></trkpt><trkpt lat="44.93121265223896" lon="9.532032278712501"><ele>264.79999999999995</ele><time>2026-04-04T11:39:49Z</time></trkpt><trkpt lat="44.93131270370038" lon="9.532010309887395"><ele>263.4</ele><time>2026-04-04T11:39:51Z</time></trkpt><trkpt lat="44.93141347791017" lon="9.531987661468142"><ele>262.0</ele><time>2026-04-04T11:39:53Z</time></trkpt><trkpt lat="44.931505436159604" lon="9.531956685589668"><ele>262.0</ele><time>2026-04-04T11:39:55Z</time></trkpt><trkpt lat="44.93161099607662" lon="9.531929458084935"><ele>262.0</ele><time>2026-04-04T11:39:57Z</time></trkpt><trkpt lat="44.93172893292258" lon="9.531929988436211"><ele>262.0</ele><time>2026-04-04T11:39:59Z</time></trkpt><trkpt lat="44.931846077199985" lon="9.531902370578239"><ele>262.0</ele><time>2026-04-04T11:40:01Z</time></trkpt><trkpt lat="44.93192602226912" lon="9.531870458062853"><ele>262.0</ele><time>2026-04-04T11:40:02.999Z</time></trkpt><trkpt lat="44.93200194984235" lon="9.531830573631883"><ele>261.3333333333333</ele><time>2026-04-04T11:40:16.999Z</time></trkpt><trkpt lat="44.93206020248323" lon="9.53178635633798"><ele>260.66666666666663</ele><time>2026-04-04T11:40:18.999Z</time></trkpt><trkpt lat="44.93211988320879" lon="9.531658796730449"><ele>260.0</ele><time>2026-04-04T11:40:21.999Z</time></trkpt><trkpt lat="44.93214660270007" lon="9.531547228817598"><ele>259.3333333333333</ele><time>2026-04-04T11:40:23.999Z</time></trkpt><trkpt lat="44.932166674120204" lon="9.531441036870099"><ele>258.6666666666667</ele><time>2026-04-04T11:40:25.999Z</time></trkpt><trkpt lat="44.932187624076484" lon="9.531294146581365"><ele>258.0</ele><time>2026-04-04T11:40:27.999Z</time></trkpt><trkpt lat="44.93221014512037" lon="9.531157417598198"><ele>258.0</ele><time>2026-04-04T11:40:29.999Z</time></trkpt><trkpt lat="44.93221385765858" lon="9.531061783870806"><ele>258.0</ele><time>2026-04-04T11:40:30.999Z</time></trkpt><trkpt lat="44.93223455544066" lon="9.530937010911323"><ele>258.0</ele><time>2026-04-04T11:40:31.999Z</time></trkpt><trkpt lat="44.93224433428086" lon="9.530784901559672"><ele>258.0</ele><time>2026-04-04T11:40:33.999Z</time></trkpt><trkpt lat="44.93224749720374" lon="9.530629474448308"><ele>258.0</ele><time>2026-04-04T11:40:35.999Z</time></trkpt><trkpt lat="44.93225563599525" lon="9.530489613862995"><ele>257.3333333333333</ele><time>2026-04-04T11:40:37.999Z</time></trkpt><trkpt lat="44.93225393177546" lon="9.530340094537488"><ele>256.6666666666667</ele><time>2026-04-04T11:40:39.999Z</time></trkpt><trkpt lat="44.932250796977996" lon="9.530204221212346"><ele>256.0</ele><time>2026-04-04T11:40:41.999Z</time></trkpt><trkpt lat="44.932267404202264" lon="9.530092732384988"><ele>255.33333333333334</ele><time>2026-04-04T11:40:44.999Z</time></trkpt><trkpt lat="44.932274494063" lon="9.529987805790286"><ele>254.66666666666669</ele><time>2026-04-04T11:40:46.999Z</time></trkpt><trkpt lat="44.93230967165531" lon="9.529889696700188"><ele>254.0</ele><time>2026-04-04T11:40:47.999Z</time></trkpt><trkpt lat="44.93238858668204" lon="9.529824548936384"><ele>254.00000000000003</ele><time>2026-04-04T11:40:49.999Z</time></trkpt><trkpt lat="44.932460611080266" lon="9.529791368105526"><ele>254.0</ele><time>2026-04-04T11:40:50.999Z</time></trkpt><trkpt lat="44.93254122609496" lon="9.529768682952863"><ele>254.0</ele><time>2026-04-04T11:40:51.999Z</time></trkpt><trkpt lat="44.93260628199993" lon="9.529746282468578"><ele>254.0</ele><time>2026-04-04T11:40:52.999Z</time></trkpt><trkpt lat="44.932674921708404" lon="9.529737189682969"><ele>254.00000000000003</ele><time>2026-04-04T11:40:53.999Z</time></trkpt><trkpt lat="44.932813615097416" lon="9.529707118085433"><ele>254.0</ele><time>2026-04-04T11:40:55.999Z</time></trkpt><trkpt lat="44.932887829952634" lon="9.52969355094752"><ele>251.79999999999998</ele><time>2026-04-04T11:40:56.999Z</time></trkpt><trkpt lat="44.93296845628201" lon="9.529690120413456"><ele>249.59999999999997</ele><time>2026-04-04T11:40:57.999Z</time></trkpt><trkpt lat="44.933083766815386" lon="9.529651410495566"><ele>247.4</ele><time>2026-04-04T11:40:59.999Z</time></trkpt><trkpt lat="44.93319857734916" lon="9.529652105120844"><ele>245.2</ele><time>2026-04-04T11:41:01.999Z</time></trkpt><trkpt lat="44.93328546149984" lon="9.529662236020092"><ele>243.0</ele><time>2026-04-04T11:41:02.999Z</time></trkpt><trkpt lat="44.93336394130576" lon="9.529656756514543"><ele>241.66666666666666</ele><time>2026-04-04T11:41:03.999Z</time></trkpt><trkpt lat="44.93343933903416" lon="9.529653976546877"><ele>240.33333333333331</ele><time>2026-04-04T11:41:04.999Z</time></trkpt><trkpt lat="44.93351393414896" lon="9.529639715180437"><ele>239.0</ele><time>2026-04-04T11:41:05.999Z</time></trkpt><trkpt lat="44.93359827634891" lon="9.529620749998708"><ele>237.66666666666666</ele><time>2026-04-04T11:41:06.999Z</time></trkpt><trkpt lat="44.933674754882155" lon="9.529593014380815"><ele>236.33333333333331</ele><time>2026-04-04T11:41:07.999Z</time></trkpt><trkpt lat="44.93375894710831" lon="9.529564692888044"><ele>235.0</ele><time>2026-04-04T11:41:08.999Z</time></trkpt><trkpt lat="44.933828283908596" lon="9.529536010439362"><ele>234.4</ele><time>2026-04-04T11:41:09.999Z</time></trkpt><trkpt lat="44.93393690005559" lon="9.52948465346607"><ele>233.8</ele><time>2026-04-04T11:41:11.999Z</time></trkpt><trkpt lat="44.93400455112172" lon="9.529447612643477"><ele>233.2</ele><time>2026-04-04T11:41:12.999Z</time></trkpt><trkpt lat="44.93407414155167" lon="9.529404300275706"><ele>232.6</ele><time>2026-04-04T11:41:13.998Z</time></trkpt><trkpt lat="44.93418773089928" lon="9.529337878740005"><ele>232.0</ele><time>2026-04-04T11:41:15.998Z</time></trkpt><trkpt lat="44.93426365032266" lon="9.529285894644644"><ele>231.49999999999997</ele><time>2026-04-04T11:41:16.998Z</time></trkpt><trkpt lat="44.934328867484446" lon="9.529257424655112"><ele>231.0</ele><time>2026-04-04T11:41:17.998Z</time></trkpt><trkpt lat="44.93446458536043" lon="9.529198401355046"><ele>230.5</ele><time>2026-04-04T11:41:19.998Z</time></trkpt><trkpt lat="44.9345390267976" lon="9.529167734298404"><ele>230.0</ele><time>2026-04-04T11:41:21Z</time></trkpt><trkpt lat="44.93461167368214" lon="9.529149921642608"><ele>229.49999999999997</ele><time>2026-04-04T11:41:22Z</time></trkpt><trkpt lat="44.934680290433924" lon="9.529129289352673"><ele>229.0</ele><time>2026-04-04T11:41:23Z</time></trkpt><trkpt lat="44.934790902785245" lon="9.529103878070542"><ele>229.0</ele><time>2026-04-04T11:41:25Z</time></trkpt><trkpt lat="44.93493607532952" lon="9.529075839094519"><ele>228.99999999999997</ele><time>2026-04-04T11:41:27Z</time></trkpt><trkpt lat="44.93502322971683" lon="9.529053479498517"><ele>228.99999999999997</ele><time>2026-04-04T11:41:28Z</time></trkpt><trkpt lat="44.93511671184992" lon="9.529025256111051"><ele>229.0</ele><time>2026-04-04T11:41:29Z</time></trkpt><trkpt lat="44.9351988064673" lon="9.529004053346323"><ele>229.0</ele><time>2026-04-04T11:41:30Z</time></trkpt><trkpt lat="44.93526078703388" lon="9.528979172173278"><ele>228.49999999999997</ele><time>2026-04-04T11:41:31Z</time></trkpt><trkpt lat="44.93533308048208" lon="9.528961146822265"><ele>228.0</ele><time>2026-04-04T11:41:32Z</time></trkpt><trkpt lat="44.93540108442759" lon="9.528930140743702"><ele>227.5</ele><time>2026-04-04T11:41:33Z</time></trkpt><trkpt lat="44.93546529216403" lon="9.528898440547948"><ele>227.0</ele><time>2026-04-04T11:41:34Z</time></trkpt><trkpt lat="44.93555373356229" lon="9.528823369820781"><ele>226.49999999999997</ele><time>2026-04-04T11:41:36Z</time></trkpt><trkpt lat="44.93561076673977" lon="9.528747046378065"><ele>226.0</ele><time>2026-04-04T11:41:38Z</time></trkpt><trkpt lat="44.93566885589727" lon="9.528702828436936"><ele>225.33333333333331</ele><time>2026-04-04T11:41:42Z</time></trkpt><trkpt lat="44.935768724722855" lon="9.528644339366396"><ele>224.66666666666666</ele><time>2026-04-04T11:41:47Z</time></trkpt><trkpt lat="44.935777660714876" lon="9.528543367907199"><ele>224.0</ele><time>2026-04-04T11:41:48Z</time></trkpt><trkpt lat="44.93583391539019" lon="9.528468023156073"><ele>223.33333333333331</ele><time>2026-04-04T11:41:50Z</time></trkpt><trkpt lat="44.935929720837436" lon="9.528378980679689"><ele>222.66666666666666</ele><time>2026-04-04T11:41:52Z</time></trkpt><trkpt lat="44.935978559383706" lon="9.528305373583974"><ele>222.0</ele><time>2026-04-04T11:41:54Z</time></trkpt><trkpt lat="44.936034030855915" lon="9.528246824920231"><ele>221.33333333333334</ele><time>2026-04-04T11:41:56Z</time></trkpt><trkpt lat="44.93611599481355" lon="9.528194241960856"><ele>220.66666666666669</ele><time>2026-04-04T11:41:58Z</time></trkpt><trkpt lat="44.93617679907174" lon="9.528144862050928"><ele>220.0</ele><time>2026-04-04T11:41:59Z</time></trkpt><trkpt lat="44.93625218166549" lon="9.528057812407376"><ele>219.33333333333334</ele><time>2026-04-04T11:42:00Z</time></trkpt><trkpt lat="44.936318354136155" lon="9.528015935017018"><ele>218.66666666666669</ele><time>2026-04-04T11:42:01Z</time></trkpt><trkpt lat="44.93639662841633" lon="9.527957657514172"><ele>218.0</ele><time>2026-04-04T11:42:02Z</time></trkpt><trkpt lat="44.9364672184127" lon="9.527894124166789"><ele>215.60000000000002</ele><time>2026-04-04T11:42:03Z</time></trkpt><trkpt lat="44.936537479767495" lon="9.527836523561572"><ele>213.20000000000002</ele><time>2026-04-04T11:42:04Z</time></trkpt><trkpt lat="44.93660067423384" lon="9.52779607697186"><ele>210.8</ele><time>2026-04-04T11:42:05Z</time></trkpt><trkpt lat="44.93666836446338" lon="9.527762125670478"><ele>208.4</ele><time>2026-04-04T11:42:06Z</time></trkpt><trkpt lat="44.93685769213304" lon="9.527744691196423"><ele>206.0</ele><time>2026-04-04T11:42:08Z</time></trkpt><trkpt lat="44.936990356867476" lon="9.5276702098287"><ele>206.0</ele><time>2026-04-04T11:42:09Z</time></trkpt><trkpt lat="44.937090704197324" lon="9.527640348783702"><ele>206.0</ele><time>2026-04-04T11:42:09.999Z</time></trkpt><trkpt lat="44.937151286619326" lon="9.527590800027546"><ele>206.0</ele><time>2026-04-04T11:42:10.999Z</time></trkpt><trkpt lat="44.937266915910165" lon="9.527551142943777"><ele>206.0</ele><time>2026-04-04T11:42:12.999Z</time></trkpt><trkpt lat="44.93732578933537" lon="9.52751202239031"><ele>206.0</ele><time>2026-04-04T11:42:13.999Z</time></trkpt><trkpt lat="44.93745150188704" lon="9.527391299369475"><ele>206.00000000000003</ele><time>2026-04-04T11:42:15.999Z</time></trkpt><trkpt lat="44.937515782468495" lon="9.5273502122374"><ele>206.0</ele><time>2026-04-04T11:42:16.999Z</time></trkpt><trkpt lat="44.93757594475541" lon="9.52730714846126"><ele>206.0</ele><time>2026-04-04T11:42:17.999Z</time></trkpt><trkpt lat="44.93768201902408" lon="9.527233096006988"><ele>206.0</ele><time>2026-04-04T11:42:19.999Z</time></trkpt><trkpt lat="44.93775458864539" lon="9.527182802405083"><ele>206.00000000000003</ele><time>2026-04-04T11:42:20.999Z</time></trkpt><trkpt lat="44.93782780114766" lon="9.52711852737113"><ele>206.0</ele><time>2026-04-04T11:42:21.999Z</time></trkpt><trkpt lat="44.93789337149731" lon="9.527064897826268"><ele>203.16666666666669</ele><time>2026-04-04T11:42:22.999Z</time></trkpt><trkpt lat="44.93795231924105" lon="9.52699962413635"><ele>200.33333333333334</ele><time>2026-04-04T11:42:23.999Z</time></trkpt><trkpt lat="44.93802774267372" lon="9.526951075940053"><ele>197.5</ele><time>2026-04-04T11:42:24.999Z</time></trkpt><trkpt lat="44.93809229799681" lon="9.526880603433234"><ele>194.66666666666669</ele><time>2026-04-04T11:42:25.999Z</time></trkpt><trkpt lat="44.93815653790555" lon="9.526806743321757"><ele>191.83333333333334</ele><time>2026-04-04T11:42:26.999Z</time></trkpt><trkpt lat="44.938220218431795" lon="9.526731477434256"><ele>189.0</ele><time>2026-04-04T11:42:27.999Z</time></trkpt><trkpt lat="44.93826658498712" lon="9.526646174675388"><ele>189.0</ele><time>2026-04-04T11:42:28.999Z</time></trkpt><trkpt lat="44.938328304701244" lon="9.526581428422624"><ele>189.0</ele><time>2026-04-04T11:42:29.999Z</time></trkpt><trkpt lat="44.93840692970995" lon="9.526484033096432"><ele>189.0</ele><time>2026-04-04T11:42:30.999Z</time></trkpt><trkpt lat="44.938503444816256" lon="9.526364533356196"><ele>189.0</ele><time>2026-04-04T11:42:31.999Z</time></trkpt><trkpt lat="44.93859242770293" lon="9.526253882137931"><ele>189.0</ele><time>2026-04-04T11:42:32.999Z</time></trkpt><trkpt lat="44.938661470601104" lon="9.52614671870317"><ele>186.0</ele><time>2026-04-04T11:42:33.999Z</time></trkpt><trkpt lat="44.938724366608895" lon="9.526057601842046"><ele>183.0</ele><time>2026-04-04T11:42:34.999Z</time></trkpt><trkpt lat="44.93876049674291" lon="9.525974608743335"><ele>180.0</ele><time>2026-04-04T11:42:35.999Z</time></trkpt><trkpt lat="44.93880444481449" lon="9.525865287947015"><ele>177.0</ele><time>2026-04-04T11:42:36.999Z</time></trkpt><trkpt lat="44.93883750269708" lon="9.525746857932662"><ele>174.0</ele><time>2026-04-04T11:42:37.999Z</time></trkpt><trkpt lat="44.938836273366135" lon="9.525615037472628"><ele>171.0</ele><time>2026-04-04T11:42:38.999Z</time></trkpt><trkpt lat="44.938832742113256" lon="9.525509063400495"><ele>170.60000000000002</ele><time>2026-04-04T11:42:39.999Z</time></trkpt><trkpt lat="44.93882692532387" lon="9.525389341221194"><ele>170.2</ele><time>2026-04-04T11:42:40.999Z</time></trkpt><trkpt lat="44.938806136191566" lon="9.525265862126306"><ele>169.8</ele><time>2026-04-04T11:42:42.999Z</time></trkpt><trkpt lat="44.93880104450897" lon="9.525166111204904"><ele>169.39999999999998</ele><time>2026-04-04T11:42:47.999Z</time></trkpt><trkpt lat="44.93880156401425" lon="9.525072671039593"><ele>169.0</ele><time>2026-04-04T11:42:50.999Z</time></trkpt><trkpt lat="44.939002958827274" lon="9.525097446221341"><ele>169.0</ele><time>2026-04-04T11:43:32Z</time></trkpt><trkpt lat="44.93910618910005" lon="9.525157060641344"><ele>169.0</ele><time>2026-04-04T11:43:33Z</time></trkpt><trkpt lat="44.939221188459584" lon="9.525214056706671"><ele>169.0</ele><time>2026-04-04T11:43:34Z</time></trkpt><trkpt lat="44.939329093617" lon="9.525256462500309"><ele>169.0</ele><time>2026-04-04T11:43:35Z</time></trkpt><trkpt lat="44.939424365217036" lon="9.525272670170915"><ele>169.0</ele><time>2026-04-04T11:43:36Z</time></trkpt><trkpt lat="44.93950672731667" lon="9.525308211216093"><ele>168.25</ele><time>2026-04-04T11:43:37Z</time></trkpt><trkpt lat="44.9396060406417" lon="9.525358563651043"><ele>167.5</ele><time>2026-04-04T11:43:38Z</time></trkpt><trkpt lat="44.93972328743118" lon="9.52541979508226"><ele>166.75</ele><time>2026-04-04T11:43:39Z</time></trkpt><trkpt lat="44.93983448100367" lon="9.52552723416378"><ele>166.0</ele><time>2026-04-04T11:43:40Z</time></trkpt><trkpt lat="44.93993702104081" lon="9.525625251769121"><ele>166.0</ele><time>2026-04-04T11:43:41Z</time></trkpt><trkpt lat="44.94004851239143" lon="9.525726431269215"><ele>166.0</ele><time>2026-04-04T11:43:42Z</time></trkpt><trkpt lat="44.94016171636389" lon="9.525837870863953"><ele>166.0</ele><time>2026-04-04T11:43:43Z</time></trkpt><trkpt lat="44.94027021216843" lon="9.525946667750164"><ele>166.0</ele><time>2026-04-04T11:43:44Z</time></trkpt><trkpt lat="44.940384862870594" lon="9.52605073511884"><ele>165.75</ele><time>2026-04-04T11:43:45Z</time></trkpt><trkpt lat="44.94049671948602" lon="9.526168038931175"><ele>165.5</ele><time>2026-04-04T11:43:46Z</time></trkpt><trkpt lat="44.94060918182732" lon="9.526276245083887"><ele>165.25</ele><time>2026-04-04T11:43:47Z</time></trkpt><trkpt lat="44.940715542805236" lon="9.52638578378421"><ele>165.0</ele><time>2026-04-04T11:43:48Z</time></trkpt><trkpt lat="44.94083294078865" lon="9.52649652356013"><ele>164.5</ele><time>2026-04-04T11:43:49Z</time></trkpt><trkpt lat="44.94094141575395" lon="9.526599442038389"><ele>164.0</ele><time>2026-04-04T11:43:50Z</time></trkpt><trkpt lat="44.94104647808212" lon="9.526703144599967"><ele>163.5</ele><time>2026-04-04T11:43:51Z</time></trkpt><trkpt lat="44.94115351350964" lon="9.526804433444612"><ele>163.0</ele><time>2026-04-04T11:43:52Z</time></trkpt><trkpt lat="44.94125925701802" lon="9.526906958317166"><ele>163.0</ele><time>2026-04-04T11:43:53Z</time></trkpt><trkpt lat="44.94136599684404" lon="9.527005211774194"><ele>163.0</ele><time>2026-04-04T11:43:54Z</time></trkpt><trkpt lat="44.941462477600865" lon="9.527127954661983"><ele>163.0</ele><time>2026-04-04T11:43:55Z</time></trkpt><trkpt lat="44.94156771348453" lon="9.527230550814789"><ele>163.0</ele><time>2026-04-04T11:43:56Z</time></trkpt><trkpt lat="44.94167421632828" lon="9.527326353354793"><ele>163.0</ele><time>2026-04-04T11:43:57Z</time></trkpt><trkpt lat="44.94181337554315" lon="9.527442640307891"><ele>163.0</ele><time>2026-04-04T11:43:58Z</time></trkpt><trkpt lat="44.94196116080419" lon="9.527597655973898"><ele>163.0</ele><time>2026-04-04T11:43:59Z</time></trkpt><trkpt lat="44.94208823939439" lon="9.527733745403808"><ele>163.0</ele><time>2026-04-04T11:44:00Z</time></trkpt><trkpt lat="44.94221795559328" lon="9.527859662984953"><ele>163.0</ele><time>2026-04-04T11:44:01Z</time></trkpt><trkpt lat="44.942337582880754" lon="9.527993039440139"><ele>163.0</ele><time>2026-04-04T11:44:02Z</time></trkpt><trkpt lat="44.94245228527324" lon="9.528142280867828"><ele>163.0</ele><time>2026-04-04T11:44:03Z</time></trkpt><trkpt lat="44.94254572795202" lon="9.528321936965032"><ele>163.0</ele><time>2026-04-04T11:44:04Z</time></trkpt><trkpt lat="44.94264703700995" lon="9.528475468347464"><ele>163.0</ele><time>2026-04-04T11:44:05Z</time></trkpt><trkpt lat="44.942750354465694" lon="9.528627229379515"><ele>162.0</ele><time>2026-04-04T11:44:06Z</time></trkpt><trkpt lat="44.942869783039086" lon="9.528779675363369"><ele>161.0</ele><time>2026-04-04T11:44:07Z</time></trkpt><trkpt lat="44.94299092326549" lon="9.528923541523739"><ele>160.0</ele><time>2026-04-04T11:44:08Z</time></trkpt><trkpt lat="44.94311175994719" lon="9.529087854674891"><ele>160.0</ele><time>2026-04-04T11:44:09Z</time></trkpt><trkpt lat="44.943229445159616" lon="9.529265670193446"><ele>160.0</ele><time>2026-04-04T11:44:10Z</time></trkpt><trkpt lat="44.943335690372706" lon="9.52945076746597"><ele>160.0</ele><time>2026-04-04T11:44:11Z</time></trkpt><trkpt lat="44.94345259737903" lon="9.529631306961099"><ele>159.33333333333334</ele><time>2026-04-04T11:44:12Z</time></trkpt><trkpt lat="44.94357466018604" lon="9.529807668576963"><ele>158.66666666666666</ele><time>2026-04-04T11:44:13Z</time></trkpt><trkpt lat="44.943700863010676" lon="9.529973159327204"><ele>158.0</ele><time>2026-04-04T11:44:14Z</time></trkpt><trkpt lat="44.94382858628294" lon="9.530149635992265"><ele>158.0</ele><time>2026-04-04T11:44:15Z</time></trkpt><trkpt lat="44.94394790472083" lon="9.530332668011821"><ele>158.0</ele><time>2026-04-04T11:44:16Z</time></trkpt><trkpt lat="44.944063210329695" lon="9.530518868417044"><ele>158.0</ele><time>2026-04-04T11:44:16.999Z</time></trkpt><trkpt lat="44.944184911233314" lon="9.530698987904861"><ele>157.33333333333331</ele><time>2026-04-04T11:44:17.999Z</time></trkpt><trkpt lat="44.944290478141056" lon="9.530886055657994"><ele>156.66666666666666</ele><time>2026-04-04T11:44:18.999Z</time></trkpt><trkpt lat="44.94441086863612" lon="9.531042031597059"><ele>156.0</ele><time>2026-04-04T11:44:19.999Z</time></trkpt><trkpt lat="44.944514283933586" lon="9.531210023187548"><ele>157.0</ele><time>2026-04-04T11:44:20.999Z</time></trkpt><trkpt lat="44.94462190765367" lon="9.531378927060903"><ele>158.0</ele><time>2026-04-04T11:44:21.999Z</time></trkpt><trkpt lat="44.94472031910365" lon="9.531557201417403"><ele>159.0</ele><time>2026-04-04T11:44:22.999Z</time></trkpt><trkpt lat="44.9448260148771" lon="9.531723188444628"><ele>159.0</ele><time>2026-04-04T11:44:23.999Z</time></trkpt><trkpt lat="44.9449419699707" lon="9.53187248076809"><ele>159.0</ele><time>2026-04-04T11:44:24.999Z</time></trkpt><trkpt lat="44.94504842175652" lon="9.532037762811576"><ele>159.0</ele><time>2026-04-04T11:44:25.999Z</time></trkpt><trkpt lat="44.94514738307129" lon="9.532218259257741"><ele>158.0</ele><time>2026-04-04T11:44:26.999Z</time></trkpt><trkpt lat="44.945258220248775" lon="9.532381859148378"><ele>157.0</ele><time>2026-04-04T11:44:27.999Z</time></trkpt><trkpt lat="44.94538124384238" lon="9.532543577624867"><ele>156.0</ele><time>2026-04-04T11:44:28.999Z</time></trkpt><trkpt lat="44.94551716734276" lon="9.532708342412702"><ele>156.0</ele><time>2026-04-04T11:44:29.999Z</time></trkpt><trkpt lat="44.94567433212138" lon="9.532874437684274"><ele>156.0</ele><time>2026-04-04T11:44:30.999Z</time></trkpt><trkpt lat="44.945825723547614" lon="9.533035223191545"><ele>156.0</ele><time>2026-04-04T11:44:31.999Z</time></trkpt><trkpt lat="44.9459626168261" lon="9.533181657213735"><ele>155.33333333333334</ele><time>2026-04-04T11:44:32.999Z</time></trkpt><trkpt lat="44.946088564357" lon="9.53331145125348"><ele>154.66666666666669</ele><time>2026-04-04T11:44:33.999Z</time></trkpt><trkpt lat="44.94619983552876" lon="9.533467547719848"><ele>154.0</ele><time>2026-04-04T11:44:34.999Z</time></trkpt><trkpt lat="44.9463077483834" lon="9.533621469543041"><ele>154.25</ele><time>2026-04-04T11:44:35.999Z</time></trkpt><trkpt lat="44.94639274824504" lon="9.53377170063912"><ele>154.5</ele><time>2026-04-04T11:44:36.999Z</time></trkpt><trkpt lat="44.9464841910838" lon="9.533900915369019"><ele>154.75</ele><time>2026-04-04T11:44:37.999Z</time></trkpt><trkpt lat="44.94657843898819" lon="9.53400824814082"><ele>155.0</ele><time>2026-04-04T11:44:38.999Z</time></trkpt><trkpt lat="44.946647546355585" lon="9.534133948925858"><ele>155.2</ele><time>2026-04-04T11:44:39.999Z</time></trkpt><trkpt lat="44.94672053947188" lon="9.534242968922383"><ele>155.4</ele><time>2026-04-04T11:44:40.999Z</time></trkpt><trkpt lat="44.94678843640765" lon="9.5343449984736"><ele>155.6</ele><time>2026-04-04T11:44:41.999Z</time></trkpt><trkpt lat="44.94685029282268" lon="9.534439660474057"><ele>155.8</ele><time>2026-04-04T11:44:42.999Z</time></trkpt><trkpt lat="44.9469096620938" lon="9.53453442911866"><ele>156.0</ele><time>2026-04-04T11:44:43.999Z</time></trkpt><trkpt lat="44.9469583047539" lon="9.534615172720283"><ele>156.5</ele><time>2026-04-04T11:44:44.999Z</time></trkpt><trkpt lat="44.94701500544926" lon="9.53467258691195"><ele>157.0</ele><time>2026-04-04T11:44:45.999Z</time></trkpt><trkpt lat="44.9470722902907" lon="9.534750187760803"><ele>157.5</ele><time>2026-04-04T11:44:46.999Z</time></trkpt><trkpt lat="44.94707320248268" lon="9.534913232258022"><ele>158.0</ele><time>2026-04-04T11:44:47.999Z</time></trkpt><trkpt lat="44.94711915900478" lon="9.535025006408475"><ele>158.5</ele><time>2026-04-04T11:44:48.999Z</time></trkpt><trkpt lat="44.94719203042827" lon="9.535082824696957"><ele>159.0</ele><time>2026-04-04T11:44:49.999Z</time></trkpt><trkpt lat="44.94726935097661" lon="9.535097212059512"><ele>159.0</ele><time>2026-04-04T11:44:50.999Z</time></trkpt><trkpt lat="44.947332152383304" lon="9.535046876391746"><ele>159.0</ele><time>2026-04-04T11:44:51.999Z</time></trkpt><trkpt lat="44.947371517678455" lon="9.534948897644057"><ele>159.0</ele><time>2026-04-04T11:44:52.999Z</time></trkpt><trkpt lat="44.94736832718285" lon="9.534825828980994"><ele>159.0</ele><time>2026-04-04T11:44:53.999Z</time></trkpt><trkpt lat="44.94732370782505" lon="9.534697919505318"><ele>159.0</ele><time>2026-04-04T11:44:54.999Z</time></trkpt><trkpt lat="44.94726781914176" lon="9.534565697154521"><ele>159.0</ele><time>2026-04-04T11:44:55.999Z</time></trkpt><trkpt lat="44.94723898262483" lon="9.534410405470155"><ele>158.25</ele><time>2026-04-04T11:44:56.999Z</time></trkpt><trkpt lat="44.94724729152885" lon="9.534212180281697"><ele>157.5</ele><time>2026-04-04T11:44:57.999Z</time></trkpt><trkpt lat="44.94725957285956" lon="9.533977744872235"><ele>156.75</ele><time>2026-04-04T11:44:58.999Z</time></trkpt><trkpt lat="44.947265489874624" lon="9.533783453653905"><ele>156.0</ele><time>2026-04-04T11:44:59.999Z</time></trkpt><trkpt lat="44.947275278529304" lon="9.533626882158956"><ele>155.6</ele><time>2026-04-04T11:45:00.999Z</time></trkpt><trkpt lat="44.94729200351" lon="9.53348712771701"><ele>155.2</ele><time>2026-04-04T11:45:01.999Z</time></trkpt><trkpt lat="44.94731020148274" lon="9.53336036127136"><ele>154.8</ele><time>2026-04-04T11:45:02.999Z</time></trkpt><trkpt lat="44.947337042902376" lon="9.5332375911841"><ele>154.4</ele><time>2026-04-04T11:45:03.999Z</time></trkpt><trkpt lat="44.94736719958153" lon="9.533119539036795"><ele>154.0</ele><time>2026-04-04T11:45:04.999Z</time></trkpt><trkpt lat="44.947402928195615" lon="9.53301504018789"><ele>153.75</ele><time>2026-04-04T11:45:05.999Z</time></trkpt><trkpt lat="44.947446491842875" lon="9.532856484814603"><ele>153.5</ele><time>2026-04-04T11:45:06.999Z</time></trkpt><trkpt lat="44.94749480231168" lon="9.532707665656316"><ele>153.25</ele><time>2026-04-04T11:45:07.999Z</time></trkpt><trkpt lat="44.947548283297884" lon="9.532549699317185"><ele>153.0</ele><time>2026-04-04T11:45:08.999Z</time></trkpt><trkpt lat="44.94760125256394" lon="9.53238443676027"><ele>152.5</ele><time>2026-04-04T11:45:09.999Z</time></trkpt><trkpt lat="44.94765472512746" lon="9.532217047777952"><ele>152.0</ele><time>2026-04-04T11:45:10.999Z</time></trkpt><trkpt lat="44.94770871825155" lon="9.532037732461065"><ele>151.5</ele><time>2026-04-04T11:45:11.999Z</time></trkpt><trkpt lat="44.94777309877629" lon="9.531850280199807"><ele>151.0</ele><time>2026-04-04T11:45:12.999Z</time></trkpt><trkpt lat="44.947835642562325" lon="9.531661300847677"><ele>150.75</ele><time>2026-04-04T11:45:13.999Z</time></trkpt><trkpt lat="44.94789385378085" lon="9.531460448302068"><ele>150.5</ele><time>2026-04-04T11:45:14.999Z</time></trkpt><trkpt lat="44.94795495884651" lon="9.531274314057047"><ele>150.25</ele><time>2026-04-04T11:45:15.999Z</time></trkpt><trkpt lat="44.94800684384065" lon="9.531108103474471"><ele>150.0</ele><time>2026-04-04T11:45:16.999Z</time></trkpt><trkpt lat="44.94806059255553" lon="9.530947309870085"><ele>150.0</ele><time>2026-04-04T11:45:17.999Z</time></trkpt><trkpt lat="44.948114822851544" lon="9.530781229419832"><ele>150.0</ele><time>2026-04-04T11:45:18.999Z</time></trkpt><trkpt lat="44.94816885071815" lon="9.530598264452443"><ele>150.0</ele><time>2026-04-04T11:45:19.999Z</time></trkpt><trkpt lat="44.94822506692937" lon="9.530405354162392"><ele>150.0</ele><time>2026-04-04T11:45:20.999Z</time></trkpt><trkpt lat="44.94829030550308" lon="9.530203195303944"><ele>150.0</ele><time>2026-04-04T11:45:21.999Z</time></trkpt><trkpt lat="44.9483519279743" lon="9.529996180609718"><ele>150.0</ele><time>2026-04-04T11:45:22.999Z</time></trkpt><trkpt lat="44.948427864925684" lon="9.529808870615721"><ele>150.0</ele><time>2026-04-04T11:45:23.999Z</time></trkpt><trkpt lat="44.94849026693997" lon="9.529611784941663"><ele>149.5</ele><time>2026-04-04T11:45:24.999Z</time></trkpt><trkpt lat="44.94856268942696" lon="9.529424123922576"><ele>149.0</ele><time>2026-04-04T11:45:25.998Z</time></trkpt><trkpt lat="44.94861216440535" lon="9.529235331832913"><ele>148.5</ele><time>2026-04-04T11:45:26.998Z</time></trkpt><trkpt lat="44.94866743564614" lon="9.529049267022055"><ele>148.0</ele><time>2026-04-04T11:45:27.998Z</time></trkpt><trkpt lat="44.948732691289166" lon="9.528856609354547"><ele>148.0</ele><time>2026-04-04T11:45:28.998Z</time></trkpt><trkpt lat="44.94879469012466" lon="9.528657947258523"><ele>148.0</ele><time>2026-04-04T11:45:29.998Z</time></trkpt><trkpt lat="44.94886123007212" lon="9.528462565969908"><ele>148.0</ele><time>2026-04-04T11:45:30.998Z</time></trkpt><trkpt lat="44.94892755018432" lon="9.52827166186263"><ele>148.0</ele><time>2026-04-04T11:45:31.998Z</time></trkpt><trkpt lat="44.94899125774827" lon="9.528078465238465"><ele>148.0</ele><time>2026-04-04T11:45:33Z</time></trkpt><trkpt lat="44.949055571674194" lon="9.527882547263244"><ele>148.0</ele><time>2026-04-04T11:45:34Z</time></trkpt><trkpt lat="44.94912369782905" lon="9.527683191676314"><ele>148.66666666666669</ele><time>2026-04-04T11:45:35Z</time></trkpt><trkpt lat="44.949196901309975" lon="9.527461169880214"><ele>149.33333333333334</ele><time>2026-04-04T11:45:36Z</time></trkpt><trkpt lat="44.949274208489" lon="9.527218494799289"><ele>150.0</ele><time>2026-04-04T11:45:37Z</time></trkpt><trkpt lat="44.949359054602574" lon="9.526944991173691"><ele>151.66666666666666</ele><time>2026-04-04T11:45:38Z</time></trkpt><trkpt lat="44.949452626543206" lon="9.526652878916064"><ele>153.33333333333331</ele><time>2026-04-04T11:45:39Z</time></trkpt><trkpt lat="44.94953640472389" lon="9.526382531748038"><ele>155.0</ele><time>2026-04-04T11:45:40Z</time></trkpt><trkpt lat="44.94961721348159" lon="9.526129166987701"><ele>156.66666666666666</ele><time>2026-04-04T11:45:41Z</time></trkpt><trkpt lat="44.94969312707288" lon="9.525895953092883"><ele>158.33333333333334</ele><time>2026-04-04T11:45:42Z</time></trkpt><trkpt lat="44.94976324241793" lon="9.525680657550808"><ele>160.0</ele><time>2026-04-04T11:45:43Z</time></trkpt><trkpt lat="44.94982630005808" lon="9.525482303558988"><ele>161.66666666666669</ele><time>2026-04-04T11:45:44Z</time></trkpt><trkpt lat="44.949885554673955" lon="9.525293534843938"><ele>163.33333333333334</ele><time>2026-04-04T11:45:45Z</time></trkpt><trkpt lat="44.94994853944126" lon="9.525084539808255"><ele>165.0</ele><time>2026-04-04T11:45:46Z</time></trkpt><trkpt lat="44.95002456991998" lon="9.52485515476217"><ele>166.0</ele><time>2026-04-04T11:45:47Z</time></trkpt><trkpt lat="44.95009442551912" lon="9.524647222072813"><ele>167.0</ele><time>2026-04-04T11:45:48Z</time></trkpt><trkpt lat="44.95015824278999" lon="9.524455470405472"><ele>168.0</ele><time>2026-04-04T11:45:49Z</time></trkpt><trkpt lat="44.95021256954861" lon="9.524278740892427"><ele>169.0</ele><time>2026-04-04T11:45:50Z</time></trkpt><trkpt lat="44.95024998889216" lon="9.524103705302172"><ele>169.5</ele><time>2026-04-04T11:45:51Z</time></trkpt><trkpt lat="44.95026591858433" lon="9.523926883362426"><ele>170.0</ele><time>2026-04-04T11:45:52Z</time></trkpt><trkpt lat="44.950259742875716" lon="9.523734800816907"><ele>170.5</ele><time>2026-04-04T11:45:53Z</time></trkpt><trkpt lat="44.95022658610457" lon="9.523536934035578"><ele>171.0</ele><time>2026-04-04T11:45:54Z</time></trkpt><trkpt lat="44.95016784987887" lon="9.52333626230514"><ele>171.0</ele><time>2026-04-04T11:45:55Z</time></trkpt><trkpt lat="44.950083785935924" lon="9.523146472392613"><ele>171.0</ele><time>2026-04-04T11:45:56Z</time></trkpt><trkpt lat="44.94997853382449" lon="9.522980428311323"><ele>171.0</ele><time>2026-04-04T11:45:57Z</time></trkpt><trkpt lat="44.94988210763349" lon="9.52283070968013"><ele>173.0</ele><time>2026-04-04T11:45:58Z</time></trkpt><trkpt lat="44.94979552840946" lon="9.522690264617863"><ele>175.0</ele><time>2026-04-04T11:45:59Z</time></trkpt><trkpt lat="44.94972026424303" lon="9.522546320323908"><ele>177.0</ele><time>2026-04-04T11:46:00Z</time></trkpt><trkpt lat="44.9496450624713" lon="9.522417487226738"><ele>179.0</ele><time>2026-04-04T11:46:01Z</time></trkpt><trkpt lat="44.94956888294629" lon="9.522283821353321"><ele>179.0</ele><time>2026-04-04T11:46:02Z</time></trkpt><trkpt lat="44.94950587715921" lon="9.522160194044998"><ele>179.0</ele><time>2026-04-04T11:46:03Z</time></trkpt><trkpt lat="44.9494512664536" lon="9.522065535547757"><ele>179.0</ele><time>2026-04-04T11:46:04Z</time></trkpt><trkpt lat="44.949410949224195" lon="9.521996933347953"><ele>179.0</ele><time>2026-04-04T11:46:05Z</time></trkpt><trkpt lat="44.94934666617315" lon="9.521852071941423"><ele>179.0</ele><time>2026-04-04T11:46:07Z</time></trkpt><trkpt lat="44.949327014089995" lon="9.52174839520378"><ele>179.16666666666666</ele><time>2026-04-04T11:46:08Z</time></trkpt><trkpt lat="44.94932862324402" lon="9.52162540791654"><ele>179.33333333333331</ele><time>2026-04-04T11:46:09Z</time></trkpt><trkpt lat="44.949318419626145" lon="9.521522843757294"><ele>179.5</ele><time>2026-04-04T11:46:10Z</time></trkpt><trkpt lat="44.94927259884494" lon="9.52145633424355"><ele>179.66666666666666</ele><time>2026-04-04T11:46:11Z</time></trkpt><trkpt lat="44.9491778878738" lon="9.521388885640743"><ele>179.83333333333334</ele><time>2026-04-04T11:46:13Z</time></trkpt><trkpt lat="44.94907335204907" lon="9.521393701708703"><ele>180.0</ele><time>2026-04-04T11:46:15Z</time></trkpt><trkpt lat="44.9489847580996" lon="9.521406949450974"><ele>180.2</ele><time>2026-04-04T11:46:18Z</time></trkpt><trkpt lat="44.94897089300591" lon="9.521508032653221"><ele>180.4</ele><time>2026-04-04T11:46:19Z</time></trkpt><trkpt lat="44.94887020814177" lon="9.521348402898644"><ele>180.60000000000002</ele><time>2026-04-04T11:46:20Z</time></trkpt><trkpt lat="44.94881099519131" lon="9.521301347560417"><ele>180.8</ele><time>2026-04-04T11:46:21Z</time></trkpt><trkpt lat="44.94871722131191" lon="9.521217105662856"><ele>181.0</ele><time>2026-04-04T11:46:22.999Z</time></trkpt><trkpt lat="44.94865280299311" lon="9.521177629365742"><ele>181.4</ele><time>2026-04-04T11:46:23.999Z</time></trkpt><trkpt lat="44.948588780366514" lon="9.521129844792148"><ele>181.8</ele><time>2026-04-04T11:46:24.999Z</time></trkpt><trkpt lat="44.94848133935823" lon="9.52105176793194"><ele>182.20000000000002</ele><time>2026-04-04T11:46:26.999Z</time></trkpt><trkpt lat="44.94842066175062" lon="9.521017215997734"><ele>182.60000000000002</ele><time>2026-04-04T11:46:27.999Z</time></trkpt><trkpt lat="44.9483094895788" lon="9.520941654039524"><ele>183.0</ele><time>2026-04-04T11:46:29.999Z</time></trkpt><trkpt lat="44.94820185446874" lon="9.52086773982125"><ele>183.16666666666666</ele><time>2026-04-04T11:46:31.999Z</time></trkpt><trkpt lat="44.948135841885" lon="9.52082893529247"><ele>183.33333333333334</ele><time>2026-04-04T11:46:32.999Z</time></trkpt><trkpt lat="44.948015769669546" lon="9.520750325717012"><ele>183.5</ele><time>2026-04-04T11:46:34.999Z</time></trkpt><trkpt lat="44.9479360373998" lon="9.520713877530458"><ele>183.66666666666669</ele><time>2026-04-04T11:46:35.999Z</time></trkpt><trkpt lat="44.947866257936994" lon="9.520648897642792"><ele>183.83333333333334</ele><time>2026-04-04T11:46:36.999Z</time></trkpt><trkpt lat="44.94780592004347" lon="9.520615092950315"><ele>184.0</ele><time>2026-04-04T11:46:37.999Z</time></trkpt><trkpt lat="44.94773742621845" lon="9.520593071511604"><ele>184.0</ele><time>2026-04-04T11:46:38.999Z</time></trkpt><trkpt lat="44.947682263871386" lon="9.52053548235116"><ele>184.0</ele><time>2026-04-04T11:46:39.999Z</time></trkpt><trkpt lat="44.94761710679071" lon="9.520518821726325"><ele>184.0</ele><time>2026-04-04T11:46:40.999Z</time></trkpt><trkpt lat="44.94752233764092" lon="9.520444091576707"><ele>184.0</ele><time>2026-04-04T11:46:42.999Z</time></trkpt><trkpt lat="44.94742118025027" lon="9.520374147829525"><ele>184.0</ele><time>2026-04-04T11:46:44.999Z</time></trkpt><trkpt lat="44.947333084923436" lon="9.520312349924232"><ele>184.5</ele><time>2026-04-04T11:46:46.999Z</time></trkpt><trkpt lat="44.94726707857805" lon="9.520276368398514"><ele>185.0</ele><time>2026-04-04T11:46:48.999Z</time></trkpt><trkpt lat="44.947187723386314" lon="9.520226489422104"><ele>185.5</ele><time>2026-04-04T11:46:51.999Z</time></trkpt><trkpt lat="44.94712833653698" lon="9.520190185590943"><ele>186.0</ele><time>2026-04-04T11:46:53.999Z</time></trkpt><trkpt lat="44.94713261171733" lon="9.520083872501095"><ele>186.5</ele><time>2026-04-04T11:46:54.999Z</time></trkpt><trkpt lat="44.94704241208487" lon="9.519980019321574"><ele>187.0</ele><time>2026-04-04T11:46:56.999Z</time></trkpt><trkpt lat="44.9469836685879" lon="9.51992606445434"><ele>187.0</ele><time>2026-04-04T11:46:57.999Z</time></trkpt><trkpt lat="44.946911949560715" lon="9.519859710025669"><ele>187.0</ele><time>2026-04-04T11:46:58.999Z</time></trkpt><trkpt lat="44.946841553680514" lon="9.519791604239536"><ele>187.0</ele><time>2026-04-04T11:46:59.999Z</time></trkpt><trkpt lat="44.946768812983045" lon="9.51972118982091"><ele>187.0</ele><time>2026-04-04T11:47:00.999Z</time></trkpt><trkpt lat="44.946709576601286" lon="9.519663847837563"><ele>187.0</ele><time>2026-04-04T11:47:01.999Z</time></trkpt><trkpt lat="44.94662720468588" lon="9.519567533107207"><ele>187.0</ele><time>2026-04-04T11:47:03.999Z</time></trkpt><trkpt lat="44.946559747512204" lon="9.519500143248695"><ele>187.66666666666669</ele><time>2026-04-04T11:47:05.999Z</time></trkpt><trkpt lat="44.94647809519064" lon="9.519502358561509"><ele>188.33333333333334</ele><time>2026-04-04T11:47:07.999Z</time></trkpt><trkpt lat="44.94641200956193" lon="9.51954020816542"><ele>189.0</ele><time>2026-04-04T11:47:09.999Z</time></trkpt><trkpt lat="44.94642421540798" lon="9.519676696057523"><ele>189.66666666666666</ele><time>2026-04-04T11:47:10.999Z</time></trkpt><trkpt lat="44.94637338671558" lon="9.51978371196037"><ele>190.33333333333331</ele><time>2026-04-04T11:47:12.999Z</time></trkpt><trkpt lat="44.946369518431844" lon="9.519880449544464"><ele>191.0</ele><time>2026-04-04T11:47:14.999Z</time></trkpt><trkpt lat="44.94632350879756" lon="9.519958177773708"><ele>191.0</ele><time>2026-04-04T11:47:16.999Z</time></trkpt><trkpt lat="44.94624896907076" lon="9.520037976077003"><ele>191.0</ele><time>2026-04-04T11:47:18.999Z</time></trkpt><trkpt lat="44.94630286405812" lon="9.520125816013495"><ele>191.0</ele><time>2026-04-04T11:47:19.999Z</time></trkpt><trkpt lat="44.94619908225418" lon="9.52017778479691"><ele>191.0</ele><time>2026-04-04T11:47:20.999Z</time></trkpt><trkpt lat="44.94614732559045" lon="9.52025650572189"><ele>191.0</ele><time>2026-04-04T11:47:23.999Z</time></trkpt><trkpt lat="44.94609156533845" lon="9.520319239216741"><ele>191.0</ele><time>2026-04-04T11:47:25.999Z</time></trkpt><trkpt lat="44.94602358934267" lon="9.52037251137397"><ele>190.5</ele><time>2026-04-04T11:47:28.999Z</time></trkpt><trkpt lat="44.946029768157736" lon="9.520519072164669"><ele>190.0</ele><time>2026-04-04T11:47:29.999Z</time></trkpt><trkpt lat="44.946013464942816" lon="9.52063066787393"><ele>189.5</ele><time>2026-04-04T11:47:31.998Z</time></trkpt><trkpt lat="44.9459571378793" lon="9.52073116328687"><ele>189.0</ele><time>2026-04-04T11:47:33.998Z</time></trkpt><trkpt lat="44.945926839970284" lon="9.520832191169337"><ele>188.5</ele><time>2026-04-04T11:47:35.998Z</time></trkpt><trkpt lat="44.945898068279725" lon="9.520931501404018"><ele>188.0</ele><time>2026-04-04T11:47:37.998Z</time></trkpt><trkpt lat="44.945785730504184" lon="9.52088658712834"><ele>187.8</ele><time>2026-04-04T11:47:41Z</time></trkpt><trkpt lat="44.945672326534535" lon="9.520819987633237"><ele>187.60000000000002</ele><time>2026-04-04T11:47:43Z</time></trkpt><trkpt lat="44.94560276777864" lon="9.520778362134417"><ele>187.39999999999998</ele><time>2026-04-04T11:47:44Z</time></trkpt><trkpt lat="44.94552296886435" lon="9.520726804578441"><ele>187.2</ele><time>2026-04-04T11:47:45Z</time></trkpt><trkpt lat="44.94544849383331" lon="9.520686401687106"><ele>187.0</ele><time>2026-04-04T11:47:46Z</time></trkpt><trkpt lat="44.94536237125526" lon="9.520633671488868"><ele>187.0</ele><time>2026-04-04T11:47:47Z</time></trkpt><trkpt lat="44.945282149447685" lon="9.520611037277568"><ele>187.0</ele><time>2026-04-04T11:47:48Z</time></trkpt><trkpt lat="44.94522067669138" lon="9.520552384890921"><ele>187.0</ele><time>2026-04-04T11:47:49Z</time></trkpt><trkpt lat="44.94514007915649" lon="9.520519580519261"><ele>187.0</ele><time>2026-04-04T11:47:50Z</time></trkpt><trkpt lat="44.94505968016519" lon="9.520469680904656"><ele>187.0</ele><time>2026-04-04T11:47:51Z</time></trkpt><trkpt lat="44.94498052701032" lon="9.520426012364315"><ele>187.0</ele><time>2026-04-04T11:47:52Z</time></trkpt><trkpt lat="44.94489872646072" lon="9.520382430257573"><ele>187.6</ele><time>2026-04-04T11:47:53Z</time></trkpt><trkpt lat="44.944775290046096" lon="9.5203319955932"><ele>188.2</ele><time>2026-04-04T11:47:55Z</time></trkpt><trkpt lat="44.94470151353995" lon="9.52028651549059"><ele>188.8</ele><time>2026-04-04T11:47:56Z</time></trkpt><trkpt lat="44.944624174277806" lon="9.520234885661473"><ele>189.4</ele><time>2026-04-04T11:47:57Z</time></trkpt><trkpt lat="44.94454330732127" lon="9.520190678998219"><ele>190.0</ele><time>2026-04-04T11:47:58Z</time></trkpt><trkpt lat="44.944470148756324" lon="9.52015377101591"><ele>190.0</ele><time>2026-04-04T11:47:59Z</time></trkpt><trkpt lat="44.94440763516341" lon="9.520123795722757"><ele>190.0</ele><time>2026-04-04T11:48:00Z</time></trkpt><trkpt lat="44.94433367475532" lon="9.52008950505941"><ele>190.0</ele><time>2026-04-04T11:48:02Z</time></trkpt><trkpt lat="44.94426924189712" lon="9.520035498312652"><ele>190.0</ele><time>2026-04-04T11:48:05Z</time></trkpt><trkpt lat="44.94416543824588" lon="9.519970480708576"><ele>190.0</ele><time>2026-04-04T11:48:07Z</time></trkpt><trkpt lat="44.944089323623786" lon="9.519953332708356"><ele>190.0</ele><time>2026-04-04T11:48:08Z</time></trkpt><trkpt lat="44.94401763837741" lon="9.519930304692592"><ele>190.0</ele><time>2026-04-04T11:48:09Z</time></trkpt><trkpt lat="44.94393770360706" lon="9.519901375461437"><ele>190.0</ele><time>2026-04-04T11:48:10Z</time></trkpt><trkpt lat="44.943867803443894" lon="9.519871533472335"><ele>190.0</ele><time>2026-04-04T11:48:11Z</time></trkpt><trkpt lat="44.9438001932598" lon="9.519842753297556"><ele>190.0</ele><time>2026-04-04T11:48:12Z</time></trkpt><trkpt lat="44.943690572968265" lon="9.51980101398502"><ele>190.0</ele><time>2026-04-04T11:48:14Z</time></trkpt><trkpt lat="44.9436040103847" lon="9.519775007934127"><ele>190.0</ele><time>2026-04-04T11:48:16Z</time></trkpt><trkpt lat="44.94353901422129" lon="9.51974499557021"><ele>190.0</ele><time>2026-04-04T11:48:18Z</time></trkpt><trkpt lat="44.94344628207385" lon="9.5198712565179"><ele>190.0</ele><time>2026-04-04T11:48:22Z</time></trkpt><trkpt lat="44.94341989475582" lon="9.519956527467572"><ele>190.0</ele><time>2026-04-04T11:48:23Z</time></trkpt><trkpt lat="44.94339066788149" lon="9.520058363388541"><ele>190.0</ele><time>2026-04-04T11:48:24Z</time></trkpt><trkpt lat="44.943354263773415" lon="9.520171706677434"><ele>190.0</ele><time>2026-04-04T11:48:25Z</time></trkpt><trkpt lat="44.94331555653971" lon="9.5203009446072"><ele>187.66666666666669</ele><time>2026-04-04T11:48:25.999Z</time></trkpt><trkpt lat="44.943270318339394" lon="9.520438182407736"><ele>185.33333333333334</ele><time>2026-04-04T11:48:26.999Z</time></trkpt><trkpt lat="44.94323946328357" lon="9.520558557839037"><ele>183.0</ele><time>2026-04-04T11:48:27.999Z</time></trkpt><trkpt lat="44.94320546625778" lon="9.520669989462013"><ele>180.66666666666666</ele><time>2026-04-04T11:48:28.999Z</time></trkpt><trkpt lat="44.94317131071856" lon="9.520777443063537"><ele>178.33333333333331</ele><time>2026-04-04T11:48:29.999Z</time></trkpt><trkpt lat="44.943127998753575" lon="9.520875201908066"><ele>176.0</ele><time>2026-04-04T11:48:30.999Z</time></trkpt><trkpt lat="44.94307933202899" lon="9.520959165347392"><ele>176.0</ele><time>2026-04-04T11:48:31.999Z</time></trkpt><trkpt lat="44.9429836933136" lon="9.521090162603086"><ele>176.0</ele><time>2026-04-04T11:48:33.999Z</time></trkpt><trkpt lat="44.942925014517904" lon="9.52115475981448"><ele>176.0</ele><time>2026-04-04T11:48:34.999Z</time></trkpt><trkpt lat="44.942854348948714" lon="9.521226158855303"><ele>176.0</ele><time>2026-04-04T11:48:35.999Z</time></trkpt><trkpt lat="44.94277440581074" lon="9.521310559298783"><ele>176.0</ele><time>2026-04-04T11:48:36.999Z</time></trkpt><trkpt lat="44.94268825068001" lon="9.521404084659029"><ele>174.75</ele><time>2026-04-04T11:48:37.999Z</time></trkpt><trkpt lat="44.94260204178562" lon="9.521500385588928"><ele>173.5</ele><time>2026-04-04T11:48:38.999Z</time></trkpt><trkpt lat="44.94250787059996" lon="9.521591223076731"><ele>172.25</ele><time>2026-04-04T11:48:39.999Z</time></trkpt><trkpt lat="44.94242000911633" lon="9.52170457537423"><ele>171.0</ele><time>2026-04-04T11:48:40.999Z</time></trkpt><trkpt lat="44.94232116597436" lon="9.521826899549243"><ele>171.0</ele><time>2026-04-04T11:48:41.999Z</time></trkpt><trkpt lat="44.94223850152213" lon="9.521952458083629"><ele>171.0</ele><time>2026-04-04T11:48:42.999Z</time></trkpt><trkpt lat="44.942155823633286" lon="9.52206145471197"><ele>171.0</ele><time>2026-04-04T11:48:43.999Z</time></trkpt><trkpt lat="44.94208166486214" lon="9.522171045816014"><ele>171.0</ele><time>2026-04-04T11:48:44.999Z</time></trkpt><trkpt lat="44.94201582007621" lon="9.522272537313437"><ele>171.0</ele><time>2026-04-04T11:48:45.999Z</time></trkpt><trkpt lat="44.94194099246959" lon="9.522386005907473"><ele>170.66666666666666</ele><time>2026-04-04T11:48:46.999Z</time></trkpt><trkpt lat="44.941874183215255" lon="9.5224820942602"><ele>170.33333333333334</ele><time>2026-04-04T11:48:47.999Z</time></trkpt><trkpt lat="44.9418019616829" lon="9.522555055668127"><ele>170.0</ele><time>2026-04-04T11:48:48.999Z</time></trkpt><trkpt lat="44.94173357737699" lon="9.52260175032789"><ele>169.66666666666669</ele><time>2026-04-04T11:48:49.999Z</time></trkpt><trkpt lat="44.94165847773877" lon="9.522644306413937"><ele>169.33333333333334</ele><time>2026-04-04T11:48:50.999Z</time></trkpt><trkpt lat="44.94156803376215" lon="9.522683686220542"><ele>169.0</ele><time>2026-04-04T11:48:51.999Z</time></trkpt><trkpt lat="44.94146968809335" lon="9.52271114153431"><ele>169.0</ele><time>2026-04-04T11:48:52.999Z</time></trkpt><trkpt lat="44.94137850504425" lon="9.522732349317454"><ele>169.0</ele><time>2026-04-04T11:48:53.999Z</time></trkpt><trkpt lat="44.941289701129385" lon="9.522740412559694"><ele>169.0</ele><time>2026-04-04T11:48:54.999Z</time></trkpt><trkpt lat="44.94120408681053" lon="9.522728478246755"><ele>169.0</ele><time>2026-04-04T11:48:55.999Z</time></trkpt><trkpt lat="44.941120485885826" lon="9.522696606773819"><ele>169.0</ele><time>2026-04-04T11:48:56.999Z</time></trkpt><trkpt lat="44.94104043683652" lon="9.522663754019224"><ele>169.0</ele><time>2026-04-04T11:48:57.999Z</time></trkpt><trkpt lat="44.940975518490205" lon="9.522638886293853"><ele>169.0</ele><time>2026-04-04T11:48:58.999Z</time></trkpt><trkpt lat="44.94091264305804" lon="9.522617581614915"><ele>169.0</ele><time>2026-04-04T11:48:59.999Z</time></trkpt><trkpt lat="44.940833996578775" lon="9.522589267603333"><ele>169.0</ele><time>2026-04-04T11:49:00.999Z</time></trkpt><trkpt lat="44.94074941917769" lon="9.52256100455693"><ele>169.0</ele><time>2026-04-04T11:49:01.999Z</time></trkpt><trkpt lat="44.94066366991031" lon="9.522511942291628"><ele>169.0</ele><time>2026-04-04T11:49:02.999Z</time></trkpt><trkpt lat="44.94057395011754" lon="9.522447730082629"><ele>169.0</ele><time>2026-04-04T11:49:03.999Z</time></trkpt><trkpt lat="44.940486645204864" lon="9.522356373265524"><ele>168.6</ele><time>2026-04-04T11:49:04.999Z</time></trkpt><trkpt lat="44.94040660371417" lon="9.522260652200012"><ele>168.2</ele><time>2026-04-04T11:49:05.999Z</time></trkpt><trkpt lat="44.94034333889705" lon="9.522186231548458"><ele>167.79999999999998</ele><time>2026-04-04T11:49:06.999Z</time></trkpt><trkpt lat="44.940294841736105" lon="9.522109077958044"><ele>167.39999999999998</ele><time>2026-04-04T11:49:07.999Z</time></trkpt><trkpt lat="44.94019228890129" lon="9.522044664287316"><ele>167.0</ele><time>2026-04-04T11:49:09.999Z</time></trkpt><trkpt lat="44.94005919719337" lon="9.522087303762772"><ele>166.66666666666666</ele><time>2026-04-04T11:49:11.999Z</time></trkpt><trkpt lat="44.93998420198358" lon="9.522159879921727"><ele>166.33333333333331</ele><time>2026-04-04T11:49:12.999Z</time></trkpt><trkpt lat="44.93991098325804" lon="9.522207533270603"><ele>166.0</ele><time>2026-04-04T11:49:13.999Z</time></trkpt><trkpt lat="44.93985350932258" lon="9.522249894248525"><ele>165.66666666666666</ele><time>2026-04-04T11:49:14.999Z</time></trkpt><trkpt lat="44.93974232200354" lon="9.522290182860285"><ele>165.33333333333334</ele><time>2026-04-04T11:49:16.999Z</time></trkpt><trkpt lat="44.93967483650616" lon="9.522287402898892"><ele>165.0</ele><time>2026-04-04T11:49:17.999Z</time></trkpt><trkpt lat="44.939593506593376" lon="9.522280168544052"><ele>165.0</ele><time>2026-04-04T11:49:18.999Z</time></trkpt><trkpt lat="44.93950745432128" lon="9.522261986848523"><ele>165.0</ele><time>2026-04-04T11:49:19.999Z</time></trkpt><trkpt lat="44.93941748848948" lon="9.522232119717856"><ele>165.0</ele><time>2026-04-04T11:49:20.999Z</time></trkpt><trkpt lat="44.93932037263704" lon="9.52220658207465"><ele>165.0</ele><time>2026-04-04T11:49:21.999Z</time></trkpt><trkpt lat="44.939217711909414" lon="9.52219210214391"><ele>165.0</ele><time>2026-04-04T11:49:22.999Z</time></trkpt><trkpt lat="44.93911151253816" lon="9.522187406961605"><ele>165.4</ele><time>2026-04-04T11:49:23.999Z</time></trkpt><trkpt lat="44.93899979322013" lon="9.522192085171548"><ele>165.8</ele><time>2026-04-04T11:49:24.999Z</time></trkpt><trkpt lat="44.93888490686406" lon="9.522199740703105"><ele>166.2</ele><time>2026-04-04T11:49:25.999Z</time></trkpt><trkpt lat="44.938787065023334" lon="9.522199997041364"><ele>166.6</ele><time>2026-04-04T11:49:26.999Z</time></trkpt><trkpt lat="44.93871201384357" lon="9.522184172554654"><ele>167.0</ele><time>2026-04-04T11:49:27.999Z</time></trkpt><trkpt lat="44.938633620098436" lon="9.522136483299613"><ele>167.0</ele><time>2026-04-04T11:49:28.999Z</time></trkpt><trkpt lat="44.93857195517937" lon="9.52208348682523"><ele>167.0</ele><time>2026-04-04T11:49:29.999Z</time></trkpt><trkpt lat="44.93850446320426" lon="9.52202310699098"><ele>167.0</ele><time>2026-04-04T11:49:30.999Z</time></trkpt><trkpt lat="44.938410393097925" lon="9.521919867653574"><ele>167.0</ele><time>2026-04-04T11:49:31.999Z</time></trkpt><trkpt lat="44.93829238614196" lon="9.521832623107171"><ele>167.0</ele><time>2026-04-04T11:49:32.999Z</time></trkpt><trkpt lat="44.938186166602385" lon="9.521696003576622"><ele>168.25</ele><time>2026-04-04T11:49:33.998Z</time></trkpt><trkpt lat="44.93808444319703" lon="9.521594069040916"><ele>169.5</ele><time>2026-04-04T11:49:34.998Z</time></trkpt><trkpt lat="44.93799065196936" lon="9.521499930515947"><ele>170.75</ele><time>2026-04-04T11:49:35.998Z</time></trkpt><trkpt lat="44.93789084468134" lon="9.521398384996305"><ele>172.0</ele><time>2026-04-04T11:49:36.998Z</time></trkpt><trkpt lat="44.93778072722617" lon="9.521286349782162"><ele>172.2</ele><time>2026-04-04T11:49:37.998Z</time></trkpt><trkpt lat="44.9376656554348" lon="9.521191144655965"><ele>172.39999999999998</ele><time>2026-04-04T11:49:38.998Z</time></trkpt><trkpt lat="44.93758044524133" lon="9.5210928706624"><ele>172.60000000000002</ele><time>2026-04-04T11:49:39.998Z</time></trkpt><trkpt lat="44.93749782661969" lon="9.52101524675359"><ele>172.8</ele><time>2026-04-04T11:49:40.998Z</time></trkpt><trkpt lat="44.9374270413764" lon="9.520916880064586"><ele>173.0</ele><time>2026-04-04T11:49:41.998Z</time></trkpt><trkpt lat="44.937344346645006" lon="9.520869272612487"><ele>173.0</ele><time>2026-04-04T11:49:42.998Z</time></trkpt><trkpt lat="44.93727725532055" lon="9.52080492186154"><ele>173.0</ele><time>2026-04-04T11:49:43.998Z</time></trkpt><trkpt lat="44.93721744234569" lon="9.520709043597208"><ele>173.0</ele><time>2026-04-04T11:49:45Z</time></trkpt><trkpt lat="44.937151725345515" lon="9.520610097769204"><ele>173.0</ele><time>2026-04-04T11:49:46Z</time></trkpt><trkpt lat="44.93708384699048" lon="9.520529540472381"><ele>173.0</ele><time>2026-04-04T11:49:47Z</time></trkpt><trkpt lat="44.93703514887866" lon="9.520432058316635"><ele>173.0</ele><time>2026-04-04T11:49:48Z</time></trkpt><trkpt lat="44.93694738983026" lon="9.520341953040724"><ele>173.0</ele><time>2026-04-04T11:49:49Z</time></trkpt><trkpt lat="44.93683225627202" lon="9.520281948327618"><ele>173.0</ele><time>2026-04-04T11:49:50Z</time></trkpt><trkpt lat="44.93671830353311" lon="9.52020870530513"><ele>173.0</ele><time>2026-04-04T11:49:51Z</time></trkpt><trkpt lat="44.93659113129943" lon="9.520131129366344"><ele>173.0</ele><time>2026-04-04T11:49:52Z</time></trkpt><trkpt lat="44.93645062698265" lon="9.520059015727462"><ele>173.0</ele><time>2026-04-04T11:49:53Z</time></trkpt><trkpt lat="44.93629932998668" lon="9.519957472271141"><ele>173.0</ele><time>2026-04-04T11:49:54Z</time></trkpt><trkpt lat="44.9361689068709" lon="9.51988203268776"><ele>173.0</ele><time>2026-04-04T11:49:55Z</time></trkpt><trkpt lat="44.93606157150342" lon="9.51982276424224"><ele>173.0</ele><time>2026-04-04T11:49:56Z</time></trkpt><trkpt lat="44.93596615833858" lon="9.519767048613991"><ele>173.0</ele><time>2026-04-04T11:49:57Z</time></trkpt><trkpt lat="44.93586550694703" lon="9.519706792793668"><ele>173.0</ele><time>2026-04-04T11:49:58Z</time></trkpt><trkpt lat="44.9357670530712" lon="9.519648100937353"><ele>173.0</ele><time>2026-04-04T11:49:59Z</time></trkpt><trkpt lat="44.93567682469481" lon="9.51959227585441"><ele>173.0</ele><time>2026-04-04T11:50:00Z</time></trkpt><trkpt lat="44.93558115355045" lon="9.519538944550032"><ele>173.0</ele><time>2026-04-04T11:50:01Z</time></trkpt><trkpt lat="44.935509960403884" lon="9.519488973823007"><ele>173.33333333333331</ele><time>2026-04-04T11:50:02Z</time></trkpt><trkpt lat="44.93544110803539" lon="9.519452673801789"><ele>173.66666666666666</ele><time>2026-04-04T11:50:03Z</time></trkpt><trkpt lat="44.93537854625845" lon="9.519374221231827"><ele>174.0</ele><time>2026-04-04T11:50:04Z</time></trkpt><trkpt lat="44.935311699559385" lon="9.51930135396579"><ele>174.33333333333334</ele><time>2026-04-04T11:50:05Z</time></trkpt><trkpt lat="44.935253626310896" lon="9.519225884914475"><ele>174.66666666666669</ele><time>2026-04-04T11:50:06Z</time></trkpt><trkpt lat="44.935185988150906" lon="9.519148557371789"><ele>175.0</ele><time>2026-04-04T11:50:07Z</time></trkpt><trkpt lat="44.935132486863225" lon="9.519053256731148"><ele>175.0</ele><time>2026-04-04T11:50:08Z</time></trkpt><trkpt lat="44.93508127694068" lon="9.518948847238207"><ele>175.0</ele><time>2026-04-04T11:50:09Z</time></trkpt><trkpt lat="44.935034880111346" lon="9.518842358913538"><ele>175.0</ele><time>2026-04-04T11:50:10Z</time></trkpt><trkpt lat="44.93497878511391" lon="9.518731882962726"><ele>175.0</ele><time>2026-04-04T11:50:11Z</time></trkpt><trkpt lat="44.9349179752568" lon="9.518632149685411"><ele>175.0</ele><time>2026-04-04T11:50:12Z</time></trkpt><trkpt lat="44.93486701225206" lon="9.518532871202021"><ele>175.6</ele><time>2026-04-04T11:50:13Z</time></trkpt><trkpt lat="44.93482684266428" lon="9.518435160986565"><ele>176.2</ele><time>2026-04-04T11:50:14Z</time></trkpt><trkpt lat="44.93478006963924" lon="9.518339437769017"><ele>176.8</ele><time>2026-04-04T11:50:15Z</time></trkpt><trkpt lat="44.9347370820459" lon="9.518222840474081"><ele>177.4</ele><time>2026-04-04T11:50:16Z</time></trkpt><trkpt lat="44.934684997833166" lon="9.518100183349835"><ele>178.0</ele><time>2026-04-04T11:50:17Z</time></trkpt><trkpt lat="44.934634635539624" lon="9.51798034067236"><ele>178.4</ele><time>2026-04-04T11:50:18Z</time></trkpt><trkpt lat="44.93456247382999" lon="9.51788305147049"><ele>178.8</ele><time>2026-04-04T11:50:19Z</time></trkpt><trkpt lat="44.93448610657038" lon="9.517798773417333"><ele>179.2</ele><time>2026-04-04T11:50:20Z</time></trkpt><trkpt lat="44.93440164826997" lon="9.517738053425067"><ele>179.6</ele><time>2026-04-04T11:50:21Z</time></trkpt><trkpt lat="44.934297469051444" lon="9.517677846346988"><ele>180.0</ele><time>2026-04-04T11:50:22Z</time></trkpt><trkpt lat="44.93415915555086" lon="9.517587399401298"><ele>180.0</ele><time>2026-04-04T11:50:23Z</time></trkpt><trkpt lat="44.93400671246295" lon="9.517486556038657"><ele>180.0</ele><time>2026-04-04T11:50:24Z</time></trkpt><trkpt lat="44.93383796321583" lon="9.517376760351052"><ele>180.0</ele><time>2026-04-04T11:50:25Z</time></trkpt><trkpt lat="44.93371325002944" lon="9.51729825785257"><ele>180.0</ele><time>2026-04-04T11:50:26Z</time></trkpt><trkpt lat="44.93360980933466" lon="9.5172267743613"><ele>180.0</ele><time>2026-04-04T11:50:27Z</time></trkpt><trkpt lat="44.93351635506246" lon="9.517164025976355"><ele>180.0</ele><time>2026-04-04T11:50:28Z</time></trkpt><trkpt lat="44.933425838262885" lon="9.517096782762447"><ele>180.0</ele><time>2026-04-04T11:50:29Z</time></trkpt><trkpt lat="44.93332632688727" lon="9.517020682833111"><ele>180.0</ele><time>2026-04-04T11:50:30Z</time></trkpt><trkpt lat="44.933233061679886" lon="9.516962664926893"><ele>180.0</ele><time>2026-04-04T11:50:31Z</time></trkpt><trkpt lat="44.93315161890254" lon="9.516909582403185"><ele>180.0</ele><time>2026-04-04T11:50:31.999Z</time></trkpt><trkpt lat="44.93306482839979" lon="9.516852412105843"><ele>180.0</ele><time>2026-04-04T11:50:32.999Z</time></trkpt><trkpt lat="44.93298598486775" lon="9.516795869238102"><ele>180.0</ele><time>2026-04-04T11:50:33.999Z</time></trkpt><trkpt lat="44.93292621088444" lon="9.516717764966451"><ele>180.0</ele><time>2026-04-04T11:50:34.999Z</time></trkpt><trkpt lat="44.93285138331297" lon="9.516644228172924"><ele>180.0</ele><time>2026-04-04T11:50:35.999Z</time></trkpt><trkpt lat="44.932763110696634" lon="9.516568012563107"><ele>180.0</ele><time>2026-04-04T11:50:36.999Z</time></trkpt><trkpt lat="44.93270453609154" lon="9.516464439295893"><ele>180.0</ele><time>2026-04-04T11:50:37.999Z</time></trkpt><trkpt lat="44.932635498706645" lon="9.51636737208827"><ele>180.0</ele><time>2026-04-04T11:50:38.999Z</time></trkpt><trkpt lat="44.932566229878226" lon="9.516296659787901"><ele>180.0</ele><time>2026-04-04T11:50:39.999Z</time></trkpt><trkpt lat="44.93250815455544" lon="9.516207010240766"><ele>180.0</ele><time>2026-04-04T11:50:40.999Z</time></trkpt><trkpt lat="44.93245537228655" lon="9.516136289212588"><ele>180.0</ele><time>2026-04-04T11:50:41.999Z</time></trkpt><trkpt lat="44.93240550503883" lon="9.516060949754378"><ele>180.33333333333334</ele><time>2026-04-04T11:50:42.999Z</time></trkpt><trkpt lat="44.93236189293276" lon="9.515992591318312"><ele>180.66666666666666</ele><time>2026-04-04T11:50:43.999Z</time></trkpt><trkpt lat="44.93229698102777" lon="9.515883924449778"><ele>181.0</ele><time>2026-04-04T11:50:45.999Z</time></trkpt><trkpt lat="44.93225805821582" lon="9.515805208442178"><ele>181.33333333333331</ele><time>2026-04-04T11:50:47.999Z</time></trkpt><trkpt lat="44.93220754208936" lon="9.515728021491842"><ele>181.66666666666666</ele><time>2026-04-04T11:50:51.999Z</time></trkpt><trkpt lat="44.932128681121426" lon="9.51578445957754"><ele>182.0</ele><time>2026-04-04T11:50:52.999Z</time></trkpt><trkpt lat="44.93204903137021" lon="9.515775899358404"><ele>182.0</ele><time>2026-04-04T11:50:55.999Z</time></trkpt><trkpt lat="44.9320284349958" lon="9.515689712644484"><ele>182.0</ele><time>2026-04-04T11:50:57.999Z</time></trkpt><trkpt lat="44.93195276328831" lon="9.515651813640648"><ele>182.0</ele><time>2026-04-04T11:51:01.999Z</time></trkpt><trkpt lat="44.93187284514587" lon="9.515628626531921"><ele>182.0</ele><time>2026-04-04T11:51:03.999Z</time></trkpt><trkpt lat="44.93180458221487" lon="9.515643273761908"><ele>182.0</ele><time>2026-04-04T11:51:04.999Z</time></trkpt><trkpt lat="44.93168942489545" lon="9.515565861307348"><ele>182.0</ele><time>2026-04-04T11:51:06.999Z</time></trkpt><trkpt lat="44.93161285314203" lon="9.515492068749165"><ele>182.2</ele><time>2026-04-04T11:51:07.999Z</time></trkpt><trkpt lat="44.9315441310749" lon="9.515413276290158"><ele>182.39999999999998</ele><time>2026-04-04T11:51:09.999Z</time></trkpt><trkpt lat="44.931444256149284" lon="9.515202689935125"><ele>182.60000000000002</ele><time>2026-04-04T11:51:34.999Z</time></trkpt><trkpt lat="44.93139396108865" lon="9.515147068787043"><ele>182.8</ele><time>2026-04-04T11:51:35.999Z</time></trkpt><trkpt lat="44.93134352263734" lon="9.515090409118054"><ele>183.0</ele><time>2026-04-04T11:51:36.999Z</time></trkpt><trkpt lat="44.931239488998166" lon="9.514980924005114"><ele>183.0</ele><time>2026-04-04T11:51:38.998Z</time></trkpt><trkpt lat="44.93120318353589" lon="9.514906959347119"><ele>183.0</ele><time>2026-04-04T11:51:39.998Z</time></trkpt><trkpt lat="44.93112621882442" lon="9.514733985868101"><ele>183.0</ele><time>2026-04-04T11:51:41.998Z</time></trkpt><trkpt lat="44.93106193566413" lon="9.514630228030127"><ele>183.0</ele><time>2026-04-04T11:51:42.998Z</time></trkpt><trkpt lat="44.930991381668285" lon="9.514489933555758"><ele>183.0</ele><time>2026-04-04T11:51:43.998Z</time></trkpt><trkpt lat="44.93092823806819" lon="9.514385073009278"><ele>183.0</ele><time>2026-04-04T11:51:44.998Z</time></trkpt><trkpt lat="44.93089714828196" lon="9.51427467772884"><ele>183.0</ele><time>2026-04-04T11:51:45.998Z</time></trkpt><trkpt lat="44.9308771556221" lon="9.51417641799118"><ele>183.0</ele><time>2026-04-04T11:51:46.998Z</time></trkpt><trkpt lat="44.930861583227546" lon="9.514053800951496"><ele>183.0</ele><time>2026-04-04T11:51:47.998Z</time></trkpt><trkpt lat="44.930829601650046" lon="9.513897191899483"><ele>183.0</ele><time>2026-04-04T11:51:48.998Z</time></trkpt><trkpt lat="44.93079180608933" lon="9.513779108818012"><ele>183.60000000000002</ele><time>2026-04-04T11:51:49.998Z</time></trkpt><trkpt lat="44.93077449822002" lon="9.513668876260128"><ele>184.20000000000002</ele><time>2026-04-04T11:51:51Z</time></trkpt><trkpt lat="44.93077184137368" lon="9.513525382467535"><ele>184.8</ele><time>2026-04-04T11:51:52Z</time></trkpt><trkpt lat="44.93075586835077" lon="9.513322518884367"><ele>185.4</ele><time>2026-04-04T11:51:53Z</time></trkpt><trkpt lat="44.930729595356034" lon="9.513196029384597"><ele>186.0</ele><time>2026-04-04T11:51:54Z</time></trkpt><trkpt lat="44.930693863343826" lon="9.513097832060707"><ele>186.0</ele><time>2026-04-04T11:51:55Z</time></trkpt><trkpt lat="44.93065055554194" lon="9.51302197367216"><ele>186.0</ele><time>2026-04-04T11:51:56Z</time></trkpt><trkpt lat="44.93058176952212" lon="9.512957820384978"><ele>186.0</ele><time>2026-04-04T11:51:57Z</time></trkpt><trkpt lat="44.93052347959378" lon="9.512850188141313"><ele>186.0</ele><time>2026-04-04T11:51:58Z</time></trkpt><trkpt lat="44.93046894270327" lon="9.51275612770599"><ele>186.0</ele><time>2026-04-04T11:51:59Z</time></trkpt><trkpt lat="44.93039658885642" lon="9.512701533434752"><ele>186.0</ele><time>2026-04-04T11:52:01Z</time></trkpt><trkpt lat="44.93032965838831" lon="9.512685783930383"><ele>186.8</ele><time>2026-04-04T11:52:04Z</time></trkpt><trkpt lat="44.930246121874895" lon="9.512650804121307"><ele>187.60000000000002</ele><time>2026-04-04T11:52:08Z</time></trkpt><trkpt lat="44.93016747207961" lon="9.512644698970796"><ele>188.4</ele><time>2026-04-04T11:52:11Z</time></trkpt><trkpt lat="44.93013349886188" lon="9.512405511148526"><ele>189.2</ele><time>2026-04-04T11:54:45Z</time></trkpt><trkpt lat="44.93007758823129" lon="9.512272711851757"><ele>190.0</ele><time>2026-04-04T11:54:46.999Z</time></trkpt><trkpt lat="44.930055054402224" lon="9.512146482014506"><ele>190.4</ele><time>2026-04-04T11:54:48.999Z</time></trkpt><trkpt lat="44.93003810354604" lon="9.511986582489552"><ele>190.8</ele><time>2026-04-04T11:54:50.999Z</time></trkpt><trkpt lat="44.93001351861993" lon="9.511815712258082"><ele>191.2</ele><time>2026-04-04T11:54:52.999Z</time></trkpt><trkpt lat="44.92999818357116" lon="9.511712535829624"><ele>191.6</ele><time>2026-04-04T11:54:53.999Z</time></trkpt><trkpt lat="44.929987586156344" lon="9.511585752420546"><ele>192.0</ele><time>2026-04-04T11:54:54.999Z</time></trkpt><trkpt lat="44.929976153211115" lon="9.511459086565498"><ele>192.0</ele><time>2026-04-04T11:54:55.999Z</time></trkpt><trkpt lat="44.92996964446064" lon="9.511332843998915"><ele>192.0</ele><time>2026-04-04T11:54:56.999Z</time></trkpt><trkpt lat="44.929957735001395" lon="9.51123365159029"><ele>192.0</ele><time>2026-04-04T11:54:57.999Z</time></trkpt><trkpt lat="44.92993757709262" lon="9.511142739091941"><ele>192.0</ele><time>2026-04-04T11:54:58.999Z</time></trkpt><trkpt lat="44.929906308892434" lon="9.511043599012494"><ele>192.0</ele><time>2026-04-04T11:54:59.999Z</time></trkpt><trkpt lat="44.92986902718445" lon="9.510952259191717"><ele>192.0</ele><time>2026-04-04T11:55:00.999Z</time></trkpt><trkpt lat="44.92980685173154" lon="9.510863572626162"><ele>192.0</ele><time>2026-04-04T11:55:01.999Z</time></trkpt><trkpt lat="44.92973521026015" lon="9.510789278259043"><ele>192.0</ele><time>2026-04-04T11:55:02.999Z</time></trkpt><trkpt lat="44.929662218798995" lon="9.510729425804817"><ele>192.0</ele><time>2026-04-04T11:55:03.999Z</time></trkpt><trkpt lat="44.92956622260977" lon="9.51058948342537"><ele>192.0</ele><time>2026-04-04T11:55:05.999Z</time></trkpt><trkpt lat="44.92952435325801" lon="9.510519235021318"><ele>192.0</ele><time>2026-04-04T11:55:06.999Z</time></trkpt><trkpt lat="44.92947508282176" lon="9.510441994203685"><ele>192.16666666666666</ele><time>2026-04-04T11:55:07.999Z</time></trkpt><trkpt lat="44.92941094658757" lon="9.510365130600018"><ele>192.33333333333331</ele><time>2026-04-04T11:55:08.999Z</time></trkpt><trkpt lat="44.92935460563865" lon="9.510311292742184"><ele>192.5</ele><time>2026-04-04T11:55:09.999Z</time></trkpt><trkpt lat="44.92924590321992" lon="9.510212249868838"><ele>192.66666666666666</ele><time>2026-04-04T11:55:11.999Z</time></trkpt><trkpt lat="44.92919763917565" lon="9.510147931715556"><ele>192.83333333333331</ele><time>2026-04-04T11:55:12.999Z</time></trkpt><trkpt lat="44.92912774498731" lon="9.510072989475056"><ele>193.0</ele><time>2026-04-04T11:55:14.999Z</time></trkpt><trkpt lat="44.929082242545554" lon="9.509998932389488"><ele>192.99999999999997</ele><time>2026-04-04T11:55:16.999Z</time></trkpt><trkpt lat="44.92901625781218" lon="9.509928747126"><ele>193.0</ele><time>2026-04-04T11:55:20.999Z</time></trkpt><trkpt lat="44.92897295734785" lon="9.509863896677683"><ele>193.0</ele><time>2026-04-04T11:55:24.999Z</time></trkpt><trkpt lat="44.929013748762294" lon="9.509778842690285"><ele>193.0</ele><time>2026-04-04T11:55:29.999Z</time></trkpt><trkpt lat="44.92906862294974" lon="9.509708307660278"><ele>192.99999999999997</ele><time>2026-04-04T11:55:31.999Z</time></trkpt><trkpt lat="44.9290468779701" lon="9.509593748009982"><ele>193.0</ele><time>2026-04-04T11:55:34.999Z</time></trkpt><trkpt lat="44.92905713896586" lon="9.509487655740463"><ele>193.33333333333331</ele><time>2026-04-04T11:55:37.999Z</time></trkpt><trkpt lat="44.92904722873063" lon="9.509364525722043"><ele>193.66666666666666</ele><time>2026-04-04T11:55:39.999Z</time></trkpt><trkpt lat="44.928987751379694" lon="9.509278089792597"><ele>194.0</ele><time>2026-04-04T11:55:42.999Z</time></trkpt><trkpt lat="44.92894876780409" lon="9.509198957668215"><ele>194.33333333333331</ele><time>2026-04-04T11:55:49.999Z</time></trkpt><trkpt lat="44.92889465738301" lon="9.509100903892273"><ele>194.66666666666666</ele><time>2026-04-04T11:56:06Z</time></trkpt><trkpt lat="44.9288078426811" lon="9.509071451032279"><ele>195.0</ele><time>2026-04-04T11:56:09Z</time></trkpt><trkpt lat="44.92874611662672" lon="9.508974256685743"><ele>195.0</ele><time>2026-04-04T11:56:11Z</time></trkpt><trkpt lat="44.928685453003034" lon="9.508810027934826"><ele>195.0</ele><time>2026-04-04T11:56:13Z</time></trkpt><trkpt lat="44.928635607599595" lon="9.508683225663566"><ele>195.0</ele><time>2026-04-04T11:56:14Z</time></trkpt><trkpt lat="44.92857453865026" lon="9.508596670900607"><ele>195.0</ele><time>2026-04-04T11:56:15Z</time></trkpt><trkpt lat="44.92853210171757" lon="9.508518568748807"><ele>195.0</ele><time>2026-04-04T11:56:16Z</time></trkpt><trkpt lat="44.92847818367263" lon="9.50842490496496"><ele>196.2</ele><time>2026-04-04T11:56:18Z</time></trkpt><trkpt lat="44.92845949231282" lon="9.50832683377141"><ele>197.4</ele><time>2026-04-04T11:56:21Z</time></trkpt><trkpt lat="44.92853874557571" lon="9.508248060534411"><ele>198.60000000000002</ele><time>2026-04-04T11:56:24Z</time></trkpt><trkpt lat="44.92864704678731" lon="9.508185897706685"><ele>199.8</ele><time>2026-04-04T11:56:26Z</time></trkpt><trkpt lat="44.928724059078505" lon="9.508122687572314"><ele>201.0</ele><time>2026-04-04T11:56:27Z</time></trkpt><trkpt lat="44.928807379706576" lon="9.508069438378424"><ele>201.0</ele><time>2026-04-04T11:56:28Z</time></trkpt><trkpt lat="44.92885887766864" lon="9.508012711772837"><ele>201.0</ele><time>2026-04-04T11:56:29Z</time></trkpt><trkpt lat="44.92895139008734" lon="9.507974247149336"><ele>201.0</ele><time>2026-04-04T11:56:31Z</time></trkpt><trkpt lat="44.92905421906417" lon="9.5079160119224"><ele>201.0</ele><time>2026-04-04T11:56:33Z</time></trkpt><trkpt lat="44.929183153153204" lon="9.507915472335405"><ele>201.0</ele><time>2026-04-04T11:56:35Z</time></trkpt><trkpt lat="44.929276778052404" lon="9.507917110461491"><ele>202.60000000000002</ele><time>2026-04-04T11:56:36Z</time></trkpt><trkpt lat="44.92937931983022" lon="9.507928285998906"><ele>204.2</ele><time>2026-04-04T11:56:37Z</time></trkpt><trkpt lat="44.92948719170143" lon="9.507949968367868"><ele>205.8</ele><time>2026-04-04T11:56:38Z</time></trkpt><trkpt lat="44.92958093326714" lon="9.507969557684616"><ele>207.39999999999998</ele><time>2026-04-04T11:56:39Z</time></trkpt><trkpt lat="44.92966853174611" lon="9.507987863271818"><ele>209.0</ele><time>2026-04-04T11:56:40Z</time></trkpt><trkpt lat="44.92977064437734" lon="9.508009201987484"><ele>209.00000000000003</ele><time>2026-04-04T11:56:41Z</time></trkpt><trkpt lat="44.929859165402256" lon="9.508042588218622"><ele>209.0</ele><time>2026-04-04T11:56:42Z</time></trkpt><trkpt lat="44.92992220712457" lon="9.508086634209658"><ele>209.0</ele><time>2026-04-04T11:56:43Z</time></trkpt><trkpt lat="44.929971884001496" lon="9.508161584933315"><ele>209.0</ele><time>2026-04-04T11:56:44Z</time></trkpt><trkpt lat="44.93000679951867" lon="9.508253978663696"><ele>209.00000000000003</ele><time>2026-04-04T11:56:45Z</time></trkpt><trkpt lat="44.930049500164635" lon="9.508374853112166"><ele>209.0</ele><time>2026-04-04T11:56:46Z</time></trkpt><trkpt lat="44.93009192994789" lon="9.50849980040472"><ele>209.39999999999998</ele><time>2026-04-04T11:56:47Z</time></trkpt><trkpt lat="44.93015129679533" lon="9.508664517260515"><ele>209.8</ele><time>2026-04-04T11:56:48Z</time></trkpt><trkpt lat="44.93020399869331" lon="9.508803207017564"><ele>210.2</ele><time>2026-04-04T11:56:49Z</time></trkpt><trkpt lat="44.930250116432845" lon="9.508902002101406"><ele>210.60000000000002</ele><time>2026-04-04T11:56:50Z</time></trkpt><trkpt lat="44.93029488387898" lon="9.508987989613464"><ele>211.0</ele><time>2026-04-04T11:56:50.999Z</time></trkpt><trkpt lat="44.93034066570929" lon="9.509059632355168"><ele>210.99999999999997</ele><time>2026-04-04T11:56:51.999Z</time></trkpt><trkpt lat="44.93040719283805" lon="9.509117840919625"><ele>211.0</ele><time>2026-04-04T11:56:52.999Z</time></trkpt><trkpt lat="44.930485411153164" lon="9.509112779369353"><ele>211.0</ele><time>2026-04-04T11:56:53.999Z</time></trkpt><trkpt lat="44.930558558095484" lon="9.509101269176059"><ele>211.0</ele><time>2026-04-04T11:56:54.999Z</time></trkpt><trkpt lat="44.93063741312183" lon="9.509057471052225"><ele>210.99999999999997</ele><time>2026-04-04T11:56:55.999Z</time></trkpt><trkpt lat="44.93072847990307" lon="9.509007196231542"><ele>211.0</ele><time>2026-04-04T11:56:56.999Z</time></trkpt><trkpt lat="44.93081867534983" lon="9.508964066660338"><ele>212.25</ele><time>2026-04-04T11:56:57.999Z</time></trkpt><trkpt lat="44.93091144702895" lon="9.508921125507992"><ele>213.5</ele><time>2026-04-04T11:56:58.999Z</time></trkpt><trkpt lat="44.93102653915958" lon="9.508870459491003"><ele>214.75</ele><time>2026-04-04T11:56:59.999Z</time></trkpt><trkpt lat="44.93115422312087" lon="9.508818892075732"><ele>216.0</ele><time>2026-04-04T11:57:00.999Z</time></trkpt><trkpt lat="44.93125389423714" lon="9.508778936407484"><ele>216.20000000000002</ele><time>2026-04-04T11:57:01.999Z</time></trkpt><trkpt lat="44.93134362052623" lon="9.50874107310806"><ele>216.40000000000003</ele><time>2026-04-04T11:57:02.999Z</time></trkpt><trkpt lat="44.93144320372634" lon="9.508717896762688"><ele>216.6</ele><time>2026-04-04T11:57:03.999Z</time></trkpt><trkpt lat="44.93154324301888" lon="9.508678983166623"><ele>216.8</ele><time>2026-04-04T11:57:04.999Z</time></trkpt><trkpt lat="44.931659178969014" lon="9.508634259588465"><ele>217.0</ele><time>2026-04-04T11:57:05.999Z</time></trkpt><trkpt lat="44.931770947085106" lon="9.508591143745965"><ele>218.75</ele><time>2026-04-04T11:57:06.999Z</time></trkpt><trkpt lat="44.93188264722013" lon="9.508548054174334"><ele>220.5</ele><time>2026-04-04T11:57:07.999Z</time></trkpt><trkpt lat="44.93199280685585" lon="9.508505558825615"><ele>222.25</ele><time>2026-04-04T11:57:08.999Z</time></trkpt><trkpt lat="44.93211839685217" lon="9.508454987027122"><ele>224.0</ele><time>2026-04-04T11:57:09.999Z</time></trkpt><trkpt lat="44.93224212576934" lon="9.50838952677714"><ele>224.0</ele><time>2026-04-04T11:57:10.999Z</time></trkpt><trkpt lat="44.93236710695733" lon="9.508330473910585"><ele>224.0</ele><time>2026-04-04T11:57:11.999Z</time></trkpt><trkpt lat="44.932482402757195" lon="9.508304799997154"><ele>224.0</ele><time>2026-04-04T11:57:12.999Z</time></trkpt><trkpt lat="44.932598022139445" lon="9.508257324468385"><ele>224.0</ele><time>2026-04-04T11:57:13.999Z</time></trkpt><trkpt lat="44.93270883906202" lon="9.508200508725345"><ele>225.75</ele><time>2026-04-04T11:57:14.999Z</time></trkpt><trkpt lat="44.93280866497399" lon="9.50816752058588"><ele>227.5</ele><time>2026-04-04T11:57:15.999Z</time></trkpt><trkpt lat="44.93291685152015" lon="9.508129614479179"><ele>229.25</ele><time>2026-04-04T11:57:16.999Z</time></trkpt><trkpt lat="44.93303634796624" lon="9.508089821710163"><ele>231.0</ele><time>2026-04-04T11:57:17.999Z</time></trkpt><trkpt lat="44.933169139483255" lon="9.508032930757222"><ele>231.0</ele><time>2026-04-04T11:57:18.999Z</time></trkpt><trkpt lat="44.93331211360145" lon="9.507963206806041"><ele>231.0</ele><time>2026-04-04T11:57:19.999Z</time></trkpt><trkpt lat="44.93345241099673" lon="9.507925477876864"><ele>231.0</ele><time>2026-04-04T11:57:20.999Z</time></trkpt><trkpt lat="44.93355297618496" lon="9.507864500807072"><ele>231.0</ele><time>2026-04-04T11:57:21.999Z</time></trkpt><trkpt lat="44.93364006692981" lon="9.507833788308227"><ele>232.60000000000002</ele><time>2026-04-04T11:57:22.999Z</time></trkpt><trkpt lat="44.93370817591935" lon="9.507809655325511"><ele>234.20000000000002</ele><time>2026-04-04T11:57:23.999Z</time></trkpt><trkpt lat="44.933770152567874" lon="9.507779111220453"><ele>235.79999999999998</ele><time>2026-04-04T11:57:24.999Z</time></trkpt><trkpt lat="44.933852218320546" lon="9.507737765926633"><ele>237.39999999999998</ele><time>2026-04-04T11:57:26.999Z</time></trkpt><trkpt lat="44.933950450250705" lon="9.507933356350081"><ele>239.0</ele><time>2026-04-04T11:57:29.999Z</time></trkpt><trkpt lat="44.93403735147775" lon="9.50806474441968"><ele>239.00000000000003</ele><time>2026-04-04T11:57:30.999Z</time></trkpt><trkpt lat="44.93412174623751" lon="9.508192342877432"><ele>239.0</ele><time>2026-04-04T11:57:31.999Z</time></trkpt><trkpt lat="44.93418492707535" lon="9.508287867470226"><ele>239.0</ele><time>2026-04-04T11:57:32.999Z</time></trkpt><trkpt lat="44.93423854559158" lon="9.508368934762181"><ele>239.0</ele><time>2026-04-04T11:57:33.999Z</time></trkpt><trkpt lat="44.93428612111404" lon="9.508440865187803"><ele>239.00000000000003</ele><time>2026-04-04T11:57:34.999Z</time></trkpt><trkpt lat="44.93432914058884" lon="9.508505907394758"><ele>239.0</ele><time>2026-04-04T11:57:35.999Z</time></trkpt><trkpt lat="44.93441424720432" lon="9.508601574191346"><ele>239.6</ele><time>2026-04-04T11:57:37.999Z</time></trkpt><trkpt lat="44.934477695460295" lon="9.508705056383583"><ele>240.2</ele><time>2026-04-04T11:57:39.999Z</time></trkpt><trkpt lat="44.93454433307719" lon="9.508832373598773"><ele>240.79999999999998</ele><time>2026-04-04T11:57:41.999Z</time></trkpt><trkpt lat="44.93461730789837" lon="9.508878871528037"><ele>241.39999999999998</ele><time>2026-04-04T11:57:43.999Z</time></trkpt><trkpt lat="44.93469648589654" lon="9.508891242561536"><ele>242.0</ele><time>2026-04-04T11:57:46.999Z</time></trkpt><trkpt lat="44.934764124533274" lon="9.508655915868802"><ele>242.6</ele><time>2026-04-04T11:58:15Z</time></trkpt><trkpt lat="44.934810279375846" lon="9.508481924482435"><ele>243.2</ele><time>2026-04-04T11:58:17Z</time></trkpt><trkpt lat="44.934834411255814" lon="9.50838098990555"><ele>243.8</ele><time>2026-04-04T11:58:18Z</time></trkpt><trkpt lat="44.934857417425086" lon="9.50826917089553"><ele>244.4</ele><time>2026-04-04T11:58:19Z</time></trkpt><trkpt lat="44.934883080174245" lon="9.50815617409228"><ele>245.0</ele><time>2026-04-04T11:58:20Z</time></trkpt><trkpt lat="44.93490171691452" lon="9.508043954905652"><ele>245.0</ele><time>2026-04-04T11:58:21Z</time></trkpt><trkpt lat="44.934920102429835" lon="9.507916761082049"><ele>245.0</ele><time>2026-04-04T11:58:22Z</time></trkpt><trkpt lat="44.93495075503522" lon="9.507765113164034"><ele>245.0</ele><time>2026-04-04T11:58:23Z</time></trkpt><trkpt lat="44.934978986616755" lon="9.507636219095653"><ele>245.0</ele><time>2026-04-04T11:58:24Z</time></trkpt><trkpt lat="44.93500487215615" lon="9.507507439234377"><ele>245.0</ele><time>2026-04-04T11:58:25Z</time></trkpt><trkpt lat="44.93504698667531" lon="9.507401155423128"><ele>247.0</ele><time>2026-04-04T11:58:26Z</time></trkpt><trkpt lat="44.93511213142578" lon="9.50730979988519"><ele>249.0</ele><time>2026-04-04T11:58:27Z</time></trkpt><trkpt lat="44.935204567506936" lon="9.507237863197803"><ele>251.0</ele><time>2026-04-04T11:58:28Z</time></trkpt><trkpt lat="44.93534050166569" lon="9.50722958228875"><ele>253.0</ele><time>2026-04-04T11:58:29Z</time></trkpt><trkpt lat="44.93550572371094" lon="9.507179333873541"><ele>253.0</ele><time>2026-04-04T11:58:30Z</time></trkpt><trkpt lat="44.93562787516637" lon="9.507163949876086"><ele>253.0</ele><time>2026-04-04T11:58:31Z</time></trkpt><trkpt lat="44.935733175315384" lon="9.50714572124515"><ele>253.0</ele><time>2026-04-04T11:58:32Z</time></trkpt><trkpt lat="44.93582577002587" lon="9.507121265623418"><ele>253.0</ele><time>2026-04-04T11:58:33Z</time></trkpt><trkpt lat="44.93592197011465" lon="9.507115397982023"><ele>253.0</ele><time>2026-04-04T11:58:34Z</time></trkpt><trkpt lat="44.93602844846809" lon="9.507116934513123"><ele>254.4</ele><time>2026-04-04T11:58:35Z</time></trkpt><trkpt lat="44.9361311379954" lon="9.507084910018719"><ele>255.8</ele><time>2026-04-04T11:58:36Z</time></trkpt><trkpt lat="44.93623522600807" lon="9.507076462084864"><ele>257.2</ele><time>2026-04-04T11:58:37Z</time></trkpt><trkpt lat="44.93632750730606" lon="9.507138398130971"><ele>258.6</ele><time>2026-04-04T11:58:38Z</time></trkpt><trkpt lat="44.93642992922151" lon="9.507216065998717"><ele>260.0</ele><time>2026-04-04T11:58:39Z</time></trkpt><trkpt lat="44.93656637094231" lon="9.507317896656161"><ele>260.0</ele><time>2026-04-04T11:58:40Z</time></trkpt><trkpt lat="44.936685900368396" lon="9.507405855961288"><ele>260.0</ele><time>2026-04-04T11:58:41Z</time></trkpt><trkpt lat="44.93678237232965" lon="9.507476847671374"><ele>260.0</ele><time>2026-04-04T11:58:42Z</time></trkpt><trkpt lat="44.936866240137114" lon="9.507538564294805"><ele>260.0</ele><time>2026-04-04T11:58:43Z</time></trkpt><trkpt lat="44.936950471985966" lon="9.507600548776507"><ele>260.0</ele><time>2026-04-04T11:58:44Z</time></trkpt><trkpt lat="44.93703481023669" lon="9.507662472032658"><ele>261.2</ele><time>2026-04-04T11:58:45Z</time></trkpt><trkpt lat="44.9371146521048" lon="9.507721001134597"><ele>262.4</ele><time>2026-04-04T11:58:46Z</time></trkpt><trkpt lat="44.93719633549581" lon="9.507777227150662"><ele>263.6</ele><time>2026-04-04T11:58:47Z</time></trkpt><trkpt lat="44.93728005273327" lon="9.507835135767591"><ele>264.8</ele><time>2026-04-04T11:58:48Z</time></trkpt><trkpt lat="44.937360786878166" lon="9.507890980952153"><ele>266.0</ele><time>2026-04-04T11:58:49Z</time></trkpt><trkpt lat="44.937440008663906" lon="9.507945779992301"><ele>266.0</ele><time>2026-04-04T11:58:50Z</time></trkpt><trkpt lat="44.937521484984956" lon="9.50800345888298"><ele>266.0</ele><time>2026-04-04T11:58:51Z</time></trkpt><trkpt lat="44.93760065027573" lon="9.508060993128094"><ele>266.0</ele><time>2026-04-04T11:58:52Z</time></trkpt><trkpt lat="44.93768187595088" lon="9.508122538260103"><ele>266.0</ele><time>2026-04-04T11:58:52.999Z</time></trkpt><trkpt lat="44.937762498622725" lon="9.508157281441122"><ele>266.0</ele><time>2026-04-04T11:58:53.999Z</time></trkpt><trkpt lat="44.937820343591405" lon="9.508227456014453"><ele>266.0</ele><time>2026-04-04T11:58:54.999Z</time></trkpt><trkpt lat="44.93788261905433" lon="9.508261424791698"><ele>266.6</ele><time>2026-04-04T11:58:55.999Z</time></trkpt><trkpt lat="44.937947775129686" lon="9.508279025045109"><ele>267.20000000000005</ele><time>2026-04-04T11:58:56.999Z</time></trkpt><trkpt lat="44.93803150750938" lon="9.50816095916698"><ele>267.79999999999995</ele><time>2026-04-04T11:58:57.999Z</time></trkpt><trkpt lat="44.9381061995685" lon="9.50798313344717"><ele>268.4</ele><time>2026-04-04T11:58:58.999Z</time></trkpt><trkpt lat="44.9381677319012" lon="9.507872711142356"><ele>269.0</ele><time>2026-04-04T11:58:59.999Z</time></trkpt><trkpt lat="44.93823194844985" lon="9.507767502836472"><ele>269.59999999999997</ele><time>2026-04-04T11:59:00.999Z</time></trkpt><trkpt lat="44.938298463819145" lon="9.507659101260233"><ele>270.2</ele><time>2026-04-04T11:59:01.999Z</time></trkpt><trkpt lat="44.93836266155105" lon="9.507558596813398"><ele>270.79999999999995</ele><time>2026-04-04T11:59:02.999Z</time></trkpt><trkpt lat="44.938416005945626" lon="9.507464596970424"><ele>271.4</ele><time>2026-04-04T11:59:03.999Z</time></trkpt><trkpt lat="44.938462354945" lon="9.507358487045664"><ele>272.0</ele><time>2026-04-04T11:59:04.999Z</time></trkpt><trkpt lat="44.93848681678337" lon="9.50722567589121"><ele>272.33333333333337</ele><time>2026-04-04T11:59:05.999Z</time></trkpt><trkpt lat="44.93849336707678" lon="9.50710268113944"><ele>272.6666666666667</ele><time>2026-04-04T11:59:06.999Z</time></trkpt><trkpt lat="44.93848612415034" lon="9.506999242391709"><ele>273.0</ele><time>2026-04-04T11:59:07.999Z</time></trkpt><trkpt lat="44.938482722486796" lon="9.506829225082372"><ele>273.3333333333333</ele><time>2026-04-04T11:59:09.999Z</time></trkpt><trkpt lat="44.93848284005581" lon="9.50673110760606"><ele>273.66666666666663</ele><time>2026-04-04T11:59:10.999Z</time></trkpt><trkpt lat="44.9384950290978" lon="9.506625427713441"><ele>274.0</ele><time>2026-04-04T11:59:11.999Z</time></trkpt><trkpt lat="44.93844476152603" lon="9.506501235491386"><ele>274.66666666666663</ele><time>2026-04-04T11:59:12.999Z</time></trkpt><trkpt lat="44.93842264645965" lon="9.506376019695264"><ele>275.3333333333333</ele><time>2026-04-04T11:59:13.999Z</time></trkpt><trkpt lat="44.93841177316398" lon="9.506253410604643"><ele>276.0</ele><time>2026-04-04T11:59:14.999Z</time></trkpt><trkpt lat="44.93840617173916" lon="9.506149253774794"><ele>276.6666666666667</ele><time>2026-04-04T11:59:15.999Z</time></trkpt><trkpt lat="44.93839932484755" lon="9.506036170404498"><ele>277.33333333333337</ele><time>2026-04-04T11:59:16.999Z</time></trkpt><trkpt lat="44.9383794706882" lon="9.50590624504698"><ele>278.0</ele><time>2026-04-04T11:59:17.999Z</time></trkpt><trkpt lat="44.938339413093615" lon="9.505774621487426"><ele>278.75</ele><time>2026-04-04T11:59:18.999Z</time></trkpt><trkpt lat="44.93828854859573" lon="9.505633293102123"><ele>279.5</ele><time>2026-04-04T11:59:19.999Z</time></trkpt><trkpt lat="44.93822892485332" lon="9.505490788614129"><ele>280.25</ele><time>2026-04-04T11:59:20.999Z</time></trkpt><trkpt lat="44.93816889729316" lon="9.505328637223535"><ele>281.0</ele><time>2026-04-04T11:59:21.999Z</time></trkpt><trkpt lat="44.93814235765928" lon="9.505164281732647"><ele>282.0</ele><time>2026-04-04T11:59:22.999Z</time></trkpt><trkpt lat="44.938093676473585" lon="9.505012158779902"><ele>283.0</ele><time>2026-04-04T11:59:23.999Z</time></trkpt><trkpt lat="44.93805863170173" lon="9.504857371587367"><ele>284.0</ele><time>2026-04-04T11:59:24.999Z</time></trkpt><trkpt lat="44.93799606103004" lon="9.504707035977116"><ele>285.0</ele><time>2026-04-04T11:59:25.999Z</time></trkpt><trkpt lat="44.93791687334109" lon="9.504537301421614"><ele>286.25</ele><time>2026-04-04T11:59:26.999Z</time></trkpt><trkpt lat="44.93783192363476" lon="9.504347625888947"><ele>287.5</ele><time>2026-04-04T11:59:27.999Z</time></trkpt><trkpt lat="44.93775972008502" lon="9.504200763627422"><ele>288.75</ele><time>2026-04-04T11:59:28.999Z</time></trkpt><trkpt lat="44.93769464245405" lon="9.504080477868895"><ele>290.0</ele><time>2026-04-04T11:59:29.999Z</time></trkpt><trkpt lat="44.93763965415995" lon="9.503980505981527"><ele>290.1666666666667</ele><time>2026-04-04T11:59:30.999Z</time></trkpt><trkpt lat="44.93753072756627" lon="9.503973325567967"><ele>290.33333333333337</ele><time>2026-04-04T11:59:31.999Z</time></trkpt><trkpt lat="44.93743865632929" lon="9.503978241669053"><ele>290.5</ele><time>2026-04-04T11:59:32.999Z</time></trkpt><trkpt lat="44.937371274559965" lon="9.5039637541704"><ele>290.6666666666667</ele><time>2026-04-04T11:59:33.999Z</time></trkpt><trkpt lat="44.93732511478801" lon="9.503887186955694"><ele>290.8333333333333</ele><time>2026-04-04T11:59:34.999Z</time></trkpt><trkpt lat="44.93731161499718" lon="9.50378181344706"><ele>291.0</ele><time>2026-04-04T11:59:35.999Z</time></trkpt><trkpt lat="44.93733235466971" lon="9.50365929498063"><ele>292.25</ele><time>2026-04-04T11:59:36.999Z</time></trkpt><trkpt lat="44.937354529826365" lon="9.5034710759199"><ele>293.5</ele><time>2026-04-04T11:59:37.999Z</time></trkpt><trkpt lat="44.93738670811537" lon="9.503289529396902"><ele>294.75</ele><time>2026-04-04T11:59:38.999Z</time></trkpt><trkpt lat="44.9374077060428" lon="9.503128559276936"><ele>296.0</ele><time>2026-04-04T11:59:39.999Z</time></trkpt><trkpt lat="44.9374289645538" lon="9.502929276529134"><ele>298.75</ele><time>2026-04-04T11:59:40.999Z</time></trkpt><trkpt lat="44.93745233965703" lon="9.502748543759914"><ele>301.5</ele><time>2026-04-04T11:59:41.999Z</time></trkpt><trkpt lat="44.93747865062434" lon="9.50257940316717"><ele>304.25</ele><time>2026-04-04T11:59:42.999Z</time></trkpt><trkpt lat="44.9374995344252" lon="9.502417725472917"><ele>307.0</ele><time>2026-04-04T11:59:43.999Z</time></trkpt><trkpt lat="44.93751693264134" lon="9.502266209698439"><ele>307.0</ele><time>2026-04-04T11:59:44.999Z</time></trkpt><trkpt lat="44.93754122833059" lon="9.502118926283098"><ele>307.0</ele><time>2026-04-04T11:59:45.999Z</time></trkpt><trkpt lat="44.93755470713123" lon="9.501993050486458"><ele>307.0</ele><time>2026-04-04T11:59:46.999Z</time></trkpt><trkpt lat="44.93756599271125" lon="9.501893490928387"><ele>307.0</ele><time>2026-04-04T11:59:47.999Z</time></trkpt><trkpt lat="44.93757352345413" lon="9.501804100339896"><ele>307.0</ele><time>2026-04-04T11:59:48.999Z</time></trkpt><trkpt lat="44.93760468160265" lon="9.501709587974865"><ele>307.0</ele><time>2026-04-04T11:59:49.999Z</time></trkpt><trkpt lat="44.93762589079894" lon="9.501622925819051"><ele>309.6</ele><time>2026-04-04T11:59:50.999Z</time></trkpt><trkpt lat="44.937654717362484" lon="9.501535934302014"><ele>312.2</ele><time>2026-04-04T11:59:51.999Z</time></trkpt><trkpt lat="44.9377129906534" lon="9.501399955131662"><ele>314.8</ele><time>2026-04-04T11:59:53.999Z</time></trkpt><trkpt lat="44.9377673368641" lon="9.501286285823277"><ele>317.4</ele><time>2026-04-04T11:59:55.999Z</time></trkpt><trkpt lat="44.9377927093404" lon="9.501173179096057"><ele>320.0</ele><time>2026-04-04T11:59:57.999Z</time></trkpt><trkpt lat="44.937860517039944" lon="9.501070226493033"><ele>321.8</ele><time>2026-04-04T11:59:59.999Z</time></trkpt><trkpt lat="44.937916198991296" lon="9.500963659437867"><ele>323.6</ele><time>2026-04-04T12:00:01.999Z</time></trkpt><trkpt lat="44.93796486790758" lon="9.500843776174783"><ele>325.4</ele><time>2026-04-04T12:00:03.998Z</time></trkpt><trkpt lat="44.93803102988356" lon="9.50079743362967"><ele>327.2</ele><time>2026-04-04T12:00:04.998Z</time></trkpt><trkpt lat="44.9381253329093" lon="9.500665448519312"><ele>329.0</ele><time>2026-04-04T12:00:06.998Z</time></trkpt><trkpt lat="44.938191837377154" lon="9.50057648065408"><ele>329.0</ele><time>2026-04-04T12:00:07.998Z</time></trkpt><trkpt lat="44.93825940141569" lon="9.500480415861496"><ele>329.0</ele><time>2026-04-04T12:00:08.998Z</time></trkpt><trkpt lat="44.93833115670937" lon="9.500392274939157"><ele>329.0</ele><time>2026-04-04T12:00:09.998Z</time></trkpt><trkpt lat="44.938389306371846" lon="9.500302736684006"><ele>329.0</ele><time>2026-04-04T12:00:10.998Z</time></trkpt><trkpt lat="44.938444250020694" lon="9.500223502260125"><ele>329.0</ele><time>2026-04-04T12:00:11.998Z</time></trkpt><trkpt lat="44.93848547148189" lon="9.500136356747117"><ele>329.0</ele><time>2026-04-04T12:00:12.998Z</time></trkpt><trkpt lat="44.93852393291711" lon="9.5000405364952"><ele>330.5</ele><time>2026-04-04T12:00:13.998Z</time></trkpt><trkpt lat="44.93854381206608" lon="9.499922549643989"><ele>332.0</ele><time>2026-04-04T12:00:15Z</time></trkpt><trkpt lat="44.93856798697621" lon="9.499812147264816"><ele>333.5</ele><time>2026-04-04T12:00:16Z</time></trkpt><trkpt lat="44.93860141029643" lon="9.499677282687827"><ele>335.0</ele><time>2026-04-04T12:00:17Z</time></trkpt><trkpt lat="44.938626352421785" lon="9.499584105974762"><ele>336.5</ele><time>2026-04-04T12:00:18Z</time></trkpt><trkpt lat="44.93865229935603" lon="9.49949619392174"><ele>338.0</ele><time>2026-04-04T12:00:19Z</time></trkpt><trkpt lat="44.93869722133331" lon="9.499409283774051"><ele>338.83333333333337</ele><time>2026-04-04T12:00:20Z</time></trkpt><trkpt lat="44.93872325560696" lon="9.49932330813116"><ele>339.6666666666667</ele><time>2026-04-04T12:00:21Z</time></trkpt><trkpt lat="44.93876262512266" lon="9.499248790930514"><ele>340.5</ele><time>2026-04-04T12:00:22Z</time></trkpt><trkpt lat="44.938803823659335" lon="9.499173816630915"><ele>341.3333333333333</ele><time>2026-04-04T12:00:23Z</time></trkpt><trkpt lat="44.9388695731243" lon="9.499068725236004"><ele>342.16666666666663</ele><time>2026-04-04T12:00:25Z</time></trkpt><trkpt lat="44.93893224454922" lon="9.49896840845635"><ele>343.0</ele><time>2026-04-04T12:00:27Z</time></trkpt><trkpt lat="44.93900789125533" lon="9.498852517867611"><ele>343.0</ele><time>2026-04-04T12:00:29Z</time></trkpt><trkpt lat="44.93905921443065" lon="9.498760894238764"><ele>343.0</ele><time>2026-04-04T12:00:31Z</time></trkpt><trkpt lat="44.93908409797992" lon="9.498658059685592"><ele>343.0</ele><time>2026-04-04T12:00:33Z</time></trkpt><trkpt lat="44.9391164019179" lon="9.498560866881771"><ele>343.0</ele><time>2026-04-04T12:00:35Z</time></trkpt><trkpt lat="44.93916669347359" lon="9.498432102436059"><ele>343.0</ele><time>2026-04-04T12:00:37Z</time></trkpt><trkpt lat="44.939203578757066" lon="9.498313915309142"><ele>343.0</ele><time>2026-04-04T12:00:39Z</time></trkpt><trkpt lat="44.93924432246764" lon="9.498196122349585"><ele>341.8333333333333</ele><time>2026-04-04T12:00:41Z</time></trkpt><trkpt lat="44.93928096457178" lon="9.498080045367898"><ele>340.66666666666663</ele><time>2026-04-04T12:00:43Z</time></trkpt><trkpt lat="44.93932903780587" lon="9.497999528767346"><ele>339.5</ele><time>2026-04-04T12:00:45Z</time></trkpt><trkpt lat="44.939368201807376" lon="9.497929091081721"><ele>338.3333333333333</ele><time>2026-04-04T12:00:47Z</time></trkpt><trkpt lat="44.93940233415509" lon="9.497842117118545"><ele>337.1666666666667</ele><time>2026-04-04T12:00:49Z</time></trkpt><trkpt lat="44.939434984004514" lon="9.497718006639515"><ele>336.0</ele><time>2026-04-04T12:00:51Z</time></trkpt><trkpt lat="44.93948525121364" lon="9.49763612423576"><ele>335.8333333333333</ele><time>2026-04-04T12:00:53Z</time></trkpt><trkpt lat="44.93951555220429" lon="9.49755385106203"><ele>335.6666666666667</ele><time>2026-04-04T12:00:55Z</time></trkpt><trkpt lat="44.939548567266684" lon="9.497464208634714"><ele>335.5</ele><time>2026-04-04T12:00:58Z</time></trkpt><trkpt lat="44.939578506303896" lon="9.497346031632583"><ele>335.33333333333337</ele><time>2026-04-04T12:01:00Z</time></trkpt><trkpt lat="44.93963657213538" lon="9.497253020226438"><ele>335.1666666666667</ele><time>2026-04-04T12:01:01.999Z</time></trkpt><trkpt lat="44.939667877581975" lon="9.497140258287915"><ele>335.0</ele><time>2026-04-04T12:01:03.999Z</time></trkpt><trkpt lat="44.9398046608188" lon="9.497172368781792"><ele>335.0</ele><time>2026-04-04T12:01:04.999Z</time></trkpt><trkpt lat="44.939936919184284" lon="9.497102248657164"><ele>335.0</ele><time>2026-04-04T12:01:06.999Z</time></trkpt><trkpt lat="44.94000159299149" lon="9.497066854841702"><ele>335.0</ele><time>2026-04-04T12:01:07.999Z</time></trkpt><trkpt lat="44.94010592964827" lon="9.496993944829756"><ele>335.0</ele><time>2026-04-04T12:01:09.999Z</time></trkpt><trkpt lat="44.940174064359745" lon="9.496941016435049"><ele>335.0</ele><time>2026-04-04T12:01:10.999Z</time></trkpt><trkpt lat="44.940248763196706" lon="9.496870818619271"><ele>334.6666666666667</ele><time>2026-04-04T12:01:11.999Z</time></trkpt><trkpt lat="44.94032110180654" lon="9.49678696661094"><ele>334.33333333333337</ele><time>2026-04-04T12:01:12.999Z</time></trkpt><trkpt lat="44.940381711744536" lon="9.496707343709296"><ele>334.0</ele><time>2026-04-04T12:01:13.999Z</time></trkpt><trkpt lat="44.94045077890864" lon="9.496646391964642"><ele>333.6666666666667</ele><time>2026-04-04T12:01:14.999Z</time></trkpt><trkpt lat="44.94051507585135" lon="9.49657404811589"><ele>333.3333333333333</ele><time>2026-04-04T12:01:15.999Z</time></trkpt><trkpt lat="44.94058257737202" lon="9.496503180277248"><ele>333.0</ele><time>2026-04-04T12:01:16.999Z</time></trkpt><trkpt lat="44.94065505540295" lon="9.496432249121806"><ele>333.0</ele><time>2026-04-04T12:01:17.999Z</time></trkpt><trkpt lat="44.9407449359637" lon="9.496360477280495"><ele>333.0</ele><time>2026-04-04T12:01:18.999Z</time></trkpt><trkpt lat="44.94083458306291" lon="9.496277183020426"><ele>333.0</ele><time>2026-04-04T12:01:19.999Z</time></trkpt><trkpt lat="44.940926699246454" lon="9.496218878374457"><ele>333.0</ele><time>2026-04-04T12:01:20.999Z</time></trkpt><trkpt lat="44.94100000157284" lon="9.496182347570493"><ele>333.0</ele><time>2026-04-04T12:01:21.999Z</time></trkpt><trkpt lat="44.941083629515596" lon="9.49615124721456"><ele>333.0</ele><time>2026-04-04T12:01:22.999Z</time></trkpt><trkpt lat="44.94117470348602" lon="9.496097873915483"><ele>333.0</ele><time>2026-04-04T12:01:23.999Z</time></trkpt><trkpt lat="44.94127298511238" lon="9.496011968319383"><ele>333.0</ele><time>2026-04-04T12:01:24.999Z</time></trkpt><trkpt lat="44.941377856563044" lon="9.495948458190684"><ele>333.0</ele><time>2026-04-04T12:01:25.999Z</time></trkpt><trkpt lat="44.94147303553702" lon="9.495886951541506"><ele>333.0</ele><time>2026-04-04T12:01:26.999Z</time></trkpt><trkpt lat="44.94158606313346" lon="9.495805705468143"><ele>333.0</ele><time>2026-04-04T12:01:27.999Z</time></trkpt><trkpt lat="44.94169543269743" lon="9.49573136037115"><ele>333.0</ele><time>2026-04-04T12:01:28.999Z</time></trkpt><trkpt lat="44.94176647892246" lon="9.49568389935767"><ele>333.0</ele><time>2026-04-04T12:01:29.999Z</time></trkpt><trkpt lat="44.941822854623936" lon="9.49562850995336"><ele>333.0</ele><time>2026-04-04T12:01:30.999Z</time></trkpt><trkpt lat="44.941891555973065" lon="9.495566085257078"><ele>333.0</ele><time>2026-04-04T12:01:31.999Z</time></trkpt><trkpt lat="44.941975703448556" lon="9.495502214280572"><ele>333.0</ele><time>2026-04-04T12:01:32.999Z</time></trkpt><trkpt lat="44.942039308644475" lon="9.495436447701994"><ele>332.8333333333333</ele><time>2026-04-04T12:01:33.999Z</time></trkpt><trkpt lat="44.942098498559425" lon="9.49538229980491"><ele>332.6666666666667</ele><time>2026-04-04T12:01:34.999Z</time></trkpt><trkpt lat="44.942167947180344" lon="9.495313525798029"><ele>332.5</ele><time>2026-04-04T12:01:35.999Z</time></trkpt><trkpt lat="44.94223618543938" lon="9.495225547353108"><ele>332.33333333333337</ele><time>2026-04-04T12:01:36.999Z</time></trkpt><trkpt lat="44.94228758581774" lon="9.495160151303983"><ele>332.1666666666667</ele><time>2026-04-04T12:01:37.999Z</time></trkpt><trkpt lat="44.94238506910097" lon="9.495050177623115"><ele>332.0</ele><time>2026-04-04T12:01:39.999Z</time></trkpt><trkpt lat="44.94245730248944" lon="9.494991685235984"><ele>332.0</ele><time>2026-04-04T12:01:40.999Z</time></trkpt><trkpt lat="44.9425379901636" lon="9.494917255622608"><ele>332.0</ele><time>2026-04-04T12:01:41.999Z</time></trkpt><trkpt lat="44.94259556407665" lon="9.494854874469539"><ele>332.0</ele><time>2026-04-04T12:01:42.999Z</time></trkpt><trkpt lat="44.94265328631882" lon="9.494796440752957"><ele>332.0</ele><time>2026-04-04T12:01:43.999Z</time></trkpt><trkpt lat="44.94270773375981" lon="9.494740137741498"><ele>332.0</ele><time>2026-04-04T12:01:44.999Z</time></trkpt><trkpt lat="44.94275514580433" lon="9.494676076788915"><ele>332.0</ele><time>2026-04-04T12:01:45.999Z</time></trkpt><trkpt lat="44.94280223755328" lon="9.494611728971524"><ele>332.0</ele><time>2026-04-04T12:01:46.999Z</time></trkpt><trkpt lat="44.9428835388451" lon="9.49449665296926"><ele>330.20000000000005</ele><time>2026-04-04T12:01:48.999Z</time></trkpt><trkpt lat="44.94292654673922" lon="9.494427994852392"><ele>328.4</ele><time>2026-04-04T12:01:49.999Z</time></trkpt><trkpt lat="44.94295781200527" lon="9.494317117377644"><ele>326.6</ele><time>2026-04-04T12:01:50.999Z</time></trkpt><trkpt lat="44.943053042770494" lon="9.494232827917784"><ele>324.79999999999995</ele><time>2026-04-04T12:01:51.999Z</time></trkpt><trkpt lat="44.943128850470565" lon="9.494143221254994"><ele>323.0</ele><time>2026-04-04T12:01:52.999Z</time></trkpt><trkpt lat="44.943196754730614" lon="9.494049861980333"><ele>323.0</ele><time>2026-04-04T12:01:53.999Z</time></trkpt><trkpt lat="44.943268591452345" lon="9.493925218575585"><ele>323.0</ele><time>2026-04-04T12:01:54.999Z</time></trkpt><trkpt lat="44.94334121951721" lon="9.493785675964606"><ele>323.0</ele><time>2026-04-04T12:01:55.999Z</time></trkpt><trkpt lat="44.94338756639892" lon="9.49363129388845"><ele>323.0</ele><time>2026-04-04T12:01:56.999Z</time></trkpt><trkpt lat="44.94343374981426" lon="9.49351501032861"><ele>323.0</ele><time>2026-04-04T12:01:57.999Z</time></trkpt><trkpt lat="44.94347861863175" lon="9.49341089146731"><ele>321.33333333333337</ele><time>2026-04-04T12:01:58.999Z</time></trkpt><trkpt lat="44.94351770570921" lon="9.493306117680405"><ele>319.6666666666667</ele><time>2026-04-04T12:01:59.999Z</time></trkpt><trkpt lat="44.94356352079207" lon="9.493182812422068"><ele>318.0</ele><time>2026-04-04T12:02:00.999Z</time></trkpt><trkpt lat="44.94360610743391" lon="9.49306922199068"><ele>316.3333333333333</ele><time>2026-04-04T12:02:01.999Z</time></trkpt><trkpt lat="44.94363809630744" lon="9.492969286624492"><ele>314.66666666666663</ele><time>2026-04-04T12:02:02.999Z</time></trkpt><trkpt lat="44.94368575756031" lon="9.49290245808058"><ele>313.0</ele><time>2026-04-04T12:02:03.999Z</time></trkpt><trkpt lat="44.943727714412894" lon="9.4928314296915"><ele>313.0</ele><time>2026-04-04T12:02:04.999Z</time></trkpt><trkpt lat="44.94381369977535" lon="9.49272710374447"><ele>313.0</ele><time>2026-04-04T12:02:06.999Z</time></trkpt><trkpt lat="44.943892281932115" lon="9.492691685125292"><ele>313.0</ele><time>2026-04-04T12:02:08.999Z</time></trkpt><trkpt lat="44.94391417763703" lon="9.492846064880954"><ele>313.0</ele><time>2026-04-04T12:02:10.999Z</time></trkpt><trkpt lat="44.94393799907206" lon="9.492957216815"><ele>313.0</ele><time>2026-04-04T12:02:11.999Z</time></trkpt><trkpt lat="44.943966263305164" lon="9.49309448923729"><ele>313.0</ele><time>2026-04-04T12:02:12.998Z</time></trkpt><trkpt lat="44.94400023550543" lon="9.49325948406595"><ele>313.0</ele><time>2026-04-04T12:02:13.998Z</time></trkpt><trkpt lat="44.94404958371694" lon="9.493445958127507"><ele>313.0</ele><time>2026-04-04T12:02:14.998Z</time></trkpt><trkpt lat="44.94410040056" lon="9.493624021062981"><ele>313.0</ele><time>2026-04-04T12:02:15.998Z</time></trkpt><trkpt lat="44.944164809264706" lon="9.493784829068243"><ele>309.5</ele><time>2026-04-04T12:02:16.998Z</time></trkpt><trkpt lat="44.944248495367965" lon="9.493914211050429"><ele>306.0</ele><time>2026-04-04T12:02:17.998Z</time></trkpt><trkpt lat="44.944351314610365" lon="9.494026965526087"><ele>302.5</ele><time>2026-04-04T12:02:18.998Z</time></trkpt><trkpt lat="44.94444618050382" lon="9.494114688942192"><ele>299.0</ele><time>2026-04-04T12:02:19.998Z</time></trkpt><trkpt lat="44.94453362965906" lon="9.494215955934743"><ele>299.0</ele><time>2026-04-04T12:02:21Z</time></trkpt><trkpt lat="44.944631792537436" lon="9.494300581140566"><ele>299.0</ele><time>2026-04-04T12:02:22Z</time></trkpt><trkpt lat="44.94471610620638" lon="9.494393079701851"><ele>299.0</ele><time>2026-04-04T12:02:23Z</time></trkpt><trkpt lat="44.9447987241649" lon="9.494476395137477"><ele>299.0</ele><time>2026-04-04T12:02:24Z</time></trkpt><trkpt lat="44.94488451455839" lon="9.494564945860462"><ele>299.0</ele><time>2026-04-04T12:02:25Z</time></trkpt><trkpt lat="44.94496834612702" lon="9.494698233435333"><ele>300.6666666666667</ele><time>2026-04-04T12:02:26Z</time></trkpt><trkpt lat="44.94500920742063" lon="9.494872098768589"><ele>302.3333333333333</ele><time>2026-04-04T12:02:27Z</time></trkpt><trkpt lat="44.94506242217737" lon="9.495071059325408"><ele>304.0</ele><time>2026-04-04T12:02:28Z</time></trkpt><trkpt lat="44.94512914900263" lon="9.495347614693053"><ele>301.25</ele><time>2026-04-04T12:02:29Z</time></trkpt><trkpt lat="44.94520353121029" lon="9.495529363376718"><ele>298.5</ele><time>2026-04-04T12:02:30Z</time></trkpt><trkpt lat="44.94527381730327" lon="9.495681695470742"><ele>295.75</ele><time>2026-04-04T12:02:31Z</time></trkpt><trkpt lat="44.945387119433995" lon="9.49583666231955"><ele>293.0</ele><time>2026-04-04T12:02:32Z</time></trkpt><trkpt lat="44.9454955428447" lon="9.496015114053185"><ele>293.0</ele><time>2026-04-04T12:02:33Z</time></trkpt><trkpt lat="44.94561946076482" lon="9.496182136039883"><ele>293.0</ele><time>2026-04-04T12:02:34Z</time></trkpt><trkpt lat="44.94573580665068" lon="9.49633753660475"><ele>293.0</ele><time>2026-04-04T12:02:35Z</time></trkpt><trkpt lat="44.94585409128375" lon="9.49646727862211"><ele>291.0</ele><time>2026-04-04T12:02:36Z</time></trkpt><trkpt lat="44.945960436641144" lon="9.496610803222186"><ele>289.0</ele><time>2026-04-04T12:02:37Z</time></trkpt><trkpt lat="44.94605567988524" lon="9.49677068642704"><ele>287.0</ele><time>2026-04-04T12:02:38Z</time></trkpt><trkpt lat="44.946142924050584" lon="9.49690888784585"><ele>285.0</ele><time>2026-04-04T12:02:39Z</time></trkpt><trkpt lat="44.9462139007863" lon="9.497035563473036"><ele>284.4</ele><time>2026-04-04T12:02:40Z</time></trkpt><trkpt lat="44.9462735448825" lon="9.497155995027951"><ele>283.8</ele><time>2026-04-04T12:02:41Z</time></trkpt><trkpt lat="44.946339921817895" lon="9.497298418259442"><ele>283.2</ele><time>2026-04-04T12:02:42Z</time></trkpt><trkpt lat="44.946390974287056" lon="9.49741435803156"><ele>282.6</ele><time>2026-04-04T12:02:43Z</time></trkpt><trkpt lat="44.94643906715537" lon="9.497541459575304"><ele>282.0</ele><time>2026-04-04T12:02:44Z</time></trkpt><trkpt lat="44.94648277438613" lon="9.497680625949068"><ele>282.0</ele><time>2026-04-04T12:02:45Z</time></trkpt><trkpt lat="44.94652733184958" lon="9.49783570211547"><ele>282.0</ele><time>2026-04-04T12:02:46Z</time></trkpt><trkpt lat="44.94656315195145" lon="9.498001966457537"><ele>282.0</ele><time>2026-04-04T12:02:47Z</time></trkpt><trkpt lat="44.94658284069395" lon="9.498170210853093"><ele>282.0</ele><time>2026-04-04T12:02:48Z</time></trkpt><trkpt lat="44.94661766521783" lon="9.498334239527882"><ele>282.0</ele><time>2026-04-04T12:02:49Z</time></trkpt><trkpt lat="44.94664956883818" lon="9.498519239092781"><ele>282.0</ele><time>2026-04-04T12:02:50Z</time></trkpt><trkpt lat="44.94665533221702" lon="9.498690691988028"><ele>282.0</ele><time>2026-04-04T12:02:51Z</time></trkpt><trkpt lat="44.9467054485696" lon="9.498856957647828"><ele>282.0</ele><time>2026-04-04T12:02:52Z</time></trkpt><trkpt lat="44.94673589756276" lon="9.499010176923118"><ele>279.25</ele><time>2026-04-04T12:02:53Z</time></trkpt><trkpt lat="44.94676805706947" lon="9.499171040707077"><ele>276.5</ele><time>2026-04-04T12:02:54Z</time></trkpt><trkpt lat="44.94684258380509" lon="9.499280116562318"><ele>273.75</ele><time>2026-04-04T12:02:55Z</time></trkpt><trkpt lat="44.94693787940395" lon="9.499373087911477"><ele>271.0</ele><time>2026-04-04T12:02:56Z</time></trkpt><trkpt lat="44.94704293856307" lon="9.499459280301126"><ele>271.0</ele><time>2026-04-04T12:02:57Z</time></trkpt><trkpt lat="44.947147369624155" lon="9.499524818820714"><ele>271.0</ele><time>2026-04-04T12:02:58Z</time></trkpt><trkpt lat="44.947232467584655" lon="9.499619303932581"><ele>271.0</ele><time>2026-04-04T12:02:59Z</time></trkpt><trkpt lat="44.94730404147775" lon="9.499712286965243"><ele>271.0</ele><time>2026-04-04T12:03:00Z</time></trkpt><trkpt lat="44.947350116411755" lon="9.499812618009159"><ele>271.0</ele><time>2026-04-04T12:03:01Z</time></trkpt><trkpt lat="44.94738582705285" lon="9.499951350472895"><ele>270.5</ele><time>2026-04-04T12:03:02Z</time></trkpt><trkpt lat="44.94743381701733" lon="9.500129094735938"><ele>270.0</ele><time>2026-04-04T12:03:03Z</time></trkpt><trkpt lat="44.94747907527667" lon="9.500315492535723"><ele>269.5</ele><time>2026-04-04T12:03:04Z</time></trkpt><trkpt lat="44.94752664256699" lon="9.500493428411295"><ele>269.0</ele><time>2026-04-04T12:03:05Z</time></trkpt><trkpt lat="44.94758114541174" lon="9.500671138811873"><ele>265.5</ele><time>2026-04-04T12:03:05.999Z</time></trkpt><trkpt lat="44.9476332804727" lon="9.500824480947022"><ele>262.0</ele><time>2026-04-04T12:03:06.999Z</time></trkpt><trkpt lat="44.94770073656619" lon="9.500985405339122"><ele>258.5</ele><time>2026-04-04T12:03:07.999Z</time></trkpt><trkpt lat="44.94775633095161" lon="9.501135472579163"><ele>255.0</ele><time>2026-04-04T12:03:08.999Z</time></trkpt><trkpt lat="44.94782020140841" lon="9.501271956168837"><ele>254.5</ele><time>2026-04-04T12:03:09.999Z</time></trkpt><trkpt lat="44.947914119869374" lon="9.501400550391583"><ele>254.0</ele><time>2026-04-04T12:03:10.999Z</time></trkpt><trkpt lat="44.94802831439999" lon="9.501517536759412"><ele>253.5</ele><time>2026-04-04T12:03:11.999Z</time></trkpt><trkpt lat="44.94815621592315" lon="9.501623020390145"><ele>253.0</ele><time>2026-04-04T12:03:12.999Z</time></trkpt><trkpt lat="44.94826346669639" lon="9.501722401412017"><ele>250.5</ele><time>2026-04-04T12:03:13.999Z</time></trkpt><trkpt lat="44.94838061009981" lon="9.50183373350784"><ele>248.0</ele><time>2026-04-04T12:03:14.999Z</time></trkpt><trkpt lat="44.94848340389406" lon="9.501923990052077"><ele>245.5</ele><time>2026-04-04T12:03:15.999Z</time></trkpt><trkpt lat="44.94858215111601" lon="9.501996926127307"><ele>243.0</ele><time>2026-04-04T12:03:16.999Z</time></trkpt><trkpt lat="44.94867799925942" lon="9.502050870388691"><ele>242.66666666666666</ele><time>2026-04-04T12:03:17.999Z</time></trkpt><trkpt lat="44.94877027536574" lon="9.50209703185594"><ele>242.33333333333331</ele><time>2026-04-04T12:03:18.999Z</time></trkpt><trkpt lat="44.94885411072361" lon="9.502125370098994"><ele>242.0</ele><time>2026-04-04T12:03:19.999Z</time></trkpt><trkpt lat="44.948935070232686" lon="9.50214927570079"><ele>241.66666666666666</ele><time>2026-04-04T12:03:20.999Z</time></trkpt><trkpt lat="44.94900103997356" lon="9.50217505024762"><ele>241.33333333333331</ele><time>2026-04-04T12:03:21.999Z</time></trkpt><trkpt lat="44.94909372577904" lon="9.50220590764424"><ele>241.0</ele><time>2026-04-04T12:03:23.999Z</time></trkpt><trkpt lat="44.949162266338064" lon="9.50225958947972"><ele>241.0</ele><time>2026-04-04T12:03:25.999Z</time></trkpt><trkpt lat="44.94910906572442" lon="9.502483492237825"><ele>241.0</ele><time>2026-04-04T12:03:26.999Z</time></trkpt><trkpt lat="44.94908347506178" lon="9.502639077057163"><ele>241.0</ele><time>2026-04-04T12:03:27.999Z</time></trkpt><trkpt lat="44.949048894105836" lon="9.502843919829774"><ele>241.0</ele><time>2026-04-04T12:03:28.999Z</time></trkpt><trkpt lat="44.94898676153695" lon="9.503018771258839"><ele>240.0</ele><time>2026-04-04T12:03:29.999Z</time></trkpt><trkpt lat="44.94890222296602" lon="9.503195463923895"><ele>239.0</ele><time>2026-04-04T12:03:30.999Z</time></trkpt><trkpt lat="44.94880448026638" lon="9.503341573973312"><ele>238.0</ele><time>2026-04-04T12:03:31.999Z</time></trkpt><trkpt lat="44.948717156310614" lon="9.503457376417689"><ele>237.0</ele><time>2026-04-04T12:03:32.999Z</time></trkpt><trkpt lat="44.9486311903397" lon="9.503554758800489"><ele>237.0</ele><time>2026-04-04T12:03:33.999Z</time></trkpt><trkpt lat="44.948539650945996" lon="9.503635137381407"><ele>237.0</ele><time>2026-04-04T12:03:34.999Z</time></trkpt><trkpt lat="44.94845676306007" lon="9.503703920485407"><ele>237.0</ele><time>2026-04-04T12:03:35.999Z</time></trkpt><trkpt lat="44.94838060346475" lon="9.50377402600515"><ele>237.0</ele><time>2026-04-04T12:03:36.999Z</time></trkpt><trkpt lat="44.948313015043794" lon="9.503832267260057"><ele>237.0</ele><time>2026-04-04T12:03:37.999Z</time></trkpt><trkpt lat="44.94822619828406" lon="9.503922481954001"><ele>237.0</ele><time>2026-04-04T12:03:39.999Z</time></trkpt><trkpt lat="44.948263445644905" lon="9.504077342657224"><ele>237.0</ele><time>2026-04-04T12:03:42.999Z</time></trkpt><trkpt lat="44.94838464654495" lon="9.504139811094054"><ele>237.0</ele><time>2026-04-04T12:03:44.999Z</time></trkpt><trkpt lat="44.94846892807601" lon="9.50418814725301"><ele>237.0</ele><time>2026-04-04T12:03:45.999Z</time></trkpt><trkpt lat="44.94855276687153" lon="9.504257778334642"><ele>237.0</ele><time>2026-04-04T12:03:46.999Z</time></trkpt><trkpt lat="44.94863959328679" lon="9.504301506104667"><ele>235.5</ele><time>2026-04-04T12:03:47.999Z</time></trkpt><trkpt lat="44.948745553560464" lon="9.504317911569833"><ele>234.0</ele><time>2026-04-04T12:03:48.999Z</time></trkpt><trkpt lat="44.94886007153394" lon="9.504351729884611"><ele>232.5</ele><time>2026-04-04T12:03:49.999Z</time></trkpt><trkpt lat="44.948972140925434" lon="9.50435846235322"><ele>231.0</ele><time>2026-04-04T12:03:50.999Z</time></trkpt><trkpt lat="44.949092279584164" lon="9.50437009383315"><ele>229.25</ele><time>2026-04-04T12:03:51.999Z</time></trkpt><trkpt lat="44.949226124736825" lon="9.50437228381434"><ele>227.5</ele><time>2026-04-04T12:03:52.999Z</time></trkpt><trkpt lat="44.949352988913446" lon="9.504352775923408"><ele>225.75</ele><time>2026-04-04T12:03:53.999Z</time></trkpt><trkpt lat="44.94946186002142" lon="9.504316819414681"><ele>224.0</ele><time>2026-04-04T12:03:54.999Z</time></trkpt><trkpt lat="44.94956004385734" lon="9.504290976429616"><ele>224.0</ele><time>2026-04-04T12:03:55.999Z</time></trkpt><trkpt lat="44.94965405466838" lon="9.504300509560677"><ele>223.99999999999997</ele><time>2026-04-04T12:03:56.999Z</time></trkpt><trkpt lat="44.94974682634837" lon="9.504302418958018"><ele>223.99999999999997</ele><time>2026-04-04T12:03:57.999Z</time></trkpt><trkpt lat="44.94983958230727" lon="9.504313514102037"><ele>224.0</ele><time>2026-04-04T12:03:58.999Z</time></trkpt><trkpt lat="44.94992715477464" lon="9.504349830549918"><ele>224.0</ele><time>2026-04-04T12:03:59.999Z</time></trkpt><trkpt lat="44.95001361751092" lon="9.504391997693201"><ele>222.0</ele><time>2026-04-04T12:04:00.999Z</time></trkpt><trkpt lat="44.95010283213918" lon="9.504427000247745"><ele>219.99999999999997</ele><time>2026-04-04T12:04:01.999Z</time></trkpt><trkpt lat="44.950189367028436" lon="9.50448292197893"><ele>217.99999999999997</ele><time>2026-04-04T12:04:02.999Z</time></trkpt><trkpt lat="44.95027521729687" lon="9.504533755227277"><ele>216.0</ele><time>2026-04-04T12:04:03.999Z</time></trkpt><trkpt lat="44.95036081265024" lon="9.504581210210599"><ele>214.0</ele><time>2026-04-04T12:04:04.999Z</time></trkpt><trkpt lat="44.950442867437836" lon="9.504652639583044"><ele>213.79999999999998</ele><time>2026-04-04T12:04:05.999Z</time></trkpt><trkpt lat="44.95052674381606" lon="9.504708618067456"><ele>213.59999999999997</ele><time>2026-04-04T12:04:06.999Z</time></trkpt><trkpt lat="44.950609689991026" lon="9.504765574014812"><ele>213.4</ele><time>2026-04-04T12:04:07.999Z</time></trkpt><trkpt lat="44.95069342590508" lon="9.50481677416323"><ele>213.2</ele><time>2026-04-04T12:04:08.999Z</time></trkpt><trkpt lat="44.95079377463916" lon="9.504870008202175"><ele>213.0</ele><time>2026-04-04T12:04:09.999Z</time></trkpt><trkpt lat="44.95089633900193" lon="9.504933317996542"><ele>211.5</ele><time>2026-04-04T12:04:10.999Z</time></trkpt><trkpt lat="44.95099567598539" lon="9.504983771526604"><ele>210.0</ele><time>2026-04-04T12:04:11.999Z</time></trkpt><trkpt lat="44.95110171252542" lon="9.50503122459446"><ele>208.5</ele><time>2026-04-04T12:04:12.999Z</time></trkpt><trkpt lat="44.951219372554206" lon="9.505082962651885"><ele>207.0</ele><time>2026-04-04T12:04:13.999Z</time></trkpt><trkpt lat="44.951340665857764" lon="9.5051229603304"><ele>207.0</ele><time>2026-04-04T12:04:14.999Z</time></trkpt><trkpt lat="44.95146055800902" lon="9.505153663821202"><ele>207.0</ele><time>2026-04-04T12:04:15.999Z</time></trkpt><trkpt lat="44.951579881683436" lon="9.505176345348195"><ele>207.0</ele><time>2026-04-04T12:04:16.999Z</time></trkpt><trkpt lat="44.95169620230171" lon="9.505190596545928"><ele>207.0</ele><time>2026-04-04T12:04:17.999Z</time></trkpt><trkpt lat="44.951813785628616" lon="9.505196412771129"><ele>206.33333333333334</ele><time>2026-04-04T12:04:18.998Z</time></trkpt><trkpt lat="44.95192254538971" lon="9.505202857181034"><ele>205.66666666666669</ele><time>2026-04-04T12:04:19.998Z</time></trkpt><trkpt lat="44.95201955799073" lon="9.505205728589019"><ele>205.0</ele><time>2026-04-04T12:04:20.998Z</time></trkpt><trkpt lat="44.95210552672417" lon="9.50521408066669"><ele>204.33333333333334</ele><time>2026-04-04T12:04:21.998Z</time></trkpt><trkpt lat="44.952185134582045" lon="9.505218852535119"><ele>203.66666666666669</ele><time>2026-04-04T12:04:22.998Z</time></trkpt><trkpt lat="44.95225616874195" lon="9.505223732311345"><ele>203.0</ele><time>2026-04-04T12:04:23.998Z</time></trkpt><trkpt lat="44.95232093927869" lon="9.505223251923827"><ele>203.0</ele><time>2026-04-04T12:04:24.998Z</time></trkpt><trkpt lat="44.952424456619845" lon="9.505216772512755"><ele>203.0</ele><time>2026-04-04T12:04:27Z</time></trkpt><trkpt lat="44.95251757028712" lon="9.505219371397102"><ele>203.0</ele><time>2026-04-04T12:04:29Z</time></trkpt><trkpt lat="44.95258827624141" lon="9.505216772809339"><ele>203.0</ele><time>2026-04-04T12:04:31Z</time></trkpt><trkpt lat="44.952809185392006" lon="9.50516209165519"><ele>202.2</ele><time>2026-04-04T12:05:45.999Z</time></trkpt><trkpt lat="44.95290366272653" lon="9.505143350890558"><ele>201.4</ele><time>2026-04-04T12:05:46.999Z</time></trkpt><trkpt lat="44.95300464570085" lon="9.505122910457914"><ele>200.6</ele><time>2026-04-04T12:05:47.999Z</time></trkpt><trkpt lat="44.95311629986" lon="9.50510735196481"><ele>199.79999999999998</ele><time>2026-04-04T12:05:48.999Z</time></trkpt><trkpt lat="44.95321196910655" lon="9.505088356886993"><ele>199.0</ele><time>2026-04-04T12:05:49.999Z</time></trkpt><trkpt lat="44.95329810167671" lon="9.50506416490352"><ele>198.79999999999998</ele><time>2026-04-04T12:05:50.999Z</time></trkpt><trkpt lat="44.95339171566063" lon="9.505040820362844"><ele>198.6</ele><time>2026-04-04T12:05:51.999Z</time></trkpt><trkpt lat="44.95349227914482" lon="9.505019358568703"><ele>198.4</ele><time>2026-04-04T12:05:52.999Z</time></trkpt><trkpt lat="44.9536009388452" lon="9.504997614275863"><ele>198.2</ele><time>2026-04-04T12:05:53.999Z</time></trkpt><trkpt lat="44.95373384629736" lon="9.504975919301534"><ele>198.0</ele><time>2026-04-04T12:05:54.999Z</time></trkpt><trkpt lat="44.95389924712266" lon="9.504947232633175"><ele>198.0</ele><time>2026-04-04T12:05:55.999Z</time></trkpt><trkpt lat="44.95405543509463" lon="9.504931429220418"><ele>198.0</ele><time>2026-04-04T12:05:56.999Z</time></trkpt><trkpt lat="44.95419696083914" lon="9.504919988441879"><ele>198.0</ele><time>2026-04-04T12:05:57.999Z</time></trkpt><trkpt lat="44.95435872581669" lon="9.504933081117201"><ele>197.0</ele><time>2026-04-04T12:05:58.999Z</time></trkpt><trkpt lat="44.95453684262519" lon="9.504940871686468"><ele>196.0</ele><time>2026-04-04T12:05:59.999Z</time></trkpt><trkpt lat="44.95470283563297" lon="9.504950871403175"><ele>195.0</ele><time>2026-04-04T12:06:00.999Z</time></trkpt><trkpt lat="44.954849226310465" lon="9.504961297865327"><ele>195.0</ele><time>2026-04-04T12:06:01.999Z</time></trkpt><trkpt lat="44.95499004892897" lon="9.504985325354765"><ele>195.0</ele><time>2026-04-04T12:06:02.999Z</time></trkpt><trkpt lat="44.95513161699301" lon="9.505032941677372"><ele>195.0</ele><time>2026-04-04T12:06:03.999Z</time></trkpt><trkpt lat="44.95527187136214" lon="9.505071821761145"><ele>195.0</ele><time>2026-04-04T12:06:04.999Z</time></trkpt><trkpt lat="44.95541207920894" lon="9.505111328518733"><ele>193.66666666666666</ele><time>2026-04-04T12:06:05.999Z</time></trkpt><trkpt lat="44.95555287115122" lon="9.505129074684868"><ele>192.33333333333331</ele><time>2026-04-04T12:06:06.999Z</time></trkpt><trkpt lat="44.95571404226864" lon="9.505178677054904"><ele>191.0</ele><time>2026-04-04T12:06:07.999Z</time></trkpt><trkpt lat="44.95587622534964" lon="9.505210631511687"><ele>190.25</ele><time>2026-04-04T12:06:08.999Z</time></trkpt><trkpt lat="44.95602109850674" lon="9.505270081499802"><ele>189.5</ele><time>2026-04-04T12:06:09.999Z</time></trkpt><trkpt lat="44.95616162504146" lon="9.505305707609901"><ele>188.75</ele><time>2026-04-04T12:06:10.999Z</time></trkpt><trkpt lat="44.956297531988135" lon="9.505340162523527"><ele>188.0</ele><time>2026-04-04T12:06:11.999Z</time></trkpt><trkpt lat="44.95643017752986" lon="9.505353552384454"><ele>188.0</ele><time>2026-04-04T12:06:12.999Z</time></trkpt><trkpt lat="44.956557704018884" lon="9.505382193181704"><ele>188.0</ele><time>2026-04-04T12:06:13.999Z</time></trkpt><trkpt lat="44.95667707224089" lon="9.505406363195574"><ele>188.0</ele><time>2026-04-04T12:06:14.999Z</time></trkpt><trkpt lat="44.956786989690116" lon="9.50541068435341"><ele>188.0</ele><time>2026-04-04T12:06:15.999Z</time></trkpt><trkpt lat="44.95689621329398" lon="9.505396709432725"><ele>187.60000000000002</ele><time>2026-04-04T12:06:16.999Z</time></trkpt><trkpt lat="44.95699939433479" lon="9.505380547581435"><ele>187.20000000000002</ele><time>2026-04-04T12:06:17.999Z</time></trkpt><trkpt lat="44.9570942825192" lon="9.505338672304362"><ele>186.8</ele><time>2026-04-04T12:06:18.999Z</time></trkpt><trkpt lat="44.95719768529482" lon="9.505280417822679"><ele>186.4</ele><time>2026-04-04T12:06:19.999Z</time></trkpt><trkpt lat="44.95730526394295" lon="9.50522260214652"><ele>186.0</ele><time>2026-04-04T12:06:20.999Z</time></trkpt><trkpt lat="44.95740585674924" lon="9.505147652237463"><ele>186.0</ele><time>2026-04-04T12:06:21.999Z</time></trkpt><trkpt lat="44.957492576413756" lon="9.505080156426859"><ele>186.0</ele><time>2026-04-04T12:06:22.998Z</time></trkpt><trkpt lat="44.95757787295003" lon="9.505013844180374"><ele>186.0</ele><time>2026-04-04T12:06:23.998Z</time></trkpt><trkpt lat="44.95765574343836" lon="9.504945181044091"><ele>186.0</ele><time>2026-04-04T12:06:24.998Z</time></trkpt><trkpt lat="44.95774221131532" lon="9.504876112179945"><ele>186.0</ele><time>2026-04-04T12:06:25.998Z</time></trkpt><trkpt lat="44.95783702046325" lon="9.504811461178193"><ele>184.60000000000002</ele><time>2026-04-04T12:06:26.998Z</time></trkpt><trkpt lat="44.95793311030454" lon="9.504749682369612"><ele>183.2</ele><time>2026-04-04T12:06:27.998Z</time></trkpt><trkpt lat="44.9580311952388" lon="9.504674351452332"><ele>181.8</ele><time>2026-04-04T12:06:28.998Z</time></trkpt><trkpt lat="44.95813169514151" lon="9.504597795466035"><ele>180.39999999999998</ele><time>2026-04-04T12:06:29.998Z</time></trkpt><trkpt lat="44.95822969916678" lon="9.504522722210341"><ele>179.0</ele><time>2026-04-04T12:06:30.998Z</time></trkpt><trkpt lat="44.95833904674745" lon="9.504435820565416"><ele>178.79999999999998</ele><time>2026-04-04T12:06:31.998Z</time></trkpt><trkpt lat="44.95845109715489" lon="9.504344469838331"><ele>178.6</ele><time>2026-04-04T12:06:33Z</time></trkpt><trkpt lat="44.958551807690874" lon="9.504269150641766"><ele>178.4</ele><time>2026-04-04T12:06:34Z</time></trkpt><trkpt lat="44.958636555507574" lon="9.504197470065447"><ele>178.2</ele><time>2026-04-04T12:06:35Z</time></trkpt><trkpt lat="44.95873268847727" lon="9.50413299051649"><ele>178.0</ele><time>2026-04-04T12:06:36Z</time></trkpt><trkpt lat="44.95882669589151" lon="9.504055842304112"><ele>178.0</ele><time>2026-04-04T12:06:37Z</time></trkpt><trkpt lat="44.95890436092015" lon="9.503992929888675"><ele>178.0</ele><time>2026-04-04T12:06:38Z</time></trkpt><trkpt lat="44.95898738906724" lon="9.503924945040973"><ele>178.0</ele><time>2026-04-04T12:06:39Z</time></trkpt><trkpt lat="44.95909200616197" lon="9.503838623843986"><ele>178.0</ele><time>2026-04-04T12:06:40Z</time></trkpt><trkpt lat="44.959205139848585" lon="9.50375163635061"><ele>178.0</ele><time>2026-04-04T12:06:41Z</time></trkpt><trkpt lat="44.95930639043686" lon="9.50368259894333"><ele>177.5</ele><time>2026-04-04T12:06:42Z</time></trkpt><trkpt lat="44.959394992728114" lon="9.503624994511197"><ele>177.0</ele><time>2026-04-04T12:06:43Z</time></trkpt><trkpt lat="44.959493649695936" lon="9.503560633019756"><ele>176.5</ele><time>2026-04-04T12:06:44Z</time></trkpt><trkpt lat="44.95960871365338" lon="9.503489221125752"><ele>176.0</ele><time>2026-04-04T12:06:45Z</time></trkpt><trkpt lat="44.95972642085662" lon="9.503429598671511"><ele>176.0</ele><time>2026-04-04T12:06:46Z</time></trkpt><trkpt lat="44.95983154586051" lon="9.503385264142809"><ele>176.0</ele><time>2026-04-04T12:06:47Z</time></trkpt><trkpt lat="44.95993523346806" lon="9.503343656700599"><ele>176.0</ele><time>2026-04-04T12:06:48Z</time></trkpt><trkpt lat="44.960044538009754" lon="9.503292749808711"><ele>176.0</ele><time>2026-04-04T12:06:49Z</time></trkpt><trkpt lat="44.96015401358851" lon="9.503249676173036"><ele>176.0</ele><time>2026-04-04T12:06:50Z</time></trkpt><trkpt lat="44.96024708362304" lon="9.503204909046504"><ele>174.8</ele><time>2026-04-04T12:06:51Z</time></trkpt><trkpt lat="44.96033483965866" lon="9.5031626848073"><ele>173.60000000000002</ele><time>2026-04-04T12:06:52Z</time></trkpt><trkpt lat="44.960422790938445" lon="9.503122482506742"><ele>172.4</ele><time>2026-04-04T12:06:53Z</time></trkpt><trkpt lat="44.96051613371429" lon="9.503085679571564"><ele>171.2</ele><time>2026-04-04T12:06:54Z</time></trkpt><trkpt lat="44.96060226700578" lon="9.503051736612676"><ele>170.0</ele><time>2026-04-04T12:06:55Z</time></trkpt><trkpt lat="44.96067990681851" lon="9.503016233642573"><ele>170.0</ele><time>2026-04-04T12:06:56Z</time></trkpt><trkpt lat="44.96074983625452" lon="9.502984279105116"><ele>170.0</ele><time>2026-04-04T12:06:57Z</time></trkpt><trkpt lat="44.96081590933991" lon="9.502953586381334"><ele>170.0</ele><time>2026-04-04T12:06:58Z</time></trkpt><trkpt lat="44.96088500398693" lon="9.502920012506989"><ele>170.0</ele><time>2026-04-04T12:06:59Z</time></trkpt><trkpt lat="44.96095224608802" lon="9.502880173838983"><ele>170.0</ele><time>2026-04-04T12:07:00Z</time></trkpt><trkpt lat="44.96101194794797" lon="9.502823184019462"><ele>170.0</ele><time>2026-04-04T12:07:01Z</time></trkpt><trkpt lat="44.96108335628324" lon="9.502756201373495"><ele>170.0</ele><time>2026-04-04T12:07:02Z</time></trkpt><trkpt lat="44.96117407411938" lon="9.502688318784598"><ele>170.0</ele><time>2026-04-04T12:07:03Z</time></trkpt><trkpt lat="44.96126064698917" lon="9.502617955887617"><ele>170.0</ele><time>2026-04-04T12:07:04Z</time></trkpt><trkpt lat="44.961334785384736" lon="9.502539016684844"><ele>170.0</ele><time>2026-04-04T12:07:05Z</time></trkpt><trkpt lat="44.961422587517106" lon="9.502456428164503"><ele>170.0</ele><time>2026-04-04T12:07:06Z</time></trkpt><trkpt lat="44.961506598089855" lon="9.502384755239362"><ele>170.0</ele><time>2026-04-04T12:07:07Z</time></trkpt><trkpt lat="44.96159461987885" lon="9.502305592927769"><ele>170.0</ele><time>2026-04-04T12:07:08Z</time></trkpt><trkpt lat="44.96168146011566" lon="9.502219677681309"><ele>170.0</ele><time>2026-04-04T12:07:09Z</time></trkpt><trkpt lat="44.96175766785498" lon="9.502156620002767"><ele>170.0</ele><time>2026-04-04T12:07:10Z</time></trkpt><trkpt lat="44.961817835985116" lon="9.502098906958407"><ele>170.0</ele><time>2026-04-04T12:07:11Z</time></trkpt><trkpt lat="44.96188240831115" lon="9.502038156293661"><ele>170.0</ele><time>2026-04-04T12:07:12Z</time></trkpt><trkpt lat="44.96195382814" lon="9.50198561514518"><ele>170.0</ele><time>2026-04-04T12:07:13Z</time></trkpt><trkpt lat="44.96200499879454" lon="9.501927815953849"><ele>167.8</ele><time>2026-04-04T12:07:14Z</time></trkpt><trkpt lat="44.96207375072685" lon="9.501767925218518"><ele>165.6</ele><time>2026-04-04T12:07:16Z</time></trkpt><trkpt lat="44.9620305506798" lon="9.501610921572786"><ele>163.4</ele><time>2026-04-04T12:07:18Z</time></trkpt><trkpt lat="44.96194704015728" lon="9.501523896526967"><ele>161.2</ele><time>2026-04-04T12:07:19.999Z</time></trkpt><trkpt lat="44.961875809226804" lon="9.50146767072101"><ele>159.0</ele><time>2026-04-04T12:07:20.999Z</time></trkpt><trkpt lat="44.961793578283434" lon="9.50139214364548"><ele>159.0</ele><time>2026-04-04T12:07:21.999Z</time></trkpt><trkpt lat="44.96170139721366" lon="9.501332274424353"><ele>159.0</ele><time>2026-04-04T12:07:22.999Z</time></trkpt><trkpt lat="44.961609759501385" lon="9.501266457356756"><ele>159.0</ele><time>2026-04-04T12:07:23.999Z</time></trkpt><trkpt lat="44.9615104043299" lon="9.501194056242493"><ele>159.0</ele><time>2026-04-04T12:07:24.999Z</time></trkpt><trkpt lat="44.96143763761374" lon="9.501137131882926"><ele>159.0</ele><time>2026-04-04T12:07:25.999Z</time></trkpt><trkpt lat="44.96137350623583" lon="9.5010727210192"><ele>158.4</ele><time>2026-04-04T12:07:26.999Z</time></trkpt><trkpt lat="44.96130849476114" lon="9.501021011896517"><ele>157.8</ele><time>2026-04-04T12:07:27.999Z</time></trkpt><trkpt lat="44.96123119674169" lon="9.500953499434884"><ele>157.2</ele><time>2026-04-04T12:07:28.999Z</time></trkpt><trkpt lat="44.96114965387645" lon="9.500930946533504"><ele>156.6</ele><time>2026-04-04T12:07:29.999Z</time></trkpt><trkpt lat="44.96105618925253" lon="9.50085101180231"><ele>156.0</ele><time>2026-04-04T12:07:30.999Z</time></trkpt><trkpt lat="44.96097061263013" lon="9.500782129562204"><ele>156.0</ele><time>2026-04-04T12:07:31.999Z</time></trkpt><trkpt lat="44.96089864432575" lon="9.500731180433323"><ele>156.0</ele><time>2026-04-04T12:07:32.999Z</time></trkpt><trkpt lat="44.96083718404181" lon="9.500690848821487"><ele>156.0</ele><time>2026-04-04T12:07:33.999Z</time></trkpt><trkpt lat="44.96075857356516" lon="9.500614527645114"><ele>156.0</ele><time>2026-04-04T12:07:35.999Z</time></trkpt><trkpt lat="44.960696464150196" lon="9.500530436687459"><ele>156.0</ele><time>2026-04-04T12:07:37.999Z</time></trkpt><trkpt lat="44.96071350926055" lon="9.500403799657388"><ele>156.0</ele><time>2026-04-04T12:07:39.999Z</time></trkpt><trkpt lat="44.96080767557072" lon="9.50031981577918"><ele>156.0</ele><time>2026-04-04T12:07:41.999Z</time></trkpt><trkpt lat="44.96087424492852" lon="9.500360438483197"><ele>156.0</ele><time>2026-04-04T12:07:42.999Z</time></trkpt><trkpt lat="44.96096869782195" lon="9.50038740993456"><ele>156.0</ele><time>2026-04-04T12:07:43.999Z</time></trkpt><trkpt lat="44.96105442588545" lon="9.500411053899544"><ele>156.0</ele><time>2026-04-04T12:07:44.999Z</time></trkpt><trkpt lat="44.96114059421662" lon="9.500434819416213"><ele>156.0</ele><time>2026-04-04T12:07:45.999Z</time></trkpt><trkpt lat="44.96125251662118" lon="9.500466743771081"><ele>156.0</ele><time>2026-04-04T12:07:46.999Z</time></trkpt><trkpt lat="44.96140423590095" lon="9.500510819563031"><ele>156.0</ele><time>2026-04-04T12:07:47.999Z</time></trkpt><trkpt lat="44.96154684003837" lon="9.500550334125162"><ele>156.0</ele><time>2026-04-04T12:07:48.999Z</time></trkpt><trkpt lat="44.96168611155939" lon="9.500587799353655"><ele>156.0</ele><time>2026-04-04T12:07:49.999Z</time></trkpt><trkpt lat="44.96183734599254" lon="9.500632196842156"><ele>154.0</ele><time>2026-04-04T12:07:50.999Z</time></trkpt><trkpt lat="44.96199193993274" lon="9.500678551379941"><ele>152.0</ele><time>2026-04-04T12:07:51.999Z</time></trkpt><trkpt lat="44.962122031198476" lon="9.500716306426268"><ele>150.0</ele><time>2026-04-04T12:07:52.999Z</time></trkpt><trkpt lat="44.96223933345185" lon="9.500732015283495"><ele>148.0</ele><time>2026-04-04T12:07:53.999Z</time></trkpt><trkpt lat="44.96235929355404" lon="9.500765382334182"><ele>148.0</ele><time>2026-04-04T12:07:54.999Z</time></trkpt><trkpt lat="44.96248795653625" lon="9.500820649912546"><ele>148.0</ele><time>2026-04-04T12:07:55.999Z</time></trkpt><trkpt lat="44.962593114411774" lon="9.500851593945132"><ele>148.0</ele><time>2026-04-04T12:07:56.999Z</time></trkpt><trkpt lat="44.96269865293881" lon="9.500882648115272"><ele>148.0</ele><time>2026-04-04T12:07:57.999Z</time></trkpt><trkpt lat="44.96281361164193" lon="9.50090083394673"><ele>145.6</ele><time>2026-04-04T12:07:58.999Z</time></trkpt><trkpt lat="44.96290861537775" lon="9.500924426424529"><ele>143.20000000000002</ele><time>2026-04-04T12:07:59.999Z</time></trkpt><trkpt lat="44.96300408624695" lon="9.500933669769674"><ele>140.8</ele><time>2026-04-04T12:08:00.999Z</time></trkpt><trkpt lat="44.9631043283235" lon="9.500936806519924"><ele>138.4</ele><time>2026-04-04T12:08:01.999Z</time></trkpt><trkpt lat="44.963199663682474" lon="9.500933427114644"><ele>136.0</ele><time>2026-04-04T12:08:02.999Z</time></trkpt><trkpt lat="44.9632728430646" lon="9.500983067578463"><ele>136.0</ele><time>2026-04-04T12:08:03.999Z</time></trkpt><trkpt lat="44.963359193468364" lon="9.501032931303348"><ele>136.0</ele><time>2026-04-04T12:08:04.999Z</time></trkpt><trkpt lat="44.96346490109148" lon="9.501059251328176"><ele>136.0</ele><time>2026-04-04T12:08:05.999Z</time></trkpt><trkpt lat="44.96359342691666" lon="9.501100476533184"><ele>136.0</ele><time>2026-04-04T12:08:06.999Z</time></trkpt><trkpt lat="44.96374691312273" lon="9.50114018169181"><ele>136.5</ele><time>2026-04-04T12:08:07.999Z</time></trkpt><trkpt lat="44.9638861006865" lon="9.50117615243504"><ele>137.0</ele><time>2026-04-04T12:08:08.999Z</time></trkpt><trkpt lat="44.96399596226713" lon="9.501231171517949"><ele>137.5</ele><time>2026-04-04T12:08:09.999Z</time></trkpt><trkpt lat="44.964094754654084" lon="9.501266928095868"><ele>138.0</ele><time>2026-04-04T12:08:10.999Z</time></trkpt><trkpt lat="44.96418951318468" lon="9.50129372999397"><ele>137.0</ele><time>2026-04-04T12:08:11.999Z</time></trkpt><trkpt lat="44.96427895022735" lon="9.501324926330577"><ele>136.0</ele><time>2026-04-04T12:08:12.999Z</time></trkpt><trkpt lat="44.96435887777041" lon="9.501346174446786"><ele>135.0</ele><time>2026-04-04T12:08:13.999Z</time></trkpt><trkpt lat="44.964425937878715" lon="9.501386085053882"><ele>134.0</ele><time>2026-04-04T12:08:14.999Z</time></trkpt><trkpt lat="44.96452072688723" lon="9.501417173180007"><ele>133.0</ele><time>2026-04-04T12:08:15.999Z</time></trkpt><trkpt lat="44.96462629618723" lon="9.501442763918371"><ele>133.0</ele><time>2026-04-04T12:08:16.999Z</time></trkpt><trkpt lat="44.96474986400333" lon="9.501446065842222"><ele>133.0</ele><time>2026-04-04T12:08:17.999Z</time></trkpt><trkpt lat="44.96489652359144" lon="9.50150644629536"><ele>133.0</ele><time>2026-04-04T12:08:18.999Z</time></trkpt><trkpt lat="44.965020688994244" lon="9.501542270934822"><ele>133.0</ele><time>2026-04-04T12:08:19.999Z</time></trkpt><trkpt lat="44.96514466026369" lon="9.501563922583758"><ele>132.0</ele><time>2026-04-04T12:08:20.999Z</time></trkpt><trkpt lat="44.96528251106973" lon="9.501596434320088"><ele>131.0</ele><time>2026-04-04T12:08:21.999Z</time></trkpt><trkpt lat="44.96542480187117" lon="9.501635237879109"><ele>130.0</ele><time>2026-04-04T12:08:22.999Z</time></trkpt><trkpt lat="44.96556181011517" lon="9.501670181642616"><ele>129.0</ele><time>2026-04-04T12:08:23.999Z</time></trkpt><trkpt lat="44.96566328290428" lon="9.50171288923136"><ele>129.0</ele><time>2026-04-04T12:08:24.999Z</time></trkpt><trkpt lat="44.96578203720297" lon="9.501745758462008"><ele>129.0</ele><time>2026-04-04T12:08:25.999Z</time></trkpt><trkpt lat="44.96590480369575" lon="9.501781357226907"><ele>129.0</ele><time>2026-04-04T12:08:26.999Z</time></trkpt><trkpt lat="44.96602839216322" lon="9.501815405261748"><ele>129.0</ele><time>2026-04-04T12:08:27.999Z</time></trkpt><trkpt lat="44.9661493295841" lon="9.501849042180627"><ele>129.2</ele><time>2026-04-04T12:08:28.999Z</time></trkpt><trkpt lat="44.96624644986716" lon="9.501880185680116"><ele>129.4</ele><time>2026-04-04T12:08:29.999Z</time></trkpt><trkpt lat="44.96632503207557" lon="9.501898244944021"><ele>129.6</ele><time>2026-04-04T12:08:30.999Z</time></trkpt><trkpt lat="44.96639202618303" lon="9.501913454267774"><ele>129.8</ele><time>2026-04-04T12:08:31.999Z</time></trkpt><trkpt lat="44.96653357431908" lon="9.501955002170249"><ele>130.0</ele><time>2026-04-04T12:08:33.998Z</time></trkpt><trkpt lat="44.96662507117876" lon="9.501972609365268"><ele>129.6</ele><time>2026-04-04T12:08:34.998Z</time></trkpt><trkpt lat="44.96672121617923" lon="9.501974714743307"><ele>129.2</ele><time>2026-04-04T12:08:36.998Z</time></trkpt><trkpt lat="44.966820657471054" lon="9.502035729783449"><ele>128.8</ele><time>2026-04-04T12:08:39Z</time></trkpt><trkpt lat="44.96682964062685" lon="9.502160363816722"><ele>128.4</ele><time>2026-04-04T12:08:40Z</time></trkpt><trkpt lat="44.96689628690549" lon="9.502252238552071"><ele>128.0</ele><time>2026-04-04T12:08:41Z</time></trkpt><trkpt lat="44.96693742271149" lon="9.502376721721983"><ele>127.60000000000001</ele><time>2026-04-04T12:08:42Z</time></trkpt><trkpt lat="44.967005480402904" lon="9.502511778430618"><ele>127.20000000000002</ele><time>2026-04-04T12:08:43Z</time></trkpt><trkpt lat="44.96708019041421" lon="9.502636287015154"><ele>126.8</ele><time>2026-04-04T12:08:44Z</time></trkpt><trkpt lat="44.967157246989906" lon="9.502719186947228"><ele>126.4</ele><time>2026-04-04T12:08:45Z</time></trkpt><trkpt lat="44.9672281453297" lon="9.502819084549033"><ele>126.0</ele><time>2026-04-04T12:08:46Z</time></trkpt><trkpt lat="44.96733648585501" lon="9.502879364288875"><ele>125.8</ele><time>2026-04-04T12:08:47Z</time></trkpt><trkpt lat="44.96745263665206" lon="9.50293944227754"><ele>125.6</ele><time>2026-04-04T12:08:48Z</time></trkpt><trkpt lat="44.967555707415215" lon="9.502982005980025"><ele>125.4</ele><time>2026-04-04T12:08:49Z</time></trkpt><trkpt lat="44.9676395439873" lon="9.503031128550447"><ele>125.2</ele><time>2026-04-04T12:08:50Z</time></trkpt><trkpt lat="44.96770353881676" lon="9.503059795769303"><ele>125.0</ele><time>2026-04-04T12:08:51Z</time></trkpt><trkpt lat="44.96779949162089" lon="9.503096819294038"><ele>125.83333333333333</ele><time>2026-04-04T12:08:53Z</time></trkpt><trkpt lat="44.96787158976094" lon="9.50312214675706"><ele>126.66666666666666</ele><time>2026-04-04T12:08:55Z</time></trkpt><trkpt lat="44.96795256756915" lon="9.503159678287403"><ele>127.5</ele><time>2026-04-04T12:08:58Z</time></trkpt><trkpt lat="44.9680393846251" lon="9.503197223099319"><ele>128.33333333333334</ele><time>2026-04-04T12:09:01Z</time></trkpt><trkpt lat="44.96813915585573" lon="9.503236558469972"><ele>129.16666666666669</ele><time>2026-04-04T12:09:03Z</time></trkpt><trkpt lat="44.96821416983954" lon="9.503261532850368"><ele>130.0</ele><time>2026-04-04T12:09:05Z</time></trkpt><trkpt lat="44.968289619606715" lon="9.503310060472954"><ele>130.6</ele><time>2026-04-04T12:09:08Z</time></trkpt><trkpt lat="44.968392489578804" lon="9.503349937043103"><ele>131.2</ele><time>2026-04-04T12:09:10Z</time></trkpt><trkpt lat="44.968475963854566" lon="9.503371496806455"><ele>131.8</ele><time>2026-04-04T12:09:12Z</time></trkpt><trkpt lat="44.96854969426901" lon="9.503402884386853"><ele>132.4</ele><time>2026-04-04T12:09:14Z</time></trkpt><trkpt lat="44.96865117302843" lon="9.503466295804472"><ele>133.0</ele><time>2026-04-04T12:09:16Z</time></trkpt><trkpt lat="44.96873857666738" lon="9.503512360159698"><ele>133.0</ele><time>2026-04-04T12:09:18Z</time></trkpt><trkpt lat="44.96886550566813" lon="9.503565973501718"><ele>133.0</ele><time>2026-04-04T12:09:20Z</time></trkpt><trkpt lat="44.96893441967739" lon="9.50359662021493"><ele>133.0</ele><time>2026-04-04T12:09:21Z</time></trkpt><trkpt lat="44.96901270925379" lon="9.503599832353583"><ele>133.0</ele><time>2026-04-04T12:09:22Z</time></trkpt><trkpt lat="44.96908200226466" lon="9.503642277231545"><ele>133.0</ele><time>2026-04-04T12:09:23Z</time></trkpt><trkpt lat="44.969168021139616" lon="9.503691357107646"><ele>132.6</ele><time>2026-04-04T12:09:24Z</time></trkpt><trkpt lat="44.96925344420435" lon="9.503729909545788"><ele>132.20000000000002</ele><time>2026-04-04T12:09:25Z</time></trkpt><trkpt lat="44.96935760442553" lon="9.503789462908912"><ele>131.8</ele><time>2026-04-04T12:09:26Z</time></trkpt><trkpt lat="44.96947181884587" lon="9.50384316511598"><ele>131.4</ele><time>2026-04-04T12:09:27Z</time></trkpt><trkpt lat="44.96956873588039" lon="9.50388313459507"><ele>131.0</ele><time>2026-04-04T12:09:28Z</time></trkpt><trkpt lat="44.96966534478792" lon="9.503920754363156"><ele>130.25</ele><time>2026-04-04T12:09:29Z</time></trkpt><trkpt lat="44.96977342564088" lon="9.503972170086952"><ele>129.5</ele><time>2026-04-04T12:09:30Z</time></trkpt><trkpt lat="44.969902739670815" lon="9.504031271596922"><ele>128.75</ele><time>2026-04-04T12:09:31Z</time></trkpt><trkpt lat="44.97005186535195" lon="9.504087319876897"><ele>128.0</ele><time>2026-04-04T12:09:31.999Z</time></trkpt><trkpt lat="44.970171524931445" lon="9.504163710209932"><ele>127.0</ele><time>2026-04-04T12:09:32.999Z</time></trkpt><trkpt lat="44.970273431418015" lon="9.504255627483351"><ele>126.0</ele><time>2026-04-04T12:09:33.999Z</time></trkpt><trkpt lat="44.97038300460202" lon="9.50432493313234"><ele>125.0</ele><time>2026-04-04T12:09:34.999Z</time></trkpt><trkpt lat="44.97048662792414" lon="9.50439308167958"><ele>124.0</ele><time>2026-04-04T12:09:35.999Z</time></trkpt><trkpt lat="44.97060994816935" lon="9.504472796062887"><ele>124.0</ele><time>2026-04-04T12:09:36.999Z</time></trkpt><trkpt lat="44.97076559483344" lon="9.504589261740646"><ele>124.0</ele><time>2026-04-04T12:09:37.999Z</time></trkpt><trkpt lat="44.97094125485131" lon="9.504666159283083"><ele>124.0</ele><time>2026-04-04T12:09:38.999Z</time></trkpt><trkpt lat="44.97108816273594" lon="9.504745953236728"><ele>124.0</ele><time>2026-04-04T12:09:39.999Z</time></trkpt><trkpt lat="44.971222208655725" lon="9.504818203956471"><ele>124.0</ele><time>2026-04-04T12:09:40.999Z</time></trkpt><trkpt lat="44.97134964166774" lon="9.504881752441106"><ele>124.0</ele><time>2026-04-04T12:09:41.999Z</time></trkpt><trkpt lat="44.97147371931896" lon="9.504948406858523"><ele>124.0</ele><time>2026-04-04T12:09:42.999Z</time></trkpt><trkpt lat="44.97159806249848" lon="9.505045280753178"><ele>125.0</ele><time>2026-04-04T12:09:43.999Z</time></trkpt><trkpt lat="44.97170644941481" lon="9.50517405019943"><ele>126.0</ele><time>2026-04-04T12:09:44.999Z</time></trkpt><trkpt lat="44.971830499913175" lon="9.505315787972911"><ele>127.0</ele><time>2026-04-04T12:09:45.999Z</time></trkpt><trkpt lat="44.97194640819786" lon="9.505488618478081"><ele>127.0</ele><time>2026-04-04T12:09:46.999Z</time></trkpt><trkpt lat="44.97207488787018" lon="9.505672657841975"><ele>127.0</ele><time>2026-04-04T12:09:47.999Z</time></trkpt><trkpt lat="44.97221824891827" lon="9.505875431686732"><ele>127.0</ele><time>2026-04-04T12:09:48.999Z</time></trkpt><trkpt lat="44.97237214003949" lon="9.506094249627308"><ele>126.66666666666667</ele><time>2026-04-04T12:09:49.999Z</time></trkpt><trkpt lat="44.972522172764194" lon="9.506289831872385"><ele>126.33333333333334</ele><time>2026-04-04T12:09:50.999Z</time></trkpt><trkpt lat="44.972642144996286" lon="9.506453907237542"><ele>126.0</ele><time>2026-04-04T12:09:51.999Z</time></trkpt><trkpt lat="44.97275174920568" lon="9.506604623529713"><ele>127.0</ele><time>2026-04-04T12:09:52.999Z</time></trkpt><trkpt lat="44.972853114256004" lon="9.506739061869675"><ele>128.0</ele><time>2026-04-04T12:09:53.999Z</time></trkpt><trkpt lat="44.9729420032586" lon="9.506862801661372"><ele>129.0</ele><time>2026-04-04T12:09:54.999Z</time></trkpt><trkpt lat="44.97303333473301" lon="9.506984384948744"><ele>130.0</ele><time>2026-04-04T12:09:55.999Z</time></trkpt><trkpt lat="44.97313654761447" lon="9.50712427470957"><ele>130.0</ele><time>2026-04-04T12:09:56.999Z</time></trkpt><trkpt lat="44.973242871315016" lon="9.507264914208749"><ele>130.0</ele><time>2026-04-04T12:09:57.999Z</time></trkpt><trkpt lat="44.97333559855985" lon="9.507393023169941"><ele>130.0</ele><time>2026-04-04T12:09:58.999Z</time></trkpt><trkpt lat="44.97338706980667" lon="9.50754229364236"><ele>130.0</ele><time>2026-04-04T12:09:59.999Z</time></trkpt><trkpt lat="44.97341529118377" lon="9.507678851825538"><ele>130.5</ele><time>2026-04-04T12:10:00.999Z</time></trkpt><trkpt lat="44.97341443739609" lon="9.507806875145285"><ele>131.0</ele><time>2026-04-04T12:10:01.999Z</time></trkpt><trkpt lat="44.97341322266752" lon="9.507939529886025"><ele>131.5</ele><time>2026-04-04T12:10:02.999Z</time></trkpt><trkpt lat="44.97341241457572" lon="9.508072182255129"><ele>132.0</ele><time>2026-04-04T12:10:03.999Z</time></trkpt><trkpt lat="44.97342208137423" lon="9.508190558216596"><ele>132.5</ele><time>2026-04-04T12:10:04.999Z</time></trkpt><trkpt lat="44.97344855474407" lon="9.508286919682144"><ele>133.0</ele><time>2026-04-04T12:10:05.999Z</time></trkpt><trkpt lat="44.973443115389024" lon="9.508376870317734"><ele>133.0</ele><time>2026-04-04T12:10:06.999Z</time></trkpt><trkpt lat="44.97351095184256" lon="9.508436433968635"><ele>133.0</ele><time>2026-04-04T12:10:07.999Z</time></trkpt><trkpt lat="44.97359396450972" lon="9.508576950218663"><ele>133.0</ele><time>2026-04-04T12:10:09.999Z</time></trkpt><trkpt lat="44.97373030995586" lon="9.508561213967033"><ele>133.0</ele><time>2026-04-04T12:10:10.999Z</time></trkpt><trkpt lat="44.97383437858517" lon="9.508600152404023"><ele>133.0</ele><time>2026-04-04T12:10:11.999Z</time></trkpt><trkpt lat="44.973914735601596" lon="9.508638026864917"><ele>133.0</ele><time>2026-04-04T12:10:12.999Z</time></trkpt><trkpt lat="44.97398633903221" lon="9.508654888769483"><ele>133.0</ele><time>2026-04-04T12:10:13.999Z</time></trkpt><trkpt lat="44.97409034515295" lon="9.508695814087382"><ele>133.0</ele><time>2026-04-04T12:10:15.999Z</time></trkpt><trkpt lat="44.97435979402403" lon="9.508646920575616"><ele>133.0</ele><time>2026-04-04T12:10:21.999Z</time></trkpt><trkpt lat="44.97442798653092" lon="9.508606841998024"><ele>133.0</ele><time>2026-04-04T12:10:22.999Z</time></trkpt><trkpt lat="44.97451001330255" lon="9.508578216215527"><ele>133.0</ele><time>2026-04-04T12:10:23.999Z</time></trkpt><trkpt lat="44.974586155323685" lon="9.508539980444745"><ele>133.0</ele><time>2026-04-04T12:10:24.999Z</time></trkpt><trkpt lat="44.974682864395014" lon="9.508496601604856"><ele>133.0</ele><time>2026-04-04T12:10:25.999Z</time></trkpt><trkpt lat="44.97475560397717" lon="9.508491366507625"><ele>133.0</ele><time>2026-04-04T12:10:26.999Z</time></trkpt><trkpt lat="44.9748251244256" lon="9.508473286742415"><ele>133.0</ele><time>2026-04-04T12:10:27.999Z</time></trkpt><trkpt lat="44.97489168151596" lon="9.508470882173416"><ele>133.0</ele><time>2026-04-04T12:10:28.999Z</time></trkpt><trkpt lat="44.974971801483015" lon="9.508465952299645"><ele>133.0</ele><time>2026-04-04T12:10:29.999Z</time></trkpt><trkpt lat="44.975066216043366" lon="9.50847693146976"><ele>133.0</ele><time>2026-04-04T12:10:30.999Z</time></trkpt><trkpt lat="44.97515349249577" lon="9.508489750009979"><ele>133.0</ele><time>2026-04-04T12:10:31.999Z</time></trkpt><trkpt lat="44.97523408717898" lon="9.508517520152344"><ele>133.0</ele><time>2026-04-04T12:10:32.999Z</time></trkpt><trkpt lat="44.975322284777135" lon="9.508546968765458"><ele>132.4</ele><time>2026-04-04T12:10:33.999Z</time></trkpt><trkpt lat="44.9754172829528" lon="9.508583574177836"><ele>131.8</ele><time>2026-04-04T12:10:34.999Z</time></trkpt><trkpt lat="44.9755039299304" lon="9.508616513610182"><ele>131.2</ele><time>2026-04-04T12:10:35.999Z</time></trkpt><trkpt lat="44.97556657362412" lon="9.508665410374851"><ele>130.6</ele><time>2026-04-04T12:10:36.999Z</time></trkpt><trkpt lat="44.97567699279179" lon="9.508711280058627"><ele>130.0</ele><time>2026-04-04T12:10:38.999Z</time></trkpt><trkpt lat="44.97579610947162" lon="9.50877204379965"><ele>129.6</ele><time>2026-04-04T12:10:40.999Z</time></trkpt><trkpt lat="44.97585810774303" lon="9.50880115711953"><ele>129.2</ele><time>2026-04-04T12:10:41.999Z</time></trkpt><trkpt lat="44.975990431750496" lon="9.508881763872141"><ele>128.8</ele><time>2026-04-04T12:10:43.998Z</time></trkpt><trkpt lat="44.976061684896834" lon="9.508940156860888"><ele>128.4</ele><time>2026-04-04T12:10:45Z</time></trkpt><trkpt lat="44.97614545425924" lon="9.508992016178542"><ele>128.0</ele><time>2026-04-04T12:10:46Z</time></trkpt><trkpt lat="44.97623049530655" lon="9.509044577074631"><ele>128.0</ele><time>2026-04-04T12:10:47Z</time></trkpt><trkpt lat="44.976310009724905" lon="9.509104919701139"><ele>128.0</ele><time>2026-04-04T12:10:48Z</time></trkpt><trkpt lat="44.97639511032865" lon="9.509155368888964"><ele>128.0</ele><time>2026-04-04T12:10:49Z</time></trkpt><trkpt lat="44.97647567953086" lon="9.509233636260134"><ele>128.0</ele><time>2026-04-04T12:10:50Z</time></trkpt><trkpt lat="44.97655591421921" lon="9.509288133681897"><ele>128.0</ele><time>2026-04-04T12:10:51Z</time></trkpt><trkpt lat="44.97665289511494" lon="9.509345321536948"><ele>127.5</ele><time>2026-04-04T12:10:52Z</time></trkpt><trkpt lat="44.97675754946658" lon="9.509409820348246"><ele>127.0</ele><time>2026-04-04T12:10:53Z</time></trkpt><trkpt lat="44.97686405185421" lon="9.509468193805217"><ele>126.5</ele><time>2026-04-04T12:10:54Z</time></trkpt><trkpt lat="44.97696983879376" lon="9.509537649533852"><ele>126.0</ele><time>2026-04-04T12:10:55Z</time></trkpt><trkpt lat="44.97708477270318" lon="9.509592255276688"><ele>125.4</ele><time>2026-04-04T12:10:56Z</time></trkpt><trkpt lat="44.97718383570531" lon="9.509656887352223"><ele>124.8</ele><time>2026-04-04T12:10:57Z</time></trkpt><trkpt lat="44.97728381919387" lon="9.509696544954293"><ele>124.20000000000002</ele><time>2026-04-04T12:10:58Z</time></trkpt><trkpt lat="44.97738247640386" lon="9.509754006293065"><ele>123.60000000000001</ele><time>2026-04-04T12:10:59Z</time></trkpt><trkpt lat="44.97748927852582" lon="9.509810595577886"><ele>123.0</ele><time>2026-04-04T12:11:00Z</time></trkpt><trkpt lat="44.977601049596124" lon="9.509861535568284"><ele>123.0</ele><time>2026-04-04T12:11:01Z</time></trkpt><trkpt lat="44.97770327041199" lon="9.509913450636546"><ele>123.0</ele><time>2026-04-04T12:11:02Z</time></trkpt><trkpt lat="44.97781478392498" lon="9.509964436391376"><ele>123.0</ele><time>2026-04-04T12:11:03Z</time></trkpt><trkpt lat="44.97793926029584" lon="9.510012166210485"><ele>123.0</ele><time>2026-04-04T12:11:04Z</time></trkpt><trkpt lat="44.97808000779245" lon="9.510060767095219"><ele>123.0</ele><time>2026-04-04T12:11:05Z</time></trkpt><trkpt lat="44.97819389103318" lon="9.510097718146154"><ele>123.00000000000001</ele><time>2026-04-04T12:11:06Z</time></trkpt><trkpt lat="44.97829123030845" lon="9.510134535551098"><ele>123.00000000000001</ele><time>2026-04-04T12:11:07Z</time></trkpt><trkpt lat="44.97837883514704" lon="9.510166710634516"><ele>123.0</ele><time>2026-04-04T12:11:08Z</time></trkpt><trkpt lat="44.97845984043039" lon="9.510193430686703"><ele>123.0</ele><time>2026-04-04T12:11:09Z</time></trkpt><trkpt lat="44.978530100384226" lon="9.510209207518239"><ele>122.80000000000001</ele><time>2026-04-04T12:11:10Z</time></trkpt><trkpt lat="44.97859550263762" lon="9.510196623141061"><ele>122.60000000000001</ele><time>2026-04-04T12:11:11Z</time></trkpt><trkpt lat="44.978673695616024" lon="9.510097197180084"><ele>122.39999999999999</ele><time>2026-04-04T12:11:13Z</time></trkpt><trkpt lat="44.978703870256" lon="9.5099856822695"><ele>122.19999999999999</ele><time>2026-04-04T12:11:14Z</time></trkpt><trkpt lat="44.978735372676546" lon="9.509830818882921"><ele>122.0</ele><time>2026-04-04T12:11:15Z</time></trkpt><trkpt lat="44.97878048143819" lon="9.509662617668392"><ele>121.83333333333333</ele><time>2026-04-04T12:11:16Z</time></trkpt><trkpt lat="44.978822688609526" lon="9.509517670687668"><ele>121.66666666666666</ele><time>2026-04-04T12:11:17Z</time></trkpt><trkpt lat="44.97885837051691" lon="9.50939666290037"><ele>121.5</ele><time>2026-04-04T12:11:18Z</time></trkpt><trkpt lat="44.978900181131905" lon="9.509291357471389"><ele>121.33333333333334</ele><time>2026-04-04T12:11:19Z</time></trkpt><trkpt lat="44.978948118826374" lon="9.509208557091238"><ele>121.16666666666667</ele><time>2026-04-04T12:11:20Z</time></trkpt><trkpt lat="44.97901596218337" lon="9.509151539483911"><ele>121.0</ele><time>2026-04-04T12:11:21Z</time></trkpt><trkpt lat="44.97910597570496" lon="9.50912173211202"><ele>120.5</ele><time>2026-04-04T12:11:22Z</time></trkpt><trkpt lat="44.97920897158092" lon="9.509127087035276"><ele>120.0</ele><time>2026-04-04T12:11:23Z</time></trkpt><trkpt lat="44.97930920354863" lon="9.509162884924184"><ele>119.5</ele><time>2026-04-04T12:11:24Z</time></trkpt><trkpt lat="44.97943094023916" lon="9.509194113663074"><ele>119.0</ele><time>2026-04-04T12:11:25Z</time></trkpt><trkpt lat="44.97957972593373" lon="9.509220284437012"><ele>119.0</ele><time>2026-04-04T12:11:26Z</time></trkpt><trkpt lat="44.97973767365825" lon="9.50925285580382"><ele>119.0</ele><time>2026-04-04T12:11:27Z</time></trkpt><trkpt lat="44.97991542627955" lon="9.50928236910426"><ele>119.0</ele><time>2026-04-04T12:11:28Z</time></trkpt><trkpt lat="44.98009269349086" lon="9.5093134488447"><ele>118.66666666666666</ele><time>2026-04-04T12:11:29Z</time></trkpt><trkpt lat="44.98030212535647" lon="9.509339304072437"><ele>118.33333333333334</ele><time>2026-04-04T12:11:30Z</time></trkpt><trkpt lat="44.98052155019281" lon="9.509378511601852"><ele>118.0</ele><time>2026-04-04T12:11:31Z</time></trkpt><trkpt lat="44.98071356183783" lon="9.50939501983586"><ele>117.33333333333334</ele><time>2026-04-04T12:11:32Z</time></trkpt><trkpt lat="44.980906039980376" lon="9.50944605998159"><ele>116.66666666666666</ele><time>2026-04-04T12:11:33Z</time></trkpt><trkpt lat="44.98110599733815" lon="9.509498886372974"><ele>116.0</ele><time>2026-04-04T12:11:34Z</time></trkpt><trkpt lat="44.98130111586334" lon="9.509555231205661"><ele>116.0</ele><time>2026-04-04T12:11:35Z</time></trkpt><trkpt lat="44.98148133578103" lon="9.509603196601217"><ele>116.0</ele><time>2026-04-04T12:11:36Z</time></trkpt><trkpt lat="44.981638377281556" lon="9.50964083645269"><ele>116.0</ele><time>2026-04-04T12:11:36.999Z</time></trkpt><trkpt lat="44.98178747595124" lon="9.509669430086294"><ele>116.0</ele><time>2026-04-04T12:11:37.999Z</time></trkpt><trkpt lat="44.98194503373972" lon="9.50970369948795"><ele>116.0</ele><time>2026-04-04T12:11:38.999Z</time></trkpt><trkpt lat="44.98210856796938" lon="9.509732081918923"><ele>116.0</ele><time>2026-04-04T12:11:39.999Z</time></trkpt><trkpt lat="44.98227378663756" lon="9.509753106415127"><ele>116.0</ele><time>2026-04-04T12:11:40.999Z</time></trkpt><trkpt lat="44.98243727692282" lon="9.509764133915827"><ele>116.0</ele><time>2026-04-04T12:11:41.999Z</time></trkpt><trkpt lat="44.982596148468495" lon="9.509744234703465"><ele>116.0</ele><time>2026-04-04T12:11:42.999Z</time></trkpt><trkpt lat="44.98274308335787" lon="9.509725434362977"><ele>115.0</ele><time>2026-04-04T12:11:43.999Z</time></trkpt><trkpt lat="44.98287705716696" lon="9.509715383656065"><ele>114.0</ele><time>2026-04-04T12:11:44.999Z</time></trkpt><trkpt lat="44.983007865251174" lon="9.509716560579369"><ele>113.0</ele><time>2026-04-04T12:11:45.999Z</time></trkpt><trkpt lat="44.98314133190984" lon="9.509744321731711"><ele>112.0</ele><time>2026-04-04T12:11:46.999Z</time></trkpt><trkpt lat="44.983276839825876" lon="9.509794937733572"><ele>111.66666666666667</ele><time>2026-04-04T12:11:47.999Z</time></trkpt><trkpt lat="44.98343411009545" lon="9.509839746593885"><ele>111.33333333333334</ele><time>2026-04-04T12:11:48.999Z</time></trkpt><trkpt lat="44.98358297223826" lon="9.50990570249123"><ele>111.0</ele><time>2026-04-04T12:11:49.999Z</time></trkpt><trkpt lat="44.983728015551726" lon="9.509950457421134"><ele>111.0</ele><time>2026-04-04T12:11:50.999Z</time></trkpt><trkpt lat="44.983862550334294" lon="9.509988076867682"><ele>111.0</ele><time>2026-04-04T12:11:51.999Z</time></trkpt><trkpt lat="44.98399695789848" lon="9.510029437478195"><ele>111.0</ele><time>2026-04-04T12:11:52.999Z</time></trkpt><trkpt lat="44.98414547692091" lon="9.510074856247105"><ele>111.0</ele><time>2026-04-04T12:11:53.999Z</time></trkpt><trkpt lat="44.984287479073636" lon="9.510118319185539"><ele>110.0</ele><time>2026-04-04T12:11:54.999Z</time></trkpt><trkpt lat="44.98442588639788" lon="9.510152799844189"><ele>109.0</ele><time>2026-04-04T12:11:55.999Z</time></trkpt><trkpt lat="44.98457237368438" lon="9.51020299986564"><ele>108.0</ele><time>2026-04-04T12:11:56.999Z</time></trkpt><trkpt lat="44.98473033277162" lon="9.510248089342126"><ele>108.0</ele><time>2026-04-04T12:11:57.999Z</time></trkpt><trkpt lat="44.98489246872166" lon="9.510300876468078"><ele>108.0</ele><time>2026-04-04T12:11:58.999Z</time></trkpt><trkpt lat="44.98505460999378" lon="9.510362753248028"><ele>108.0</ele><time>2026-04-04T12:11:59.999Z</time></trkpt><trkpt lat="44.98521784363594" lon="9.51042531380896"><ele>108.33333333333334</ele><time>2026-04-04T12:12:00.999Z</time></trkpt><trkpt lat="44.98537245821783" lon="9.510483229128297"><ele>108.66666666666667</ele><time>2026-04-04T12:12:01.999Z</time></trkpt><trkpt lat="44.98552932265477" lon="9.510559172689813"><ele>109.0</ele><time>2026-04-04T12:12:02.999Z</time></trkpt><trkpt lat="44.98568776862459" lon="9.510638415699198"><ele>108.0</ele><time>2026-04-04T12:12:03.999Z</time></trkpt><trkpt lat="44.98584864772462" lon="9.51071950564193"><ele>107.0</ele><time>2026-04-04T12:12:04.999Z</time></trkpt><trkpt lat="44.98602011461109" lon="9.510802050308193"><ele>106.0</ele><time>2026-04-04T12:12:05.999Z</time></trkpt><trkpt lat="44.98617016639523" lon="9.510883509577939"><ele>106.0</ele><time>2026-04-04T12:12:06.999Z</time></trkpt><trkpt lat="44.986312122466856" lon="9.510956868411691"><ele>106.0</ele><time>2026-04-04T12:12:07.999Z</time></trkpt><trkpt lat="44.98644991500845" lon="9.511023370735957"><ele>106.0</ele><time>2026-04-04T12:12:08.999Z</time></trkpt><trkpt lat="44.98658099355217" lon="9.51108955268979"><ele>106.0</ele><time>2026-04-04T12:12:09.999Z</time></trkpt><trkpt lat="44.98672280521509" lon="9.511161823642988"><ele>106.0</ele><time>2026-04-04T12:12:10.999Z</time></trkpt><trkpt lat="44.98687044157281" lon="9.511230140337064"><ele>106.0</ele><time>2026-04-04T12:12:11.999Z</time></trkpt><trkpt lat="44.98701953202676" lon="9.51130528395609"><ele>106.0</ele><time>2026-04-04T12:12:12.999Z</time></trkpt><trkpt lat="44.98715635910375" lon="9.511376154382155"><ele>106.0</ele><time>2026-04-04T12:12:13.999Z</time></trkpt><trkpt lat="44.987296624865515" lon="9.511446081864595"><ele>106.0</ele><time>2026-04-04T12:12:14.999Z</time></trkpt><trkpt lat="44.98744140238883" lon="9.511512096304564"><ele>106.0</ele><time>2026-04-04T12:12:15.999Z</time></trkpt><trkpt lat="44.98758640521394" lon="9.511589407959042"><ele>104.66666666666667</ele><time>2026-04-04T12:12:16.999Z</time></trkpt><trkpt lat="44.987739027444306" lon="9.511666935579774"><ele>103.33333333333334</ele><time>2026-04-04T12:12:17.999Z</time></trkpt><trkpt lat="44.98789854811595" lon="9.511740598859278"><ele>102.0</ele><time>2026-04-04T12:12:18.999Z</time></trkpt><trkpt lat="44.988058312203144" lon="9.511838825687008"><ele>102.0</ele><time>2026-04-04T12:12:19.999Z</time></trkpt><trkpt lat="44.98822975787495" lon="9.51191296372621"><ele>102.0</ele><time>2026-04-04T12:12:20.999Z</time></trkpt><trkpt lat="44.98838430539362" lon="9.511986476432599"><ele>102.0</ele><time>2026-04-04T12:12:21.999Z</time></trkpt><trkpt lat="44.98854615408509" lon="9.512048259523619"><ele>101.66666666666666</ele><time>2026-04-04T12:12:22.999Z</time></trkpt><trkpt lat="44.98869911696128" lon="9.512111233358352"><ele>101.33333333333333</ele><time>2026-04-04T12:12:23.999Z</time></trkpt><trkpt lat="44.98884550071903" lon="9.512168965024047"><ele>101.0</ele><time>2026-04-04T12:12:24.999Z</time></trkpt><trkpt lat="44.98898551989262" lon="9.5122215109432"><ele>101.0</ele><time>2026-04-04T12:12:25.999Z</time></trkpt><trkpt lat="44.98911780810161" lon="9.512279026049622"><ele>101.0</ele><time>2026-04-04T12:12:26.999Z</time></trkpt><trkpt lat="44.98924559813276" lon="9.512327327809787"><ele>101.0</ele><time>2026-04-04T12:12:27.999Z</time></trkpt><trkpt lat="44.98937042671567" lon="9.512376784137935"><ele>101.0</ele><time>2026-04-04T12:12:28.999Z</time></trkpt><trkpt lat="44.98948061555422" lon="9.512419519117126"><ele>101.0</ele><time>2026-04-04T12:12:29.999Z</time></trkpt><trkpt lat="44.98958560966929" lon="9.512462162426555"><ele>101.0</ele><time>2026-04-04T12:12:30.999Z</time></trkpt><trkpt lat="44.98968786070875" lon="9.512506031688542"><ele>101.0</ele><time>2026-04-04T12:12:31.999Z</time></trkpt><trkpt lat="44.98978557498553" lon="9.51254691710515"><ele>101.0</ele><time>2026-04-04T12:12:32.999Z</time></trkpt><trkpt lat="44.989887494485444" lon="9.512593502792168"><ele>101.0</ele><time>2026-04-04T12:12:33.999Z</time></trkpt><trkpt lat="44.99000381828919" lon="9.51264792978657"><ele>100.5</ele><time>2026-04-04T12:12:34.999Z</time></trkpt><trkpt lat="44.99013304280404" lon="9.512692130908505"><ele>100.0</ele><time>2026-04-04T12:12:35.999Z</time></trkpt><trkpt lat="44.99026782581712" lon="9.512744057569058"><ele>99.5</ele><time>2026-04-04T12:12:36.999Z</time></trkpt><trkpt lat="44.9903948737567" lon="9.51279035798185"><ele>99.0</ele><time>2026-04-04T12:12:37.999Z</time></trkpt><trkpt lat="44.99052026700896" lon="9.512843728597586"><ele>99.0</ele><time>2026-04-04T12:12:38.999Z</time></trkpt><trkpt lat="44.99064854969288" lon="9.51289827128624"><ele>99.0</ele><time>2026-04-04T12:12:39.999Z</time></trkpt><trkpt lat="44.990780647053064" lon="9.512957779969067"><ele>99.0</ele><time>2026-04-04T12:12:40.999Z</time></trkpt><trkpt lat="44.99091446740472" lon="9.51301277453784"><ele>99.0</ele><time>2026-04-04T12:12:41.999Z</time></trkpt><trkpt lat="44.991053916160965" lon="9.513069120992494"><ele>97.5</ele><time>2026-04-04T12:12:42.999Z</time></trkpt><trkpt lat="44.99118467759041" lon="9.513121687323938"><ele>96.0</ele><time>2026-04-04T12:12:43.999Z</time></trkpt><trkpt lat="44.99131474749003" lon="9.513153221440467"><ele>94.5</ele><time>2026-04-04T12:12:44.999Z</time></trkpt><trkpt lat="44.991442264220034" lon="9.513167876741136"><ele>93.0</ele><time>2026-04-04T12:12:45.999Z</time></trkpt><trkpt lat="44.991564984629704" lon="9.513147823424651"><ele>93.0</ele><time>2026-04-04T12:12:46.999Z</time></trkpt><trkpt lat="44.991675690202364" lon="9.513097697046652"><ele>93.0</ele><time>2026-04-04T12:12:47.999Z</time></trkpt><trkpt lat="44.99178946770894" lon="9.513041176106313"><ele>93.0</ele><time>2026-04-04T12:12:48.999Z</time></trkpt><trkpt lat="44.99191133230073" lon="9.512984372041538"><ele>93.0</ele><time>2026-04-04T12:12:49.999Z</time></trkpt><trkpt lat="44.99203981408335" lon="9.512922248677876"><ele>93.25</ele><time>2026-04-04T12:12:51Z</time></trkpt><trkpt lat="44.99217438914002" lon="9.512849629085204"><ele>93.5</ele><time>2026-04-04T12:12:52Z</time></trkpt><trkpt lat="44.99231250035494" lon="9.51277584952981"><ele>93.75</ele><time>2026-04-04T12:12:53Z</time></trkpt><trkpt lat="44.99243870606977" lon="9.512681407464921"><ele>94.0</ele><time>2026-04-04T12:12:54Z</time></trkpt><trkpt lat="44.99256851541469" lon="9.512590403373174"><ele>94.25</ele><time>2026-04-04T12:12:55Z</time></trkpt><trkpt lat="44.99269913067512" lon="9.512498187019778"><ele>94.5</ele><time>2026-04-04T12:12:56Z</time></trkpt><trkpt lat="44.992831623985055" lon="9.512407380223017"><ele>94.75</ele><time>2026-04-04T12:12:57Z</time></trkpt><trkpt lat="44.99297187698372" lon="9.512318270261046"><ele>95.0</ele><time>2026-04-04T12:12:58Z</time></trkpt><trkpt lat="44.993111642291865" lon="9.512226322529317"><ele>95.0</ele><time>2026-04-04T12:12:59Z</time></trkpt><trkpt lat="44.99325798482469" lon="9.512122176586796"><ele>95.0</ele><time>2026-04-04T12:13:00Z</time></trkpt><trkpt lat="44.9934126558497" lon="9.512013492579909"><ele>95.0</ele><time>2026-04-04T12:13:01Z</time></trkpt><trkpt lat="44.993576707861855" lon="9.511907617227811"><ele>95.33333333333334</ele><time>2026-04-04T12:13:02Z</time></trkpt><trkpt lat="44.99374717462337" lon="9.511797268461104"><ele>95.66666666666667</ele><time>2026-04-04T12:13:03Z</time></trkpt><trkpt lat="44.99391126989808" lon="9.511689900659979"><ele>96.0</ele><time>2026-04-04T12:13:04Z</time></trkpt><trkpt lat="44.99405790150748" lon="9.511590506871487"><ele>95.0</ele><time>2026-04-04T12:13:05Z</time></trkpt><trkpt lat="44.99419867236571" lon="9.511493690414255"><ele>94.0</ele><time>2026-04-04T12:13:06Z</time></trkpt><trkpt lat="44.994337281917474" lon="9.511397845130434"><ele>93.0</ele><time>2026-04-04T12:13:07Z</time></trkpt><trkpt lat="44.99448193546308" lon="9.511302441685407"><ele>93.0</ele><time>2026-04-04T12:13:08Z</time></trkpt><trkpt lat="44.99461555260199" lon="9.511214912316817"><ele>93.0</ele><time>2026-04-04T12:13:09Z</time></trkpt><trkpt lat="44.99474583290697" lon="9.511146436100733"><ele>93.0</ele><time>2026-04-04T12:13:10Z</time></trkpt><trkpt lat="44.99488901415512" lon="9.511089909454165"><ele>93.0</ele><time>2026-04-04T12:13:11Z</time></trkpt><trkpt lat="44.99503724663804" lon="9.511061185017237"><ele>93.0</ele><time>2026-04-04T12:13:12Z</time></trkpt><trkpt lat="44.99518782028371" lon="9.51105574204331"><ele>93.0</ele><time>2026-04-04T12:13:13Z</time></trkpt><trkpt lat="44.99534639833509" lon="9.51105227744921"><ele>93.0</ele><time>2026-04-04T12:13:14Z</time></trkpt><trkpt lat="44.995514294748446" lon="9.51104447269006"><ele>93.0</ele><time>2026-04-04T12:13:15Z</time></trkpt><trkpt lat="44.995687571846446" lon="9.511040506593568"><ele>93.0</ele><time>2026-04-04T12:13:16Z</time></trkpt><trkpt lat="44.99586736650675" lon="9.511035745751963"><ele>93.0</ele><time>2026-04-04T12:13:17Z</time></trkpt><trkpt lat="44.99605290893213" lon="9.511046395466535"><ele>93.0</ele><time>2026-04-04T12:13:18Z</time></trkpt><trkpt lat="44.996243946657316" lon="9.511068711769292"><ele>93.0</ele><time>2026-04-04T12:13:19Z</time></trkpt><trkpt lat="44.99643956282803" lon="9.511086447078398"><ele>93.0</ele><time>2026-04-04T12:13:20Z</time></trkpt><trkpt lat="44.99664311451885" lon="9.511115695569897"><ele>93.0</ele><time>2026-04-04T12:13:21Z</time></trkpt><trkpt lat="44.996851629155515" lon="9.5111636723881"><ele>93.0</ele><time>2026-04-04T12:13:22Z</time></trkpt><trkpt lat="44.99707022224544" lon="9.511169761359161"><ele>93.0</ele><time>2026-04-04T12:13:23Z</time></trkpt><trkpt lat="44.9972718436128" lon="9.511197453208116"><ele>93.0</ele><time>2026-04-04T12:13:24Z</time></trkpt><trkpt lat="44.99745910543663" lon="9.511224716252476"><ele>93.0</ele><time>2026-04-04T12:13:25Z</time></trkpt><trkpt lat="44.99763454861929" lon="9.511251043687805"><ele>93.0</ele><time>2026-04-04T12:13:26Z</time></trkpt><trkpt lat="44.99781507837204" lon="9.511274821704976"><ele>92.66666666666667</ele><time>2026-04-04T12:13:27Z</time></trkpt><trkpt lat="44.997992668868314" lon="9.511299624836765"><ele>92.33333333333334</ele><time>2026-04-04T12:13:28Z</time></trkpt><trkpt lat="44.99815509800267" lon="9.511312769881458"><ele>92.0</ele><time>2026-04-04T12:13:29Z</time></trkpt><trkpt lat="44.99831188005458" lon="9.511320929993186"><ele>92.25</ele><time>2026-04-04T12:13:30Z</time></trkpt><trkpt lat="44.99846014737219" lon="9.51132536887779"><ele>92.5</ele><time>2026-04-04T12:13:31Z</time></trkpt><trkpt lat="44.99860142503266" lon="9.5113264878865"><ele>92.75</ele><time>2026-04-04T12:13:32Z</time></trkpt><trkpt lat="44.99874807071" lon="9.511337927076896"><ele>93.0</ele><time>2026-04-04T12:13:33Z</time></trkpt><trkpt lat="44.99889293112049" lon="9.511369537755046"><ele>93.0</ele><time>2026-04-04T12:13:34Z</time></trkpt><trkpt lat="44.99902806193619" lon="9.511384952175685"><ele>93.0</ele><time>2026-04-04T12:13:35Z</time></trkpt><trkpt lat="44.99913987313302" lon="9.5113977259166"><ele>93.0</ele><time>2026-04-04T12:13:36Z</time></trkpt><trkpt lat="44.999236484755606" lon="9.51138541781992"><ele>93.0</ele><time>2026-04-04T12:13:37Z</time></trkpt><trkpt lat="44.99932422902663" lon="9.511411941943704"><ele>93.0</ele><time>2026-04-04T12:13:38Z</time></trkpt><trkpt lat="44.99940868728436" lon="9.51142575492962"><ele>93.33333333333333</ele><time>2026-04-04T12:13:39Z</time></trkpt><trkpt lat="44.99949037692054" lon="9.511432283545727"><ele>93.66666666666667</ele><time>2026-04-04T12:13:39.999Z</time></trkpt><trkpt lat="44.99956460370994" lon="9.511435590179264"><ele>94.0</ele><time>2026-04-04T12:13:40.999Z</time></trkpt><trkpt lat="44.99968548103287" lon="9.51145675337502"><ele>94.33333333333334</ele><time>2026-04-04T12:13:42.999Z</time></trkpt><trkpt lat="44.99974871048928" lon="9.511466300583821"><ele>94.66666666666667</ele><time>2026-04-04T12:13:43.999Z</time></trkpt><trkpt lat="44.99982308980193" lon="9.5114651094429"><ele>95.0</ele><time>2026-04-04T12:13:44.999Z</time></trkpt><trkpt lat="44.99989054139426" lon="9.511468469323232"><ele>95.0</ele><time>2026-04-04T12:13:45.999Z</time></trkpt><trkpt lat="45.00001253598883" lon="9.511480254642127"><ele>95.0</ele><time>2026-04-04T12:13:47.999Z</time></trkpt><trkpt lat="45.00012178469777" lon="9.511498799517062"><ele>95.0</ele><time>2026-04-04T12:13:49.999Z</time></trkpt><trkpt lat="45.000230047309365" lon="9.511510532969247"><ele>95.0</ele><time>2026-04-04T12:13:51.999Z</time></trkpt><trkpt lat="45.00031608336551" lon="9.511546493444493"><ele>95.0</ele><time>2026-04-04T12:13:53.999Z</time></trkpt><trkpt lat="45.000254119540706" lon="9.511707669288276"><ele>95.0</ele><time>2026-04-04T12:13:57.999Z</time></trkpt><trkpt lat="45.000206290512054" lon="9.511794953743408"><ele>95.0</ele><time>2026-04-04T12:13:59.999Z</time></trkpt><trkpt lat="45.00015501222339" lon="9.51188423159622"><ele>95.0</ele><time>2026-04-04T12:14:01.999Z</time></trkpt><trkpt lat="45.000101047912445" lon="9.511952682785374"><ele>95.0</ele><time>2026-04-04T12:14:03.999Z</time></trkpt><trkpt lat="45.00009098389251" lon="9.51210045674151"><ele>95.0</ele><time>2026-04-04T12:14:08.999Z</time></trkpt><trkpt lat="45.00012169054392" lon="9.512234737612806"><ele>95.0</ele><time>2026-04-04T12:14:10.999Z</time></trkpt><trkpt lat="45.00020348817949" lon="9.512328439740974"><ele>92.0</ele><time>2026-04-04T12:14:12.999Z</time></trkpt><trkpt lat="45.00020257875618" lon="9.512435382543272"><ele>92.0</ele><time>2026-04-04T12:14:14.999Z</time></trkpt><trkpt lat="45.000262566444896" lon="9.512463039251413"><ele>92.0</ele><time>2026-04-04T12:14:17.999Z</time></trkpt><trkpt lat="45.00022095835173" lon="9.51238851180328"><ele>92.0</ele><time>2026-04-04T12:15:17Z</time></trkpt><trkpt lat="45.00017696852063" lon="9.512321126133536"><ele>92.0</ele><time>2026-04-04T12:15:23Z</time></trkpt><trkpt lat="45.00012185312664" lon="9.512254962580888"><ele>92.0</ele><time>2026-04-04T12:15:30Z</time></trkpt><trkpt lat="45.00010366958474" lon="9.512153308244699"><ele>92.0</ele><time>2026-04-04T12:15:37Z</time></trkpt></trkseg></trk></gpx>